<?xml version='1.0' encoding='UTF-8'?><gpx version="1.1" creator="JPX - https://github.com/jenetics/jpx" xmlns="http://www.topografix.com/GPX/1/1"><trk><trkseg><trkpt lat="44.331145" lon="7.4887483"><ele>639.0</ele><time>2026-05-03T15:10:57.273Z</time></trkpt><trkpt lat="44.3311083" lon="7.48887"><ele>639.0</ele><time>2026-05-03T15:10:58.272Z</time></trkpt><trkpt lat="44.3310433" lon="7.4887867"><ele>639.0</ele><time>2026-05-03T15:15:16.271Z</time></trkpt><trkpt lat="44.3309783" lon="7.4887467"><ele>639.0</ele><time>2026-05-03T15:15:18.271Z</time></trkpt><trkpt lat="44.3308933" lon="7.4887217"><ele>639.0</ele><time>2026-05-03T15:15:20.271Z</time></trkpt><trkpt lat="44.330805" lon="7.48867"><ele>639.0</ele><time>2026-05-03T15:15:22.272Z</time></trkpt><trkpt lat="44.330715" lon="7.4886117"><ele>639.0</ele><time>2026-05-03T15:15:24.272Z</time></trkpt><trkpt lat="44.330645" lon="7.4885483"><ele>639.0</ele><time>2026-05-03T15:15:26.271Z</time></trkpt><trkpt lat="44.3305467" lon="7.488495"><ele>639.0</ele><time>2026-05-03T15:15:28.272Z</time></trkpt><trkpt lat="44.3304567" lon="7.488465"><ele>639.0</ele><time>2026-05-03T15:15:30.272Z</time></trkpt><trkpt lat="44.33033" lon="7.4884383"><ele>639.0</ele><time>2026-05-03T15:15:32.271Z</time></trkpt><trkpt lat="44.330265" lon="7.4884283"><ele>639.0</ele><time>2026-05-03T15:15:33.271Z</time></trkpt><trkpt lat="44.3301633" lon="7.4884317"><ele>639.0</ele><time>2026-05-03T15:15:35.271Z</time></trkpt><trkpt lat="44.3300917" lon="7.48844"><ele>639.0</ele><time>2026-05-03T15:15:36.271Z</time></trkpt><trkpt lat="44.3299983" lon="7.4884283"><ele>639.0</ele><time>2026-05-03T15:15:38.271Z</time></trkpt><trkpt lat="44.3299" lon="7.4884117"><ele>639.0</ele><time>2026-05-03T15:15:40.271Z</time></trkpt><trkpt lat="44.3298267" lon="7.4883967"><ele>639.0</ele><time>2026-05-03T15:15:42.271Z</time></trkpt><trkpt lat="44.32976" lon="7.4883683"><ele>639.0</ele><time>2026-05-03T15:15:45.271Z</time></trkpt><trkpt lat="44.3297617" lon="7.4882383"><ele>639.0</ele><time>2026-05-03T15:15:48.271Z</time></trkpt><trkpt lat="44.3297917" lon="7.4880967"><ele>639.0</ele><time>2026-05-03T15:15:50.271Z</time></trkpt><trkpt lat="44.3298083" lon="7.48796"><ele>639.0</ele><time>2026-05-03T15:15:52.271Z</time></trkpt><trkpt lat="44.3298267" lon="7.4878283"><ele>639.0</ele><time>2026-05-03T15:15:54.271Z</time></trkpt><trkpt lat="44.3298367" lon="7.4877167"><ele>639.0</ele><time>2026-05-03T15:15:56.271Z</time></trkpt><trkpt lat="44.3298533" lon="7.48761"><ele>639.0</ele><time>2026-05-03T15:15:58.271Z</time></trkpt><trkpt lat="44.329875" lon="7.487505"><ele>639.0</ele><time>2026-05-03T15:16:00.271Z</time></trkpt><trkpt lat="44.329905" lon="7.4874067"><ele>639.0</ele><time>2026-05-03T15:16:02.271Z</time></trkpt><trkpt lat="44.32993" lon="7.487325"><ele>639.0</ele><time>2026-05-03T15:16:04.271Z</time></trkpt><trkpt lat="44.3298917" lon="7.487155"><ele>639.0</ele><time>2026-05-03T15:18:52.271Z</time></trkpt><trkpt lat="44.3299017" lon="7.4870533"><ele>639.2</ele><time>2026-05-03T15:18:54.271Z</time></trkpt><trkpt lat="44.3299183" lon="7.4869433"><ele>639.4</ele><time>2026-05-03T15:18:56.271Z</time></trkpt><trkpt lat="44.329935" lon="7.4868283"><ele>639.6</ele><time>2026-05-03T15:18:58.272Z</time></trkpt><trkpt lat="44.329955" lon="7.4866817"><ele>639.8</ele><time>2026-05-03T15:19:00.271Z</time></trkpt><trkpt lat="44.329975" lon="7.4865317"><ele>640.0</ele><time>2026-05-03T15:19:02.272Z</time></trkpt><trkpt lat="44.3299967" lon="7.4863767"><ele>640.0</ele><time>2026-05-03T15:19:04.271Z</time></trkpt><trkpt lat="44.3300017" lon="7.4862883"><ele>640.0</ele><time>2026-05-03T15:19:05.272Z</time></trkpt><trkpt lat="44.330015" lon="7.4861283"><ele>640.0</ele><time>2026-05-03T15:19:07.271Z</time></trkpt><trkpt lat="44.33002" lon="7.485965"><ele>640.0</ele><time>2026-05-03T15:19:09.271Z</time></trkpt><trkpt lat="44.3300167" lon="7.4857917"><ele>640.0</ele><time>2026-05-03T15:19:11.271Z</time></trkpt><trkpt lat="44.3300217" lon="7.4857033"><ele>639.8333333333334</ele><time>2026-05-03T15:19:12.271Z</time></trkpt><trkpt lat="44.3300283" lon="7.4856067"><ele>639.6666666666667</ele><time>2026-05-03T15:19:13.271Z</time></trkpt><trkpt lat="44.3300367" lon="7.4855117"><ele>639.5</ele><time>2026-05-03T15:19:14.272Z</time></trkpt><trkpt lat="44.3300367" lon="7.4854183"><ele>639.3333333333334</ele><time>2026-05-03T15:19:15.272Z</time></trkpt><trkpt lat="44.33003" lon="7.4852733"><ele>639.1666666666666</ele><time>2026-05-03T15:19:17.271Z</time></trkpt><trkpt lat="44.3300217" lon="7.4851633"><ele>639.0</ele><time>2026-05-03T15:19:19.271Z</time></trkpt><trkpt lat="44.3300167" lon="7.4850717"><ele>639.3333333333334</ele><time>2026-05-03T15:19:21.272Z</time></trkpt><trkpt lat="44.330015" lon="7.4849583"><ele>639.6666666666666</ele><time>2026-05-03T15:19:23.272Z</time></trkpt><trkpt lat="44.330015" lon="7.4848333"><ele>640.0</ele><time>2026-05-03T15:19:25.271Z</time></trkpt><trkpt lat="44.3300317" lon="7.4847167"><ele>640.3333333333333</ele><time>2026-05-03T15:19:27.272Z</time></trkpt><trkpt lat="44.3300533" lon="7.4846067"><ele>640.6666666666666</ele><time>2026-05-03T15:19:29.271Z</time></trkpt><trkpt lat="44.3300933" lon="7.4845"><ele>641.0</ele><time>2026-05-03T15:19:31.271Z</time></trkpt><trkpt lat="44.3301617" lon="7.4844633"><ele>641.0</ele><time>2026-05-03T15:19:34.271Z</time></trkpt><trkpt lat="44.3302133" lon="7.4845283"><ele>641.0</ele><time>2026-05-03T15:19:36.272Z</time></trkpt><trkpt lat="44.3302583" lon="7.484595"><ele>641.0</ele><time>2026-05-03T15:19:37.271Z</time></trkpt><trkpt lat="44.3303183" lon="7.4846833"><ele>641.0</ele><time>2026-05-03T15:19:38.271Z</time></trkpt><trkpt lat="44.3303733" lon="7.4847717"><ele>641.0</ele><time>2026-05-03T15:19:39.271Z</time></trkpt><trkpt lat="44.330415" lon="7.484855"><ele>641.0</ele><time>2026-05-03T15:19:40.271Z</time></trkpt><trkpt lat="44.3304517" lon="7.4849483"><ele>641.0</ele><time>2026-05-03T15:19:41.271Z</time></trkpt><trkpt lat="44.3304917" lon="7.485045"><ele>641.0</ele><time>2026-05-03T15:19:42.271Z</time></trkpt><trkpt lat="44.3305283" lon="7.48514"><ele>641.0</ele><time>2026-05-03T15:19:43.271Z</time></trkpt><trkpt lat="44.33057" lon="7.4852433"><ele>641.0</ele><time>2026-05-03T15:19:44.271Z</time></trkpt><trkpt lat="44.3306017" lon="7.4853517"><ele>641.0</ele><time>2026-05-03T15:19:45.271Z</time></trkpt><trkpt lat="44.3306267" lon="7.4854517"><ele>641.0</ele><time>2026-05-03T15:19:46.272Z</time></trkpt><trkpt lat="44.3306667" lon="7.48554"><ele>641.0</ele><time>2026-05-03T15:19:47.271Z</time></trkpt><trkpt lat="44.3307033" lon="7.4856233"><ele>641.0</ele><time>2026-05-03T15:19:48.271Z</time></trkpt><trkpt lat="44.3307333" lon="7.4857133"><ele>641.0</ele><time>2026-05-03T15:19:49.271Z</time></trkpt><trkpt lat="44.3307633" lon="7.4858133"><ele>641.0</ele><time>2026-05-03T15:19:50.271Z</time></trkpt><trkpt lat="44.33079" lon="7.4859133"><ele>641.0</ele><time>2026-05-03T15:19:51.272Z</time></trkpt><trkpt lat="44.330825" lon="7.4859967"><ele>641.0</ele><time>2026-05-03T15:19:52.271Z</time></trkpt><trkpt lat="44.33086" lon="7.486075"><ele>641.0</ele><time>2026-05-03T15:19:53.272Z</time></trkpt><trkpt lat="44.3309233" lon="7.486205"><ele>641.1666666666666</ele><time>2026-05-03T15:19:55.271Z</time></trkpt><trkpt lat="44.330995" lon="7.4863467"><ele>641.3333333333333</ele><time>2026-05-03T15:19:57.271Z</time></trkpt><trkpt lat="44.3310333" lon="7.4864233"><ele>641.5</ele><time>2026-05-03T15:19:58.271Z</time></trkpt><trkpt lat="44.3310683" lon="7.4865133"><ele>641.6666666666666</ele><time>2026-05-03T15:19:59.271Z</time></trkpt><trkpt lat="44.3311033" lon="7.4866133"><ele>641.8333333333334</ele><time>2026-05-03T15:20:00.272Z</time></trkpt><trkpt lat="44.3311417" lon="7.48672"><ele>642.0</ele><time>2026-05-03T15:20:01.272Z</time></trkpt><trkpt lat="44.3311817" lon="7.4868267"><ele>641.9999999999999</ele><time>2026-05-03T15:20:02.271Z</time></trkpt><trkpt lat="44.3312217" lon="7.48692"><ele>642.0</ele><time>2026-05-03T15:20:03.271Z</time></trkpt><trkpt lat="44.3312617" lon="7.487005"><ele>642.0</ele><time>2026-05-03T15:20:04.272Z</time></trkpt><trkpt lat="44.3313" lon="7.4870883"><ele>642.0</ele><time>2026-05-03T15:20:05.271Z</time></trkpt><trkpt lat="44.3313367" lon="7.4871733"><ele>642.0</ele><time>2026-05-03T15:20:06.271Z</time></trkpt><trkpt lat="44.3313817" lon="7.4872483"><ele>641.9999999999999</ele><time>2026-05-03T15:20:07.271Z</time></trkpt><trkpt lat="44.3314333" lon="7.4873167"><ele>642.0</ele><time>2026-05-03T15:20:08.271Z</time></trkpt><trkpt lat="44.3314817" lon="7.48739"><ele>641.5</ele><time>2026-05-03T15:20:09.271Z</time></trkpt><trkpt lat="44.3315183" lon="7.48748"><ele>641.0</ele><time>2026-05-03T15:20:10.271Z</time></trkpt><trkpt lat="44.331565" lon="7.4875583"><ele>640.5</ele><time>2026-05-03T15:20:11.271Z</time></trkpt><trkpt lat="44.3316133" lon="7.4876367"><ele>640.0</ele><time>2026-05-03T15:20:12.271Z</time></trkpt><trkpt lat="44.3316633" lon="7.4877167"><ele>639.5</ele><time>2026-05-03T15:20:13.271Z</time></trkpt><trkpt lat="44.3317117" lon="7.487805"><ele>639.0</ele><time>2026-05-03T15:20:14.272Z</time></trkpt><trkpt lat="44.3317533" lon="7.487895"><ele>638.4</ele><time>2026-05-03T15:20:15.271Z</time></trkpt><trkpt lat="44.3317967" lon="7.4879783"><ele>637.8</ele><time>2026-05-03T15:20:16.271Z</time></trkpt><trkpt lat="44.33183" lon="7.4880583"><ele>637.2</ele><time>2026-05-03T15:20:17.271Z</time></trkpt><trkpt lat="44.331875" lon="7.4882167"><ele>636.6</ele><time>2026-05-03T15:20:19.271Z</time></trkpt><trkpt lat="44.3318667" lon="7.488385"><ele>636.0</ele><time>2026-05-03T15:20:21.271Z</time></trkpt><trkpt lat="44.331845" lon="7.4885383"><ele>636.0</ele><time>2026-05-03T15:20:23.271Z</time></trkpt><trkpt lat="44.33181" lon="7.4887"><ele>636.0</ele><time>2026-05-03T15:20:25.271Z</time></trkpt><trkpt lat="44.3317683" lon="7.488835"><ele>636.0</ele><time>2026-05-03T15:20:27.271Z</time></trkpt><trkpt lat="44.3317" lon="7.4888983"><ele>636.0</ele><time>2026-05-03T15:20:29.271Z</time></trkpt><trkpt lat="44.331615" lon="7.488895"><ele>636.0</ele><time>2026-05-03T15:20:31.271Z</time></trkpt><trkpt lat="44.3315217" lon="7.4888567"><ele>636.0</ele><time>2026-05-03T15:20:33.271Z</time></trkpt><trkpt lat="44.33142" lon="7.4888333"><ele>636.0</ele><time>2026-05-03T15:20:35.271Z</time></trkpt><trkpt lat="44.33133" lon="7.4887933"><ele>636.0</ele><time>2026-05-03T15:20:37.271Z</time></trkpt><trkpt lat="44.3312667" lon="7.4887717"><ele>636.0</ele><time>2026-05-03T15:20:38.271Z</time></trkpt><trkpt lat="44.3311533" lon="7.4887233"><ele>636.0</ele><time>2026-05-03T15:20:40.271Z</time></trkpt><trkpt lat="44.331045" lon="7.4886967"><ele>636.5</ele><time>2026-05-03T15:20:42.271Z</time></trkpt><trkpt lat="44.3309617" lon="7.4887017"><ele>637.0</ele><time>2026-05-03T15:20:44.271Z</time></trkpt><trkpt lat="44.3308933" lon="7.4886983"><ele>637.5</ele><time>2026-05-03T15:20:46.272Z</time></trkpt><trkpt lat="44.3308" lon="7.4886717"><ele>638.0</ele><time>2026-05-03T15:20:48.271Z</time></trkpt><trkpt lat="44.3307133" lon="7.48862"><ele>638.5</ele><time>2026-05-03T15:20:50.271Z</time></trkpt><trkpt lat="44.330635" lon="7.4885617"><ele>639.0</ele><time>2026-05-03T15:20:52.271Z</time></trkpt><trkpt lat="44.3305533" lon="7.4885317"><ele>639.0</ele><time>2026-05-03T15:20:55.271Z</time></trkpt><trkpt lat="44.3304917" lon="7.4885133"><ele>639.0</ele><time>2026-05-03T15:20:57.271Z</time></trkpt><trkpt lat="44.3304767" lon="7.4886017"><ele>639.0</ele><time>2026-05-03T15:20:59.272Z</time></trkpt><trkpt lat="44.33045" lon="7.488755"><ele>639.0</ele><time>2026-05-03T15:21:01.271Z</time></trkpt><trkpt lat="44.3304217" lon="7.488905"><ele>639.0</ele><time>2026-05-03T15:21:03.271Z</time></trkpt><trkpt lat="44.3303783" lon="7.4889767"><ele>639.0</ele><time>2026-05-03T15:21:04.271Z</time></trkpt><trkpt lat="44.3302983" lon="7.4890633"><ele>638.6666666666666</ele><time>2026-05-03T15:21:06.271Z</time></trkpt><trkpt lat="44.3302533" lon="7.4891517"><ele>638.3333333333334</ele><time>2026-05-03T15:21:08.271Z</time></trkpt><trkpt lat="44.330175" lon="7.4892183"><ele>638.0</ele><time>2026-05-03T15:21:11.271Z</time></trkpt><trkpt lat="44.3301033" lon="7.4892117"><ele>637.6666666666667</ele><time>2026-05-03T15:21:13.271Z</time></trkpt><trkpt lat="44.3300367" lon="7.4891867"><ele>637.3333333333334</ele><time>2026-05-03T15:21:15.271Z</time></trkpt><trkpt lat="44.3299533" lon="7.4891417"><ele>637.0</ele><time>2026-05-03T15:21:18.271Z</time></trkpt><trkpt lat="44.329895" lon="7.4890883"><ele>637.0</ele><time>2026-05-03T15:21:20.271Z</time></trkpt><trkpt lat="44.3298267" lon="7.4890483"><ele>637.0</ele><time>2026-05-03T15:21:39.271Z</time></trkpt><trkpt lat="44.3298333" lon="7.4891383"><ele>637.0</ele><time>2026-05-03T15:21:46.271Z</time></trkpt><trkpt lat="44.32993" lon="7.4892683"><ele>637.0</ele><time>2026-05-03T15:21:48.271Z</time></trkpt><trkpt lat="44.329975" lon="7.4893533"><ele>637.0</ele><time>2026-05-03T15:21:49.271Z</time></trkpt><trkpt lat="44.3300217" lon="7.4894567"><ele>637.0</ele><time>2026-05-03T15:21:50.271Z</time></trkpt><trkpt lat="44.3300733" lon="7.489575"><ele>636.5</ele><time>2026-05-03T15:21:51.272Z</time></trkpt><trkpt lat="44.3301133" lon="7.4896867"><ele>636.0</ele><time>2026-05-03T15:21:52.272Z</time></trkpt><trkpt lat="44.3301517" lon="7.4898"><ele>635.5</ele><time>2026-05-03T15:21:53.271Z</time></trkpt><trkpt lat="44.330195" lon="7.4899"><ele>635.0</ele><time>2026-05-03T15:21:54.271Z</time></trkpt><trkpt lat="44.3302467" lon="7.48999"><ele>634.5</ele><time>2026-05-03T15:21:55.271Z</time></trkpt><trkpt lat="44.330305" lon="7.4900817"><ele>634.0</ele><time>2026-05-03T15:21:56.271Z</time></trkpt><trkpt lat="44.3303717" lon="7.4901783"><ele>634.0</ele><time>2026-05-03T15:21:57.271Z</time></trkpt><trkpt lat="44.3304383" lon="7.4902633"><ele>634.0</ele><time>2026-05-03T15:21:58.272Z</time></trkpt><trkpt lat="44.3305133" lon="7.49038"><ele>634.0</ele><time>2026-05-03T15:22:00.271Z</time></trkpt><trkpt lat="44.33053" lon="7.4904983"><ele>634.0</ele><time>2026-05-03T15:22:02.271Z</time></trkpt><trkpt lat="44.3304633" lon="7.49068"><ele>634.0</ele><time>2026-05-03T15:22:04.271Z</time></trkpt><trkpt lat="44.330405" lon="7.4907883"><ele>633.3333333333334</ele><time>2026-05-03T15:22:05.271Z</time></trkpt><trkpt lat="44.3303517" lon="7.4908817"><ele>632.6666666666667</ele><time>2026-05-03T15:22:06.271Z</time></trkpt><trkpt lat="44.3303017" lon="7.4909567"><ele>632.0</ele><time>2026-05-03T15:22:07.272Z</time></trkpt><trkpt lat="44.3302517" lon="7.4910183"><ele>631.3333333333334</ele><time>2026-05-03T15:22:08.272Z</time></trkpt><trkpt lat="44.3301983" lon="7.491065"><ele>630.6666666666666</ele><time>2026-05-03T15:22:09.271Z</time></trkpt><trkpt lat="44.3301467" lon="7.49112"><ele>630.0</ele><time>2026-05-03T15:22:10.272Z</time></trkpt><trkpt lat="44.33011" lon="7.4912633"><ele>629.3333333333334</ele><time>2026-05-03T15:22:12.271Z</time></trkpt><trkpt lat="44.3301783" lon="7.4914083"><ele>628.6666666666666</ele><time>2026-05-03T15:22:14.271Z</time></trkpt><trkpt lat="44.330225" lon="7.4914817"><ele>628.0</ele><time>2026-05-03T15:22:15.271Z</time></trkpt><trkpt lat="44.3302783" lon="7.4915583"><ele>627.3333333333333</ele><time>2026-05-03T15:22:16.271Z</time></trkpt><trkpt lat="44.3303317" lon="7.4916383"><ele>626.6666666666666</ele><time>2026-05-03T15:22:17.271Z</time></trkpt><trkpt lat="44.3303767" lon="7.4917217"><ele>626.0</ele><time>2026-05-03T15:22:18.271Z</time></trkpt><trkpt lat="44.33042" lon="7.4918233"><ele>626.0</ele><time>2026-05-03T15:22:19.271Z</time></trkpt><trkpt lat="44.3304583" lon="7.4919283"><ele>626.0</ele><time>2026-05-03T15:22:20.271Z</time></trkpt><trkpt lat="44.3305067" lon="7.4920383"><ele>626.0</ele><time>2026-05-03T15:22:21.271Z</time></trkpt><trkpt lat="44.3305483" lon="7.4921583"><ele>626.0</ele><time>2026-05-03T15:22:22.272Z</time></trkpt><trkpt lat="44.3306017" lon="7.492275"><ele>626.0</ele><time>2026-05-03T15:22:23.271Z</time></trkpt><trkpt lat="44.330655" lon="7.4924017"><ele>626.0</ele><time>2026-05-03T15:22:24.271Z</time></trkpt><trkpt lat="44.3307167" lon="7.4925417"><ele>626.0</ele><time>2026-05-03T15:22:25.272Z</time></trkpt><trkpt lat="44.3307733" lon="7.4926783"><ele>626.0</ele><time>2026-05-03T15:22:26.271Z</time></trkpt><trkpt lat="44.3308333" lon="7.4928283"><ele>626.0</ele><time>2026-05-03T15:22:27.271Z</time></trkpt><trkpt lat="44.3308933" lon="7.4929817"><ele>626.0</ele><time>2026-05-03T15:22:28.271Z</time></trkpt><trkpt lat="44.3309567" lon="7.493135"><ele>626.0</ele><time>2026-05-03T15:22:29.271Z</time></trkpt><trkpt lat="44.3310233" lon="7.4932967"><ele>626.0</ele><time>2026-05-03T15:22:30.271Z</time></trkpt><trkpt lat="44.3310883" lon="7.49346"><ele>626.0</ele><time>2026-05-03T15:22:31.271Z</time></trkpt><trkpt lat="44.3311567" lon="7.49363"><ele>626.25</ele><time>2026-05-03T15:22:32.272Z</time></trkpt><trkpt lat="44.3312233" lon="7.493795"><ele>626.5</ele><time>2026-05-03T15:22:33.271Z</time></trkpt><trkpt lat="44.33129" lon="7.4939667"><ele>626.75</ele><time>2026-05-03T15:22:34.271Z</time></trkpt><trkpt lat="44.3313533" lon="7.49414"><ele>627.0</ele><time>2026-05-03T15:22:35.272Z</time></trkpt><trkpt lat="44.3314183" lon="7.4943083"><ele>627.0</ele><time>2026-05-03T15:22:36.271Z</time></trkpt><trkpt lat="44.331485" lon="7.4944683"><ele>627.0</ele><time>2026-05-03T15:22:37.271Z</time></trkpt><trkpt lat="44.331555" lon="7.4946317"><ele>627.0</ele><time>2026-05-03T15:22:38.272Z</time></trkpt><trkpt lat="44.3316183" lon="7.4947833"><ele>627.0</ele><time>2026-05-03T15:22:39.272Z</time></trkpt><trkpt lat="44.33168" lon="7.4949333"><ele>626.5</ele><time>2026-05-03T15:22:40.271Z</time></trkpt><trkpt lat="44.3317417" lon="7.49509"><ele>626.0</ele><time>2026-05-03T15:22:41.271Z</time></trkpt><trkpt lat="44.331805" lon="7.4952517"><ele>625.5</ele><time>2026-05-03T15:22:42.271Z</time></trkpt><trkpt lat="44.33187" lon="7.4954083"><ele>625.0</ele><time>2026-05-03T15:22:43.271Z</time></trkpt><trkpt lat="44.3319383" lon="7.4955617"><ele>624.5</ele><time>2026-05-03T15:22:44.272Z</time></trkpt><trkpt lat="44.3320033" lon="7.4957183"><ele>624.0</ele><time>2026-05-03T15:22:45.271Z</time></trkpt><trkpt lat="44.3320667" lon="7.495875"><ele>623.5</ele><time>2026-05-03T15:22:46.271Z</time></trkpt><trkpt lat="44.3321217" lon="7.4960283"><ele>623.0</ele><time>2026-05-03T15:22:47.271Z</time></trkpt><trkpt lat="44.3321733" lon="7.496175"><ele>622.4</ele><time>2026-05-03T15:22:48.271Z</time></trkpt><trkpt lat="44.33221" lon="7.4963117"><ele>621.8</ele><time>2026-05-03T15:22:49.271Z</time></trkpt><trkpt lat="44.33223" lon="7.496455"><ele>621.2</ele><time>2026-05-03T15:22:50.271Z</time></trkpt><trkpt lat="44.332245" lon="7.4965833"><ele>620.6</ele><time>2026-05-03T15:22:51.271Z</time></trkpt><trkpt lat="44.3322717" lon="7.4967"><ele>620.0</ele><time>2026-05-03T15:22:52.271Z</time></trkpt><trkpt lat="44.3323033" lon="7.4968267"><ele>620.8</ele><time>2026-05-03T15:22:53.271Z</time></trkpt><trkpt lat="44.332345" lon="7.4969567"><ele>621.6</ele><time>2026-05-03T15:22:54.271Z</time></trkpt><trkpt lat="44.33238" lon="7.4970933"><ele>622.4</ele><time>2026-05-03T15:22:55.271Z</time></trkpt><trkpt lat="44.3324083" lon="7.4972383"><ele>623.2</ele><time>2026-05-03T15:22:56.271Z</time></trkpt><trkpt lat="44.33243" lon="7.4973867"><ele>624.0</ele><time>2026-05-03T15:22:57.271Z</time></trkpt><trkpt lat="44.3324483" lon="7.497535"><ele>624.0</ele><time>2026-05-03T15:22:58.271Z</time></trkpt><trkpt lat="44.3324717" lon="7.497685"><ele>624.0</ele><time>2026-05-03T15:22:59.271Z</time></trkpt><trkpt lat="44.3324933" lon="7.497815"><ele>624.0</ele><time>2026-05-03T15:23:00.271Z</time></trkpt><trkpt lat="44.332525" lon="7.49794"><ele>624.0</ele><time>2026-05-03T15:23:01.271Z</time></trkpt><trkpt lat="44.33257" lon="7.4980567"><ele>624.0</ele><time>2026-05-03T15:23:02.271Z</time></trkpt><trkpt lat="44.3326417" lon="7.4981533"><ele>623.0</ele><time>2026-05-03T15:23:03.271Z</time></trkpt><trkpt lat="44.3327167" lon="7.498255"><ele>622.0</ele><time>2026-05-03T15:23:04.271Z</time></trkpt><trkpt lat="44.3327883" lon="7.4983683"><ele>621.0</ele><time>2026-05-03T15:23:05.271Z</time></trkpt><trkpt lat="44.332855" lon="7.4984917"><ele>620.0</ele><time>2026-05-03T15:23:06.271Z</time></trkpt><trkpt lat="44.33291" lon="7.498625"><ele>619.0</ele><time>2026-05-03T15:23:07.271Z</time></trkpt><trkpt lat="44.3329733" lon="7.4987583"><ele>618.6</ele><time>2026-05-03T15:23:08.271Z</time></trkpt><trkpt lat="44.33303" lon="7.4988983"><ele>618.2</ele><time>2026-05-03T15:23:09.271Z</time></trkpt><trkpt lat="44.3330817" lon="7.4990317"><ele>617.8000000000001</ele><time>2026-05-03T15:23:10.271Z</time></trkpt><trkpt lat="44.3331217" lon="7.4991417"><ele>617.4</ele><time>2026-05-03T15:23:11.271Z</time></trkpt><trkpt lat="44.3331633" lon="7.499225"><ele>617.0</ele><time>2026-05-03T15:23:12.272Z</time></trkpt><trkpt lat="44.3332233" lon="7.4993717"><ele>617.4</ele><time>2026-05-03T15:23:14.271Z</time></trkpt><trkpt lat="44.3332783" lon="7.4995167"><ele>617.8000000000001</ele><time>2026-05-03T15:23:16.271Z</time></trkpt><trkpt lat="44.33332" lon="7.499605"><ele>618.2</ele><time>2026-05-03T15:23:17.271Z</time></trkpt><trkpt lat="44.3333633" lon="7.4997017"><ele>618.6</ele><time>2026-05-03T15:23:18.272Z</time></trkpt><trkpt lat="44.333415" lon="7.49981"><ele>619.0</ele><time>2026-05-03T15:23:19.271Z</time></trkpt><trkpt lat="44.3334617" lon="7.4999267"><ele>619.0</ele><time>2026-05-03T15:23:20.272Z</time></trkpt><trkpt lat="44.3335167" lon="7.50004"><ele>619.0</ele><time>2026-05-03T15:23:21.271Z</time></trkpt><trkpt lat="44.33357" lon="7.5001617"><ele>619.0</ele><time>2026-05-03T15:23:22.271Z</time></trkpt><trkpt lat="44.333625" lon="7.5002933"><ele>619.0</ele><time>2026-05-03T15:23:23.272Z</time></trkpt><trkpt lat="44.3336833" lon="7.5004217"><ele>619.0</ele><time>2026-05-03T15:23:24.271Z</time></trkpt><trkpt lat="44.3337517" lon="7.500555"><ele>619.5</ele><time>2026-05-03T15:23:25.272Z</time></trkpt><trkpt lat="44.3338217" lon="7.50069"><ele>620.0</ele><time>2026-05-03T15:23:26.271Z</time></trkpt><trkpt lat="44.3338867" lon="7.5008317"><ele>620.5</ele><time>2026-05-03T15:23:27.271Z</time></trkpt><trkpt lat="44.33395" lon="7.5009733"><ele>621.0</ele><time>2026-05-03T15:23:28.271Z</time></trkpt><trkpt lat="44.3340067" lon="7.501125"><ele>619.75</ele><time>2026-05-03T15:23:29.271Z</time></trkpt><trkpt lat="44.3340633" lon="7.5012717"><ele>618.5</ele><time>2026-05-03T15:23:30.272Z</time></trkpt><trkpt lat="44.3341233" lon="7.5014133"><ele>617.25</ele><time>2026-05-03T15:23:31.271Z</time></trkpt><trkpt lat="44.33418" lon="7.50155"><ele>616.0</ele><time>2026-05-03T15:23:32.271Z</time></trkpt><trkpt lat="44.3342333" lon="7.50169"><ele>616.0</ele><time>2026-05-03T15:23:33.271Z</time></trkpt><trkpt lat="44.33427" lon="7.5018267"><ele>616.0</ele><time>2026-05-03T15:23:34.271Z</time></trkpt><trkpt lat="44.3343017" lon="7.50195"><ele>616.0</ele><time>2026-05-03T15:23:35.271Z</time></trkpt><trkpt lat="44.33432" lon="7.50208"><ele>616.0</ele><time>2026-05-03T15:23:36.271Z</time></trkpt><trkpt lat="44.334335" lon="7.502215"><ele>616.0</ele><time>2026-05-03T15:23:37.271Z</time></trkpt><trkpt lat="44.3343417" lon="7.5023517"><ele>615.25</ele><time>2026-05-03T15:23:38.271Z</time></trkpt><trkpt lat="44.3343517" lon="7.5025117"><ele>614.5</ele><time>2026-05-03T15:23:39.271Z</time></trkpt><trkpt lat="44.33436" lon="7.5026733"><ele>613.75</ele><time>2026-05-03T15:23:40.271Z</time></trkpt><trkpt lat="44.3343633" lon="7.5028483"><ele>613.0</ele><time>2026-05-03T15:23:41.271Z</time></trkpt><trkpt lat="44.334365" lon="7.5030367"><ele>612.5</ele><time>2026-05-03T15:23:42.272Z</time></trkpt><trkpt lat="44.33435" lon="7.5032383"><ele>612.0</ele><time>2026-05-03T15:23:43.272Z</time></trkpt><trkpt lat="44.3343317" lon="7.5034367"><ele>611.5</ele><time>2026-05-03T15:23:44.271Z</time></trkpt><trkpt lat="44.3343" lon="7.50364"><ele>611.0</ele><time>2026-05-03T15:23:45.272Z</time></trkpt><trkpt lat="44.3342683" lon="7.5038367"><ele>610.6666666666666</ele><time>2026-05-03T15:23:46.271Z</time></trkpt><trkpt lat="44.3342217" lon="7.5040517"><ele>610.3333333333334</ele><time>2026-05-03T15:23:47.272Z</time></trkpt><trkpt lat="44.3341633" lon="7.5042617"><ele>610.0</ele><time>2026-05-03T15:23:48.271Z</time></trkpt><trkpt lat="44.3340983" lon="7.5044683"><ele>608.6666666666667</ele><time>2026-05-03T15:23:49.271Z</time></trkpt><trkpt lat="44.3340217" lon="7.5046683"><ele>607.3333333333334</ele><time>2026-05-03T15:23:50.271Z</time></trkpt><trkpt lat="44.3339383" lon="7.5048717"><ele>606.0</ele><time>2026-05-03T15:23:51.272Z</time></trkpt><trkpt lat="44.33385" lon="7.50507"><ele>606.0</ele><time>2026-05-03T15:23:52.271Z</time></trkpt><trkpt lat="44.3337633" lon="7.5052717"><ele>606.0</ele><time>2026-05-03T15:23:53.271Z</time></trkpt><trkpt lat="44.3336633" lon="7.5054867"><ele>606.0</ele><time>2026-05-03T15:23:54.271Z</time></trkpt><trkpt lat="44.3335683" lon="7.50571"><ele>605.3333333333334</ele><time>2026-05-03T15:23:55.271Z</time></trkpt><trkpt lat="44.333475" lon="7.50594"><ele>604.6666666666667</ele><time>2026-05-03T15:23:56.271Z</time></trkpt><trkpt lat="44.3333733" lon="7.5061767"><ele>604.0</ele><time>2026-05-03T15:23:57.271Z</time></trkpt><trkpt lat="44.3332733" lon="7.5064167"><ele>603.0</ele><time>2026-05-03T15:23:58.271Z</time></trkpt><trkpt lat="44.3331667" lon="7.506655"><ele>602.0</ele><time>2026-05-03T15:23:59.271Z</time></trkpt><trkpt lat="44.333065" lon="7.5068917"><ele>601.0</ele><time>2026-05-03T15:24:00.271Z</time></trkpt><trkpt lat="44.3329683" lon="7.5071217"><ele>599.3333333333334</ele><time>2026-05-03T15:24:01.272Z</time></trkpt><trkpt lat="44.3328733" lon="7.507355"><ele>597.6666666666666</ele><time>2026-05-03T15:24:02.271Z</time></trkpt><trkpt lat="44.33278" lon="7.5075783"><ele>596.0</ele><time>2026-05-03T15:24:03.271Z</time></trkpt><trkpt lat="44.3326883" lon="7.5078"><ele>596.3333333333333</ele><time>2026-05-03T15:24:04.271Z</time></trkpt><trkpt lat="44.3325983" lon="7.508015"><ele>596.6666666666666</ele><time>2026-05-03T15:24:05.272Z</time></trkpt><trkpt lat="44.33251" lon="7.5082267"><ele>597.0</ele><time>2026-05-03T15:24:06.271Z</time></trkpt><trkpt lat="44.3324233" lon="7.5084333"><ele>597.0</ele><time>2026-05-03T15:24:07.271Z</time></trkpt><trkpt lat="44.3323317" lon="7.50864"><ele>597.0</ele><time>2026-05-03T15:24:08.272Z</time></trkpt><trkpt lat="44.332245" lon="7.5088367"><ele>597.0</ele><time>2026-05-03T15:24:09.271Z</time></trkpt><trkpt lat="44.332165" lon="7.5090333"><ele>597.3333333333334</ele><time>2026-05-03T15:24:10.271Z</time></trkpt><trkpt lat="44.33208" lon="7.5092333"><ele>597.6666666666667</ele><time>2026-05-03T15:24:11.272Z</time></trkpt><trkpt lat="44.3319933" lon="7.5094283"><ele>598.0</ele><time>2026-05-03T15:24:12.271Z</time></trkpt><trkpt lat="44.3319117" lon="7.509615"><ele>598.0</ele><time>2026-05-03T15:24:13.271Z</time></trkpt><trkpt lat="44.33182" lon="7.5098283"><ele>598.0</ele><time>2026-05-03T15:24:14.271Z</time></trkpt><trkpt lat="44.331735" lon="7.51004"><ele>598.0</ele><time>2026-05-03T15:24:15.271Z</time></trkpt><trkpt lat="44.3316483" lon="7.5102467"><ele>598.3333333333334</ele><time>2026-05-03T15:24:16.271Z</time></trkpt><trkpt lat="44.3315617" lon="7.5104567"><ele>598.6666666666666</ele><time>2026-05-03T15:24:17.272Z</time></trkpt><trkpt lat="44.331475" lon="7.51067"><ele>599.0</ele><time>2026-05-03T15:24:18.272Z</time></trkpt><trkpt lat="44.3313867" lon="7.5108833"><ele>599.0</ele><time>2026-05-03T15:24:19.271Z</time></trkpt><trkpt lat="44.3312983" lon="7.5110967"><ele>599.0</ele><time>2026-05-03T15:24:20.271Z</time></trkpt><trkpt lat="44.3312133" lon="7.51131"><ele>599.0</ele><time>2026-05-03T15:24:21.271Z</time></trkpt><trkpt lat="44.3311317" lon="7.5115383"><ele>598.6666666666666</ele><time>2026-05-03T15:24:22.271Z</time></trkpt><trkpt lat="44.331065" lon="7.5117867"><ele>598.3333333333334</ele><time>2026-05-03T15:24:23.272Z</time></trkpt><trkpt lat="44.3310017" lon="7.5120383"><ele>598.0</ele><time>2026-05-03T15:24:24.271Z</time></trkpt><trkpt lat="44.3309483" lon="7.5122917"><ele>598.0</ele><time>2026-05-03T15:24:25.271Z</time></trkpt><trkpt lat="44.3309117" lon="7.5125533"><ele>598.0</ele><time>2026-05-03T15:24:26.271Z</time></trkpt><trkpt lat="44.3308833" lon="7.512815"><ele>598.0</ele><time>2026-05-03T15:24:27.271Z</time></trkpt><trkpt lat="44.3308583" lon="7.51307"><ele>598.0</ele><time>2026-05-03T15:24:28.271Z</time></trkpt><trkpt lat="44.3308483" lon="7.5133233"><ele>598.0</ele><time>2026-05-03T15:24:29.271Z</time></trkpt><trkpt lat="44.33084" lon="7.5135717"><ele>598.0</ele><time>2026-05-03T15:24:30.271Z</time></trkpt><trkpt lat="44.330845" lon="7.5138083"><ele>598.3333333333334</ele><time>2026-05-03T15:24:31.271Z</time></trkpt><trkpt lat="44.3308583" lon="7.5140433"><ele>598.6666666666666</ele><time>2026-05-03T15:24:32.271Z</time></trkpt><trkpt lat="44.330875" lon="7.514275"><ele>599.0</ele><time>2026-05-03T15:24:33.271Z</time></trkpt><trkpt lat="44.3309033" lon="7.514505"><ele>599.0</ele><time>2026-05-03T15:24:34.272Z</time></trkpt><trkpt lat="44.3309467" lon="7.51473"><ele>599.0</ele><time>2026-05-03T15:24:35.272Z</time></trkpt><trkpt lat="44.3309917" lon="7.5149567"><ele>599.0</ele><time>2026-05-03T15:24:36.271Z</time></trkpt><trkpt lat="44.3310467" lon="7.5151633"><ele>599.0</ele><time>2026-05-03T15:24:37.271Z</time></trkpt><trkpt lat="44.331105" lon="7.51535"><ele>599.0</ele><time>2026-05-03T15:24:38.271Z</time></trkpt><trkpt lat="44.331155" lon="7.5155383"><ele>599.0</ele><time>2026-05-03T15:24:39.271Z</time></trkpt><trkpt lat="44.3312033" lon="7.5157067"><ele>599.0</ele><time>2026-05-03T15:24:40.271Z</time></trkpt><trkpt lat="44.331255" lon="7.515855"><ele>599.0</ele><time>2026-05-03T15:24:41.271Z</time></trkpt><trkpt lat="44.3312983" lon="7.5160033"><ele>599.0</ele><time>2026-05-03T15:24:42.272Z</time></trkpt><trkpt lat="44.3313367" lon="7.51613"><ele>599.0</ele><time>2026-05-03T15:24:43.271Z</time></trkpt><trkpt lat="44.3313683" lon="7.51626"><ele>599.0</ele><time>2026-05-03T15:24:44.271Z</time></trkpt><trkpt lat="44.3313967" lon="7.5163867"><ele>599.0</ele><time>2026-05-03T15:24:45.271Z</time></trkpt><trkpt lat="44.3314217" lon="7.5164967"><ele>599.0</ele><time>2026-05-03T15:24:46.271Z</time></trkpt><trkpt lat="44.33146" lon="7.5166067"><ele>599.0</ele><time>2026-05-03T15:24:47.271Z</time></trkpt><trkpt lat="44.331505" lon="7.51671"><ele>599.0</ele><time>2026-05-03T15:24:48.271Z</time></trkpt><trkpt lat="44.3315633" lon="7.516795"><ele>599.0</ele><time>2026-05-03T15:24:49.271Z</time></trkpt><trkpt lat="44.33162" lon="7.5169017"><ele>599.0</ele><time>2026-05-03T15:24:50.271Z</time></trkpt><trkpt lat="44.3316733" lon="7.5170217"><ele>599.25</ele><time>2026-05-03T15:24:51.271Z</time></trkpt><trkpt lat="44.3317217" lon="7.51717"><ele>599.5</ele><time>2026-05-03T15:24:52.271Z</time></trkpt><trkpt lat="44.33178" lon="7.5173183"><ele>599.75</ele><time>2026-05-03T15:24:53.271Z</time></trkpt><trkpt lat="44.3318417" lon="7.5174717"><ele>600.0</ele><time>2026-05-03T15:24:54.271Z</time></trkpt><trkpt lat="44.331905" lon="7.5176217"><ele>600.0</ele><time>2026-05-03T15:24:55.272Z</time></trkpt><trkpt lat="44.3319683" lon="7.5177667"><ele>600.0</ele><time>2026-05-03T15:24:56.271Z</time></trkpt><trkpt lat="44.3320283" lon="7.51791"><ele>600.0</ele><time>2026-05-03T15:24:57.272Z</time></trkpt><trkpt lat="44.332085" lon="7.51807"><ele>600.0</ele><time>2026-05-03T15:24:58.271Z</time></trkpt><trkpt lat="44.3321433" lon="7.5182383"><ele>599.75</ele><time>2026-05-03T15:24:59.271Z</time></trkpt><trkpt lat="44.3322067" lon="7.5184033"><ele>599.5</ele><time>2026-05-03T15:25:00.271Z</time></trkpt><trkpt lat="44.332275" lon="7.5185733"><ele>599.25</ele><time>2026-05-03T15:25:01.271Z</time></trkpt><trkpt lat="44.3323467" lon="7.5187483"><ele>599.0</ele><time>2026-05-03T15:25:02.271Z</time></trkpt><trkpt lat="44.33242" lon="7.5189267"><ele>598.75</ele><time>2026-05-03T15:25:03.271Z</time></trkpt><trkpt lat="44.3324967" lon="7.5191067"><ele>598.5</ele><time>2026-05-03T15:25:04.272Z</time></trkpt><trkpt lat="44.3325733" lon="7.5192833"><ele>598.25</ele><time>2026-05-03T15:25:05.271Z</time></trkpt><trkpt lat="44.332645" lon="7.5194667"><ele>598.0</ele><time>2026-05-03T15:25:06.271Z</time></trkpt><trkpt lat="44.3327233" lon="7.5196433"><ele>598.5</ele><time>2026-05-03T15:25:07.271Z</time></trkpt><trkpt lat="44.3328017" lon="7.5198067"><ele>599.0</ele><time>2026-05-03T15:25:08.271Z</time></trkpt><trkpt lat="44.332875" lon="7.5199783"><ele>599.5</ele><time>2026-05-03T15:25:09.272Z</time></trkpt><trkpt lat="44.3329483" lon="7.5201467"><ele>600.0</ele><time>2026-05-03T15:25:10.271Z</time></trkpt><trkpt lat="44.33302" lon="7.5203133"><ele>599.25</ele><time>2026-05-03T15:25:11.271Z</time></trkpt><trkpt lat="44.3330933" lon="7.520475"><ele>598.5</ele><time>2026-05-03T15:25:12.271Z</time></trkpt><trkpt lat="44.3331667" lon="7.520635"><ele>597.75</ele><time>2026-05-03T15:25:13.271Z</time></trkpt><trkpt lat="44.333235" lon="7.5208033"><ele>597.0</ele><time>2026-05-03T15:25:14.271Z</time></trkpt><trkpt lat="44.3333033" lon="7.52097"><ele>597.0</ele><time>2026-05-03T15:25:15.271Z</time></trkpt><trkpt lat="44.3333683" lon="7.5211317"><ele>597.0</ele><time>2026-05-03T15:25:16.271Z</time></trkpt><trkpt lat="44.333435" lon="7.5212917"><ele>597.0</ele><time>2026-05-03T15:25:17.272Z</time></trkpt><trkpt lat="44.3335017" lon="7.52144"><ele>597.0</ele><time>2026-05-03T15:25:18.271Z</time></trkpt><trkpt lat="44.3335667" lon="7.5215983"><ele>597.5</ele><time>2026-05-03T15:25:19.272Z</time></trkpt><trkpt lat="44.3336383" lon="7.5217567"><ele>598.0</ele><time>2026-05-03T15:25:20.271Z</time></trkpt><trkpt lat="44.3337067" lon="7.5219167"><ele>598.5</ele><time>2026-05-03T15:25:21.271Z</time></trkpt><trkpt lat="44.3337767" lon="7.5220783"><ele>599.0</ele><time>2026-05-03T15:25:22.271Z</time></trkpt><trkpt lat="44.3338433" lon="7.5222467"><ele>598.25</ele><time>2026-05-03T15:25:23.271Z</time></trkpt><trkpt lat="44.33391" lon="7.52241"><ele>597.5</ele><time>2026-05-03T15:25:24.271Z</time></trkpt><trkpt lat="44.3339817" lon="7.52257"><ele>596.75</ele><time>2026-05-03T15:25:25.271Z</time></trkpt><trkpt lat="44.3340517" lon="7.522725"><ele>596.0</ele><time>2026-05-03T15:25:26.271Z</time></trkpt><trkpt lat="44.3341233" lon="7.522885"><ele>596.25</ele><time>2026-05-03T15:25:27.271Z</time></trkpt><trkpt lat="44.3341933" lon="7.523045"><ele>596.5</ele><time>2026-05-03T15:25:28.271Z</time></trkpt><trkpt lat="44.3342583" lon="7.5231933"><ele>596.75</ele><time>2026-05-03T15:25:29.272Z</time></trkpt><trkpt lat="44.334315" lon="7.5233483"><ele>597.0</ele><time>2026-05-03T15:25:30.271Z</time></trkpt><trkpt lat="44.334375" lon="7.523485"><ele>597.0</ele><time>2026-05-03T15:25:31.271Z</time></trkpt><trkpt lat="44.3344367" lon="7.5236167"><ele>597.0</ele><time>2026-05-03T15:25:32.271Z</time></trkpt><trkpt lat="44.3344917" lon="7.52375"><ele>597.0</ele><time>2026-05-03T15:25:33.272Z</time></trkpt><trkpt lat="44.3345533" lon="7.5238983"><ele>597.0</ele><time>2026-05-03T15:25:34.271Z</time></trkpt><trkpt lat="44.334615" lon="7.5240517"><ele>597.0</ele><time>2026-05-03T15:25:35.271Z</time></trkpt><trkpt lat="44.33468" lon="7.524215"><ele>597.0</ele><time>2026-05-03T15:25:36.271Z</time></trkpt><trkpt lat="44.3347433" lon="7.52438"><ele>597.0</ele><time>2026-05-03T15:25:37.271Z</time></trkpt><trkpt lat="44.3348067" lon="7.5245367"><ele>597.0</ele><time>2026-05-03T15:25:38.271Z</time></trkpt><trkpt lat="44.3348733" lon="7.5247033"><ele>596.75</ele><time>2026-05-03T15:25:39.271Z</time></trkpt><trkpt lat="44.3349383" lon="7.5248717"><ele>596.5</ele><time>2026-05-03T15:25:40.271Z</time></trkpt><trkpt lat="44.3350017" lon="7.5250367"><ele>596.25</ele><time>2026-05-03T15:25:41.271Z</time></trkpt><trkpt lat="44.3350733" lon="7.525205"><ele>596.0</ele><time>2026-05-03T15:25:42.27Z</time></trkpt><trkpt lat="44.3351417" lon="7.5253733"><ele>595.75</ele><time>2026-05-03T15:25:43.27Z</time></trkpt><trkpt lat="44.3352133" lon="7.5255383"><ele>595.5</ele><time>2026-05-03T15:25:44.27Z</time></trkpt><trkpt lat="44.3352817" lon="7.5257083"><ele>595.25</ele><time>2026-05-03T15:25:45.27Z</time></trkpt><trkpt lat="44.3353533" lon="7.5258783"><ele>595.0</ele><time>2026-05-03T15:25:46.271Z</time></trkpt><trkpt lat="44.3354167" lon="7.5260517"><ele>595.0</ele><time>2026-05-03T15:25:47.27Z</time></trkpt><trkpt lat="44.33548" lon="7.5261983"><ele>595.0</ele><time>2026-05-03T15:25:48.271Z</time></trkpt><trkpt lat="44.3355333" lon="7.52633"><ele>595.0</ele><time>2026-05-03T15:25:49.27Z</time></trkpt><trkpt lat="44.3355833" lon="7.5264517"><ele>595.0</ele><time>2026-05-03T15:25:50.27Z</time></trkpt><trkpt lat="44.3356317" lon="7.5265667"><ele>595.0</ele><time>2026-05-03T15:25:51.27Z</time></trkpt><trkpt lat="44.3356767" lon="7.52668"><ele>595.0</ele><time>2026-05-03T15:25:52.271Z</time></trkpt><trkpt lat="44.335725" lon="7.5267833"><ele>595.0</ele><time>2026-05-03T15:25:53.27Z</time></trkpt><trkpt lat="44.335775" lon="7.5268883"><ele>595.0</ele><time>2026-05-03T15:25:54.27Z</time></trkpt><trkpt lat="44.3358167" lon="7.527"><ele>595.0</ele><time>2026-05-03T15:25:55.27Z</time></trkpt><trkpt lat="44.335865" lon="7.527115"><ele>595.0</ele><time>2026-05-03T15:25:56.27Z</time></trkpt><trkpt lat="44.3359117" lon="7.527235"><ele>595.0</ele><time>2026-05-03T15:25:57.27Z</time></trkpt><trkpt lat="44.33596" lon="7.5273683"><ele>595.0</ele><time>2026-05-03T15:25:58.27Z</time></trkpt><trkpt lat="44.3360067" lon="7.527515"><ele>595.0</ele><time>2026-05-03T15:25:59.27Z</time></trkpt><trkpt lat="44.336065" lon="7.5276567"><ele>595.0</ele><time>2026-05-03T15:26:00.27Z</time></trkpt><trkpt lat="44.3361233" lon="7.5277933"><ele>596.25</ele><time>2026-05-03T15:26:01.271Z</time></trkpt><trkpt lat="44.3361733" lon="7.5279283"><ele>597.5</ele><time>2026-05-03T15:26:02.271Z</time></trkpt><trkpt lat="44.33623" lon="7.52807"><ele>598.75</ele><time>2026-05-03T15:26:03.27Z</time></trkpt><trkpt lat="44.336285" lon="7.5282133"><ele>600.0</ele><time>2026-05-03T15:26:04.27Z</time></trkpt><trkpt lat="44.3363367" lon="7.52837"><ele>600.0</ele><time>2026-05-03T15:26:05.27Z</time></trkpt><trkpt lat="44.33638" lon="7.5285267"><ele>600.0</ele><time>2026-05-03T15:26:06.271Z</time></trkpt><trkpt lat="44.3364283" lon="7.5286883"><ele>600.0</ele><time>2026-05-03T15:26:07.271Z</time></trkpt><trkpt lat="44.33647" lon="7.528845"><ele>600.0</ele><time>2026-05-03T15:26:08.271Z</time></trkpt><trkpt lat="44.3365067" lon="7.529"><ele>598.5</ele><time>2026-05-03T15:26:09.27Z</time></trkpt><trkpt lat="44.3365417" lon="7.529165"><ele>597.0</ele><time>2026-05-03T15:26:10.271Z</time></trkpt><trkpt lat="44.3365767" lon="7.5293467"><ele>595.5</ele><time>2026-05-03T15:26:11.271Z</time></trkpt><trkpt lat="44.336605" lon="7.52953"><ele>594.0</ele><time>2026-05-03T15:26:12.27Z</time></trkpt><trkpt lat="44.33663" lon="7.529715"><ele>593.75</ele><time>2026-05-03T15:26:13.27Z</time></trkpt><trkpt lat="44.3366533" lon="7.5298983"><ele>593.5</ele><time>2026-05-03T15:26:14.27Z</time></trkpt><trkpt lat="44.3366733" lon="7.5300833"><ele>593.25</ele><time>2026-05-03T15:26:15.27Z</time></trkpt><trkpt lat="44.3366883" lon="7.530265"><ele>593.0</ele><time>2026-05-03T15:26:16.27Z</time></trkpt><trkpt lat="44.3367017" lon="7.530445"><ele>592.5</ele><time>2026-05-03T15:26:17.27Z</time></trkpt><trkpt lat="44.3367167" lon="7.5306233"><ele>592.0</ele><time>2026-05-03T15:26:18.27Z</time></trkpt><trkpt lat="44.3367217" lon="7.5308067"><ele>591.5</ele><time>2026-05-03T15:26:19.27Z</time></trkpt><trkpt lat="44.3367267" lon="7.531"><ele>591.0</ele><time>2026-05-03T15:26:20.27Z</time></trkpt><trkpt lat="44.336725" lon="7.531185"><ele>591.0</ele><time>2026-05-03T15:26:21.27Z</time></trkpt><trkpt lat="44.3367267" lon="7.531385"><ele>591.0</ele><time>2026-05-03T15:26:22.27Z</time></trkpt><trkpt lat="44.336715" lon="7.5315783"><ele>591.0</ele><time>2026-05-03T15:26:23.27Z</time></trkpt><trkpt lat="44.336705" lon="7.5317783"><ele>591.0</ele><time>2026-05-03T15:26:24.27Z</time></trkpt><trkpt lat="44.3367017" lon="7.5319883"><ele>590.3333333333334</ele><time>2026-05-03T15:26:25.27Z</time></trkpt><trkpt lat="44.3366933" lon="7.5322"><ele>589.6666666666667</ele><time>2026-05-03T15:26:26.27Z</time></trkpt><trkpt lat="44.3366867" lon="7.5324233"><ele>589.0</ele><time>2026-05-03T15:26:27.27Z</time></trkpt><trkpt lat="44.33668" lon="7.5326517"><ele>589.0</ele><time>2026-05-03T15:26:28.271Z</time></trkpt><trkpt lat="44.3366683" lon="7.5328817"><ele>589.0</ele><time>2026-05-03T15:26:29.27Z</time></trkpt><trkpt lat="44.3366567" lon="7.53313"><ele>589.0</ele><time>2026-05-03T15:26:30.27Z</time></trkpt><trkpt lat="44.3366483" lon="7.5333867"><ele>589.0</ele><time>2026-05-03T15:26:31.27Z</time></trkpt><trkpt lat="44.33664" lon="7.5336417"><ele>589.0</ele><time>2026-05-03T15:26:32.27Z</time></trkpt><trkpt lat="44.3366283" lon="7.5339"><ele>589.0</ele><time>2026-05-03T15:26:33.27Z</time></trkpt><trkpt lat="44.3366167" lon="7.5341567"><ele>589.0</ele><time>2026-05-03T15:26:34.271Z</time></trkpt><trkpt lat="44.3366067" lon="7.5344033"><ele>589.0</ele><time>2026-05-03T15:26:35.27Z</time></trkpt><trkpt lat="44.3366" lon="7.53464"><ele>589.0</ele><time>2026-05-03T15:26:36.27Z</time></trkpt><trkpt lat="44.336595" lon="7.5348767"><ele>588.3333333333334</ele><time>2026-05-03T15:26:37.27Z</time></trkpt><trkpt lat="44.3365867" lon="7.5351217"><ele>587.6666666666666</ele><time>2026-05-03T15:26:38.27Z</time></trkpt><trkpt lat="44.336575" lon="7.535365"><ele>587.0</ele><time>2026-05-03T15:26:39.27Z</time></trkpt><trkpt lat="44.336565" lon="7.5356067"><ele>586.3333333333333</ele><time>2026-05-03T15:26:40.27Z</time></trkpt><trkpt lat="44.3365583" lon="7.5358483"><ele>585.6666666666666</ele><time>2026-05-03T15:26:41.271Z</time></trkpt><trkpt lat="44.336545" lon="7.5360917"><ele>585.0</ele><time>2026-05-03T15:26:42.27Z</time></trkpt><trkpt lat="44.3365367" lon="7.53634"><ele>584.6666666666666</ele><time>2026-05-03T15:26:43.27Z</time></trkpt><trkpt lat="44.3365267" lon="7.5365883"><ele>584.3333333333333</ele><time>2026-05-03T15:26:44.27Z</time></trkpt><trkpt lat="44.3365183" lon="7.5368383"><ele>584.0</ele><time>2026-05-03T15:26:45.271Z</time></trkpt><trkpt lat="44.3365067" lon="7.5370883"><ele>583.6666666666666</ele><time>2026-05-03T15:26:46.27Z</time></trkpt><trkpt lat="44.3364983" lon="7.5373317"><ele>583.3333333333334</ele><time>2026-05-03T15:26:47.271Z</time></trkpt><trkpt lat="44.33649" lon="7.5375717"><ele>583.0</ele><time>2026-05-03T15:26:48.27Z</time></trkpt><trkpt lat="44.3364817" lon="7.5378133"><ele>583.3333333333334</ele><time>2026-05-03T15:26:49.271Z</time></trkpt><trkpt lat="44.3364733" lon="7.5380583"><ele>583.6666666666666</ele><time>2026-05-03T15:26:50.27Z</time></trkpt><trkpt lat="44.336465" lon="7.538295"><ele>584.0</ele><time>2026-05-03T15:26:51.27Z</time></trkpt><trkpt lat="44.3364533" lon="7.5385317"><ele>583.6666666666666</ele><time>2026-05-03T15:26:52.27Z</time></trkpt><trkpt lat="44.33646" lon="7.5387817"><ele>583.3333333333334</ele><time>2026-05-03T15:26:53.27Z</time></trkpt><trkpt lat="44.336465" lon="7.5390267"><ele>583.0</ele><time>2026-05-03T15:26:54.27Z</time></trkpt><trkpt lat="44.3364733" lon="7.5392683"><ele>583.0</ele><time>2026-05-03T15:26:55.27Z</time></trkpt><trkpt lat="44.3364933" lon="7.5395217"><ele>583.0</ele><time>2026-05-03T15:26:56.27Z</time></trkpt><trkpt lat="44.3365083" lon="7.539765"><ele>583.0</ele><time>2026-05-03T15:26:57.27Z</time></trkpt><trkpt lat="44.3365317" lon="7.5399967"><ele>582.6666666666667</ele><time>2026-05-03T15:26:58.27Z</time></trkpt><trkpt lat="44.3365733" lon="7.5402333"><ele>582.3333333333334</ele><time>2026-05-03T15:26:59.27Z</time></trkpt><trkpt lat="44.3366233" lon="7.540465"><ele>582.0</ele><time>2026-05-03T15:27:00.27Z</time></trkpt><trkpt lat="44.3366817" lon="7.5407"><ele>582.0</ele><time>2026-05-03T15:27:01.27Z</time></trkpt><trkpt lat="44.3367333" lon="7.5409283"><ele>582.0</ele><time>2026-05-03T15:27:02.27Z</time></trkpt><trkpt lat="44.3367883" lon="7.5411433"><ele>582.0</ele><time>2026-05-03T15:27:03.27Z</time></trkpt><trkpt lat="44.3368567" lon="7.54136"><ele>582.0</ele><time>2026-05-03T15:27:04.27Z</time></trkpt><trkpt lat="44.3369217" lon="7.5415683"><ele>582.0</ele><time>2026-05-03T15:27:05.27Z</time></trkpt><trkpt lat="44.3369983" lon="7.5417667"><ele>582.0</ele><time>2026-05-03T15:27:06.27Z</time></trkpt><trkpt lat="44.3370733" lon="7.541965"><ele>582.25</ele><time>2026-05-03T15:27:07.27Z</time></trkpt><trkpt lat="44.3371367" lon="7.5421533"><ele>582.5</ele><time>2026-05-03T15:27:08.27Z</time></trkpt><trkpt lat="44.337215" lon="7.5423283"><ele>582.75</ele><time>2026-05-03T15:27:09.27Z</time></trkpt><trkpt lat="44.3372867" lon="7.5425033"><ele>583.0</ele><time>2026-05-03T15:27:10.271Z</time></trkpt><trkpt lat="44.33736" lon="7.5426617"><ele>582.5</ele><time>2026-05-03T15:27:11.27Z</time></trkpt><trkpt lat="44.3374333" lon="7.542825"><ele>582.0</ele><time>2026-05-03T15:27:12.271Z</time></trkpt><trkpt lat="44.3375033" lon="7.5429767"><ele>581.5</ele><time>2026-05-03T15:27:13.27Z</time></trkpt><trkpt lat="44.3375667" lon="7.5431133"><ele>581.0</ele><time>2026-05-03T15:27:14.27Z</time></trkpt><trkpt lat="44.3376217" lon="7.5432517"><ele>581.0</ele><time>2026-05-03T15:27:15.27Z</time></trkpt><trkpt lat="44.3376717" lon="7.54338"><ele>581.0</ele><time>2026-05-03T15:27:16.27Z</time></trkpt><trkpt lat="44.3377083" lon="7.5435"><ele>581.0</ele><time>2026-05-03T15:27:17.27Z</time></trkpt><trkpt lat="44.337725" lon="7.543605"><ele>581.0</ele><time>2026-05-03T15:27:18.271Z</time></trkpt><trkpt lat="44.33773" lon="7.5437167"><ele>581.0</ele><time>2026-05-03T15:27:19.27Z</time></trkpt><trkpt lat="44.337755" lon="7.5438317"><ele>581.0</ele><time>2026-05-03T15:27:20.27Z</time></trkpt><trkpt lat="44.3377983" lon="7.54395"><ele>581.0</ele><time>2026-05-03T15:27:21.27Z</time></trkpt><trkpt lat="44.337865" lon="7.5440333"><ele>581.0</ele><time>2026-05-03T15:27:22.27Z</time></trkpt><trkpt lat="44.3379433" lon="7.5440683"><ele>581.0</ele><time>2026-05-03T15:27:23.27Z</time></trkpt><trkpt lat="44.3380383" lon="7.5440617"><ele>581.0</ele><time>2026-05-03T15:27:24.27Z</time></trkpt><trkpt lat="44.338155" lon="7.5440483"><ele>581.0</ele><time>2026-05-03T15:27:25.27Z</time></trkpt><trkpt lat="44.3382817" lon="7.54407"><ele>581.5</ele><time>2026-05-03T15:27:26.27Z</time></trkpt><trkpt lat="44.3384133" lon="7.5441167"><ele>582.0</ele><time>2026-05-03T15:27:27.27Z</time></trkpt><trkpt lat="44.3385517" lon="7.544185"><ele>582.5</ele><time>2026-05-03T15:27:28.271Z</time></trkpt><trkpt lat="44.3387017" lon="7.544275"><ele>583.0</ele><time>2026-05-03T15:27:29.27Z</time></trkpt><trkpt lat="44.338855" lon="7.5443717"><ele>582.3333333333334</ele><time>2026-05-03T15:27:30.271Z</time></trkpt><trkpt lat="44.33902" lon="7.5444617"><ele>581.6666666666666</ele><time>2026-05-03T15:27:31.27Z</time></trkpt><trkpt lat="44.3391833" lon="7.5445567"><ele>581.0</ele><time>2026-05-03T15:27:32.271Z</time></trkpt><trkpt lat="44.3393517" lon="7.5446517"><ele>580.6666666666666</ele><time>2026-05-03T15:27:33.27Z</time></trkpt><trkpt lat="44.3395233" lon="7.544745"><ele>580.3333333333334</ele><time>2026-05-03T15:27:34.27Z</time></trkpt><trkpt lat="44.3397083" lon="7.5448317"><ele>580.0</ele><time>2026-05-03T15:27:35.27Z</time></trkpt><trkpt lat="44.339895" lon="7.5449183"><ele>579.3333333333334</ele><time>2026-05-03T15:27:36.27Z</time></trkpt><trkpt lat="44.34009" lon="7.5449983"><ele>578.6666666666666</ele><time>2026-05-03T15:27:37.27Z</time></trkpt><trkpt lat="44.340295" lon="7.54506"><ele>578.0</ele><time>2026-05-03T15:27:38.27Z</time></trkpt><trkpt lat="44.3404967" lon="7.545105"><ele>578.0</ele><time>2026-05-03T15:27:39.27Z</time></trkpt><trkpt lat="44.3407067" lon="7.5451333"><ele>578.0</ele><time>2026-05-03T15:27:40.27Z</time></trkpt><trkpt lat="44.340915" lon="7.5451633"><ele>578.0</ele><time>2026-05-03T15:27:41.27Z</time></trkpt><trkpt lat="44.341125" lon="7.5451867"><ele>578.0</ele><time>2026-05-03T15:27:42.27Z</time></trkpt><trkpt lat="44.34133" lon="7.5452083"><ele>578.0</ele><time>2026-05-03T15:27:43.27Z</time></trkpt><trkpt lat="44.3415333" lon="7.5452317"><ele>578.0</ele><time>2026-05-03T15:27:44.271Z</time></trkpt><trkpt lat="44.34174" lon="7.5452583"><ele>577.3333333333333</ele><time>2026-05-03T15:27:45.27Z</time></trkpt><trkpt lat="44.34194" lon="7.545285"><ele>576.6666666666666</ele><time>2026-05-03T15:27:46.27Z</time></trkpt><trkpt lat="44.3421467" lon="7.5453183"><ele>576.0</ele><time>2026-05-03T15:27:47.27Z</time></trkpt><trkpt lat="44.3423467" lon="7.5453483"><ele>576.0</ele><time>2026-05-03T15:27:48.27Z</time></trkpt><trkpt lat="44.3425433" lon="7.5453683"><ele>576.0</ele><time>2026-05-03T15:27:49.27Z</time></trkpt><trkpt lat="44.34273" lon="7.5453783"><ele>576.0</ele><time>2026-05-03T15:27:50.271Z</time></trkpt><trkpt lat="44.342925" lon="7.54543"><ele>575.3333333333334</ele><time>2026-05-03T15:27:51.27Z</time></trkpt><trkpt lat="44.3431117" lon="7.545465"><ele>574.6666666666667</ele><time>2026-05-03T15:27:52.27Z</time></trkpt><trkpt lat="44.343295" lon="7.54549"><ele>574.0</ele><time>2026-05-03T15:27:53.27Z</time></trkpt><trkpt lat="44.343485" lon="7.5455167"><ele>574.0</ele><time>2026-05-03T15:27:54.27Z</time></trkpt><trkpt lat="44.343675" lon="7.545545"><ele>574.0</ele><time>2026-05-03T15:27:55.27Z</time></trkpt><trkpt lat="44.3438683" lon="7.545565"><ele>574.0</ele><time>2026-05-03T15:27:56.27Z</time></trkpt><trkpt lat="44.3440633" lon="7.5455783"><ele>574.0</ele><time>2026-05-03T15:27:57.27Z</time></trkpt><trkpt lat="44.344255" lon="7.5456"><ele>574.0</ele><time>2026-05-03T15:27:58.27Z</time></trkpt><trkpt lat="44.3444467" lon="7.5456233"><ele>574.0</ele><time>2026-05-03T15:27:59.27Z</time></trkpt><trkpt lat="44.3446383" lon="7.5456483"><ele>573.6666666666667</ele><time>2026-05-03T15:28:00.27Z</time></trkpt><trkpt lat="44.3448233" lon="7.54568"><ele>573.3333333333334</ele><time>2026-05-03T15:28:01.27Z</time></trkpt><trkpt lat="44.3450117" lon="7.5457017"><ele>573.0</ele><time>2026-05-03T15:28:02.27Z</time></trkpt><trkpt lat="44.3451933" lon="7.5457283"><ele>573.0</ele><time>2026-05-03T15:28:03.27Z</time></trkpt><trkpt lat="44.345365" lon="7.54576"><ele>573.0</ele><time>2026-05-03T15:28:04.27Z</time></trkpt><trkpt lat="44.34553" lon="7.54578"><ele>573.0</ele><time>2026-05-03T15:28:05.271Z</time></trkpt><trkpt lat="44.3456883" lon="7.5458067"><ele>572.75</ele><time>2026-05-03T15:28:06.27Z</time></trkpt><trkpt lat="44.3458367" lon="7.5458267"><ele>572.5</ele><time>2026-05-03T15:28:07.27Z</time></trkpt><trkpt lat="44.3459783" lon="7.5458483"><ele>572.25</ele><time>2026-05-03T15:28:08.27Z</time></trkpt><trkpt lat="44.34612" lon="7.5458733"><ele>572.0</ele><time>2026-05-03T15:28:09.27Z</time></trkpt><trkpt lat="44.3462533" lon="7.5458983"><ele>571.75</ele><time>2026-05-03T15:28:10.27Z</time></trkpt><trkpt lat="44.34638" lon="7.5459183"><ele>571.5</ele><time>2026-05-03T15:28:11.27Z</time></trkpt><trkpt lat="44.3465017" lon="7.5459417"><ele>571.25</ele><time>2026-05-03T15:28:12.27Z</time></trkpt><trkpt lat="44.346615" lon="7.54597"><ele>571.0</ele><time>2026-05-03T15:28:13.27Z</time></trkpt><trkpt lat="44.3467167" lon="7.5460017"><ele>571.0</ele><time>2026-05-03T15:28:14.27Z</time></trkpt><trkpt lat="44.3468067" lon="7.54604"><ele>571.0</ele><time>2026-05-03T15:28:15.27Z</time></trkpt><trkpt lat="44.3468833" lon="7.5460617"><ele>571.0</ele><time>2026-05-03T15:28:16.27Z</time></trkpt><trkpt lat="44.3469567" lon="7.5460717"><ele>571.0</ele><time>2026-05-03T15:28:17.27Z</time></trkpt><trkpt lat="44.347065" lon="7.546085"><ele>571.0</ele><time>2026-05-03T15:28:19.27Z</time></trkpt><trkpt lat="44.34713" lon="7.5460967"><ele>571.0</ele><time>2026-05-03T15:28:21.27Z</time></trkpt><trkpt lat="44.3472217" lon="7.54612"><ele>571.0</ele><time>2026-05-03T15:28:36.271Z</time></trkpt><trkpt lat="44.34727" lon="7.546195"><ele>571.0</ele><time>2026-05-03T15:28:38.27Z</time></trkpt><trkpt lat="44.3472533" lon="7.5462817"><ele>571.0</ele><time>2026-05-03T15:28:40.27Z</time></trkpt><trkpt lat="44.3472" lon="7.54633"><ele>571.0</ele><time>2026-05-03T15:28:42.27Z</time></trkpt><trkpt lat="44.3471217" lon="7.5463317"><ele>571.0</ele><time>2026-05-03T15:28:44.271Z</time></trkpt><trkpt lat="44.34704" lon="7.5463233"><ele>571.0</ele><time>2026-05-03T15:28:46.271Z</time></trkpt><trkpt lat="44.3469717" lon="7.5462783"><ele>571.0</ele><time>2026-05-03T15:28:48.27Z</time></trkpt><trkpt lat="44.347" lon="7.5461767"><ele>571.0</ele><time>2026-05-03T15:28:51.27Z</time></trkpt><trkpt lat="44.347065" lon="7.5461633"><ele>571.0</ele><time>2026-05-03T15:28:55.271Z</time></trkpt><trkpt lat="44.3471483" lon="7.5461717"><ele>571.0</ele><time>2026-05-03T15:29:07.27Z</time></trkpt><trkpt lat="44.3483761" lon="7.5464748"><ele>571.0</ele><time>2026-05-03T15:33:18.958Z</time></trkpt><trkpt lat="44.3471417" lon="7.5460717"><ele>571.0</ele><time>2026-05-03T15:33:22.354Z</time></trkpt><trkpt lat="44.347205" lon="7.5461083"><ele>571.0</ele><time>2026-05-03T15:33:25.354Z</time></trkpt><trkpt lat="44.34729" lon="7.5461017"><ele>571.0</ele><time>2026-05-03T15:33:29.281Z</time></trkpt><trkpt lat="44.347415" lon="7.5460867"><ele>571.0</ele><time>2026-05-03T15:33:43.281Z</time></trkpt><trkpt lat="44.347525" lon="7.546075"><ele>571.0</ele><time>2026-05-03T15:33:45.282Z</time></trkpt><trkpt lat="44.3476533" lon="7.546075"><ele>571.0</ele><time>2026-05-03T15:33:47.281Z</time></trkpt><trkpt lat="44.3477417" lon="7.5460833"><ele>571.0</ele><time>2026-05-03T15:33:48.281Z</time></trkpt><trkpt lat="44.347825" lon="7.5461"><ele>571.0</ele><time>2026-05-03T15:33:49.281Z</time></trkpt><trkpt lat="44.347915" lon="7.54611"><ele>571.0</ele><time>2026-05-03T15:33:50.281Z</time></trkpt><trkpt lat="44.3480083" lon="7.5461167"><ele>571.0</ele><time>2026-05-03T15:33:51.281Z</time></trkpt><trkpt lat="44.34811" lon="7.5461283"><ele>571.0</ele><time>2026-05-03T15:33:52.281Z</time></trkpt><trkpt lat="44.3482117" lon="7.5461517"><ele>571.0</ele><time>2026-05-03T15:33:53.281Z</time></trkpt><trkpt lat="44.34833" lon="7.546175"><ele>571.0</ele><time>2026-05-03T15:33:54.281Z</time></trkpt><trkpt lat="44.34845" lon="7.5462017"><ele>571.0</ele><time>2026-05-03T15:33:55.281Z</time></trkpt><trkpt lat="44.3485783" lon="7.5462167"><ele>571.0</ele><time>2026-05-03T15:33:56.281Z</time></trkpt><trkpt lat="44.3487067" lon="7.5462317"><ele>571.0</ele><time>2026-05-03T15:33:57.281Z</time></trkpt><trkpt lat="44.348835" lon="7.5462433"><ele>571.0</ele><time>2026-05-03T15:33:58.281Z</time></trkpt><trkpt lat="44.3489817" lon="7.54627"><ele>571.0</ele><time>2026-05-03T15:33:59.281Z</time></trkpt><trkpt lat="44.3491183" lon="7.546295"><ele>571.0</ele><time>2026-05-03T15:34:00.281Z</time></trkpt><trkpt lat="44.34927" lon="7.5463167"><ele>571.0</ele><time>2026-05-03T15:34:01.281Z</time></trkpt><trkpt lat="44.349425" lon="7.5463483"><ele>571.0</ele><time>2026-05-03T15:34:02.281Z</time></trkpt><trkpt lat="44.3495733" lon="7.5463783"><ele>570.6666666666667</ele><time>2026-05-03T15:34:03.281Z</time></trkpt><trkpt lat="44.3497267" lon="7.546415"><ele>570.3333333333334</ele><time>2026-05-03T15:34:04.281Z</time></trkpt><trkpt lat="44.349885" lon="7.5464567"><ele>570.0</ele><time>2026-05-03T15:34:05.282Z</time></trkpt><trkpt lat="44.3500467" lon="7.54648"><ele>570.0</ele><time>2026-05-03T15:34:06.281Z</time></trkpt><trkpt lat="44.3502167" lon="7.5465133"><ele>570.0</ele><time>2026-05-03T15:34:07.281Z</time></trkpt><trkpt lat="44.350385" lon="7.5465483"><ele>570.0</ele><time>2026-05-03T15:34:08.281Z</time></trkpt><trkpt lat="44.350555" lon="7.5465867"><ele>570.6666666666666</ele><time>2026-05-03T15:34:09.281Z</time></trkpt><trkpt lat="44.3507333" lon="7.5466117"><ele>571.3333333333333</ele><time>2026-05-03T15:34:10.281Z</time></trkpt><trkpt lat="44.3509067" lon="7.5466533"><ele>572.0</ele><time>2026-05-03T15:34:11.281Z</time></trkpt><trkpt lat="44.3510817" lon="7.5467083"><ele>572.0</ele><time>2026-05-03T15:34:12.281Z</time></trkpt><trkpt lat="44.3512617" lon="7.5467633"><ele>572.0</ele><time>2026-05-03T15:34:13.281Z</time></trkpt><trkpt lat="44.3514483" lon="7.54681"><ele>572.0</ele><time>2026-05-03T15:34:14.281Z</time></trkpt><trkpt lat="44.3516267" lon="7.54686"><ele>571.3333333333333</ele><time>2026-05-03T15:34:15.281Z</time></trkpt><trkpt lat="44.3518067" lon="7.5469067"><ele>570.6666666666666</ele><time>2026-05-03T15:34:16.281Z</time></trkpt><trkpt lat="44.35199" lon="7.546955"><ele>570.0</ele><time>2026-05-03T15:34:17.282Z</time></trkpt><trkpt lat="44.3521733" lon="7.5470117"><ele>569.0</ele><time>2026-05-03T15:34:18.281Z</time></trkpt><trkpt lat="44.3523633" lon="7.5470717"><ele>568.0</ele><time>2026-05-03T15:34:19.281Z</time></trkpt><trkpt lat="44.3525467" lon="7.5471233"><ele>567.0</ele><time>2026-05-03T15:34:20.281Z</time></trkpt><trkpt lat="44.35273" lon="7.547185"><ele>567.0</ele><time>2026-05-03T15:34:21.282Z</time></trkpt><trkpt lat="44.3529183" lon="7.5472383"><ele>567.0</ele><time>2026-05-03T15:34:22.281Z</time></trkpt><trkpt lat="44.3531" lon="7.5473017"><ele>567.0</ele><time>2026-05-03T15:34:23.281Z</time></trkpt><trkpt lat="44.353285" lon="7.5473683"><ele>566.6666666666666</ele><time>2026-05-03T15:34:24.281Z</time></trkpt><trkpt lat="44.3534733" lon="7.547435"><ele>566.3333333333333</ele><time>2026-05-03T15:34:25.281Z</time></trkpt><trkpt lat="44.3536683" lon="7.54749"><ele>566.0</ele><time>2026-05-03T15:34:26.281Z</time></trkpt><trkpt lat="44.353865" lon="7.5475467"><ele>566.3333333333333</ele><time>2026-05-03T15:34:27.281Z</time></trkpt><trkpt lat="44.354065" lon="7.547605"><ele>566.6666666666666</ele><time>2026-05-03T15:34:28.281Z</time></trkpt><trkpt lat="44.3542617" lon="7.5476667"><ele>567.0</ele><time>2026-05-03T15:34:29.281Z</time></trkpt><trkpt lat="44.3544683" lon="7.547735"><ele>567.0</ele><time>2026-05-03T15:34:30.281Z</time></trkpt><trkpt lat="44.35468" lon="7.5478067"><ele>567.0</ele><time>2026-05-03T15:34:31.28Z</time></trkpt><trkpt lat="44.35489" lon="7.54788"><ele>567.0</ele><time>2026-05-03T15:34:32.28Z</time></trkpt><trkpt lat="44.355095" lon="7.5479583"><ele>566.3333333333334</ele><time>2026-05-03T15:34:33.28Z</time></trkpt><trkpt lat="44.3553017" lon="7.5480383"><ele>565.6666666666667</ele><time>2026-05-03T15:34:34.28Z</time></trkpt><trkpt lat="44.355515" lon="7.54812"><ele>565.0</ele><time>2026-05-03T15:34:35.28Z</time></trkpt><trkpt lat="44.3557333" lon="7.5481883"><ele>564.3333333333334</ele><time>2026-05-03T15:34:36.28Z</time></trkpt><trkpt lat="44.3559367" lon="7.5482717"><ele>563.6666666666666</ele><time>2026-05-03T15:34:37.281Z</time></trkpt><trkpt lat="44.3561533" lon="7.5483267"><ele>563.0</ele><time>2026-05-03T15:34:38.28Z</time></trkpt><trkpt lat="44.35636" lon="7.5483933"><ele>563.3333333333333</ele><time>2026-05-03T15:34:39.28Z</time></trkpt><trkpt lat="44.35657" lon="7.548455"><ele>563.6666666666666</ele><time>2026-05-03T15:34:40.28Z</time></trkpt><trkpt lat="44.356775" lon="7.5485183"><ele>564.0</ele><time>2026-05-03T15:34:41.281Z</time></trkpt><trkpt lat="44.356985" lon="7.5485817"><ele>564.0</ele><time>2026-05-03T15:34:42.28Z</time></trkpt><trkpt lat="44.35719" lon="7.54866"><ele>564.0</ele><time>2026-05-03T15:34:43.28Z</time></trkpt><trkpt lat="44.3573933" lon="7.5487267"><ele>564.0</ele><time>2026-05-03T15:34:44.28Z</time></trkpt><trkpt lat="44.3576083" lon="7.5487917"><ele>563.3333333333334</ele><time>2026-05-03T15:34:45.281Z</time></trkpt><trkpt lat="44.3578133" lon="7.5488667"><ele>562.6666666666667</ele><time>2026-05-03T15:34:46.28Z</time></trkpt><trkpt lat="44.358015" lon="7.5489117"><ele>562.0</ele><time>2026-05-03T15:34:47.28Z</time></trkpt><trkpt lat="44.3582183" lon="7.54899"><ele>559.6666666666667</ele><time>2026-05-03T15:34:48.28Z</time></trkpt><trkpt lat="44.3584367" lon="7.54905"><ele>557.3333333333334</ele><time>2026-05-03T15:34:49.28Z</time></trkpt><trkpt lat="44.3586517" lon="7.5491133"><ele>555.0</ele><time>2026-05-03T15:34:50.28Z</time></trkpt><trkpt lat="44.358865" lon="7.5491783"><ele>554.0</ele><time>2026-05-03T15:34:51.28Z</time></trkpt><trkpt lat="44.3590767" lon="7.5492467"><ele>553.0</ele><time>2026-05-03T15:34:52.281Z</time></trkpt><trkpt lat="44.35929" lon="7.5493167"><ele>552.0</ele><time>2026-05-03T15:34:53.28Z</time></trkpt><trkpt lat="44.359505" lon="7.549375"><ele>551.6666666666666</ele><time>2026-05-03T15:34:54.28Z</time></trkpt><trkpt lat="44.3597117" lon="7.549435"><ele>551.3333333333333</ele><time>2026-05-03T15:34:55.28Z</time></trkpt><trkpt lat="44.359905" lon="7.54951"><ele>551.0</ele><time>2026-05-03T15:34:56.28Z</time></trkpt><trkpt lat="44.3600967" lon="7.5495817"><ele>551.6666666666666</ele><time>2026-05-03T15:34:57.28Z</time></trkpt><trkpt lat="44.3602883" lon="7.5496483"><ele>552.3333333333334</ele><time>2026-05-03T15:34:58.28Z</time></trkpt><trkpt lat="44.3604817" lon="7.54971"><ele>553.0</ele><time>2026-05-03T15:34:59.28Z</time></trkpt><trkpt lat="44.36068" lon="7.549765"><ele>551.3333333333334</ele><time>2026-05-03T15:35:00.28Z</time></trkpt><trkpt lat="44.3608733" lon="7.5498317"><ele>549.6666666666666</ele><time>2026-05-03T15:35:01.28Z</time></trkpt><trkpt lat="44.3610683" lon="7.5498917"><ele>548.0</ele><time>2026-05-03T15:35:02.28Z</time></trkpt><trkpt lat="44.3612617" lon="7.5499517"><ele>548.0</ele><time>2026-05-03T15:35:03.28Z</time></trkpt><trkpt lat="44.3614517" lon="7.5500167"><ele>548.0</ele><time>2026-05-03T15:35:04.28Z</time></trkpt><trkpt lat="44.3616467" lon="7.55008"><ele>548.0</ele><time>2026-05-03T15:35:05.28Z</time></trkpt><trkpt lat="44.3618433" lon="7.550145"><ele>548.0</ele><time>2026-05-03T15:35:06.28Z</time></trkpt><trkpt lat="44.3620367" lon="7.5502133"><ele>548.0</ele><time>2026-05-03T15:35:07.281Z</time></trkpt><trkpt lat="44.3622317" lon="7.5502617"><ele>548.0</ele><time>2026-05-03T15:35:08.28Z</time></trkpt><trkpt lat="44.3624133" lon="7.5503267"><ele>547.3333333333333</ele><time>2026-05-03T15:35:09.28Z</time></trkpt><trkpt lat="44.362595" lon="7.5503817"><ele>546.6666666666666</ele><time>2026-05-03T15:35:10.28Z</time></trkpt><trkpt lat="44.3627733" lon="7.5504383"><ele>546.0</ele><time>2026-05-03T15:35:11.28Z</time></trkpt><trkpt lat="44.362945" lon="7.550495"><ele>545.6666666666666</ele><time>2026-05-03T15:35:12.28Z</time></trkpt><trkpt lat="44.3631233" lon="7.550545"><ele>545.3333333333333</ele><time>2026-05-03T15:35:13.28Z</time></trkpt><trkpt lat="44.3632983" lon="7.5506067"><ele>545.0</ele><time>2026-05-03T15:35:14.28Z</time></trkpt><trkpt lat="44.3634683" lon="7.5506667"><ele>545.0</ele><time>2026-05-03T15:35:15.28Z</time></trkpt><trkpt lat="44.36364" lon="7.550725"><ele>545.0</ele><time>2026-05-03T15:35:16.28Z</time></trkpt><trkpt lat="44.3638217" lon="7.5507833"><ele>545.0</ele><time>2026-05-03T15:35:17.28Z</time></trkpt><trkpt lat="44.364005" lon="7.55084"><ele>545.3333333333333</ele><time>2026-05-03T15:35:18.28Z</time></trkpt><trkpt lat="44.364185" lon="7.5509"><ele>545.6666666666666</ele><time>2026-05-03T15:35:19.281Z</time></trkpt><trkpt lat="44.3643717" lon="7.55096"><ele>546.0</ele><time>2026-05-03T15:35:20.28Z</time></trkpt><trkpt lat="44.36455" lon="7.551015"><ele>545.0</ele><time>2026-05-03T15:35:21.28Z</time></trkpt><trkpt lat="44.364725" lon="7.55108"><ele>544.0</ele><time>2026-05-03T15:35:22.28Z</time></trkpt><trkpt lat="44.3648933" lon="7.5511433"><ele>543.0</ele><time>2026-05-03T15:35:23.28Z</time></trkpt><trkpt lat="44.3650633" lon="7.5512083"><ele>543.0</ele><time>2026-05-03T15:35:24.28Z</time></trkpt><trkpt lat="44.365235" lon="7.5512667"><ele>543.0</ele><time>2026-05-03T15:35:25.28Z</time></trkpt><trkpt lat="44.3654133" lon="7.55133"><ele>543.0</ele><time>2026-05-03T15:35:26.28Z</time></trkpt><trkpt lat="44.3655883" lon="7.55138"><ele>543.3333333333334</ele><time>2026-05-03T15:35:27.28Z</time></trkpt><trkpt lat="44.3657617" lon="7.551445"><ele>543.6666666666667</ele><time>2026-05-03T15:35:28.28Z</time></trkpt><trkpt lat="44.3659317" lon="7.5515133"><ele>544.0</ele><time>2026-05-03T15:35:29.28Z</time></trkpt><trkpt lat="44.3661167" lon="7.5515683"><ele>544.0</ele><time>2026-05-03T15:35:30.28Z</time></trkpt><trkpt lat="44.36631" lon="7.5516133"><ele>544.0</ele><time>2026-05-03T15:35:31.28Z</time></trkpt><trkpt lat="44.3664967" lon="7.55167"><ele>544.0</ele><time>2026-05-03T15:35:32.28Z</time></trkpt><trkpt lat="44.36669" lon="7.5517233"><ele>542.6666666666667</ele><time>2026-05-03T15:35:33.28Z</time></trkpt><trkpt lat="44.3668833" lon="7.5517767"><ele>541.3333333333334</ele><time>2026-05-03T15:35:34.28Z</time></trkpt><trkpt lat="44.36707" lon="7.55184"><ele>540.0</ele><time>2026-05-03T15:35:35.28Z</time></trkpt><trkpt lat="44.3672617" lon="7.5519"><ele>540.0</ele><time>2026-05-03T15:35:36.28Z</time></trkpt><trkpt lat="44.3674483" lon="7.5519617"><ele>540.0</ele><time>2026-05-03T15:35:37.28Z</time></trkpt><trkpt lat="44.36763" lon="7.5520183"><ele>540.0</ele><time>2026-05-03T15:35:38.28Z</time></trkpt><trkpt lat="44.3678133" lon="7.5520817"><ele>540.0</ele><time>2026-05-03T15:35:39.28Z</time></trkpt><trkpt lat="44.3679933" lon="7.5521417"><ele>540.0</ele><time>2026-05-03T15:35:40.28Z</time></trkpt><trkpt lat="44.368175" lon="7.5521917"><ele>540.0</ele><time>2026-05-03T15:35:41.28Z</time></trkpt><trkpt lat="44.36836" lon="7.5522333"><ele>539.6666666666666</ele><time>2026-05-03T15:35:42.28Z</time></trkpt><trkpt lat="44.3685383" lon="7.5522617"><ele>539.3333333333333</ele><time>2026-05-03T15:35:43.28Z</time></trkpt><trkpt lat="44.3687167" lon="7.5523233"><ele>539.0</ele><time>2026-05-03T15:35:44.28Z</time></trkpt><trkpt lat="44.3689083" lon="7.5524067"><ele>538.6666666666666</ele><time>2026-05-03T15:35:45.28Z</time></trkpt><trkpt lat="44.3691117" lon="7.552475"><ele>538.3333333333334</ele><time>2026-05-03T15:35:46.28Z</time></trkpt><trkpt lat="44.3693117" lon="7.55255"><ele>538.0</ele><time>2026-05-03T15:35:47.28Z</time></trkpt><trkpt lat="44.3695217" lon="7.552625"><ele>536.3333333333334</ele><time>2026-05-03T15:35:48.28Z</time></trkpt><trkpt lat="44.369725" lon="7.5527117"><ele>534.6666666666666</ele><time>2026-05-03T15:35:49.28Z</time></trkpt><trkpt lat="44.3699333" lon="7.5527817"><ele>533.0</ele><time>2026-05-03T15:35:50.28Z</time></trkpt><trkpt lat="44.3701333" lon="7.5528417"><ele>533.6666666666666</ele><time>2026-05-03T15:35:51.28Z</time></trkpt><trkpt lat="44.370335" lon="7.552915"><ele>534.3333333333334</ele><time>2026-05-03T15:35:52.281Z</time></trkpt><trkpt lat="44.3705367" lon="7.5529867"><ele>535.0</ele><time>2026-05-03T15:35:53.28Z</time></trkpt><trkpt lat="44.3707367" lon="7.5530467"><ele>535.0</ele><time>2026-05-03T15:35:54.28Z</time></trkpt><trkpt lat="44.3709383" lon="7.5531133"><ele>535.0</ele><time>2026-05-03T15:35:55.28Z</time></trkpt><trkpt lat="44.3711383" lon="7.55317"><ele>535.0</ele><time>2026-05-03T15:35:56.28Z</time></trkpt><trkpt lat="44.371335" lon="7.5532433"><ele>533.3333333333334</ele><time>2026-05-03T15:35:57.28Z</time></trkpt><trkpt lat="44.37154" lon="7.5533067"><ele>531.6666666666666</ele><time>2026-05-03T15:35:58.281Z</time></trkpt><trkpt lat="44.3717367" lon="7.55337"><ele>530.0</ele><time>2026-05-03T15:35:59.28Z</time></trkpt><trkpt lat="44.37194" lon="7.5534333"><ele>530.0</ele><time>2026-05-03T15:36:00.28Z</time></trkpt><trkpt lat="44.37214" lon="7.5535"><ele>530.0</ele><time>2026-05-03T15:36:01.28Z</time></trkpt><trkpt lat="44.37235" lon="7.5535467"><ele>530.0</ele><time>2026-05-03T15:36:02.28Z</time></trkpt><trkpt lat="44.3725533" lon="7.5535967"><ele>530.0</ele><time>2026-05-03T15:36:03.28Z</time></trkpt><trkpt lat="44.37275" lon="7.5536683"><ele>530.0</ele><time>2026-05-03T15:36:04.28Z</time></trkpt><trkpt lat="44.3729517" lon="7.5537567"><ele>530.0</ele><time>2026-05-03T15:36:05.28Z</time></trkpt><trkpt lat="44.3731483" lon="7.5538367"><ele>530.0</ele><time>2026-05-03T15:36:06.28Z</time></trkpt><trkpt lat="44.3733517" lon="7.55392"><ele>530.0</ele><time>2026-05-03T15:36:07.28Z</time></trkpt><trkpt lat="44.3735517" lon="7.55401"><ele>530.0</ele><time>2026-05-03T15:36:08.28Z</time></trkpt><trkpt lat="44.3737517" lon="7.554105"><ele>529.3333333333333</ele><time>2026-05-03T15:36:09.28Z</time></trkpt><trkpt lat="44.3739533" lon="7.5541967"><ele>528.6666666666666</ele><time>2026-05-03T15:36:10.28Z</time></trkpt><trkpt lat="44.374155" lon="7.5542917"><ele>528.0</ele><time>2026-05-03T15:36:11.281Z</time></trkpt><trkpt lat="44.3743583" lon="7.55439"><ele>528.0</ele><time>2026-05-03T15:36:12.28Z</time></trkpt><trkpt lat="44.3745717" lon="7.5544867"><ele>528.0</ele><time>2026-05-03T15:36:13.28Z</time></trkpt><trkpt lat="44.3747733" lon="7.5545983"><ele>528.0</ele><time>2026-05-03T15:36:14.281Z</time></trkpt><trkpt lat="44.3749767" lon="7.5547117"><ele>527.3333333333334</ele><time>2026-05-03T15:36:15.28Z</time></trkpt><trkpt lat="44.3751783" lon="7.5548333"><ele>526.6666666666667</ele><time>2026-05-03T15:36:16.28Z</time></trkpt><trkpt lat="44.3753833" lon="7.5549533"><ele>526.0</ele><time>2026-05-03T15:36:17.28Z</time></trkpt><trkpt lat="44.3755883" lon="7.5550683"><ele>526.0</ele><time>2026-05-03T15:36:18.28Z</time></trkpt><trkpt lat="44.375795" lon="7.5551883"><ele>526.0</ele><time>2026-05-03T15:36:19.28Z</time></trkpt><trkpt lat="44.3759933" lon="7.555325"><ele>526.0</ele><time>2026-05-03T15:36:20.28Z</time></trkpt><trkpt lat="44.3761867" lon="7.5554633"><ele>525.3333333333334</ele><time>2026-05-03T15:36:21.28Z</time></trkpt><trkpt lat="44.3763767" lon="7.5555917"><ele>524.6666666666666</ele><time>2026-05-03T15:36:22.28Z</time></trkpt><trkpt lat="44.3765617" lon="7.5557267"><ele>524.0</ele><time>2026-05-03T15:36:23.28Z</time></trkpt><trkpt lat="44.3767383" lon="7.5558567"><ele>524.0</ele><time>2026-05-03T15:36:24.28Z</time></trkpt><trkpt lat="44.3769167" lon="7.555985"><ele>524.0</ele><time>2026-05-03T15:36:25.281Z</time></trkpt><trkpt lat="44.3770983" lon="7.5561233"><ele>524.0</ele><time>2026-05-03T15:36:26.28Z</time></trkpt><trkpt lat="44.3772783" lon="7.5562583"><ele>523.3333333333333</ele><time>2026-05-03T15:36:27.28Z</time></trkpt><trkpt lat="44.37745" lon="7.5563967"><ele>522.6666666666666</ele><time>2026-05-03T15:36:28.28Z</time></trkpt><trkpt lat="44.3776183" lon="7.556535"><ele>522.0</ele><time>2026-05-03T15:36:29.28Z</time></trkpt><trkpt lat="44.3777817" lon="7.556675"><ele>522.0</ele><time>2026-05-03T15:36:30.28Z</time></trkpt><trkpt lat="44.3779433" lon="7.5568067"><ele>522.0</ele><time>2026-05-03T15:36:31.28Z</time></trkpt><trkpt lat="44.3780967" lon="7.55695"><ele>522.0</ele><time>2026-05-03T15:36:32.28Z</time></trkpt><trkpt lat="44.3782433" lon="7.5570683"><ele>522.6666666666666</ele><time>2026-05-03T15:36:33.28Z</time></trkpt><trkpt lat="44.3783833" lon="7.5571933"><ele>523.3333333333333</ele><time>2026-05-03T15:36:34.28Z</time></trkpt><trkpt lat="44.3785267" lon="7.55731"><ele>524.0</ele><time>2026-05-03T15:36:35.28Z</time></trkpt><trkpt lat="44.3786633" lon="7.55743"><ele>524.0</ele><time>2026-05-03T15:36:36.28Z</time></trkpt><trkpt lat="44.3788167" lon="7.55755"><ele>524.0</ele><time>2026-05-03T15:36:37.28Z</time></trkpt><trkpt lat="44.3789567" lon="7.5576533"><ele>524.0</ele><time>2026-05-03T15:36:38.28Z</time></trkpt><trkpt lat="44.379095" lon="7.5577567"><ele>523.3333333333333</ele><time>2026-05-03T15:36:39.281Z</time></trkpt><trkpt lat="44.37923" lon="7.5578667"><ele>522.6666666666666</ele><time>2026-05-03T15:36:40.28Z</time></trkpt><trkpt lat="44.3793633" lon="7.5579817"><ele>522.0</ele><time>2026-05-03T15:36:41.28Z</time></trkpt><trkpt lat="44.3794967" lon="7.5580867"><ele>522.0</ele><time>2026-05-03T15:36:42.28Z</time></trkpt><trkpt lat="44.37963" lon="7.5581983"><ele>522.0</ele><time>2026-05-03T15:36:43.28Z</time></trkpt><trkpt lat="44.37977" lon="7.55831"><ele>522.0</ele><time>2026-05-03T15:36:44.28Z</time></trkpt><trkpt lat="44.3799067" lon="7.5584233"><ele>521.6666666666666</ele><time>2026-05-03T15:36:45.28Z</time></trkpt><trkpt lat="44.3800433" lon="7.558535"><ele>521.3333333333333</ele><time>2026-05-03T15:36:46.28Z</time></trkpt><trkpt lat="44.3801783" lon="7.558645"><ele>521.0</ele><time>2026-05-03T15:36:47.28Z</time></trkpt><trkpt lat="44.3803167" lon="7.5587533"><ele>521.0</ele><time>2026-05-03T15:36:48.281Z</time></trkpt><trkpt lat="44.380455" lon="7.55886"><ele>521.0</ele><time>2026-05-03T15:36:49.28Z</time></trkpt><trkpt lat="44.3805867" lon="7.5589733"><ele>521.0</ele><time>2026-05-03T15:36:50.28Z</time></trkpt><trkpt lat="44.3807183" lon="7.5590833"><ele>521.0</ele><time>2026-05-03T15:36:51.281Z</time></trkpt><trkpt lat="44.380845" lon="7.5591817"><ele>521.0</ele><time>2026-05-03T15:36:52.28Z</time></trkpt><trkpt lat="44.3809633" lon="7.55928"><ele>521.0</ele><time>2026-05-03T15:36:53.28Z</time></trkpt><trkpt lat="44.3810833" lon="7.5593817"><ele>521.0</ele><time>2026-05-03T15:36:54.28Z</time></trkpt><trkpt lat="44.3812033" lon="7.559485"><ele>521.0</ele><time>2026-05-03T15:36:55.28Z</time></trkpt><trkpt lat="44.3813233" lon="7.559585"><ele>521.0</ele><time>2026-05-03T15:36:56.28Z</time></trkpt><trkpt lat="44.3814417" lon="7.5596833"><ele>521.0</ele><time>2026-05-03T15:36:57.28Z</time></trkpt><trkpt lat="44.381565" lon="7.55978"><ele>521.0</ele><time>2026-05-03T15:36:58.28Z</time></trkpt><trkpt lat="44.38169" lon="7.5598833"><ele>520.5</ele><time>2026-05-03T15:36:59.28Z</time></trkpt><trkpt lat="44.3818083" lon="7.559985"><ele>520.0</ele><time>2026-05-03T15:37:00.28Z</time></trkpt><trkpt lat="44.3819183" lon="7.5600783"><ele>519.5</ele><time>2026-05-03T15:37:01.28Z</time></trkpt><trkpt lat="44.3820283" lon="7.56017"><ele>519.0</ele><time>2026-05-03T15:37:02.28Z</time></trkpt><trkpt lat="44.3821317" lon="7.560265"><ele>518.4</ele><time>2026-05-03T15:37:03.281Z</time></trkpt><trkpt lat="44.3822183" lon="7.5603617"><ele>517.8</ele><time>2026-05-03T15:37:04.28Z</time></trkpt><trkpt lat="44.3822933" lon="7.5604833"><ele>517.2</ele><time>2026-05-03T15:37:05.28Z</time></trkpt><trkpt lat="44.3823583" lon="7.5606017"><ele>516.6</ele><time>2026-05-03T15:37:06.28Z</time></trkpt><trkpt lat="44.3824067" lon="7.5607333"><ele>516.0</ele><time>2026-05-03T15:37:07.28Z</time></trkpt><trkpt lat="44.3824567" lon="7.5608533"><ele>516.0</ele><time>2026-05-03T15:37:08.28Z</time></trkpt><trkpt lat="44.3825217" lon="7.5609583"><ele>516.0</ele><time>2026-05-03T15:37:09.281Z</time></trkpt><trkpt lat="44.3825917" lon="7.5610683"><ele>516.0</ele><time>2026-05-03T15:37:10.28Z</time></trkpt><trkpt lat="44.3826767" lon="7.561175"><ele>516.0</ele><time>2026-05-03T15:37:11.28Z</time></trkpt><trkpt lat="44.3827583" lon="7.561285"><ele>516.0</ele><time>2026-05-03T15:37:12.28Z</time></trkpt><trkpt lat="44.3828217" lon="7.5614183"><ele>516.25</ele><time>2026-05-03T15:37:13.28Z</time></trkpt><trkpt lat="44.3828817" lon="7.56157"><ele>516.5</ele><time>2026-05-03T15:37:14.281Z</time></trkpt><trkpt lat="44.3829317" lon="7.5617367"><ele>516.75</ele><time>2026-05-03T15:37:15.28Z</time></trkpt><trkpt lat="44.38298" lon="7.5619033"><ele>517.0</ele><time>2026-05-03T15:37:16.28Z</time></trkpt><trkpt lat="44.38303" lon="7.5620783"><ele>517.0</ele><time>2026-05-03T15:37:17.281Z</time></trkpt><trkpt lat="44.3830767" lon="7.56227"><ele>517.0</ele><time>2026-05-03T15:37:18.28Z</time></trkpt><trkpt lat="44.383115" lon="7.5624583"><ele>517.0</ele><time>2026-05-03T15:37:19.281Z</time></trkpt><trkpt lat="44.383155" lon="7.56265"><ele>517.0</ele><time>2026-05-03T15:37:20.28Z</time></trkpt><trkpt lat="44.3831967" lon="7.5628467"><ele>516.25</ele><time>2026-05-03T15:37:21.28Z</time></trkpt><trkpt lat="44.3832383" lon="7.5630417"><ele>515.5</ele><time>2026-05-03T15:37:22.281Z</time></trkpt><trkpt lat="44.38328" lon="7.5632367"><ele>514.75</ele><time>2026-05-03T15:37:23.28Z</time></trkpt><trkpt lat="44.38332" lon="7.56343"><ele>514.0</ele><time>2026-05-03T15:37:24.28Z</time></trkpt><trkpt lat="44.3833567" lon="7.563625"><ele>514.0</ele><time>2026-05-03T15:37:25.28Z</time></trkpt><trkpt lat="44.3834017" lon="7.5638317"><ele>514.0</ele><time>2026-05-03T15:37:26.28Z</time></trkpt><trkpt lat="44.3834467" lon="7.564035"><ele>514.0</ele><time>2026-05-03T15:37:27.28Z</time></trkpt><trkpt lat="44.383485" lon="7.5642367"><ele>514.0</ele><time>2026-05-03T15:37:28.28Z</time></trkpt><trkpt lat="44.38353" lon="7.564435"><ele>514.0</ele><time>2026-05-03T15:37:29.281Z</time></trkpt><trkpt lat="44.38357" lon="7.5646217"><ele>514.0</ele><time>2026-05-03T15:37:30.28Z</time></trkpt><trkpt lat="44.3836133" lon="7.5648017"><ele>514.0</ele><time>2026-05-03T15:37:31.28Z</time></trkpt><trkpt lat="44.383655" lon="7.5649683"><ele>514.5</ele><time>2026-05-03T15:37:32.28Z</time></trkpt><trkpt lat="44.3836967" lon="7.56512"><ele>515.0</ele><time>2026-05-03T15:37:33.281Z</time></trkpt><trkpt lat="44.3837467" lon="7.5652767"><ele>515.5</ele><time>2026-05-03T15:37:34.28Z</time></trkpt><trkpt lat="44.38379" lon="7.5654183"><ele>516.0</ele><time>2026-05-03T15:37:35.28Z</time></trkpt><trkpt lat="44.38384" lon="7.5655433"><ele>516.0</ele><time>2026-05-03T15:37:36.28Z</time></trkpt><trkpt lat="44.3838883" lon="7.5656617"><ele>516.0</ele><time>2026-05-03T15:37:37.28Z</time></trkpt><trkpt lat="44.3839267" lon="7.5657667"><ele>516.0</ele><time>2026-05-03T15:37:38.281Z</time></trkpt><trkpt lat="44.383955" lon="7.5658667"><ele>516.0</ele><time>2026-05-03T15:37:39.28Z</time></trkpt><trkpt lat="44.38398" lon="7.565965"><ele>516.0</ele><time>2026-05-03T15:37:40.281Z</time></trkpt><trkpt lat="44.384" lon="7.566075"><ele>516.0</ele><time>2026-05-03T15:37:41.28Z</time></trkpt><trkpt lat="44.3840117" lon="7.5662017"><ele>516.0</ele><time>2026-05-03T15:37:42.28Z</time></trkpt><trkpt lat="44.38402" lon="7.5663217"><ele>516.0</ele><time>2026-05-03T15:37:43.281Z</time></trkpt><trkpt lat="44.3840433" lon="7.566445"><ele>516.0</ele><time>2026-05-03T15:37:44.28Z</time></trkpt><trkpt lat="44.3840833" lon="7.566555"><ele>516.0</ele><time>2026-05-03T15:37:45.28Z</time></trkpt><trkpt lat="44.3841383" lon="7.566645"><ele>516.0</ele><time>2026-05-03T15:37:46.28Z</time></trkpt><trkpt lat="44.3842083" lon="7.566715"><ele>516.0</ele><time>2026-05-03T15:37:47.281Z</time></trkpt><trkpt lat="44.38429" lon="7.5667717"><ele>516.0</ele><time>2026-05-03T15:37:48.281Z</time></trkpt><trkpt lat="44.3843967" lon="7.5667933"><ele>516.0</ele><time>2026-05-03T15:37:49.28Z</time></trkpt><trkpt lat="44.38451" lon="7.56682"><ele>516.0</ele><time>2026-05-03T15:37:50.28Z</time></trkpt><trkpt lat="44.3846283" lon="7.5668667"><ele>516.0</ele><time>2026-05-03T15:37:51.28Z</time></trkpt><trkpt lat="44.3847383" lon="7.5669317"><ele>515.5</ele><time>2026-05-03T15:37:52.28Z</time></trkpt><trkpt lat="44.3848467" lon="7.56702"><ele>515.0</ele><time>2026-05-03T15:37:53.28Z</time></trkpt><trkpt lat="44.3849583" lon="7.5671167"><ele>514.5</ele><time>2026-05-03T15:37:54.28Z</time></trkpt><trkpt lat="44.3850767" lon="7.567235"><ele>514.0</ele><time>2026-05-03T15:37:55.281Z</time></trkpt><trkpt lat="44.3852033" lon="7.5673683"><ele>513.6666666666667</ele><time>2026-05-03T15:37:56.28Z</time></trkpt><trkpt lat="44.38534" lon="7.5675167"><ele>513.3333333333334</ele><time>2026-05-03T15:37:57.28Z</time></trkpt><trkpt lat="44.3854883" lon="7.56768"><ele>513.0</ele><time>2026-05-03T15:37:58.28Z</time></trkpt><trkpt lat="44.3856483" lon="7.56785"><ele>513.0</ele><time>2026-05-03T15:37:59.28Z</time></trkpt><trkpt lat="44.385815" lon="7.56803"><ele>513.0</ele><time>2026-05-03T15:38:00.281Z</time></trkpt><trkpt lat="44.385975" lon="7.568215"><ele>513.0</ele><time>2026-05-03T15:38:01.28Z</time></trkpt><trkpt lat="44.3861383" lon="7.5684017"><ele>513.0</ele><time>2026-05-03T15:38:02.281Z</time></trkpt><trkpt lat="44.3862983" lon="7.5685867"><ele>513.0</ele><time>2026-05-03T15:38:03.281Z</time></trkpt><trkpt lat="44.3864567" lon="7.5687633"><ele>513.0</ele><time>2026-05-03T15:38:04.28Z</time></trkpt><trkpt lat="44.3866133" lon="7.5689283"><ele>514.0</ele><time>2026-05-03T15:38:05.28Z</time></trkpt><trkpt lat="44.3867617" lon="7.5690983"><ele>515.0</ele><time>2026-05-03T15:38:06.28Z</time></trkpt><trkpt lat="44.3869067" lon="7.56926"><ele>516.0</ele><time>2026-05-03T15:38:07.28Z</time></trkpt><trkpt lat="44.3870517" lon="7.5694133"><ele>515.3333333333334</ele><time>2026-05-03T15:38:08.28Z</time></trkpt><trkpt lat="44.3872" lon="7.56957"><ele>514.6666666666667</ele><time>2026-05-03T15:38:09.28Z</time></trkpt><trkpt lat="44.3873467" lon="7.5697217"><ele>514.0</ele><time>2026-05-03T15:38:10.28Z</time></trkpt><trkpt lat="44.3874933" lon="7.5698767"><ele>514.0</ele><time>2026-05-03T15:38:11.28Z</time></trkpt><trkpt lat="44.3876433" lon="7.5700367"><ele>514.0</ele><time>2026-05-03T15:38:12.28Z</time></trkpt><trkpt lat="44.387795" lon="7.5701917"><ele>514.0</ele><time>2026-05-03T15:38:13.28Z</time></trkpt><trkpt lat="44.3879417" lon="7.5703583"><ele>514.0</ele><time>2026-05-03T15:38:14.281Z</time></trkpt><trkpt lat="44.3880867" lon="7.5705167"><ele>514.0</ele><time>2026-05-03T15:38:15.28Z</time></trkpt><trkpt lat="44.3882317" lon="7.5706783"><ele>514.0</ele><time>2026-05-03T15:38:16.28Z</time></trkpt><trkpt lat="44.3883767" lon="7.5708333"><ele>514.0</ele><time>2026-05-03T15:38:17.281Z</time></trkpt><trkpt lat="44.388525" lon="7.5709883"><ele>514.0</ele><time>2026-05-03T15:38:18.28Z</time></trkpt><trkpt lat="44.38867" lon="7.57115"><ele>514.0</ele><time>2026-05-03T15:38:19.281Z</time></trkpt><trkpt lat="44.388815" lon="7.5713083"><ele>513.3333333333334</ele><time>2026-05-03T15:38:20.28Z</time></trkpt><trkpt lat="44.3889567" lon="7.5714767"><ele>512.6666666666666</ele><time>2026-05-03T15:38:21.28Z</time></trkpt><trkpt lat="44.3890933" lon="7.5716483"><ele>512.0</ele><time>2026-05-03T15:38:22.281Z</time></trkpt><trkpt lat="44.3892233" lon="7.57182"><ele>512.0</ele><time>2026-05-03T15:38:23.28Z</time></trkpt><trkpt lat="44.3893467" lon="7.571995"><ele>512.0</ele><time>2026-05-03T15:38:24.28Z</time></trkpt><trkpt lat="44.3894683" lon="7.5721783"><ele>512.0</ele><time>2026-05-03T15:38:25.281Z</time></trkpt><trkpt lat="44.389575" lon="7.5723583"><ele>511.66666666666663</ele><time>2026-05-03T15:38:26.28Z</time></trkpt><trkpt lat="44.3896683" lon="7.57253"><ele>511.33333333333337</ele><time>2026-05-03T15:38:27.28Z</time></trkpt><trkpt lat="44.38976" lon="7.572705"><ele>511.0</ele><time>2026-05-03T15:38:28.28Z</time></trkpt><trkpt lat="44.389845" lon="7.572865"><ele>512.0</ele><time>2026-05-03T15:38:29.28Z</time></trkpt><trkpt lat="44.3899217" lon="7.5730167"><ele>513.0</ele><time>2026-05-03T15:38:30.28Z</time></trkpt><trkpt lat="44.3899933" lon="7.5731667"><ele>514.0</ele><time>2026-05-03T15:38:31.28Z</time></trkpt><trkpt lat="44.3900583" lon="7.573315"><ele>515.0</ele><time>2026-05-03T15:38:32.281Z</time></trkpt><trkpt lat="44.3901167" lon="7.573465"><ele>515.0</ele><time>2026-05-03T15:38:33.28Z</time></trkpt><trkpt lat="44.3901633" lon="7.5736167"><ele>515.0</ele><time>2026-05-03T15:38:34.28Z</time></trkpt><trkpt lat="44.3902033" lon="7.573765"><ele>515.0</ele><time>2026-05-03T15:38:35.28Z</time></trkpt><trkpt lat="44.3902217" lon="7.5739067"><ele>515.0</ele><time>2026-05-03T15:38:36.28Z</time></trkpt><trkpt lat="44.3902283" lon="7.5740533"><ele>515.0</ele><time>2026-05-03T15:38:37.28Z</time></trkpt><trkpt lat="44.3902267" lon="7.574195"><ele>515.8</ele><time>2026-05-03T15:38:38.28Z</time></trkpt><trkpt lat="44.3902317" lon="7.5743417"><ele>516.6</ele><time>2026-05-03T15:38:39.28Z</time></trkpt><trkpt lat="44.3902533" lon="7.5744733"><ele>517.4</ele><time>2026-05-03T15:38:40.28Z</time></trkpt><trkpt lat="44.3902933" lon="7.5745967"><ele>518.2</ele><time>2026-05-03T15:38:41.28Z</time></trkpt><trkpt lat="44.3903417" lon="7.57468"><ele>519.0</ele><time>2026-05-03T15:38:42.28Z</time></trkpt><trkpt lat="44.39041" lon="7.5747567"><ele>519.0</ele><time>2026-05-03T15:38:43.28Z</time></trkpt><trkpt lat="44.3904733" lon="7.5748117"><ele>519.0</ele><time>2026-05-03T15:38:44.281Z</time></trkpt><trkpt lat="44.3905417" lon="7.5748483"><ele>519.0</ele><time>2026-05-03T15:38:45.28Z</time></trkpt><trkpt lat="44.390615" lon="7.5748617"><ele>519.0</ele><time>2026-05-03T15:38:46.28Z</time></trkpt><trkpt lat="44.3907033" lon="7.5748467"><ele>519.0</ele><time>2026-05-03T15:38:47.28Z</time></trkpt><trkpt lat="44.3908033" lon="7.574835"><ele>519.0</ele><time>2026-05-03T15:38:48.28Z</time></trkpt><trkpt lat="44.3909283" lon="7.574825"><ele>519.0</ele><time>2026-05-03T15:38:49.28Z</time></trkpt><trkpt lat="44.3910583" lon="7.57486"><ele>519.0</ele><time>2026-05-03T15:38:50.28Z</time></trkpt><trkpt lat="44.3911883" lon="7.574935"><ele>519.0</ele><time>2026-05-03T15:38:51.281Z</time></trkpt><trkpt lat="44.3913183" lon="7.5750333"><ele>519.0</ele><time>2026-05-03T15:38:52.28Z</time></trkpt><trkpt lat="44.3914517" lon="7.5751483"><ele>519.3333333333334</ele><time>2026-05-03T15:38:53.28Z</time></trkpt><trkpt lat="44.39158" lon="7.5752633"><ele>519.6666666666667</ele><time>2026-05-03T15:38:54.28Z</time></trkpt><trkpt lat="44.3917133" lon="7.5753883"><ele>520.0</ele><time>2026-05-03T15:38:55.28Z</time></trkpt><trkpt lat="44.3918517" lon="7.57552"><ele>520.0</ele><time>2026-05-03T15:38:56.28Z</time></trkpt><trkpt lat="44.3919933" lon="7.5756633"><ele>520.0</ele><time>2026-05-03T15:38:57.28Z</time></trkpt><trkpt lat="44.3921383" lon="7.57581"><ele>520.0</ele><time>2026-05-03T15:38:58.28Z</time></trkpt><trkpt lat="44.392285" lon="7.5759567"><ele>519.3333333333334</ele><time>2026-05-03T15:38:59.28Z</time></trkpt><trkpt lat="44.3924233" lon="7.5761133"><ele>518.6666666666666</ele><time>2026-05-03T15:39:00.28Z</time></trkpt><trkpt lat="44.3925633" lon="7.5762717"><ele>518.0</ele><time>2026-05-03T15:39:01.28Z</time></trkpt><trkpt lat="44.3927" lon="7.5764333"><ele>518.0</ele><time>2026-05-03T15:39:02.281Z</time></trkpt><trkpt lat="44.3928383" lon="7.5766"><ele>518.0</ele><time>2026-05-03T15:39:03.28Z</time></trkpt><trkpt lat="44.392985" lon="7.5767683"><ele>518.0</ele><time>2026-05-03T15:39:04.28Z</time></trkpt><trkpt lat="44.393125" lon="7.5769333"><ele>517.0</ele><time>2026-05-03T15:39:05.28Z</time></trkpt><trkpt lat="44.39326" lon="7.577095"><ele>516.0</ele><time>2026-05-03T15:39:06.28Z</time></trkpt><trkpt lat="44.3933983" lon="7.5772617"><ele>515.0</ele><time>2026-05-03T15:39:07.28Z</time></trkpt><trkpt lat="44.3935333" lon="7.577425"><ele>515.0</ele><time>2026-05-03T15:39:08.28Z</time></trkpt><trkpt lat="44.3936633" lon="7.5775917"><ele>515.0</ele><time>2026-05-03T15:39:09.28Z</time></trkpt><trkpt lat="44.3937983" lon="7.5777517"><ele>515.0</ele><time>2026-05-03T15:39:10.28Z</time></trkpt><trkpt lat="44.39393" lon="7.5779183"><ele>515.6666666666666</ele><time>2026-05-03T15:39:11.28Z</time></trkpt><trkpt lat="44.394065" lon="7.57809"><ele>516.3333333333334</ele><time>2026-05-03T15:39:12.28Z</time></trkpt><trkpt lat="44.394205" lon="7.5782667"><ele>517.0</ele><time>2026-05-03T15:39:13.28Z</time></trkpt><trkpt lat="44.394345" lon="7.5784417"><ele>517.0</ele><time>2026-05-03T15:39:14.28Z</time></trkpt><trkpt lat="44.3944867" lon="7.5786133"><ele>517.0</ele><time>2026-05-03T15:39:15.28Z</time></trkpt><trkpt lat="44.394635" lon="7.5787717"><ele>517.0</ele><time>2026-05-03T15:39:16.28Z</time></trkpt><trkpt lat="44.3947833" lon="7.5789367"><ele>516.3333333333334</ele><time>2026-05-03T15:39:17.28Z</time></trkpt><trkpt lat="44.3949383" lon="7.5790983"><ele>515.6666666666666</ele><time>2026-05-03T15:39:18.28Z</time></trkpt><trkpt lat="44.39511" lon="7.5792517"><ele>515.0</ele><time>2026-05-03T15:39:19.28Z</time></trkpt><trkpt lat="44.3952867" lon="7.5793933"><ele>514.6666666666666</ele><time>2026-05-03T15:39:20.28Z</time></trkpt><trkpt lat="44.3954533" lon="7.5795483"><ele>514.3333333333334</ele><time>2026-05-03T15:39:21.28Z</time></trkpt><trkpt lat="44.3956117" lon="7.579695"><ele>514.0</ele><time>2026-05-03T15:39:22.28Z</time></trkpt><trkpt lat="44.3957633" lon="7.5798483"><ele>514.0</ele><time>2026-05-03T15:39:23.28Z</time></trkpt><trkpt lat="44.3959167" lon="7.5799933"><ele>514.0</ele><time>2026-05-03T15:39:24.28Z</time></trkpt><trkpt lat="44.39607" lon="7.58013"><ele>514.0</ele><time>2026-05-03T15:39:25.28Z</time></trkpt><trkpt lat="44.396225" lon="7.5802667"><ele>513.3333333333334</ele><time>2026-05-03T15:39:26.28Z</time></trkpt><trkpt lat="44.39637" lon="7.5804"><ele>512.6666666666666</ele><time>2026-05-03T15:39:27.28Z</time></trkpt><trkpt lat="44.3965133" lon="7.5805317"><ele>512.0</ele><time>2026-05-03T15:39:28.28Z</time></trkpt><trkpt lat="44.3966467" lon="7.5806517"><ele>512.0</ele><time>2026-05-03T15:39:29.28Z</time></trkpt><trkpt lat="44.396765" lon="7.5807667"><ele>512.0</ele><time>2026-05-03T15:39:30.28Z</time></trkpt><trkpt lat="44.39688" lon="7.5808733"><ele>512.0</ele><time>2026-05-03T15:39:31.28Z</time></trkpt><trkpt lat="44.396985" lon="7.5809817"><ele>512.0</ele><time>2026-05-03T15:39:32.28Z</time></trkpt><trkpt lat="44.39708" lon="7.5810883"><ele>512.4</ele><time>2026-05-03T15:39:33.28Z</time></trkpt><trkpt lat="44.397165" lon="7.5812"><ele>512.8000000000001</ele><time>2026-05-03T15:39:34.28Z</time></trkpt><trkpt lat="44.397245" lon="7.5813117"><ele>513.2</ele><time>2026-05-03T15:39:35.28Z</time></trkpt><trkpt lat="44.3973083" lon="7.58142"><ele>513.6</ele><time>2026-05-03T15:39:36.28Z</time></trkpt><trkpt lat="44.3973767" lon="7.581525"><ele>514.0</ele><time>2026-05-03T15:39:37.28Z</time></trkpt><trkpt lat="44.3974533" lon="7.5816033"><ele>513.2</ele><time>2026-05-03T15:39:38.28Z</time></trkpt><trkpt lat="44.397545" lon="7.5816517"><ele>512.4</ele><time>2026-05-03T15:39:39.281Z</time></trkpt><trkpt lat="44.3976483" lon="7.5816883"><ele>511.6</ele><time>2026-05-03T15:39:40.28Z</time></trkpt><trkpt lat="44.3977467" lon="7.5817417"><ele>510.8</ele><time>2026-05-03T15:39:41.28Z</time></trkpt><trkpt lat="44.3978567" lon="7.5818117"><ele>510.0</ele><time>2026-05-03T15:39:42.28Z</time></trkpt><trkpt lat="44.3979633" lon="7.5818933"><ele>509.75</ele><time>2026-05-03T15:39:43.281Z</time></trkpt><trkpt lat="44.398075" lon="7.581995"><ele>509.5</ele><time>2026-05-03T15:39:44.28Z</time></trkpt><trkpt lat="44.39819" lon="7.5821033"><ele>509.25</ele><time>2026-05-03T15:39:45.28Z</time></trkpt><trkpt lat="44.3983117" lon="7.58222"><ele>509.0</ele><time>2026-05-03T15:39:46.28Z</time></trkpt><trkpt lat="44.3984467" lon="7.5823333"><ele>509.0</ele><time>2026-05-03T15:39:47.281Z</time></trkpt><trkpt lat="44.3985967" lon="7.582465"><ele>509.0</ele><time>2026-05-03T15:39:48.28Z</time></trkpt><trkpt lat="44.3987483" lon="7.582595"><ele>509.0</ele><time>2026-05-03T15:39:49.28Z</time></trkpt><trkpt lat="44.3988917" lon="7.5827283"><ele>509.3333333333333</ele><time>2026-05-03T15:39:50.28Z</time></trkpt><trkpt lat="44.3990367" lon="7.582875"><ele>509.66666666666663</ele><time>2026-05-03T15:39:51.28Z</time></trkpt><trkpt lat="44.3991783" lon="7.5830117"><ele>510.0</ele><time>2026-05-03T15:39:52.28Z</time></trkpt><trkpt lat="44.3993267" lon="7.583155"><ele>510.0</ele><time>2026-05-03T15:39:53.28Z</time></trkpt><trkpt lat="44.399485" lon="7.5833"><ele>510.0</ele><time>2026-05-03T15:39:54.28Z</time></trkpt><trkpt lat="44.3996483" lon="7.5834483"><ele>510.0</ele><time>2026-05-03T15:39:55.28Z</time></trkpt><trkpt lat="44.39981" lon="7.5836017"><ele>509.66666666666663</ele><time>2026-05-03T15:39:56.28Z</time></trkpt><trkpt lat="44.399975" lon="7.58375"><ele>509.3333333333333</ele><time>2026-05-03T15:39:57.28Z</time></trkpt><trkpt lat="44.4001417" lon="7.5839033"><ele>509.0</ele><time>2026-05-03T15:39:58.28Z</time></trkpt><trkpt lat="44.4003117" lon="7.5840467"><ele>509.0</ele><time>2026-05-03T15:39:59.28Z</time></trkpt><trkpt lat="44.400485" lon="7.5841983"><ele>509.0</ele><time>2026-05-03T15:40:00.28Z</time></trkpt><trkpt lat="44.40065" lon="7.58436"><ele>509.0</ele><time>2026-05-03T15:40:01.281Z</time></trkpt><trkpt lat="44.4008183" lon="7.5845167"><ele>507.66666666666663</ele><time>2026-05-03T15:40:02.28Z</time></trkpt><trkpt lat="44.4009867" lon="7.5846733"><ele>506.33333333333337</ele><time>2026-05-03T15:40:03.28Z</time></trkpt><trkpt lat="44.40116" lon="7.5848183"><ele>505.0</ele><time>2026-05-03T15:40:04.28Z</time></trkpt><trkpt lat="44.4013283" lon="7.5849733"><ele>505.0</ele><time>2026-05-03T15:40:05.281Z</time></trkpt><trkpt lat="44.4014967" lon="7.5851333"><ele>505.0</ele><time>2026-05-03T15:40:06.281Z</time></trkpt><trkpt lat="44.401665" lon="7.5852917"><ele>505.0</ele><time>2026-05-03T15:40:07.28Z</time></trkpt><trkpt lat="44.4018283" lon="7.585445"><ele>505.0</ele><time>2026-05-03T15:40:08.28Z</time></trkpt><trkpt lat="44.4019967" lon="7.5855883"><ele>505.0</ele><time>2026-05-03T15:40:09.28Z</time></trkpt><trkpt lat="44.40217" lon="7.585735"><ele>505.0</ele><time>2026-05-03T15:40:10.28Z</time></trkpt><trkpt lat="44.4023417" lon="7.585885"><ele>504.33333333333337</ele><time>2026-05-03T15:40:11.281Z</time></trkpt><trkpt lat="44.40251" lon="7.5860317"><ele>503.66666666666663</ele><time>2026-05-03T15:40:12.28Z</time></trkpt><trkpt lat="44.40268" lon="7.5861867"><ele>503.0</ele><time>2026-05-03T15:40:13.28Z</time></trkpt><trkpt lat="44.40285" lon="7.5863383"><ele>502.0</ele><time>2026-05-03T15:40:14.28Z</time></trkpt><trkpt lat="44.40302" lon="7.5864917"><ele>501.0</ele><time>2026-05-03T15:40:15.28Z</time></trkpt><trkpt lat="44.4031833" lon="7.5866483"><ele>500.0</ele><time>2026-05-03T15:40:16.28Z</time></trkpt><trkpt lat="44.4033517" lon="7.586795"><ele>500.0</ele><time>2026-05-03T15:40:17.28Z</time></trkpt><trkpt lat="44.4035217" lon="7.5869417"><ele>500.0</ele><time>2026-05-03T15:40:18.281Z</time></trkpt><trkpt lat="44.4036883" lon="7.5870883"><ele>500.0</ele><time>2026-05-03T15:40:19.28Z</time></trkpt><trkpt lat="44.4038567" lon="7.5872333"><ele>500.0</ele><time>2026-05-03T15:40:20.281Z</time></trkpt><trkpt lat="44.4040233" lon="7.587385"><ele>500.0</ele><time>2026-05-03T15:40:21.28Z</time></trkpt><trkpt lat="44.4041883" lon="7.58754"><ele>500.0</ele><time>2026-05-03T15:40:22.28Z</time></trkpt><trkpt lat="44.4043583" lon="7.5876883"><ele>500.0</ele><time>2026-05-03T15:40:23.28Z</time></trkpt><trkpt lat="44.404525" lon="7.5878383"><ele>500.0</ele><time>2026-05-03T15:40:24.28Z</time></trkpt><trkpt lat="44.404685" lon="7.5879833"><ele>500.0</ele><time>2026-05-03T15:40:25.28Z</time></trkpt><trkpt lat="44.40484" lon="7.588125"><ele>499.66666666666663</ele><time>2026-05-03T15:40:26.281Z</time></trkpt><trkpt lat="44.4049967" lon="7.5882633"><ele>499.33333333333337</ele><time>2026-05-03T15:40:27.28Z</time></trkpt><trkpt lat="44.4051483" lon="7.5883967"><ele>499.0</ele><time>2026-05-03T15:40:28.28Z</time></trkpt><trkpt lat="44.405305" lon="7.5885333"><ele>499.33333333333337</ele><time>2026-05-03T15:40:29.28Z</time></trkpt><trkpt lat="44.40546" lon="7.5886833"><ele>499.66666666666663</ele><time>2026-05-03T15:40:30.28Z</time></trkpt><trkpt lat="44.4056133" lon="7.588825"><ele>500.0</ele><time>2026-05-03T15:40:31.281Z</time></trkpt><trkpt lat="44.4057717" lon="7.5889683"><ele>500.0</ele><time>2026-05-03T15:40:32.28Z</time></trkpt><trkpt lat="44.4059283" lon="7.589105"><ele>500.0</ele><time>2026-05-03T15:40:33.28Z</time></trkpt><trkpt lat="44.4060917" lon="7.589255"><ele>500.0</ele><time>2026-05-03T15:40:34.28Z</time></trkpt><trkpt lat="44.40625" lon="7.58941"><ele>499.0</ele><time>2026-05-03T15:40:35.28Z</time></trkpt><trkpt lat="44.4064117" lon="7.5895717"><ele>498.0</ele><time>2026-05-03T15:40:36.28Z</time></trkpt><trkpt lat="44.4065767" lon="7.589735"><ele>497.0</ele><time>2026-05-03T15:40:37.28Z</time></trkpt><trkpt lat="44.40674" lon="7.5899067"><ele>497.0</ele><time>2026-05-03T15:40:38.28Z</time></trkpt><trkpt lat="44.4069067" lon="7.59007"><ele>497.0</ele><time>2026-05-03T15:40:39.28Z</time></trkpt><trkpt lat="44.4070683" lon="7.5902333"><ele>497.0</ele><time>2026-05-03T15:40:40.28Z</time></trkpt><trkpt lat="44.4072333" lon="7.590385"><ele>497.0</ele><time>2026-05-03T15:40:41.28Z</time></trkpt><trkpt lat="44.4073917" lon="7.5905467"><ele>497.0</ele><time>2026-05-03T15:40:42.28Z</time></trkpt><trkpt lat="44.4075467" lon="7.590705"><ele>497.0</ele><time>2026-05-03T15:40:43.28Z</time></trkpt><trkpt lat="44.4077067" lon="7.5908633"><ele>497.0</ele><time>2026-05-03T15:40:44.28Z</time></trkpt><trkpt lat="44.4078683" lon="7.5910217"><ele>497.0</ele><time>2026-05-03T15:40:45.28Z</time></trkpt><trkpt lat="44.4080283" lon="7.5911867"><ele>497.0</ele><time>2026-05-03T15:40:46.28Z</time></trkpt><trkpt lat="44.4081883" lon="7.5913433"><ele>497.3333333333333</ele><time>2026-05-03T15:40:47.28Z</time></trkpt><trkpt lat="44.4083483" lon="7.591505"><ele>497.66666666666663</ele><time>2026-05-03T15:40:48.28Z</time></trkpt><trkpt lat="44.4085067" lon="7.5916583"><ele>498.0</ele><time>2026-05-03T15:40:49.28Z</time></trkpt><trkpt lat="44.40866" lon="7.5918183"><ele>498.0</ele><time>2026-05-03T15:40:50.28Z</time></trkpt><trkpt lat="44.4088117" lon="7.591975"><ele>498.0</ele><time>2026-05-03T15:40:51.28Z</time></trkpt><trkpt lat="44.4089583" lon="7.5921283"><ele>498.0</ele><time>2026-05-03T15:40:52.28Z</time></trkpt><trkpt lat="44.4091117" lon="7.59228"><ele>497.0</ele><time>2026-05-03T15:40:53.28Z</time></trkpt><trkpt lat="44.40926" lon="7.592435"><ele>496.0</ele><time>2026-05-03T15:40:54.28Z</time></trkpt><trkpt lat="44.40941" lon="7.59259"><ele>495.0</ele><time>2026-05-03T15:40:55.28Z</time></trkpt><trkpt lat="44.4095633" lon="7.5927383"><ele>494.66666666666663</ele><time>2026-05-03T15:40:56.28Z</time></trkpt><trkpt lat="44.4097117" lon="7.5928833"><ele>494.3333333333333</ele><time>2026-05-03T15:40:57.28Z</time></trkpt><trkpt lat="44.4098617" lon="7.5930267"><ele>494.0</ele><time>2026-05-03T15:40:58.28Z</time></trkpt><trkpt lat="44.4100167" lon="7.5931717"><ele>494.0</ele><time>2026-05-03T15:40:59.281Z</time></trkpt><trkpt lat="44.4101717" lon="7.5933117"><ele>494.0</ele><time>2026-05-03T15:41:00.28Z</time></trkpt><trkpt lat="44.4103317" lon="7.5934517"><ele>494.0</ele><time>2026-05-03T15:41:01.28Z</time></trkpt><trkpt lat="44.4104967" lon="7.5935883"><ele>493.3333333333333</ele><time>2026-05-03T15:41:02.28Z</time></trkpt><trkpt lat="44.410665" lon="7.5937167"><ele>492.66666666666663</ele><time>2026-05-03T15:41:03.281Z</time></trkpt><trkpt lat="44.410835" lon="7.59384"><ele>492.0</ele><time>2026-05-03T15:41:04.28Z</time></trkpt><trkpt lat="44.4109983" lon="7.59397"><ele>492.0</ele><time>2026-05-03T15:41:05.281Z</time></trkpt><trkpt lat="44.4111617" lon="7.5941"><ele>492.0</ele><time>2026-05-03T15:41:06.28Z</time></trkpt><trkpt lat="44.4113233" lon="7.59423"><ele>492.0</ele><time>2026-05-03T15:41:07.28Z</time></trkpt><trkpt lat="44.411485" lon="7.5943517"><ele>492.0</ele><time>2026-05-03T15:41:08.28Z</time></trkpt><trkpt lat="44.4116433" lon="7.5944733"><ele>492.0</ele><time>2026-05-03T15:41:09.28Z</time></trkpt><trkpt lat="44.4117983" lon="7.59459"><ele>492.0</ele><time>2026-05-03T15:41:10.28Z</time></trkpt><trkpt lat="44.41195" lon="7.5947133"><ele>491.66666666666663</ele><time>2026-05-03T15:41:11.281Z</time></trkpt><trkpt lat="44.4121033" lon="7.59482"><ele>491.3333333333333</ele><time>2026-05-03T15:41:12.28Z</time></trkpt><trkpt lat="44.4122533" lon="7.594935"><ele>491.0</ele><time>2026-05-03T15:41:13.28Z</time></trkpt><trkpt lat="44.4124017" lon="7.5950533"><ele>491.0</ele><time>2026-05-03T15:41:14.28Z</time></trkpt><trkpt lat="44.4125483" lon="7.5951617"><ele>491.0</ele><time>2026-05-03T15:41:15.28Z</time></trkpt><trkpt lat="44.4126883" lon="7.5952567"><ele>491.0</ele><time>2026-05-03T15:41:16.28Z</time></trkpt><trkpt lat="44.4128267" lon="7.59536"><ele>490.3333333333333</ele><time>2026-05-03T15:41:17.28Z</time></trkpt><trkpt lat="44.412965" lon="7.5954667"><ele>489.66666666666663</ele><time>2026-05-03T15:41:18.281Z</time></trkpt><trkpt lat="44.4131017" lon="7.5955783"><ele>489.0</ele><time>2026-05-03T15:41:19.281Z</time></trkpt><trkpt lat="44.41324" lon="7.5956767"><ele>489.0</ele><time>2026-05-03T15:41:20.28Z</time></trkpt><trkpt lat="44.4133783" lon="7.5957833"><ele>489.0</ele><time>2026-05-03T15:41:21.28Z</time></trkpt><trkpt lat="44.4135167" lon="7.5958883"><ele>489.0</ele><time>2026-05-03T15:41:22.28Z</time></trkpt><trkpt lat="44.4136533" lon="7.5959933"><ele>489.0</ele><time>2026-05-03T15:41:23.28Z</time></trkpt><trkpt lat="44.4137917" lon="7.5960917"><ele>489.0</ele><time>2026-05-03T15:41:24.28Z</time></trkpt><trkpt lat="44.4139217" lon="7.5961933"><ele>489.0</ele><time>2026-05-03T15:41:25.281Z</time></trkpt><trkpt lat="44.4140517" lon="7.596285"><ele>488.75</ele><time>2026-05-03T15:41:26.28Z</time></trkpt><trkpt lat="44.41417" lon="7.5963733"><ele>488.5</ele><time>2026-05-03T15:41:27.28Z</time></trkpt><trkpt lat="44.4142783" lon="7.5964583"><ele>488.25</ele><time>2026-05-03T15:41:28.28Z</time></trkpt><trkpt lat="44.4143933" lon="7.5965367"><ele>488.0</ele><time>2026-05-03T15:41:29.28Z</time></trkpt><trkpt lat="44.4145" lon="7.596615"><ele>488.0</ele><time>2026-05-03T15:41:30.28Z</time></trkpt><trkpt lat="44.4145983" lon="7.5967"><ele>487.99999999999994</ele><time>2026-05-03T15:41:31.28Z</time></trkpt><trkpt lat="44.4146883" lon="7.5967733"><ele>487.99999999999994</ele><time>2026-05-03T15:41:32.281Z</time></trkpt><trkpt lat="44.414775" lon="7.5968533"><ele>488.0</ele><time>2026-05-03T15:41:33.28Z</time></trkpt><trkpt lat="44.414845" lon="7.5969367"><ele>488.0</ele><time>2026-05-03T15:41:34.28Z</time></trkpt><trkpt lat="44.4149083" lon="7.5970317"><ele>487.66666666666663</ele><time>2026-05-03T15:41:35.28Z</time></trkpt><trkpt lat="44.4149583" lon="7.597135"><ele>487.3333333333333</ele><time>2026-05-03T15:41:36.28Z</time></trkpt><trkpt lat="44.4150033" lon="7.5972367"><ele>487.0</ele><time>2026-05-03T15:41:37.28Z</time></trkpt><trkpt lat="44.4150517" lon="7.5973217"><ele>486.66666666666663</ele><time>2026-05-03T15:41:38.28Z</time></trkpt><trkpt lat="44.4151117" lon="7.59739"><ele>486.3333333333333</ele><time>2026-05-03T15:41:39.28Z</time></trkpt><trkpt lat="44.4152267" lon="7.5974117"><ele>486.0</ele><time>2026-05-03T15:41:41.281Z</time></trkpt><trkpt lat="44.4153333" lon="7.5973517"><ele>486.0</ele><time>2026-05-03T15:41:43.28Z</time></trkpt><trkpt lat="44.4153883" lon="7.59723"><ele>486.0</ele><time>2026-05-03T15:41:45.28Z</time></trkpt><trkpt lat="44.415415" lon="7.5970917"><ele>486.0</ele><time>2026-05-03T15:41:47.28Z</time></trkpt><trkpt lat="44.4154883" lon="7.5969333"><ele>486.0</ele><time>2026-05-03T15:41:49.28Z</time></trkpt><trkpt lat="44.41556" lon="7.5968417"><ele>486.0</ele><time>2026-05-03T15:41:50.28Z</time></trkpt><trkpt lat="44.4156433" lon="7.596755"><ele>485.25</ele><time>2026-05-03T15:41:51.28Z</time></trkpt><trkpt lat="44.4157433" lon="7.59667"><ele>484.5</ele><time>2026-05-03T15:41:52.28Z</time></trkpt><trkpt lat="44.4158433" lon="7.5965717"><ele>483.75</ele><time>2026-05-03T15:41:53.28Z</time></trkpt><trkpt lat="44.4159483" lon="7.5964667"><ele>483.0</ele><time>2026-05-03T15:41:54.28Z</time></trkpt><trkpt lat="44.416055" lon="7.5963667"><ele>483.0</ele><time>2026-05-03T15:41:55.28Z</time></trkpt><trkpt lat="44.416165" lon="7.596255"><ele>483.0</ele><time>2026-05-03T15:41:56.28Z</time></trkpt><trkpt lat="44.4162867" lon="7.5961483"><ele>483.0</ele><time>2026-05-03T15:41:57.28Z</time></trkpt><trkpt lat="44.4164133" lon="7.596045"><ele>483.0</ele><time>2026-05-03T15:41:58.28Z</time></trkpt><trkpt lat="44.4165533" lon="7.5959483"><ele>482.66666666666663</ele><time>2026-05-03T15:41:59.28Z</time></trkpt><trkpt lat="44.4167033" lon="7.5958483"><ele>482.3333333333333</ele><time>2026-05-03T15:42:00.28Z</time></trkpt><trkpt lat="44.4168583" lon="7.5957533"><ele>482.0</ele><time>2026-05-03T15:42:01.28Z</time></trkpt><trkpt lat="44.4170183" lon="7.595665"><ele>482.0</ele><time>2026-05-03T15:42:02.28Z</time></trkpt><trkpt lat="44.4171783" lon="7.5955867"><ele>482.0</ele><time>2026-05-03T15:42:03.28Z</time></trkpt><trkpt lat="44.4173433" lon="7.5955117"><ele>482.0</ele><time>2026-05-03T15:42:04.28Z</time></trkpt><trkpt lat="44.4175" lon="7.5954283"><ele>482.0</ele><time>2026-05-03T15:42:05.281Z</time></trkpt><trkpt lat="44.417655" lon="7.59535"><ele>482.0</ele><time>2026-05-03T15:42:06.28Z</time></trkpt><trkpt lat="44.4178083" lon="7.5952617"><ele>482.0</ele><time>2026-05-03T15:42:07.28Z</time></trkpt><trkpt lat="44.41796" lon="7.5951617"><ele>482.0</ele><time>2026-05-03T15:42:08.28Z</time></trkpt><trkpt lat="44.4181133" lon="7.5950567"><ele>482.0</ele><time>2026-05-03T15:42:09.28Z</time></trkpt><trkpt lat="44.418255" lon="7.594945"><ele>482.0</ele><time>2026-05-03T15:42:10.28Z</time></trkpt><trkpt lat="44.418385" lon="7.59482"><ele>482.0</ele><time>2026-05-03T15:42:11.28Z</time></trkpt><trkpt lat="44.4185117" lon="7.5946867"><ele>482.0</ele><time>2026-05-03T15:42:12.28Z</time></trkpt><trkpt lat="44.4186283" lon="7.5945383"><ele>482.0</ele><time>2026-05-03T15:42:13.28Z</time></trkpt><trkpt lat="44.4187367" lon="7.5943783"><ele>481.66666666666663</ele><time>2026-05-03T15:42:14.28Z</time></trkpt><trkpt lat="44.4188517" lon="7.594215"><ele>481.33333333333337</ele><time>2026-05-03T15:42:15.28Z</time></trkpt><trkpt lat="44.4189617" lon="7.5940483"><ele>481.0</ele><time>2026-05-03T15:42:16.28Z</time></trkpt><trkpt lat="44.4190717" lon="7.593875"><ele>481.0</ele><time>2026-05-03T15:42:17.28Z</time></trkpt><trkpt lat="44.4191867" lon="7.5936933"><ele>481.0</ele><time>2026-05-03T15:42:18.28Z</time></trkpt><trkpt lat="44.4193017" lon="7.5935117"><ele>481.0</ele><time>2026-05-03T15:42:19.28Z</time></trkpt><trkpt lat="44.4194167" lon="7.5933367"><ele>480.33333333333337</ele><time>2026-05-03T15:42:20.28Z</time></trkpt><trkpt lat="44.4195367" lon="7.5931733"><ele>479.66666666666663</ele><time>2026-05-03T15:42:21.28Z</time></trkpt><trkpt lat="44.41967" lon="7.5930117"><ele>479.0</ele><time>2026-05-03T15:42:22.28Z</time></trkpt><trkpt lat="44.4198167" lon="7.5928567"><ele>477.3333333333333</ele><time>2026-05-03T15:42:23.28Z</time></trkpt><trkpt lat="44.4199733" lon="7.5927"><ele>475.66666666666663</ele><time>2026-05-03T15:42:24.28Z</time></trkpt><trkpt lat="44.4201333" lon="7.5925483"><ele>474.0</ele><time>2026-05-03T15:42:25.28Z</time></trkpt><trkpt lat="44.4203033" lon="7.5923933"><ele>474.0</ele><time>2026-05-03T15:42:26.281Z</time></trkpt><trkpt lat="44.4204717" lon="7.5922483"><ele>474.0</ele><time>2026-05-03T15:42:27.28Z</time></trkpt><trkpt lat="44.4206467" lon="7.592075"><ele>474.0</ele><time>2026-05-03T15:42:28.28Z</time></trkpt><trkpt lat="44.42082" lon="7.5919083"><ele>473.33333333333337</ele><time>2026-05-03T15:42:29.28Z</time></trkpt><trkpt lat="44.420995" lon="7.5917433"><ele>472.6666666666667</ele><time>2026-05-03T15:42:30.28Z</time></trkpt><trkpt lat="44.4211717" lon="7.59158"><ele>472.0</ele><time>2026-05-03T15:42:31.28Z</time></trkpt><trkpt lat="44.4213467" lon="7.5914167"><ele>467.6666666666667</ele><time>2026-05-03T15:42:32.28Z</time></trkpt><trkpt lat="44.4215183" lon="7.5912583"><ele>463.33333333333337</ele><time>2026-05-03T15:42:33.281Z</time></trkpt><trkpt lat="44.42169" lon="7.5911033"><ele>459.0</ele><time>2026-05-03T15:42:34.28Z</time></trkpt><trkpt lat="44.4218533" lon="7.5909483"><ele>456.0</ele><time>2026-05-03T15:42:35.28Z</time></trkpt><trkpt lat="44.4220083" lon="7.590805"><ele>453.0</ele><time>2026-05-03T15:42:36.28Z</time></trkpt><trkpt lat="44.4221633" lon="7.5906733"><ele>450.0</ele><time>2026-05-03T15:42:37.28Z</time></trkpt><trkpt lat="44.422335" lon="7.5905717"><ele>449.0</ele><time>2026-05-03T15:42:38.28Z</time></trkpt><trkpt lat="44.422505" lon="7.5904917"><ele>448.0</ele><time>2026-05-03T15:42:39.28Z</time></trkpt><trkpt lat="44.4226717" lon="7.5904283"><ele>447.0</ele><time>2026-05-03T15:42:40.28Z</time></trkpt><trkpt lat="44.4228433" lon="7.5903933"><ele>447.33333333333337</ele><time>2026-05-03T15:42:41.28Z</time></trkpt><trkpt lat="44.42301" lon="7.5903933"><ele>447.6666666666667</ele><time>2026-05-03T15:42:42.28Z</time></trkpt><trkpt lat="44.4231817" lon="7.5904167"><ele>448.0</ele><time>2026-05-03T15:42:43.28Z</time></trkpt><trkpt lat="44.423355" lon="7.5904667"><ele>448.0</ele><time>2026-05-03T15:42:44.28Z</time></trkpt><trkpt lat="44.4235283" lon="7.5905467"><ele>448.0</ele><time>2026-05-03T15:42:45.28Z</time></trkpt><trkpt lat="44.4236917" lon="7.59064"><ele>448.0</ele><time>2026-05-03T15:42:46.28Z</time></trkpt><trkpt lat="44.4238417" lon="7.5907617"><ele>447.33333333333337</ele><time>2026-05-03T15:42:47.28Z</time></trkpt><trkpt lat="44.4239817" lon="7.5909083"><ele>446.66666666666663</ele><time>2026-05-03T15:42:48.281Z</time></trkpt><trkpt lat="44.4241167" lon="7.59106"><ele>446.0</ele><time>2026-05-03T15:42:49.28Z</time></trkpt><trkpt lat="44.424245" lon="7.5912183"><ele>446.0</ele><time>2026-05-03T15:42:50.28Z</time></trkpt><trkpt lat="44.4243717" lon="7.5913917"><ele>446.0</ele><time>2026-05-03T15:42:51.28Z</time></trkpt><trkpt lat="44.4244883" lon="7.5915717"><ele>446.0</ele><time>2026-05-03T15:42:52.281Z</time></trkpt><trkpt lat="44.4246" lon="7.5917567"><ele>445.3333333333333</ele><time>2026-05-03T15:42:53.28Z</time></trkpt><trkpt lat="44.4247017" lon="7.5919533"><ele>444.66666666666663</ele><time>2026-05-03T15:42:54.28Z</time></trkpt><trkpt lat="44.4247933" lon="7.5921467"><ele>444.0</ele><time>2026-05-03T15:42:55.28Z</time></trkpt><trkpt lat="44.424875" lon="7.5923367"><ele>443.66666666666663</ele><time>2026-05-03T15:42:56.28Z</time></trkpt><trkpt lat="44.42495" lon="7.5925283"><ele>443.3333333333333</ele><time>2026-05-03T15:42:57.28Z</time></trkpt><trkpt lat="44.4250317" lon="7.5927183"><ele>443.0</ele><time>2026-05-03T15:42:58.28Z</time></trkpt><trkpt lat="44.425115" lon="7.5929283"><ele>443.0</ele><time>2026-05-03T15:42:59.281Z</time></trkpt><trkpt lat="44.4252017" lon="7.5931633"><ele>443.0</ele><time>2026-05-03T15:43:00.28Z</time></trkpt><trkpt lat="44.4252933" lon="7.5934167"><ele>443.0</ele><time>2026-05-03T15:43:01.28Z</time></trkpt><trkpt lat="44.42539" lon="7.5936817"><ele>442.5</ele><time>2026-05-03T15:43:02.28Z</time></trkpt><trkpt lat="44.425495" lon="7.593965"><ele>442.0</ele><time>2026-05-03T15:43:03.28Z</time></trkpt><trkpt lat="44.425595" lon="7.5942567"><ele>440.5</ele><time>2026-05-03T15:43:04.28Z</time></trkpt><trkpt lat="44.4256933" lon="7.5945533"><ele>439.0</ele><time>2026-05-03T15:43:05.28Z</time></trkpt><trkpt lat="44.4257917" lon="7.5948517"><ele>439.0</ele><time>2026-05-03T15:43:06.28Z</time></trkpt><trkpt lat="44.425885" lon="7.59516"><ele>439.0</ele><time>2026-05-03T15:43:07.28Z</time></trkpt><trkpt lat="44.4259783" lon="7.5954583"><ele>438.5</ele><time>2026-05-03T15:43:08.281Z</time></trkpt><trkpt lat="44.4260717" lon="7.595755"><ele>438.0</ele><time>2026-05-03T15:43:09.281Z</time></trkpt><trkpt lat="44.42617" lon="7.596055"><ele>437.5</ele><time>2026-05-03T15:43:10.28Z</time></trkpt><trkpt lat="44.4262617" lon="7.5963567"><ele>437.0</ele><time>2026-05-03T15:43:11.281Z</time></trkpt><trkpt lat="44.42635" lon="7.5966717"><ele>436.0</ele><time>2026-05-03T15:43:12.281Z</time></trkpt><trkpt lat="44.426435" lon="7.5969817"><ele>435.0</ele><time>2026-05-03T15:43:13.28Z</time></trkpt><trkpt lat="44.42653" lon="7.5972933"><ele>435.0</ele><time>2026-05-03T15:43:14.28Z</time></trkpt><trkpt lat="44.426625" lon="7.59761"><ele>435.0</ele><time>2026-05-03T15:43:15.28Z</time></trkpt><trkpt lat="44.4267183" lon="7.5979267"><ele>435.0</ele><time>2026-05-03T15:43:16.28Z</time></trkpt><trkpt lat="44.4268183" lon="7.5982367"><ele>435.0</ele><time>2026-05-03T15:43:17.28Z</time></trkpt><trkpt lat="44.4269167" lon="7.5985483"><ele>435.0</ele><time>2026-05-03T15:43:18.28Z</time></trkpt><trkpt lat="44.427015" lon="7.5988667"><ele>435.0</ele><time>2026-05-03T15:43:19.28Z</time></trkpt><trkpt lat="44.42712" lon="7.5991767"><ele>434.5</ele><time>2026-05-03T15:43:20.28Z</time></trkpt><trkpt lat="44.42722" lon="7.5994883"><ele>434.0</ele><time>2026-05-03T15:43:21.281Z</time></trkpt><trkpt lat="44.42732" lon="7.5997983"><ele>434.0</ele><time>2026-05-03T15:43:22.281Z</time></trkpt><trkpt lat="44.4274233" lon="7.6001183"><ele>434.0</ele><time>2026-05-03T15:43:23.28Z</time></trkpt><trkpt lat="44.4275233" lon="7.600435"><ele>433.5</ele><time>2026-05-03T15:43:24.28Z</time></trkpt><trkpt lat="44.42763" lon="7.6007383"><ele>433.0</ele><time>2026-05-03T15:43:25.28Z</time></trkpt><trkpt lat="44.4277367" lon="7.6010517"><ele>433.5</ele><time>2026-05-03T15:43:26.28Z</time></trkpt><trkpt lat="44.4278467" lon="7.601365"><ele>434.0</ele><time>2026-05-03T15:43:27.281Z</time></trkpt><trkpt lat="44.427955" lon="7.6016833"><ele>433.0</ele><time>2026-05-03T15:43:28.28Z</time></trkpt><trkpt lat="44.4280583" lon="7.601995"><ele>432.0</ele><time>2026-05-03T15:43:29.28Z</time></trkpt><trkpt lat="44.428165" lon="7.60231"><ele>432.0</ele><time>2026-05-03T15:43:30.28Z</time></trkpt><trkpt lat="44.4282733" lon="7.602625"><ele>432.0</ele><time>2026-05-03T15:43:31.28Z</time></trkpt><trkpt lat="44.4283817" lon="7.6029283"><ele>432.5</ele><time>2026-05-03T15:43:32.28Z</time></trkpt><trkpt lat="44.4284967" lon="7.6032317"><ele>433.0</ele><time>2026-05-03T15:43:33.28Z</time></trkpt><trkpt lat="44.4286067" lon="7.6035367"><ele>433.0</ele><time>2026-05-03T15:43:34.28Z</time></trkpt><trkpt lat="44.428715" lon="7.603845"><ele>433.0</ele><time>2026-05-03T15:43:35.28Z</time></trkpt><trkpt lat="44.4288317" lon="7.604145"><ele>431.0</ele><time>2026-05-03T15:43:36.28Z</time></trkpt><trkpt lat="44.428955" lon="7.6044433"><ele>429.0</ele><time>2026-05-03T15:43:37.28Z</time></trkpt><trkpt lat="44.42908" lon="7.6047417"><ele>429.0</ele><time>2026-05-03T15:43:38.28Z</time></trkpt><trkpt lat="44.4291983" lon="7.6050333"><ele>429.0</ele><time>2026-05-03T15:43:39.28Z</time></trkpt><trkpt lat="44.4293117" lon="7.6053267"><ele>430.0</ele><time>2026-05-03T15:43:40.28Z</time></trkpt><trkpt lat="44.4294267" lon="7.6056083"><ele>431.0</ele><time>2026-05-03T15:43:41.28Z</time></trkpt><trkpt lat="44.429545" lon="7.6058867"><ele>430.5</ele><time>2026-05-03T15:43:42.281Z</time></trkpt><trkpt lat="44.4296583" lon="7.6061583"><ele>430.0</ele><time>2026-05-03T15:43:43.281Z</time></trkpt><trkpt lat="44.42978" lon="7.6064317"><ele>430.0</ele><time>2026-05-03T15:43:44.28Z</time></trkpt><trkpt lat="44.4298917" lon="7.6066933"><ele>430.0</ele><time>2026-05-03T15:43:45.28Z</time></trkpt><trkpt lat="44.43" lon="7.6069567"><ele>430.0</ele><time>2026-05-03T15:43:46.28Z</time></trkpt><trkpt lat="44.4301033" lon="7.6072167"><ele>430.33333333333337</ele><time>2026-05-03T15:43:47.28Z</time></trkpt><trkpt lat="44.4301967" lon="7.6074667"><ele>430.66666666666663</ele><time>2026-05-03T15:43:48.28Z</time></trkpt><trkpt lat="44.4302933" lon="7.6076967"><ele>431.0</ele><time>2026-05-03T15:43:49.28Z</time></trkpt><trkpt lat="44.43039" lon="7.6079167"><ele>430.0</ele><time>2026-05-03T15:43:50.28Z</time></trkpt><trkpt lat="44.430475" lon="7.6081267"><ele>429.0</ele><time>2026-05-03T15:43:51.28Z</time></trkpt><trkpt lat="44.43056" lon="7.60833"><ele>428.0</ele><time>2026-05-03T15:43:52.28Z</time></trkpt><trkpt lat="44.43064" lon="7.6085067"><ele>428.4</ele><time>2026-05-03T15:43:53.28Z</time></trkpt><trkpt lat="44.4307167" lon="7.6086667"><ele>428.79999999999995</ele><time>2026-05-03T15:43:54.28Z</time></trkpt><trkpt lat="44.4307767" lon="7.6087983"><ele>429.2</ele><time>2026-05-03T15:43:55.28Z</time></trkpt><trkpt lat="44.4308333" lon="7.6089083"><ele>429.6</ele><time>2026-05-03T15:43:56.28Z</time></trkpt><trkpt lat="44.4308767" lon="7.6090033"><ele>430.0</ele><time>2026-05-03T15:43:57.28Z</time></trkpt><trkpt lat="44.430915" lon="7.6090733"><ele>430.0</ele><time>2026-05-03T15:43:58.28Z</time></trkpt><trkpt lat="44.430955" lon="7.60916"><ele>430.0</ele><time>2026-05-03T15:44:00.281Z</time></trkpt><trkpt lat="44.4310117" lon="7.609335"><ele>430.0</ele><time>2026-05-03T15:44:21.28Z</time></trkpt><trkpt lat="44.4310733" lon="7.6094767"><ele>430.0</ele><time>2026-05-03T15:44:23.28Z</time></trkpt><trkpt lat="44.43112" lon="7.6095617"><ele>430.0</ele><time>2026-05-03T15:44:24.28Z</time></trkpt><trkpt lat="44.4311767" lon="7.6096617"><ele>430.4</ele><time>2026-05-03T15:44:25.281Z</time></trkpt><trkpt lat="44.431235" lon="7.6097633"><ele>430.8</ele><time>2026-05-03T15:44:26.28Z</time></trkpt><trkpt lat="44.4312967" lon="7.6098683"><ele>431.20000000000005</ele><time>2026-05-03T15:44:27.28Z</time></trkpt><trkpt lat="44.431365" lon="7.6099783"><ele>431.6</ele><time>2026-05-03T15:44:28.28Z</time></trkpt><trkpt lat="44.4314383" lon="7.6101133"><ele>432.0</ele><time>2026-05-03T15:44:29.28Z</time></trkpt><trkpt lat="44.4315133" lon="7.6102583"><ele>430.75</ele><time>2026-05-03T15:44:30.28Z</time></trkpt><trkpt lat="44.4315917" lon="7.610415"><ele>429.5</ele><time>2026-05-03T15:44:31.28Z</time></trkpt><trkpt lat="44.4316817" lon="7.6105767"><ele>428.25</ele><time>2026-05-03T15:44:32.281Z</time></trkpt><trkpt lat="44.4317717" lon="7.61076"><ele>427.0</ele><time>2026-05-03T15:44:33.28Z</time></trkpt><trkpt lat="44.4318633" lon="7.61094"><ele>427.0</ele><time>2026-05-03T15:44:34.281Z</time></trkpt><trkpt lat="44.4319583" lon="7.6111367"><ele>427.0</ele><time>2026-05-03T15:44:35.28Z</time></trkpt><trkpt lat="44.43206" lon="7.6113267"><ele>427.0</ele><time>2026-05-03T15:44:36.28Z</time></trkpt><trkpt lat="44.4321717" lon="7.6115283"><ele>426.6666666666667</ele><time>2026-05-03T15:44:37.281Z</time></trkpt><trkpt lat="44.4322917" lon="7.6117433"><ele>426.33333333333337</ele><time>2026-05-03T15:44:38.28Z</time></trkpt><trkpt lat="44.4324067" lon="7.6119567"><ele>426.0</ele><time>2026-05-03T15:44:39.28Z</time></trkpt><trkpt lat="44.4325317" lon="7.6121767"><ele>425.66666666666663</ele><time>2026-05-03T15:44:40.28Z</time></trkpt><trkpt lat="44.43266" lon="7.612405"><ele>425.3333333333333</ele><time>2026-05-03T15:44:41.28Z</time></trkpt><trkpt lat="44.4327817" lon="7.6126383"><ele>425.0</ele><time>2026-05-03T15:44:42.281Z</time></trkpt><trkpt lat="44.432915" lon="7.61289"><ele>424.3333333333333</ele><time>2026-05-03T15:44:43.28Z</time></trkpt><trkpt lat="44.4330467" lon="7.6131367"><ele>423.66666666666663</ele><time>2026-05-03T15:44:44.28Z</time></trkpt><trkpt lat="44.4331767" lon="7.6133833"><ele>423.0</ele><time>2026-05-03T15:44:45.28Z</time></trkpt><trkpt lat="44.4333083" lon="7.613635"><ele>423.5</ele><time>2026-05-03T15:44:46.28Z</time></trkpt><trkpt lat="44.4334433" lon="7.613885"><ele>424.0</ele><time>2026-05-03T15:44:47.28Z</time></trkpt><trkpt lat="44.43358" lon="7.6141483"><ele>424.0</ele><time>2026-05-03T15:44:48.28Z</time></trkpt><trkpt lat="44.43372" lon="7.614405"><ele>424.0</ele><time>2026-05-03T15:44:49.28Z</time></trkpt><trkpt lat="44.4338617" lon="7.6146583"><ele>425.5</ele><time>2026-05-03T15:44:50.281Z</time></trkpt><trkpt lat="44.434005" lon="7.6149167"><ele>427.0</ele><time>2026-05-03T15:44:51.28Z</time></trkpt><trkpt lat="44.4341467" lon="7.6151833"><ele>428.0</ele><time>2026-05-03T15:44:52.28Z</time></trkpt><trkpt lat="44.4342883" lon="7.615455"><ele>429.0</ele><time>2026-05-03T15:44:53.28Z</time></trkpt><trkpt lat="44.4344333" lon="7.615725"><ele>429.0</ele><time>2026-05-03T15:44:54.28Z</time></trkpt><trkpt lat="44.4345783" lon="7.6159933"><ele>429.0</ele><time>2026-05-03T15:44:55.28Z</time></trkpt><trkpt lat="44.4347217" lon="7.6162617"><ele>427.5</ele><time>2026-05-03T15:44:56.28Z</time></trkpt><trkpt lat="44.43487" lon="7.6165417"><ele>426.0</ele><time>2026-05-03T15:44:57.28Z</time></trkpt><trkpt lat="44.4350233" lon="7.61682"><ele>426.0</ele><time>2026-05-03T15:44:58.28Z</time></trkpt><trkpt lat="44.43518" lon="7.6171033"><ele>426.0</ele><time>2026-05-03T15:44:59.28Z</time></trkpt><trkpt lat="44.435325" lon="7.6174"><ele>426.5</ele><time>2026-05-03T15:45:00.28Z</time></trkpt><trkpt lat="44.4354767" lon="7.6177017"><ele>427.0</ele><time>2026-05-03T15:45:01.28Z</time></trkpt><trkpt lat="44.435625" lon="7.61799"><ele>427.0</ele><time>2026-05-03T15:45:02.28Z</time></trkpt><trkpt lat="44.43578" lon="7.6182717"><ele>427.0</ele><time>2026-05-03T15:45:03.28Z</time></trkpt><trkpt lat="44.4359333" lon="7.618555"><ele>426.5</ele><time>2026-05-03T15:45:04.28Z</time></trkpt><trkpt lat="44.4360883" lon="7.6188433"><ele>426.0</ele><time>2026-05-03T15:45:05.28Z</time></trkpt><trkpt lat="44.4362467" lon="7.6191333"><ele>425.0</ele><time>2026-05-03T15:45:06.28Z</time></trkpt><trkpt lat="44.436405" lon="7.6194267"><ele>424.0</ele><time>2026-05-03T15:45:07.28Z</time></trkpt><trkpt lat="44.4365633" lon="7.6197217"><ele>423.0</ele><time>2026-05-03T15:45:08.28Z</time></trkpt><trkpt lat="44.4367233" lon="7.6200167"><ele>422.0</ele><time>2026-05-03T15:45:09.281Z</time></trkpt><trkpt lat="44.436885" lon="7.6203217"><ele>421.5</ele><time>2026-05-03T15:45:10.28Z</time></trkpt><trkpt lat="44.437045" lon="7.62062"><ele>421.0</ele><time>2026-05-03T15:45:11.28Z</time></trkpt><trkpt lat="44.4372017" lon="7.6209283"><ele>418.5</ele><time>2026-05-03T15:45:12.281Z</time></trkpt><trkpt lat="44.4373667" lon="7.6212333"><ele>416.0</ele><time>2026-05-03T15:45:13.28Z</time></trkpt><trkpt lat="44.4375283" lon="7.6215367"><ele>416.0</ele><time>2026-05-03T15:45:14.28Z</time></trkpt><trkpt lat="44.4376933" lon="7.6218367"><ele>416.0</ele><time>2026-05-03T15:45:15.28Z</time></trkpt><trkpt lat="44.4378667" lon="7.6221433"><ele>415.0</ele><time>2026-05-03T15:45:16.281Z</time></trkpt><trkpt lat="44.4380317" lon="7.6224467"><ele>414.0</ele><time>2026-05-03T15:45:17.281Z</time></trkpt><trkpt lat="44.4381933" lon="7.62277"><ele>415.5</ele><time>2026-05-03T15:45:18.28Z</time></trkpt><trkpt lat="44.4383517" lon="7.62308"><ele>417.0</ele><time>2026-05-03T15:45:19.28Z</time></trkpt><trkpt lat="44.438515" lon="7.6233917"><ele>418.0</ele><time>2026-05-03T15:45:20.28Z</time></trkpt><trkpt lat="44.4386817" lon="7.6236933"><ele>419.0</ele><time>2026-05-03T15:45:21.28Z</time></trkpt><trkpt lat="44.43885" lon="7.6240033"><ele>419.0</ele><time>2026-05-03T15:45:22.28Z</time></trkpt><trkpt lat="44.43902" lon="7.6243133"><ele>419.0</ele><time>2026-05-03T15:45:23.28Z</time></trkpt><trkpt lat="44.439185" lon="7.62462"><ele>420.0</ele><time>2026-05-03T15:45:24.28Z</time></trkpt><trkpt lat="44.4393533" lon="7.6249267"><ele>421.0</ele><time>2026-05-03T15:45:25.28Z</time></trkpt><trkpt lat="44.4395233" lon="7.6252367"><ele>419.0</ele><time>2026-05-03T15:45:26.28Z</time></trkpt><trkpt lat="44.4396883" lon="7.6255467"><ele>417.0</ele><time>2026-05-03T15:45:27.281Z</time></trkpt><trkpt lat="44.4398533" lon="7.6258533"><ele>419.5</ele><time>2026-05-03T15:45:28.28Z</time></trkpt><trkpt lat="44.4400183" lon="7.6261583"><ele>422.0</ele><time>2026-05-03T15:45:29.281Z</time></trkpt><trkpt lat="44.4401767" lon="7.6264683"><ele>422.0</ele><time>2026-05-03T15:45:30.28Z</time></trkpt><trkpt lat="44.44034" lon="7.6267817"><ele>422.0</ele><time>2026-05-03T15:45:31.28Z</time></trkpt><trkpt lat="44.4405067" lon="7.627085"><ele>416.0</ele><time>2026-05-03T15:45:32.28Z</time></trkpt><trkpt lat="44.4406717" lon="7.6273967"><ele>410.0</ele><time>2026-05-03T15:45:33.28Z</time></trkpt><trkpt lat="44.44083" lon="7.6277067"><ele>412.0</ele><time>2026-05-03T15:45:34.28Z</time></trkpt><trkpt lat="44.440995" lon="7.6280083"><ele>414.0</ele><time>2026-05-03T15:45:35.28Z</time></trkpt><trkpt lat="44.4411567" lon="7.6283167"><ele>413.5</ele><time>2026-05-03T15:45:36.28Z</time></trkpt><trkpt lat="44.4413117" lon="7.62863"><ele>413.0</ele><time>2026-05-03T15:45:37.28Z</time></trkpt><trkpt lat="44.4414767" lon="7.6289333"><ele>413.0</ele><time>2026-05-03T15:45:38.28Z</time></trkpt><trkpt lat="44.4416417" lon="7.6292283"><ele>413.0</ele><time>2026-05-03T15:45:39.28Z</time></trkpt><trkpt lat="44.4418" lon="7.6295267"><ele>413.0</ele><time>2026-05-03T15:45:40.28Z</time></trkpt><trkpt lat="44.4419567" lon="7.6298233"><ele>413.0</ele><time>2026-05-03T15:45:41.28Z</time></trkpt><trkpt lat="44.4421183" lon="7.6301217"><ele>411.5</ele><time>2026-05-03T15:45:42.28Z</time></trkpt><trkpt lat="44.442275" lon="7.6304167"><ele>410.0</ele><time>2026-05-03T15:45:43.28Z</time></trkpt><trkpt lat="44.4424383" lon="7.63072"><ele>410.0</ele><time>2026-05-03T15:45:44.28Z</time></trkpt><trkpt lat="44.4426083" lon="7.6310167"><ele>410.0</ele><time>2026-05-03T15:45:45.28Z</time></trkpt><trkpt lat="44.44277" lon="7.63131"><ele>410.0</ele><time>2026-05-03T15:45:46.28Z</time></trkpt><trkpt lat="44.4429417" lon="7.631605"><ele>410.0</ele><time>2026-05-03T15:45:47.28Z</time></trkpt><trkpt lat="44.4431133" lon="7.6318933"><ele>409.5</ele><time>2026-05-03T15:45:48.28Z</time></trkpt><trkpt lat="44.443285" lon="7.6321767"><ele>409.0</ele><time>2026-05-03T15:45:49.28Z</time></trkpt><trkpt lat="44.4434617" lon="7.632465"><ele>409.0</ele><time>2026-05-03T15:45:50.28Z</time></trkpt><trkpt lat="44.4436483" lon="7.632745"><ele>409.0</ele><time>2026-05-03T15:45:51.28Z</time></trkpt><trkpt lat="44.443835" lon="7.6330283"><ele>407.0</ele><time>2026-05-03T15:45:52.28Z</time></trkpt><trkpt lat="44.4440183" lon="7.633305"><ele>405.0</ele><time>2026-05-03T15:45:53.281Z</time></trkpt><trkpt lat="44.4442067" lon="7.6335767"><ele>404.5</ele><time>2026-05-03T15:45:54.28Z</time></trkpt><trkpt lat="44.4443983" lon="7.63384"><ele>404.0</ele><time>2026-05-03T15:45:55.28Z</time></trkpt><trkpt lat="44.4445933" lon="7.6341117"><ele>404.5</ele><time>2026-05-03T15:45:56.28Z</time></trkpt><trkpt lat="44.4447917" lon="7.634375"><ele>405.0</ele><time>2026-05-03T15:45:57.28Z</time></trkpt><trkpt lat="44.444985" lon="7.6346433"><ele>406.0</ele><time>2026-05-03T15:45:58.28Z</time></trkpt><trkpt lat="44.4451867" lon="7.634915"><ele>407.0</ele><time>2026-05-03T15:45:59.28Z</time></trkpt><trkpt lat="44.4453833" lon="7.6351883"><ele>407.5</ele><time>2026-05-03T15:46:00.281Z</time></trkpt><trkpt lat="44.4455833" lon="7.6354583"><ele>408.0</ele><time>2026-05-03T15:46:01.28Z</time></trkpt><trkpt lat="44.44578" lon="7.6357367"><ele>408.0</ele><time>2026-05-03T15:46:02.28Z</time></trkpt><trkpt lat="44.44597" lon="7.6360117"><ele>408.0</ele><time>2026-05-03T15:46:03.281Z</time></trkpt><trkpt lat="44.4461633" lon="7.6362883"><ele>404.5</ele><time>2026-05-03T15:46:04.28Z</time></trkpt><trkpt lat="44.4463567" lon="7.6365583"><ele>401.0</ele><time>2026-05-03T15:46:05.281Z</time></trkpt><trkpt lat="44.446555" lon="7.6368333"><ele>401.5</ele><time>2026-05-03T15:46:06.28Z</time></trkpt><trkpt lat="44.4467517" lon="7.6371133"><ele>402.0</ele><time>2026-05-03T15:46:07.28Z</time></trkpt><trkpt lat="44.446935" lon="7.6373883"><ele>402.0</ele><time>2026-05-03T15:46:08.28Z</time></trkpt><trkpt lat="44.4471183" lon="7.6376683"><ele>402.0</ele><time>2026-05-03T15:46:09.28Z</time></trkpt><trkpt lat="44.4473017" lon="7.6379633"><ele>403.0</ele><time>2026-05-03T15:46:10.28Z</time></trkpt><trkpt lat="44.4474833" lon="7.6382433"><ele>404.0</ele><time>2026-05-03T15:46:11.28Z</time></trkpt><trkpt lat="44.44765" lon="7.6385367"><ele>403.0</ele><time>2026-05-03T15:46:12.28Z</time></trkpt><trkpt lat="44.4478217" lon="7.63883"><ele>402.0</ele><time>2026-05-03T15:46:13.28Z</time></trkpt><trkpt lat="44.4479867" lon="7.6391233"><ele>402.0</ele><time>2026-05-03T15:46:14.28Z</time></trkpt><trkpt lat="44.4481567" lon="7.63942"><ele>402.0</ele><time>2026-05-03T15:46:15.28Z</time></trkpt><trkpt lat="44.4483217" lon="7.6397167"><ele>404.5</ele><time>2026-05-03T15:46:16.28Z</time></trkpt><trkpt lat="44.4484883" lon="7.6400233"><ele>407.0</ele><time>2026-05-03T15:46:17.28Z</time></trkpt><trkpt lat="44.4486567" lon="7.6403217"><ele>403.0</ele><time>2026-05-03T15:46:18.28Z</time></trkpt><trkpt lat="44.4488267" lon="7.640615"><ele>399.0</ele><time>2026-05-03T15:46:19.28Z</time></trkpt><trkpt lat="44.4489883" lon="7.640925"><ele>403.0</ele><time>2026-05-03T15:46:20.28Z</time></trkpt><trkpt lat="44.4491583" lon="7.64123"><ele>407.0</ele><time>2026-05-03T15:46:21.28Z</time></trkpt><trkpt lat="44.44933" lon="7.6415267"><ele>407.0</ele><time>2026-05-03T15:46:22.28Z</time></trkpt><trkpt lat="44.4494933" lon="7.6418317"><ele>407.0</ele><time>2026-05-03T15:46:23.28Z</time></trkpt><trkpt lat="44.4496633" lon="7.64213"><ele>403.0</ele><time>2026-05-03T15:46:24.28Z</time></trkpt><trkpt lat="44.4498367" lon="7.64243"><ele>399.0</ele><time>2026-05-03T15:46:25.281Z</time></trkpt><trkpt lat="44.4500017" lon="7.642735"><ele>401.0</ele><time>2026-05-03T15:46:26.28Z</time></trkpt><trkpt lat="44.4501683" lon="7.643045"><ele>403.0</ele><time>2026-05-03T15:46:27.281Z</time></trkpt><trkpt lat="44.45033" lon="7.64335"><ele>398.0</ele><time>2026-05-03T15:46:28.28Z</time></trkpt><trkpt lat="44.450495" lon="7.6436483"><ele>393.0</ele><time>2026-05-03T15:46:29.28Z</time></trkpt><trkpt lat="44.4506717" lon="7.6439483"><ele>393.0</ele><time>2026-05-03T15:46:30.28Z</time></trkpt><trkpt lat="44.4508383" lon="7.644255"><ele>393.0</ele><time>2026-05-03T15:46:31.281Z</time></trkpt><trkpt lat="44.4510067" lon="7.6445533"><ele>394.0</ele><time>2026-05-03T15:46:32.28Z</time></trkpt><trkpt lat="44.451165" lon="7.644855"><ele>395.0</ele><time>2026-05-03T15:46:33.28Z</time></trkpt><trkpt lat="44.4513283" lon="7.6451517"><ele>394.0</ele><time>2026-05-03T15:46:34.281Z</time></trkpt><trkpt lat="44.451495" lon="7.6454483"><ele>393.0</ele><time>2026-05-03T15:46:35.28Z</time></trkpt><trkpt lat="44.4516567" lon="7.64575"><ele>393.0</ele><time>2026-05-03T15:46:36.28Z</time></trkpt><trkpt lat="44.4518233" lon="7.6460417"><ele>393.0</ele><time>2026-05-03T15:46:37.28Z</time></trkpt><trkpt lat="44.4519883" lon="7.64633"><ele>392.5</ele><time>2026-05-03T15:46:38.28Z</time></trkpt><trkpt lat="44.452165" lon="7.646615"><ele>392.0</ele><time>2026-05-03T15:46:39.28Z</time></trkpt><trkpt lat="44.452335" lon="7.6469083"><ele>392.5</ele><time>2026-05-03T15:46:40.28Z</time></trkpt><trkpt lat="44.452505" lon="7.6472"><ele>393.0</ele><time>2026-05-03T15:46:41.28Z</time></trkpt><trkpt lat="44.4526767" lon="7.6474933"><ele>393.0</ele><time>2026-05-03T15:46:42.28Z</time></trkpt><trkpt lat="44.452855" lon="7.6477833"><ele>393.0</ele><time>2026-05-03T15:46:43.28Z</time></trkpt><trkpt lat="44.453035" lon="7.6480767"><ele>393.5</ele><time>2026-05-03T15:46:44.28Z</time></trkpt><trkpt lat="44.4532133" lon="7.6483667"><ele>394.0</ele><time>2026-05-03T15:46:45.28Z</time></trkpt><trkpt lat="44.4533883" lon="7.6486617"><ele>392.5</ele><time>2026-05-03T15:46:46.28Z</time></trkpt><trkpt lat="44.4535717" lon="7.6489517"><ele>391.0</ele><time>2026-05-03T15:46:47.281Z</time></trkpt><trkpt lat="44.4537533" lon="7.6492517"><ele>390.0</ele><time>2026-05-03T15:46:48.28Z</time></trkpt><trkpt lat="44.45393" lon="7.6495433"><ele>389.0</ele><time>2026-05-03T15:46:49.281Z</time></trkpt><trkpt lat="44.4541133" lon="7.64984"><ele>389.0</ele><time>2026-05-03T15:46:50.28Z</time></trkpt><trkpt lat="44.4542933" lon="7.65014"><ele>389.0</ele><time>2026-05-03T15:46:51.28Z</time></trkpt><trkpt lat="44.4544767" lon="7.65044"><ele>387.5</ele><time>2026-05-03T15:46:52.28Z</time></trkpt><trkpt lat="44.4546617" lon="7.6507383"><ele>386.0</ele><time>2026-05-03T15:46:53.28Z</time></trkpt><trkpt lat="44.454845" lon="7.6510283"><ele>387.0</ele><time>2026-05-03T15:46:54.28Z</time></trkpt><trkpt lat="44.4550267" lon="7.651325"><ele>388.0</ele><time>2026-05-03T15:46:55.281Z</time></trkpt><trkpt lat="44.4552117" lon="7.651615"><ele>388.0</ele><time>2026-05-03T15:46:56.281Z</time></trkpt><trkpt lat="44.4553917" lon="7.6519067"><ele>388.0</ele><time>2026-05-03T15:46:57.28Z</time></trkpt><trkpt lat="44.4555733" lon="7.6521867"><ele>388.0</ele><time>2026-05-03T15:46:58.28Z</time></trkpt><trkpt lat="44.455755" lon="7.6524733"><ele>388.0</ele><time>2026-05-03T15:46:59.28Z</time></trkpt><trkpt lat="44.4559417" lon="7.6527533"><ele>387.0</ele><time>2026-05-03T15:47:00.28Z</time></trkpt><trkpt lat="44.4561267" lon="7.6530283"><ele>386.0</ele><time>2026-05-03T15:47:01.28Z</time></trkpt><trkpt lat="44.4563067" lon="7.6533033"><ele>386.0</ele><time>2026-05-03T15:47:02.28Z</time></trkpt><trkpt lat="44.4564867" lon="7.6535817"><ele>386.0</ele><time>2026-05-03T15:47:03.28Z</time></trkpt><trkpt lat="44.4566717" lon="7.65386"><ele>387.5</ele><time>2026-05-03T15:47:04.28Z</time></trkpt><trkpt lat="44.4568583" lon="7.65413"><ele>389.0</ele><time>2026-05-03T15:47:05.28Z</time></trkpt><trkpt lat="44.457035" lon="7.6544083"><ele>386.5</ele><time>2026-05-03T15:47:06.28Z</time></trkpt><trkpt lat="44.4572167" lon="7.6546833"><ele>384.0</ele><time>2026-05-03T15:47:07.28Z</time></trkpt><trkpt lat="44.457395" lon="7.6549617"><ele>384.0</ele><time>2026-05-03T15:47:08.28Z</time></trkpt><trkpt lat="44.4575733" lon="7.6552417"><ele>384.0</ele><time>2026-05-03T15:47:09.281Z</time></trkpt><trkpt lat="44.45775" lon="7.6555233"><ele>386.0</ele><time>2026-05-03T15:47:10.28Z</time></trkpt><trkpt lat="44.4579317" lon="7.6558017"><ele>388.0</ele><time>2026-05-03T15:47:11.28Z</time></trkpt><trkpt lat="44.458115" lon="7.656085"><ele>389.0</ele><time>2026-05-03T15:47:12.28Z</time></trkpt><trkpt lat="44.4583033" lon="7.65636"><ele>390.0</ele><time>2026-05-03T15:47:13.28Z</time></trkpt><trkpt lat="44.4584883" lon="7.6566367"><ele>390.0</ele><time>2026-05-03T15:47:14.28Z</time></trkpt><trkpt lat="44.4586683" lon="7.6569167"><ele>390.0</ele><time>2026-05-03T15:47:15.281Z</time></trkpt><trkpt lat="44.4588533" lon="7.65719"><ele>389.0</ele><time>2026-05-03T15:47:16.28Z</time></trkpt><trkpt lat="44.45903" lon="7.6574683"><ele>388.0</ele><time>2026-05-03T15:47:17.281Z</time></trkpt><trkpt lat="44.4592183" lon="7.6577383"><ele>393.0</ele><time>2026-05-03T15:47:18.28Z</time></trkpt><trkpt lat="44.459405" lon="7.6580117"><ele>398.0</ele><time>2026-05-03T15:47:19.28Z</time></trkpt><trkpt lat="44.459595" lon="7.6582783"><ele>393.5</ele><time>2026-05-03T15:47:20.28Z</time></trkpt><trkpt lat="44.459785" lon="7.6585417"><ele>389.0</ele><time>2026-05-03T15:47:21.28Z</time></trkpt><trkpt lat="44.4599767" lon="7.6588"><ele>389.0</ele><time>2026-05-03T15:47:22.28Z</time></trkpt><trkpt lat="44.4601733" lon="7.65907"><ele>389.0</ele><time>2026-05-03T15:47:23.281Z</time></trkpt><trkpt lat="44.4603583" lon="7.6593433"><ele>385.0</ele><time>2026-05-03T15:47:24.28Z</time></trkpt><trkpt lat="44.4605483" lon="7.6596117"><ele>381.0</ele><time>2026-05-03T15:47:25.28Z</time></trkpt><trkpt lat="44.4607433" lon="7.6598783"><ele>381.0</ele><time>2026-05-03T15:47:26.28Z</time></trkpt><trkpt lat="44.4609467" lon="7.66013"><ele>381.0</ele><time>2026-05-03T15:47:27.281Z</time></trkpt><trkpt lat="44.4611417" lon="7.6603817"><ele>383.0</ele><time>2026-05-03T15:47:28.28Z</time></trkpt><trkpt lat="44.461345" lon="7.660635"><ele>385.0</ele><time>2026-05-03T15:47:29.28Z</time></trkpt><trkpt lat="44.4615517" lon="7.6608767"><ele>386.5</ele><time>2026-05-03T15:47:30.28Z</time></trkpt><trkpt lat="44.4617583" lon="7.66112"><ele>388.0</ele><time>2026-05-03T15:47:31.28Z</time></trkpt><trkpt lat="44.461975" lon="7.661365"><ele>385.5</ele><time>2026-05-03T15:47:32.28Z</time></trkpt><trkpt lat="44.462185" lon="7.66161"><ele>383.0</ele><time>2026-05-03T15:47:33.28Z</time></trkpt><trkpt lat="44.4623933" lon="7.6618467"><ele>383.0</ele><time>2026-05-03T15:47:34.28Z</time></trkpt><trkpt lat="44.462615" lon="7.6620767"><ele>383.0</ele><time>2026-05-03T15:47:35.28Z</time></trkpt><trkpt lat="44.46283" lon="7.662305"><ele>380.0</ele><time>2026-05-03T15:47:36.28Z</time></trkpt><trkpt lat="44.463045" lon="7.6625333"><ele>377.0</ele><time>2026-05-03T15:47:37.28Z</time></trkpt><trkpt lat="44.4632633" lon="7.6627567"><ele>377.5</ele><time>2026-05-03T15:47:38.28Z</time></trkpt><trkpt lat="44.4634867" lon="7.66298"><ele>378.0</ele><time>2026-05-03T15:47:39.28Z</time></trkpt><trkpt lat="44.46371" lon="7.6632083"><ele>378.0</ele><time>2026-05-03T15:47:40.28Z</time></trkpt><trkpt lat="44.4639217" lon="7.66343"><ele>378.0</ele><time>2026-05-03T15:47:41.28Z</time></trkpt><trkpt lat="44.4641383" lon="7.6636617"><ele>378.0</ele><time>2026-05-03T15:47:42.281Z</time></trkpt><trkpt lat="44.4643633" lon="7.6638917"><ele>378.0</ele><time>2026-05-03T15:47:43.28Z</time></trkpt><trkpt lat="44.4645917" lon="7.6641167"><ele>377.0</ele><time>2026-05-03T15:47:44.28Z</time></trkpt><trkpt lat="44.4648117" lon="7.6643333"><ele>376.0</ele><time>2026-05-03T15:47:45.28Z</time></trkpt><trkpt lat="44.465035" lon="7.664545"><ele>376.0</ele><time>2026-05-03T15:47:46.281Z</time></trkpt><trkpt lat="44.4652533" lon="7.6647667"><ele>376.0</ele><time>2026-05-03T15:47:47.281Z</time></trkpt><trkpt lat="44.465465" lon="7.6649933"><ele>376.5</ele><time>2026-05-03T15:47:48.281Z</time></trkpt><trkpt lat="44.4656833" lon="7.6652133"><ele>377.0</ele><time>2026-05-03T15:47:49.28Z</time></trkpt><trkpt lat="44.465895" lon="7.66544"><ele>377.0</ele><time>2026-05-03T15:47:50.28Z</time></trkpt><trkpt lat="44.4661067" lon="7.6656667"><ele>377.0</ele><time>2026-05-03T15:47:51.28Z</time></trkpt><trkpt lat="44.4663183" lon="7.665895"><ele>376.5</ele><time>2026-05-03T15:47:52.28Z</time></trkpt><trkpt lat="44.466525" lon="7.6661233"><ele>376.0</ele><time>2026-05-03T15:47:53.28Z</time></trkpt><trkpt lat="44.46673" lon="7.666355"><ele>376.0</ele><time>2026-05-03T15:47:54.28Z</time></trkpt><trkpt lat="44.466935" lon="7.6665983"><ele>376.0</ele><time>2026-05-03T15:47:55.28Z</time></trkpt><trkpt lat="44.467135" lon="7.6668383"><ele>374.5</ele><time>2026-05-03T15:47:56.28Z</time></trkpt><trkpt lat="44.4673283" lon="7.6670833"><ele>373.0</ele><time>2026-05-03T15:47:57.281Z</time></trkpt><trkpt lat="44.467525" lon="7.6673417"><ele>373.0</ele><time>2026-05-03T15:47:58.28Z</time></trkpt><trkpt lat="44.4677167" lon="7.667595"><ele>373.0</ele><time>2026-05-03T15:47:59.28Z</time></trkpt><trkpt lat="44.4679133" lon="7.66785"><ele>373.5</ele><time>2026-05-03T15:48:00.28Z</time></trkpt><trkpt lat="44.468115" lon="7.6681017"><ele>374.0</ele><time>2026-05-03T15:48:01.281Z</time></trkpt><trkpt lat="44.46831" lon="7.66836"><ele>374.0</ele><time>2026-05-03T15:48:02.28Z</time></trkpt><trkpt lat="44.4684967" lon="7.6686167"><ele>374.0</ele><time>2026-05-03T15:48:03.28Z</time></trkpt><trkpt lat="44.4686933" lon="7.6688733"><ele>372.5</ele><time>2026-05-03T15:48:04.28Z</time></trkpt><trkpt lat="44.468885" lon="7.669145"><ele>371.0</ele><time>2026-05-03T15:48:05.28Z</time></trkpt><trkpt lat="44.4690783" lon="7.6694117"><ele>371.0</ele><time>2026-05-03T15:48:06.28Z</time></trkpt><trkpt lat="44.4692733" lon="7.6696833"><ele>371.0</ele><time>2026-05-03T15:48:07.28Z</time></trkpt><trkpt lat="44.4694633" lon="7.6699517"><ele>371.5</ele><time>2026-05-03T15:48:08.281Z</time></trkpt><trkpt lat="44.469655" lon="7.670215"><ele>372.0</ele><time>2026-05-03T15:48:09.281Z</time></trkpt><trkpt lat="44.469845" lon="7.6704817"><ele>372.0</ele><time>2026-05-03T15:48:10.28Z</time></trkpt><trkpt lat="44.4700367" lon="7.6707467"><ele>372.0</ele><time>2026-05-03T15:48:11.281Z</time></trkpt><trkpt lat="44.4702317" lon="7.6710117"><ele>372.5</ele><time>2026-05-03T15:48:12.28Z</time></trkpt><trkpt lat="44.4704217" lon="7.67128"><ele>373.0</ele><time>2026-05-03T15:48:13.28Z</time></trkpt><trkpt lat="44.47061" lon="7.6715467"><ele>372.0</ele><time>2026-05-03T15:48:14.28Z</time></trkpt><trkpt lat="44.4708017" lon="7.67181"><ele>371.0</ele><time>2026-05-03T15:48:15.28Z</time></trkpt><trkpt lat="44.4709933" lon="7.6720833"><ele>369.5</ele><time>2026-05-03T15:48:16.281Z</time></trkpt><trkpt lat="44.4711817" lon="7.6723533"><ele>368.0</ele><time>2026-05-03T15:48:17.28Z</time></trkpt><trkpt lat="44.4713733" lon="7.6726217"><ele>366.5</ele><time>2026-05-03T15:48:18.28Z</time></trkpt><trkpt lat="44.471565" lon="7.67289"><ele>365.0</ele><time>2026-05-03T15:48:19.28Z</time></trkpt><trkpt lat="44.4717583" lon="7.6731617"><ele>365.0</ele><time>2026-05-03T15:48:20.281Z</time></trkpt><trkpt lat="44.47195" lon="7.6734283"><ele>365.0</ele><time>2026-05-03T15:48:21.28Z</time></trkpt><trkpt lat="44.472135" lon="7.6736967"><ele>366.0</ele><time>2026-05-03T15:48:22.28Z</time></trkpt><trkpt lat="44.4723183" lon="7.6739667"><ele>367.0</ele><time>2026-05-03T15:48:23.281Z</time></trkpt><trkpt lat="44.4725083" lon="7.6742367"><ele>367.5</ele><time>2026-05-03T15:48:24.28Z</time></trkpt><trkpt lat="44.4726967" lon="7.674505"><ele>368.0</ele><time>2026-05-03T15:48:25.28Z</time></trkpt><trkpt lat="44.4728833" lon="7.6747667"><ele>368.0</ele><time>2026-05-03T15:48:26.28Z</time></trkpt><trkpt lat="44.4730667" lon="7.6750267"><ele>368.0</ele><time>2026-05-03T15:48:27.28Z</time></trkpt><trkpt lat="44.4732483" lon="7.6752917"><ele>368.0</ele><time>2026-05-03T15:48:28.28Z</time></trkpt><trkpt lat="44.47343" lon="7.6755583"><ele>368.0</ele><time>2026-05-03T15:48:29.28Z</time></trkpt><trkpt lat="44.4736067" lon="7.6758267"><ele>368.0</ele><time>2026-05-03T15:48:30.28Z</time></trkpt><trkpt lat="44.4737867" lon="7.676095"><ele>368.0</ele><time>2026-05-03T15:48:31.28Z</time></trkpt><trkpt lat="44.4739567" lon="7.6763733"><ele>368.0</ele><time>2026-05-03T15:48:32.28Z</time></trkpt><trkpt lat="44.4741233" lon="7.6766533"><ele>368.0</ele><time>2026-05-03T15:48:33.28Z</time></trkpt><trkpt lat="44.4742917" lon="7.676935"><ele>368.0</ele><time>2026-05-03T15:48:34.28Z</time></trkpt><trkpt lat="44.4744633" lon="7.6772217"><ele>368.0</ele><time>2026-05-03T15:48:35.28Z</time></trkpt><trkpt lat="44.47463" lon="7.6775083"><ele>376.0</ele><time>2026-05-03T15:48:36.28Z</time></trkpt><trkpt lat="44.4747883" lon="7.67781"><ele>384.0</ele><time>2026-05-03T15:48:37.28Z</time></trkpt><trkpt lat="44.474945" lon="7.6781033"><ele>384.0</ele><time>2026-05-03T15:48:38.28Z</time></trkpt><trkpt lat="44.4750967" lon="7.6784133"><ele>384.0</ele><time>2026-05-03T15:48:39.281Z</time></trkpt><trkpt lat="44.47525" lon="7.6787167"><ele>382.5</ele><time>2026-05-03T15:48:40.28Z</time></trkpt><trkpt lat="44.4753933" lon="7.679025"><ele>381.0</ele><time>2026-05-03T15:48:41.28Z</time></trkpt><trkpt lat="44.4755333" lon="7.6793417"><ele>391.0</ele><time>2026-05-03T15:48:42.28Z</time></trkpt><trkpt lat="44.47567" lon="7.679665"><ele>401.0</ele><time>2026-05-03T15:48:43.28Z</time></trkpt><trkpt lat="44.4757983" lon="7.6799817"><ele>404.0</ele><time>2026-05-03T15:48:44.28Z</time></trkpt><trkpt lat="44.475915" lon="7.680305"><ele>407.0</ele><time>2026-05-03T15:48:45.28Z</time></trkpt><trkpt lat="44.4760267" lon="7.6806267"><ele>407.0</ele><time>2026-05-03T15:48:46.28Z</time></trkpt><trkpt lat="44.4761367" lon="7.680955"><ele>407.0</ele><time>2026-05-03T15:48:47.28Z</time></trkpt><trkpt lat="44.476245" lon="7.6812967"><ele>407.0</ele><time>2026-05-03T15:48:48.28Z</time></trkpt><trkpt lat="44.4763467" lon="7.6816367"><ele>407.0</ele><time>2026-05-03T15:48:49.28Z</time></trkpt><trkpt lat="44.476455" lon="7.6819783"><ele>407.5</ele><time>2026-05-03T15:48:50.28Z</time></trkpt><trkpt lat="44.476565" lon="7.6823283"><ele>408.0</ele><time>2026-05-03T15:48:51.28Z</time></trkpt><trkpt lat="44.476675" lon="7.6826733"><ele>408.0</ele><time>2026-05-03T15:48:52.28Z</time></trkpt><trkpt lat="44.4767917" lon="7.6830167"><ele>408.0</ele><time>2026-05-03T15:48:53.28Z</time></trkpt><trkpt lat="44.4769567" lon="7.6836967"><ele>407.0</ele><time>2026-05-03T15:48:55.275Z</time></trkpt><trkpt lat="44.4768817" lon="7.6841"><ele>406.0</ele><time>2026-05-03T15:48:56.275Z</time></trkpt><trkpt lat="44.4769133" lon="7.6844567"><ele>405.5</ele><time>2026-05-03T15:48:57.275Z</time></trkpt><trkpt lat="44.4769517" lon="7.684815"><ele>405.0</ele><time>2026-05-03T15:48:58.275Z</time></trkpt><trkpt lat="44.4769717" lon="7.68519"><ele>405.5</ele><time>2026-05-03T15:48:59.275Z</time></trkpt><trkpt lat="44.4769933" lon="7.6855617"><ele>406.0</ele><time>2026-05-03T15:49:00.275Z</time></trkpt><trkpt lat="44.4770133" lon="7.685915"><ele>406.0</ele><time>2026-05-03T15:49:01.276Z</time></trkpt><trkpt lat="44.4770333" lon="7.6862717"><ele>406.0</ele><time>2026-05-03T15:49:02.275Z</time></trkpt><trkpt lat="44.4770383" lon="7.6866333"><ele>406.5</ele><time>2026-05-03T15:49:03.276Z</time></trkpt><trkpt lat="44.4770317" lon="7.6869967"><ele>407.0</ele><time>2026-05-03T15:49:04.275Z</time></trkpt><trkpt lat="44.4770283" lon="7.6873633"><ele>407.0</ele><time>2026-05-03T15:49:05.275Z</time></trkpt><trkpt lat="44.477015" lon="7.6877283"><ele>407.0</ele><time>2026-05-03T15:49:06.276Z</time></trkpt><trkpt lat="44.4770017" lon="7.68809"><ele>406.5</ele><time>2026-05-03T15:49:07.275Z</time></trkpt><trkpt lat="44.47698" lon="7.6884483"><ele>406.0</ele><time>2026-05-03T15:49:08.275Z</time></trkpt><trkpt lat="44.4769517" lon="7.68881"><ele>405.5</ele><time>2026-05-03T15:49:09.275Z</time></trkpt><trkpt lat="44.476915" lon="7.6891833"><ele>405.0</ele><time>2026-05-03T15:49:10.276Z</time></trkpt><trkpt lat="44.4768733" lon="7.6895483"><ele>405.0</ele><time>2026-05-03T15:49:11.275Z</time></trkpt><trkpt lat="44.476825" lon="7.6899133"><ele>405.0</ele><time>2026-05-03T15:49:12.275Z</time></trkpt><trkpt lat="44.47676" lon="7.6902733"><ele>404.5</ele><time>2026-05-03T15:49:13.275Z</time></trkpt><trkpt lat="44.4767" lon="7.6906367"><ele>404.0</ele><time>2026-05-03T15:49:14.275Z</time></trkpt><trkpt lat="44.4766383" lon="7.690995"><ele>404.0</ele><time>2026-05-03T15:49:15.275Z</time></trkpt><trkpt lat="44.4765683" lon="7.6913567"><ele>404.0</ele><time>2026-05-03T15:49:16.276Z</time></trkpt><trkpt lat="44.47649" lon="7.69171"><ele>404.5</ele><time>2026-05-03T15:49:17.275Z</time></trkpt><trkpt lat="44.476405" lon="7.69206"><ele>405.0</ele><time>2026-05-03T15:49:18.276Z</time></trkpt><trkpt lat="44.4763167" lon="7.692415"><ele>404.5</ele><time>2026-05-03T15:49:19.275Z</time></trkpt><trkpt lat="44.476235" lon="7.6927667"><ele>404.0</ele><time>2026-05-03T15:49:20.276Z</time></trkpt><trkpt lat="44.476145" lon="7.693115"><ele>404.0</ele><time>2026-05-03T15:49:21.275Z</time></trkpt><trkpt lat="44.4760533" lon="7.693455"><ele>404.0</ele><time>2026-05-03T15:49:22.275Z</time></trkpt><trkpt lat="44.4759617" lon="7.693795"><ele>404.0</ele><time>2026-05-03T15:49:23.275Z</time></trkpt><trkpt lat="44.47586" lon="7.6941333"><ele>404.0</ele><time>2026-05-03T15:49:24.276Z</time></trkpt><trkpt lat="44.4757633" lon="7.6944667"><ele>403.0</ele><time>2026-05-03T15:49:25.275Z</time></trkpt><trkpt lat="44.47567" lon="7.6948033"><ele>402.0</ele><time>2026-05-03T15:49:26.275Z</time></trkpt><trkpt lat="44.47557" lon="7.6951383"><ele>403.0</ele><time>2026-05-03T15:49:27.275Z</time></trkpt><trkpt lat="44.4754667" lon="7.6954683"><ele>404.0</ele><time>2026-05-03T15:49:28.276Z</time></trkpt><trkpt lat="44.475365" lon="7.6958017"><ele>404.0</ele><time>2026-05-03T15:49:29.275Z</time></trkpt><trkpt lat="44.4752583" lon="7.6961333"><ele>404.0</ele><time>2026-05-03T15:49:30.275Z</time></trkpt><trkpt lat="44.47515" lon="7.696465"><ele>404.0</ele><time>2026-05-03T15:49:31.275Z</time></trkpt><trkpt lat="44.475045" lon="7.6968067"><ele>404.0</ele><time>2026-05-03T15:49:32.275Z</time></trkpt><trkpt lat="44.474935" lon="7.6971467"><ele>404.5</ele><time>2026-05-03T15:49:33.276Z</time></trkpt><trkpt lat="44.4748283" lon="7.697485"><ele>405.0</ele><time>2026-05-03T15:49:34.275Z</time></trkpt><trkpt lat="44.4747233" lon="7.6978233"><ele>405.0</ele><time>2026-05-03T15:49:35.275Z</time></trkpt><trkpt lat="44.47462" lon="7.69816"><ele>405.0</ele><time>2026-05-03T15:49:36.275Z</time></trkpt><trkpt lat="44.4745083" lon="7.6985033"><ele>404.5</ele><time>2026-05-03T15:49:37.275Z</time></trkpt><trkpt lat="44.4744017" lon="7.69885"><ele>404.0</ele><time>2026-05-03T15:49:38.275Z</time></trkpt><trkpt lat="44.4742967" lon="7.6991917"><ele>404.0</ele><time>2026-05-03T15:49:39.275Z</time></trkpt><trkpt lat="44.474185" lon="7.6995267"><ele>404.0</ele><time>2026-05-03T15:49:40.275Z</time></trkpt><trkpt lat="44.4740717" lon="7.699875"><ele>404.0</ele><time>2026-05-03T15:49:41.275Z</time></trkpt><trkpt lat="44.473965" lon="7.70021"><ele>404.0</ele><time>2026-05-03T15:49:42.275Z</time></trkpt><trkpt lat="44.47386" lon="7.7005483"><ele>404.0</ele><time>2026-05-03T15:49:43.275Z</time></trkpt><trkpt lat="44.473755" lon="7.7008833"><ele>404.0</ele><time>2026-05-03T15:49:44.275Z</time></trkpt><trkpt lat="44.4736483" lon="7.701225"><ele>404.0</ele><time>2026-05-03T15:49:45.275Z</time></trkpt><trkpt lat="44.4735433" lon="7.7015617"><ele>404.0</ele><time>2026-05-03T15:49:46.275Z</time></trkpt><trkpt lat="44.47344" lon="7.7018983"><ele>403.0</ele><time>2026-05-03T15:49:47.275Z</time></trkpt><trkpt lat="44.4733317" lon="7.7022367"><ele>402.0</ele><time>2026-05-03T15:49:48.275Z</time></trkpt><trkpt lat="44.4732267" lon="7.7025733"><ele>402.5</ele><time>2026-05-03T15:49:49.275Z</time></trkpt><trkpt lat="44.4731217" lon="7.7029067"><ele>403.0</ele><time>2026-05-03T15:49:50.276Z</time></trkpt><trkpt lat="44.4730167" lon="7.7032467"><ele>403.5</ele><time>2026-05-03T15:49:51.275Z</time></trkpt><trkpt lat="44.47291" lon="7.7035867"><ele>404.0</ele><time>2026-05-03T15:49:52.275Z</time></trkpt><trkpt lat="44.4728033" lon="7.7039133"><ele>404.0</ele><time>2026-05-03T15:49:53.275Z</time></trkpt><trkpt lat="44.4726983" lon="7.7042517"><ele>404.0</ele><time>2026-05-03T15:49:54.275Z</time></trkpt><trkpt lat="44.4725883" lon="7.7045883"><ele>403.5</ele><time>2026-05-03T15:49:55.275Z</time></trkpt><trkpt lat="44.4724833" lon="7.70492"><ele>403.0</ele><time>2026-05-03T15:49:56.275Z</time></trkpt><trkpt lat="44.4723767" lon="7.70526"><ele>402.5</ele><time>2026-05-03T15:49:57.275Z</time></trkpt><trkpt lat="44.472265" lon="7.7056033"><ele>402.0</ele><time>2026-05-03T15:49:58.275Z</time></trkpt><trkpt lat="44.4721567" lon="7.7059433"><ele>403.0</ele><time>2026-05-03T15:49:59.275Z</time></trkpt><trkpt lat="44.4720517" lon="7.7062767"><ele>404.0</ele><time>2026-05-03T15:50:00.275Z</time></trkpt><trkpt lat="44.4719483" lon="7.706615"><ele>404.0</ele><time>2026-05-03T15:50:01.275Z</time></trkpt><trkpt lat="44.4718433" lon="7.7069483"><ele>404.0</ele><time>2026-05-03T15:50:02.275Z</time></trkpt><trkpt lat="44.4717367" lon="7.7072783"><ele>404.0</ele><time>2026-05-03T15:50:03.275Z</time></trkpt><trkpt lat="44.4716283" lon="7.7076167"><ele>404.0</ele><time>2026-05-03T15:50:04.275Z</time></trkpt><trkpt lat="44.471525" lon="7.7079633"><ele>404.0</ele><time>2026-05-03T15:50:05.275Z</time></trkpt><trkpt lat="44.4714233" lon="7.7083133"><ele>404.0</ele><time>2026-05-03T15:50:06.275Z</time></trkpt><trkpt lat="44.47131" lon="7.70866"><ele>404.0</ele><time>2026-05-03T15:50:07.275Z</time></trkpt><trkpt lat="44.471205" lon="7.7090167"><ele>404.0</ele><time>2026-05-03T15:50:08.275Z</time></trkpt><trkpt lat="44.4711" lon="7.709365"><ele>403.5</ele><time>2026-05-03T15:50:09.275Z</time></trkpt><trkpt lat="44.4709933" lon="7.709715"><ele>403.0</ele><time>2026-05-03T15:50:10.276Z</time></trkpt><trkpt lat="44.4708933" lon="7.7100517"><ele>403.0</ele><time>2026-05-03T15:50:11.276Z</time></trkpt><trkpt lat="44.4707933" lon="7.7103983"><ele>403.0</ele><time>2026-05-03T15:50:12.275Z</time></trkpt><trkpt lat="44.4706933" lon="7.710745"><ele>402.5</ele><time>2026-05-03T15:50:13.276Z</time></trkpt><trkpt lat="44.4706017" lon="7.7110917"><ele>402.0</ele><time>2026-05-03T15:50:14.276Z</time></trkpt><trkpt lat="44.4705017" lon="7.71144"><ele>402.0</ele><time>2026-05-03T15:50:15.275Z</time></trkpt><trkpt lat="44.4704083" lon="7.71179"><ele>402.0</ele><time>2026-05-03T15:50:16.276Z</time></trkpt><trkpt lat="44.4703183" lon="7.7121433"><ele>402.0</ele><time>2026-05-03T15:50:17.275Z</time></trkpt><trkpt lat="44.47023" lon="7.7124983"><ele>402.0</ele><time>2026-05-03T15:50:18.275Z</time></trkpt><trkpt lat="44.4701417" lon="7.7128517"><ele>402.5</ele><time>2026-05-03T15:50:19.276Z</time></trkpt><trkpt lat="44.4700567" lon="7.7132"><ele>403.0</ele><time>2026-05-03T15:50:20.275Z</time></trkpt><trkpt lat="44.469975" lon="7.7135533"><ele>403.0</ele><time>2026-05-03T15:50:21.275Z</time></trkpt><trkpt lat="44.46989" lon="7.7138933"><ele>403.0</ele><time>2026-05-03T15:50:22.275Z</time></trkpt><trkpt lat="44.469815" lon="7.71424"><ele>402.5</ele><time>2026-05-03T15:50:23.275Z</time></trkpt><trkpt lat="44.46974" lon="7.7145883"><ele>402.0</ele><time>2026-05-03T15:50:24.275Z</time></trkpt><trkpt lat="44.4696717" lon="7.71493"><ele>402.0</ele><time>2026-05-03T15:50:25.276Z</time></trkpt><trkpt lat="44.4695967" lon="7.715285"><ele>402.0</ele><time>2026-05-03T15:50:26.275Z</time></trkpt><trkpt lat="44.469535" lon="7.7156367"><ele>402.0</ele><time>2026-05-03T15:50:27.275Z</time></trkpt><trkpt lat="44.469465" lon="7.715995"><ele>402.0</ele><time>2026-05-03T15:50:28.275Z</time></trkpt><trkpt lat="44.4694" lon="7.7163533"><ele>401.5</ele><time>2026-05-03T15:50:29.275Z</time></trkpt><trkpt lat="44.4693467" lon="7.7167067"><ele>401.0</ele><time>2026-05-03T15:50:30.275Z</time></trkpt><trkpt lat="44.4692967" lon="7.7170733"><ele>401.0</ele><time>2026-05-03T15:50:31.275Z</time></trkpt><trkpt lat="44.4692533" lon="7.7174417"><ele>401.0</ele><time>2026-05-03T15:50:32.275Z</time></trkpt><trkpt lat="44.46921" lon="7.7178117"><ele>401.0</ele><time>2026-05-03T15:50:33.275Z</time></trkpt><trkpt lat="44.4691683" lon="7.718185"><ele>401.0</ele><time>2026-05-03T15:50:34.275Z</time></trkpt><trkpt lat="44.4691267" lon="7.718555"><ele>400.5</ele><time>2026-05-03T15:50:35.275Z</time></trkpt><trkpt lat="44.4690917" lon="7.7189267"><ele>400.0</ele><time>2026-05-03T15:50:36.275Z</time></trkpt><trkpt lat="44.469065" lon="7.7192967"><ele>399.5</ele><time>2026-05-03T15:50:37.275Z</time></trkpt><trkpt lat="44.4690417" lon="7.71967"><ele>399.0</ele><time>2026-05-03T15:50:38.275Z</time></trkpt><trkpt lat="44.4690183" lon="7.720045"><ele>400.0</ele><time>2026-05-03T15:50:39.275Z</time></trkpt><trkpt lat="44.469" lon="7.72043"><ele>401.0</ele><time>2026-05-03T15:50:40.276Z</time></trkpt><trkpt lat="44.4689867" lon="7.720795"><ele>400.0</ele><time>2026-05-03T15:50:41.275Z</time></trkpt><trkpt lat="44.468985" lon="7.721155"><ele>399.0</ele><time>2026-05-03T15:50:42.275Z</time></trkpt><trkpt lat="44.4689783" lon="7.721525"><ele>399.0</ele><time>2026-05-03T15:50:43.275Z</time></trkpt><trkpt lat="44.4689833" lon="7.7218967"><ele>399.0</ele><time>2026-05-03T15:50:44.275Z</time></trkpt><trkpt lat="44.4689933" lon="7.7222567"><ele>399.0</ele><time>2026-05-03T15:50:45.275Z</time></trkpt><trkpt lat="44.4690083" lon="7.7226367"><ele>399.0</ele><time>2026-05-03T15:50:46.275Z</time></trkpt><trkpt lat="44.4690217" lon="7.72301"><ele>399.0</ele><time>2026-05-03T15:50:47.275Z</time></trkpt><trkpt lat="44.4690367" lon="7.7233783"><ele>399.0</ele><time>2026-05-03T15:50:48.275Z</time></trkpt><trkpt lat="44.4690567" lon="7.72375"><ele>399.5</ele><time>2026-05-03T15:50:49.275Z</time></trkpt><trkpt lat="44.4690833" lon="7.724125"><ele>400.0</ele><time>2026-05-03T15:50:50.275Z</time></trkpt><trkpt lat="44.46912" lon="7.7244967"><ele>399.0</ele><time>2026-05-03T15:50:51.275Z</time></trkpt><trkpt lat="44.4691483" lon="7.7248717"><ele>398.0</ele><time>2026-05-03T15:50:52.275Z</time></trkpt><trkpt lat="44.469175" lon="7.72525"><ele>398.0</ele><time>2026-05-03T15:50:53.275Z</time></trkpt><trkpt lat="44.4692067" lon="7.7256233"><ele>398.0</ele><time>2026-05-03T15:50:54.276Z</time></trkpt><trkpt lat="44.4692467" lon="7.7259967"><ele>398.5</ele><time>2026-05-03T15:50:55.275Z</time></trkpt><trkpt lat="44.4692817" lon="7.72637"><ele>399.0</ele><time>2026-05-03T15:50:56.275Z</time></trkpt><trkpt lat="44.46932" lon="7.7267483"><ele>398.5</ele><time>2026-05-03T15:50:57.275Z</time></trkpt><trkpt lat="44.469355" lon="7.7271217"><ele>398.0</ele><time>2026-05-03T15:50:58.275Z</time></trkpt><trkpt lat="44.4693867" lon="7.7274867"><ele>398.5</ele><time>2026-05-03T15:50:59.275Z</time></trkpt><trkpt lat="44.4694183" lon="7.7278583"><ele>399.0</ele><time>2026-05-03T15:51:00.275Z</time></trkpt><trkpt lat="44.469455" lon="7.7282333"><ele>399.5</ele><time>2026-05-03T15:51:01.275Z</time></trkpt><trkpt lat="44.469495" lon="7.7286133"><ele>400.0</ele><time>2026-05-03T15:51:02.275Z</time></trkpt><trkpt lat="44.4695233" lon="7.7289783"><ele>400.0</ele><time>2026-05-03T15:51:03.275Z</time></trkpt><trkpt lat="44.4695583" lon="7.7293617"><ele>400.0</ele><time>2026-05-03T15:51:04.275Z</time></trkpt><trkpt lat="44.4695917" lon="7.72974"><ele>398.5</ele><time>2026-05-03T15:51:05.275Z</time></trkpt><trkpt lat="44.4696267" lon="7.730115"><ele>397.0</ele><time>2026-05-03T15:51:06.275Z</time></trkpt><trkpt lat="44.46966" lon="7.7304867"><ele>397.0</ele><time>2026-05-03T15:51:07.275Z</time></trkpt><trkpt lat="44.4697" lon="7.7308533"><ele>397.0</ele><time>2026-05-03T15:51:08.275Z</time></trkpt><trkpt lat="44.46974" lon="7.731225"><ele>397.0</ele><time>2026-05-03T15:51:09.275Z</time></trkpt><trkpt lat="44.4697717" lon="7.7316017"><ele>397.0</ele><time>2026-05-03T15:51:10.275Z</time></trkpt><trkpt lat="44.469805" lon="7.7319717"><ele>397.0</ele><time>2026-05-03T15:51:11.275Z</time></trkpt><trkpt lat="44.4698367" lon="7.7323467"><ele>397.0</ele><time>2026-05-03T15:51:12.276Z</time></trkpt><trkpt lat="44.4698717" lon="7.7327117"><ele>396.5</ele><time>2026-05-03T15:51:13.275Z</time></trkpt><trkpt lat="44.4699017" lon="7.7330817"><ele>396.0</ele><time>2026-05-03T15:51:14.276Z</time></trkpt><trkpt lat="44.4699317" lon="7.7334517"><ele>396.0</ele><time>2026-05-03T15:51:15.275Z</time></trkpt><trkpt lat="44.469965" lon="7.7338317"><ele>396.0</ele><time>2026-05-03T15:51:16.275Z</time></trkpt><trkpt lat="44.469995" lon="7.7342067"><ele>396.5</ele><time>2026-05-03T15:51:17.275Z</time></trkpt><trkpt lat="44.4700233" lon="7.7345783"><ele>397.0</ele><time>2026-05-03T15:51:18.275Z</time></trkpt><trkpt lat="44.470045" lon="7.7349533"><ele>397.0</ele><time>2026-05-03T15:51:19.275Z</time></trkpt><trkpt lat="44.4700683" lon="7.7353267"><ele>397.0</ele><time>2026-05-03T15:51:20.276Z</time></trkpt><trkpt lat="44.4700867" lon="7.7357017"><ele>396.5</ele><time>2026-05-03T15:51:21.275Z</time></trkpt><trkpt lat="44.470105" lon="7.7360783"><ele>396.0</ele><time>2026-05-03T15:51:22.275Z</time></trkpt><trkpt lat="44.4701233" lon="7.7364467"><ele>396.0</ele><time>2026-05-03T15:51:23.275Z</time></trkpt><trkpt lat="44.4701383" lon="7.736815"><ele>396.0</ele><time>2026-05-03T15:51:24.275Z</time></trkpt><trkpt lat="44.4701467" lon="7.7371983"><ele>395.5</ele><time>2026-05-03T15:51:25.275Z</time></trkpt><trkpt lat="44.470155" lon="7.7375767"><ele>395.0</ele><time>2026-05-03T15:51:26.275Z</time></trkpt><trkpt lat="44.4701467" lon="7.737955"><ele>395.0</ele><time>2026-05-03T15:51:27.275Z</time></trkpt><trkpt lat="44.4701433" lon="7.7383433"><ele>395.0</ele><time>2026-05-03T15:51:28.275Z</time></trkpt><trkpt lat="44.4701283" lon="7.7387067"><ele>395.0</ele><time>2026-05-03T15:51:29.275Z</time></trkpt><trkpt lat="44.47012" lon="7.7390767"><ele>395.0</ele><time>2026-05-03T15:51:30.275Z</time></trkpt><trkpt lat="44.4701117" lon="7.739445"><ele>395.0</ele><time>2026-05-03T15:51:31.276Z</time></trkpt><trkpt lat="44.4701017" lon="7.7398067"><ele>395.0</ele><time>2026-05-03T15:51:32.275Z</time></trkpt><trkpt lat="44.4700817" lon="7.7401783"><ele>394.5</ele><time>2026-05-03T15:51:33.275Z</time></trkpt><trkpt lat="44.4700633" lon="7.7405583"><ele>394.0</ele><time>2026-05-03T15:51:34.275Z</time></trkpt><trkpt lat="44.47005" lon="7.74093"><ele>394.5</ele><time>2026-05-03T15:51:35.275Z</time></trkpt><trkpt lat="44.47003" lon="7.7413017"><ele>395.0</ele><time>2026-05-03T15:51:36.275Z</time></trkpt><trkpt lat="44.4700133" lon="7.7416817"><ele>394.5</ele><time>2026-05-03T15:51:37.275Z</time></trkpt><trkpt lat="44.4699983" lon="7.7420567"><ele>394.0</ele><time>2026-05-03T15:51:38.275Z</time></trkpt><trkpt lat="44.4699817" lon="7.7424383"><ele>393.5</ele><time>2026-05-03T15:51:39.275Z</time></trkpt><trkpt lat="44.4699667" lon="7.7428167"><ele>393.0</ele><time>2026-05-03T15:51:40.275Z</time></trkpt><trkpt lat="44.46995" lon="7.7431967"><ele>393.0</ele><time>2026-05-03T15:51:41.275Z</time></trkpt><trkpt lat="44.4699283" lon="7.74357"><ele>393.0</ele><time>2026-05-03T15:51:42.275Z</time></trkpt><trkpt lat="44.4699067" lon="7.7439383"><ele>393.0</ele><time>2026-05-03T15:51:43.275Z</time></trkpt><trkpt lat="44.4698883" lon="7.7443133"><ele>393.0</ele><time>2026-05-03T15:51:44.275Z</time></trkpt><trkpt lat="44.46987" lon="7.7446767"><ele>393.5</ele><time>2026-05-03T15:51:45.275Z</time></trkpt><trkpt lat="44.4698533" lon="7.7450483"><ele>394.0</ele><time>2026-05-03T15:51:46.275Z</time></trkpt><trkpt lat="44.4698383" lon="7.7454183"><ele>394.0</ele><time>2026-05-03T15:51:47.275Z</time></trkpt><trkpt lat="44.46982" lon="7.7457917"><ele>394.0</ele><time>2026-05-03T15:51:48.275Z</time></trkpt><trkpt lat="44.469805" lon="7.7461667"><ele>393.0</ele><time>2026-05-03T15:51:49.275Z</time></trkpt><trkpt lat="44.4697867" lon="7.7465367"><ele>392.0</ele><time>2026-05-03T15:51:50.275Z</time></trkpt><trkpt lat="44.469765" lon="7.746905"><ele>391.5</ele><time>2026-05-03T15:51:51.275Z</time></trkpt><trkpt lat="44.469745" lon="7.7472767"><ele>391.0</ele><time>2026-05-03T15:51:52.275Z</time></trkpt><trkpt lat="44.4697333" lon="7.7476533"><ele>391.5</ele><time>2026-05-03T15:51:53.275Z</time></trkpt><trkpt lat="44.4697183" lon="7.7480283"><ele>392.0</ele><time>2026-05-03T15:51:54.275Z</time></trkpt><trkpt lat="44.4697017" lon="7.7484083"><ele>392.0</ele><time>2026-05-03T15:51:55.275Z</time></trkpt><trkpt lat="44.46969" lon="7.7487933"><ele>392.0</ele><time>2026-05-03T15:51:56.275Z</time></trkpt><trkpt lat="44.4696767" lon="7.7491867"><ele>392.5</ele><time>2026-05-03T15:51:57.275Z</time></trkpt><trkpt lat="44.469665" lon="7.7495717"><ele>393.0</ele><time>2026-05-03T15:51:58.275Z</time></trkpt><trkpt lat="44.4696467" lon="7.7499567"><ele>393.0</ele><time>2026-05-03T15:51:59.275Z</time></trkpt><trkpt lat="44.4696267" lon="7.750335"><ele>393.0</ele><time>2026-05-03T15:52:00.275Z</time></trkpt><trkpt lat="44.4696083" lon="7.750715"><ele>393.5</ele><time>2026-05-03T15:52:01.275Z</time></trkpt><trkpt lat="44.46959" lon="7.7510883"><ele>394.0</ele><time>2026-05-03T15:52:02.275Z</time></trkpt><trkpt lat="44.46957" lon="7.7514667"><ele>394.0</ele><time>2026-05-03T15:52:03.275Z</time></trkpt><trkpt lat="44.4695517" lon="7.7518417"><ele>394.0</ele><time>2026-05-03T15:52:04.275Z</time></trkpt><trkpt lat="44.469535" lon="7.7522217"><ele>393.5</ele><time>2026-05-03T15:52:05.275Z</time></trkpt><trkpt lat="44.4695233" lon="7.7526033"><ele>393.0</ele><time>2026-05-03T15:52:06.275Z</time></trkpt><trkpt lat="44.4695033" lon="7.7529783"><ele>393.0</ele><time>2026-05-03T15:52:07.275Z</time></trkpt><trkpt lat="44.4694817" lon="7.7533583"><ele>393.0</ele><time>2026-05-03T15:52:08.275Z</time></trkpt><trkpt lat="44.4694617" lon="7.7537367"><ele>393.0</ele><time>2026-05-03T15:52:09.275Z</time></trkpt><trkpt lat="44.4694433" lon="7.7541017"><ele>393.0</ele><time>2026-05-03T15:52:10.276Z</time></trkpt><trkpt lat="44.46943" lon="7.7544683"><ele>393.0</ele><time>2026-05-03T15:52:11.275Z</time></trkpt><trkpt lat="44.4694133" lon="7.75483"><ele>393.0</ele><time>2026-05-03T15:52:12.275Z</time></trkpt><trkpt lat="44.4693983" lon="7.7551933"><ele>392.5</ele><time>2026-05-03T15:52:13.276Z</time></trkpt><trkpt lat="44.4693833" lon="7.7555583"><ele>392.0</ele><time>2026-05-03T15:52:14.275Z</time></trkpt><trkpt lat="44.469365" lon="7.7559133"><ele>391.5</ele><time>2026-05-03T15:52:15.275Z</time></trkpt><trkpt lat="44.4693417" lon="7.756265"><ele>391.0</ele><time>2026-05-03T15:52:16.275Z</time></trkpt><trkpt lat="44.46932" lon="7.7566217"><ele>391.0</ele><time>2026-05-03T15:52:17.275Z</time></trkpt><trkpt lat="44.4693" lon="7.756975"><ele>391.0</ele><time>2026-05-03T15:52:18.275Z</time></trkpt><trkpt lat="44.469275" lon="7.7573367"><ele>391.0</ele><time>2026-05-03T15:52:19.275Z</time></trkpt><trkpt lat="44.469245" lon="7.7576967"><ele>391.0</ele><time>2026-05-03T15:52:20.275Z</time></trkpt><trkpt lat="44.4692167" lon="7.7580567"><ele>391.5</ele><time>2026-05-03T15:52:21.275Z</time></trkpt><trkpt lat="44.4691833" lon="7.7584167"><ele>392.0</ele><time>2026-05-03T15:52:22.275Z</time></trkpt><trkpt lat="44.4691483" lon="7.7587733"><ele>391.0</ele><time>2026-05-03T15:52:23.275Z</time></trkpt><trkpt lat="44.469125" lon="7.759135"><ele>390.0</ele><time>2026-05-03T15:52:24.275Z</time></trkpt><trkpt lat="44.4690933" lon="7.759495"><ele>390.0</ele><time>2026-05-03T15:52:25.275Z</time></trkpt><trkpt lat="44.4690567" lon="7.7598533"><ele>390.0</ele><time>2026-05-03T15:52:26.275Z</time></trkpt><trkpt lat="44.4690217" lon="7.76021"><ele>390.0</ele><time>2026-05-03T15:52:27.275Z</time></trkpt><trkpt lat="44.468985" lon="7.7605683"><ele>390.0</ele><time>2026-05-03T15:52:28.275Z</time></trkpt><trkpt lat="44.4689467" lon="7.7609333"><ele>390.5</ele><time>2026-05-03T15:52:29.275Z</time></trkpt><trkpt lat="44.4689133" lon="7.7612983"><ele>391.0</ele><time>2026-05-03T15:52:30.275Z</time></trkpt><trkpt lat="44.4688783" lon="7.7616617"><ele>390.5</ele><time>2026-05-03T15:52:31.276Z</time></trkpt><trkpt lat="44.4688417" lon="7.7620183"><ele>390.0</ele><time>2026-05-03T15:52:32.275Z</time></trkpt><trkpt lat="44.4688" lon="7.762385"><ele>390.0</ele><time>2026-05-03T15:52:33.275Z</time></trkpt><trkpt lat="44.46876" lon="7.7627517"><ele>390.0</ele><time>2026-05-03T15:52:34.276Z</time></trkpt><trkpt lat="44.4687167" lon="7.7631283"><ele>390.0</ele><time>2026-05-03T15:52:35.275Z</time></trkpt><trkpt lat="44.4686717" lon="7.7634917"><ele>390.0</ele><time>2026-05-03T15:52:36.275Z</time></trkpt><trkpt lat="44.4686267" lon="7.7638617"><ele>391.0</ele><time>2026-05-03T15:52:37.275Z</time></trkpt><trkpt lat="44.4685867" lon="7.7642217"><ele>392.0</ele><time>2026-05-03T15:52:38.275Z</time></trkpt><trkpt lat="44.4685467" lon="7.7645817"><ele>392.0</ele><time>2026-05-03T15:52:39.275Z</time></trkpt><trkpt lat="44.4685017" lon="7.7649367"><ele>392.0</ele><time>2026-05-03T15:52:40.275Z</time></trkpt><trkpt lat="44.4684533" lon="7.765295"><ele>392.0</ele><time>2026-05-03T15:52:41.275Z</time></trkpt><trkpt lat="44.4684117" lon="7.765655"><ele>392.0</ele><time>2026-05-03T15:52:42.275Z</time></trkpt><trkpt lat="44.46837" lon="7.7660217"><ele>390.5</ele><time>2026-05-03T15:52:43.275Z</time></trkpt><trkpt lat="44.4683283" lon="7.7663817"><ele>389.0</ele><time>2026-05-03T15:52:44.276Z</time></trkpt><trkpt lat="44.4682983" lon="7.7667533"><ele>389.0</ele><time>2026-05-03T15:52:45.275Z</time></trkpt><trkpt lat="44.468265" lon="7.7671167"><ele>389.0</ele><time>2026-05-03T15:52:46.275Z</time></trkpt><trkpt lat="44.4682317" lon="7.7674833"><ele>388.5</ele><time>2026-05-03T15:52:47.275Z</time></trkpt><trkpt lat="44.4681983" lon="7.7678467"><ele>388.0</ele><time>2026-05-03T15:52:48.275Z</time></trkpt><trkpt lat="44.4681783" lon="7.7682083"><ele>388.0</ele><time>2026-05-03T15:52:49.275Z</time></trkpt><trkpt lat="44.4681617" lon="7.76858"><ele>388.0</ele><time>2026-05-03T15:52:50.275Z</time></trkpt><trkpt lat="44.4681417" lon="7.768955"><ele>388.0</ele><time>2026-05-03T15:52:51.275Z</time></trkpt><trkpt lat="44.4681317" lon="7.76932"><ele>388.0</ele><time>2026-05-03T15:52:52.275Z</time></trkpt><trkpt lat="44.468125" lon="7.7696933"><ele>388.0</ele><time>2026-05-03T15:52:53.275Z</time></trkpt><trkpt lat="44.4681183" lon="7.770065"><ele>388.0</ele><time>2026-05-03T15:52:54.275Z</time></trkpt><trkpt lat="44.4681067" lon="7.770435"><ele>388.0</ele><time>2026-05-03T15:52:55.275Z</time></trkpt><trkpt lat="44.468125" lon="7.770805"><ele>388.0</ele><time>2026-05-03T15:52:56.275Z</time></trkpt><trkpt lat="44.468125" lon="7.7711733"><ele>388.0</ele><time>2026-05-03T15:52:57.275Z</time></trkpt><trkpt lat="44.4681333" lon="7.77154"><ele>388.0</ele><time>2026-05-03T15:52:58.275Z</time></trkpt><trkpt lat="44.468155" lon="7.7719"><ele>388.0</ele><time>2026-05-03T15:52:59.275Z</time></trkpt><trkpt lat="44.4681717" lon="7.7722683"><ele>388.0</ele><time>2026-05-03T15:53:00.275Z</time></trkpt><trkpt lat="44.468185" lon="7.7726367"><ele>388.0</ele><time>2026-05-03T15:53:01.275Z</time></trkpt><trkpt lat="44.468205" lon="7.7729967"><ele>388.0</ele><time>2026-05-03T15:53:02.275Z</time></trkpt><trkpt lat="44.4682317" lon="7.7733517"><ele>388.0</ele><time>2026-05-03T15:53:03.275Z</time></trkpt><trkpt lat="44.4682633" lon="7.7737083"><ele>388.0</ele><time>2026-05-03T15:53:04.275Z</time></trkpt><trkpt lat="44.4682983" lon="7.7740533"><ele>388.0</ele><time>2026-05-03T15:53:05.275Z</time></trkpt><trkpt lat="44.4683383" lon="7.7744133"><ele>388.0</ele><time>2026-05-03T15:53:06.276Z</time></trkpt><trkpt lat="44.468385" lon="7.774765"><ele>388.0</ele><time>2026-05-03T15:53:07.276Z</time></trkpt><trkpt lat="44.4684317" lon="7.7751217"><ele>388.0</ele><time>2026-05-03T15:53:08.275Z</time></trkpt><trkpt lat="44.468485" lon="7.7754817"><ele>389.0</ele><time>2026-05-03T15:53:09.276Z</time></trkpt><trkpt lat="44.4685417" lon="7.7758333"><ele>390.0</ele><time>2026-05-03T15:53:10.275Z</time></trkpt><trkpt lat="44.4686033" lon="7.77619"><ele>390.0</ele><time>2026-05-03T15:53:11.275Z</time></trkpt><trkpt lat="44.468665" lon="7.7765467"><ele>390.0</ele><time>2026-05-03T15:53:12.275Z</time></trkpt><trkpt lat="44.4687317" lon="7.7768983"><ele>389.5</ele><time>2026-05-03T15:53:13.275Z</time></trkpt><trkpt lat="44.4687967" lon="7.7772483"><ele>389.0</ele><time>2026-05-03T15:53:14.275Z</time></trkpt><trkpt lat="44.4688733" lon="7.7775967"><ele>391.0</ele><time>2026-05-03T15:53:15.275Z</time></trkpt><trkpt lat="44.4689483" lon="7.7779367"><ele>393.0</ele><time>2026-05-03T15:53:16.275Z</time></trkpt><trkpt lat="44.4690317" lon="7.77828"><ele>397.5</ele><time>2026-05-03T15:53:17.276Z</time></trkpt><trkpt lat="44.4691117" lon="7.7786267"><ele>402.0</ele><time>2026-05-03T15:53:18.275Z</time></trkpt><trkpt lat="44.4692017" lon="7.77897"><ele>402.0</ele><time>2026-05-03T15:53:19.275Z</time></trkpt><trkpt lat="44.46929" lon="7.7793067"><ele>402.0</ele><time>2026-05-03T15:53:20.276Z</time></trkpt><trkpt lat="44.46938" lon="7.77964"><ele>407.5</ele><time>2026-05-03T15:53:21.276Z</time></trkpt><trkpt lat="44.46948" lon="7.7799683"><ele>413.0</ele><time>2026-05-03T15:53:22.275Z</time></trkpt><trkpt lat="44.469585" lon="7.78029"><ele>414.5</ele><time>2026-05-03T15:53:23.276Z</time></trkpt><trkpt lat="44.469685" lon="7.78062"><ele>416.0</ele><time>2026-05-03T15:53:24.275Z</time></trkpt><trkpt lat="44.46979" lon="7.7809417"><ele>416.5</ele><time>2026-05-03T15:53:25.276Z</time></trkpt><trkpt lat="44.4698983" lon="7.781255"><ele>417.0</ele><time>2026-05-03T15:53:26.275Z</time></trkpt><trkpt lat="44.470005" lon="7.781575"><ele>416.0</ele><time>2026-05-03T15:53:27.275Z</time></trkpt><trkpt lat="44.4701167" lon="7.7818917"><ele>415.0</ele><time>2026-05-03T15:53:28.275Z</time></trkpt><trkpt lat="44.470235" lon="7.7822033"><ele>415.0</ele><time>2026-05-03T15:53:29.275Z</time></trkpt><trkpt lat="44.4703567" lon="7.7825117"><ele>415.0</ele><time>2026-05-03T15:53:30.275Z</time></trkpt><trkpt lat="44.47048" lon="7.7828183"><ele>416.5</ele><time>2026-05-03T15:53:31.275Z</time></trkpt><trkpt lat="44.4706133" lon="7.7831333"><ele>418.0</ele><time>2026-05-03T15:53:32.275Z</time></trkpt><trkpt lat="44.47075" lon="7.7834483"><ele>417.0</ele><time>2026-05-03T15:53:33.275Z</time></trkpt><trkpt lat="44.4708817" lon="7.7837567"><ele>416.0</ele><time>2026-05-03T15:53:34.275Z</time></trkpt><trkpt lat="44.4710183" lon="7.7840683"><ele>416.5</ele><time>2026-05-03T15:53:35.275Z</time></trkpt><trkpt lat="44.4711617" lon="7.7843767"><ele>417.0</ele><time>2026-05-03T15:53:36.275Z</time></trkpt><trkpt lat="44.471305" lon="7.7846733"><ele>418.0</ele><time>2026-05-03T15:53:37.275Z</time></trkpt><trkpt lat="44.471455" lon="7.7849633"><ele>419.0</ele><time>2026-05-03T15:53:38.275Z</time></trkpt><trkpt lat="44.4716117" lon="7.7852583"><ele>419.0</ele><time>2026-05-03T15:53:39.275Z</time></trkpt><trkpt lat="44.4717717" lon="7.7855483"><ele>419.0</ele><time>2026-05-03T15:53:40.276Z</time></trkpt><trkpt lat="44.4719317" lon="7.7858317"><ele>419.0</ele><time>2026-05-03T15:53:41.275Z</time></trkpt><trkpt lat="44.4720933" lon="7.7861183"><ele>419.0</ele><time>2026-05-03T15:53:42.275Z</time></trkpt><trkpt lat="44.4722617" lon="7.7864117"><ele>419.0</ele><time>2026-05-03T15:53:43.276Z</time></trkpt><trkpt lat="44.4724283" lon="7.7866983"><ele>419.0</ele><time>2026-05-03T15:53:44.275Z</time></trkpt><trkpt lat="44.4726" lon="7.78698"><ele>419.0</ele><time>2026-05-03T15:53:45.275Z</time></trkpt><trkpt lat="44.4727683" lon="7.7872533"><ele>419.0</ele><time>2026-05-03T15:53:46.275Z</time></trkpt><trkpt lat="44.47295" lon="7.7875233"><ele>419.0</ele><time>2026-05-03T15:53:47.275Z</time></trkpt><trkpt lat="44.4731317" lon="7.7877933"><ele>419.0</ele><time>2026-05-03T15:53:48.275Z</time></trkpt><trkpt lat="44.473315" lon="7.78806"><ele>419.0</ele><time>2026-05-03T15:53:49.275Z</time></trkpt><trkpt lat="44.473505" lon="7.7883167"><ele>419.0</ele><time>2026-05-03T15:53:50.275Z</time></trkpt><trkpt lat="44.473695" lon="7.78857"><ele>419.0</ele><time>2026-05-03T15:53:51.275Z</time></trkpt><trkpt lat="44.47389" lon="7.7888267"><ele>419.0</ele><time>2026-05-03T15:53:52.275Z</time></trkpt><trkpt lat="44.474085" lon="7.7890767"><ele>419.0</ele><time>2026-05-03T15:53:53.275Z</time></trkpt><trkpt lat="44.474285" lon="7.7893267"><ele>419.0</ele><time>2026-05-03T15:53:54.275Z</time></trkpt><trkpt lat="44.4744917" lon="7.7895667"><ele>420.0</ele><time>2026-05-03T15:53:55.275Z</time></trkpt><trkpt lat="44.4747017" lon="7.78981"><ele>421.0</ele><time>2026-05-03T15:53:56.276Z</time></trkpt><trkpt lat="44.4749067" lon="7.790045"><ele>421.0</ele><time>2026-05-03T15:53:57.275Z</time></trkpt><trkpt lat="44.4751183" lon="7.79028"><ele>421.0</ele><time>2026-05-03T15:53:58.275Z</time></trkpt><trkpt lat="44.4753333" lon="7.790515"><ele>420.0</ele><time>2026-05-03T15:53:59.275Z</time></trkpt><trkpt lat="44.4755467" lon="7.79074"><ele>419.0</ele><time>2026-05-03T15:54:00.275Z</time></trkpt><trkpt lat="44.475775" lon="7.7909617"><ele>418.5</ele><time>2026-05-03T15:54:01.275Z</time></trkpt><trkpt lat="44.4759933" lon="7.7911783"><ele>418.0</ele><time>2026-05-03T15:54:02.275Z</time></trkpt><trkpt lat="44.476215" lon="7.7913867"><ele>418.5</ele><time>2026-05-03T15:54:03.275Z</time></trkpt><trkpt lat="44.4764333" lon="7.791595"><ele>419.0</ele><time>2026-05-03T15:54:04.275Z</time></trkpt><trkpt lat="44.476655" lon="7.7917983"><ele>419.5</ele><time>2026-05-03T15:54:05.275Z</time></trkpt><trkpt lat="44.476875" lon="7.7920033"><ele>420.0</ele><time>2026-05-03T15:54:06.275Z</time></trkpt><trkpt lat="44.4770917" lon="7.7922117"><ele>420.0</ele><time>2026-05-03T15:54:07.275Z</time></trkpt><trkpt lat="44.4773083" lon="7.7924183"><ele>420.0</ele><time>2026-05-03T15:54:08.275Z</time></trkpt><trkpt lat="44.4775333" lon="7.7926233"><ele>419.5</ele><time>2026-05-03T15:54:09.275Z</time></trkpt><trkpt lat="44.4777583" lon="7.7928317"><ele>419.0</ele><time>2026-05-03T15:54:10.275Z</time></trkpt><trkpt lat="44.47798" lon="7.7930467"><ele>418.5</ele><time>2026-05-03T15:54:11.275Z</time></trkpt><trkpt lat="44.4782" lon="7.79327"><ele>418.0</ele><time>2026-05-03T15:54:12.275Z</time></trkpt><trkpt lat="44.4784183" lon="7.7934933"><ele>417.5</ele><time>2026-05-03T15:54:13.275Z</time></trkpt><trkpt lat="44.4786283" lon="7.7937233"><ele>417.0</ele><time>2026-05-03T15:54:14.276Z</time></trkpt><trkpt lat="44.4788417" lon="7.79395"><ele>417.0</ele><time>2026-05-03T15:54:15.276Z</time></trkpt><trkpt lat="44.4790517" lon="7.7941683"><ele>417.0</ele><time>2026-05-03T15:54:16.275Z</time></trkpt><trkpt lat="44.479265" lon="7.794395"><ele>417.5</ele><time>2026-05-03T15:54:17.275Z</time></trkpt><trkpt lat="44.479465" lon="7.79464"><ele>418.0</ele><time>2026-05-03T15:54:18.275Z</time></trkpt><trkpt lat="44.47966" lon="7.7948867"><ele>418.0</ele><time>2026-05-03T15:54:19.275Z</time></trkpt><trkpt lat="44.47985" lon="7.7951333"><ele>418.0</ele><time>2026-05-03T15:54:20.275Z</time></trkpt><trkpt lat="44.480045" lon="7.7953867"><ele>418.0</ele><time>2026-05-03T15:54:21.276Z</time></trkpt><trkpt lat="44.480235" lon="7.7956367"><ele>418.0</ele><time>2026-05-03T15:54:22.275Z</time></trkpt><trkpt lat="44.480415" lon="7.7958917"><ele>418.5</ele><time>2026-05-03T15:54:23.275Z</time></trkpt><trkpt lat="44.4805933" lon="7.7961533"><ele>419.0</ele><time>2026-05-03T15:54:24.275Z</time></trkpt><trkpt lat="44.48077" lon="7.79642"><ele>419.0</ele><time>2026-05-03T15:54:25.275Z</time></trkpt><trkpt lat="44.480945" lon="7.7966817"><ele>419.0</ele><time>2026-05-03T15:54:26.275Z</time></trkpt><trkpt lat="44.48112" lon="7.7969483"><ele>419.0</ele><time>2026-05-03T15:54:27.275Z</time></trkpt><trkpt lat="44.4812917" lon="7.7972167"><ele>419.0</ele><time>2026-05-03T15:54:28.276Z</time></trkpt><trkpt lat="44.4814583" lon="7.7974933"><ele>418.5</ele><time>2026-05-03T15:54:29.275Z</time></trkpt><trkpt lat="44.481615" lon="7.7977733"><ele>418.0</ele><time>2026-05-03T15:54:30.275Z</time></trkpt><trkpt lat="44.4817717" lon="7.7980683"><ele>418.0</ele><time>2026-05-03T15:54:31.275Z</time></trkpt><trkpt lat="44.4819267" lon="7.7983617"><ele>418.0</ele><time>2026-05-03T15:54:32.275Z</time></trkpt><trkpt lat="44.4820733" lon="7.798655"><ele>417.5</ele><time>2026-05-03T15:54:33.275Z</time></trkpt><trkpt lat="44.482215" lon="7.79895"><ele>417.0</ele><time>2026-05-03T15:54:34.276Z</time></trkpt><trkpt lat="44.482355" lon="7.7992517"><ele>417.0</ele><time>2026-05-03T15:54:35.275Z</time></trkpt><trkpt lat="44.482495" lon="7.7995533"><ele>417.0</ele><time>2026-05-03T15:54:36.275Z</time></trkpt><trkpt lat="44.48263" lon="7.79985"><ele>417.0</ele><time>2026-05-03T15:54:37.275Z</time></trkpt><trkpt lat="44.482765" lon="7.8001583"><ele>417.0</ele><time>2026-05-03T15:54:38.275Z</time></trkpt><trkpt lat="44.482895" lon="7.8004767"><ele>417.0</ele><time>2026-05-03T15:54:39.275Z</time></trkpt><trkpt lat="44.4830183" lon="7.800795"><ele>417.0</ele><time>2026-05-03T15:54:40.275Z</time></trkpt><trkpt lat="44.4831367" lon="7.8011267"><ele>417.5</ele><time>2026-05-03T15:54:41.276Z</time></trkpt><trkpt lat="44.483255" lon="7.8014533"><ele>418.0</ele><time>2026-05-03T15:54:42.275Z</time></trkpt><trkpt lat="44.483365" lon="7.801785"><ele>418.0</ele><time>2026-05-03T15:54:43.275Z</time></trkpt><trkpt lat="44.4834717" lon="7.8021167"><ele>418.0</ele><time>2026-05-03T15:54:44.275Z</time></trkpt><trkpt lat="44.483575" lon="7.8024533"><ele>418.5</ele><time>2026-05-03T15:54:45.275Z</time></trkpt><trkpt lat="44.4836717" lon="7.8027967"><ele>419.0</ele><time>2026-05-03T15:54:46.275Z</time></trkpt><trkpt lat="44.483765" lon="7.8031367"><ele>419.0</ele><time>2026-05-03T15:54:47.275Z</time></trkpt><trkpt lat="44.48386" lon="7.8034717"><ele>419.0</ele><time>2026-05-03T15:54:48.275Z</time></trkpt><trkpt lat="44.4839517" lon="7.8038133"><ele>419.0</ele><time>2026-05-03T15:54:49.275Z</time></trkpt><trkpt lat="44.4840367" lon="7.8041567"><ele>419.0</ele><time>2026-05-03T15:54:50.275Z</time></trkpt><trkpt lat="44.4841117" lon="7.8045017"><ele>419.5</ele><time>2026-05-03T15:54:51.275Z</time></trkpt><trkpt lat="44.4841917" lon="7.8048417"><ele>420.0</ele><time>2026-05-03T15:54:52.275Z</time></trkpt><trkpt lat="44.48426" lon="7.80519"><ele>418.5</ele><time>2026-05-03T15:54:53.275Z</time></trkpt><trkpt lat="44.4843283" lon="7.8055467"><ele>417.0</ele><time>2026-05-03T15:54:54.275Z</time></trkpt><trkpt lat="44.4843933" lon="7.8058917"><ele>415.5</ele><time>2026-05-03T15:54:55.275Z</time></trkpt><trkpt lat="44.4844583" lon="7.806235"><ele>414.0</ele><time>2026-05-03T15:54:56.275Z</time></trkpt><trkpt lat="44.4845167" lon="7.806595"><ele>413.5</ele><time>2026-05-03T15:54:57.275Z</time></trkpt><trkpt lat="44.4845733" lon="7.8069533"><ele>413.0</ele><time>2026-05-03T15:54:58.275Z</time></trkpt><trkpt lat="44.4846367" lon="7.807295"><ele>413.0</ele><time>2026-05-03T15:54:59.275Z</time></trkpt><trkpt lat="44.4846867" lon="7.8076567"><ele>413.0</ele><time>2026-05-03T15:55:00.275Z</time></trkpt><trkpt lat="44.48473" lon="7.80802"><ele>412.5</ele><time>2026-05-03T15:55:01.275Z</time></trkpt><trkpt lat="44.484775" lon="7.8083867"><ele>412.0</ele><time>2026-05-03T15:55:02.275Z</time></trkpt><trkpt lat="44.4848133" lon="7.8087433"><ele>411.5</ele><time>2026-05-03T15:55:03.275Z</time></trkpt><trkpt lat="44.484835" lon="7.8091033"><ele>411.0</ele><time>2026-05-03T15:55:04.275Z</time></trkpt><trkpt lat="44.4848767" lon="7.80946"><ele>411.0</ele><time>2026-05-03T15:55:05.276Z</time></trkpt><trkpt lat="44.4849133" lon="7.809815"><ele>411.0</ele><time>2026-05-03T15:55:06.275Z</time></trkpt><trkpt lat="44.484945" lon="7.810165"><ele>411.0</ele><time>2026-05-03T15:55:07.275Z</time></trkpt><trkpt lat="44.4849717" lon="7.810525"><ele>411.0</ele><time>2026-05-03T15:55:08.275Z</time></trkpt><trkpt lat="44.4849967" lon="7.810875"><ele>411.0</ele><time>2026-05-03T15:55:09.275Z</time></trkpt><trkpt lat="44.4850167" lon="7.8112317"><ele>411.0</ele><time>2026-05-03T15:55:10.276Z</time></trkpt><trkpt lat="44.4850383" lon="7.8115817"><ele>411.5</ele><time>2026-05-03T15:55:11.275Z</time></trkpt><trkpt lat="44.48505" lon="7.8119267"><ele>412.0</ele><time>2026-05-03T15:55:12.275Z</time></trkpt><trkpt lat="44.4850667" lon="7.8122767"><ele>412.0</ele><time>2026-05-03T15:55:13.275Z</time></trkpt><trkpt lat="44.4850767" lon="7.8126167"><ele>412.0</ele><time>2026-05-03T15:55:14.275Z</time></trkpt><trkpt lat="44.48508" lon="7.812955"><ele>412.0</ele><time>2026-05-03T15:55:15.275Z</time></trkpt><trkpt lat="44.4850783" lon="7.8132967"><ele>412.0</ele><time>2026-05-03T15:55:16.276Z</time></trkpt><trkpt lat="44.4850817" lon="7.81363"><ele>412.0</ele><time>2026-05-03T15:55:17.275Z</time></trkpt><trkpt lat="44.4850833" lon="7.8139333"><ele>412.0</ele><time>2026-05-03T15:55:18.275Z</time></trkpt><trkpt lat="44.4850933" lon="7.8142283"><ele>412.0</ele><time>2026-05-03T15:55:19.275Z</time></trkpt><trkpt lat="44.4850983" lon="7.81453"><ele>411.6666666666667</ele><time>2026-05-03T15:55:20.275Z</time></trkpt><trkpt lat="44.4851" lon="7.8148333"><ele>411.33333333333337</ele><time>2026-05-03T15:55:21.275Z</time></trkpt><trkpt lat="44.4851033" lon="7.8151083"><ele>411.0</ele><time>2026-05-03T15:55:22.275Z</time></trkpt><trkpt lat="44.4851083" lon="7.8153667"><ele>411.0</ele><time>2026-05-03T15:55:23.275Z</time></trkpt><trkpt lat="44.48511" lon="7.8156017"><ele>411.0</ele><time>2026-05-03T15:55:24.275Z</time></trkpt><trkpt lat="44.4851167" lon="7.81584"><ele>411.0</ele><time>2026-05-03T15:55:25.275Z</time></trkpt><trkpt lat="44.48512" lon="7.8160767"><ele>411.33333333333337</ele><time>2026-05-03T15:55:26.275Z</time></trkpt><trkpt lat="44.4851167" lon="7.816305"><ele>411.6666666666667</ele><time>2026-05-03T15:55:27.275Z</time></trkpt><trkpt lat="44.4851183" lon="7.8165233"><ele>412.0</ele><time>2026-05-03T15:55:28.275Z</time></trkpt><trkpt lat="44.4851233" lon="7.81675"><ele>412.0</ele><time>2026-05-03T15:55:29.276Z</time></trkpt><trkpt lat="44.485125" lon="7.8169917"><ele>412.0</ele><time>2026-05-03T15:55:30.275Z</time></trkpt><trkpt lat="44.4851267" lon="7.817245"><ele>412.0</ele><time>2026-05-03T15:55:31.275Z</time></trkpt><trkpt lat="44.4851167" lon="7.8175067"><ele>412.0</ele><time>2026-05-03T15:55:32.275Z</time></trkpt><trkpt lat="44.4850967" lon="7.8177717"><ele>412.0</ele><time>2026-05-03T15:55:33.275Z</time></trkpt><trkpt lat="44.4850617" lon="7.8180517"><ele>412.0</ele><time>2026-05-03T15:55:34.275Z</time></trkpt><trkpt lat="44.48502" lon="7.8183233"><ele>412.33333333333337</ele><time>2026-05-03T15:55:35.275Z</time></trkpt><trkpt lat="44.4849567" lon="7.8185867"><ele>412.66666666666663</ele><time>2026-05-03T15:55:36.275Z</time></trkpt><trkpt lat="44.4848783" lon="7.8188583"><ele>413.0</ele><time>2026-05-03T15:55:37.275Z</time></trkpt><trkpt lat="44.4847883" lon="7.8191267"><ele>413.3333333333333</ele><time>2026-05-03T15:55:38.276Z</time></trkpt><trkpt lat="44.4846883" lon="7.8193933"><ele>413.66666666666663</ele><time>2026-05-03T15:55:39.275Z</time></trkpt><trkpt lat="44.4845783" lon="7.8196483"><ele>414.0</ele><time>2026-05-03T15:55:40.275Z</time></trkpt><trkpt lat="44.484455" lon="7.8198983"><ele>413.33333333333337</ele><time>2026-05-03T15:55:41.275Z</time></trkpt><trkpt lat="44.4843133" lon="7.82013"><ele>412.6666666666667</ele><time>2026-05-03T15:55:42.276Z</time></trkpt><trkpt lat="44.4841583" lon="7.82035"><ele>412.0</ele><time>2026-05-03T15:55:43.275Z</time></trkpt><trkpt lat="44.4839967" lon="7.8205533"><ele>412.0</ele><time>2026-05-03T15:55:44.275Z</time></trkpt><trkpt lat="44.4838417" lon="7.8207367"><ele>412.0</ele><time>2026-05-03T15:55:45.275Z</time></trkpt><trkpt lat="44.483695" lon="7.8209117"><ele>412.0</ele><time>2026-05-03T15:55:46.275Z</time></trkpt><trkpt lat="44.48353" lon="7.82108"><ele>411.33333333333337</ele><time>2026-05-03T15:55:47.275Z</time></trkpt><trkpt lat="44.483365" lon="7.8212367"><ele>410.66666666666663</ele><time>2026-05-03T15:55:48.275Z</time></trkpt><trkpt lat="44.483195" lon="7.8213917"><ele>410.0</ele><time>2026-05-03T15:55:49.275Z</time></trkpt><trkpt lat="44.4830233" lon="7.8215433"><ele>409.66666666666663</ele><time>2026-05-03T15:55:50.275Z</time></trkpt><trkpt lat="44.48285" lon="7.8216867"><ele>409.33333333333337</ele><time>2026-05-03T15:55:51.275Z</time></trkpt><trkpt lat="44.4826717" lon="7.8218267"><ele>409.0</ele><time>2026-05-03T15:55:52.275Z</time></trkpt><trkpt lat="44.4824817" lon="7.8219733"><ele>409.0</ele><time>2026-05-03T15:55:53.276Z</time></trkpt><trkpt lat="44.4822933" lon="7.8221233"><ele>409.0</ele><time>2026-05-03T15:55:54.275Z</time></trkpt><trkpt lat="44.4821067" lon="7.8222667"><ele>409.0</ele><time>2026-05-03T15:55:55.275Z</time></trkpt><trkpt lat="44.4819083" lon="7.8224133"><ele>409.5</ele><time>2026-05-03T15:55:56.275Z</time></trkpt><trkpt lat="44.481705" lon="7.8225617"><ele>410.0</ele><time>2026-05-03T15:55:57.275Z</time></trkpt><trkpt lat="44.4815083" lon="7.8227083"><ele>410.0</ele><time>2026-05-03T15:55:58.275Z</time></trkpt><trkpt lat="44.4813117" lon="7.8228583"><ele>410.0</ele><time>2026-05-03T15:55:59.275Z</time></trkpt><trkpt lat="44.4811133" lon="7.8229983"><ele>410.0</ele><time>2026-05-03T15:56:00.275Z</time></trkpt><trkpt lat="44.480905" lon="7.823145"><ele>409.5</ele><time>2026-05-03T15:56:01.275Z</time></trkpt><trkpt lat="44.480695" lon="7.8232833"><ele>409.0</ele><time>2026-05-03T15:56:02.275Z</time></trkpt><trkpt lat="44.48049" lon="7.8234233"><ele>409.5</ele><time>2026-05-03T15:56:03.275Z</time></trkpt><trkpt lat="44.48028" lon="7.8235717"><ele>410.0</ele><time>2026-05-03T15:56:04.275Z</time></trkpt><trkpt lat="44.48008" lon="7.82372"><ele>410.0</ele><time>2026-05-03T15:56:05.276Z</time></trkpt><trkpt lat="44.4798733" lon="7.8238667"><ele>410.0</ele><time>2026-05-03T15:56:06.276Z</time></trkpt><trkpt lat="44.4796633" lon="7.824005"><ele>409.0</ele><time>2026-05-03T15:56:07.275Z</time></trkpt><trkpt lat="44.4794467" lon="7.8241567"><ele>408.0</ele><time>2026-05-03T15:56:08.275Z</time></trkpt><trkpt lat="44.4792333" lon="7.824305"><ele>407.5</ele><time>2026-05-03T15:56:09.275Z</time></trkpt><trkpt lat="44.4790217" lon="7.8244483"><ele>407.0</ele><time>2026-05-03T15:56:10.275Z</time></trkpt><trkpt lat="44.4788133" lon="7.8245933"><ele>407.5</ele><time>2026-05-03T15:56:11.275Z</time></trkpt><trkpt lat="44.4786017" lon="7.8247467"><ele>408.0</ele><time>2026-05-03T15:56:12.275Z</time></trkpt><trkpt lat="44.4783917" lon="7.8248883"><ele>408.0</ele><time>2026-05-03T15:56:13.276Z</time></trkpt><trkpt lat="44.478175" lon="7.82504"><ele>408.0</ele><time>2026-05-03T15:56:14.275Z</time></trkpt><trkpt lat="44.4779633" lon="7.82519"><ele>408.5</ele><time>2026-05-03T15:56:15.275Z</time></trkpt><trkpt lat="44.4777583" lon="7.8253433"><ele>409.0</ele><time>2026-05-03T15:56:16.275Z</time></trkpt><trkpt lat="44.4775517" lon="7.82549"><ele>409.0</ele><time>2026-05-03T15:56:17.275Z</time></trkpt><trkpt lat="44.4773417" lon="7.8256317"><ele>409.0</ele><time>2026-05-03T15:56:18.275Z</time></trkpt><trkpt lat="44.4771267" lon="7.825785"><ele>408.5</ele><time>2026-05-03T15:56:19.275Z</time></trkpt><trkpt lat="44.47691" lon="7.8259417"><ele>408.0</ele><time>2026-05-03T15:56:20.276Z</time></trkpt><trkpt lat="44.4766967" lon="7.8260833"><ele>407.5</ele><time>2026-05-03T15:56:21.275Z</time></trkpt><trkpt lat="44.47648" lon="7.8262383"><ele>407.0</ele><time>2026-05-03T15:56:22.276Z</time></trkpt><trkpt lat="44.4762667" lon="7.8263883"><ele>408.5</ele><time>2026-05-03T15:56:23.275Z</time></trkpt><trkpt lat="44.4760483" lon="7.826545"><ele>410.0</ele><time>2026-05-03T15:56:24.276Z</time></trkpt><trkpt lat="44.4758233" lon="7.8267083"><ele>410.0</ele><time>2026-05-03T15:56:25.275Z</time></trkpt><trkpt lat="44.4756017" lon="7.8268633"><ele>410.0</ele><time>2026-05-03T15:56:26.275Z</time></trkpt><trkpt lat="44.4753783" lon="7.827015"><ele>410.5</ele><time>2026-05-03T15:56:27.275Z</time></trkpt><trkpt lat="44.4751533" lon="7.8271583"><ele>411.0</ele><time>2026-05-03T15:56:28.276Z</time></trkpt><trkpt lat="44.47493" lon="7.8272933"><ele>411.0</ele><time>2026-05-03T15:56:29.275Z</time></trkpt><trkpt lat="44.4747067" lon="7.8274283"><ele>411.0</ele><time>2026-05-03T15:56:30.275Z</time></trkpt><trkpt lat="44.4744767" lon="7.82756"><ele>408.0</ele><time>2026-05-03T15:56:31.275Z</time></trkpt><trkpt lat="44.474245" lon="7.8276967"><ele>405.0</ele><time>2026-05-03T15:56:32.275Z</time></trkpt><trkpt lat="44.4740133" lon="7.827815"><ele>405.0</ele><time>2026-05-03T15:56:33.275Z</time></trkpt><trkpt lat="44.473785" lon="7.8279333"><ele>405.0</ele><time>2026-05-03T15:56:34.275Z</time></trkpt><trkpt lat="44.473555" lon="7.828045"><ele>405.0</ele><time>2026-05-03T15:56:35.275Z</time></trkpt><trkpt lat="44.4733167" lon="7.8281717"><ele>405.0</ele><time>2026-05-03T15:56:36.275Z</time></trkpt><trkpt lat="44.4730817" lon="7.8282917"><ele>403.5</ele><time>2026-05-03T15:56:37.276Z</time></trkpt><trkpt lat="44.4728467" lon="7.8284067"><ele>402.0</ele><time>2026-05-03T15:56:38.275Z</time></trkpt><trkpt lat="44.4726067" lon="7.8285217"><ele>402.0</ele><time>2026-05-03T15:56:39.275Z</time></trkpt><trkpt lat="44.4723633" lon="7.8286483"><ele>402.0</ele><time>2026-05-03T15:56:40.275Z</time></trkpt><trkpt lat="44.4721233" lon="7.8287717"><ele>402.5</ele><time>2026-05-03T15:56:41.275Z</time></trkpt><trkpt lat="44.4718867" lon="7.8288967"><ele>403.0</ele><time>2026-05-03T15:56:42.275Z</time></trkpt><trkpt lat="44.4716467" lon="7.8290217"><ele>403.0</ele><time>2026-05-03T15:56:43.275Z</time></trkpt><trkpt lat="44.4714133" lon="7.8291483"><ele>403.0</ele><time>2026-05-03T15:56:44.275Z</time></trkpt><trkpt lat="44.4711783" lon="7.8292683"><ele>402.5</ele><time>2026-05-03T15:56:45.276Z</time></trkpt><trkpt lat="44.4709467" lon="7.8293917"><ele>402.0</ele><time>2026-05-03T15:56:46.275Z</time></trkpt><trkpt lat="44.4707067" lon="7.829515"><ele>402.0</ele><time>2026-05-03T15:56:47.275Z</time></trkpt><trkpt lat="44.470465" lon="7.829635"><ele>402.0</ele><time>2026-05-03T15:56:48.275Z</time></trkpt><trkpt lat="44.47023" lon="7.829745"><ele>402.5</ele><time>2026-05-03T15:56:49.275Z</time></trkpt><trkpt lat="44.46999" lon="7.8298667"><ele>403.0</ele><time>2026-05-03T15:56:50.275Z</time></trkpt><trkpt lat="44.4697517" lon="7.8299917"><ele>399.5</ele><time>2026-05-03T15:56:51.275Z</time></trkpt><trkpt lat="44.469515" lon="7.8301167"><ele>396.0</ele><time>2026-05-03T15:56:52.275Z</time></trkpt><trkpt lat="44.4692733" lon="7.83024"><ele>393.0</ele><time>2026-05-03T15:56:53.275Z</time></trkpt><trkpt lat="44.469035" lon="7.8303667"><ele>390.0</ele><time>2026-05-03T15:56:54.276Z</time></trkpt><trkpt lat="44.4688017" lon="7.830495"><ele>387.0</ele><time>2026-05-03T15:56:55.275Z</time></trkpt><trkpt lat="44.468565" lon="7.8306183"><ele>384.0</ele><time>2026-05-03T15:56:56.275Z</time></trkpt><trkpt lat="44.46832" lon="7.8307467"><ele>384.0</ele><time>2026-05-03T15:56:57.275Z</time></trkpt><trkpt lat="44.468075" lon="7.8308717"><ele>384.0</ele><time>2026-05-03T15:56:58.275Z</time></trkpt><trkpt lat="44.4678367" lon="7.831"><ele>380.5</ele><time>2026-05-03T15:56:59.276Z</time></trkpt><trkpt lat="44.4675983" lon="7.8311117"><ele>377.0</ele><time>2026-05-03T15:57:00.275Z</time></trkpt><trkpt lat="44.4673617" lon="7.8312383"><ele>377.0</ele><time>2026-05-03T15:57:01.275Z</time></trkpt><trkpt lat="44.4671267" lon="7.8313533"><ele>377.0</ele><time>2026-05-03T15:57:02.275Z</time></trkpt><trkpt lat="44.4668883" lon="7.8314683"><ele>376.5</ele><time>2026-05-03T15:57:03.275Z</time></trkpt><trkpt lat="44.4666567" lon="7.8315817"><ele>376.0</ele><time>2026-05-03T15:57:04.275Z</time></trkpt><trkpt lat="44.4664283" lon="7.8316933"><ele>376.0</ele><time>2026-05-03T15:57:05.275Z</time></trkpt><trkpt lat="44.4662" lon="7.8318033"><ele>376.0</ele><time>2026-05-03T15:57:06.275Z</time></trkpt><trkpt lat="44.46598" lon="7.8319183"><ele>375.5</ele><time>2026-05-03T15:57:07.275Z</time></trkpt><trkpt lat="44.46576" lon="7.832035"><ele>375.0</ele><time>2026-05-03T15:57:08.276Z</time></trkpt><trkpt lat="44.465545" lon="7.832155"><ele>375.0</ele><time>2026-05-03T15:57:09.275Z</time></trkpt><trkpt lat="44.4653333" lon="7.832255"><ele>375.0</ele><time>2026-05-03T15:57:10.275Z</time></trkpt><trkpt lat="44.4651283" lon="7.8323467"><ele>375.0</ele><time>2026-05-03T15:57:11.275Z</time></trkpt><trkpt lat="44.46493" lon="7.8324417"><ele>375.0</ele><time>2026-05-03T15:57:12.275Z</time></trkpt><trkpt lat="44.46474" lon="7.8325367"><ele>375.0</ele><time>2026-05-03T15:57:13.275Z</time></trkpt><trkpt lat="44.4645583" lon="7.83262"><ele>375.0</ele><time>2026-05-03T15:57:14.275Z</time></trkpt><trkpt lat="44.464385" lon="7.8327017"><ele>374.6666666666667</ele><time>2026-05-03T15:57:15.275Z</time></trkpt><trkpt lat="44.4642283" lon="7.83279"><ele>374.33333333333337</ele><time>2026-05-03T15:57:16.275Z</time></trkpt><trkpt lat="44.4640683" lon="7.8328683"><ele>374.0</ele><time>2026-05-03T15:57:17.275Z</time></trkpt><trkpt lat="44.4639167" lon="7.8329383"><ele>373.75</ele><time>2026-05-03T15:57:18.275Z</time></trkpt><trkpt lat="44.46377" lon="7.8330033"><ele>373.5</ele><time>2026-05-03T15:57:19.275Z</time></trkpt><trkpt lat="44.463635" lon="7.8330633"><ele>373.25</ele><time>2026-05-03T15:57:20.275Z</time></trkpt><trkpt lat="44.4635017" lon="7.8330967"><ele>373.0</ele><time>2026-05-03T15:57:21.275Z</time></trkpt><trkpt lat="44.4633983" lon="7.8330933"><ele>373.0</ele><time>2026-05-03T15:57:22.275Z</time></trkpt><trkpt lat="44.4632767" lon="7.83307"><ele>373.0</ele><time>2026-05-03T15:57:23.275Z</time></trkpt><trkpt lat="44.4631783" lon="7.8329917"><ele>373.0</ele><time>2026-05-03T15:57:24.275Z</time></trkpt><trkpt lat="44.4631117" lon="7.83287"><ele>373.0</ele><time>2026-05-03T15:57:25.275Z</time></trkpt><trkpt lat="44.4630683" lon="7.832715"><ele>373.25</ele><time>2026-05-03T15:57:26.275Z</time></trkpt><trkpt lat="44.4630517" lon="7.8325467"><ele>373.5</ele><time>2026-05-03T15:57:27.275Z</time></trkpt><trkpt lat="44.463095" lon="7.8323867"><ele>373.75</ele><time>2026-05-03T15:57:28.275Z</time></trkpt><trkpt lat="44.463175" lon="7.8322417"><ele>374.0</ele><time>2026-05-03T15:57:29.275Z</time></trkpt><trkpt lat="44.4632767" lon="7.8321367"><ele>374.0</ele><time>2026-05-03T15:57:30.275Z</time></trkpt><trkpt lat="44.4634067" lon="7.83207"><ele>374.0</ele><time>2026-05-03T15:57:31.275Z</time></trkpt><trkpt lat="44.4635383" lon="7.8320333"><ele>374.0</ele><time>2026-05-03T15:57:32.275Z</time></trkpt><trkpt lat="44.4636783" lon="7.83201"><ele>374.0</ele><time>2026-05-03T15:57:33.275Z</time></trkpt><trkpt lat="44.4638283" lon="7.83198"><ele>374.0</ele><time>2026-05-03T15:57:34.275Z</time></trkpt><trkpt lat="44.4639767" lon="7.83194"><ele>374.0</ele><time>2026-05-03T15:57:35.275Z</time></trkpt><trkpt lat="44.4641367" lon="7.8319"><ele>374.0</ele><time>2026-05-03T15:57:36.276Z</time></trkpt><trkpt lat="44.4642983" lon="7.8318533"><ele>374.0</ele><time>2026-05-03T15:57:37.275Z</time></trkpt><trkpt lat="44.4644583" lon="7.8318133"><ele>374.0</ele><time>2026-05-03T15:57:38.275Z</time></trkpt><trkpt lat="44.4646083" lon="7.8317817"><ele>374.0</ele><time>2026-05-03T15:57:39.275Z</time></trkpt><trkpt lat="44.4647517" lon="7.8317433"><ele>373.75</ele><time>2026-05-03T15:57:40.275Z</time></trkpt><trkpt lat="44.4649" lon="7.8317"><ele>373.5</ele><time>2026-05-03T15:57:41.275Z</time></trkpt><trkpt lat="44.4650383" lon="7.8316683"><ele>373.25</ele><time>2026-05-03T15:57:42.275Z</time></trkpt><trkpt lat="44.46518" lon="7.8316767"><ele>373.0</ele><time>2026-05-03T15:57:43.275Z</time></trkpt><trkpt lat="44.465315" lon="7.8317283"><ele>373.5</ele><time>2026-05-03T15:57:44.275Z</time></trkpt><trkpt lat="44.4654467" lon="7.8318283"><ele>374.0</ele><time>2026-05-03T15:57:45.275Z</time></trkpt><trkpt lat="44.4655417" lon="7.8319783"><ele>374.5</ele><time>2026-05-03T15:57:46.275Z</time></trkpt><trkpt lat="44.465615" lon="7.8321467"><ele>375.0</ele><time>2026-05-03T15:57:47.275Z</time></trkpt><trkpt lat="44.4656783" lon="7.83229"><ele>375.0</ele><time>2026-05-03T15:57:48.275Z</time></trkpt><trkpt lat="44.4657033" lon="7.83246"><ele>375.0</ele><time>2026-05-03T15:57:49.275Z</time></trkpt><trkpt lat="44.46568" lon="7.8326367"><ele>375.0</ele><time>2026-05-03T15:57:50.275Z</time></trkpt><trkpt lat="44.4656433" lon="7.83278"><ele>375.0</ele><time>2026-05-03T15:57:51.275Z</time></trkpt><trkpt lat="44.4656117" lon="7.8328917"><ele>375.0</ele><time>2026-05-03T15:57:52.275Z</time></trkpt><trkpt lat="44.46558" lon="7.8329883"><ele>374.8333333333333</ele><time>2026-05-03T15:57:53.275Z</time></trkpt><trkpt lat="44.4655483" lon="7.83308"><ele>374.6666666666667</ele><time>2026-05-03T15:57:54.275Z</time></trkpt><trkpt lat="44.46553" lon="7.8331767"><ele>374.5</ele><time>2026-05-03T15:57:55.275Z</time></trkpt><trkpt lat="44.4655233" lon="7.8332817"><ele>374.33333333333337</ele><time>2026-05-03T15:57:56.275Z</time></trkpt><trkpt lat="44.4655233" lon="7.8333983"><ele>374.1666666666667</ele><time>2026-05-03T15:57:57.275Z</time></trkpt><trkpt lat="44.4655483" lon="7.8335383"><ele>374.0</ele><time>2026-05-03T15:57:58.275Z</time></trkpt><trkpt lat="44.46559" lon="7.8336833"><ele>374.0</ele><time>2026-05-03T15:57:59.275Z</time></trkpt><trkpt lat="44.4656333" lon="7.8338183"><ele>374.0</ele><time>2026-05-03T15:58:00.275Z</time></trkpt><trkpt lat="44.46568" lon="7.8339517"><ele>374.0</ele><time>2026-05-03T15:58:01.275Z</time></trkpt><trkpt lat="44.4657267" lon="7.8340717"><ele>374.0</ele><time>2026-05-03T15:58:02.275Z</time></trkpt><trkpt lat="44.4657783" lon="7.8341733"><ele>374.0</ele><time>2026-05-03T15:58:03.276Z</time></trkpt><trkpt lat="44.46583" lon="7.83425"><ele>374.0</ele><time>2026-05-03T15:58:04.276Z</time></trkpt><trkpt lat="44.46594" lon="7.834285"><ele>374.0</ele><time>2026-05-03T15:58:06.276Z</time></trkpt><trkpt lat="44.466" lon="7.8342533"><ele>374.0</ele><time>2026-05-03T15:58:07.275Z</time></trkpt><trkpt lat="44.466065" lon="7.8341983"><ele>374.0</ele><time>2026-05-03T15:58:08.275Z</time></trkpt><trkpt lat="44.4661233" lon="7.8341467"><ele>374.0</ele><time>2026-05-03T15:58:09.275Z</time></trkpt><trkpt lat="44.4661817" lon="7.8341"><ele>374.0</ele><time>2026-05-03T15:58:10.275Z</time></trkpt><trkpt lat="44.46628" lon="7.8340217"><ele>374.0</ele><time>2026-05-03T15:58:12.275Z</time></trkpt><trkpt lat="44.4663383" lon="7.8339767"><ele>374.0</ele><time>2026-05-03T15:58:15.275Z</time></trkpt><trkpt lat="44.466425" lon="7.8339167"><ele>374.0</ele><time>2026-05-03T15:58:43.275Z</time></trkpt><trkpt lat="44.4665167" lon="7.83388"><ele>374.0</ele><time>2026-05-03T15:58:45.275Z</time></trkpt><trkpt lat="44.4666167" lon="7.8338567"><ele>374.0</ele><time>2026-05-03T15:58:47.275Z</time></trkpt><trkpt lat="44.4667133" lon="7.83386"><ele>374.0</ele><time>2026-05-03T15:58:49.275Z</time></trkpt><trkpt lat="44.466805" lon="7.833865"><ele>374.0</ele><time>2026-05-03T15:58:51.275Z</time></trkpt><trkpt lat="44.4668767" lon="7.8338533"><ele>374.0</ele><time>2026-05-03T15:59:12.275Z</time></trkpt><trkpt lat="44.46694" lon="7.83385"><ele>374.0</ele><time>2026-05-03T15:59:14.276Z</time></trkpt><trkpt lat="44.4670117" lon="7.83386"><ele>374.0</ele><time>2026-05-03T15:59:17.275Z</time></trkpt><trkpt lat="44.4670833" lon="7.83391"><ele>374.0</ele><time>2026-05-03T15:59:19.275Z</time></trkpt><trkpt lat="44.4671333" lon="7.833965"><ele>374.0</ele><time>2026-05-03T15:59:20.275Z</time></trkpt><trkpt lat="44.4671883" lon="7.8340383"><ele>373.75</ele><time>2026-05-03T15:59:21.275Z</time></trkpt><trkpt lat="44.4672467" lon="7.8341333"><ele>373.5</ele><time>2026-05-03T15:59:22.275Z</time></trkpt><trkpt lat="44.4673133" lon="7.834245"><ele>373.25</ele><time>2026-05-03T15:59:23.275Z</time></trkpt><trkpt lat="44.4673917" lon="7.8343833"><ele>373.0</ele><time>2026-05-03T15:59:24.275Z</time></trkpt><trkpt lat="44.4674867" lon="7.834535"><ele>373.0</ele><time>2026-05-03T15:59:25.275Z</time></trkpt><trkpt lat="44.4675883" lon="7.8346883"><ele>373.0</ele><time>2026-05-03T15:59:26.275Z</time></trkpt><trkpt lat="44.46769" lon="7.8348517"><ele>373.0</ele><time>2026-05-03T15:59:27.276Z</time></trkpt><trkpt lat="44.4678" lon="7.8350217"><ele>372.66666666666663</ele><time>2026-05-03T15:59:28.276Z</time></trkpt><trkpt lat="44.4679167" lon="7.8352033"><ele>372.3333333333333</ele><time>2026-05-03T15:59:29.275Z</time></trkpt><trkpt lat="44.4680433" lon="7.8353867"><ele>372.0</ele><time>2026-05-03T15:59:30.275Z</time></trkpt><trkpt lat="44.468165" lon="7.83558"><ele>372.0</ele><time>2026-05-03T15:59:31.276Z</time></trkpt><trkpt lat="44.4682933" lon="7.835785"><ele>372.0</ele><time>2026-05-03T15:59:32.275Z</time></trkpt><trkpt lat="44.4684217" lon="7.8359917"><ele>372.0</ele><time>2026-05-03T15:59:33.275Z</time></trkpt><trkpt lat="44.4685533" lon="7.8362"><ele>372.3333333333333</ele><time>2026-05-03T15:59:34.275Z</time></trkpt><trkpt lat="44.468685" lon="7.8364217"><ele>372.66666666666663</ele><time>2026-05-03T15:59:35.275Z</time></trkpt><trkpt lat="44.4688167" lon="7.8366333"><ele>373.0</ele><time>2026-05-03T15:59:36.276Z</time></trkpt><trkpt lat="44.4689533" lon="7.83685"><ele>372.3333333333333</ele><time>2026-05-03T15:59:37.276Z</time></trkpt><trkpt lat="44.4690867" lon="7.8370733"><ele>371.6666666666667</ele><time>2026-05-03T15:59:38.275Z</time></trkpt><trkpt lat="44.4692267" lon="7.837295"><ele>371.0</ele><time>2026-05-03T15:59:39.275Z</time></trkpt><trkpt lat="44.4693633" lon="7.837515"><ele>371.0</ele><time>2026-05-03T15:59:40.275Z</time></trkpt><trkpt lat="44.4695" lon="7.8377433"><ele>371.0</ele><time>2026-05-03T15:59:41.275Z</time></trkpt><trkpt lat="44.46964" lon="7.8379533"><ele>371.0</ele><time>2026-05-03T15:59:42.276Z</time></trkpt><trkpt lat="44.46977" lon="7.8381633"><ele>371.0</ele><time>2026-05-03T15:59:43.275Z</time></trkpt><trkpt lat="44.469895" lon="7.838375"><ele>371.0</ele><time>2026-05-03T15:59:44.275Z</time></trkpt><trkpt lat="44.4700067" lon="7.8386017"><ele>371.0</ele><time>2026-05-03T15:59:45.275Z</time></trkpt><trkpt lat="44.4701167" lon="7.83882"><ele>371.0</ele><time>2026-05-03T15:59:46.275Z</time></trkpt><trkpt lat="44.470225" lon="7.83905"><ele>371.0</ele><time>2026-05-03T15:59:47.275Z</time></trkpt><trkpt lat="44.47033" lon="7.83928"><ele>371.0</ele><time>2026-05-03T15:59:48.276Z</time></trkpt><trkpt lat="44.4704283" lon="7.8395033"><ele>371.0</ele><time>2026-05-03T15:59:49.275Z</time></trkpt><trkpt lat="44.4705233" lon="7.8397283"><ele>371.0</ele><time>2026-05-03T15:59:50.275Z</time></trkpt><trkpt lat="44.4706117" lon="7.8399533"><ele>371.0</ele><time>2026-05-03T15:59:51.275Z</time></trkpt><trkpt lat="44.4706867" lon="7.84019"><ele>370.6666666666667</ele><time>2026-05-03T15:59:52.275Z</time></trkpt><trkpt lat="44.4707617" lon="7.8404217"><ele>370.3333333333333</ele><time>2026-05-03T15:59:53.275Z</time></trkpt><trkpt lat="44.4708283" lon="7.84066"><ele>370.0</ele><time>2026-05-03T15:59:54.275Z</time></trkpt><trkpt lat="44.470895" lon="7.84089"><ele>369.66666666666663</ele><time>2026-05-03T15:59:55.275Z</time></trkpt><trkpt lat="44.47095" lon="7.8411283"><ele>369.3333333333333</ele><time>2026-05-03T15:59:56.276Z</time></trkpt><trkpt lat="44.4710017" lon="7.84137"><ele>369.0</ele><time>2026-05-03T15:59:57.276Z</time></trkpt><trkpt lat="44.4710417" lon="7.8416167"><ele>369.0</ele><time>2026-05-03T15:59:58.275Z</time></trkpt><trkpt lat="44.4710683" lon="7.841875"><ele>369.0</ele><time>2026-05-03T15:59:59.275Z</time></trkpt><trkpt lat="44.471105" lon="7.8421267"><ele>369.0</ele><time>2026-05-03T16:00:00.275Z</time></trkpt><trkpt lat="44.4711383" lon="7.8423867"><ele>368.6666666666667</ele><time>2026-05-03T16:00:01.276Z</time></trkpt><trkpt lat="44.47117" lon="7.8426417"><ele>368.33333333333337</ele><time>2026-05-03T16:00:02.276Z</time></trkpt><trkpt lat="44.4712033" lon="7.84291"><ele>368.0</ele><time>2026-05-03T16:00:03.275Z</time></trkpt><trkpt lat="44.471235" lon="7.84318"><ele>368.0</ele><time>2026-05-03T16:00:04.275Z</time></trkpt><trkpt lat="44.4712667" lon="7.8434483"><ele>368.0</ele><time>2026-05-03T16:00:05.275Z</time></trkpt><trkpt lat="44.471295" lon="7.8437167"><ele>368.0</ele><time>2026-05-03T16:00:06.276Z</time></trkpt><trkpt lat="44.471325" lon="7.8439683"><ele>368.0</ele><time>2026-05-03T16:00:07.275Z</time></trkpt><trkpt lat="44.47136" lon="7.8442117"><ele>368.0</ele><time>2026-05-03T16:00:08.275Z</time></trkpt><trkpt lat="44.471405" lon="7.8444583"><ele>368.0</ele><time>2026-05-03T16:00:09.275Z</time></trkpt><trkpt lat="44.4714683" lon="7.8447"><ele>368.0</ele><time>2026-05-03T16:00:10.276Z</time></trkpt><trkpt lat="44.4715517" lon="7.8449283"><ele>368.0</ele><time>2026-05-03T16:00:11.275Z</time></trkpt><trkpt lat="44.471655" lon="7.845155"><ele>368.0</ele><time>2026-05-03T16:00:12.275Z</time></trkpt><trkpt lat="44.4717667" lon="7.8453767"><ele>367.6666666666667</ele><time>2026-05-03T16:00:13.276Z</time></trkpt><trkpt lat="44.4718717" lon="7.8456067"><ele>367.3333333333333</ele><time>2026-05-03T16:00:14.275Z</time></trkpt><trkpt lat="44.471975" lon="7.8458317"><ele>367.0</ele><time>2026-05-03T16:00:15.275Z</time></trkpt><trkpt lat="44.4720717" lon="7.84606"><ele>366.3333333333333</ele><time>2026-05-03T16:00:16.276Z</time></trkpt><trkpt lat="44.4721817" lon="7.8462717"><ele>365.6666666666667</ele><time>2026-05-03T16:00:17.275Z</time></trkpt><trkpt lat="44.47228" lon="7.8464833"><ele>365.0</ele><time>2026-05-03T16:00:18.275Z</time></trkpt><trkpt lat="44.4723633" lon="7.8467"><ele>365.6666666666667</ele><time>2026-05-03T16:00:19.275Z</time></trkpt><trkpt lat="44.4724433" lon="7.8469033"><ele>366.3333333333333</ele><time>2026-05-03T16:00:20.276Z</time></trkpt><trkpt lat="44.4725067" lon="7.847115"><ele>367.0</ele><time>2026-05-03T16:00:21.275Z</time></trkpt><trkpt lat="44.4725767" lon="7.8473333"><ele>367.0</ele><time>2026-05-03T16:00:22.275Z</time></trkpt><trkpt lat="44.4726367" lon="7.84755"><ele>367.0</ele><time>2026-05-03T16:00:23.274Z</time></trkpt><trkpt lat="44.4726817" lon="7.8477533"><ele>367.0</ele><time>2026-05-03T16:00:24.275Z</time></trkpt><trkpt lat="44.472725" lon="7.8479467"><ele>367.5</ele><time>2026-05-03T16:00:25.275Z</time></trkpt><trkpt lat="44.4727633" lon="7.8481333"><ele>368.0</ele><time>2026-05-03T16:00:26.274Z</time></trkpt><trkpt lat="44.472805" lon="7.8483067"><ele>368.5</ele><time>2026-05-03T16:00:27.274Z</time></trkpt><trkpt lat="44.4728483" lon="7.8484833"><ele>369.0</ele><time>2026-05-03T16:00:28.274Z</time></trkpt><trkpt lat="44.4728917" lon="7.8486683"><ele>369.0</ele><time>2026-05-03T16:00:29.274Z</time></trkpt><trkpt lat="44.472935" lon="7.84886"><ele>369.0</ele><time>2026-05-03T16:00:30.275Z</time></trkpt><trkpt lat="44.4729817" lon="7.8490417"><ele>369.0</ele><time>2026-05-03T16:00:31.274Z</time></trkpt><trkpt lat="44.47303" lon="7.8492267"><ele>369.0</ele><time>2026-05-03T16:00:32.274Z</time></trkpt><trkpt lat="44.4730783" lon="7.84942"><ele>369.3333333333333</ele><time>2026-05-03T16:00:33.274Z</time></trkpt><trkpt lat="44.4731267" lon="7.849625"><ele>369.66666666666663</ele><time>2026-05-03T16:00:34.274Z</time></trkpt><trkpt lat="44.4731767" lon="7.849835"><ele>370.0</ele><time>2026-05-03T16:00:35.274Z</time></trkpt><trkpt lat="44.4732267" lon="7.8500633"><ele>370.3333333333333</ele><time>2026-05-03T16:00:36.274Z</time></trkpt><trkpt lat="44.47327" lon="7.8502967"><ele>370.6666666666667</ele><time>2026-05-03T16:00:37.274Z</time></trkpt><trkpt lat="44.4733167" lon="7.85052"><ele>371.0</ele><time>2026-05-03T16:00:38.274Z</time></trkpt><trkpt lat="44.4733617" lon="7.8507383"><ele>371.0</ele><time>2026-05-03T16:00:39.274Z</time></trkpt><trkpt lat="44.4733983" lon="7.850955"><ele>371.0</ele><time>2026-05-03T16:00:40.274Z</time></trkpt><trkpt lat="44.4734433" lon="7.851165"><ele>371.0</ele><time>2026-05-03T16:00:41.274Z</time></trkpt><trkpt lat="44.47348" lon="7.8513717"><ele>370.75</ele><time>2026-05-03T16:00:42.274Z</time></trkpt><trkpt lat="44.473515" lon="7.8515717"><ele>370.5</ele><time>2026-05-03T16:00:43.274Z</time></trkpt><trkpt lat="44.47355" lon="7.85176"><ele>370.25</ele><time>2026-05-03T16:00:44.274Z</time></trkpt><trkpt lat="44.4735833" lon="7.8519467"><ele>370.0</ele><time>2026-05-03T16:00:45.274Z</time></trkpt><trkpt lat="44.4736133" lon="7.8521217"><ele>369.5</ele><time>2026-05-03T16:00:46.275Z</time></trkpt><trkpt lat="44.4736417" lon="7.8522917"><ele>369.0</ele><time>2026-05-03T16:00:47.274Z</time></trkpt><trkpt lat="44.4736683" lon="7.852465"><ele>368.5</ele><time>2026-05-03T16:00:48.274Z</time></trkpt><trkpt lat="44.4737" lon="7.8526483"><ele>368.0</ele><time>2026-05-03T16:00:49.274Z</time></trkpt><trkpt lat="44.4737417" lon="7.8528533"><ele>368.0</ele><time>2026-05-03T16:00:50.274Z</time></trkpt><trkpt lat="44.473775" lon="7.8530783"><ele>368.0</ele><time>2026-05-03T16:00:51.274Z</time></trkpt><trkpt lat="44.4738017" lon="7.8533017"><ele>368.0</ele><time>2026-05-03T16:00:52.274Z</time></trkpt><trkpt lat="44.4738083" lon="7.85352"><ele>368.0</ele><time>2026-05-03T16:00:53.274Z</time></trkpt><trkpt lat="44.4738217" lon="7.8537167"><ele>368.0</ele><time>2026-05-03T16:00:54.274Z</time></trkpt><trkpt lat="44.473835" lon="7.8538917"><ele>368.0</ele><time>2026-05-03T16:00:55.274Z</time></trkpt><trkpt lat="44.4738517" lon="7.8540517"><ele>368.0</ele><time>2026-05-03T16:00:56.274Z</time></trkpt><trkpt lat="44.4738667" lon="7.854215"><ele>368.25</ele><time>2026-05-03T16:00:57.274Z</time></trkpt><trkpt lat="44.473875" lon="7.8543883"><ele>368.5</ele><time>2026-05-03T16:00:58.274Z</time></trkpt><trkpt lat="44.47388" lon="7.8545833"><ele>368.75</ele><time>2026-05-03T16:00:59.274Z</time></trkpt><trkpt lat="44.4738917" lon="7.8547983"><ele>369.0</ele><time>2026-05-03T16:01:00.274Z</time></trkpt><trkpt lat="44.4738967" lon="7.8550317"><ele>368.6666666666667</ele><time>2026-05-03T16:01:01.274Z</time></trkpt><trkpt lat="44.4739033" lon="7.855275"><ele>368.33333333333337</ele><time>2026-05-03T16:01:02.274Z</time></trkpt><trkpt lat="44.4739067" lon="7.85552"><ele>368.0</ele><time>2026-05-03T16:01:03.274Z</time></trkpt><trkpt lat="44.47391" lon="7.85577"><ele>367.6666666666667</ele><time>2026-05-03T16:01:04.275Z</time></trkpt><trkpt lat="44.4739217" lon="7.85602"><ele>367.3333333333333</ele><time>2026-05-03T16:01:05.274Z</time></trkpt><trkpt lat="44.47393" lon="7.8562717"><ele>367.0</ele><time>2026-05-03T16:01:06.275Z</time></trkpt><trkpt lat="44.4739383" lon="7.856515"><ele>367.0</ele><time>2026-05-03T16:01:07.274Z</time></trkpt><trkpt lat="44.4739483" lon="7.85675"><ele>367.0</ele><time>2026-05-03T16:01:08.274Z</time></trkpt><trkpt lat="44.4739567" lon="7.8569883"><ele>367.0</ele><time>2026-05-03T16:01:09.274Z</time></trkpt><trkpt lat="44.47397" lon="7.8572283"><ele>366.66666666666663</ele><time>2026-05-03T16:01:10.274Z</time></trkpt><trkpt lat="44.4739817" lon="7.857465"><ele>366.3333333333333</ele><time>2026-05-03T16:01:11.274Z</time></trkpt><trkpt lat="44.473995" lon="7.8577117"><ele>366.0</ele><time>2026-05-03T16:01:12.274Z</time></trkpt><trkpt lat="44.4740033" lon="7.8579483"><ele>365.6666666666667</ele><time>2026-05-03T16:01:13.274Z</time></trkpt><trkpt lat="44.474015" lon="7.8582"><ele>365.33333333333337</ele><time>2026-05-03T16:01:14.274Z</time></trkpt><trkpt lat="44.4740283" lon="7.85845"><ele>365.0</ele><time>2026-05-03T16:01:15.274Z</time></trkpt><trkpt lat="44.4740333" lon="7.8586983"><ele>365.0</ele><time>2026-05-03T16:01:16.275Z</time></trkpt><trkpt lat="44.474045" lon="7.8589517"><ele>365.0</ele><time>2026-05-03T16:01:17.274Z</time></trkpt><trkpt lat="44.4740667" lon="7.8592067"><ele>365.0</ele><time>2026-05-03T16:01:18.275Z</time></trkpt><trkpt lat="44.4740967" lon="7.8594533"><ele>365.0</ele><time>2026-05-03T16:01:19.274Z</time></trkpt><trkpt lat="44.4741417" lon="7.8597033"><ele>365.0</ele><time>2026-05-03T16:01:20.275Z</time></trkpt><trkpt lat="44.4741883" lon="7.859955"><ele>365.0</ele><time>2026-05-03T16:01:21.274Z</time></trkpt><trkpt lat="44.4742533" lon="7.8601933"><ele>364.6666666666667</ele><time>2026-05-03T16:01:22.274Z</time></trkpt><trkpt lat="44.474315" lon="7.8604317"><ele>364.3333333333333</ele><time>2026-05-03T16:01:23.275Z</time></trkpt><trkpt lat="44.474385" lon="7.8606583"><ele>364.0</ele><time>2026-05-03T16:01:24.275Z</time></trkpt><trkpt lat="44.474465" lon="7.86088"><ele>364.0</ele><time>2026-05-03T16:01:25.274Z</time></trkpt><trkpt lat="44.4745483" lon="7.861105"><ele>364.0</ele><time>2026-05-03T16:01:26.274Z</time></trkpt><trkpt lat="44.474645" lon="7.8613167"><ele>364.0</ele><time>2026-05-03T16:01:27.275Z</time></trkpt><trkpt lat="44.4747567" lon="7.86152"><ele>364.0</ele><time>2026-05-03T16:01:28.274Z</time></trkpt><trkpt lat="44.47487" lon="7.861715"><ele>364.0</ele><time>2026-05-03T16:01:29.274Z</time></trkpt><trkpt lat="44.4749917" lon="7.8618983"><ele>364.0</ele><time>2026-05-03T16:01:30.274Z</time></trkpt><trkpt lat="44.4751283" lon="7.8620833"><ele>364.0</ele><time>2026-05-03T16:01:31.274Z</time></trkpt><trkpt lat="44.475255" lon="7.8622733"><ele>364.0</ele><time>2026-05-03T16:01:32.274Z</time></trkpt><trkpt lat="44.4753783" lon="7.8624567"><ele>364.0</ele><time>2026-05-03T16:01:33.274Z</time></trkpt><trkpt lat="44.4755033" lon="7.8626417"><ele>364.3333333333333</ele><time>2026-05-03T16:01:34.274Z</time></trkpt><trkpt lat="44.4756267" lon="7.8628317"><ele>364.6666666666667</ele><time>2026-05-03T16:01:35.275Z</time></trkpt><trkpt lat="44.4757583" lon="7.863015"><ele>365.0</ele><time>2026-05-03T16:01:36.274Z</time></trkpt><trkpt lat="44.475885" lon="7.8632083"><ele>365.0</ele><time>2026-05-03T16:01:37.274Z</time></trkpt><trkpt lat="44.47601" lon="7.8633967"><ele>365.0</ele><time>2026-05-03T16:01:38.275Z</time></trkpt><trkpt lat="44.4761383" lon="7.863585"><ele>365.0</ele><time>2026-05-03T16:01:39.274Z</time></trkpt><trkpt lat="44.4762633" lon="7.863785"><ele>365.0</ele><time>2026-05-03T16:01:40.274Z</time></trkpt><trkpt lat="44.476395" lon="7.8639717"><ele>365.0</ele><time>2026-05-03T16:01:41.275Z</time></trkpt><trkpt lat="44.4765217" lon="7.8641583"><ele>365.0</ele><time>2026-05-03T16:01:42.275Z</time></trkpt><trkpt lat="44.4766533" lon="7.8643483"><ele>364.33333333333337</ele><time>2026-05-03T16:01:43.274Z</time></trkpt><trkpt lat="44.4767783" lon="7.8645383"><ele>363.6666666666667</ele><time>2026-05-03T16:01:44.274Z</time></trkpt><trkpt lat="44.4769" lon="7.8647217"><ele>363.0</ele><time>2026-05-03T16:01:45.274Z</time></trkpt><trkpt lat="44.477025" lon="7.8648983"><ele>363.3333333333333</ele><time>2026-05-03T16:01:46.274Z</time></trkpt><trkpt lat="44.4771483" lon="7.8650817"><ele>363.66666666666663</ele><time>2026-05-03T16:01:47.274Z</time></trkpt><trkpt lat="44.4772733" lon="7.8652483"><ele>364.0</ele><time>2026-05-03T16:01:48.274Z</time></trkpt><trkpt lat="44.4774083" lon="7.8654217"><ele>364.0</ele><time>2026-05-03T16:01:49.274Z</time></trkpt><trkpt lat="44.47754" lon="7.8655817"><ele>364.0</ele><time>2026-05-03T16:01:50.274Z</time></trkpt><trkpt lat="44.477675" lon="7.865755"><ele>364.0</ele><time>2026-05-03T16:01:51.274Z</time></trkpt><trkpt lat="44.47782" lon="7.86592"><ele>363.3333333333333</ele><time>2026-05-03T16:01:52.274Z</time></trkpt><trkpt lat="44.4779483" lon="7.8661"><ele>362.6666666666667</ele><time>2026-05-03T16:01:53.274Z</time></trkpt><trkpt lat="44.4780767" lon="7.8662683"><ele>362.0</ele><time>2026-05-03T16:01:54.274Z</time></trkpt><trkpt lat="44.4782083" lon="7.8664333"><ele>362.0</ele><time>2026-05-03T16:01:55.274Z</time></trkpt><trkpt lat="44.47834" lon="7.8666"><ele>362.0</ele><time>2026-05-03T16:01:56.275Z</time></trkpt><trkpt lat="44.4784767" lon="7.8667733"><ele>362.0</ele><time>2026-05-03T16:01:57.274Z</time></trkpt><trkpt lat="44.4786133" lon="7.86695"><ele>362.0</ele><time>2026-05-03T16:01:58.274Z</time></trkpt><trkpt lat="44.47875" lon="7.8671267"><ele>362.0</ele><time>2026-05-03T16:01:59.274Z</time></trkpt><trkpt lat="44.478875" lon="7.86729"><ele>362.0</ele><time>2026-05-03T16:02:00.274Z</time></trkpt><trkpt lat="44.4790067" lon="7.8674483"><ele>362.0</ele><time>2026-05-03T16:02:01.274Z</time></trkpt><trkpt lat="44.4791233" lon="7.8676"><ele>362.0</ele><time>2026-05-03T16:02:02.275Z</time></trkpt><trkpt lat="44.4792317" lon="7.86775"><ele>362.0</ele><time>2026-05-03T16:02:03.274Z</time></trkpt><trkpt lat="44.4793333" lon="7.8678783"><ele>362.0</ele><time>2026-05-03T16:02:04.274Z</time></trkpt><trkpt lat="44.479425" lon="7.868"><ele>362.0</ele><time>2026-05-03T16:02:05.274Z</time></trkpt><trkpt lat="44.4795" lon="7.86812"><ele>362.0</ele><time>2026-05-03T16:02:06.274Z</time></trkpt><trkpt lat="44.4795617" lon="7.8682417"><ele>362.0</ele><time>2026-05-03T16:02:07.274Z</time></trkpt><trkpt lat="44.4796167" lon="7.8683633"><ele>362.0</ele><time>2026-05-03T16:02:08.274Z</time></trkpt><trkpt lat="44.4796717" lon="7.8684733"><ele>362.0</ele><time>2026-05-03T16:02:09.274Z</time></trkpt><trkpt lat="44.47974" lon="7.8685767"><ele>362.25</ele><time>2026-05-03T16:02:10.274Z</time></trkpt><trkpt lat="44.4798333" lon="7.8686683"><ele>362.5</ele><time>2026-05-03T16:02:11.274Z</time></trkpt><trkpt lat="44.4799483" lon="7.86876"><ele>362.75</ele><time>2026-05-03T16:02:12.274Z</time></trkpt><trkpt lat="44.480075" lon="7.86887"><ele>363.0</ele><time>2026-05-03T16:02:13.274Z</time></trkpt><trkpt lat="44.4801933" lon="7.869"><ele>363.0</ele><time>2026-05-03T16:02:14.275Z</time></trkpt><trkpt lat="44.4803117" lon="7.8691467"><ele>363.0</ele><time>2026-05-03T16:02:15.274Z</time></trkpt><trkpt lat="44.4804317" lon="7.8693"><ele>363.0</ele><time>2026-05-03T16:02:16.274Z</time></trkpt><trkpt lat="44.4805583" lon="7.86947"><ele>363.3333333333333</ele><time>2026-05-03T16:02:17.274Z</time></trkpt><trkpt lat="44.48069" lon="7.86964"><ele>363.66666666666663</ele><time>2026-05-03T16:02:18.274Z</time></trkpt><trkpt lat="44.48082" lon="7.8698167"><ele>364.0</ele><time>2026-05-03T16:02:19.274Z</time></trkpt><trkpt lat="44.48095" lon="7.8700017"><ele>363.66666666666663</ele><time>2026-05-03T16:02:20.275Z</time></trkpt><trkpt lat="44.481075" lon="7.8701867"><ele>363.3333333333333</ele><time>2026-05-03T16:02:21.274Z</time></trkpt><trkpt lat="44.48121" lon="7.87039"><ele>363.0</ele><time>2026-05-03T16:02:22.274Z</time></trkpt><trkpt lat="44.48133" lon="7.87059"><ele>363.3333333333333</ele><time>2026-05-03T16:02:23.274Z</time></trkpt><trkpt lat="44.4814517" lon="7.8707917"><ele>363.66666666666663</ele><time>2026-05-03T16:02:24.274Z</time></trkpt><trkpt lat="44.4815683" lon="7.87099"><ele>364.0</ele><time>2026-05-03T16:02:25.275Z</time></trkpt><trkpt lat="44.48169" lon="7.8712"><ele>364.0</ele><time>2026-05-03T16:02:26.274Z</time></trkpt><trkpt lat="44.4818033" lon="7.8714117"><ele>364.0</ele><time>2026-05-03T16:02:27.274Z</time></trkpt><trkpt lat="44.4819267" lon="7.8716267"><ele>364.0</ele><time>2026-05-03T16:02:28.274Z</time></trkpt><trkpt lat="44.48204" lon="7.87183"><ele>363.0</ele><time>2026-05-03T16:02:29.274Z</time></trkpt><trkpt lat="44.4821617" lon="7.8720417"><ele>362.0</ele><time>2026-05-03T16:02:30.274Z</time></trkpt><trkpt lat="44.4822717" lon="7.8722517"><ele>361.0</ele><time>2026-05-03T16:02:31.275Z</time></trkpt><trkpt lat="44.4823917" lon="7.8724633"><ele>360.66666666666663</ele><time>2026-05-03T16:02:32.274Z</time></trkpt><trkpt lat="44.4825083" lon="7.8726733"><ele>360.3333333333333</ele><time>2026-05-03T16:02:33.274Z</time></trkpt><trkpt lat="44.4826333" lon="7.872885"><ele>360.0</ele><time>2026-05-03T16:02:34.274Z</time></trkpt><trkpt lat="44.48275" lon="7.87309"><ele>360.0</ele><time>2026-05-03T16:02:35.275Z</time></trkpt><trkpt lat="44.4828783" lon="7.8732967"><ele>360.0</ele><time>2026-05-03T16:02:36.274Z</time></trkpt><trkpt lat="44.48299" lon="7.8734967"><ele>360.0</ele><time>2026-05-03T16:02:37.274Z</time></trkpt><trkpt lat="44.4831067" lon="7.8736967"><ele>360.3333333333333</ele><time>2026-05-03T16:02:38.275Z</time></trkpt><trkpt lat="44.48322" lon="7.8738933"><ele>360.66666666666663</ele><time>2026-05-03T16:02:39.274Z</time></trkpt><trkpt lat="44.483335" lon="7.8741017"><ele>361.0</ele><time>2026-05-03T16:02:40.274Z</time></trkpt><trkpt lat="44.48345" lon="7.8742917"><ele>360.3333333333333</ele><time>2026-05-03T16:02:41.274Z</time></trkpt><trkpt lat="44.4835583" lon="7.8744983"><ele>359.6666666666667</ele><time>2026-05-03T16:02:42.274Z</time></trkpt><trkpt lat="44.4836583" lon="7.8746933"><ele>359.0</ele><time>2026-05-03T16:02:43.274Z</time></trkpt><trkpt lat="44.48376" lon="7.8749067"><ele>359.0</ele><time>2026-05-03T16:02:44.274Z</time></trkpt><trkpt lat="44.483855" lon="7.8751317"><ele>359.0</ele><time>2026-05-03T16:02:45.274Z</time></trkpt><trkpt lat="44.48394" lon="7.8753533"><ele>359.0</ele><time>2026-05-03T16:02:46.274Z</time></trkpt><trkpt lat="44.484015" lon="7.87557"><ele>359.0</ele><time>2026-05-03T16:02:47.274Z</time></trkpt><trkpt lat="44.484075" lon="7.8757917"><ele>359.0</ele><time>2026-05-03T16:02:48.274Z</time></trkpt><trkpt lat="44.4841283" lon="7.8759983"><ele>359.0</ele><time>2026-05-03T16:02:49.275Z</time></trkpt><trkpt lat="44.484175" lon="7.8761917"><ele>359.0</ele><time>2026-05-03T16:02:50.274Z</time></trkpt><trkpt lat="44.484225" lon="7.876375"><ele>359.0</ele><time>2026-05-03T16:02:51.274Z</time></trkpt><trkpt lat="44.4842667" lon="7.8765533"><ele>359.0</ele><time>2026-05-03T16:02:52.274Z</time></trkpt><trkpt lat="44.4842867" lon="7.8767067"><ele>359.0</ele><time>2026-05-03T16:02:53.274Z</time></trkpt><trkpt lat="44.4842867" lon="7.87686"><ele>358.75</ele><time>2026-05-03T16:02:54.275Z</time></trkpt><trkpt lat="44.4842867" lon="7.877015"><ele>358.5</ele><time>2026-05-03T16:02:55.274Z</time></trkpt><trkpt lat="44.4842967" lon="7.87718"><ele>358.25</ele><time>2026-05-03T16:02:56.274Z</time></trkpt><trkpt lat="44.4843267" lon="7.8773383"><ele>358.0</ele><time>2026-05-03T16:02:57.275Z</time></trkpt><trkpt lat="44.4843633" lon="7.8775"><ele>358.0</ele><time>2026-05-03T16:02:58.274Z</time></trkpt><trkpt lat="44.4844017" lon="7.8776783"><ele>358.0</ele><time>2026-05-03T16:02:59.274Z</time></trkpt><trkpt lat="44.4844283" lon="7.8778733"><ele>358.0</ele><time>2026-05-03T16:03:00.274Z</time></trkpt><trkpt lat="44.48444" lon="7.8780817"><ele>358.0</ele><time>2026-05-03T16:03:01.274Z</time></trkpt><trkpt lat="44.4844367" lon="7.8783117"><ele>357.3333333333333</ele><time>2026-05-03T16:03:02.274Z</time></trkpt><trkpt lat="44.4844367" lon="7.8785417"><ele>356.6666666666667</ele><time>2026-05-03T16:03:03.275Z</time></trkpt><trkpt lat="44.4844283" lon="7.8787883"><ele>356.0</ele><time>2026-05-03T16:03:04.274Z</time></trkpt><trkpt lat="44.4844267" lon="7.8790417"><ele>356.0</ele><time>2026-05-03T16:03:05.274Z</time></trkpt><trkpt lat="44.48442" lon="7.8793017"><ele>356.0</ele><time>2026-05-03T16:03:06.274Z</time></trkpt><trkpt lat="44.4844117" lon="7.8795617"><ele>356.0</ele><time>2026-05-03T16:03:07.274Z</time></trkpt><trkpt lat="44.4843983" lon="7.879825"><ele>356.0</ele><time>2026-05-03T16:03:08.274Z</time></trkpt><trkpt lat="44.4843833" lon="7.8800833"><ele>356.0</ele><time>2026-05-03T16:03:09.274Z</time></trkpt><trkpt lat="44.484375" lon="7.8803417"><ele>356.0</ele><time>2026-05-03T16:03:10.275Z</time></trkpt><trkpt lat="44.4843683" lon="7.8806033"><ele>355.6666666666667</ele><time>2026-05-03T16:03:11.274Z</time></trkpt><trkpt lat="44.4843567" lon="7.8808633"><ele>355.3333333333333</ele><time>2026-05-03T16:03:12.274Z</time></trkpt><trkpt lat="44.4843467" lon="7.8811317"><ele>355.0</ele><time>2026-05-03T16:03:13.275Z</time></trkpt><trkpt lat="44.484335" lon="7.881405"><ele>354.66666666666663</ele><time>2026-05-03T16:03:14.274Z</time></trkpt><trkpt lat="44.48432" lon="7.8816817"><ele>354.3333333333333</ele><time>2026-05-03T16:03:15.274Z</time></trkpt><trkpt lat="44.4843083" lon="7.881955"><ele>354.0</ele><time>2026-05-03T16:03:16.274Z</time></trkpt><trkpt lat="44.4842967" lon="7.8822267"><ele>353.0</ele><time>2026-05-03T16:03:17.274Z</time></trkpt><trkpt lat="44.48428" lon="7.8825033"><ele>352.0</ele><time>2026-05-03T16:03:18.275Z</time></trkpt><trkpt lat="44.4842717" lon="7.8827783"><ele>351.0</ele><time>2026-05-03T16:03:19.274Z</time></trkpt><trkpt lat="44.4842633" lon="7.88305"><ele>350.0</ele><time>2026-05-03T16:03:20.274Z</time></trkpt><trkpt lat="44.4842583" lon="7.88333"><ele>349.0</ele><time>2026-05-03T16:03:21.274Z</time></trkpt><trkpt lat="44.484245" lon="7.883615"><ele>348.0</ele><time>2026-05-03T16:03:22.274Z</time></trkpt><trkpt lat="44.4842333" lon="7.8838967"><ele>346.0</ele><time>2026-05-03T16:03:23.274Z</time></trkpt><trkpt lat="44.4842117" lon="7.884175"><ele>344.0</ele><time>2026-05-03T16:03:24.275Z</time></trkpt><trkpt lat="44.4841967" lon="7.884445"><ele>342.0</ele><time>2026-05-03T16:03:25.274Z</time></trkpt><trkpt lat="44.4841767" lon="7.8847217"><ele>341.0</ele><time>2026-05-03T16:03:26.274Z</time></trkpt><trkpt lat="44.4841617" lon="7.8849967"><ele>340.0</ele><time>2026-05-03T16:03:27.274Z</time></trkpt><trkpt lat="44.48415" lon="7.8852667"><ele>339.0</ele><time>2026-05-03T16:03:28.274Z</time></trkpt><trkpt lat="44.4841417" lon="7.8855267"><ele>338.6666666666667</ele><time>2026-05-03T16:03:29.275Z</time></trkpt><trkpt lat="44.4841317" lon="7.8857767"><ele>338.33333333333337</ele><time>2026-05-03T16:03:30.274Z</time></trkpt><trkpt lat="44.4841217" lon="7.88602"><ele>338.0</ele><time>2026-05-03T16:03:31.274Z</time></trkpt><trkpt lat="44.484125" lon="7.8862467"><ele>338.0</ele><time>2026-05-03T16:03:32.274Z</time></trkpt><trkpt lat="44.484125" lon="7.8864633"><ele>338.0</ele><time>2026-05-03T16:03:33.274Z</time></trkpt><trkpt lat="44.48413" lon="7.886675"><ele>338.0</ele><time>2026-05-03T16:03:34.274Z</time></trkpt><trkpt lat="44.4841283" lon="7.8868583"><ele>338.0</ele><time>2026-05-03T16:03:35.274Z</time></trkpt><trkpt lat="44.4841217" lon="7.887045"><ele>338.0</ele><time>2026-05-03T16:03:36.274Z</time></trkpt><trkpt lat="44.4840917" lon="7.88725"><ele>338.0</ele><time>2026-05-03T16:03:37.274Z</time></trkpt><trkpt lat="44.484065" lon="7.8874483"><ele>338.0</ele><time>2026-05-03T16:03:38.274Z</time></trkpt><trkpt lat="44.484055" lon="7.8876567"><ele>338.0</ele><time>2026-05-03T16:03:39.274Z</time></trkpt><trkpt lat="44.4840367" lon="7.8878783"><ele>338.0</ele><time>2026-05-03T16:03:40.274Z</time></trkpt><trkpt lat="44.4840233" lon="7.8881133"><ele>338.0</ele><time>2026-05-03T16:03:41.274Z</time></trkpt><trkpt lat="44.4840083" lon="7.8883483"><ele>338.0</ele><time>2026-05-03T16:03:42.274Z</time></trkpt><trkpt lat="44.4839967" lon="7.88859"><ele>337.6666666666667</ele><time>2026-05-03T16:03:43.274Z</time></trkpt><trkpt lat="44.4839867" lon="7.888835"><ele>337.3333333333333</ele><time>2026-05-03T16:03:44.274Z</time></trkpt><trkpt lat="44.4839783" lon="7.889085"><ele>337.0</ele><time>2026-05-03T16:03:45.274Z</time></trkpt><trkpt lat="44.4839633" lon="7.8893267"><ele>337.0</ele><time>2026-05-03T16:03:46.275Z</time></trkpt><trkpt lat="44.4839467" lon="7.8895767"><ele>337.0</ele><time>2026-05-03T16:03:47.274Z</time></trkpt><trkpt lat="44.4839367" lon="7.88982"><ele>337.0</ele><time>2026-05-03T16:03:48.274Z</time></trkpt><trkpt lat="44.4839133" lon="7.8900633"><ele>336.66666666666663</ele><time>2026-05-03T16:03:49.274Z</time></trkpt><trkpt lat="44.48389" lon="7.8902983"><ele>336.3333333333333</ele><time>2026-05-03T16:03:50.274Z</time></trkpt><trkpt lat="44.4838767" lon="7.8905383"><ele>336.0</ele><time>2026-05-03T16:03:51.274Z</time></trkpt><trkpt lat="44.4838533" lon="7.8907767"><ele>336.0</ele><time>2026-05-03T16:03:52.274Z</time></trkpt><trkpt lat="44.4838267" lon="7.8910183"><ele>336.0</ele><time>2026-05-03T16:03:53.274Z</time></trkpt><trkpt lat="44.4837933" lon="7.891275"><ele>336.0</ele><time>2026-05-03T16:03:54.274Z</time></trkpt><trkpt lat="44.4837683" lon="7.8915167"><ele>333.3333333333333</ele><time>2026-05-03T16:03:55.275Z</time></trkpt><trkpt lat="44.4837333" lon="7.8917517"><ele>330.66666666666663</ele><time>2026-05-03T16:03:56.274Z</time></trkpt><trkpt lat="44.483705" lon="7.891985"><ele>328.0</ele><time>2026-05-03T16:03:57.274Z</time></trkpt><trkpt lat="44.4836883" lon="7.892215"><ele>326.0</ele><time>2026-05-03T16:03:58.274Z</time></trkpt><trkpt lat="44.4836883" lon="7.892435"><ele>324.0</ele><time>2026-05-03T16:03:59.274Z</time></trkpt><trkpt lat="44.4837033" lon="7.89266"><ele>322.0</ele><time>2026-05-03T16:04:00.274Z</time></trkpt><trkpt lat="44.483735" lon="7.89289"><ele>324.3333333333333</ele><time>2026-05-03T16:04:01.275Z</time></trkpt><trkpt lat="44.4837733" lon="7.8931283"><ele>326.6666666666667</ele><time>2026-05-03T16:04:02.274Z</time></trkpt><trkpt lat="44.48381" lon="7.8933617"><ele>329.0</ele><time>2026-05-03T16:04:03.274Z</time></trkpt><trkpt lat="44.4838617" lon="7.8935867"><ele>329.0</ele><time>2026-05-03T16:04:04.274Z</time></trkpt><trkpt lat="44.4839217" lon="7.893805"><ele>329.0</ele><time>2026-05-03T16:04:05.275Z</time></trkpt><trkpt lat="44.4839967" lon="7.8940183"><ele>329.0</ele><time>2026-05-03T16:04:06.275Z</time></trkpt><trkpt lat="44.4840867" lon="7.8942283"><ele>324.6666666666667</ele><time>2026-05-03T16:04:07.274Z</time></trkpt><trkpt lat="44.48419" lon="7.8944333"><ele>320.3333333333333</ele><time>2026-05-03T16:04:08.274Z</time></trkpt><trkpt lat="44.48429" lon="7.894635"><ele>316.0</ele><time>2026-05-03T16:04:09.274Z</time></trkpt><trkpt lat="44.4843983" lon="7.894835"><ele>316.0</ele><time>2026-05-03T16:04:10.274Z</time></trkpt><trkpt lat="44.48449" lon="7.8950417"><ele>316.0</ele><time>2026-05-03T16:04:11.274Z</time></trkpt><trkpt lat="44.4845717" lon="7.8952717"><ele>316.0</ele><time>2026-05-03T16:04:12.275Z</time></trkpt><trkpt lat="44.4846267" lon="7.8954883"><ele>318.0</ele><time>2026-05-03T16:04:13.274Z</time></trkpt><trkpt lat="44.4846767" lon="7.8957017"><ele>320.0</ele><time>2026-05-03T16:04:14.274Z</time></trkpt><trkpt lat="44.4847133" lon="7.8959283"><ele>322.0</ele><time>2026-05-03T16:04:15.274Z</time></trkpt><trkpt lat="44.48475" lon="7.8961583"><ele>322.0</ele><time>2026-05-03T16:04:16.275Z</time></trkpt><trkpt lat="44.4847817" lon="7.8963867"><ele>322.0</ele><time>2026-05-03T16:04:17.274Z</time></trkpt><trkpt lat="44.48482" lon="7.896605"><ele>322.0</ele><time>2026-05-03T16:04:18.274Z</time></trkpt><trkpt lat="44.4848633" lon="7.89681"><ele>317.0</ele><time>2026-05-03T16:04:19.275Z</time></trkpt><trkpt lat="44.4849117" lon="7.8969967"><ele>312.0</ele><time>2026-05-03T16:04:20.274Z</time></trkpt><trkpt lat="44.48497" lon="7.8971883"><ele>307.0</ele><time>2026-05-03T16:04:21.275Z</time></trkpt><trkpt lat="44.4850617" lon="7.8973433"><ele>302.0</ele><time>2026-05-03T16:04:22.275Z</time></trkpt><trkpt lat="44.485175" lon="7.8974933"><ele>303.0</ele><time>2026-05-03T16:04:23.274Z</time></trkpt><trkpt lat="44.4852917" lon="7.8976583"><ele>304.0</ele><time>2026-05-03T16:04:24.275Z</time></trkpt><trkpt lat="44.4854183" lon="7.8978133"><ele>305.0</ele><time>2026-05-03T16:04:25.274Z</time></trkpt><trkpt lat="44.4855433" lon="7.898"><ele>305.0</ele><time>2026-05-03T16:04:26.274Z</time></trkpt><trkpt lat="44.4856567" lon="7.8981683"><ele>305.0</ele><time>2026-05-03T16:04:27.275Z</time></trkpt><trkpt lat="44.4857683" lon="7.8983383"><ele>305.0</ele><time>2026-05-03T16:04:28.274Z</time></trkpt><trkpt lat="44.4858717" lon="7.898505"><ele>300.0</ele><time>2026-05-03T16:04:29.275Z</time></trkpt><trkpt lat="44.4859733" lon="7.898685"><ele>295.0</ele><time>2026-05-03T16:04:30.274Z</time></trkpt><trkpt lat="44.486085" lon="7.89886"><ele>290.0</ele><time>2026-05-03T16:04:31.274Z</time></trkpt><trkpt lat="44.4861867" lon="7.8990283"><ele>291.0</ele><time>2026-05-03T16:04:32.274Z</time></trkpt><trkpt lat="44.48628" lon="7.8991917"><ele>292.0</ele><time>2026-05-03T16:04:33.274Z</time></trkpt><trkpt lat="44.486375" lon="7.89934"><ele>293.0</ele><time>2026-05-03T16:04:34.274Z</time></trkpt><trkpt lat="44.48646" lon="7.8994883"><ele>294.0</ele><time>2026-05-03T16:04:35.274Z</time></trkpt><trkpt lat="44.4865333" lon="7.899625"><ele>294.0</ele><time>2026-05-03T16:04:36.274Z</time></trkpt><trkpt lat="44.4865967" lon="7.899745"><ele>294.0</ele><time>2026-05-03T16:04:37.274Z</time></trkpt><trkpt lat="44.4866433" lon="7.8998583"><ele>294.0</ele><time>2026-05-03T16:04:38.274Z</time></trkpt><trkpt lat="44.4866667" lon="7.8999633"><ele>294.0</ele><time>2026-05-03T16:04:39.274Z</time></trkpt><trkpt lat="44.4866617" lon="7.9000767"><ele>294.0</ele><time>2026-05-03T16:04:40.274Z</time></trkpt><trkpt lat="44.4866283" lon="7.9001683"><ele>294.0</ele><time>2026-05-03T16:04:41.274Z</time></trkpt><trkpt lat="44.4865983" lon="7.9002767"><ele>292.4</ele><time>2026-05-03T16:04:42.274Z</time></trkpt><trkpt lat="44.486575" lon="7.900395"><ele>290.79999999999995</ele><time>2026-05-03T16:04:43.274Z</time></trkpt><trkpt lat="44.4865817" lon="7.90051"><ele>289.20000000000005</ele><time>2026-05-03T16:04:44.275Z</time></trkpt><trkpt lat="44.4866267" lon="7.9006117"><ele>287.6</ele><time>2026-05-03T16:04:45.274Z</time></trkpt><trkpt lat="44.4867067" lon="7.9006767"><ele>286.0</ele><time>2026-05-03T16:04:46.274Z</time></trkpt><trkpt lat="44.4868067" lon="7.9007233"><ele>286.0</ele><time>2026-05-03T16:04:47.274Z</time></trkpt><trkpt lat="44.4869117" lon="7.9008083"><ele>286.0</ele><time>2026-05-03T16:04:48.274Z</time></trkpt><trkpt lat="44.487005" lon="7.9009217"><ele>286.0</ele><time>2026-05-03T16:04:49.274Z</time></trkpt><trkpt lat="44.48709" lon="7.90105"><ele>286.0</ele><time>2026-05-03T16:04:50.274Z</time></trkpt><trkpt lat="44.4871917" lon="7.9011783"><ele>287.3333333333333</ele><time>2026-05-03T16:04:51.274Z</time></trkpt><trkpt lat="44.4872983" lon="7.901335"><ele>288.6666666666667</ele><time>2026-05-03T16:04:52.274Z</time></trkpt><trkpt lat="44.4874133" lon="7.9014817"><ele>290.0</ele><time>2026-05-03T16:04:53.274Z</time></trkpt><trkpt lat="44.48753" lon="7.90164"><ele>288.33333333333337</ele><time>2026-05-03T16:04:54.274Z</time></trkpt><trkpt lat="44.487665" lon="7.9018"><ele>286.6666666666667</ele><time>2026-05-03T16:04:55.274Z</time></trkpt><trkpt lat="44.4878083" lon="7.901965"><ele>285.0</ele><time>2026-05-03T16:04:56.275Z</time></trkpt><trkpt lat="44.4879633" lon="7.9021117"><ele>285.0</ele><time>2026-05-03T16:04:57.274Z</time></trkpt><trkpt lat="44.4881183" lon="7.90225"><ele>285.0</ele><time>2026-05-03T16:04:58.274Z</time></trkpt><trkpt lat="44.48829" lon="7.9023883"><ele>285.0</ele><time>2026-05-03T16:04:59.274Z</time></trkpt><trkpt lat="44.488465" lon="7.9025317"><ele>285.0</ele><time>2026-05-03T16:05:00.274Z</time></trkpt><trkpt lat="44.4886317" lon="7.9026783"><ele>285.0</ele><time>2026-05-03T16:05:01.274Z</time></trkpt><trkpt lat="44.4888017" lon="7.9028217"><ele>285.0</ele><time>2026-05-03T16:05:02.275Z</time></trkpt><trkpt lat="44.4889833" lon="7.9029733"><ele>285.0</ele><time>2026-05-03T16:05:03.274Z</time></trkpt><trkpt lat="44.4891617" lon="7.9031217"><ele>285.0</ele><time>2026-05-03T16:05:04.274Z</time></trkpt><trkpt lat="44.4893383" lon="7.90328"><ele>285.0</ele><time>2026-05-03T16:05:05.274Z</time></trkpt><trkpt lat="44.4895183" lon="7.9034267"><ele>284.0</ele><time>2026-05-03T16:05:06.275Z</time></trkpt><trkpt lat="44.4897" lon="7.903585"><ele>283.0</ele><time>2026-05-03T16:05:07.274Z</time></trkpt><trkpt lat="44.48988" lon="7.90374"><ele>282.0</ele><time>2026-05-03T16:05:08.274Z</time></trkpt><trkpt lat="44.4900683" lon="7.9039"><ele>282.0</ele><time>2026-05-03T16:05:09.274Z</time></trkpt><trkpt lat="44.4902467" lon="7.90406"><ele>282.0</ele><time>2026-05-03T16:05:10.274Z</time></trkpt><trkpt lat="44.4904267" lon="7.9042233"><ele>282.0</ele><time>2026-05-03T16:05:11.274Z</time></trkpt><trkpt lat="44.4906133" lon="7.9043833"><ele>280.0</ele><time>2026-05-03T16:05:12.274Z</time></trkpt><trkpt lat="44.4908033" lon="7.904535"><ele>278.0</ele><time>2026-05-03T16:05:13.274Z</time></trkpt><trkpt lat="44.49099" lon="7.90469"><ele>276.0</ele><time>2026-05-03T16:05:14.274Z</time></trkpt><trkpt lat="44.4911633" lon="7.9048383"><ele>274.6666666666667</ele><time>2026-05-03T16:05:15.274Z</time></trkpt><trkpt lat="44.4913417" lon="7.9049983"><ele>273.33333333333337</ele><time>2026-05-03T16:05:16.274Z</time></trkpt><trkpt lat="44.491525" lon="7.9051567"><ele>272.0</ele><time>2026-05-03T16:05:17.274Z</time></trkpt><trkpt lat="44.4917033" lon="7.905315"><ele>270.6666666666667</ele><time>2026-05-03T16:05:18.274Z</time></trkpt><trkpt lat="44.4918767" lon="7.9054717"><ele>269.3333333333333</ele><time>2026-05-03T16:05:19.274Z</time></trkpt><trkpt lat="44.4920617" lon="7.90563"><ele>268.0</ele><time>2026-05-03T16:05:20.274Z</time></trkpt><trkpt lat="44.4922467" lon="7.90578"><ele>268.0</ele><time>2026-05-03T16:05:21.274Z</time></trkpt><trkpt lat="44.49243" lon="7.9059233"><ele>268.0</ele><time>2026-05-03T16:05:22.274Z</time></trkpt><trkpt lat="44.4926117" lon="7.9060533"><ele>268.0</ele><time>2026-05-03T16:05:23.274Z</time></trkpt><trkpt lat="44.4928" lon="7.9061917"><ele>267.0</ele><time>2026-05-03T16:05:24.275Z</time></trkpt><trkpt lat="44.49299" lon="7.9063083"><ele>266.0</ele><time>2026-05-03T16:05:25.275Z</time></trkpt><trkpt lat="44.4931783" lon="7.906415"><ele>265.0</ele><time>2026-05-03T16:05:26.274Z</time></trkpt><trkpt lat="44.4933817" lon="7.906505"><ele>265.0</ele><time>2026-05-03T16:05:27.274Z</time></trkpt><trkpt lat="44.4935783" lon="7.9065933"><ele>265.0</ele><time>2026-05-03T16:05:28.274Z</time></trkpt><trkpt lat="44.49379" lon="7.9066667"><ele>265.0</ele><time>2026-05-03T16:05:29.274Z</time></trkpt><trkpt lat="44.4939983" lon="7.9067467"><ele>263.3333333333333</ele><time>2026-05-03T16:05:30.275Z</time></trkpt><trkpt lat="44.4942067" lon="7.906805"><ele>261.6666666666667</ele><time>2026-05-03T16:05:31.274Z</time></trkpt><trkpt lat="44.4944217" lon="7.9068467"><ele>260.0</ele><time>2026-05-03T16:05:32.274Z</time></trkpt><trkpt lat="44.4946267" lon="7.9068767"><ele>259.6666666666667</ele><time>2026-05-03T16:05:33.274Z</time></trkpt><trkpt lat="44.494835" lon="7.9068983"><ele>259.3333333333333</ele><time>2026-05-03T16:05:34.274Z</time></trkpt><trkpt lat="44.4950333" lon="7.90691"><ele>259.0</ele><time>2026-05-03T16:05:35.274Z</time></trkpt><trkpt lat="44.4952317" lon="7.90691"><ele>258.3333333333333</ele><time>2026-05-03T16:05:36.275Z</time></trkpt><trkpt lat="44.4954233" lon="7.9069083"><ele>257.6666666666667</ele><time>2026-05-03T16:05:37.274Z</time></trkpt><trkpt lat="44.4956133" lon="7.906895"><ele>257.0</ele><time>2026-05-03T16:05:38.274Z</time></trkpt><trkpt lat="44.4958133" lon="7.906865"><ele>257.0</ele><time>2026-05-03T16:05:39.274Z</time></trkpt><trkpt lat="44.4960217" lon="7.906805"><ele>257.0</ele><time>2026-05-03T16:05:40.274Z</time></trkpt><trkpt lat="44.4962467" lon="7.9067483"><ele>257.0</ele><time>2026-05-03T16:05:41.274Z</time></trkpt><trkpt lat="44.4964833" lon="7.9066967"><ele>256.0</ele><time>2026-05-03T16:05:42.274Z</time></trkpt><trkpt lat="44.4967283" lon="7.9066433"><ele>255.0</ele><time>2026-05-03T16:05:43.274Z</time></trkpt><trkpt lat="44.4969683" lon="7.9066033"><ele>255.0</ele><time>2026-05-03T16:05:44.274Z</time></trkpt><trkpt lat="44.4972117" lon="7.906545"><ele>255.0</ele><time>2026-05-03T16:05:45.274Z</time></trkpt><trkpt lat="44.49745" lon="7.90648"><ele>255.0</ele><time>2026-05-03T16:05:46.274Z</time></trkpt><trkpt lat="44.4976783" lon="7.9064233"><ele>255.0</ele><time>2026-05-03T16:05:47.274Z</time></trkpt><trkpt lat="44.4978933" lon="7.9063633"><ele>253.66666666666669</ele><time>2026-05-03T16:05:48.274Z</time></trkpt><trkpt lat="44.49811" lon="7.906315"><ele>252.33333333333334</ele><time>2026-05-03T16:05:49.274Z</time></trkpt><trkpt lat="44.498325" lon="7.906255"><ele>251.0</ele><time>2026-05-03T16:05:50.274Z</time></trkpt><trkpt lat="44.4985267" lon="7.9062067"><ele>251.0</ele><time>2026-05-03T16:05:51.274Z</time></trkpt><trkpt lat="44.4987283" lon="7.9061583"><ele>251.0</ele><time>2026-05-03T16:05:52.274Z</time></trkpt><trkpt lat="44.49893" lon="7.9061"><ele>251.0</ele><time>2026-05-03T16:05:53.274Z</time></trkpt><trkpt lat="44.4991183" lon="7.9060533"><ele>254.0</ele><time>2026-05-03T16:05:54.274Z</time></trkpt><trkpt lat="44.49929" lon="7.906015"><ele>257.0</ele><time>2026-05-03T16:05:55.275Z</time></trkpt><trkpt lat="44.4994667" lon="7.9059783"><ele>260.0</ele><time>2026-05-03T16:05:56.274Z</time></trkpt><trkpt lat="44.4996417" lon="7.905945"><ele>259.0</ele><time>2026-05-03T16:05:57.274Z</time></trkpt><trkpt lat="44.49982" lon="7.9058967"><ele>258.0</ele><time>2026-05-03T16:05:58.274Z</time></trkpt><trkpt lat="44.4999933" lon="7.9058583"><ele>257.0</ele><time>2026-05-03T16:05:59.274Z</time></trkpt><trkpt lat="44.50017" lon="7.9058167"><ele>257.0</ele><time>2026-05-03T16:06:00.274Z</time></trkpt><trkpt lat="44.5003533" lon="7.9057683"><ele>257.0</ele><time>2026-05-03T16:06:01.274Z</time></trkpt><trkpt lat="44.5005317" lon="7.905715"><ele>257.0</ele><time>2026-05-03T16:06:02.274Z</time></trkpt><trkpt lat="44.5007083" lon="7.9056617"><ele>257.33333333333337</ele><time>2026-05-03T16:06:03.274Z</time></trkpt><trkpt lat="44.50089" lon="7.9056"><ele>257.6666666666667</ele><time>2026-05-03T16:06:04.274Z</time></trkpt><trkpt lat="44.501075" lon="7.9055333"><ele>258.0</ele><time>2026-05-03T16:06:05.274Z</time></trkpt><trkpt lat="44.5012833" lon="7.9054733"><ele>256.5</ele><time>2026-05-03T16:06:06.274Z</time></trkpt><trkpt lat="44.5015067" lon="7.9053967"><ele>255.0</ele><time>2026-05-03T16:06:07.274Z</time></trkpt><trkpt lat="44.50174" lon="7.90533"><ele>255.0</ele><time>2026-05-03T16:06:08.274Z</time></trkpt><trkpt lat="44.5019683" lon="7.9052717"><ele>255.0</ele><time>2026-05-03T16:06:09.275Z</time></trkpt><trkpt lat="44.5022033" lon="7.905225"><ele>254.0</ele><time>2026-05-03T16:06:10.274Z</time></trkpt><trkpt lat="44.502445" lon="7.905165"><ele>253.0</ele><time>2026-05-03T16:06:11.274Z</time></trkpt><trkpt lat="44.5026867" lon="7.9051133"><ele>253.5</ele><time>2026-05-03T16:06:12.274Z</time></trkpt><trkpt lat="44.5029467" lon="7.90504"><ele>254.0</ele><time>2026-05-03T16:06:13.274Z</time></trkpt><trkpt lat="44.5032117" lon="7.9049833"><ele>254.0</ele><time>2026-05-03T16:06:14.274Z</time></trkpt><trkpt lat="44.5034833" lon="7.9049183"><ele>254.0</ele><time>2026-05-03T16:06:15.274Z</time></trkpt><trkpt lat="44.5037433" lon="7.904865"><ele>251.5</ele><time>2026-05-03T16:06:16.274Z</time></trkpt><trkpt lat="44.5040017" lon="7.904805"><ele>249.0</ele><time>2026-05-03T16:06:17.274Z</time></trkpt><trkpt lat="44.5042533" lon="7.904745"><ele>249.0</ele><time>2026-05-03T16:06:18.275Z</time></trkpt><trkpt lat="44.5045183" lon="7.9046683"><ele>249.0</ele><time>2026-05-03T16:06:19.274Z</time></trkpt><trkpt lat="44.5047667" lon="7.9046017"><ele>247.5</ele><time>2026-05-03T16:06:20.274Z</time></trkpt><trkpt lat="44.5050117" lon="7.9045333"><ele>246.0</ele><time>2026-05-03T16:06:21.275Z</time></trkpt><trkpt lat="44.5052583" lon="7.9044633"><ele>249.5</ele><time>2026-05-03T16:06:22.274Z</time></trkpt><trkpt lat="44.5055" lon="7.9044033"><ele>253.0</ele><time>2026-05-03T16:06:23.274Z</time></trkpt><trkpt lat="44.5057383" lon="7.9043433"><ele>253.0</ele><time>2026-05-03T16:06:24.274Z</time></trkpt><trkpt lat="44.5059667" lon="7.9042817"><ele>253.0</ele><time>2026-05-03T16:06:25.274Z</time></trkpt><trkpt lat="44.5061967" lon="7.9042233"><ele>256.5</ele><time>2026-05-03T16:06:26.274Z</time></trkpt><trkpt lat="44.506425" lon="7.9041683"><ele>260.0</ele><time>2026-05-03T16:06:27.274Z</time></trkpt><trkpt lat="44.5066533" lon="7.904115"><ele>260.0</ele><time>2026-05-03T16:06:28.274Z</time></trkpt><trkpt lat="44.506895" lon="7.9040533"><ele>260.0</ele><time>2026-05-03T16:06:29.274Z</time></trkpt><trkpt lat="44.5071367" lon="7.9039933"><ele>260.0</ele><time>2026-05-03T16:06:30.274Z</time></trkpt><trkpt lat="44.5073733" lon="7.9039333"><ele>260.0</ele><time>2026-05-03T16:06:31.274Z</time></trkpt><trkpt lat="44.50761" lon="7.9038617"><ele>260.0</ele><time>2026-05-03T16:06:32.274Z</time></trkpt><trkpt lat="44.50784" lon="7.9038117"><ele>260.0</ele><time>2026-05-03T16:06:33.274Z</time></trkpt><trkpt lat="44.508075" lon="7.903755"><ele>259.5</ele><time>2026-05-03T16:06:34.274Z</time></trkpt><trkpt lat="44.5083083" lon="7.9037067"><ele>259.0</ele><time>2026-05-03T16:06:35.274Z</time></trkpt><trkpt lat="44.5085333" lon="7.9036583"><ele>255.33333333333331</ele><time>2026-05-03T16:06:36.274Z</time></trkpt><trkpt lat="44.5087583" lon="7.9036033"><ele>251.66666666666669</ele><time>2026-05-03T16:06:37.274Z</time></trkpt><trkpt lat="44.5089633" lon="7.903555"><ele>248.0</ele><time>2026-05-03T16:06:38.275Z</time></trkpt><trkpt lat="44.5091617" lon="7.9035"><ele>248.0</ele><time>2026-05-03T16:06:39.274Z</time></trkpt><trkpt lat="44.50935" lon="7.90345"><ele>248.0</ele><time>2026-05-03T16:06:40.274Z</time></trkpt><trkpt lat="44.5095383" lon="7.903385"><ele>248.0</ele><time>2026-05-03T16:06:41.274Z</time></trkpt><trkpt lat="44.5097267" lon="7.9033383"><ele>246.33333333333334</ele><time>2026-05-03T16:06:42.275Z</time></trkpt><trkpt lat="44.5099233" lon="7.9032883"><ele>244.66666666666669</ele><time>2026-05-03T16:06:43.274Z</time></trkpt><trkpt lat="44.5101167" lon="7.9032317"><ele>243.0</ele><time>2026-05-03T16:06:44.274Z</time></trkpt><trkpt lat="44.5103283" lon="7.9031783"><ele>241.33333333333331</ele><time>2026-05-03T16:06:45.274Z</time></trkpt><trkpt lat="44.5105417" lon="7.9031283"><ele>239.66666666666666</ele><time>2026-05-03T16:06:46.274Z</time></trkpt><trkpt lat="44.510765" lon="7.9030717"><ele>238.0</ele><time>2026-05-03T16:06:47.275Z</time></trkpt><trkpt lat="44.510985" lon="7.9030233"><ele>238.0</ele><time>2026-05-03T16:06:48.274Z</time></trkpt><trkpt lat="44.51121" lon="7.9029667"><ele>238.0</ele><time>2026-05-03T16:06:49.274Z</time></trkpt><trkpt lat="44.5114383" lon="7.902905"><ele>239.5</ele><time>2026-05-03T16:06:50.274Z</time></trkpt><trkpt lat="44.51167" lon="7.9028467"><ele>241.0</ele><time>2026-05-03T16:06:51.274Z</time></trkpt><trkpt lat="44.51191" lon="7.9027833"><ele>243.5</ele><time>2026-05-03T16:06:52.274Z</time></trkpt><trkpt lat="44.5121533" lon="7.9027217"><ele>246.0</ele><time>2026-05-03T16:06:53.274Z</time></trkpt><trkpt lat="44.51239" lon="7.90266"><ele>246.0</ele><time>2026-05-03T16:06:54.274Z</time></trkpt><trkpt lat="44.51263" lon="7.9025883"><ele>246.0</ele><time>2026-05-03T16:06:55.274Z</time></trkpt><trkpt lat="44.5128683" lon="7.9025283"><ele>245.5</ele><time>2026-05-03T16:06:56.274Z</time></trkpt><trkpt lat="44.5131083" lon="7.90246"><ele>245.0</ele><time>2026-05-03T16:06:57.274Z</time></trkpt><trkpt lat="44.5133467" lon="7.9024033"><ele>245.0</ele><time>2026-05-03T16:06:58.274Z</time></trkpt><trkpt lat="44.5135833" lon="7.9023433"><ele>245.0</ele><time>2026-05-03T16:06:59.274Z</time></trkpt><trkpt lat="44.5138167" lon="7.90229"><ele>246.0</ele><time>2026-05-03T16:07:00.274Z</time></trkpt><trkpt lat="44.514055" lon="7.9022267"><ele>247.0</ele><time>2026-05-03T16:07:01.274Z</time></trkpt><trkpt lat="44.5142933" lon="7.902165"><ele>247.0</ele><time>2026-05-03T16:07:02.274Z</time></trkpt><trkpt lat="44.514535" lon="7.9021033"><ele>247.0</ele><time>2026-05-03T16:07:03.274Z</time></trkpt><trkpt lat="44.5147733" lon="7.90204"><ele>246.5</ele><time>2026-05-03T16:07:04.274Z</time></trkpt><trkpt lat="44.5150267" lon="7.9019767"><ele>246.0</ele><time>2026-05-03T16:07:05.274Z</time></trkpt><trkpt lat="44.5152667" lon="7.9019133"><ele>243.0</ele><time>2026-05-03T16:07:06.275Z</time></trkpt><trkpt lat="44.5155033" lon="7.9018417"><ele>240.0</ele><time>2026-05-03T16:07:07.275Z</time></trkpt><trkpt lat="44.51574" lon="7.901785"><ele>240.5</ele><time>2026-05-03T16:07:08.275Z</time></trkpt><trkpt lat="44.5159733" lon="7.901725"><ele>241.0</ele><time>2026-05-03T16:07:09.274Z</time></trkpt><trkpt lat="44.5162017" lon="7.9016667"><ele>238.5</ele><time>2026-05-03T16:07:10.274Z</time></trkpt><trkpt lat="44.5164267" lon="7.9016167"><ele>236.0</ele><time>2026-05-03T16:07:11.274Z</time></trkpt><trkpt lat="44.5166517" lon="7.901565"><ele>236.0</ele><time>2026-05-03T16:07:12.274Z</time></trkpt><trkpt lat="44.516875" lon="7.9015117"><ele>236.0</ele><time>2026-05-03T16:07:13.274Z</time></trkpt><trkpt lat="44.5170967" lon="7.9014583"><ele>235.0</ele><time>2026-05-03T16:07:14.274Z</time></trkpt><trkpt lat="44.5173217" lon="7.9014083"><ele>234.0</ele><time>2026-05-03T16:07:15.274Z</time></trkpt><trkpt lat="44.5175517" lon="7.90135"><ele>234.0</ele><time>2026-05-03T16:07:16.274Z</time></trkpt><trkpt lat="44.5177717" lon="7.9012917"><ele>234.0</ele><time>2026-05-03T16:07:17.274Z</time></trkpt><trkpt lat="44.5179983" lon="7.9012233"><ele>238.0</ele><time>2026-05-03T16:07:18.274Z</time></trkpt><trkpt lat="44.5182267" lon="7.9011617"><ele>242.0</ele><time>2026-05-03T16:07:19.274Z</time></trkpt><trkpt lat="44.5184517" lon="7.9011033"><ele>242.0</ele><time>2026-05-03T16:07:20.274Z</time></trkpt><trkpt lat="44.5186783" lon="7.9010417"><ele>242.0</ele><time>2026-05-03T16:07:21.274Z</time></trkpt><trkpt lat="44.5189033" lon="7.9009767"><ele>242.0</ele><time>2026-05-03T16:07:22.274Z</time></trkpt><trkpt lat="44.519135" lon="7.9009167"><ele>242.0</ele><time>2026-05-03T16:07:23.274Z</time></trkpt><trkpt lat="44.5193683" lon="7.9008567"><ele>242.0</ele><time>2026-05-03T16:07:24.274Z</time></trkpt><trkpt lat="44.51959" lon="7.9008"><ele>242.0</ele><time>2026-05-03T16:07:25.275Z</time></trkpt><trkpt lat="44.5198083" lon="7.9007467"><ele>242.0</ele><time>2026-05-03T16:07:26.274Z</time></trkpt><trkpt lat="44.52003" lon="7.9006933"><ele>242.0</ele><time>2026-05-03T16:07:27.274Z</time></trkpt><trkpt lat="44.5202517" lon="7.9006417"><ele>242.0</ele><time>2026-05-03T16:07:28.274Z</time></trkpt><trkpt lat="44.520475" lon="7.9005883"><ele>241.5</ele><time>2026-05-03T16:07:29.274Z</time></trkpt><trkpt lat="44.520695" lon="7.9005267"><ele>241.0</ele><time>2026-05-03T16:07:30.275Z</time></trkpt><trkpt lat="44.5209167" lon="7.900465"><ele>241.0</ele><time>2026-05-03T16:07:31.274Z</time></trkpt><trkpt lat="44.521145" lon="7.9004067"><ele>241.0</ele><time>2026-05-03T16:07:32.274Z</time></trkpt><trkpt lat="44.5213583" lon="7.9003533"><ele>241.0</ele><time>2026-05-03T16:07:33.274Z</time></trkpt><trkpt lat="44.5215717" lon="7.9003117"><ele>241.0</ele><time>2026-05-03T16:07:34.274Z</time></trkpt><trkpt lat="44.5217883" lon="7.9002867"><ele>241.0</ele><time>2026-05-03T16:07:35.274Z</time></trkpt><trkpt lat="44.5220117" lon="7.900255"><ele>241.0</ele><time>2026-05-03T16:07:36.274Z</time></trkpt><trkpt lat="44.5222317" lon="7.9002233"><ele>241.33333333333331</ele><time>2026-05-03T16:07:37.275Z</time></trkpt><trkpt lat="44.5224517" lon="7.9002033"><ele>241.66666666666669</ele><time>2026-05-03T16:07:38.274Z</time></trkpt><trkpt lat="44.52267" lon="7.9001783"><ele>242.0</ele><time>2026-05-03T16:07:39.275Z</time></trkpt><trkpt lat="44.5228933" lon="7.9001467"><ele>242.0</ele><time>2026-05-03T16:07:40.274Z</time></trkpt><trkpt lat="44.52311" lon="7.900125"><ele>242.0</ele><time>2026-05-03T16:07:41.274Z</time></trkpt><trkpt lat="44.5233233" lon="7.9001083"><ele>242.0</ele><time>2026-05-03T16:07:42.275Z</time></trkpt><trkpt lat="44.5235333" lon="7.9001"><ele>242.33333333333334</ele><time>2026-05-03T16:07:43.274Z</time></trkpt><trkpt lat="44.5237483" lon="7.9000917"><ele>242.66666666666669</ele><time>2026-05-03T16:07:44.274Z</time></trkpt><trkpt lat="44.5239733" lon="7.90008"><ele>243.0</ele><time>2026-05-03T16:07:45.274Z</time></trkpt><trkpt lat="44.524195" lon="7.9000767"><ele>243.33333333333331</ele><time>2026-05-03T16:07:46.274Z</time></trkpt><trkpt lat="44.5244167" lon="7.9000817"><ele>243.66666666666666</ele><time>2026-05-03T16:07:47.274Z</time></trkpt><trkpt lat="44.5246317" lon="7.900085"><ele>244.0</ele><time>2026-05-03T16:07:48.274Z</time></trkpt><trkpt lat="44.5248417" lon="7.9000833"><ele>244.0</ele><time>2026-05-03T16:07:49.274Z</time></trkpt><trkpt lat="44.5250467" lon="7.9000767"><ele>244.0</ele><time>2026-05-03T16:07:50.274Z</time></trkpt><trkpt lat="44.525245" lon="7.90007"><ele>244.0</ele><time>2026-05-03T16:07:51.274Z</time></trkpt><trkpt lat="44.525435" lon="7.90006"><ele>244.0</ele><time>2026-05-03T16:07:52.274Z</time></trkpt><trkpt lat="44.525615" lon="7.9000617"><ele>244.0</ele><time>2026-05-03T16:07:53.274Z</time></trkpt><trkpt lat="44.5257933" lon="7.9000583"><ele>244.0</ele><time>2026-05-03T16:07:54.274Z</time></trkpt><trkpt lat="44.525975" lon="7.900055"><ele>244.0</ele><time>2026-05-03T16:07:55.274Z</time></trkpt><trkpt lat="44.52615" lon="7.900055"><ele>244.0</ele><time>2026-05-03T16:07:56.275Z</time></trkpt><trkpt lat="44.5263283" lon="7.90005"><ele>244.0</ele><time>2026-05-03T16:07:57.274Z</time></trkpt><trkpt lat="44.5265" lon="7.900045"><ele>243.66666666666666</ele><time>2026-05-03T16:07:58.274Z</time></trkpt><trkpt lat="44.5266717" lon="7.9000417"><ele>243.33333333333331</ele><time>2026-05-03T16:07:59.274Z</time></trkpt><trkpt lat="44.5268417" lon="7.90004"><ele>243.0</ele><time>2026-05-03T16:08:00.274Z</time></trkpt><trkpt lat="44.5269983" lon="7.9000367"><ele>245.0</ele><time>2026-05-03T16:08:01.274Z</time></trkpt><trkpt lat="44.527155" lon="7.9000383"><ele>247.0</ele><time>2026-05-03T16:08:02.274Z</time></trkpt><trkpt lat="44.527305" lon="7.9000367"><ele>249.0</ele><time>2026-05-03T16:08:03.274Z</time></trkpt><trkpt lat="44.5274483" lon="7.9000367"><ele>249.0</ele><time>2026-05-03T16:08:04.274Z</time></trkpt><trkpt lat="44.52759" lon="7.9000317"><ele>249.0</ele><time>2026-05-03T16:08:05.274Z</time></trkpt><trkpt lat="44.5277367" lon="7.9000333"><ele>249.0</ele><time>2026-05-03T16:08:06.274Z</time></trkpt><trkpt lat="44.527885" lon="7.9000267"><ele>249.0</ele><time>2026-05-03T16:08:07.274Z</time></trkpt><trkpt lat="44.52804" lon="7.90002"><ele>250.66666666666669</ele><time>2026-05-03T16:08:08.275Z</time></trkpt><trkpt lat="44.5281967" lon="7.9000183"><ele>252.33333333333334</ele><time>2026-05-03T16:08:09.274Z</time></trkpt><trkpt lat="44.5283583" lon="7.900025"><ele>254.0</ele><time>2026-05-03T16:08:10.274Z</time></trkpt><trkpt lat="44.52853" lon="7.9000233"><ele>254.0</ele><time>2026-05-03T16:08:11.275Z</time></trkpt><trkpt lat="44.5287017" lon="7.9000183"><ele>254.0</ele><time>2026-05-03T16:08:12.274Z</time></trkpt><trkpt lat="44.5288733" lon="7.9000117"><ele>254.0</ele><time>2026-05-03T16:08:13.274Z</time></trkpt><trkpt lat="44.5290467" lon="7.8999983"><ele>252.33333333333334</ele><time>2026-05-03T16:08:14.275Z</time></trkpt><trkpt lat="44.5292183" lon="7.8999883"><ele>250.66666666666669</ele><time>2026-05-03T16:08:15.274Z</time></trkpt><trkpt lat="44.52938" lon="7.8999883"><ele>249.0</ele><time>2026-05-03T16:08:16.274Z</time></trkpt><trkpt lat="44.52954" lon="7.8999867"><ele>249.66666666666669</ele><time>2026-05-03T16:08:17.274Z</time></trkpt><trkpt lat="44.5296933" lon="7.8999867"><ele>250.33333333333334</ele><time>2026-05-03T16:08:18.274Z</time></trkpt><trkpt lat="44.5298583" lon="7.8999817"><ele>251.0</ele><time>2026-05-03T16:08:19.274Z</time></trkpt><trkpt lat="44.5300383" lon="7.8999817"><ele>251.0</ele><time>2026-05-03T16:08:20.274Z</time></trkpt><trkpt lat="44.530225" lon="7.89998"><ele>251.0</ele><time>2026-05-03T16:08:21.274Z</time></trkpt><trkpt lat="44.5304317" lon="7.8999683"><ele>251.0</ele><time>2026-05-03T16:08:22.274Z</time></trkpt><trkpt lat="44.5306567" lon="7.8999583"><ele>251.0</ele><time>2026-05-03T16:08:23.274Z</time></trkpt><trkpt lat="44.53089" lon="7.89995"><ele>251.0</ele><time>2026-05-03T16:08:24.274Z</time></trkpt><trkpt lat="44.53113" lon="7.8999467"><ele>251.0</ele><time>2026-05-03T16:08:25.274Z</time></trkpt><trkpt lat="44.5313767" lon="7.8999367"><ele>251.0</ele><time>2026-05-03T16:08:26.275Z</time></trkpt><trkpt lat="44.531615" lon="7.8999383"><ele>251.0</ele><time>2026-05-03T16:08:27.274Z</time></trkpt><trkpt lat="44.5318517" lon="7.8999367"><ele>251.0</ele><time>2026-05-03T16:08:28.274Z</time></trkpt><trkpt lat="44.532095" lon="7.8999233"><ele>251.0</ele><time>2026-05-03T16:08:29.274Z</time></trkpt><trkpt lat="44.532335" lon="7.89992"><ele>251.0</ele><time>2026-05-03T16:08:30.274Z</time></trkpt><trkpt lat="44.5325833" lon="7.8999233"><ele>251.0</ele><time>2026-05-03T16:08:31.274Z</time></trkpt><trkpt lat="44.5328167" lon="7.89991"><ele>251.0</ele><time>2026-05-03T16:08:32.274Z</time></trkpt><trkpt lat="44.533045" lon="7.8999067"><ele>250.33333333333334</ele><time>2026-05-03T16:08:33.274Z</time></trkpt><trkpt lat="44.53326" lon="7.8999083"><ele>249.66666666666669</ele><time>2026-05-03T16:08:34.274Z</time></trkpt><trkpt lat="44.53347" lon="7.899905"><ele>249.0</ele><time>2026-05-03T16:08:35.274Z</time></trkpt><trkpt lat="44.5336633" lon="7.8999033"><ele>248.66666666666669</ele><time>2026-05-03T16:08:36.274Z</time></trkpt><trkpt lat="44.533845" lon="7.89991"><ele>248.33333333333334</ele><time>2026-05-03T16:08:37.274Z</time></trkpt><trkpt lat="44.534015" lon="7.89991"><ele>248.0</ele><time>2026-05-03T16:08:38.274Z</time></trkpt><trkpt lat="44.5341933" lon="7.899905"><ele>248.0</ele><time>2026-05-03T16:08:39.274Z</time></trkpt><trkpt lat="44.53436" lon="7.8999083"><ele>248.0</ele><time>2026-05-03T16:08:40.275Z</time></trkpt><trkpt lat="44.534535" lon="7.8999067"><ele>248.0</ele><time>2026-05-03T16:08:41.274Z</time></trkpt><trkpt lat="44.5347167" lon="7.8999"><ele>248.66666666666669</ele><time>2026-05-03T16:08:42.274Z</time></trkpt><trkpt lat="44.5349033" lon="7.8999"><ele>249.33333333333331</ele><time>2026-05-03T16:08:43.274Z</time></trkpt><trkpt lat="44.5351033" lon="7.8998883"><ele>250.0</ele><time>2026-05-03T16:08:44.275Z</time></trkpt><trkpt lat="44.5353133" lon="7.899885"><ele>250.5</ele><time>2026-05-03T16:08:45.275Z</time></trkpt><trkpt lat="44.53554" lon="7.899875"><ele>251.0</ele><time>2026-05-03T16:08:46.274Z</time></trkpt><trkpt lat="44.5357667" lon="7.8998717"><ele>251.0</ele><time>2026-05-03T16:08:47.274Z</time></trkpt><trkpt lat="44.535985" lon="7.8998733"><ele>251.0</ele><time>2026-05-03T16:08:48.274Z</time></trkpt><trkpt lat="44.536195" lon="7.89987"><ele>251.0</ele><time>2026-05-03T16:08:49.274Z</time></trkpt><trkpt lat="44.5363933" lon="7.8998583"><ele>250.0</ele><time>2026-05-03T16:08:50.274Z</time></trkpt><trkpt lat="44.5365817" lon="7.899855"><ele>249.0</ele><time>2026-05-03T16:08:51.274Z</time></trkpt><trkpt lat="44.5367667" lon="7.8998583"><ele>248.0</ele><time>2026-05-03T16:08:52.274Z</time></trkpt><trkpt lat="44.53695" lon="7.89985"><ele>247.66666666666669</ele><time>2026-05-03T16:08:53.274Z</time></trkpt><trkpt lat="44.5371283" lon="7.8998383"><ele>247.33333333333331</ele><time>2026-05-03T16:08:54.274Z</time></trkpt><trkpt lat="44.5373133" lon="7.899825"><ele>247.0</ele><time>2026-05-03T16:08:55.274Z</time></trkpt><trkpt lat="44.5374883" lon="7.8998083"><ele>247.0</ele><time>2026-05-03T16:08:56.275Z</time></trkpt><trkpt lat="44.5376617" lon="7.8997783"><ele>247.0</ele><time>2026-05-03T16:08:57.274Z</time></trkpt><trkpt lat="44.53783" lon="7.8997583"><ele>247.0</ele><time>2026-05-03T16:08:58.275Z</time></trkpt><trkpt lat="44.53799" lon="7.8997267"><ele>247.0</ele><time>2026-05-03T16:08:59.274Z</time></trkpt><trkpt lat="44.5381533" lon="7.899685"><ele>247.0</ele><time>2026-05-03T16:09:00.274Z</time></trkpt><trkpt lat="44.538315" lon="7.8996383"><ele>247.0</ele><time>2026-05-03T16:09:01.274Z</time></trkpt><trkpt lat="44.5384767" lon="7.89958"><ele>247.0</ele><time>2026-05-03T16:09:02.274Z</time></trkpt><trkpt lat="44.538645" lon="7.899525"><ele>247.0</ele><time>2026-05-03T16:09:03.274Z</time></trkpt><trkpt lat="44.53882" lon="7.8994683"><ele>247.0</ele><time>2026-05-03T16:09:04.275Z</time></trkpt><trkpt lat="44.539" lon="7.8994167"><ele>245.33333333333331</ele><time>2026-05-03T16:09:05.274Z</time></trkpt><trkpt lat="44.539195" lon="7.89936"><ele>243.66666666666669</ele><time>2026-05-03T16:09:06.274Z</time></trkpt><trkpt lat="44.5394017" lon="7.8992917"><ele>242.0</ele><time>2026-05-03T16:09:07.274Z</time></trkpt><trkpt lat="44.5396133" lon="7.8992183"><ele>239.5</ele><time>2026-05-03T16:09:08.274Z</time></trkpt><trkpt lat="44.539835" lon="7.8991467"><ele>237.0</ele><time>2026-05-03T16:09:09.274Z</time></trkpt><trkpt lat="44.540075" lon="7.8990733"><ele>237.0</ele><time>2026-05-03T16:09:10.274Z</time></trkpt><trkpt lat="44.5403317" lon="7.898995"><ele>237.0</ele><time>2026-05-03T16:09:11.274Z</time></trkpt><trkpt lat="44.5405983" lon="7.89891"><ele>234.5</ele><time>2026-05-03T16:09:12.275Z</time></trkpt><trkpt lat="44.540855" lon="7.8988333"><ele>232.0</ele><time>2026-05-03T16:09:13.274Z</time></trkpt><trkpt lat="44.541115" lon="7.898755"><ele>231.5</ele><time>2026-05-03T16:09:14.274Z</time></trkpt><trkpt lat="44.5413783" lon="7.898665"><ele>231.0</ele><time>2026-05-03T16:09:15.274Z</time></trkpt><trkpt lat="44.5416267" lon="7.8985867"><ele>231.0</ele><time>2026-05-03T16:09:16.274Z</time></trkpt><trkpt lat="44.5418917" lon="7.898505"><ele>231.0</ele><time>2026-05-03T16:09:17.274Z</time></trkpt><trkpt lat="44.5421617" lon="7.898425"><ele>231.0</ele><time>2026-05-03T16:09:18.274Z</time></trkpt><trkpt lat="44.5424383" lon="7.89834"><ele>231.0</ele><time>2026-05-03T16:09:19.275Z</time></trkpt><trkpt lat="44.54273" lon="7.89825"><ele>231.5</ele><time>2026-05-03T16:09:20.275Z</time></trkpt><trkpt lat="44.5430217" lon="7.8981633"><ele>232.0</ele><time>2026-05-03T16:09:21.274Z</time></trkpt><trkpt lat="44.5433133" lon="7.89807"><ele>232.0</ele><time>2026-05-03T16:09:22.275Z</time></trkpt><trkpt lat="44.54361" lon="7.8979783"><ele>232.0</ele><time>2026-05-03T16:09:23.274Z</time></trkpt><trkpt lat="44.5439183" lon="7.8978867"><ele>230.5</ele><time>2026-05-03T16:09:24.274Z</time></trkpt><trkpt lat="44.544225" lon="7.8977967"><ele>229.0</ele><time>2026-05-03T16:09:25.274Z</time></trkpt><trkpt lat="44.544525" lon="7.8977067"><ele>229.0</ele><time>2026-05-03T16:09:26.275Z</time></trkpt><trkpt lat="44.5448067" lon="7.897635"><ele>229.0</ele><time>2026-05-03T16:09:27.275Z</time></trkpt><trkpt lat="44.5450767" lon="7.8975483"><ele>229.0</ele><time>2026-05-03T16:09:28.274Z</time></trkpt><trkpt lat="44.545345" lon="7.8974633"><ele>229.0</ele><time>2026-05-03T16:09:29.275Z</time></trkpt><trkpt lat="44.5456117" lon="7.897375"><ele>229.0</ele><time>2026-05-03T16:09:30.274Z</time></trkpt><trkpt lat="44.5458717" lon="7.8972883"><ele>229.0</ele><time>2026-05-03T16:09:31.274Z</time></trkpt><trkpt lat="44.5461367" lon="7.8972067"><ele>229.0</ele><time>2026-05-03T16:09:32.274Z</time></trkpt><trkpt lat="44.5464017" lon="7.8971267"><ele>229.0</ele><time>2026-05-03T16:09:33.274Z</time></trkpt><trkpt lat="44.5466717" lon="7.8970467"><ele>229.0</ele><time>2026-05-03T16:09:34.274Z</time></trkpt><trkpt lat="44.5469383" lon="7.8969783"><ele>229.0</ele><time>2026-05-03T16:09:35.274Z</time></trkpt><trkpt lat="44.5472017" lon="7.896905"><ele>229.0</ele><time>2026-05-03T16:09:36.274Z</time></trkpt><trkpt lat="44.5474617" lon="7.8968417"><ele>229.0</ele><time>2026-05-03T16:09:37.274Z</time></trkpt><trkpt lat="44.54773" lon="7.8967883"><ele>228.0</ele><time>2026-05-03T16:09:38.274Z</time></trkpt><trkpt lat="44.5479917" lon="7.8967533"><ele>227.0</ele><time>2026-05-03T16:09:39.274Z</time></trkpt><trkpt lat="44.5482533" lon="7.89674"><ele>229.5</ele><time>2026-05-03T16:09:40.274Z</time></trkpt><trkpt lat="44.5485017" lon="7.8967383"><ele>232.0</ele><time>2026-05-03T16:09:41.274Z</time></trkpt><trkpt lat="44.5487567" lon="7.896735"><ele>233.0</ele><time>2026-05-03T16:09:42.274Z</time></trkpt><trkpt lat="44.5490083" lon="7.8967433"><ele>234.0</ele><time>2026-05-03T16:09:43.274Z</time></trkpt><trkpt lat="44.54926" lon="7.8967567"><ele>231.0</ele><time>2026-05-03T16:09:44.274Z</time></trkpt><trkpt lat="44.54951" lon="7.896785"><ele>228.0</ele><time>2026-05-03T16:09:45.274Z</time></trkpt><trkpt lat="44.5497633" lon="7.8968167"><ele>228.0</ele><time>2026-05-03T16:09:46.274Z</time></trkpt><trkpt lat="44.5500117" lon="7.896855"><ele>228.0</ele><time>2026-05-03T16:09:47.274Z</time></trkpt><trkpt lat="44.550255" lon="7.8969017"><ele>231.0</ele><time>2026-05-03T16:09:48.274Z</time></trkpt><trkpt lat="44.5504917" lon="7.8969517"><ele>234.0</ele><time>2026-05-03T16:09:49.274Z</time></trkpt><trkpt lat="44.5507167" lon="7.8969983"><ele>234.0</ele><time>2026-05-03T16:09:50.275Z</time></trkpt><trkpt lat="44.5509367" lon="7.8970333"><ele>234.0</ele><time>2026-05-03T16:09:51.274Z</time></trkpt><trkpt lat="44.5511517" lon="7.8970633"><ele>234.0</ele><time>2026-05-03T16:09:52.274Z</time></trkpt><trkpt lat="44.5513617" lon="7.8970967"><ele>236.33333333333331</ele><time>2026-05-03T16:09:53.274Z</time></trkpt><trkpt lat="44.551565" lon="7.897135"><ele>238.66666666666666</ele><time>2026-05-03T16:09:54.274Z</time></trkpt><trkpt lat="44.5517667" lon="7.8971683"><ele>241.0</ele><time>2026-05-03T16:09:55.274Z</time></trkpt><trkpt lat="44.5519617" lon="7.897195"><ele>241.66666666666666</ele><time>2026-05-03T16:09:56.275Z</time></trkpt><trkpt lat="44.552155" lon="7.8972333"><ele>242.33333333333331</ele><time>2026-05-03T16:09:57.274Z</time></trkpt><trkpt lat="44.552345" lon="7.8972667"><ele>243.0</ele><time>2026-05-03T16:09:58.274Z</time></trkpt><trkpt lat="44.5525333" lon="7.8972983"><ele>243.0</ele><time>2026-05-03T16:09:59.274Z</time></trkpt><trkpt lat="44.5527233" lon="7.89733"><ele>243.0</ele><time>2026-05-03T16:10:00.274Z</time></trkpt><trkpt lat="44.5529117" lon="7.89737"><ele>243.0</ele><time>2026-05-03T16:10:01.274Z</time></trkpt><trkpt lat="44.5531067" lon="7.8974"><ele>245.0</ele><time>2026-05-03T16:10:02.274Z</time></trkpt><trkpt lat="44.55331" lon="7.897425"><ele>247.0</ele><time>2026-05-03T16:10:03.274Z</time></trkpt><trkpt lat="44.5535233" lon="7.8974567"><ele>249.0</ele><time>2026-05-03T16:10:04.274Z</time></trkpt><trkpt lat="44.5537183" lon="7.8974967"><ele>249.33333333333331</ele><time>2026-05-03T16:10:05.274Z</time></trkpt><trkpt lat="44.5539167" lon="7.8975367"><ele>249.66666666666666</ele><time>2026-05-03T16:10:06.274Z</time></trkpt><trkpt lat="44.5541167" lon="7.897575"><ele>250.0</ele><time>2026-05-03T16:10:07.274Z</time></trkpt><trkpt lat="44.5543217" lon="7.89761"><ele>248.0</ele><time>2026-05-03T16:10:08.274Z</time></trkpt><trkpt lat="44.5545267" lon="7.8976467"><ele>246.0</ele><time>2026-05-03T16:10:09.274Z</time></trkpt><trkpt lat="44.554725" lon="7.8976883"><ele>244.0</ele><time>2026-05-03T16:10:10.275Z</time></trkpt><trkpt lat="44.5549267" lon="7.8977167"><ele>244.0</ele><time>2026-05-03T16:10:11.274Z</time></trkpt><trkpt lat="44.555135" lon="7.89775"><ele>244.0</ele><time>2026-05-03T16:10:12.274Z</time></trkpt><trkpt lat="44.555345" lon="7.89777"><ele>244.0</ele><time>2026-05-03T16:10:13.274Z</time></trkpt><trkpt lat="44.555555" lon="7.89778"><ele>243.33333333333331</ele><time>2026-05-03T16:10:14.274Z</time></trkpt><trkpt lat="44.5557567" lon="7.8977817"><ele>242.66666666666669</ele><time>2026-05-03T16:10:15.274Z</time></trkpt><trkpt lat="44.55595" lon="7.897775"><ele>242.0</ele><time>2026-05-03T16:10:16.274Z</time></trkpt><trkpt lat="44.55615" lon="7.8977683"><ele>241.66666666666669</ele><time>2026-05-03T16:10:17.274Z</time></trkpt><trkpt lat="44.556345" lon="7.8977517"><ele>241.33333333333331</ele><time>2026-05-03T16:10:18.274Z</time></trkpt><trkpt lat="44.5565433" lon="7.8977367"><ele>241.0</ele><time>2026-05-03T16:10:19.274Z</time></trkpt><trkpt lat="44.5567483" lon="7.8977033"><ele>241.0</ele><time>2026-05-03T16:10:20.274Z</time></trkpt><trkpt lat="44.55697" lon="7.8976517"><ele>241.0</ele><time>2026-05-03T16:10:21.274Z</time></trkpt><trkpt lat="44.5572017" lon="7.89761"><ele>241.5</ele><time>2026-05-03T16:10:22.274Z</time></trkpt><trkpt lat="44.5574483" lon="7.8975633"><ele>242.0</ele><time>2026-05-03T16:10:23.274Z</time></trkpt><trkpt lat="44.5577167" lon="7.8975133"><ele>240.5</ele><time>2026-05-03T16:10:24.275Z</time></trkpt><trkpt lat="44.5579817" lon="7.89747"><ele>239.0</ele><time>2026-05-03T16:10:25.274Z</time></trkpt><trkpt lat="44.5582567" lon="7.8974283"><ele>239.0</ele><time>2026-05-03T16:10:26.274Z</time></trkpt><trkpt lat="44.558525" lon="7.897385"><ele>239.0</ele><time>2026-05-03T16:10:27.274Z</time></trkpt><trkpt lat="44.5587817" lon="7.8973417"><ele>238.0</ele><time>2026-05-03T16:10:28.275Z</time></trkpt><trkpt lat="44.5590367" lon="7.897295"><ele>237.0</ele><time>2026-05-03T16:10:29.274Z</time></trkpt><trkpt lat="44.5592717" lon="7.89726"><ele>237.0</ele><time>2026-05-03T16:10:30.274Z</time></trkpt><trkpt lat="44.5595117" lon="7.8972267"><ele>237.0</ele><time>2026-05-03T16:10:31.274Z</time></trkpt><trkpt lat="44.5597333" lon="7.8972017"><ele>235.0</ele><time>2026-05-03T16:10:32.274Z</time></trkpt><trkpt lat="44.5599333" lon="7.8971767"><ele>233.0</ele><time>2026-05-03T16:10:33.274Z</time></trkpt><trkpt lat="44.5601317" lon="7.8971517"><ele>231.0</ele><time>2026-05-03T16:10:34.274Z</time></trkpt><trkpt lat="44.560325" lon="7.8971167"><ele>230.66666666666669</ele><time>2026-05-03T16:10:35.274Z</time></trkpt><trkpt lat="44.5605067" lon="7.897075"><ele>230.33333333333334</ele><time>2026-05-03T16:10:36.275Z</time></trkpt><trkpt lat="44.560685" lon="7.8970467"><ele>230.0</ele><time>2026-05-03T16:10:37.275Z</time></trkpt><trkpt lat="44.5608683" lon="7.8970167"><ele>230.0</ele><time>2026-05-03T16:10:38.274Z</time></trkpt><trkpt lat="44.5610483" lon="7.8969867"><ele>230.0</ele><time>2026-05-03T16:10:39.274Z</time></trkpt><trkpt lat="44.5612317" lon="7.896955"><ele>230.0</ele><time>2026-05-03T16:10:40.275Z</time></trkpt><trkpt lat="44.5613983" lon="7.8969233"><ele>229.0</ele><time>2026-05-03T16:10:41.274Z</time></trkpt><trkpt lat="44.561575" lon="7.8968883"><ele>228.0</ele><time>2026-05-03T16:10:42.274Z</time></trkpt><trkpt lat="44.56175" lon="7.8968633"><ele>227.0</ele><time>2026-05-03T16:10:43.274Z</time></trkpt><trkpt lat="44.5619133" lon="7.8968417"><ele>226.0</ele><time>2026-05-03T16:10:44.274Z</time></trkpt><trkpt lat="44.562075" lon="7.896815"><ele>225.0</ele><time>2026-05-03T16:10:45.275Z</time></trkpt><trkpt lat="44.562225" lon="7.89679"><ele>224.0</ele><time>2026-05-03T16:10:46.274Z</time></trkpt><trkpt lat="44.5623617" lon="7.8967683"><ele>225.25</ele><time>2026-05-03T16:10:47.274Z</time></trkpt><trkpt lat="44.56249" lon="7.8967517"><ele>226.5</ele><time>2026-05-03T16:10:48.274Z</time></trkpt><trkpt lat="44.5626167" lon="7.8967317"><ele>227.75</ele><time>2026-05-03T16:10:49.275Z</time></trkpt><trkpt lat="44.562735" lon="7.89672"><ele>229.0</ele><time>2026-05-03T16:10:50.274Z</time></trkpt><trkpt lat="44.5628533" lon="7.8967017"><ele>228.25</ele><time>2026-05-03T16:10:51.274Z</time></trkpt><trkpt lat="44.5629667" lon="7.8966933"><ele>227.5</ele><time>2026-05-03T16:10:52.274Z</time></trkpt><trkpt lat="44.5630817" lon="7.8966917"><ele>226.75</ele><time>2026-05-03T16:10:53.274Z</time></trkpt><trkpt lat="44.5631967" lon="7.8966983"><ele>226.0</ele><time>2026-05-03T16:10:54.274Z</time></trkpt><trkpt lat="44.5633217" lon="7.8967033"><ele>226.0</ele><time>2026-05-03T16:10:55.274Z</time></trkpt><trkpt lat="44.5634433" lon="7.8967133"><ele>226.00000000000003</ele><time>2026-05-03T16:10:56.274Z</time></trkpt><trkpt lat="44.5635567" lon="7.8967233"><ele>226.00000000000003</ele><time>2026-05-03T16:10:57.274Z</time></trkpt><trkpt lat="44.5636633" lon="7.8967467"><ele>226.0</ele><time>2026-05-03T16:10:58.274Z</time></trkpt><trkpt lat="44.5637583" lon="7.8967733"><ele>226.0</ele><time>2026-05-03T16:10:59.275Z</time></trkpt><trkpt lat="44.5638533" lon="7.8968167"><ele>226.0</ele><time>2026-05-03T16:11:00.274Z</time></trkpt><trkpt lat="44.5639467" lon="7.896885"><ele>226.00000000000003</ele><time>2026-05-03T16:11:01.275Z</time></trkpt><trkpt lat="44.5640367" lon="7.8969683"><ele>226.00000000000003</ele><time>2026-05-03T16:11:02.274Z</time></trkpt><trkpt lat="44.5641217" lon="7.8970433"><ele>226.0</ele><time>2026-05-03T16:11:03.274Z</time></trkpt><trkpt lat="44.5642" lon="7.8970867"><ele>226.0</ele><time>2026-05-03T16:11:04.274Z</time></trkpt><trkpt lat="44.5642833" lon="7.8970883"><ele>226.0</ele><time>2026-05-03T16:11:05.274Z</time></trkpt><trkpt lat="44.5643667" lon="7.8970583"><ele>226.00000000000003</ele><time>2026-05-03T16:11:06.274Z</time></trkpt><trkpt lat="44.56444" lon="7.8969967"><ele>226.00000000000003</ele><time>2026-05-03T16:11:07.274Z</time></trkpt><trkpt lat="44.564515" lon="7.8969233"><ele>226.0</ele><time>2026-05-03T16:11:08.274Z</time></trkpt><trkpt lat="44.5645967" lon="7.89686"><ele>226.0</ele><time>2026-05-03T16:11:09.275Z</time></trkpt><trkpt lat="44.56469" lon="7.89683"><ele>226.20000000000002</ele><time>2026-05-03T16:11:10.274Z</time></trkpt><trkpt lat="44.5647817" lon="7.896825"><ele>226.40000000000003</ele><time>2026-05-03T16:11:11.274Z</time></trkpt><trkpt lat="44.5648783" lon="7.8968617"><ele>226.6</ele><time>2026-05-03T16:11:12.274Z</time></trkpt><trkpt lat="44.5649783" lon="7.8969133"><ele>226.8</ele><time>2026-05-03T16:11:13.274Z</time></trkpt><trkpt lat="44.5650933" lon="7.8969783"><ele>227.0</ele><time>2026-05-03T16:11:14.274Z</time></trkpt><trkpt lat="44.5652133" lon="7.8970583"><ele>227.0</ele><time>2026-05-03T16:11:15.274Z</time></trkpt><trkpt lat="44.5653517" lon="7.897145"><ele>227.0</ele><time>2026-05-03T16:11:16.274Z</time></trkpt><trkpt lat="44.5655033" lon="7.8972383"><ele>227.0</ele><time>2026-05-03T16:11:17.274Z</time></trkpt><trkpt lat="44.5656733" lon="7.8973467"><ele>226.33333333333334</ele><time>2026-05-03T16:11:18.275Z</time></trkpt><trkpt lat="44.565855" lon="7.89748"><ele>225.66666666666669</ele><time>2026-05-03T16:11:19.274Z</time></trkpt><trkpt lat="44.5660417" lon="7.8976317"><ele>225.0</ele><time>2026-05-03T16:11:20.274Z</time></trkpt><trkpt lat="44.56623" lon="7.8978017"><ele>225.0</ele><time>2026-05-03T16:11:21.274Z</time></trkpt><trkpt lat="44.5664083" lon="7.897975"><ele>225.0</ele><time>2026-05-03T16:11:22.275Z</time></trkpt><trkpt lat="44.5665833" lon="7.8981483"><ele>225.0</ele><time>2026-05-03T16:11:23.274Z</time></trkpt><trkpt lat="44.5667417" lon="7.898325"><ele>224.33333333333331</ele><time>2026-05-03T16:11:24.274Z</time></trkpt><trkpt lat="44.56689" lon="7.8985067"><ele>223.66666666666666</ele><time>2026-05-03T16:11:25.274Z</time></trkpt><trkpt lat="44.5670367" lon="7.89869"><ele>223.0</ele><time>2026-05-03T16:11:26.274Z</time></trkpt><trkpt lat="44.5671767" lon="7.89888"><ele>223.0</ele><time>2026-05-03T16:11:27.275Z</time></trkpt><trkpt lat="44.5673083" lon="7.89907"><ele>223.0</ele><time>2026-05-03T16:11:28.274Z</time></trkpt><trkpt lat="44.5674317" lon="7.8992567"><ele>223.0</ele><time>2026-05-03T16:11:29.274Z</time></trkpt><trkpt lat="44.56755" lon="7.899445"><ele>223.0</ele><time>2026-05-03T16:11:30.274Z</time></trkpt><trkpt lat="44.56766" lon="7.8996233"><ele>223.0</ele><time>2026-05-03T16:11:31.275Z</time></trkpt><trkpt lat="44.5677767" lon="7.8997967"><ele>223.0</ele><time>2026-05-03T16:11:32.274Z</time></trkpt><trkpt lat="44.5678933" lon="7.8999733"><ele>223.33333333333331</ele><time>2026-05-03T16:11:33.274Z</time></trkpt><trkpt lat="44.5680083" lon="7.9001483"><ele>223.66666666666669</ele><time>2026-05-03T16:11:34.274Z</time></trkpt><trkpt lat="44.56812" lon="7.9003267"><ele>224.0</ele><time>2026-05-03T16:11:35.274Z</time></trkpt><trkpt lat="44.5682317" lon="7.9005083"><ele>224.0</ele><time>2026-05-03T16:11:36.274Z</time></trkpt><trkpt lat="44.5683467" lon="7.9006933"><ele>224.0</ele><time>2026-05-03T16:11:37.275Z</time></trkpt><trkpt lat="44.5684683" lon="7.9008833"><ele>224.0</ele><time>2026-05-03T16:11:38.274Z</time></trkpt><trkpt lat="44.5686067" lon="7.90108"><ele>224.0</ele><time>2026-05-03T16:11:39.274Z</time></trkpt><trkpt lat="44.5687567" lon="7.90129"><ele>224.0</ele><time>2026-05-03T16:11:40.274Z</time></trkpt><trkpt lat="44.5689033" lon="7.9015133"><ele>224.0</ele><time>2026-05-03T16:11:41.275Z</time></trkpt><trkpt lat="44.5690483" lon="7.9017567"><ele>223.0</ele><time>2026-05-03T16:11:42.274Z</time></trkpt><trkpt lat="44.56919" lon="7.9019967"><ele>222.0</ele><time>2026-05-03T16:11:43.274Z</time></trkpt><trkpt lat="44.5693383" lon="7.9022333"><ele>221.0</ele><time>2026-05-03T16:11:44.274Z</time></trkpt><trkpt lat="44.5694867" lon="7.9024617"><ele>221.0</ele><time>2026-05-03T16:11:45.274Z</time></trkpt><trkpt lat="44.56963" lon="7.902685"><ele>221.0</ele><time>2026-05-03T16:11:46.274Z</time></trkpt><trkpt lat="44.5697733" lon="7.9029067"><ele>221.0</ele><time>2026-05-03T16:11:47.274Z</time></trkpt><trkpt lat="44.569915" lon="7.90312"><ele>221.0</ele><time>2026-05-03T16:11:48.274Z</time></trkpt><trkpt lat="44.570055" lon="7.9033367"><ele>221.0</ele><time>2026-05-03T16:11:49.274Z</time></trkpt><trkpt lat="44.5701983" lon="7.9035567"><ele>221.0</ele><time>2026-05-03T16:11:50.275Z</time></trkpt><trkpt lat="44.5703317" lon="7.90377"><ele>220.66666666666669</ele><time>2026-05-03T16:11:51.274Z</time></trkpt><trkpt lat="44.5704783" lon="7.9039783"><ele>220.33333333333331</ele><time>2026-05-03T16:11:52.274Z</time></trkpt><trkpt lat="44.570635" lon="7.904195"><ele>220.0</ele><time>2026-05-03T16:11:53.274Z</time></trkpt><trkpt lat="44.5707917" lon="7.9044183"><ele>218.5</ele><time>2026-05-03T16:11:54.274Z</time></trkpt><trkpt lat="44.5709583" lon="7.904665"><ele>217.0</ele><time>2026-05-03T16:11:55.274Z</time></trkpt><trkpt lat="44.5711317" lon="7.9049233"><ele>217.5</ele><time>2026-05-03T16:11:56.275Z</time></trkpt><trkpt lat="44.5713133" lon="7.9051967"><ele>218.0</ele><time>2026-05-03T16:11:57.274Z</time></trkpt><trkpt lat="44.571505" lon="7.90549"><ele>218.0</ele><time>2026-05-03T16:11:58.274Z</time></trkpt><trkpt lat="44.57171" lon="7.90579"><ele>218.0</ele><time>2026-05-03T16:11:59.275Z</time></trkpt><trkpt lat="44.5718983" lon="7.9060967"><ele>218.0</ele><time>2026-05-03T16:12:00.274Z</time></trkpt><trkpt lat="44.57208" lon="7.9064033"><ele>218.0</ele><time>2026-05-03T16:12:01.274Z</time></trkpt><trkpt lat="44.5722567" lon="7.9066983"><ele>218.0</ele><time>2026-05-03T16:12:02.274Z</time></trkpt><trkpt lat="44.5724167" lon="7.906975"><ele>218.0</ele><time>2026-05-03T16:12:03.275Z</time></trkpt><trkpt lat="44.5725783" lon="7.907235"><ele>218.0</ele><time>2026-05-03T16:12:04.275Z</time></trkpt><trkpt lat="44.5727367" lon="7.9074867"><ele>218.0</ele><time>2026-05-03T16:12:05.274Z</time></trkpt><trkpt lat="44.57291" lon="7.907725"><ele>218.5</ele><time>2026-05-03T16:12:06.275Z</time></trkpt><trkpt lat="44.5730933" lon="7.9079533"><ele>219.0</ele><time>2026-05-03T16:12:07.274Z</time></trkpt><trkpt lat="44.5732833" lon="7.9081683"><ele>219.0</ele><time>2026-05-03T16:12:08.274Z</time></trkpt><trkpt lat="44.5734817" lon="7.908375"><ele>219.0</ele><time>2026-05-03T16:12:09.275Z</time></trkpt><trkpt lat="44.5736883" lon="7.9085633"><ele>218.0</ele><time>2026-05-03T16:12:10.274Z</time></trkpt><trkpt lat="44.5739017" lon="7.90874"><ele>217.0</ele><time>2026-05-03T16:12:11.274Z</time></trkpt><trkpt lat="44.5741117" lon="7.9089017"><ele>217.0</ele><time>2026-05-03T16:12:12.274Z</time></trkpt><trkpt lat="44.574325" lon="7.9090417"><ele>217.0</ele><time>2026-05-03T16:12:13.274Z</time></trkpt><trkpt lat="44.5745433" lon="7.9091617"><ele>217.5</ele><time>2026-05-03T16:12:14.274Z</time></trkpt><trkpt lat="44.5747733" lon="7.9092567"><ele>218.0</ele><time>2026-05-03T16:12:15.274Z</time></trkpt><trkpt lat="44.5750033" lon="7.9093467"><ele>218.0</ele><time>2026-05-03T16:12:16.275Z</time></trkpt><trkpt lat="44.5752367" lon="7.9094233"><ele>218.0</ele><time>2026-05-03T16:12:17.274Z</time></trkpt><trkpt lat="44.575475" lon="7.9094817"><ele>218.0</ele><time>2026-05-03T16:12:18.274Z</time></trkpt><trkpt lat="44.5757183" lon="7.9095183"><ele>218.0</ele><time>2026-05-03T16:12:19.274Z</time></trkpt><trkpt lat="44.575955" lon="7.90953"><ele>218.0</ele><time>2026-05-03T16:12:20.274Z</time></trkpt><trkpt lat="44.5761817" lon="7.9095317"><ele>218.0</ele><time>2026-05-03T16:12:21.274Z</time></trkpt><trkpt lat="44.5764083" lon="7.909525"><ele>218.0</ele><time>2026-05-03T16:12:22.274Z</time></trkpt><trkpt lat="44.5766317" lon="7.909515"><ele>218.0</ele><time>2026-05-03T16:12:23.274Z</time></trkpt><trkpt lat="44.5768467" lon="7.9095117"><ele>218.0</ele><time>2026-05-03T16:12:24.275Z</time></trkpt><trkpt lat="44.5770667" lon="7.9095117"><ele>217.66666666666669</ele><time>2026-05-03T16:12:25.274Z</time></trkpt><trkpt lat="44.577295" lon="7.909505"><ele>217.33333333333331</ele><time>2026-05-03T16:12:26.274Z</time></trkpt><trkpt lat="44.5775133" lon="7.9095"><ele>217.0</ele><time>2026-05-03T16:12:27.275Z</time></trkpt><trkpt lat="44.5777217" lon="7.9094967"><ele>216.33333333333331</ele><time>2026-05-03T16:12:28.274Z</time></trkpt><trkpt lat="44.57793" lon="7.9094917"><ele>215.66666666666669</ele><time>2026-05-03T16:12:29.275Z</time></trkpt><trkpt lat="44.578125" lon="7.909485"><ele>215.0</ele><time>2026-05-03T16:12:30.275Z</time></trkpt><trkpt lat="44.5783033" lon="7.9094767"><ele>215.0</ele><time>2026-05-03T16:12:31.274Z</time></trkpt><trkpt lat="44.578475" lon="7.909465"><ele>215.0</ele><time>2026-05-03T16:12:32.274Z</time></trkpt><trkpt lat="44.5786417" lon="7.909455"><ele>215.0</ele><time>2026-05-03T16:12:33.274Z</time></trkpt><trkpt lat="44.5788083" lon="7.9094383"><ele>217.33333333333334</ele><time>2026-05-03T16:12:34.274Z</time></trkpt><trkpt lat="44.578965" lon="7.9094183"><ele>219.66666666666669</ele><time>2026-05-03T16:12:35.275Z</time></trkpt><trkpt lat="44.5791217" lon="7.9094017"><ele>222.0</ele><time>2026-05-03T16:12:36.274Z</time></trkpt><trkpt lat="44.5792767" lon="7.9093783"><ele>222.0</ele><time>2026-05-03T16:12:37.274Z</time></trkpt><trkpt lat="44.5794317" lon="7.9093417"><ele>222.0</ele><time>2026-05-03T16:12:38.274Z</time></trkpt><trkpt lat="44.5795933" lon="7.9093"><ele>222.0</ele><time>2026-05-03T16:12:39.274Z</time></trkpt><trkpt lat="44.5797567" lon="7.9092433"><ele>221.66666666666669</ele><time>2026-05-03T16:12:40.274Z</time></trkpt><trkpt lat="44.57994" lon="7.90917"><ele>221.33333333333334</ele><time>2026-05-03T16:12:41.274Z</time></trkpt><trkpt lat="44.580105" lon="7.9091183"><ele>221.0</ele><time>2026-05-03T16:12:42.274Z</time></trkpt><trkpt lat="44.5802617" lon="7.9090733"><ele>221.8</ele><time>2026-05-03T16:12:43.274Z</time></trkpt><trkpt lat="44.5803933" lon="7.9090383"><ele>222.60000000000002</ele><time>2026-05-03T16:12:44.275Z</time></trkpt><trkpt lat="44.5804917" lon="7.9090183"><ele>223.4</ele><time>2026-05-03T16:12:45.274Z</time></trkpt><trkpt lat="44.580575" lon="7.9090067"><ele>224.2</ele><time>2026-05-03T16:12:46.274Z</time></trkpt><trkpt lat="44.5806883" lon="7.90905"><ele>225.0</ele><time>2026-05-03T16:12:48.274Z</time></trkpt><trkpt lat="44.580785" lon="7.9091233"><ele>225.0</ele><time>2026-05-03T16:12:50.274Z</time></trkpt><trkpt lat="44.5809117" lon="7.9091333"><ele>225.0</ele><time>2026-05-03T16:12:52.274Z</time></trkpt><trkpt lat="44.5809683" lon="7.9090883"><ele>225.0</ele><time>2026-05-03T16:12:53.274Z</time></trkpt><trkpt lat="44.5810133" lon="7.909015"><ele>225.0</ele><time>2026-05-03T16:12:54.274Z</time></trkpt><trkpt lat="44.5810483" lon="7.90892"><ele>225.0</ele><time>2026-05-03T16:12:55.274Z</time></trkpt><trkpt lat="44.5810867" lon="7.9087967"><ele>225.0</ele><time>2026-05-03T16:12:56.274Z</time></trkpt><trkpt lat="44.58115" lon="7.90866"><ele>225.0</ele><time>2026-05-03T16:12:57.275Z</time></trkpt><trkpt lat="44.581245" lon="7.9084983"><ele>225.0</ele><time>2026-05-03T16:12:58.274Z</time></trkpt><trkpt lat="44.5813667" lon="7.9083317"><ele>225.0</ele><time>2026-05-03T16:12:59.275Z</time></trkpt><trkpt lat="44.5815083" lon="7.9081483"><ele>224.33333333333331</ele><time>2026-05-03T16:13:00.274Z</time></trkpt><trkpt lat="44.5816617" lon="7.9079533"><ele>223.66666666666666</ele><time>2026-05-03T16:13:01.274Z</time></trkpt><trkpt lat="44.5818183" lon="7.90776"><ele>223.0</ele><time>2026-05-03T16:13:02.274Z</time></trkpt><trkpt lat="44.5819733" lon="7.9075383"><ele>223.66666666666666</ele><time>2026-05-03T16:13:03.275Z</time></trkpt><trkpt lat="44.5821133" lon="7.907315"><ele>224.33333333333331</ele><time>2026-05-03T16:13:04.274Z</time></trkpt><trkpt lat="44.5822417" lon="7.9070817"><ele>225.0</ele><time>2026-05-03T16:13:05.274Z</time></trkpt><trkpt lat="44.58237" lon="7.906845"><ele>224.66666666666669</ele><time>2026-05-03T16:13:06.274Z</time></trkpt><trkpt lat="44.58249" lon="7.9066283"><ele>224.33333333333334</ele><time>2026-05-03T16:13:07.274Z</time></trkpt><trkpt lat="44.5826117" lon="7.9063967"><ele>224.0</ele><time>2026-05-03T16:13:08.274Z</time></trkpt><trkpt lat="44.582725" lon="7.906175"><ele>224.0</ele><time>2026-05-03T16:13:09.274Z</time></trkpt><trkpt lat="44.5828433" lon="7.90596"><ele>224.0</ele><time>2026-05-03T16:13:10.274Z</time></trkpt><trkpt lat="44.58296" lon="7.9057517"><ele>224.0</ele><time>2026-05-03T16:13:11.274Z</time></trkpt><trkpt lat="44.5830583" lon="7.9055567"><ele>224.33333333333334</ele><time>2026-05-03T16:13:12.274Z</time></trkpt><trkpt lat="44.5831633" lon="7.9053683"><ele>224.66666666666669</ele><time>2026-05-03T16:13:13.274Z</time></trkpt><trkpt lat="44.5832733" lon="7.9051717"><ele>225.0</ele><time>2026-05-03T16:13:14.274Z</time></trkpt><trkpt lat="44.5833817" lon="7.90497"><ele>225.0</ele><time>2026-05-03T16:13:15.274Z</time></trkpt><trkpt lat="44.5834833" lon="7.9047633"><ele>225.0</ele><time>2026-05-03T16:13:16.274Z</time></trkpt><trkpt lat="44.5835817" lon="7.9045717"><ele>225.0</ele><time>2026-05-03T16:13:17.274Z</time></trkpt><trkpt lat="44.5836817" lon="7.9043767"><ele>226.66666666666669</ele><time>2026-05-03T16:13:18.274Z</time></trkpt><trkpt lat="44.5837883" lon="7.9041783"><ele>228.33333333333334</ele><time>2026-05-03T16:13:19.274Z</time></trkpt><trkpt lat="44.5838833" lon="7.9039817"><ele>230.0</ele><time>2026-05-03T16:13:20.274Z</time></trkpt><trkpt lat="44.5839783" lon="7.9037867"><ele>230.0</ele><time>2026-05-03T16:13:21.274Z</time></trkpt><trkpt lat="44.5840733" lon="7.9035933"><ele>230.0</ele><time>2026-05-03T16:13:22.274Z</time></trkpt><trkpt lat="44.5841717" lon="7.90341"><ele>230.0</ele><time>2026-05-03T16:13:23.274Z</time></trkpt><trkpt lat="44.58427" lon="7.9032233"><ele>230.33333333333334</ele><time>2026-05-03T16:13:24.274Z</time></trkpt><trkpt lat="44.5843717" lon="7.9030417"><ele>230.66666666666669</ele><time>2026-05-03T16:13:25.274Z</time></trkpt><trkpt lat="44.5844783" lon="7.902855"><ele>231.0</ele><time>2026-05-03T16:13:26.274Z</time></trkpt><trkpt lat="44.5845867" lon="7.9026633"><ele>230.66666666666669</ele><time>2026-05-03T16:13:27.275Z</time></trkpt><trkpt lat="44.5847067" lon="7.9024517"><ele>230.33333333333334</ele><time>2026-05-03T16:13:28.274Z</time></trkpt><trkpt lat="44.5848217" lon="7.9022333"><ele>230.0</ele><time>2026-05-03T16:13:29.275Z</time></trkpt><trkpt lat="44.58494" lon="7.90202"><ele>230.0</ele><time>2026-05-03T16:13:30.274Z</time></trkpt><trkpt lat="44.5850633" lon="7.9018067"><ele>230.0</ele><time>2026-05-03T16:13:31.274Z</time></trkpt><trkpt lat="44.5851867" lon="7.9016017"><ele>230.0</ele><time>2026-05-03T16:13:32.275Z</time></trkpt><trkpt lat="44.585315" lon="7.9014017"><ele>229.0</ele><time>2026-05-03T16:13:33.274Z</time></trkpt><trkpt lat="44.5854333" lon="7.9011983"><ele>228.0</ele><time>2026-05-03T16:13:34.274Z</time></trkpt><trkpt lat="44.5855483" lon="7.9009867"><ele>227.0</ele><time>2026-05-03T16:13:35.274Z</time></trkpt><trkpt lat="44.5856583" lon="7.9007767"><ele>226.33333333333334</ele><time>2026-05-03T16:13:36.274Z</time></trkpt><trkpt lat="44.585775" lon="7.9005567"><ele>225.66666666666669</ele><time>2026-05-03T16:13:37.274Z</time></trkpt><trkpt lat="44.5858967" lon="7.9003317"><ele>225.0</ele><time>2026-05-03T16:13:38.275Z</time></trkpt><trkpt lat="44.5860233" lon="7.90009"><ele>224.0</ele><time>2026-05-03T16:13:39.274Z</time></trkpt><trkpt lat="44.5861617" lon="7.8998317"><ele>223.0</ele><time>2026-05-03T16:13:40.274Z</time></trkpt><trkpt lat="44.5863033" lon="7.8995833"><ele>222.0</ele><time>2026-05-03T16:13:41.274Z</time></trkpt><trkpt lat="44.5864467" lon="7.899325"><ele>221.0</ele><time>2026-05-03T16:13:42.274Z</time></trkpt><trkpt lat="44.5866" lon="7.89906"><ele>221.0</ele><time>2026-05-03T16:13:43.274Z</time></trkpt><trkpt lat="44.5867483" lon="7.8987867"><ele>221.0</ele><time>2026-05-03T16:13:44.274Z</time></trkpt><trkpt lat="44.5869133" lon="7.8984917"><ele>221.0</ele><time>2026-05-03T16:13:45.274Z</time></trkpt><trkpt lat="44.587075" lon="7.8981983"><ele>221.0</ele><time>2026-05-03T16:13:46.274Z</time></trkpt><trkpt lat="44.5872383" lon="7.897905"><ele>221.0</ele><time>2026-05-03T16:13:47.275Z</time></trkpt><trkpt lat="44.58739" lon="7.8976317"><ele>221.0</ele><time>2026-05-03T16:13:48.274Z</time></trkpt><trkpt lat="44.58754" lon="7.89736"><ele>220.5</ele><time>2026-05-03T16:13:49.274Z</time></trkpt><trkpt lat="44.5876917" lon="7.8971"><ele>220.0</ele><time>2026-05-03T16:13:50.274Z</time></trkpt><trkpt lat="44.587835" lon="7.8968617"><ele>220.33333333333331</ele><time>2026-05-03T16:13:51.274Z</time></trkpt><trkpt lat="44.5879717" lon="7.8966317"><ele>220.66666666666669</ele><time>2026-05-03T16:13:52.274Z</time></trkpt><trkpt lat="44.5881017" lon="7.896415"><ele>221.0</ele><time>2026-05-03T16:13:53.274Z</time></trkpt><trkpt lat="44.5882233" lon="7.8962033"><ele>221.0</ele><time>2026-05-03T16:13:54.274Z</time></trkpt><trkpt lat="44.5883417" lon="7.8960017"><ele>221.0</ele><time>2026-05-03T16:13:55.275Z</time></trkpt><trkpt lat="44.5884717" lon="7.89581"><ele>221.0</ele><time>2026-05-03T16:13:56.274Z</time></trkpt><trkpt lat="44.588615" lon="7.895625"><ele>220.0</ele><time>2026-05-03T16:13:57.274Z</time></trkpt><trkpt lat="44.5887567" lon="7.8954567"><ele>219.0</ele><time>2026-05-03T16:13:58.274Z</time></trkpt><trkpt lat="44.588905" lon="7.8953033"><ele>218.0</ele><time>2026-05-03T16:13:59.274Z</time></trkpt><trkpt lat="44.5890617" lon="7.8951567"><ele>217.66666666666669</ele><time>2026-05-03T16:14:00.275Z</time></trkpt><trkpt lat="44.5892267" lon="7.8950233"><ele>217.33333333333331</ele><time>2026-05-03T16:14:01.274Z</time></trkpt><trkpt lat="44.5894" lon="7.894895"><ele>217.0</ele><time>2026-05-03T16:14:02.275Z</time></trkpt><trkpt lat="44.5895717" lon="7.8947833"><ele>217.0</ele><time>2026-05-03T16:14:03.274Z</time></trkpt><trkpt lat="44.5897433" lon="7.8946767"><ele>217.0</ele><time>2026-05-03T16:14:04.274Z</time></trkpt><trkpt lat="44.5899217" lon="7.8945867"><ele>217.0</ele><time>2026-05-03T16:14:05.274Z</time></trkpt><trkpt lat="44.59011" lon="7.894505"><ele>217.0</ele><time>2026-05-03T16:14:06.274Z</time></trkpt><trkpt lat="44.5902917" lon="7.8944383"><ele>217.0</ele><time>2026-05-03T16:14:07.274Z</time></trkpt><trkpt lat="44.5904867" lon="7.8943683"><ele>217.0</ele><time>2026-05-03T16:14:08.274Z</time></trkpt><trkpt lat="44.5906817" lon="7.8943117"><ele>217.0</ele><time>2026-05-03T16:14:09.274Z</time></trkpt><trkpt lat="44.5908583" lon="7.8942717"><ele>217.0</ele><time>2026-05-03T16:14:10.274Z</time></trkpt><trkpt lat="44.591035" lon="7.8942333"><ele>217.0</ele><time>2026-05-03T16:14:11.274Z</time></trkpt><trkpt lat="44.5912083" lon="7.8941917"><ele>217.0</ele><time>2026-05-03T16:14:12.274Z</time></trkpt><trkpt lat="44.59138" lon="7.8941433"><ele>217.0</ele><time>2026-05-03T16:14:13.275Z</time></trkpt><trkpt lat="44.5915483" lon="7.8940983"><ele>217.0</ele><time>2026-05-03T16:14:14.274Z</time></trkpt><trkpt lat="44.5917033" lon="7.8940617"><ele>217.0</ele><time>2026-05-03T16:14:15.274Z</time></trkpt><trkpt lat="44.5918617" lon="7.8940233"><ele>217.0</ele><time>2026-05-03T16:14:16.274Z</time></trkpt><trkpt lat="44.592015" lon="7.893995"><ele>217.0</ele><time>2026-05-03T16:14:17.275Z</time></trkpt><trkpt lat="44.592165" lon="7.8939633"><ele>216.66666666666666</ele><time>2026-05-03T16:14:18.274Z</time></trkpt><trkpt lat="44.5923183" lon="7.8939317"><ele>216.33333333333331</ele><time>2026-05-03T16:14:19.274Z</time></trkpt><trkpt lat="44.5924783" lon="7.8939067"><ele>216.0</ele><time>2026-05-03T16:14:20.274Z</time></trkpt><trkpt lat="44.5926367" lon="7.8939"><ele>216.0</ele><time>2026-05-03T16:14:21.274Z</time></trkpt><trkpt lat="44.5927917" lon="7.8939167"><ele>216.0</ele><time>2026-05-03T16:14:22.274Z</time></trkpt><trkpt lat="44.5929517" lon="7.8939483"><ele>216.0</ele><time>2026-05-03T16:14:23.274Z</time></trkpt><trkpt lat="44.59311" lon="7.8939933"><ele>216.25</ele><time>2026-05-03T16:14:24.274Z</time></trkpt><trkpt lat="44.5932583" lon="7.894035"><ele>216.5</ele><time>2026-05-03T16:14:25.275Z</time></trkpt><trkpt lat="44.593395" lon="7.8940767"><ele>216.75</ele><time>2026-05-03T16:14:26.274Z</time></trkpt><trkpt lat="44.5935317" lon="7.894115"><ele>217.0</ele><time>2026-05-03T16:14:27.275Z</time></trkpt><trkpt lat="44.5936717" lon="7.894135"><ele>216.5</ele><time>2026-05-03T16:14:28.274Z</time></trkpt><trkpt lat="44.59382" lon="7.8941317"><ele>216.0</ele><time>2026-05-03T16:14:29.275Z</time></trkpt><trkpt lat="44.5939583" lon="7.8941067"><ele>215.5</ele><time>2026-05-03T16:14:30.274Z</time></trkpt><trkpt lat="44.5940917" lon="7.8940583"><ele>215.0</ele><time>2026-05-03T16:14:31.274Z</time></trkpt><trkpt lat="44.5942283" lon="7.8939933"><ele>215.0</ele><time>2026-05-03T16:14:32.274Z</time></trkpt><trkpt lat="44.5943667" lon="7.893925"><ele>215.0</ele><time>2026-05-03T16:14:33.274Z</time></trkpt><trkpt lat="44.5944983" lon="7.89385"><ele>215.0</ele><time>2026-05-03T16:14:34.274Z</time></trkpt><trkpt lat="44.5946183" lon="7.8937817"><ele>215.0</ele><time>2026-05-03T16:14:35.274Z</time></trkpt><trkpt lat="44.594735" lon="7.8937233"><ele>216.0</ele><time>2026-05-03T16:14:36.274Z</time></trkpt><trkpt lat="44.5948467" lon="7.893665"><ele>217.0</ele><time>2026-05-03T16:14:37.274Z</time></trkpt><trkpt lat="44.5949433" lon="7.893615"><ele>218.0</ele><time>2026-05-03T16:14:38.274Z</time></trkpt><trkpt lat="44.59503" lon="7.8935633"><ele>219.0</ele><time>2026-05-03T16:14:39.274Z</time></trkpt><trkpt lat="44.5951133" lon="7.893515"><ele>220.0</ele><time>2026-05-03T16:14:40.274Z</time></trkpt><trkpt lat="44.5951967" lon="7.89347"><ele>220.0</ele><time>2026-05-03T16:14:41.274Z</time></trkpt><trkpt lat="44.595285" lon="7.8934333"><ele>220.0</ele><time>2026-05-03T16:14:42.274Z</time></trkpt><trkpt lat="44.5953833" lon="7.8934033"><ele>220.0</ele><time>2026-05-03T16:14:43.274Z</time></trkpt><trkpt lat="44.5954833" lon="7.8933767"><ele>220.0</ele><time>2026-05-03T16:14:44.274Z</time></trkpt><trkpt lat="44.595585" lon="7.8933817"><ele>220.0</ele><time>2026-05-03T16:14:45.274Z</time></trkpt><trkpt lat="44.595695" lon="7.893385"><ele>220.4</ele><time>2026-05-03T16:14:46.275Z</time></trkpt><trkpt lat="44.595795" lon="7.89339"><ele>220.8</ele><time>2026-05-03T16:14:47.274Z</time></trkpt><trkpt lat="44.5958883" lon="7.893395"><ele>221.2</ele><time>2026-05-03T16:14:48.274Z</time></trkpt><trkpt lat="44.59599" lon="7.89339"><ele>221.6</ele><time>2026-05-03T16:14:49.274Z</time></trkpt><trkpt lat="44.59609" lon="7.8933783"><ele>222.0</ele><time>2026-05-03T16:14:50.274Z</time></trkpt><trkpt lat="44.5961883" lon="7.8933567"><ele>222.66666666666666</ele><time>2026-05-03T16:14:51.274Z</time></trkpt><trkpt lat="44.5962867" lon="7.8933267"><ele>223.33333333333331</ele><time>2026-05-03T16:14:52.274Z</time></trkpt><trkpt lat="44.596375" lon="7.893285"><ele>224.0</ele><time>2026-05-03T16:14:53.274Z</time></trkpt><trkpt lat="44.5964533" lon="7.89324"><ele>224.66666666666666</ele><time>2026-05-03T16:14:54.274Z</time></trkpt><trkpt lat="44.59652" lon="7.8931967"><ele>225.33333333333331</ele><time>2026-05-03T16:14:55.274Z</time></trkpt><trkpt lat="44.596585" lon="7.893145"><ele>226.0</ele><time>2026-05-03T16:14:56.274Z</time></trkpt><trkpt lat="44.5966483" lon="7.8930783"><ele>225.99999999999997</ele><time>2026-05-03T16:14:57.274Z</time></trkpt><trkpt lat="44.5967117" lon="7.8930033"><ele>226.0</ele><time>2026-05-03T16:14:58.274Z</time></trkpt><trkpt lat="44.5967717" lon="7.89292"><ele>226.0</ele><time>2026-05-03T16:14:59.274Z</time></trkpt><trkpt lat="44.5968233" lon="7.892825"><ele>226.0</ele><time>2026-05-03T16:15:00.274Z</time></trkpt><trkpt lat="44.59687" lon="7.8927333"><ele>225.99999999999997</ele><time>2026-05-03T16:15:01.274Z</time></trkpt><trkpt lat="44.5969067" lon="7.8926367"><ele>226.0</ele><time>2026-05-03T16:15:02.274Z</time></trkpt><trkpt lat="44.596945" lon="7.89253"><ele>225.99999999999997</ele><time>2026-05-03T16:15:03.274Z</time></trkpt><trkpt lat="44.5969833" lon="7.8924217"><ele>226.0</ele><time>2026-05-03T16:15:04.274Z</time></trkpt><trkpt lat="44.597025" lon="7.8923183"><ele>226.0</ele><time>2026-05-03T16:15:05.275Z</time></trkpt><trkpt lat="44.5970767" lon="7.89222"><ele>226.0</ele><time>2026-05-03T16:15:06.274Z</time></trkpt><trkpt lat="44.59713" lon="7.89214"><ele>225.99999999999997</ele><time>2026-05-03T16:15:07.274Z</time></trkpt><trkpt lat="44.597195" lon="7.8920617"><ele>226.0</ele><time>2026-05-03T16:15:08.275Z</time></trkpt><trkpt lat="44.5972767" lon="7.8920083"><ele>226.0</ele><time>2026-05-03T16:15:09.274Z</time></trkpt><trkpt lat="44.5973633" lon="7.891965"><ele>226.00000000000003</ele><time>2026-05-03T16:15:10.274Z</time></trkpt><trkpt lat="44.5974583" lon="7.8919367"><ele>226.00000000000003</ele><time>2026-05-03T16:15:11.274Z</time></trkpt><trkpt lat="44.5975567" lon="7.891925"><ele>226.0</ele><time>2026-05-03T16:15:12.274Z</time></trkpt><trkpt lat="44.5976617" lon="7.8919417"><ele>226.0</ele><time>2026-05-03T16:15:13.274Z</time></trkpt><trkpt lat="44.5977717" lon="7.8919933"><ele>226.25</ele><time>2026-05-03T16:15:14.274Z</time></trkpt><trkpt lat="44.59789" lon="7.8920567"><ele>226.5</ele><time>2026-05-03T16:15:15.274Z</time></trkpt><trkpt lat="44.598015" lon="7.89211"><ele>226.75</ele><time>2026-05-03T16:15:16.274Z</time></trkpt><trkpt lat="44.5981467" lon="7.8921583"><ele>227.0</ele><time>2026-05-03T16:15:17.274Z</time></trkpt><trkpt lat="44.598285" lon="7.8922"><ele>227.0</ele><time>2026-05-03T16:15:18.274Z</time></trkpt><trkpt lat="44.598435" lon="7.89223"><ele>227.0</ele><time>2026-05-03T16:15:19.274Z</time></trkpt><trkpt lat="44.598585" lon="7.892235"><ele>227.0</ele><time>2026-05-03T16:15:20.274Z</time></trkpt><trkpt lat="44.598735" lon="7.8922217"><ele>227.75</ele><time>2026-05-03T16:15:21.274Z</time></trkpt><trkpt lat="44.598875" lon="7.892185"><ele>228.5</ele><time>2026-05-03T16:15:22.274Z</time></trkpt><trkpt lat="44.599005" lon="7.8921333"><ele>229.25</ele><time>2026-05-03T16:15:23.274Z</time></trkpt><trkpt lat="44.5991167" lon="7.89209"><ele>230.0</ele><time>2026-05-03T16:15:24.274Z</time></trkpt><trkpt lat="44.5992283" lon="7.8920433"><ele>230.0</ele><time>2026-05-03T16:15:25.274Z</time></trkpt><trkpt lat="44.599335" lon="7.8919983"><ele>230.0</ele><time>2026-05-03T16:15:26.275Z</time></trkpt><trkpt lat="44.59944" lon="7.891955"><ele>230.0</ele><time>2026-05-03T16:15:27.275Z</time></trkpt><trkpt lat="44.599545" lon="7.8919083"><ele>230.0</ele><time>2026-05-03T16:15:28.274Z</time></trkpt><trkpt lat="44.5996467" lon="7.8918617"><ele>230.0</ele><time>2026-05-03T16:15:29.274Z</time></trkpt><trkpt lat="44.5997567" lon="7.8918217"><ele>229.75</ele><time>2026-05-03T16:15:30.275Z</time></trkpt><trkpt lat="44.599875" lon="7.891775"><ele>229.5</ele><time>2026-05-03T16:15:31.274Z</time></trkpt><trkpt lat="44.5999933" lon="7.8917183"><ele>229.25</ele><time>2026-05-03T16:15:32.274Z</time></trkpt><trkpt lat="44.6001117" lon="7.8916633"><ele>229.0</ele><time>2026-05-03T16:15:33.274Z</time></trkpt><trkpt lat="44.60023" lon="7.89162"><ele>229.25</ele><time>2026-05-03T16:15:34.274Z</time></trkpt><trkpt lat="44.6003533" lon="7.891565"><ele>229.5</ele><time>2026-05-03T16:15:35.274Z</time></trkpt><trkpt lat="44.6004833" lon="7.89151"><ele>229.75</ele><time>2026-05-03T16:15:36.274Z</time></trkpt><trkpt lat="44.6006117" lon="7.8914583"><ele>230.0</ele><time>2026-05-03T16:15:37.274Z</time></trkpt><trkpt lat="44.6007433" lon="7.8914"><ele>230.0</ele><time>2026-05-03T16:15:38.274Z</time></trkpt><trkpt lat="44.6008833" lon="7.89135"><ele>230.0</ele><time>2026-05-03T16:15:39.274Z</time></trkpt><trkpt lat="44.60104" lon="7.89129"><ele>230.0</ele><time>2026-05-03T16:15:40.275Z</time></trkpt><trkpt lat="44.60119" lon="7.891225"><ele>231.0</ele><time>2026-05-03T16:15:41.274Z</time></trkpt><trkpt lat="44.6013433" lon="7.89115"><ele>232.0</ele><time>2026-05-03T16:15:42.274Z</time></trkpt><trkpt lat="44.6014983" lon="7.8910633"><ele>233.0</ele><time>2026-05-03T16:15:43.274Z</time></trkpt><trkpt lat="44.60164" lon="7.8909533"><ele>232.66666666666669</ele><time>2026-05-03T16:15:44.274Z</time></trkpt><trkpt lat="44.60179" lon="7.89084"><ele>232.33333333333331</ele><time>2026-05-03T16:15:45.274Z</time></trkpt><trkpt lat="44.601935" lon="7.8907167"><ele>232.0</ele><time>2026-05-03T16:15:46.274Z</time></trkpt><trkpt lat="44.6020833" lon="7.8905867"><ele>232.0</ele><time>2026-05-03T16:15:47.274Z</time></trkpt><trkpt lat="44.60224" lon="7.8904483"><ele>232.0</ele><time>2026-05-03T16:15:48.274Z</time></trkpt><trkpt lat="44.60238" lon="7.8903117"><ele>232.0</ele><time>2026-05-03T16:15:49.274Z</time></trkpt><trkpt lat="44.60252" lon="7.8901817"><ele>232.25</ele><time>2026-05-03T16:15:50.274Z</time></trkpt><trkpt lat="44.60266" lon="7.8900567"><ele>232.5</ele><time>2026-05-03T16:15:51.275Z</time></trkpt><trkpt lat="44.6027817" lon="7.8899483"><ele>232.75</ele><time>2026-05-03T16:15:52.274Z</time></trkpt><trkpt lat="44.6028917" lon="7.88985"><ele>233.0</ele><time>2026-05-03T16:15:53.274Z</time></trkpt><trkpt lat="44.603" lon="7.8897767"><ele>233.0</ele><time>2026-05-03T16:15:54.274Z</time></trkpt><trkpt lat="44.60311" lon="7.8897317"><ele>233.0</ele><time>2026-05-03T16:15:55.274Z</time></trkpt><trkpt lat="44.6032267" lon="7.88972"><ele>233.0</ele><time>2026-05-03T16:15:56.274Z</time></trkpt><trkpt lat="44.6033383" lon="7.8897483"><ele>233.0</ele><time>2026-05-03T16:15:57.274Z</time></trkpt><trkpt lat="44.60347" lon="7.8898083"><ele>233.0</ele><time>2026-05-03T16:15:58.274Z</time></trkpt><trkpt lat="44.6036083" lon="7.8898867"><ele>233.0</ele><time>2026-05-03T16:15:59.274Z</time></trkpt><trkpt lat="44.603755" lon="7.889985"><ele>233.0</ele><time>2026-05-03T16:16:00.274Z</time></trkpt><trkpt lat="44.6039017" lon="7.8900867"><ele>235.33333333333334</ele><time>2026-05-03T16:16:01.274Z</time></trkpt><trkpt lat="44.6040517" lon="7.8901883"><ele>237.66666666666669</ele><time>2026-05-03T16:16:02.274Z</time></trkpt><trkpt lat="44.6042033" lon="7.8902817"><ele>240.0</ele><time>2026-05-03T16:16:03.274Z</time></trkpt><trkpt lat="44.6043567" lon="7.89038"><ele>240.33333333333331</ele><time>2026-05-03T16:16:04.274Z</time></trkpt><trkpt lat="44.6045067" lon="7.8904783"><ele>240.66666666666666</ele><time>2026-05-03T16:16:05.274Z</time></trkpt><trkpt lat="44.604665" lon="7.8905833"><ele>241.0</ele><time>2026-05-03T16:16:06.274Z</time></trkpt><trkpt lat="44.6048167" lon="7.8907033"><ele>241.0</ele><time>2026-05-03T16:16:07.274Z</time></trkpt><trkpt lat="44.6049683" lon="7.890845"><ele>241.0</ele><time>2026-05-03T16:16:08.275Z</time></trkpt><trkpt lat="44.6051183" lon="7.8909967"><ele>241.0</ele><time>2026-05-03T16:16:09.274Z</time></trkpt><trkpt lat="44.605265" lon="7.891155"><ele>241.66666666666666</ele><time>2026-05-03T16:16:10.274Z</time></trkpt><trkpt lat="44.6054117" lon="7.891315"><ele>242.33333333333331</ele><time>2026-05-03T16:16:11.274Z</time></trkpt><trkpt lat="44.6055567" lon="7.8914783"><ele>243.0</ele><time>2026-05-03T16:16:12.274Z</time></trkpt><trkpt lat="44.605695" lon="7.8916317"><ele>246.33333333333331</ele><time>2026-05-03T16:16:13.274Z</time></trkpt><trkpt lat="44.60583" lon="7.8917833"><ele>249.66666666666666</ele><time>2026-05-03T16:16:14.274Z</time></trkpt><trkpt lat="44.6059533" lon="7.89194"><ele>253.0</ele><time>2026-05-03T16:16:15.274Z</time></trkpt><trkpt lat="44.60607" lon="7.8921183"><ele>253.0</ele><time>2026-05-03T16:16:16.274Z</time></trkpt><trkpt lat="44.6061783" lon="7.8923033"><ele>253.0</ele><time>2026-05-03T16:16:17.274Z</time></trkpt><trkpt lat="44.6062633" lon="7.892475"><ele>253.0</ele><time>2026-05-03T16:16:18.274Z</time></trkpt><trkpt lat="44.606345" lon="7.8926283"><ele>253.0</ele><time>2026-05-03T16:16:19.275Z</time></trkpt><trkpt lat="44.6064167" lon="7.8927617"><ele>253.0</ele><time>2026-05-03T16:16:20.274Z</time></trkpt><trkpt lat="44.606465" lon="7.892895"><ele>253.0</ele><time>2026-05-03T16:16:21.274Z</time></trkpt><trkpt lat="44.60649" lon="7.8930267"><ele>253.0</ele><time>2026-05-03T16:16:22.274Z</time></trkpt><trkpt lat="44.60648" lon="7.893145"><ele>253.0</ele><time>2026-05-03T16:16:23.274Z</time></trkpt><trkpt lat="44.6064367" lon="7.89324"><ele>253.0</ele><time>2026-05-03T16:16:24.274Z</time></trkpt><trkpt lat="44.6063683" lon="7.8932983"><ele>253.0</ele><time>2026-05-03T16:16:25.274Z</time></trkpt><trkpt lat="44.60628" lon="7.8933117"><ele>253.0</ele><time>2026-05-03T16:16:26.274Z</time></trkpt><trkpt lat="44.6061833" lon="7.89327"><ele>253.0</ele><time>2026-05-03T16:16:27.274Z</time></trkpt><trkpt lat="44.606085" lon="7.8931717"><ele>253.0</ele><time>2026-05-03T16:16:28.274Z</time></trkpt><trkpt lat="44.605995" lon="7.8930283"><ele>253.0</ele><time>2026-05-03T16:16:29.274Z</time></trkpt><trkpt lat="44.6058983" lon="7.89287"><ele>253.0</ele><time>2026-05-03T16:16:30.274Z</time></trkpt><trkpt lat="44.6058" lon="7.8927333"><ele>253.0</ele><time>2026-05-03T16:16:31.275Z</time></trkpt><trkpt lat="44.605715" lon="7.8926117"><ele>253.0</ele><time>2026-05-03T16:16:32.274Z</time></trkpt><trkpt lat="44.6056367" lon="7.8925"><ele>253.0</ele><time>2026-05-03T16:16:33.275Z</time></trkpt><trkpt lat="44.60556" lon="7.8924283"><ele>253.0</ele><time>2026-05-03T16:16:34.274Z</time></trkpt><trkpt lat="44.6054783" lon="7.89239"><ele>253.0</ele><time>2026-05-03T16:16:35.274Z</time></trkpt><trkpt lat="44.6053817" lon="7.8923967"><ele>253.0</ele><time>2026-05-03T16:16:36.274Z</time></trkpt><trkpt lat="44.605285" lon="7.89246"><ele>253.0</ele><time>2026-05-03T16:16:37.274Z</time></trkpt><trkpt lat="44.60519" lon="7.8925617"><ele>255.25</ele><time>2026-05-03T16:16:38.274Z</time></trkpt><trkpt lat="44.6051033" lon="7.8926717"><ele>257.5</ele><time>2026-05-03T16:16:39.274Z</time></trkpt><trkpt lat="44.6050217" lon="7.892775"><ele>259.75</ele><time>2026-05-03T16:16:40.275Z</time></trkpt><trkpt lat="44.60494" lon="7.8928933"><ele>262.0</ele><time>2026-05-03T16:16:41.274Z</time></trkpt><trkpt lat="44.604875" lon="7.8930133"><ele>262.0</ele><time>2026-05-03T16:16:42.274Z</time></trkpt><trkpt lat="44.6048383" lon="7.8931467"><ele>262.0</ele><time>2026-05-03T16:16:43.274Z</time></trkpt><trkpt lat="44.604835" lon="7.8933067"><ele>262.0</ele><time>2026-05-03T16:16:44.274Z</time></trkpt><trkpt lat="44.6048783" lon="7.8934967"><ele>262.0</ele><time>2026-05-03T16:16:45.274Z</time></trkpt><trkpt lat="44.60494" lon="7.8937183"><ele>263.66666666666663</ele><time>2026-05-03T16:16:46.274Z</time></trkpt><trkpt lat="44.6050017" lon="7.8939667"><ele>265.3333333333333</ele><time>2026-05-03T16:16:47.274Z</time></trkpt><trkpt lat="44.6050433" lon="7.89423"><ele>267.0</ele><time>2026-05-03T16:16:48.274Z</time></trkpt><trkpt lat="44.6050567" lon="7.8945267"><ele>269.3333333333333</ele><time>2026-05-03T16:16:49.274Z</time></trkpt><trkpt lat="44.6050483" lon="7.8948217"><ele>271.66666666666663</ele><time>2026-05-03T16:16:50.274Z</time></trkpt><trkpt lat="44.605025" lon="7.8951133"><ele>274.0</ele><time>2026-05-03T16:16:51.274Z</time></trkpt><trkpt lat="44.6049817" lon="7.895415"><ele>276.3333333333333</ele><time>2026-05-03T16:16:52.275Z</time></trkpt><trkpt lat="44.604935" lon="7.8957017"><ele>278.6666666666667</ele><time>2026-05-03T16:16:53.274Z</time></trkpt><trkpt lat="44.6048867" lon="7.8959817"><ele>281.0</ele><time>2026-05-03T16:16:54.274Z</time></trkpt><trkpt lat="44.6048267" lon="7.8962533"><ele>283.33333333333337</ele><time>2026-05-03T16:16:55.274Z</time></trkpt><trkpt lat="44.6047767" lon="7.896515"><ele>285.6666666666667</ele><time>2026-05-03T16:16:56.274Z</time></trkpt><trkpt lat="44.60472" lon="7.89677"><ele>288.0</ele><time>2026-05-03T16:16:57.274Z</time></trkpt><trkpt lat="44.6046583" lon="7.8970067"><ele>289.3333333333333</ele><time>2026-05-03T16:16:58.274Z</time></trkpt><trkpt lat="44.6046133" lon="7.89723"><ele>290.66666666666663</ele><time>2026-05-03T16:16:59.274Z</time></trkpt><trkpt lat="44.6045817" lon="7.89746"><ele>292.0</ele><time>2026-05-03T16:17:00.274Z</time></trkpt><trkpt lat="44.6045867" lon="7.89769"><ele>293.66666666666663</ele><time>2026-05-03T16:17:01.274Z</time></trkpt><trkpt lat="44.6046117" lon="7.89793"><ele>295.3333333333333</ele><time>2026-05-03T16:17:02.274Z</time></trkpt><trkpt lat="44.604625" lon="7.898175"><ele>297.0</ele><time>2026-05-03T16:17:03.274Z</time></trkpt><trkpt lat="44.604645" lon="7.8983983"><ele>297.6666666666667</ele><time>2026-05-03T16:17:04.274Z</time></trkpt><trkpt lat="44.6046683" lon="7.89863"><ele>298.33333333333337</ele><time>2026-05-03T16:17:05.274Z</time></trkpt><trkpt lat="44.6046967" lon="7.8988533"><ele>299.0</ele><time>2026-05-03T16:17:06.274Z</time></trkpt><trkpt lat="44.6047517" lon="7.89907"><ele>296.6666666666667</ele><time>2026-05-03T16:17:07.274Z</time></trkpt><trkpt lat="44.6048283" lon="7.899285"><ele>294.3333333333333</ele><time>2026-05-03T16:17:08.275Z</time></trkpt><trkpt lat="44.6049317" lon="7.899475"><ele>292.0</ele><time>2026-05-03T16:17:09.275Z</time></trkpt><trkpt lat="44.605065" lon="7.8996567"><ele>292.0</ele><time>2026-05-03T16:17:10.274Z</time></trkpt><trkpt lat="44.6051917" lon="7.8998433"><ele>292.0</ele><time>2026-05-03T16:17:11.274Z</time></trkpt><trkpt lat="44.605315" lon="7.9000317"><ele>292.0</ele><time>2026-05-03T16:17:12.275Z</time></trkpt><trkpt lat="44.6054233" lon="7.90023"><ele>295.66666666666663</ele><time>2026-05-03T16:17:13.275Z</time></trkpt><trkpt lat="44.6055267" lon="7.9004367"><ele>299.3333333333333</ele><time>2026-05-03T16:17:14.274Z</time></trkpt><trkpt lat="44.6056267" lon="7.90065"><ele>303.0</ele><time>2026-05-03T16:17:15.274Z</time></trkpt><trkpt lat="44.6057183" lon="7.90089"><ele>303.3333333333333</ele><time>2026-05-03T16:17:16.274Z</time></trkpt><trkpt lat="44.6058033" lon="7.901115"><ele>303.66666666666663</ele><time>2026-05-03T16:17:17.274Z</time></trkpt><trkpt lat="44.6059" lon="7.9013383"><ele>304.0</ele><time>2026-05-03T16:17:18.274Z</time></trkpt><trkpt lat="44.6059717" lon="7.901575"><ele>304.3333333333333</ele><time>2026-05-03T16:17:19.274Z</time></trkpt><trkpt lat="44.6060367" lon="7.9018267"><ele>304.6666666666667</ele><time>2026-05-03T16:17:20.274Z</time></trkpt><trkpt lat="44.6060883" lon="7.9020883"><ele>305.0</ele><time>2026-05-03T16:17:21.274Z</time></trkpt><trkpt lat="44.6061233" lon="7.9023683"><ele>309.0</ele><time>2026-05-03T16:17:22.274Z</time></trkpt><trkpt lat="44.6061617" lon="7.9026567"><ele>313.0</ele><time>2026-05-03T16:17:23.274Z</time></trkpt><trkpt lat="44.6062017" lon="7.9029383"><ele>317.0</ele><time>2026-05-03T16:17:24.274Z</time></trkpt><trkpt lat="44.6062383" lon="7.9032267"><ele>318.6666666666667</ele><time>2026-05-03T16:17:25.274Z</time></trkpt><trkpt lat="44.6062767" lon="7.903505"><ele>320.3333333333333</ele><time>2026-05-03T16:17:26.274Z</time></trkpt><trkpt lat="44.60631" lon="7.9037817"><ele>322.0</ele><time>2026-05-03T16:17:27.274Z</time></trkpt><trkpt lat="44.6063383" lon="7.90406"><ele>323.0</ele><time>2026-05-03T16:17:28.275Z</time></trkpt><trkpt lat="44.60638" lon="7.9043483"><ele>324.0</ele><time>2026-05-03T16:17:29.274Z</time></trkpt><trkpt lat="44.606435" lon="7.9046317"><ele>325.0</ele><time>2026-05-03T16:17:30.275Z</time></trkpt><trkpt lat="44.6064833" lon="7.9049167"><ele>326.3333333333333</ele><time>2026-05-03T16:17:31.274Z</time></trkpt><trkpt lat="44.6065567" lon="7.9051883"><ele>327.6666666666667</ele><time>2026-05-03T16:17:32.274Z</time></trkpt><trkpt lat="44.6066467" lon="7.905445"><ele>329.0</ele><time>2026-05-03T16:17:33.274Z</time></trkpt><trkpt lat="44.6067417" lon="7.9057"><ele>329.6666666666667</ele><time>2026-05-03T16:17:34.274Z</time></trkpt><trkpt lat="44.6068433" lon="7.9059533"><ele>330.3333333333333</ele><time>2026-05-03T16:17:35.275Z</time></trkpt><trkpt lat="44.60694" lon="7.906195"><ele>331.0</ele><time>2026-05-03T16:17:36.274Z</time></trkpt><trkpt lat="44.607035" lon="7.906435"><ele>331.0</ele><time>2026-05-03T16:17:37.274Z</time></trkpt><trkpt lat="44.607125" lon="7.90667"><ele>331.0</ele><time>2026-05-03T16:17:38.274Z</time></trkpt><trkpt lat="44.6072017" lon="7.906895"><ele>331.0</ele><time>2026-05-03T16:17:39.274Z</time></trkpt><trkpt lat="44.6072617" lon="7.9071233"><ele>333.66666666666663</ele><time>2026-05-03T16:17:40.275Z</time></trkpt><trkpt lat="44.6072783" lon="7.9073567"><ele>336.3333333333333</ele><time>2026-05-03T16:17:41.274Z</time></trkpt><trkpt lat="44.60728" lon="7.9075967"><ele>339.0</ele><time>2026-05-03T16:17:42.274Z</time></trkpt><trkpt lat="44.6072467" lon="7.9078383"><ele>339.3333333333333</ele><time>2026-05-03T16:17:43.274Z</time></trkpt><trkpt lat="44.6071867" lon="7.9080783"><ele>339.66666666666663</ele><time>2026-05-03T16:17:44.274Z</time></trkpt><trkpt lat="44.6071133" lon="7.9083267"><ele>340.0</ele><time>2026-05-03T16:17:45.274Z</time></trkpt><trkpt lat="44.6070367" lon="7.9085867"><ele>343.3333333333333</ele><time>2026-05-03T16:17:46.274Z</time></trkpt><trkpt lat="44.606955" lon="7.908855"><ele>346.6666666666667</ele><time>2026-05-03T16:17:47.275Z</time></trkpt><trkpt lat="44.6068717" lon="7.90912"><ele>350.0</ele><time>2026-05-03T16:17:48.274Z</time></trkpt><trkpt lat="44.6067917" lon="7.9093817"><ele>350.0</ele><time>2026-05-03T16:17:49.274Z</time></trkpt><trkpt lat="44.6067167" lon="7.9096333"><ele>350.0</ele><time>2026-05-03T16:17:50.274Z</time></trkpt><trkpt lat="44.6066433" lon="7.9098717"><ele>350.0</ele><time>2026-05-03T16:17:51.274Z</time></trkpt><trkpt lat="44.606585" lon="7.9100867"><ele>351.33333333333337</ele><time>2026-05-03T16:17:52.274Z</time></trkpt><trkpt lat="44.6065333" lon="7.9103133"><ele>352.6666666666667</ele><time>2026-05-03T16:17:53.274Z</time></trkpt><trkpt lat="44.606485" lon="7.9105517"><ele>354.0</ele><time>2026-05-03T16:17:54.274Z</time></trkpt><trkpt lat="44.6064567" lon="7.910815"><ele>356.3333333333333</ele><time>2026-05-03T16:17:55.274Z</time></trkpt><trkpt lat="44.6064783" lon="7.91106"><ele>358.66666666666663</ele><time>2026-05-03T16:17:56.274Z</time></trkpt><trkpt lat="44.6065317" lon="7.9112983"><ele>361.0</ele><time>2026-05-03T16:17:57.274Z</time></trkpt><trkpt lat="44.6066183" lon="7.9115283"><ele>362.66666666666663</ele><time>2026-05-03T16:17:58.274Z</time></trkpt><trkpt lat="44.6066933" lon="7.9117633"><ele>364.3333333333333</ele><time>2026-05-03T16:17:59.274Z</time></trkpt><trkpt lat="44.6067467" lon="7.9120067"><ele>366.0</ele><time>2026-05-03T16:18:00.275Z</time></trkpt><trkpt lat="44.606785" lon="7.91226"><ele>366.0</ele><time>2026-05-03T16:18:01.274Z</time></trkpt><trkpt lat="44.606795" lon="7.9125333"><ele>366.0</ele><time>2026-05-03T16:18:02.274Z</time></trkpt><trkpt lat="44.60679" lon="7.912805"><ele>366.0</ele><time>2026-05-03T16:18:03.275Z</time></trkpt><trkpt lat="44.60678" lon="7.9130783"><ele>367.3333333333333</ele><time>2026-05-03T16:18:04.274Z</time></trkpt><trkpt lat="44.60677" lon="7.9133667"><ele>368.66666666666663</ele><time>2026-05-03T16:18:05.274Z</time></trkpt><trkpt lat="44.6067533" lon="7.9136383"><ele>370.0</ele><time>2026-05-03T16:18:06.274Z</time></trkpt><trkpt lat="44.6067417" lon="7.9139"><ele>371.3333333333333</ele><time>2026-05-03T16:18:07.274Z</time></trkpt><trkpt lat="44.60673" lon="7.914165"><ele>372.6666666666667</ele><time>2026-05-03T16:18:08.274Z</time></trkpt><trkpt lat="44.6067533" lon="7.91442"><ele>374.0</ele><time>2026-05-03T16:18:09.274Z</time></trkpt><trkpt lat="44.6068033" lon="7.914665"><ele>375.6666666666667</ele><time>2026-05-03T16:18:10.274Z</time></trkpt><trkpt lat="44.60688" lon="7.914905"><ele>377.3333333333333</ele><time>2026-05-03T16:18:11.274Z</time></trkpt><trkpt lat="44.6069767" lon="7.9151333"><ele>379.0</ele><time>2026-05-03T16:18:12.275Z</time></trkpt><trkpt lat="44.6070833" lon="7.91535"><ele>379.3333333333333</ele><time>2026-05-03T16:18:13.274Z</time></trkpt><trkpt lat="44.607215" lon="7.9155567"><ele>379.6666666666667</ele><time>2026-05-03T16:18:14.274Z</time></trkpt><trkpt lat="44.60737" lon="7.915745"><ele>380.0</ele><time>2026-05-03T16:18:15.274Z</time></trkpt><trkpt lat="44.6075317" lon="7.9159233"><ele>380.6666666666667</ele><time>2026-05-03T16:18:16.274Z</time></trkpt><trkpt lat="44.607705" lon="7.916095"><ele>381.3333333333333</ele><time>2026-05-03T16:18:17.274Z</time></trkpt><trkpt lat="44.6078783" lon="7.9162717"><ele>382.0</ele><time>2026-05-03T16:18:18.274Z</time></trkpt><trkpt lat="44.60806" lon="7.9164567"><ele>382.0</ele><time>2026-05-03T16:18:19.275Z</time></trkpt><trkpt lat="44.60824" lon="7.9166383"><ele>382.0</ele><time>2026-05-03T16:18:20.274Z</time></trkpt><trkpt lat="44.6084167" lon="7.9168217"><ele>382.0</ele><time>2026-05-03T16:18:21.274Z</time></trkpt><trkpt lat="44.6085967" lon="7.9170033"><ele>383.3333333333333</ele><time>2026-05-03T16:18:22.274Z</time></trkpt><trkpt lat="44.60877" lon="7.9171783"><ele>384.66666666666663</ele><time>2026-05-03T16:18:23.274Z</time></trkpt><trkpt lat="44.60895" lon="7.917365"><ele>386.0</ele><time>2026-05-03T16:18:24.274Z</time></trkpt><trkpt lat="44.609125" lon="7.9175467"><ele>386.66666666666663</ele><time>2026-05-03T16:18:25.274Z</time></trkpt><trkpt lat="44.6092983" lon="7.9177283"><ele>387.33333333333337</ele><time>2026-05-03T16:18:26.274Z</time></trkpt><trkpt lat="44.6094717" lon="7.91791"><ele>388.0</ele><time>2026-05-03T16:18:27.274Z</time></trkpt><trkpt lat="44.6096467" lon="7.9180917"><ele>388.0</ele><time>2026-05-03T16:18:28.274Z</time></trkpt><trkpt lat="44.609815" lon="7.9182667"><ele>388.0</ele><time>2026-05-03T16:18:29.274Z</time></trkpt><trkpt lat="44.6099767" lon="7.9184417"><ele>388.0</ele><time>2026-05-03T16:18:30.275Z</time></trkpt><trkpt lat="44.6101317" lon="7.9186033"><ele>388.6666666666667</ele><time>2026-05-03T16:18:31.274Z</time></trkpt><trkpt lat="44.6102733" lon="7.9187567"><ele>389.33333333333337</ele><time>2026-05-03T16:18:32.274Z</time></trkpt><trkpt lat="44.6104183" lon="7.9188883"><ele>390.0</ele><time>2026-05-03T16:18:33.274Z</time></trkpt><trkpt lat="44.61058" lon="7.919"><ele>390.0</ele><time>2026-05-03T16:18:34.274Z</time></trkpt><trkpt lat="44.6107367" lon="7.9190967"><ele>390.0</ele><time>2026-05-03T16:18:35.274Z</time></trkpt><trkpt lat="44.6108933" lon="7.919195"><ele>390.0</ele><time>2026-05-03T16:18:36.274Z</time></trkpt><trkpt lat="44.6110533" lon="7.9192883"><ele>391.33333333333337</ele><time>2026-05-03T16:18:37.274Z</time></trkpt><trkpt lat="44.6111967" lon="7.9193783"><ele>392.6666666666667</ele><time>2026-05-03T16:18:38.275Z</time></trkpt><trkpt lat="44.6113433" lon="7.9194433"><ele>394.0</ele><time>2026-05-03T16:18:39.274Z</time></trkpt><trkpt lat="44.6114883" lon="7.919495"><ele>394.0</ele><time>2026-05-03T16:18:40.274Z</time></trkpt><trkpt lat="44.6116283" lon="7.9195333"><ele>394.0</ele><time>2026-05-03T16:18:41.274Z</time></trkpt><trkpt lat="44.6117617" lon="7.9195617"><ele>394.0</ele><time>2026-05-03T16:18:42.274Z</time></trkpt><trkpt lat="44.6118933" lon="7.9195867"><ele>394.0</ele><time>2026-05-03T16:18:43.274Z</time></trkpt><trkpt lat="44.6120167" lon="7.9196083"><ele>393.79999999999995</ele><time>2026-05-03T16:18:44.275Z</time></trkpt><trkpt lat="44.6121383" lon="7.9196367"><ele>393.59999999999997</ele><time>2026-05-03T16:18:45.274Z</time></trkpt><trkpt lat="44.612255" lon="7.9196667"><ele>393.4</ele><time>2026-05-03T16:18:46.274Z</time></trkpt><trkpt lat="44.6123633" lon="7.9197"><ele>393.2</ele><time>2026-05-03T16:18:47.274Z</time></trkpt><trkpt lat="44.6124567" lon="7.9197317"><ele>393.0</ele><time>2026-05-03T16:18:48.274Z</time></trkpt><trkpt lat="44.61253" lon="7.9197567"><ele>393.0</ele><time>2026-05-03T16:18:49.274Z</time></trkpt><trkpt lat="44.6125967" lon="7.9197783"><ele>393.0</ele><time>2026-05-03T16:18:50.274Z</time></trkpt><trkpt lat="44.612675" lon="7.9198183"><ele>393.0</ele><time>2026-05-03T16:18:52.274Z</time></trkpt><trkpt lat="44.6127483" lon="7.91987"><ele>393.0</ele><time>2026-05-03T16:18:55.274Z</time></trkpt><trkpt lat="44.6128233" lon="7.9199017"><ele>393.0</ele><time>2026-05-03T16:19:16.274Z</time></trkpt><trkpt lat="44.612885" lon="7.919925"><ele>393.0</ele><time>2026-05-03T16:19:17.274Z</time></trkpt><trkpt lat="44.61296" lon="7.91995"><ele>394.0</ele><time>2026-05-03T16:19:18.274Z</time></trkpt><trkpt lat="44.6130483" lon="7.9199817"><ele>395.0</ele><time>2026-05-03T16:19:19.274Z</time></trkpt><trkpt lat="44.6131467" lon="7.9200233"><ele>396.0</ele><time>2026-05-03T16:19:20.274Z</time></trkpt><trkpt lat="44.6132467" lon="7.9200817"><ele>397.0</ele><time>2026-05-03T16:19:21.274Z</time></trkpt><trkpt lat="44.6133367" lon="7.92017"><ele>398.0</ele><time>2026-05-03T16:19:22.274Z</time></trkpt><trkpt lat="44.613415" lon="7.9202633"><ele>398.5</ele><time>2026-05-03T16:19:23.274Z</time></trkpt><trkpt lat="44.6134867" lon="7.9203867"><ele>399.0</ele><time>2026-05-03T16:19:24.274Z</time></trkpt><trkpt lat="44.61355" lon="7.9205283"><ele>399.5</ele><time>2026-05-03T16:19:25.274Z</time></trkpt><trkpt lat="44.613615" lon="7.9206767"><ele>400.0</ele><time>2026-05-03T16:19:26.274Z</time></trkpt><trkpt lat="44.6136833" lon="7.92081"><ele>401.5</ele><time>2026-05-03T16:19:27.274Z</time></trkpt><trkpt lat="44.61375" lon="7.920945"><ele>403.0</ele><time>2026-05-03T16:19:28.274Z</time></trkpt><trkpt lat="44.6138133" lon="7.9210883"><ele>404.5</ele><time>2026-05-03T16:19:29.274Z</time></trkpt><trkpt lat="44.6138783" lon="7.9212217"><ele>406.0</ele><time>2026-05-03T16:19:30.274Z</time></trkpt><trkpt lat="44.6139433" lon="7.921365"><ele>406.0</ele><time>2026-05-03T16:19:31.274Z</time></trkpt><trkpt lat="44.61401" lon="7.92151"><ele>406.0</ele><time>2026-05-03T16:19:32.275Z</time></trkpt><trkpt lat="44.61408" lon="7.921655"><ele>406.0</ele><time>2026-05-03T16:19:33.274Z</time></trkpt><trkpt lat="44.6141417" lon="7.9218067"><ele>406.0</ele><time>2026-05-03T16:19:34.274Z</time></trkpt><trkpt lat="44.6141967" lon="7.9219767"><ele>406.5</ele><time>2026-05-03T16:19:35.274Z</time></trkpt><trkpt lat="44.614245" lon="7.922145"><ele>407.0</ele><time>2026-05-03T16:19:36.274Z</time></trkpt><trkpt lat="44.61429" lon="7.9223183"><ele>407.5</ele><time>2026-05-03T16:19:37.274Z</time></trkpt><trkpt lat="44.6143267" lon="7.9225033"><ele>408.0</ele><time>2026-05-03T16:19:38.274Z</time></trkpt><trkpt lat="44.6143667" lon="7.9226867"><ele>408.5</ele><time>2026-05-03T16:19:39.274Z</time></trkpt><trkpt lat="44.6144083" lon="7.9228633"><ele>409.0</ele><time>2026-05-03T16:19:40.274Z</time></trkpt><trkpt lat="44.6144517" lon="7.9230333"><ele>409.5</ele><time>2026-05-03T16:19:41.274Z</time></trkpt><trkpt lat="44.6144917" lon="7.9232083"><ele>410.0</ele><time>2026-05-03T16:19:42.274Z</time></trkpt><trkpt lat="44.6145383" lon="7.9233883"><ele>412.0</ele><time>2026-05-03T16:19:43.274Z</time></trkpt><trkpt lat="44.6145883" lon="7.9235683"><ele>414.0</ele><time>2026-05-03T16:19:44.274Z</time></trkpt><trkpt lat="44.6146433" lon="7.92373"><ele>416.0</ele><time>2026-05-03T16:19:45.275Z</time></trkpt><trkpt lat="44.6146967" lon="7.9239"><ele>418.0</ele><time>2026-05-03T16:19:46.274Z</time></trkpt><trkpt lat="44.6147517" lon="7.9240667"><ele>418.25</ele><time>2026-05-03T16:19:47.274Z</time></trkpt><trkpt lat="44.61481" lon="7.9242317"><ele>418.5</ele><time>2026-05-03T16:19:48.274Z</time></trkpt><trkpt lat="44.6148633" lon="7.9244"><ele>418.75</ele><time>2026-05-03T16:19:49.274Z</time></trkpt><trkpt lat="44.6149133" lon="7.9245783"><ele>419.0</ele><time>2026-05-03T16:19:50.274Z</time></trkpt><trkpt lat="44.6149567" lon="7.9247517"><ele>419.0</ele><time>2026-05-03T16:19:51.274Z</time></trkpt><trkpt lat="44.6150017" lon="7.9249383"><ele>419.0</ele><time>2026-05-03T16:19:52.274Z</time></trkpt><trkpt lat="44.6150433" lon="7.92513"><ele>419.0</ele><time>2026-05-03T16:19:53.274Z</time></trkpt><trkpt lat="44.61508" lon="7.9253333"><ele>419.0</ele><time>2026-05-03T16:19:54.275Z</time></trkpt><trkpt lat="44.615115" lon="7.92554"><ele>419.3333333333333</ele><time>2026-05-03T16:19:55.274Z</time></trkpt><trkpt lat="44.6151633" lon="7.92575"><ele>419.66666666666663</ele><time>2026-05-03T16:19:56.274Z</time></trkpt><trkpt lat="44.6151967" lon="7.9259567"><ele>420.0</ele><time>2026-05-03T16:19:57.275Z</time></trkpt><trkpt lat="44.6152283" lon="7.926165"><ele>420.0</ele><time>2026-05-03T16:19:58.274Z</time></trkpt><trkpt lat="44.6152733" lon="7.9263583"><ele>420.0</ele><time>2026-05-03T16:19:59.274Z</time></trkpt><trkpt lat="44.61531" lon="7.926545"><ele>420.0</ele><time>2026-05-03T16:20:00.274Z</time></trkpt><trkpt lat="44.615345" lon="7.9267233"><ele>420.0</ele><time>2026-05-03T16:20:01.274Z</time></trkpt><trkpt lat="44.6153817" lon="7.926895"><ele>421.2</ele><time>2026-05-03T16:20:02.274Z</time></trkpt><trkpt lat="44.6154183" lon="7.9270617"><ele>422.4</ele><time>2026-05-03T16:20:03.274Z</time></trkpt><trkpt lat="44.61545" lon="7.927225"><ele>423.6</ele><time>2026-05-03T16:20:04.274Z</time></trkpt><trkpt lat="44.6154633" lon="7.9273767"><ele>424.8</ele><time>2026-05-03T16:20:05.274Z</time></trkpt><trkpt lat="44.6154683" lon="7.9275083"><ele>426.0</ele><time>2026-05-03T16:20:06.274Z</time></trkpt><trkpt lat="44.6154717" lon="7.9276133"><ele>426.0</ele><time>2026-05-03T16:20:07.274Z</time></trkpt><trkpt lat="44.615475" lon="7.927715"><ele>426.0</ele><time>2026-05-03T16:20:08.274Z</time></trkpt><trkpt lat="44.61554" lon="7.9278567"><ele>426.0</ele><time>2026-05-03T16:20:10.274Z</time></trkpt><trkpt lat="44.6156067" lon="7.9279267"><ele>426.0</ele><time>2026-05-03T16:20:11.274Z</time></trkpt><trkpt lat="44.6156733" lon="7.928025"><ele>426.0</ele><time>2026-05-03T16:20:12.274Z</time></trkpt><trkpt lat="44.6157367" lon="7.9281283"><ele>426.0</ele><time>2026-05-03T16:20:13.274Z</time></trkpt><trkpt lat="44.6158217" lon="7.9282333"><ele>426.0</ele><time>2026-05-03T16:20:14.274Z</time></trkpt><trkpt lat="44.6159283" lon="7.92832"><ele>426.0</ele><time>2026-05-03T16:20:15.274Z</time></trkpt><trkpt lat="44.6160483" lon="7.9283967"><ele>426.0</ele><time>2026-05-03T16:20:16.274Z</time></trkpt><trkpt lat="44.6161967" lon="7.928435"><ele>424.0</ele><time>2026-05-03T16:20:17.274Z</time></trkpt><trkpt lat="44.6163583" lon="7.9284667"><ele>422.0</ele><time>2026-05-03T16:20:18.274Z</time></trkpt><trkpt lat="44.6165217" lon="7.928505"><ele>420.0</ele><time>2026-05-03T16:20:19.274Z</time></trkpt><trkpt lat="44.6167067" lon="7.9285467"><ele>420.0</ele><time>2026-05-03T16:20:20.275Z</time></trkpt><trkpt lat="44.6169" lon="7.928595"><ele>420.0</ele><time>2026-05-03T16:20:21.274Z</time></trkpt><trkpt lat="44.6170917" lon="7.928645"><ele>420.0</ele><time>2026-05-03T16:20:22.274Z</time></trkpt><trkpt lat="44.6172933" lon="7.9286833"><ele>420.66666666666663</ele><time>2026-05-03T16:20:23.274Z</time></trkpt><trkpt lat="44.61749" lon="7.9287367"><ele>421.3333333333333</ele><time>2026-05-03T16:20:24.274Z</time></trkpt><trkpt lat="44.61769" lon="7.9287833"><ele>422.0</ele><time>2026-05-03T16:20:25.274Z</time></trkpt><trkpt lat="44.617865" lon="7.92882"><ele>422.0</ele><time>2026-05-03T16:20:26.274Z</time></trkpt><trkpt lat="44.6180483" lon="7.9288183"><ele>422.0</ele><time>2026-05-03T16:20:27.274Z</time></trkpt><trkpt lat="44.6182217" lon="7.92878"><ele>422.0</ele><time>2026-05-03T16:20:28.274Z</time></trkpt><trkpt lat="44.6183983" lon="7.9287067"><ele>422.0</ele><time>2026-05-03T16:20:29.274Z</time></trkpt><trkpt lat="44.618575" lon="7.9286117"><ele>422.0</ele><time>2026-05-03T16:20:30.274Z</time></trkpt><trkpt lat="44.6187533" lon="7.9285067"><ele>422.0</ele><time>2026-05-03T16:20:31.274Z</time></trkpt><trkpt lat="44.61894" lon="7.9284167"><ele>423.0</ele><time>2026-05-03T16:20:32.274Z</time></trkpt><trkpt lat="44.6191333" lon="7.9283233"><ele>424.0</ele><time>2026-05-03T16:20:33.274Z</time></trkpt><trkpt lat="44.6193217" lon="7.9282417"><ele>425.0</ele><time>2026-05-03T16:20:34.274Z</time></trkpt><trkpt lat="44.6195183" lon="7.9281767"><ele>425.0</ele><time>2026-05-03T16:20:35.274Z</time></trkpt><trkpt lat="44.6197117" lon="7.92814"><ele>425.0</ele><time>2026-05-03T16:20:36.274Z</time></trkpt><trkpt lat="44.61991" lon="7.9281167"><ele>425.0</ele><time>2026-05-03T16:20:37.274Z</time></trkpt><trkpt lat="44.6201067" lon="7.9281167"><ele>425.0</ele><time>2026-05-03T16:20:38.274Z</time></trkpt><trkpt lat="44.62031" lon="7.9281067"><ele>425.0</ele><time>2026-05-03T16:20:39.274Z</time></trkpt><trkpt lat="44.6205183" lon="7.9280933"><ele>425.0</ele><time>2026-05-03T16:20:40.274Z</time></trkpt><trkpt lat="44.620725" lon="7.9280783"><ele>425.0</ele><time>2026-05-03T16:20:41.274Z</time></trkpt><trkpt lat="44.620925" lon="7.928075"><ele>425.0</ele><time>2026-05-03T16:20:42.274Z</time></trkpt><trkpt lat="44.6211367" lon="7.928095"><ele>425.0</ele><time>2026-05-03T16:20:43.274Z</time></trkpt><trkpt lat="44.621355" lon="7.9281333"><ele>426.0</ele><time>2026-05-03T16:20:44.274Z</time></trkpt><trkpt lat="44.62158" lon="7.9281783"><ele>427.0</ele><time>2026-05-03T16:20:45.274Z</time></trkpt><trkpt lat="44.6218083" lon="7.928235"><ele>430.5</ele><time>2026-05-03T16:20:46.275Z</time></trkpt><trkpt lat="44.62204" lon="7.9283"><ele>434.0</ele><time>2026-05-03T16:20:47.274Z</time></trkpt><trkpt lat="44.6222717" lon="7.9283733"><ele>426.5</ele><time>2026-05-03T16:20:48.274Z</time></trkpt><trkpt lat="44.6225033" lon="7.9284567"><ele>419.0</ele><time>2026-05-03T16:20:49.274Z</time></trkpt><trkpt lat="44.6227267" lon="7.9285583"><ele>423.0</ele><time>2026-05-03T16:20:50.274Z</time></trkpt><trkpt lat="44.6229517" lon="7.9286567"><ele>427.0</ele><time>2026-05-03T16:20:51.274Z</time></trkpt><trkpt lat="44.6231833" lon="7.9287583"><ele>427.0</ele><time>2026-05-03T16:20:52.274Z</time></trkpt><trkpt lat="44.6234133" lon="7.9288583"><ele>427.0</ele><time>2026-05-03T16:20:53.274Z</time></trkpt><trkpt lat="44.6236383" lon="7.9289583"><ele>432.5</ele><time>2026-05-03T16:20:54.274Z</time></trkpt><trkpt lat="44.62386" lon="7.9290467"><ele>438.0</ele><time>2026-05-03T16:20:55.274Z</time></trkpt><trkpt lat="44.62408" lon="7.9291333"><ele>438.0</ele><time>2026-05-03T16:20:56.274Z</time></trkpt><trkpt lat="44.6242967" lon="7.929225"><ele>438.0</ele><time>2026-05-03T16:20:57.274Z</time></trkpt><trkpt lat="44.6245067" lon="7.9293567"><ele>435.0</ele><time>2026-05-03T16:20:58.274Z</time></trkpt><trkpt lat="44.6247" lon="7.9295183"><ele>432.0</ele><time>2026-05-03T16:20:59.274Z</time></trkpt><trkpt lat="44.6248867" lon="7.92971"><ele>432.0</ele><time>2026-05-03T16:21:00.274Z</time></trkpt><trkpt lat="44.6250583" lon="7.92991"><ele>432.0</ele><time>2026-05-03T16:21:01.274Z</time></trkpt><trkpt lat="44.625235" lon="7.9301017"><ele>432.0</ele><time>2026-05-03T16:21:02.274Z</time></trkpt><trkpt lat="44.6254233" lon="7.930265"><ele>431.5</ele><time>2026-05-03T16:21:03.275Z</time></trkpt><trkpt lat="44.6256267" lon="7.9304133"><ele>431.0</ele><time>2026-05-03T16:21:04.274Z</time></trkpt><trkpt lat="44.62584" lon="7.930555"><ele>431.0</ele><time>2026-05-03T16:21:05.274Z</time></trkpt><trkpt lat="44.6260517" lon="7.930695"><ele>431.0</ele><time>2026-05-03T16:21:06.275Z</time></trkpt><trkpt lat="44.6262633" lon="7.93083"><ele>432.0</ele><time>2026-05-03T16:21:07.274Z</time></trkpt><trkpt lat="44.6264617" lon="7.9309667"><ele>433.0</ele><time>2026-05-03T16:21:08.274Z</time></trkpt><trkpt lat="44.62666" lon="7.9311117"><ele>434.0</ele><time>2026-05-03T16:21:09.274Z</time></trkpt><trkpt lat="44.62685" lon="7.931245"><ele>439.0</ele><time>2026-05-03T16:21:10.274Z</time></trkpt><trkpt lat="44.6270467" lon="7.931375"><ele>444.0</ele><time>2026-05-03T16:21:11.274Z</time></trkpt><trkpt lat="44.627245" lon="7.9315083"><ele>449.0</ele><time>2026-05-03T16:21:12.274Z</time></trkpt><trkpt lat="44.6274117" lon="7.93163"><ele>445.66666666666663</ele><time>2026-05-03T16:21:13.274Z</time></trkpt><trkpt lat="44.6275733" lon="7.93178"><ele>442.33333333333337</ele><time>2026-05-03T16:21:14.274Z</time></trkpt><trkpt lat="44.6277133" lon="7.931955"><ele>439.0</ele><time>2026-05-03T16:21:15.274Z</time></trkpt><trkpt lat="44.6278317" lon="7.9321683"><ele>445.33333333333337</ele><time>2026-05-03T16:21:16.274Z</time></trkpt><trkpt lat="44.62792" lon="7.9324167"><ele>451.66666666666663</ele><time>2026-05-03T16:21:17.274Z</time></trkpt><trkpt lat="44.62799" lon="7.932695"><ele>458.0</ele><time>2026-05-03T16:21:18.274Z</time></trkpt><trkpt lat="44.6280533" lon="7.9329917"><ele>458.0</ele><time>2026-05-03T16:21:19.274Z</time></trkpt><trkpt lat="44.6281067" lon="7.9332817"><ele>458.0</ele><time>2026-05-03T16:21:20.274Z</time></trkpt><trkpt lat="44.6281633" lon="7.93356"><ele>458.0</ele><time>2026-05-03T16:21:21.274Z</time></trkpt><trkpt lat="44.62823" lon="7.9338133"><ele>456.0</ele><time>2026-05-03T16:21:22.274Z</time></trkpt><trkpt lat="44.6282783" lon="7.9340367"><ele>454.0</ele><time>2026-05-03T16:21:23.274Z</time></trkpt><trkpt lat="44.628325" lon="7.9342367"><ele>452.0</ele><time>2026-05-03T16:21:24.274Z</time></trkpt><trkpt lat="44.62838" lon="7.9343967"><ele>450.0</ele><time>2026-05-03T16:21:25.274Z</time></trkpt><trkpt lat="44.628465" lon="7.9345267"><ele>448.5</ele><time>2026-05-03T16:21:26.274Z</time></trkpt><trkpt lat="44.6285683" lon="7.9346233"><ele>447.0</ele><time>2026-05-03T16:21:27.274Z</time></trkpt><trkpt lat="44.628695" lon="7.9346767"><ele>445.5</ele><time>2026-05-03T16:21:28.274Z</time></trkpt><trkpt lat="44.6288383" lon="7.9346867"><ele>444.0</ele><time>2026-05-03T16:21:29.274Z</time></trkpt><trkpt lat="44.628975" lon="7.9346433"><ele>444.0</ele><time>2026-05-03T16:21:30.274Z</time></trkpt><trkpt lat="44.6290933" lon="7.93455"><ele>444.0</ele><time>2026-05-03T16:21:31.274Z</time></trkpt><trkpt lat="44.62921" lon="7.9344167"><ele>444.0</ele><time>2026-05-03T16:21:32.274Z</time></trkpt><trkpt lat="44.629305" lon="7.9342533"><ele>444.0</ele><time>2026-05-03T16:21:33.274Z</time></trkpt><trkpt lat="44.6293983" lon="7.9340817"><ele>443.0</ele><time>2026-05-03T16:21:34.274Z</time></trkpt><trkpt lat="44.6294917" lon="7.9339233"><ele>442.0</ele><time>2026-05-03T16:21:35.274Z</time></trkpt><trkpt lat="44.6296033" lon="7.9337683"><ele>441.0</ele><time>2026-05-03T16:21:36.274Z</time></trkpt><trkpt lat="44.629715" lon="7.9336367"><ele>440.0</ele><time>2026-05-03T16:21:37.274Z</time></trkpt><trkpt lat="44.6298433" lon="7.9335217"><ele>440.0</ele><time>2026-05-03T16:21:38.274Z</time></trkpt><trkpt lat="44.6299683" lon="7.9334167"><ele>440.0</ele><time>2026-05-03T16:21:39.274Z</time></trkpt><trkpt lat="44.63011" lon="7.9333217"><ele>440.0</ele><time>2026-05-03T16:21:40.274Z</time></trkpt><trkpt lat="44.63027" lon="7.933245"><ele>444.0</ele><time>2026-05-03T16:21:41.274Z</time></trkpt><trkpt lat="44.6304333" lon="7.9331833"><ele>448.0</ele><time>2026-05-03T16:21:42.274Z</time></trkpt><trkpt lat="44.6305933" lon="7.9331367"><ele>452.0</ele><time>2026-05-03T16:21:43.275Z</time></trkpt><trkpt lat="44.6307683" lon="7.9330817"><ele>452.0</ele><time>2026-05-03T16:21:44.274Z</time></trkpt><trkpt lat="44.630935" lon="7.93302"><ele>452.0</ele><time>2026-05-03T16:21:45.274Z</time></trkpt><trkpt lat="44.6311033" lon="7.9329617"><ele>452.0</ele><time>2026-05-03T16:21:46.274Z</time></trkpt><trkpt lat="44.6312717" lon="7.932895"><ele>451.0</ele><time>2026-05-03T16:21:47.274Z</time></trkpt><trkpt lat="44.6314383" lon="7.93284"><ele>450.0</ele><time>2026-05-03T16:21:48.274Z</time></trkpt><trkpt lat="44.631605" lon="7.9327817"><ele>449.0</ele><time>2026-05-03T16:21:49.274Z</time></trkpt><trkpt lat="44.6317833" lon="7.9327217"><ele>449.0</ele><time>2026-05-03T16:21:50.274Z</time></trkpt><trkpt lat="44.6319483" lon="7.93267"><ele>449.0</ele><time>2026-05-03T16:21:51.274Z</time></trkpt><trkpt lat="44.6321217" lon="7.9326067"><ele>449.0</ele><time>2026-05-03T16:21:52.275Z</time></trkpt><trkpt lat="44.632295" lon="7.932545"><ele>452.0</ele><time>2026-05-03T16:21:53.274Z</time></trkpt><trkpt lat="44.6324533" lon="7.93252"><ele>455.0</ele><time>2026-05-03T16:21:54.274Z</time></trkpt><trkpt lat="44.6326" lon="7.9325033"><ele>458.0</ele><time>2026-05-03T16:21:55.274Z</time></trkpt><trkpt lat="44.6327333" lon="7.932485"><ele>461.0</ele><time>2026-05-03T16:21:56.274Z</time></trkpt><trkpt lat="44.6328683" lon="7.9324567"><ele>461.0</ele><time>2026-05-03T16:21:57.274Z</time></trkpt><trkpt lat="44.633" lon="7.9324133"><ele>461.0</ele><time>2026-05-03T16:21:58.274Z</time></trkpt><trkpt lat="44.6331233" lon="7.932355"><ele>461.0</ele><time>2026-05-03T16:21:59.274Z</time></trkpt><trkpt lat="44.633245" lon="7.932285"><ele>461.0</ele><time>2026-05-03T16:22:00.274Z</time></trkpt><trkpt lat="44.6333667" lon="7.932215"><ele>461.0</ele><time>2026-05-03T16:22:01.274Z</time></trkpt><trkpt lat="44.6334967" lon="7.932145"><ele>461.0</ele><time>2026-05-03T16:22:02.274Z</time></trkpt><trkpt lat="44.63363" lon="7.93208"><ele>461.0</ele><time>2026-05-03T16:22:03.274Z</time></trkpt><trkpt lat="44.6337633" lon="7.9320417"><ele>461.0</ele><time>2026-05-03T16:22:04.274Z</time></trkpt><trkpt lat="44.6339067" lon="7.9319933"><ele>459.5</ele><time>2026-05-03T16:22:05.274Z</time></trkpt><trkpt lat="44.634045" lon="7.931945"><ele>458.0</ele><time>2026-05-03T16:22:06.274Z</time></trkpt><trkpt lat="44.6341817" lon="7.9319133"><ele>456.5</ele><time>2026-05-03T16:22:07.274Z</time></trkpt><trkpt lat="44.6343183" lon="7.9318767"><ele>455.0</ele><time>2026-05-03T16:22:08.274Z</time></trkpt><trkpt lat="44.63445" lon="7.93185"><ele>456.5</ele><time>2026-05-03T16:22:09.274Z</time></trkpt><trkpt lat="44.6345733" lon="7.931815"><ele>458.0</ele><time>2026-05-03T16:22:10.274Z</time></trkpt><trkpt lat="44.634705" lon="7.9317667"><ele>459.5</ele><time>2026-05-03T16:22:11.274Z</time></trkpt><trkpt lat="44.63482" lon="7.9317133"><ele>461.0</ele><time>2026-05-03T16:22:12.275Z</time></trkpt><trkpt lat="44.6349233" lon="7.9316267"><ele>462.6</ele><time>2026-05-03T16:22:13.274Z</time></trkpt><trkpt lat="44.6350267" lon="7.9315267"><ele>464.20000000000005</ele><time>2026-05-03T16:22:14.275Z</time></trkpt><trkpt lat="44.635125" lon="7.931445"><ele>465.79999999999995</ele><time>2026-05-03T16:22:15.274Z</time></trkpt><trkpt lat="44.6352183" lon="7.9313883"><ele>467.4</ele><time>2026-05-03T16:22:16.274Z</time></trkpt><trkpt lat="44.6353067" lon="7.9313617"><ele>469.0</ele><time>2026-05-03T16:22:17.274Z</time></trkpt><trkpt lat="44.6353817" lon="7.9313617"><ele>469.79999999999995</ele><time>2026-05-03T16:22:18.274Z</time></trkpt><trkpt lat="44.6354583" lon="7.9313817"><ele>470.59999999999997</ele><time>2026-05-03T16:22:19.274Z</time></trkpt><trkpt lat="44.6355417" lon="7.9314317"><ele>471.4</ele><time>2026-05-03T16:22:20.274Z</time></trkpt><trkpt lat="44.635635" lon="7.9314983"><ele>472.2</ele><time>2026-05-03T16:22:21.274Z</time></trkpt><trkpt lat="44.635735" lon="7.9315667"><ele>473.0</ele><time>2026-05-03T16:22:22.274Z</time></trkpt><trkpt lat="44.63584" lon="7.9316233"><ele>473.0</ele><time>2026-05-03T16:22:23.274Z</time></trkpt><trkpt lat="44.6359483" lon="7.9316583"><ele>473.0</ele><time>2026-05-03T16:22:24.274Z</time></trkpt><trkpt lat="44.6360533" lon="7.9316817"><ele>473.0</ele><time>2026-05-03T16:22:25.274Z</time></trkpt><trkpt lat="44.6361717" lon="7.931695"><ele>473.0</ele><time>2026-05-03T16:22:26.274Z</time></trkpt><trkpt lat="44.6362867" lon="7.93171"><ele>476.75</ele><time>2026-05-03T16:22:27.275Z</time></trkpt><trkpt lat="44.63639" lon="7.931735"><ele>480.5</ele><time>2026-05-03T16:22:28.274Z</time></trkpt><trkpt lat="44.636505" lon="7.9317917"><ele>484.25</ele><time>2026-05-03T16:22:29.274Z</time></trkpt><trkpt lat="44.6366133" lon="7.93183"><ele>488.0</ele><time>2026-05-03T16:22:30.274Z</time></trkpt><trkpt lat="44.6367233" lon="7.93187"><ele>488.0</ele><time>2026-05-03T16:22:31.274Z</time></trkpt><trkpt lat="44.6368383" lon="7.9318867"><ele>487.99999999999994</ele><time>2026-05-03T16:22:32.274Z</time></trkpt><trkpt lat="44.636945" lon="7.9318517"><ele>487.99999999999994</ele><time>2026-05-03T16:22:33.274Z</time></trkpt><trkpt lat="44.6370483" lon="7.9318167"><ele>488.0</ele><time>2026-05-03T16:22:34.274Z</time></trkpt><trkpt lat="44.6371517" lon="7.9317817"><ele>488.0</ele><time>2026-05-03T16:22:35.274Z</time></trkpt><trkpt lat="44.637255" lon="7.931765"><ele>490.2</ele><time>2026-05-03T16:22:36.275Z</time></trkpt><trkpt lat="44.6373567" lon="7.931775"><ele>492.4</ele><time>2026-05-03T16:22:37.274Z</time></trkpt><trkpt lat="44.6374617" lon="7.931805"><ele>494.59999999999997</ele><time>2026-05-03T16:22:38.274Z</time></trkpt><trkpt lat="44.6375683" lon="7.9318433"><ele>496.79999999999995</ele><time>2026-05-03T16:22:39.274Z</time></trkpt><trkpt lat="44.6376533" lon="7.9318683"><ele>499.0</ele><time>2026-05-03T16:22:40.274Z</time></trkpt><trkpt lat="44.6377267" lon="7.931915"><ele>499.0</ele><time>2026-05-03T16:22:41.274Z</time></trkpt><trkpt lat="44.6378" lon="7.9319767"><ele>499.0</ele><time>2026-05-03T16:22:42.274Z</time></trkpt><trkpt lat="44.63788" lon="7.932065"><ele>499.0</ele><time>2026-05-03T16:22:43.274Z</time></trkpt><trkpt lat="44.6379433" lon="7.93218"><ele>499.0</ele><time>2026-05-03T16:22:44.274Z</time></trkpt><trkpt lat="44.6379983" lon="7.9323067"><ele>499.0</ele><time>2026-05-03T16:22:45.275Z</time></trkpt><trkpt lat="44.6380617" lon="7.9324283"><ele>499.25</ele><time>2026-05-03T16:22:46.274Z</time></trkpt><trkpt lat="44.63812" lon="7.93256"><ele>499.5</ele><time>2026-05-03T16:22:47.274Z</time></trkpt><trkpt lat="44.638185" lon="7.9326833"><ele>499.75</ele><time>2026-05-03T16:22:48.274Z</time></trkpt><trkpt lat="44.6382667" lon="7.9328117"><ele>500.0</ele><time>2026-05-03T16:22:49.274Z</time></trkpt><trkpt lat="44.63836" lon="7.9329233"><ele>500.0</ele><time>2026-05-03T16:22:50.274Z</time></trkpt><trkpt lat="44.6384433" lon="7.9330333"><ele>500.0</ele><time>2026-05-03T16:22:51.275Z</time></trkpt><trkpt lat="44.63853" lon="7.9331233"><ele>500.0</ele><time>2026-05-03T16:22:52.274Z</time></trkpt><trkpt lat="44.6385983" lon="7.9332267"><ele>500.0</ele><time>2026-05-03T16:22:53.274Z</time></trkpt><trkpt lat="44.63866" lon="7.9333217"><ele>500.0</ele><time>2026-05-03T16:22:54.275Z</time></trkpt><trkpt lat="44.6387317" lon="7.933425"><ele>499.99999999999994</ele><time>2026-05-03T16:22:55.275Z</time></trkpt><trkpt lat="44.638795" lon="7.933525"><ele>500.0</ele><time>2026-05-03T16:22:56.274Z</time></trkpt><trkpt lat="44.63885" lon="7.9336217"><ele>500.0</ele><time>2026-05-03T16:22:57.274Z</time></trkpt><trkpt lat="44.6388933" lon="7.933715"><ele>500.0</ele><time>2026-05-03T16:22:58.274Z</time></trkpt><trkpt lat="44.6389633" lon="7.9338267"><ele>499.99999999999994</ele><time>2026-05-03T16:23:00.274Z</time></trkpt><trkpt lat="44.639035" lon="7.9338217"><ele>500.0</ele><time>2026-05-03T16:23:02.275Z</time></trkpt><trkpt lat="44.639085" lon="7.9337467"><ele>500.0</ele><time>2026-05-03T16:23:03.275Z</time></trkpt><trkpt lat="44.6391467" lon="7.933655"><ele>500.0</ele><time>2026-05-03T16:23:04.274Z</time></trkpt><trkpt lat="44.6392183" lon="7.9335517"><ele>500.0</ele><time>2026-05-03T16:23:05.274Z</time></trkpt><trkpt lat="44.6392917" lon="7.93346"><ele>500.0</ele><time>2026-05-03T16:23:06.274Z</time></trkpt><trkpt lat="44.6393667" lon="7.9333567"><ele>500.0</ele><time>2026-05-03T16:23:07.274Z</time></trkpt><trkpt lat="44.6394517" lon="7.933265"><ele>499.6</ele><time>2026-05-03T16:23:08.275Z</time></trkpt><trkpt lat="44.639535" lon="7.93316"><ele>499.2</ele><time>2026-05-03T16:23:09.274Z</time></trkpt><trkpt lat="44.63961" lon="7.9330733"><ele>498.79999999999995</ele><time>2026-05-03T16:23:10.274Z</time></trkpt><trkpt lat="44.6396983" lon="7.9329867"><ele>498.4</ele><time>2026-05-03T16:23:11.274Z</time></trkpt><trkpt lat="44.6397733" lon="7.9328967"><ele>498.0</ele><time>2026-05-03T16:23:12.274Z</time></trkpt><trkpt lat="44.6398433" lon="7.93282"><ele>498.0</ele><time>2026-05-03T16:23:13.274Z</time></trkpt><trkpt lat="44.6399117" lon="7.93274"><ele>497.99999999999994</ele><time>2026-05-03T16:23:14.275Z</time></trkpt><trkpt lat="44.6399883" lon="7.9326683"><ele>497.99999999999994</ele><time>2026-05-03T16:23:15.274Z</time></trkpt><trkpt lat="44.6400667" lon="7.9325883"><ele>498.0</ele><time>2026-05-03T16:23:16.274Z</time></trkpt><trkpt lat="44.6401417" lon="7.9325217"><ele>498.0</ele><time>2026-05-03T16:23:17.274Z</time></trkpt><trkpt lat="44.6402267" lon="7.9324567"><ele>497.59999999999997</ele><time>2026-05-03T16:23:18.275Z</time></trkpt><trkpt lat="44.6403167" lon="7.932405"><ele>497.19999999999993</ele><time>2026-05-03T16:23:19.275Z</time></trkpt><trkpt lat="44.640415" lon="7.9323617"><ele>496.8</ele><time>2026-05-03T16:23:20.274Z</time></trkpt><trkpt lat="44.64051" lon="7.9323067"><ele>496.4</ele><time>2026-05-03T16:23:21.274Z</time></trkpt><trkpt lat="44.640605" lon="7.932245"><ele>496.0</ele><time>2026-05-03T16:23:22.274Z</time></trkpt><trkpt lat="44.640695" lon="7.9321667"><ele>496.0</ele><time>2026-05-03T16:23:23.274Z</time></trkpt><trkpt lat="44.6407767" lon="7.9320883"><ele>496.0</ele><time>2026-05-03T16:23:24.274Z</time></trkpt><trkpt lat="44.64085" lon="7.93201"><ele>496.0</ele><time>2026-05-03T16:23:25.274Z</time></trkpt><trkpt lat="44.6409217" lon="7.93191"><ele>496.0</ele><time>2026-05-03T16:23:26.274Z</time></trkpt><trkpt lat="44.6409867" lon="7.9318067"><ele>496.0</ele><time>2026-05-03T16:23:27.274Z</time></trkpt><trkpt lat="44.6410383" lon="7.9316933"><ele>496.20000000000005</ele><time>2026-05-03T16:23:28.274Z</time></trkpt><trkpt lat="44.64109" lon="7.9315567"><ele>496.40000000000003</ele><time>2026-05-03T16:23:29.274Z</time></trkpt><trkpt lat="44.6411317" lon="7.9314067"><ele>496.6</ele><time>2026-05-03T16:23:30.275Z</time></trkpt><trkpt lat="44.64118" lon="7.9312683"><ele>496.8</ele><time>2026-05-03T16:23:31.274Z</time></trkpt><trkpt lat="44.64123" lon="7.931145"><ele>497.0</ele><time>2026-05-03T16:23:32.274Z</time></trkpt><trkpt lat="44.6412767" lon="7.931035"><ele>496.99999999999994</ele><time>2026-05-03T16:23:33.275Z</time></trkpt><trkpt lat="44.641315" lon="7.9309283"><ele>497.0</ele><time>2026-05-03T16:23:34.274Z</time></trkpt><trkpt lat="44.6413533" lon="7.93083"><ele>497.0</ele><time>2026-05-03T16:23:35.274Z</time></trkpt><trkpt lat="44.6413983" lon="7.9307367"><ele>497.0</ele><time>2026-05-03T16:23:36.274Z</time></trkpt><trkpt lat="44.6414467" lon="7.9306383"><ele>496.99999999999994</ele><time>2026-05-03T16:23:37.274Z</time></trkpt><trkpt lat="44.64151" lon="7.9305383"><ele>497.0</ele><time>2026-05-03T16:23:38.274Z</time></trkpt><trkpt lat="44.6415833" lon="7.9304433"><ele>495.40000000000003</ele><time>2026-05-03T16:23:39.275Z</time></trkpt><trkpt lat="44.6416733" lon="7.9303467"><ele>493.80000000000007</ele><time>2026-05-03T16:23:40.274Z</time></trkpt><trkpt lat="44.64176" lon="7.93026"><ele>492.2</ele><time>2026-05-03T16:23:41.275Z</time></trkpt><trkpt lat="44.641845" lon="7.9302033"><ele>490.6</ele><time>2026-05-03T16:23:42.274Z</time></trkpt><trkpt lat="44.6419317" lon="7.9301567"><ele>489.0</ele><time>2026-05-03T16:23:43.274Z</time></trkpt><trkpt lat="44.6420217" lon="7.9301167"><ele>489.0</ele><time>2026-05-03T16:23:44.274Z</time></trkpt><trkpt lat="44.6421083" lon="7.9300867"><ele>489.0</ele><time>2026-05-03T16:23:45.274Z</time></trkpt><trkpt lat="44.642215" lon="7.9300583"><ele>489.0</ele><time>2026-05-03T16:23:46.274Z</time></trkpt><trkpt lat="44.642335" lon="7.930045"><ele>489.0</ele><time>2026-05-03T16:23:47.274Z</time></trkpt><trkpt lat="44.6424633" lon="7.9300417"><ele>489.0</ele><time>2026-05-03T16:23:48.274Z</time></trkpt><trkpt lat="44.6425833" lon="7.9300483"><ele>487.75</ele><time>2026-05-03T16:23:49.274Z</time></trkpt><trkpt lat="44.6427" lon="7.9300567"><ele>486.5</ele><time>2026-05-03T16:23:50.274Z</time></trkpt><trkpt lat="44.6428233" lon="7.9300583"><ele>485.25</ele><time>2026-05-03T16:23:51.274Z</time></trkpt><trkpt lat="44.6429383" lon="7.930065"><ele>484.0</ele><time>2026-05-03T16:23:52.274Z</time></trkpt><trkpt lat="44.6430633" lon="7.9300717"><ele>484.0</ele><time>2026-05-03T16:23:53.274Z</time></trkpt><trkpt lat="44.6431917" lon="7.9300817"><ele>484.0</ele><time>2026-05-03T16:23:54.274Z</time></trkpt><trkpt lat="44.64332" lon="7.9300817"><ele>484.0</ele><time>2026-05-03T16:23:55.274Z</time></trkpt><trkpt lat="44.6434367" lon="7.9300883"><ele>484.0</ele><time>2026-05-03T16:23:56.274Z</time></trkpt><trkpt lat="44.643555" lon="7.9300933"><ele>483.6666666666667</ele><time>2026-05-03T16:23:57.275Z</time></trkpt><trkpt lat="44.6436667" lon="7.9300933"><ele>483.33333333333337</ele><time>2026-05-03T16:23:58.274Z</time></trkpt><trkpt lat="44.64377" lon="7.930095"><ele>483.0</ele><time>2026-05-03T16:23:59.275Z</time></trkpt><trkpt lat="44.6438617" lon="7.930105"><ele>482.66666666666663</ele><time>2026-05-03T16:24:00.274Z</time></trkpt><trkpt lat="44.6439283" lon="7.930135"><ele>482.3333333333333</ele><time>2026-05-03T16:24:01.274Z</time></trkpt><trkpt lat="44.6439867" lon="7.9301833"><ele>482.0</ele><time>2026-05-03T16:24:02.274Z</time></trkpt><trkpt lat="44.64407" lon="7.9303017"><ele>482.0</ele><time>2026-05-03T16:24:04.274Z</time></trkpt><trkpt lat="44.6441883" lon="7.9303017"><ele>482.00000000000006</ele><time>2026-05-03T16:24:06.274Z</time></trkpt><trkpt lat="44.6442417" lon="7.9302517"><ele>482.00000000000006</ele><time>2026-05-03T16:24:07.275Z</time></trkpt><trkpt lat="44.6442883" lon="7.9301717"><ele>482.0</ele><time>2026-05-03T16:24:08.275Z</time></trkpt><trkpt lat="44.644345" lon="7.93006"><ele>482.0</ele><time>2026-05-03T16:24:09.274Z</time></trkpt><trkpt lat="44.644415" lon="7.9299483"><ele>478.75</ele><time>2026-05-03T16:24:10.275Z</time></trkpt><trkpt lat="44.6444967" lon="7.92983"><ele>475.5</ele><time>2026-05-03T16:24:11.274Z</time></trkpt><trkpt lat="44.6445817" lon="7.9297083"><ele>472.25</ele><time>2026-05-03T16:24:12.274Z</time></trkpt><trkpt lat="44.6446617" lon="7.9295917"><ele>469.0</ele><time>2026-05-03T16:24:13.274Z</time></trkpt><trkpt lat="44.6447383" lon="7.9294867"><ele>469.0</ele><time>2026-05-03T16:24:14.274Z</time></trkpt><trkpt lat="44.6448167" lon="7.92938"><ele>469.0</ele><time>2026-05-03T16:24:15.274Z</time></trkpt><trkpt lat="44.644895" lon="7.92928"><ele>469.0</ele><time>2026-05-03T16:24:16.274Z</time></trkpt><trkpt lat="44.6449767" lon="7.9291817"><ele>469.0</ele><time>2026-05-03T16:24:17.274Z</time></trkpt><trkpt lat="44.6450617" lon="7.9290783"><ele>469.0</ele><time>2026-05-03T16:24:18.274Z</time></trkpt><trkpt lat="44.645145" lon="7.9289667"><ele>469.0</ele><time>2026-05-03T16:24:19.274Z</time></trkpt><trkpt lat="44.645235" lon="7.9288383"><ele>469.0</ele><time>2026-05-03T16:24:20.274Z</time></trkpt><trkpt lat="44.6453317" lon="7.9287033"><ele>469.0</ele><time>2026-05-03T16:24:21.274Z</time></trkpt><trkpt lat="44.6454383" lon="7.9285567"><ele>469.0</ele><time>2026-05-03T16:24:22.274Z</time></trkpt><trkpt lat="44.64555" lon="7.928405"><ele>467.6666666666667</ele><time>2026-05-03T16:24:23.274Z</time></trkpt><trkpt lat="44.6456617" lon="7.92825"><ele>466.33333333333337</ele><time>2026-05-03T16:24:24.274Z</time></trkpt><trkpt lat="44.6457817" lon="7.9280983"><ele>465.0</ele><time>2026-05-03T16:24:25.274Z</time></trkpt><trkpt lat="44.645885" lon="7.927945"><ele>465.0</ele><time>2026-05-03T16:24:26.274Z</time></trkpt><trkpt lat="44.6459917" lon="7.9278"><ele>465.0</ele><time>2026-05-03T16:24:27.274Z</time></trkpt><trkpt lat="44.6461033" lon="7.9276467"><ele>465.0</ele><time>2026-05-03T16:24:28.274Z</time></trkpt><trkpt lat="44.6462083" lon="7.9275133"><ele>465.0</ele><time>2026-05-03T16:24:29.274Z</time></trkpt><trkpt lat="44.6463083" lon="7.9273817"><ele>463.75</ele><time>2026-05-03T16:24:30.274Z</time></trkpt><trkpt lat="44.64641" lon="7.92725"><ele>462.5</ele><time>2026-05-03T16:24:31.274Z</time></trkpt><trkpt lat="44.64652" lon="7.927135"><ele>461.25</ele><time>2026-05-03T16:24:32.274Z</time></trkpt><trkpt lat="44.6466483" lon="7.9270183"><ele>460.0</ele><time>2026-05-03T16:24:33.274Z</time></trkpt><trkpt lat="44.64679" lon="7.9269017"><ele>460.0</ele><time>2026-05-03T16:24:34.274Z</time></trkpt><trkpt lat="44.646925" lon="7.92681"><ele>460.0</ele><time>2026-05-03T16:24:35.274Z</time></trkpt><trkpt lat="44.6470583" lon="7.9267117"><ele>460.0</ele><time>2026-05-03T16:24:36.274Z</time></trkpt><trkpt lat="44.647205" lon="7.9266267"><ele>455.6666666666667</ele><time>2026-05-03T16:24:37.274Z</time></trkpt><trkpt lat="44.6473733" lon="7.9265433"><ele>451.33333333333337</ele><time>2026-05-03T16:24:38.274Z</time></trkpt><trkpt lat="44.6475483" lon="7.92645"><ele>447.0</ele><time>2026-05-03T16:24:39.274Z</time></trkpt><trkpt lat="44.6477217" lon="7.92636"><ele>447.0</ele><time>2026-05-03T16:24:40.274Z</time></trkpt><trkpt lat="44.6479" lon="7.9262617"><ele>447.0</ele><time>2026-05-03T16:24:41.274Z</time></trkpt><trkpt lat="44.64808" lon="7.92617"><ele>447.0</ele><time>2026-05-03T16:24:42.274Z</time></trkpt><trkpt lat="44.64826" lon="7.92608"><ele>447.0</ele><time>2026-05-03T16:24:43.274Z</time></trkpt><trkpt lat="44.6484417" lon="7.9259917"><ele>447.0</ele><time>2026-05-03T16:24:44.274Z</time></trkpt><trkpt lat="44.6486167" lon="7.925905"><ele>447.0</ele><time>2026-05-03T16:24:45.275Z</time></trkpt><trkpt lat="44.64879" lon="7.9258167"><ele>445.0</ele><time>2026-05-03T16:24:46.274Z</time></trkpt><trkpt lat="44.648965" lon="7.925725"><ele>443.0</ele><time>2026-05-03T16:24:47.274Z</time></trkpt><trkpt lat="44.6491317" lon="7.92564"><ele>441.0</ele><time>2026-05-03T16:24:48.274Z</time></trkpt><trkpt lat="44.6493017" lon="7.9255683"><ele>441.33333333333337</ele><time>2026-05-03T16:24:49.274Z</time></trkpt><trkpt lat="44.6494733" lon="7.9254833"><ele>441.6666666666667</ele><time>2026-05-03T16:24:50.274Z</time></trkpt><trkpt lat="44.6496317" lon="7.9254117"><ele>442.0</ele><time>2026-05-03T16:24:51.274Z</time></trkpt><trkpt lat="44.6497833" lon="7.9253517"><ele>442.0</ele><time>2026-05-03T16:24:52.275Z</time></trkpt><trkpt lat="44.6499433" lon="7.9252833"><ele>442.0</ele><time>2026-05-03T16:24:53.274Z</time></trkpt><trkpt lat="44.65011" lon="7.925245"><ele>442.0</ele><time>2026-05-03T16:24:54.274Z</time></trkpt><trkpt lat="44.6502733" lon="7.9252383"><ele>440.33333333333337</ele><time>2026-05-03T16:24:55.274Z</time></trkpt><trkpt lat="44.6504483" lon="7.9252617"><ele>438.66666666666663</ele><time>2026-05-03T16:24:56.275Z</time></trkpt><trkpt lat="44.65063" lon="7.9253"><ele>437.0</ele><time>2026-05-03T16:24:57.274Z</time></trkpt><trkpt lat="44.6508183" lon="7.9253467"><ele>437.0</ele><time>2026-05-03T16:24:58.274Z</time></trkpt><trkpt lat="44.6510083" lon="7.92539"><ele>437.0</ele><time>2026-05-03T16:24:59.274Z</time></trkpt><trkpt lat="44.6512033" lon="7.9254283"><ele>437.0</ele><time>2026-05-03T16:25:00.274Z</time></trkpt><trkpt lat="44.6513867" lon="7.9254667"><ele>434.66666666666663</ele><time>2026-05-03T16:25:01.274Z</time></trkpt><trkpt lat="44.6515667" lon="7.9255017"><ele>432.33333333333337</ele><time>2026-05-03T16:25:02.274Z</time></trkpt><trkpt lat="44.6517367" lon="7.9255333"><ele>430.0</ele><time>2026-05-03T16:25:03.274Z</time></trkpt><trkpt lat="44.6518867" lon="7.92557"><ele>428.75</ele><time>2026-05-03T16:25:04.274Z</time></trkpt><trkpt lat="44.6520267" lon="7.9256033"><ele>427.5</ele><time>2026-05-03T16:25:05.275Z</time></trkpt><trkpt lat="44.652155" lon="7.9256267"><ele>426.25</ele><time>2026-05-03T16:25:06.275Z</time></trkpt><trkpt lat="44.6522633" lon="7.9256467"><ele>425.0</ele><time>2026-05-03T16:25:07.274Z</time></trkpt><trkpt lat="44.652365" lon="7.9256367"><ele>424.99999999999994</ele><time>2026-05-03T16:25:08.274Z</time></trkpt><trkpt lat="44.6524483" lon="7.925595"><ele>425.0</ele><time>2026-05-03T16:25:09.274Z</time></trkpt><trkpt lat="44.6525067" lon="7.925525"><ele>425.0</ele><time>2026-05-03T16:25:10.274Z</time></trkpt><trkpt lat="44.65254" lon="7.92542"><ele>425.0</ele><time>2026-05-03T16:25:11.274Z</time></trkpt><trkpt lat="44.65254" lon="7.9252883"><ele>424.99999999999994</ele><time>2026-05-03T16:25:12.275Z</time></trkpt><trkpt lat="44.6525067" lon="7.92516"><ele>425.0</ele><time>2026-05-03T16:25:13.274Z</time></trkpt><trkpt lat="44.6524283" lon="7.9250333"><ele>422.0</ele><time>2026-05-03T16:25:14.274Z</time></trkpt><trkpt lat="44.65233" lon="7.9248817"><ele>419.0</ele><time>2026-05-03T16:25:15.274Z</time></trkpt><trkpt lat="44.6522167" lon="7.924715"><ele>416.0</ele><time>2026-05-03T16:25:16.274Z</time></trkpt><trkpt lat="44.6521067" lon="7.924555"><ele>416.0</ele><time>2026-05-03T16:25:17.274Z</time></trkpt><trkpt lat="44.6519983" lon="7.9243933"><ele>416.0</ele><time>2026-05-03T16:25:18.274Z</time></trkpt><trkpt lat="44.6518817" lon="7.9242233"><ele>416.0</ele><time>2026-05-03T16:25:19.275Z</time></trkpt><trkpt lat="44.6517633" lon="7.9240483"><ele>416.3333333333333</ele><time>2026-05-03T16:25:20.274Z</time></trkpt><trkpt lat="44.6516483" lon="7.92387"><ele>416.66666666666663</ele><time>2026-05-03T16:25:21.274Z</time></trkpt><trkpt lat="44.6515283" lon="7.923705"><ele>417.0</ele><time>2026-05-03T16:25:22.274Z</time></trkpt><trkpt lat="44.6514067" lon="7.92354"><ele>415.75</ele><time>2026-05-03T16:25:23.274Z</time></trkpt><trkpt lat="44.6512967" lon="7.9233783"><ele>414.5</ele><time>2026-05-03T16:25:24.274Z</time></trkpt><trkpt lat="44.651185" lon="7.9232417"><ele>413.25</ele><time>2026-05-03T16:25:25.275Z</time></trkpt><trkpt lat="44.651065" lon="7.9231617"><ele>412.0</ele><time>2026-05-03T16:25:26.274Z</time></trkpt><trkpt lat="44.650945" lon="7.9231083"><ele>411.75</ele><time>2026-05-03T16:25:27.274Z</time></trkpt><trkpt lat="44.6508317" lon="7.9231233"><ele>411.5</ele><time>2026-05-03T16:25:28.274Z</time></trkpt><trkpt lat="44.6507167" lon="7.9231817"><ele>411.25</ele><time>2026-05-03T16:25:29.274Z</time></trkpt><trkpt lat="44.650595" lon="7.9232383"><ele>411.0</ele><time>2026-05-03T16:25:30.274Z</time></trkpt><trkpt lat="44.6504733" lon="7.9232867"><ele>411.0</ele><time>2026-05-03T16:25:31.274Z</time></trkpt><trkpt lat="44.6503617" lon="7.923295"><ele>411.0</ele><time>2026-05-03T16:25:32.275Z</time></trkpt><trkpt lat="44.6502683" lon="7.9232483"><ele>411.0</ele><time>2026-05-03T16:25:33.275Z</time></trkpt><trkpt lat="44.65019" lon="7.92317"><ele>411.0</ele><time>2026-05-03T16:25:34.275Z</time></trkpt><trkpt lat="44.650145" lon="7.9230567"><ele>411.0</ele><time>2026-05-03T16:25:35.275Z</time></trkpt><trkpt lat="44.65014" lon="7.9229283"><ele>411.0</ele><time>2026-05-03T16:25:36.274Z</time></trkpt><trkpt lat="44.6501783" lon="7.9227917"><ele>411.0</ele><time>2026-05-03T16:25:37.274Z</time></trkpt><trkpt lat="44.6502617" lon="7.9226683"><ele>411.0</ele><time>2026-05-03T16:25:38.274Z</time></trkpt><trkpt lat="44.6503867" lon="7.922585"><ele>411.0</ele><time>2026-05-03T16:25:39.274Z</time></trkpt><trkpt lat="44.6505467" lon="7.9224967"><ele>408.66666666666663</ele><time>2026-05-03T16:25:40.274Z</time></trkpt><trkpt lat="44.6507" lon="7.922415"><ele>406.3333333333333</ele><time>2026-05-03T16:25:41.274Z</time></trkpt><trkpt lat="44.6508467" lon="7.9223233"><ele>404.0</ele><time>2026-05-03T16:25:42.274Z</time></trkpt><trkpt lat="44.650995" lon="7.92223"><ele>404.66666666666663</ele><time>2026-05-03T16:25:43.275Z</time></trkpt><trkpt lat="44.6511533" lon="7.9221267"><ele>405.33333333333337</ele><time>2026-05-03T16:25:44.274Z</time></trkpt><trkpt lat="44.6513133" lon="7.9220217"><ele>406.0</ele><time>2026-05-03T16:25:45.274Z</time></trkpt><trkpt lat="44.6514783" lon="7.9219367"><ele>406.0</ele><time>2026-05-03T16:25:46.274Z</time></trkpt><trkpt lat="44.65163" lon="7.9218667"><ele>406.0</ele><time>2026-05-03T16:25:47.275Z</time></trkpt><trkpt lat="44.6517917" lon="7.921795"><ele>406.0</ele><time>2026-05-03T16:25:48.274Z</time></trkpt><trkpt lat="44.6519467" lon="7.9217283"><ele>403.0</ele><time>2026-05-03T16:25:49.274Z</time></trkpt><trkpt lat="44.652095" lon="7.9216583"><ele>400.0</ele><time>2026-05-03T16:25:50.274Z</time></trkpt><trkpt lat="44.6522433" lon="7.921585"><ele>397.0</ele><time>2026-05-03T16:25:51.274Z</time></trkpt><trkpt lat="44.6523783" lon="7.9215183"><ele>397.0</ele><time>2026-05-03T16:25:52.274Z</time></trkpt><trkpt lat="44.6525083" lon="7.92146"><ele>397.0</ele><time>2026-05-03T16:25:53.274Z</time></trkpt><trkpt lat="44.6526383" lon="7.9214167"><ele>397.0</ele><time>2026-05-03T16:25:54.274Z</time></trkpt><trkpt lat="44.6527633" lon="7.921405"><ele>397.0</ele><time>2026-05-03T16:25:55.275Z</time></trkpt><trkpt lat="44.65288" lon="7.9214217"><ele>396.25</ele><time>2026-05-03T16:25:56.274Z</time></trkpt><trkpt lat="44.6529983" lon="7.92147"><ele>395.5</ele><time>2026-05-03T16:25:57.275Z</time></trkpt><trkpt lat="44.6531067" lon="7.9215533"><ele>394.75</ele><time>2026-05-03T16:25:58.274Z</time></trkpt><trkpt lat="44.6532217" lon="7.921665"><ele>394.0</ele><time>2026-05-03T16:25:59.274Z</time></trkpt><trkpt lat="44.6533267" lon="7.9218017"><ele>394.0</ele><time>2026-05-03T16:26:00.274Z</time></trkpt><trkpt lat="44.6534167" lon="7.9219633"><ele>394.0</ele><time>2026-05-03T16:26:01.274Z</time></trkpt><trkpt lat="44.6534967" lon="7.9221183"><ele>394.0</ele><time>2026-05-03T16:26:02.275Z</time></trkpt><trkpt lat="44.653575" lon="7.922245"><ele>394.0</ele><time>2026-05-03T16:26:03.274Z</time></trkpt><trkpt lat="44.6536667" lon="7.92234"><ele>393.0</ele><time>2026-05-03T16:26:04.274Z</time></trkpt><trkpt lat="44.6537683" lon="7.9223833"><ele>392.0</ele><time>2026-05-03T16:26:05.275Z</time></trkpt><trkpt lat="44.6538683" lon="7.922355"><ele>391.0</ele><time>2026-05-03T16:26:06.274Z</time></trkpt><trkpt lat="44.6539683" lon="7.9222783"><ele>390.0</ele><time>2026-05-03T16:26:07.274Z</time></trkpt><trkpt lat="44.654065" lon="7.9221883"><ele>389.0</ele><time>2026-05-03T16:26:08.274Z</time></trkpt><trkpt lat="44.6541733" lon="7.9221217"><ele>389.0</ele><time>2026-05-03T16:26:09.274Z</time></trkpt><trkpt lat="44.6542817" lon="7.9220833"><ele>389.0</ele><time>2026-05-03T16:26:10.274Z</time></trkpt><trkpt lat="44.6543883" lon="7.9220767"><ele>389.0</ele><time>2026-05-03T16:26:11.274Z</time></trkpt><trkpt lat="44.654525" lon="7.9220833"><ele>389.0</ele><time>2026-05-03T16:26:12.274Z</time></trkpt><trkpt lat="44.6546733" lon="7.9221083"><ele>387.0</ele><time>2026-05-03T16:26:13.275Z</time></trkpt><trkpt lat="44.6548283" lon="7.9221417"><ele>385.0</ele><time>2026-05-03T16:26:14.274Z</time></trkpt><trkpt lat="44.6549917" lon="7.9221783"><ele>383.0</ele><time>2026-05-03T16:26:15.274Z</time></trkpt><trkpt lat="44.6551567" lon="7.92222"><ele>380.6666666666667</ele><time>2026-05-03T16:26:16.274Z</time></trkpt><trkpt lat="44.6553233" lon="7.9222667"><ele>378.3333333333333</ele><time>2026-05-03T16:26:17.274Z</time></trkpt><trkpt lat="44.6554917" lon="7.9223117"><ele>376.0</ele><time>2026-05-03T16:26:18.275Z</time></trkpt><trkpt lat="44.6556633" lon="7.9223533"><ele>376.0</ele><time>2026-05-03T16:26:19.274Z</time></trkpt><trkpt lat="44.6558383" lon="7.922395"><ele>376.0</ele><time>2026-05-03T16:26:20.274Z</time></trkpt><trkpt lat="44.656" lon="7.9224317"><ele>376.0</ele><time>2026-05-03T16:26:21.274Z</time></trkpt><trkpt lat="44.65617" lon="7.922465"><ele>375.0</ele><time>2026-05-03T16:26:22.274Z</time></trkpt><trkpt lat="44.656345" lon="7.922475"><ele>374.0</ele><time>2026-05-03T16:26:23.274Z</time></trkpt><trkpt lat="44.6565033" lon="7.92247"><ele>373.0</ele><time>2026-05-03T16:26:24.274Z</time></trkpt><trkpt lat="44.65665" lon="7.9224833"><ele>373.0</ele><time>2026-05-03T16:26:25.274Z</time></trkpt><trkpt lat="44.6567917" lon="7.922525"><ele>373.0</ele><time>2026-05-03T16:26:26.274Z</time></trkpt><trkpt lat="44.6569267" lon="7.9226133"><ele>373.0</ele><time>2026-05-03T16:26:27.274Z</time></trkpt><trkpt lat="44.6570433" lon="7.92274"><ele>373.0</ele><time>2026-05-03T16:26:28.274Z</time></trkpt><trkpt lat="44.6571517" lon="7.922905"><ele>371.5</ele><time>2026-05-03T16:26:29.275Z</time></trkpt><trkpt lat="44.65725" lon="7.9230617"><ele>370.0</ele><time>2026-05-03T16:26:30.274Z</time></trkpt><trkpt lat="44.6573567" lon="7.92318"><ele>368.5</ele><time>2026-05-03T16:26:31.274Z</time></trkpt><trkpt lat="44.6574683" lon="7.9232467"><ele>367.0</ele><time>2026-05-03T16:26:32.274Z</time></trkpt><trkpt lat="44.6575833" lon="7.9232483"><ele>367.0</ele><time>2026-05-03T16:26:33.274Z</time></trkpt><trkpt lat="44.657695" lon="7.9232133"><ele>367.0</ele><time>2026-05-03T16:26:34.274Z</time></trkpt><trkpt lat="44.657815" lon="7.9231567"><ele>367.0</ele><time>2026-05-03T16:26:35.275Z</time></trkpt><trkpt lat="44.6579483" lon="7.9231267"><ele>367.0</ele><time>2026-05-03T16:26:36.274Z</time></trkpt><trkpt lat="44.658085" lon="7.9231283"><ele>366.0</ele><time>2026-05-03T16:26:37.274Z</time></trkpt><trkpt lat="44.658225" lon="7.9231683"><ele>365.0</ele><time>2026-05-03T16:26:38.274Z</time></trkpt><trkpt lat="44.6583583" lon="7.9232067"><ele>364.0</ele><time>2026-05-03T16:26:39.274Z</time></trkpt><trkpt lat="44.6584817" lon="7.9232367"><ele>363.0</ele><time>2026-05-03T16:26:40.274Z</time></trkpt><trkpt lat="44.6586217" lon="7.923225"><ele>362.5</ele><time>2026-05-03T16:26:41.274Z</time></trkpt><trkpt lat="44.6587667" lon="7.9231833"><ele>362.0</ele><time>2026-05-03T16:26:42.274Z</time></trkpt><trkpt lat="44.6589183" lon="7.9231317"><ele>361.5</ele><time>2026-05-03T16:26:43.274Z</time></trkpt><trkpt lat="44.6590567" lon="7.9230833"><ele>361.0</ele><time>2026-05-03T16:26:44.274Z</time></trkpt><trkpt lat="44.6591817" lon="7.9230117"><ele>361.0</ele><time>2026-05-03T16:26:45.274Z</time></trkpt><trkpt lat="44.6593" lon="7.922905"><ele>361.0</ele><time>2026-05-03T16:26:46.274Z</time></trkpt><trkpt lat="44.6594017" lon="7.92276"><ele>361.0</ele><time>2026-05-03T16:26:47.274Z</time></trkpt><trkpt lat="44.6594817" lon="7.9225917"><ele>361.0</ele><time>2026-05-03T16:26:48.274Z</time></trkpt><trkpt lat="44.6595617" lon="7.92243"><ele>360.75</ele><time>2026-05-03T16:26:49.274Z</time></trkpt><trkpt lat="44.6596417" lon="7.9222767"><ele>360.5</ele><time>2026-05-03T16:26:50.274Z</time></trkpt><trkpt lat="44.6597367" lon="7.9221433"><ele>360.25</ele><time>2026-05-03T16:26:51.274Z</time></trkpt><trkpt lat="44.6598483" lon="7.9220333"><ele>360.0</ele><time>2026-05-03T16:26:52.275Z</time></trkpt><trkpt lat="44.659965" lon="7.9219317"><ele>360.0</ele><time>2026-05-03T16:26:53.274Z</time></trkpt><trkpt lat="44.66009" lon="7.9218217"><ele>360.0</ele><time>2026-05-03T16:26:54.274Z</time></trkpt><trkpt lat="44.6602167" lon="7.92171"><ele>360.0</ele><time>2026-05-03T16:26:55.274Z</time></trkpt><trkpt lat="44.66034" lon="7.9215933"><ele>360.0</ele><time>2026-05-03T16:26:56.274Z</time></trkpt><trkpt lat="44.6604683" lon="7.9214817"><ele>357.5</ele><time>2026-05-03T16:26:57.274Z</time></trkpt><trkpt lat="44.6605883" lon="7.9213733"><ele>355.0</ele><time>2026-05-03T16:26:58.274Z</time></trkpt><trkpt lat="44.6607183" lon="7.92129"><ele>352.5</ele><time>2026-05-03T16:26:59.274Z</time></trkpt><trkpt lat="44.6608517" lon="7.921225"><ele>350.0</ele><time>2026-05-03T16:27:00.274Z</time></trkpt><trkpt lat="44.6609883" lon="7.9211817"><ele>349.75</ele><time>2026-05-03T16:27:01.274Z</time></trkpt><trkpt lat="44.6611367" lon="7.9211567"><ele>349.5</ele><time>2026-05-03T16:27:02.274Z</time></trkpt><trkpt lat="44.66129" lon="7.9211367"><ele>349.25</ele><time>2026-05-03T16:27:03.274Z</time></trkpt><trkpt lat="44.661435" lon="7.921125"><ele>349.0</ele><time>2026-05-03T16:27:04.275Z</time></trkpt><trkpt lat="44.6615617" lon="7.9211267"><ele>349.0</ele><time>2026-05-03T16:27:05.274Z</time></trkpt><trkpt lat="44.661675" lon="7.92112"><ele>349.0</ele><time>2026-05-03T16:27:06.274Z</time></trkpt><trkpt lat="44.6617733" lon="7.9211167"><ele>349.0</ele><time>2026-05-03T16:27:07.274Z</time></trkpt><trkpt lat="44.66185" lon="7.921095"><ele>349.0</ele><time>2026-05-03T16:27:08.274Z</time></trkpt><trkpt lat="44.6619" lon="7.92103"><ele>349.0</ele><time>2026-05-03T16:27:09.274Z</time></trkpt><trkpt lat="44.661925" lon="7.920945"><ele>349.0</ele><time>2026-05-03T16:27:10.274Z</time></trkpt><trkpt lat="44.6618733" lon="7.9207767"><ele>346.0</ele><time>2026-05-03T16:27:12.274Z</time></trkpt><trkpt lat="44.661795" lon="7.9207133"><ele>343.0</ele><time>2026-05-03T16:27:13.274Z</time></trkpt><trkpt lat="44.66169" lon="7.9206733"><ele>340.0</ele><time>2026-05-03T16:27:14.274Z</time></trkpt><trkpt lat="44.6615717" lon="7.9206367"><ele>337.0</ele><time>2026-05-03T16:27:15.274Z</time></trkpt><trkpt lat="44.6614433" lon="7.92058"><ele>337.0</ele><time>2026-05-03T16:27:16.274Z</time></trkpt><trkpt lat="44.6613217" lon="7.9204917"><ele>337.0</ele><time>2026-05-03T16:27:17.274Z</time></trkpt><trkpt lat="44.6612183" lon="7.9203833"><ele>337.0</ele><time>2026-05-03T16:27:18.275Z</time></trkpt><trkpt lat="44.66114" lon="7.9202533"><ele>337.0</ele><time>2026-05-03T16:27:19.274Z</time></trkpt><trkpt lat="44.6610817" lon="7.92011"><ele>335.8</ele><time>2026-05-03T16:27:20.274Z</time></trkpt><trkpt lat="44.6610467" lon="7.9199483"><ele>334.6</ele><time>2026-05-03T16:27:21.274Z</time></trkpt><trkpt lat="44.6610283" lon="7.9198017"><ele>333.40000000000003</ele><time>2026-05-03T16:27:22.274Z</time></trkpt><trkpt lat="44.66104" lon="7.9196467"><ele>332.20000000000005</ele><time>2026-05-03T16:27:23.274Z</time></trkpt><trkpt lat="44.6610933" lon="7.9195217"><ele>331.0</ele><time>2026-05-03T16:27:24.274Z</time></trkpt><trkpt lat="44.6611733" lon="7.9194017"><ele>330.5</ele><time>2026-05-03T16:27:25.274Z</time></trkpt><trkpt lat="44.661255" lon="7.9192933"><ele>330.0</ele><time>2026-05-03T16:27:26.274Z</time></trkpt><trkpt lat="44.66134" lon="7.9191917"><ele>329.5</ele><time>2026-05-03T16:27:27.275Z</time></trkpt><trkpt lat="44.66143" lon="7.91909"><ele>329.0</ele><time>2026-05-03T16:27:28.274Z</time></trkpt><trkpt lat="44.66151" lon="7.9189717"><ele>329.0</ele><time>2026-05-03T16:27:29.274Z</time></trkpt><trkpt lat="44.6615867" lon="7.918855"><ele>329.0</ele><time>2026-05-03T16:27:30.274Z</time></trkpt><trkpt lat="44.6616633" lon="7.91873"><ele>329.0</ele><time>2026-05-03T16:27:31.275Z</time></trkpt><trkpt lat="44.6617317" lon="7.9185983"><ele>329.0</ele><time>2026-05-03T16:27:32.274Z</time></trkpt><trkpt lat="44.6618" lon="7.918455"><ele>328.25</ele><time>2026-05-03T16:27:33.274Z</time></trkpt><trkpt lat="44.6618683" lon="7.9183167"><ele>327.5</ele><time>2026-05-03T16:27:34.274Z</time></trkpt><trkpt lat="44.66194" lon="7.9181817"><ele>326.75</ele><time>2026-05-03T16:27:35.274Z</time></trkpt><trkpt lat="44.6620067" lon="7.9180433"><ele>326.0</ele><time>2026-05-03T16:27:36.274Z</time></trkpt><trkpt lat="44.6620783" lon="7.9179117"><ele>326.6</ele><time>2026-05-03T16:27:37.275Z</time></trkpt><trkpt lat="44.6621483" lon="7.9177817"><ele>327.20000000000005</ele><time>2026-05-03T16:27:38.275Z</time></trkpt><trkpt lat="44.6622017" lon="7.9176483"><ele>327.79999999999995</ele><time>2026-05-03T16:27:39.274Z</time></trkpt><trkpt lat="44.6622517" lon="7.9175183"><ele>328.4</ele><time>2026-05-03T16:27:40.275Z</time></trkpt><trkpt lat="44.662295" lon="7.9173833"><ele>329.0</ele><time>2026-05-03T16:27:41.275Z</time></trkpt><trkpt lat="44.662335" lon="7.9172367"><ele>329.0</ele><time>2026-05-03T16:27:42.274Z</time></trkpt><trkpt lat="44.662375" lon="7.91709"><ele>329.0</ele><time>2026-05-03T16:27:43.274Z</time></trkpt><trkpt lat="44.6624083" lon="7.9169283"><ele>329.0</ele><time>2026-05-03T16:27:44.274Z</time></trkpt><trkpt lat="44.6624483" lon="7.9167583"><ele>329.0</ele><time>2026-05-03T16:27:45.274Z</time></trkpt><trkpt lat="44.66249" lon="7.9165967"><ele>327.25</ele><time>2026-05-03T16:27:46.274Z</time></trkpt><trkpt lat="44.6625367" lon="7.91642"><ele>325.5</ele><time>2026-05-03T16:27:47.274Z</time></trkpt><trkpt lat="44.6626017" lon="7.91626"><ele>323.75</ele><time>2026-05-03T16:27:48.274Z</time></trkpt><trkpt lat="44.6626733" lon="7.9161067"><ele>322.0</ele><time>2026-05-03T16:27:49.274Z</time></trkpt><trkpt lat="44.6627617" lon="7.9159633"><ele>320.66666666666663</ele><time>2026-05-03T16:27:50.274Z</time></trkpt><trkpt lat="44.6628567" lon="7.915815"><ele>319.3333333333333</ele><time>2026-05-03T16:27:51.274Z</time></trkpt><trkpt lat="44.6629683" lon="7.9156667"><ele>318.0</ele><time>2026-05-03T16:27:52.274Z</time></trkpt><trkpt lat="44.6630817" lon="7.915515"><ele>318.0</ele><time>2026-05-03T16:27:53.274Z</time></trkpt><trkpt lat="44.6631967" lon="7.9153633"><ele>318.0</ele><time>2026-05-03T16:27:54.274Z</time></trkpt><trkpt lat="44.6633117" lon="7.91522"><ele>318.0</ele><time>2026-05-03T16:27:55.274Z</time></trkpt><trkpt lat="44.663425" lon="7.915075"><ele>315.3333333333333</ele><time>2026-05-03T16:27:56.275Z</time></trkpt><trkpt lat="44.66354" lon="7.91493"><ele>312.66666666666663</ele><time>2026-05-03T16:27:57.274Z</time></trkpt><trkpt lat="44.66366" lon="7.9147933"><ele>310.0</ele><time>2026-05-03T16:27:58.274Z</time></trkpt><trkpt lat="44.6637717" lon="7.9146533"><ele>310.0</ele><time>2026-05-03T16:27:59.274Z</time></trkpt><trkpt lat="44.6638867" lon="7.91449"><ele>310.0</ele><time>2026-05-03T16:28:00.274Z</time></trkpt><trkpt lat="44.6639817" lon="7.9142983"><ele>310.0</ele><time>2026-05-03T16:28:01.274Z</time></trkpt><trkpt lat="44.6640717" lon="7.9141017"><ele>308.25</ele><time>2026-05-03T16:28:02.274Z</time></trkpt><trkpt lat="44.6641583" lon="7.9139217"><ele>306.5</ele><time>2026-05-03T16:28:03.274Z</time></trkpt><trkpt lat="44.66425" lon="7.913745"><ele>304.75</ele><time>2026-05-03T16:28:04.274Z</time></trkpt><trkpt lat="44.6643433" lon="7.9136017"><ele>303.0</ele><time>2026-05-03T16:28:05.274Z</time></trkpt><trkpt lat="44.6644383" lon="7.9134767"><ele>302.5</ele><time>2026-05-03T16:28:06.274Z</time></trkpt><trkpt lat="44.6645533" lon="7.9134133"><ele>302.0</ele><time>2026-05-03T16:28:07.274Z</time></trkpt><trkpt lat="44.66467" lon="7.9133767"><ele>301.5</ele><time>2026-05-03T16:28:08.274Z</time></trkpt><trkpt lat="44.6647917" lon="7.91336"><ele>301.0</ele><time>2026-05-03T16:28:09.274Z</time></trkpt><trkpt lat="44.66491" lon="7.9133017"><ele>299.25</ele><time>2026-05-03T16:28:10.274Z</time></trkpt><trkpt lat="44.665025" lon="7.9132017"><ele>297.5</ele><time>2026-05-03T16:28:11.274Z</time></trkpt><trkpt lat="44.665135" lon="7.9130817"><ele>295.75</ele><time>2026-05-03T16:28:12.274Z</time></trkpt><trkpt lat="44.6652433" lon="7.91295"><ele>294.0</ele><time>2026-05-03T16:28:13.274Z</time></trkpt><trkpt lat="44.6653367" lon="7.9128"><ele>292.75</ele><time>2026-05-03T16:28:14.274Z</time></trkpt><trkpt lat="44.665415" lon="7.9126367"><ele>291.5</ele><time>2026-05-03T16:28:15.274Z</time></trkpt><trkpt lat="44.6654867" lon="7.9124583"><ele>290.25</ele><time>2026-05-03T16:28:16.274Z</time></trkpt><trkpt lat="44.665555" lon="7.9122583"><ele>289.0</ele><time>2026-05-03T16:28:17.274Z</time></trkpt><trkpt lat="44.6656217" lon="7.912045"><ele>287.66666666666663</ele><time>2026-05-03T16:28:18.274Z</time></trkpt><trkpt lat="44.66569" lon="7.9118317"><ele>286.3333333333333</ele><time>2026-05-03T16:28:19.274Z</time></trkpt><trkpt lat="44.66576" lon="7.9116167"><ele>285.0</ele><time>2026-05-03T16:28:20.274Z</time></trkpt><trkpt lat="44.66583" lon="7.911405"><ele>283.3333333333333</ele><time>2026-05-03T16:28:21.274Z</time></trkpt><trkpt lat="44.6659033" lon="7.9112067"><ele>281.66666666666663</ele><time>2026-05-03T16:28:22.274Z</time></trkpt><trkpt lat="44.6659817" lon="7.9110083"><ele>280.0</ele><time>2026-05-03T16:28:23.274Z</time></trkpt><trkpt lat="44.6660783" lon="7.9108067"><ele>275.3333333333333</ele><time>2026-05-03T16:28:24.274Z</time></trkpt><trkpt lat="44.6661883" lon="7.9106167"><ele>270.6666666666667</ele><time>2026-05-03T16:28:25.275Z</time></trkpt><trkpt lat="44.66631" lon="7.9104383"><ele>266.0</ele><time>2026-05-03T16:28:26.274Z</time></trkpt><trkpt lat="44.6664483" lon="7.9102767"><ele>266.0</ele><time>2026-05-03T16:28:27.274Z</time></trkpt><trkpt lat="44.666585" lon="7.9101267"><ele>266.0</ele><time>2026-05-03T16:28:28.274Z</time></trkpt><trkpt lat="44.6667267" lon="7.9099733"><ele>266.0</ele><time>2026-05-03T16:28:29.275Z</time></trkpt><trkpt lat="44.6668617" lon="7.9098267"><ele>265.0</ele><time>2026-05-03T16:28:30.274Z</time></trkpt><trkpt lat="44.6669817" lon="7.909705"><ele>264.0</ele><time>2026-05-03T16:28:31.274Z</time></trkpt><trkpt lat="44.6671067" lon="7.9096117"><ele>263.0</ele><time>2026-05-03T16:28:32.274Z</time></trkpt><trkpt lat="44.6672317" lon="7.90957"><ele>262.0</ele><time>2026-05-03T16:28:33.274Z</time></trkpt><trkpt lat="44.6673433" lon="7.9095683"><ele>262.0</ele><time>2026-05-03T16:28:34.274Z</time></trkpt><trkpt lat="44.6674733" lon="7.9096233"><ele>262.0</ele><time>2026-05-03T16:28:35.274Z</time></trkpt><trkpt lat="44.6676117" lon="7.9096967"><ele>262.0</ele><time>2026-05-03T16:28:36.274Z</time></trkpt><trkpt lat="44.6677517" lon="7.9097767"><ele>262.0</ele><time>2026-05-03T16:28:37.274Z</time></trkpt><trkpt lat="44.6679083" lon="7.90985"><ele>261.0</ele><time>2026-05-03T16:28:38.274Z</time></trkpt><trkpt lat="44.668075" lon="7.9099333"><ele>260.0</ele><time>2026-05-03T16:28:39.274Z</time></trkpt><trkpt lat="44.6682467" lon="7.910015"><ele>259.0</ele><time>2026-05-03T16:28:40.274Z</time></trkpt><trkpt lat="44.668425" lon="7.91011"><ele>256.66666666666663</ele><time>2026-05-03T16:28:41.274Z</time></trkpt><trkpt lat="44.66861" lon="7.9102"><ele>254.33333333333331</ele><time>2026-05-03T16:28:42.274Z</time></trkpt><trkpt lat="44.6688" lon="7.9102967"><ele>252.0</ele><time>2026-05-03T16:28:43.274Z</time></trkpt><trkpt lat="44.6689917" lon="7.9103967"><ele>252.0</ele><time>2026-05-03T16:28:44.274Z</time></trkpt><trkpt lat="44.6691783" lon="7.910485"><ele>252.0</ele><time>2026-05-03T16:28:45.274Z</time></trkpt><trkpt lat="44.6693567" lon="7.9105783"><ele>252.0</ele><time>2026-05-03T16:28:46.274Z</time></trkpt><trkpt lat="44.6695317" lon="7.9106767"><ele>251.0</ele><time>2026-05-03T16:28:47.274Z</time></trkpt><trkpt lat="44.669715" lon="7.9107517"><ele>250.0</ele><time>2026-05-03T16:28:48.274Z</time></trkpt><trkpt lat="44.6699033" lon="7.9108067"><ele>249.0</ele><time>2026-05-03T16:28:49.274Z</time></trkpt><trkpt lat="44.670105" lon="7.9108367"><ele>247.0</ele><time>2026-05-03T16:28:50.274Z</time></trkpt><trkpt lat="44.67031" lon="7.9108467"><ele>245.0</ele><time>2026-05-03T16:28:51.274Z</time></trkpt><trkpt lat="44.6705233" lon="7.910845"><ele>243.0</ele><time>2026-05-03T16:28:52.274Z</time></trkpt><trkpt lat="44.6707333" lon="7.910845"><ele>243.0</ele><time>2026-05-03T16:28:53.275Z</time></trkpt><trkpt lat="44.670935" lon="7.9108483"><ele>243.0</ele><time>2026-05-03T16:28:54.274Z</time></trkpt><trkpt lat="44.6711267" lon="7.910855"><ele>243.0</ele><time>2026-05-03T16:28:55.274Z</time></trkpt><trkpt lat="44.6713117" lon="7.91085"><ele>242.33333333333331</ele><time>2026-05-03T16:28:56.274Z</time></trkpt><trkpt lat="44.6714883" lon="7.9108517"><ele>241.66666666666666</ele><time>2026-05-03T16:28:57.274Z</time></trkpt><trkpt lat="44.6716533" lon="7.910855"><ele>241.0</ele><time>2026-05-03T16:28:58.274Z</time></trkpt><trkpt lat="44.6717967" lon="7.9108867"><ele>240.33333333333331</ele><time>2026-05-03T16:28:59.274Z</time></trkpt><trkpt lat="44.6719283" lon="7.910955"><ele>239.66666666666669</ele><time>2026-05-03T16:29:00.274Z</time></trkpt><trkpt lat="44.672055" lon="7.9110633"><ele>239.0</ele><time>2026-05-03T16:29:01.274Z</time></trkpt><trkpt lat="44.6721817" lon="7.91122"><ele>239.0</ele><time>2026-05-03T16:29:02.274Z</time></trkpt><trkpt lat="44.6722983" lon="7.91141"><ele>239.0</ele><time>2026-05-03T16:29:03.274Z</time></trkpt><trkpt lat="44.672425" lon="7.911595"><ele>239.0</ele><time>2026-05-03T16:29:04.274Z</time></trkpt><trkpt lat="44.6725567" lon="7.9117683"><ele>240.33333333333334</ele><time>2026-05-03T16:29:05.274Z</time></trkpt><trkpt lat="44.6726767" lon="7.91195"><ele>241.66666666666669</ele><time>2026-05-03T16:29:06.275Z</time></trkpt><trkpt lat="44.672785" lon="7.9121517"><ele>243.0</ele><time>2026-05-03T16:29:07.274Z</time></trkpt><trkpt lat="44.67288" lon="7.9123717"><ele>240.0</ele><time>2026-05-03T16:29:08.274Z</time></trkpt><trkpt lat="44.6729733" lon="7.9125983"><ele>237.0</ele><time>2026-05-03T16:29:09.274Z</time></trkpt><trkpt lat="44.6730617" lon="7.9128283"><ele>234.0</ele><time>2026-05-03T16:29:10.274Z</time></trkpt><trkpt lat="44.67317" lon="7.913055"><ele>234.0</ele><time>2026-05-03T16:29:11.274Z</time></trkpt><trkpt lat="44.67329" lon="7.913265"><ele>234.0</ele><time>2026-05-03T16:29:12.274Z</time></trkpt><trkpt lat="44.6734117" lon="7.913455"><ele>234.0</ele><time>2026-05-03T16:29:13.274Z</time></trkpt><trkpt lat="44.6735267" lon="7.913635"><ele>232.66666666666669</ele><time>2026-05-03T16:29:14.274Z</time></trkpt><trkpt lat="44.6736417" lon="7.9138033"><ele>231.33333333333334</ele><time>2026-05-03T16:29:15.275Z</time></trkpt><trkpt lat="44.67375" lon="7.9139833"><ele>230.0</ele><time>2026-05-03T16:29:16.274Z</time></trkpt><trkpt lat="44.673855" lon="7.9141833"><ele>229.66666666666669</ele><time>2026-05-03T16:29:17.274Z</time></trkpt><trkpt lat="44.6739533" lon="7.9144"><ele>229.33333333333331</ele><time>2026-05-03T16:29:18.274Z</time></trkpt><trkpt lat="44.674035" lon="7.9146333"><ele>229.0</ele><time>2026-05-03T16:29:19.274Z</time></trkpt><trkpt lat="44.6740967" lon="7.9148817"><ele>229.0</ele><time>2026-05-03T16:29:20.274Z</time></trkpt><trkpt lat="44.6741567" lon="7.9151167"><ele>229.0</ele><time>2026-05-03T16:29:21.274Z</time></trkpt><trkpt lat="44.6742233" lon="7.9153333"><ele>229.0</ele><time>2026-05-03T16:29:22.274Z</time></trkpt><trkpt lat="44.6743017" lon="7.9155583"><ele>229.0</ele><time>2026-05-03T16:29:23.274Z</time></trkpt><trkpt lat="44.6743967" lon="7.915765"><ele>229.0</ele><time>2026-05-03T16:29:24.274Z</time></trkpt><trkpt lat="44.67452" lon="7.915965"><ele>229.0</ele><time>2026-05-03T16:29:25.274Z</time></trkpt><trkpt lat="44.674675" lon="7.9161417"><ele>227.0</ele><time>2026-05-03T16:29:26.274Z</time></trkpt><trkpt lat="44.6748367" lon="7.9163117"><ele>225.0</ele><time>2026-05-03T16:29:27.274Z</time></trkpt><trkpt lat="44.6749917" lon="7.916485"><ele>223.0</ele><time>2026-05-03T16:29:28.274Z</time></trkpt><trkpt lat="44.675155" lon="7.91666"><ele>221.0</ele><time>2026-05-03T16:29:29.274Z</time></trkpt><trkpt lat="44.6753083" lon="7.9168267"><ele>219.0</ele><time>2026-05-03T16:29:30.275Z</time></trkpt><trkpt lat="44.6754617" lon="7.916995"><ele>217.0</ele><time>2026-05-03T16:29:31.275Z</time></trkpt><trkpt lat="44.675615" lon="7.9171583"><ele>217.0</ele><time>2026-05-03T16:29:32.274Z</time></trkpt><trkpt lat="44.6757583" lon="7.9173217"><ele>217.0</ele><time>2026-05-03T16:29:33.274Z</time></trkpt><trkpt lat="44.6758967" lon="7.917475"><ele>217.0</ele><time>2026-05-03T16:29:34.274Z</time></trkpt><trkpt lat="44.6760283" lon="7.9176233"><ele>214.33333333333331</ele><time>2026-05-03T16:29:35.274Z</time></trkpt><trkpt lat="44.676165" lon="7.9177733"><ele>211.66666666666669</ele><time>2026-05-03T16:29:36.274Z</time></trkpt><trkpt lat="44.6762983" lon="7.917915"><ele>209.0</ele><time>2026-05-03T16:29:37.274Z</time></trkpt><trkpt lat="44.6764267" lon="7.918055"><ele>209.0</ele><time>2026-05-03T16:29:38.274Z</time></trkpt><trkpt lat="44.6765467" lon="7.9181983"><ele>209.0</ele><time>2026-05-03T16:29:39.274Z</time></trkpt><trkpt lat="44.6766633" lon="7.9183433"><ele>209.0</ele><time>2026-05-03T16:29:40.275Z</time></trkpt><trkpt lat="44.676785" lon="7.9184867"><ele>208.5</ele><time>2026-05-03T16:29:41.274Z</time></trkpt><trkpt lat="44.676915" lon="7.9185983"><ele>208.0</ele><time>2026-05-03T16:29:42.274Z</time></trkpt><trkpt lat="44.677045" lon="7.9186867"><ele>207.5</ele><time>2026-05-03T16:29:43.274Z</time></trkpt><trkpt lat="44.677185" lon="7.9187333"><ele>207.0</ele><time>2026-05-03T16:29:44.274Z</time></trkpt><trkpt lat="44.67733" lon="7.9187233"><ele>205.75</ele><time>2026-05-03T16:29:45.274Z</time></trkpt><trkpt lat="44.6774767" lon="7.9187083"><ele>204.5</ele><time>2026-05-03T16:29:46.274Z</time></trkpt><trkpt lat="44.6776217" lon="7.9186917"><ele>203.25</ele><time>2026-05-03T16:29:47.275Z</time></trkpt><trkpt lat="44.6777717" lon="7.9186733"><ele>202.0</ele><time>2026-05-03T16:29:48.275Z</time></trkpt><trkpt lat="44.6779217" lon="7.91866"><ele>200.0</ele><time>2026-05-03T16:29:49.274Z</time></trkpt><trkpt lat="44.6780683" lon="7.9186433"><ele>198.0</ele><time>2026-05-03T16:29:50.274Z</time></trkpt><trkpt lat="44.6782117" lon="7.9186283"><ele>196.0</ele><time>2026-05-03T16:29:51.274Z</time></trkpt><trkpt lat="44.6783417" lon="7.91861"><ele>194.0</ele><time>2026-05-03T16:29:52.275Z</time></trkpt><trkpt lat="44.6784567" lon="7.918605"><ele>194.00000000000003</ele><time>2026-05-03T16:29:53.274Z</time></trkpt><trkpt lat="44.6785383" lon="7.918605"><ele>194.0</ele><time>2026-05-03T16:29:54.274Z</time></trkpt><trkpt lat="44.6786383" lon="7.9185967"><ele>194.0</ele><time>2026-05-03T16:29:56.274Z</time></trkpt><trkpt lat="44.67873" lon="7.9185867"><ele>194.0</ele><time>2026-05-03T16:29:58.274Z</time></trkpt><trkpt lat="44.6787983" lon="7.9185717"><ele>194.00000000000003</ele><time>2026-05-03T16:29:59.274Z</time></trkpt><trkpt lat="44.67889" lon="7.9185583"><ele>194.0</ele><time>2026-05-03T16:30:00.274Z</time></trkpt><trkpt lat="44.678995" lon="7.9185417"><ele>192.75</ele><time>2026-05-03T16:30:01.274Z</time></trkpt><trkpt lat="44.67912" lon="7.9185267"><ele>191.5</ele><time>2026-05-03T16:30:02.274Z</time></trkpt><trkpt lat="44.6792483" lon="7.9185083"><ele>190.25</ele><time>2026-05-03T16:30:03.274Z</time></trkpt><trkpt lat="44.67939" lon="7.9184733"><ele>189.0</ele><time>2026-05-03T16:30:04.274Z</time></trkpt><trkpt lat="44.679525" lon="7.9184167"><ele>188.5</ele><time>2026-05-03T16:30:05.274Z</time></trkpt><trkpt lat="44.6796617" lon="7.9183583"><ele>188.0</ele><time>2026-05-03T16:30:06.274Z</time></trkpt><trkpt lat="44.679795" lon="7.9182733"><ele>187.5</ele><time>2026-05-03T16:30:07.274Z</time></trkpt><trkpt lat="44.6799183" lon="7.91814"><ele>187.0</ele><time>2026-05-03T16:30:08.274Z</time></trkpt><trkpt lat="44.680035" lon="7.917995"><ele>187.0</ele><time>2026-05-03T16:30:09.274Z</time></trkpt><trkpt lat="44.6801567" lon="7.9178567"><ele>187.0</ele><time>2026-05-03T16:30:10.274Z</time></trkpt><trkpt lat="44.68028" lon="7.9177033"><ele>187.0</ele><time>2026-05-03T16:30:11.274Z</time></trkpt><trkpt lat="44.68041" lon="7.917545"><ele>186.0</ele><time>2026-05-03T16:30:12.274Z</time></trkpt><trkpt lat="44.68055" lon="7.9173817"><ele>185.0</ele><time>2026-05-03T16:30:13.274Z</time></trkpt><trkpt lat="44.6807" lon="7.9172"><ele>184.0</ele><time>2026-05-03T16:30:14.274Z</time></trkpt><trkpt lat="44.680845" lon="7.9170283"><ele>184.0</ele><time>2026-05-03T16:30:15.274Z</time></trkpt><trkpt lat="44.681005" lon="7.916845"><ele>184.0</ele><time>2026-05-03T16:30:16.274Z</time></trkpt><trkpt lat="44.6811617" lon="7.9166533"><ele>184.0</ele><time>2026-05-03T16:30:17.274Z</time></trkpt><trkpt lat="44.6813183" lon="7.9164683"><ele>184.0</ele><time>2026-05-03T16:30:18.274Z</time></trkpt><trkpt lat="44.6814867" lon="7.91627"><ele>184.0</ele><time>2026-05-03T16:30:19.274Z</time></trkpt><trkpt lat="44.681655" lon="7.9160667"><ele>184.0</ele><time>2026-05-03T16:30:20.274Z</time></trkpt><trkpt lat="44.681825" lon="7.9158733"><ele>184.0</ele><time>2026-05-03T16:30:21.274Z</time></trkpt><trkpt lat="44.681985" lon="7.91567"><ele>184.0</ele><time>2026-05-03T16:30:22.274Z</time></trkpt><trkpt lat="44.6821467" lon="7.9154633"><ele>184.0</ele><time>2026-05-03T16:30:23.274Z</time></trkpt><trkpt lat="44.6823117" lon="7.9152633"><ele>184.0</ele><time>2026-05-03T16:30:24.274Z</time></trkpt><trkpt lat="44.6824683" lon="7.9150717"><ele>184.0</ele><time>2026-05-03T16:30:25.274Z</time></trkpt><trkpt lat="44.682635" lon="7.9148717"><ele>184.0</ele><time>2026-05-03T16:30:26.274Z</time></trkpt><trkpt lat="44.682805" lon="7.9146717"><ele>184.0</ele><time>2026-05-03T16:30:27.274Z</time></trkpt><trkpt lat="44.682975" lon="7.9144883"><ele>184.0</ele><time>2026-05-03T16:30:28.274Z</time></trkpt><trkpt lat="44.683155" lon="7.9143183"><ele>184.0</ele><time>2026-05-03T16:30:29.274Z</time></trkpt><trkpt lat="44.6833383" lon="7.9141567"><ele>184.33333333333334</ele><time>2026-05-03T16:30:30.274Z</time></trkpt><trkpt lat="44.6835217" lon="7.9140133"><ele>184.66666666666666</ele><time>2026-05-03T16:30:31.274Z</time></trkpt><trkpt lat="44.68371" lon="7.91388"><ele>185.0</ele><time>2026-05-03T16:30:32.274Z</time></trkpt><trkpt lat="44.683895" lon="7.91374"><ele>185.0</ele><time>2026-05-03T16:30:33.274Z</time></trkpt><trkpt lat="44.6840767" lon="7.9136"><ele>185.0</ele><time>2026-05-03T16:30:34.274Z</time></trkpt><trkpt lat="44.6842583" lon="7.9134717"><ele>185.0</ele><time>2026-05-03T16:30:35.274Z</time></trkpt><trkpt lat="44.68444" lon="7.913335"><ele>185.33333333333331</ele><time>2026-05-03T16:30:36.274Z</time></trkpt><trkpt lat="44.6846167" lon="7.9131933"><ele>185.66666666666666</ele><time>2026-05-03T16:30:37.275Z</time></trkpt><trkpt lat="44.68479" lon="7.9130617"><ele>186.0</ele><time>2026-05-03T16:30:38.275Z</time></trkpt><trkpt lat="44.6849467" lon="7.9129433"><ele>186.0</ele><time>2026-05-03T16:30:39.274Z</time></trkpt><trkpt lat="44.685095" lon="7.912835"><ele>186.0</ele><time>2026-05-03T16:30:40.274Z</time></trkpt><trkpt lat="44.68524" lon="7.9127317"><ele>186.0</ele><time>2026-05-03T16:30:41.274Z</time></trkpt><trkpt lat="44.6853683" lon="7.9126183"><ele>187.0</ele><time>2026-05-03T16:30:42.275Z</time></trkpt><trkpt lat="44.68548" lon="7.9124917"><ele>188.0</ele><time>2026-05-03T16:30:43.274Z</time></trkpt><trkpt lat="44.6855667" lon="7.9123567"><ele>189.0</ele><time>2026-05-03T16:30:44.274Z</time></trkpt><trkpt lat="44.6856167" lon="7.9121933"><ele>190.0</ele><time>2026-05-03T16:30:45.274Z</time></trkpt><trkpt lat="44.685635" lon="7.9120033"><ele>190.0</ele><time>2026-05-03T16:30:46.274Z</time></trkpt><trkpt lat="44.6856083" lon="7.911805"><ele>190.0</ele><time>2026-05-03T16:30:47.274Z</time></trkpt><trkpt lat="44.6855533" lon="7.91161"><ele>190.0</ele><time>2026-05-03T16:30:48.274Z</time></trkpt><trkpt lat="44.6854817" lon="7.9114167"><ele>190.0</ele><time>2026-05-03T16:30:49.275Z</time></trkpt><trkpt lat="44.6854067" lon="7.9112133"><ele>190.66666666666669</ele><time>2026-05-03T16:30:50.274Z</time></trkpt><trkpt lat="44.6853083" lon="7.910995"><ele>191.33333333333334</ele><time>2026-05-03T16:30:51.274Z</time></trkpt><trkpt lat="44.6852133" lon="7.9107617"><ele>192.0</ele><time>2026-05-03T16:30:52.274Z</time></trkpt><trkpt lat="44.6851217" lon="7.9105133"><ele>192.66666666666669</ele><time>2026-05-03T16:30:53.275Z</time></trkpt><trkpt lat="44.6850217" lon="7.9102633"><ele>193.33333333333334</ele><time>2026-05-03T16:30:54.274Z</time></trkpt><trkpt lat="44.6849133" lon="7.9100083"><ele>194.0</ele><time>2026-05-03T16:30:55.274Z</time></trkpt><trkpt lat="44.6848" lon="7.9097583"><ele>194.0</ele><time>2026-05-03T16:30:56.274Z</time></trkpt><trkpt lat="44.6846967" lon="7.9094983"><ele>194.0</ele><time>2026-05-03T16:30:57.275Z</time></trkpt><trkpt lat="44.68459" lon="7.909245"><ele>194.0</ele><time>2026-05-03T16:30:58.274Z</time></trkpt><trkpt lat="44.6844917" lon="7.90899"><ele>193.33333333333334</ele><time>2026-05-03T16:30:59.274Z</time></trkpt><trkpt lat="44.6843883" lon="7.90875"><ele>192.66666666666669</ele><time>2026-05-03T16:31:00.275Z</time></trkpt><trkpt lat="44.6842833" lon="7.90851"><ele>192.0</ele><time>2026-05-03T16:31:01.274Z</time></trkpt><trkpt lat="44.6841867" lon="7.9082583"><ele>192.0</ele><time>2026-05-03T16:31:02.274Z</time></trkpt><trkpt lat="44.68409" lon="7.9080167"><ele>192.0</ele><time>2026-05-03T16:31:03.274Z</time></trkpt><trkpt lat="44.6839917" lon="7.9077783"><ele>192.0</ele><time>2026-05-03T16:31:04.274Z</time></trkpt><trkpt lat="44.6838983" lon="7.9075583"><ele>192.33333333333331</ele><time>2026-05-03T16:31:05.274Z</time></trkpt><trkpt lat="44.68381" lon="7.9073333"><ele>192.66666666666666</ele><time>2026-05-03T16:31:06.275Z</time></trkpt><trkpt lat="44.6837283" lon="7.9071133"><ele>193.0</ele><time>2026-05-03T16:31:07.274Z</time></trkpt><trkpt lat="44.6836617" lon="7.9068933"><ele>193.33333333333331</ele><time>2026-05-03T16:31:08.274Z</time></trkpt><trkpt lat="44.68361" lon="7.9066617"><ele>193.66666666666669</ele><time>2026-05-03T16:31:09.274Z</time></trkpt><trkpt lat="44.68358" lon="7.906415"><ele>194.0</ele><time>2026-05-03T16:31:10.274Z</time></trkpt><trkpt lat="44.6835633" lon="7.90616"><ele>194.0</ele><time>2026-05-03T16:31:11.274Z</time></trkpt><trkpt lat="44.6835717" lon="7.9058933"><ele>194.0</ele><time>2026-05-03T16:31:12.274Z</time></trkpt><trkpt lat="44.6835917" lon="7.905615"><ele>194.0</ele><time>2026-05-03T16:31:13.274Z</time></trkpt><trkpt lat="44.6836233" lon="7.9053433"><ele>194.0</ele><time>2026-05-03T16:31:14.275Z</time></trkpt><trkpt lat="44.6836517" lon="7.905085"><ele>194.0</ele><time>2026-05-03T16:31:15.274Z</time></trkpt><trkpt lat="44.683675" lon="7.9048333"><ele>194.0</ele><time>2026-05-03T16:31:16.274Z</time></trkpt><trkpt lat="44.6836917" lon="7.904585"><ele>194.0</ele><time>2026-05-03T16:31:17.274Z</time></trkpt><trkpt lat="44.6837083" lon="7.90433"><ele>194.0</ele><time>2026-05-03T16:31:18.274Z</time></trkpt><trkpt lat="44.6837317" lon="7.90408"><ele>194.0</ele><time>2026-05-03T16:31:19.274Z</time></trkpt><trkpt lat="44.68375" lon="7.9038383"><ele>194.33333333333334</ele><time>2026-05-03T16:31:20.275Z</time></trkpt><trkpt lat="44.6837617" lon="7.9036083"><ele>194.66666666666669</ele><time>2026-05-03T16:31:21.275Z</time></trkpt><trkpt lat="44.6837767" lon="7.9033667"><ele>195.0</ele><time>2026-05-03T16:31:22.274Z</time></trkpt><trkpt lat="44.6838" lon="7.9031233"><ele>195.0</ele><time>2026-05-03T16:31:23.274Z</time></trkpt><trkpt lat="44.6838217" lon="7.9028767"><ele>195.0</ele><time>2026-05-03T16:31:24.274Z</time></trkpt><trkpt lat="44.68384" lon="7.9026383"><ele>195.0</ele><time>2026-05-03T16:31:25.274Z</time></trkpt><trkpt lat="44.683855" lon="7.9024067"><ele>195.0</ele><time>2026-05-03T16:31:26.274Z</time></trkpt><trkpt lat="44.68387" lon="7.90217"><ele>195.0</ele><time>2026-05-03T16:31:27.274Z</time></trkpt><trkpt lat="44.683885" lon="7.9019383"><ele>195.0</ele><time>2026-05-03T16:31:28.274Z</time></trkpt><trkpt lat="44.6839083" lon="7.9017083"><ele>195.0</ele><time>2026-05-03T16:31:29.274Z</time></trkpt><trkpt lat="44.6839267" lon="7.9014817"><ele>195.0</ele><time>2026-05-03T16:31:30.274Z</time></trkpt><trkpt lat="44.6839433" lon="7.9012567"><ele>195.0</ele><time>2026-05-03T16:31:31.274Z</time></trkpt><trkpt lat="44.6839633" lon="7.9010333"><ele>195.0</ele><time>2026-05-03T16:31:32.275Z</time></trkpt><trkpt lat="44.6839833" lon="7.9008183"><ele>195.0</ele><time>2026-05-03T16:31:33.274Z</time></trkpt><trkpt lat="44.684005" lon="7.9006117"><ele>195.0</ele><time>2026-05-03T16:31:34.274Z</time></trkpt><trkpt lat="44.68403" lon="7.900425"><ele>195.0</ele><time>2026-05-03T16:31:35.274Z</time></trkpt><trkpt lat="44.6840533" lon="7.9002383"><ele>195.25</ele><time>2026-05-03T16:31:36.274Z</time></trkpt><trkpt lat="44.68408" lon="7.900045"><ele>195.5</ele><time>2026-05-03T16:31:37.274Z</time></trkpt><trkpt lat="44.6841133" lon="7.899845"><ele>195.75</ele><time>2026-05-03T16:31:38.274Z</time></trkpt><trkpt lat="44.6841483" lon="7.8996633"><ele>196.0</ele><time>2026-05-03T16:31:39.274Z</time></trkpt><trkpt lat="44.6841917" lon="7.89948"><ele>196.0</ele><time>2026-05-03T16:31:40.274Z</time></trkpt><trkpt lat="44.6842317" lon="7.8993217"><ele>196.0</ele><time>2026-05-03T16:31:41.275Z</time></trkpt><trkpt lat="44.6842733" lon="7.89917"><ele>196.0</ele><time>2026-05-03T16:31:42.274Z</time></trkpt><trkpt lat="44.6843167" lon="7.8990217"><ele>196.0</ele><time>2026-05-03T16:31:43.274Z</time></trkpt><trkpt lat="44.68436" lon="7.8988767"><ele>196.0</ele><time>2026-05-03T16:31:44.274Z</time></trkpt><trkpt lat="44.6844" lon="7.8987467"><ele>196.0</ele><time>2026-05-03T16:31:45.274Z</time></trkpt><trkpt lat="44.6844433" lon="7.8986267"><ele>196.0</ele><time>2026-05-03T16:31:46.274Z</time></trkpt><trkpt lat="44.68449" lon="7.89851"><ele>196.0</ele><time>2026-05-03T16:31:47.275Z</time></trkpt><trkpt lat="44.6845417" lon="7.8983867"><ele>196.0</ele><time>2026-05-03T16:31:48.274Z</time></trkpt><trkpt lat="44.684595" lon="7.898265"><ele>196.60000000000002</ele><time>2026-05-03T16:31:49.274Z</time></trkpt><trkpt lat="44.6846467" lon="7.89815"><ele>197.2</ele><time>2026-05-03T16:31:50.274Z</time></trkpt><trkpt lat="44.6846967" lon="7.8980467"><ele>197.8</ele><time>2026-05-03T16:31:51.274Z</time></trkpt><trkpt lat="44.684745" lon="7.8979417"><ele>198.39999999999998</ele><time>2026-05-03T16:31:52.274Z</time></trkpt><trkpt lat="44.684805" lon="7.89785"><ele>199.0</ele><time>2026-05-03T16:31:53.274Z</time></trkpt><trkpt lat="44.6848633" lon="7.897755"><ele>198.99999999999997</ele><time>2026-05-03T16:31:54.275Z</time></trkpt><trkpt lat="44.684925" lon="7.89766"><ele>199.0</ele><time>2026-05-03T16:31:55.274Z</time></trkpt><trkpt lat="44.6849933" lon="7.897565"><ele>199.0</ele><time>2026-05-03T16:31:56.274Z</time></trkpt><trkpt lat="44.6850583" lon="7.89749"><ele>199.0</ele><time>2026-05-03T16:31:57.274Z</time></trkpt><trkpt lat="44.6851183" lon="7.8974167"><ele>198.99999999999997</ele><time>2026-05-03T16:31:58.274Z</time></trkpt><trkpt lat="44.6851917" lon="7.8973367"><ele>199.0</ele><time>2026-05-03T16:31:59.274Z</time></trkpt><trkpt lat="44.6852683" lon="7.8972633"><ele>199.79999999999998</ele><time>2026-05-03T16:32:00.275Z</time></trkpt><trkpt lat="44.685345" lon="7.8971883"><ele>200.6</ele><time>2026-05-03T16:32:01.274Z</time></trkpt><trkpt lat="44.68543" lon="7.8971133"><ele>201.4</ele><time>2026-05-03T16:32:02.274Z</time></trkpt><trkpt lat="44.6855167" lon="7.89704"><ele>202.2</ele><time>2026-05-03T16:32:03.274Z</time></trkpt><trkpt lat="44.6856033" lon="7.8969567"><ele>203.0</ele><time>2026-05-03T16:32:04.274Z</time></trkpt><trkpt lat="44.6856867" lon="7.8968783"><ele>203.00000000000003</ele><time>2026-05-03T16:32:05.274Z</time></trkpt><trkpt lat="44.6857683" lon="7.89681"><ele>203.0</ele><time>2026-05-03T16:32:06.274Z</time></trkpt><trkpt lat="44.6858467" lon="7.8967467"><ele>203.0</ele><time>2026-05-03T16:32:07.275Z</time></trkpt><trkpt lat="44.68592" lon="7.896695"><ele>203.0</ele><time>2026-05-03T16:32:08.274Z</time></trkpt><trkpt lat="44.68599" lon="7.89664"><ele>203.00000000000003</ele><time>2026-05-03T16:32:09.274Z</time></trkpt><trkpt lat="44.68606" lon="7.89659"><ele>203.0</ele><time>2026-05-03T16:32:10.274Z</time></trkpt><trkpt lat="44.6861283" lon="7.8965417"><ele>202.85714285714286</ele><time>2026-05-03T16:32:11.275Z</time></trkpt><trkpt lat="44.6861917" lon="7.8965017"><ele>202.71428571428572</ele><time>2026-05-03T16:32:12.274Z</time></trkpt><trkpt lat="44.6862467" lon="7.8964567"><ele>202.57142857142856</ele><time>2026-05-03T16:32:13.274Z</time></trkpt><trkpt lat="44.68631" lon="7.89642"><ele>202.42857142857144</ele><time>2026-05-03T16:32:14.274Z</time></trkpt><trkpt lat="44.6863717" lon="7.8963717"><ele>202.28571428571428</ele><time>2026-05-03T16:32:15.275Z</time></trkpt><trkpt lat="44.6864367" lon="7.8963217"><ele>202.14285714285714</ele><time>2026-05-03T16:32:16.274Z</time></trkpt><trkpt lat="44.6865117" lon="7.89629"><ele>202.0</ele><time>2026-05-03T16:32:17.274Z</time></trkpt><trkpt lat="44.6865817" lon="7.8962483"><ele>201.99999999999997</ele><time>2026-05-03T16:32:18.274Z</time></trkpt><trkpt lat="44.6866483" lon="7.896235"><ele>202.0</ele><time>2026-05-03T16:32:19.274Z</time></trkpt><trkpt lat="44.6867267" lon="7.8962217"><ele>202.0</ele><time>2026-05-03T16:32:20.274Z</time></trkpt><trkpt lat="44.6868067" lon="7.8962"><ele>202.0</ele><time>2026-05-03T16:32:21.274Z</time></trkpt><trkpt lat="44.6868867" lon="7.896145"><ele>201.99999999999997</ele><time>2026-05-03T16:32:22.274Z</time></trkpt><trkpt lat="44.68696" lon="7.89606"><ele>202.0</ele><time>2026-05-03T16:32:23.274Z</time></trkpt><trkpt lat="44.68703" lon="7.895945"><ele>201.75</ele><time>2026-05-03T16:32:24.274Z</time></trkpt><trkpt lat="44.6870967" lon="7.8958083"><ele>201.5</ele><time>2026-05-03T16:32:25.274Z</time></trkpt><trkpt lat="44.6871733" lon="7.895685"><ele>201.25</ele><time>2026-05-03T16:32:26.274Z</time></trkpt><trkpt lat="44.6872633" lon="7.8955667"><ele>201.0</ele><time>2026-05-03T16:32:27.274Z</time></trkpt><trkpt lat="44.6873683" lon="7.89547"><ele>201.0</ele><time>2026-05-03T16:32:28.274Z</time></trkpt><trkpt lat="44.6874817" lon="7.8953633"><ele>201.0</ele><time>2026-05-03T16:32:29.274Z</time></trkpt><trkpt lat="44.6876" lon="7.8952683"><ele>201.0</ele><time>2026-05-03T16:32:30.274Z</time></trkpt><trkpt lat="44.6877217" lon="7.8951583"><ele>201.0</ele><time>2026-05-03T16:32:31.274Z</time></trkpt><trkpt lat="44.68785" lon="7.8950533"><ele>201.5</ele><time>2026-05-03T16:32:32.274Z</time></trkpt><trkpt lat="44.6879667" lon="7.8949467"><ele>202.0</ele><time>2026-05-03T16:32:33.275Z</time></trkpt><trkpt lat="44.6880967" lon="7.894845"><ele>202.5</ele><time>2026-05-03T16:32:34.274Z</time></trkpt><trkpt lat="44.688235" lon="7.8947383"><ele>203.0</ele><time>2026-05-03T16:32:35.274Z</time></trkpt><trkpt lat="44.688365" lon="7.894625"><ele>203.0</ele><time>2026-05-03T16:32:36.274Z</time></trkpt><trkpt lat="44.6885033" lon="7.894515"><ele>203.0</ele><time>2026-05-03T16:32:37.274Z</time></trkpt><trkpt lat="44.6886383" lon="7.8943933"><ele>203.0</ele><time>2026-05-03T16:32:38.274Z</time></trkpt><trkpt lat="44.6887683" lon="7.894285"><ele>203.66666666666669</ele><time>2026-05-03T16:32:39.274Z</time></trkpt><trkpt lat="44.688895" lon="7.8941717"><ele>204.33333333333331</ele><time>2026-05-03T16:32:40.274Z</time></trkpt><trkpt lat="44.689025" lon="7.8940683"><ele>205.0</ele><time>2026-05-03T16:32:41.274Z</time></trkpt><trkpt lat="44.6891583" lon="7.89396"><ele>205.0</ele><time>2026-05-03T16:32:42.274Z</time></trkpt><trkpt lat="44.6892833" lon="7.8938567"><ele>205.0</ele><time>2026-05-03T16:32:43.275Z</time></trkpt><trkpt lat="44.6894067" lon="7.89375"><ele>205.0</ele><time>2026-05-03T16:32:44.275Z</time></trkpt><trkpt lat="44.68953" lon="7.8936533"><ele>205.0</ele><time>2026-05-03T16:32:45.274Z</time></trkpt><trkpt lat="44.6896467" lon="7.89355"><ele>205.0</ele><time>2026-05-03T16:32:46.274Z</time></trkpt><trkpt lat="44.6897633" lon="7.8934533"><ele>205.0</ele><time>2026-05-03T16:32:47.274Z</time></trkpt><trkpt lat="44.6898717" lon="7.893355"><ele>205.0</ele><time>2026-05-03T16:32:48.274Z</time></trkpt><trkpt lat="44.689985" lon="7.8932633"><ele>205.0</ele><time>2026-05-03T16:32:49.274Z</time></trkpt><trkpt lat="44.69009" lon="7.8931733"><ele>205.0</ele><time>2026-05-03T16:32:50.274Z</time></trkpt><trkpt lat="44.6901883" lon="7.893095"><ele>205.0</ele><time>2026-05-03T16:32:51.274Z</time></trkpt><trkpt lat="44.6902867" lon="7.893005"><ele>205.0</ele><time>2026-05-03T16:32:52.274Z</time></trkpt><trkpt lat="44.6903917" lon="7.8929217"><ele>205.0</ele><time>2026-05-03T16:32:53.274Z</time></trkpt><trkpt lat="44.690495" lon="7.8928383"><ele>205.4</ele><time>2026-05-03T16:32:54.274Z</time></trkpt><trkpt lat="44.690595" lon="7.89276"><ele>205.8</ele><time>2026-05-03T16:32:55.274Z</time></trkpt><trkpt lat="44.6906817" lon="7.892685"><ele>206.2</ele><time>2026-05-03T16:32:56.274Z</time></trkpt><trkpt lat="44.6907833" lon="7.892605"><ele>206.6</ele><time>2026-05-03T16:32:57.274Z</time></trkpt><trkpt lat="44.6908833" lon="7.8925233"><ele>207.0</ele><time>2026-05-03T16:32:58.274Z</time></trkpt><trkpt lat="44.6909917" lon="7.892425"><ele>206.75</ele><time>2026-05-03T16:32:59.274Z</time></trkpt><trkpt lat="44.6910967" lon="7.8923333"><ele>206.5</ele><time>2026-05-03T16:33:00.274Z</time></trkpt><trkpt lat="44.6911983" lon="7.8922483"><ele>206.25</ele><time>2026-05-03T16:33:01.274Z</time></trkpt><trkpt lat="44.6912983" lon="7.8921633"><ele>206.0</ele><time>2026-05-03T16:33:02.274Z</time></trkpt><trkpt lat="44.6914" lon="7.8920783"><ele>206.0</ele><time>2026-05-03T16:33:03.275Z</time></trkpt><trkpt lat="44.6915067" lon="7.8919883"><ele>206.0</ele><time>2026-05-03T16:33:04.274Z</time></trkpt><trkpt lat="44.6916183" lon="7.89189"><ele>206.0</ele><time>2026-05-03T16:33:05.274Z</time></trkpt><trkpt lat="44.69173" lon="7.8918017"><ele>206.0</ele><time>2026-05-03T16:33:06.274Z</time></trkpt><trkpt lat="44.6918417" lon="7.8917067"><ele>206.33333333333334</ele><time>2026-05-03T16:33:07.274Z</time></trkpt><trkpt lat="44.6919583" lon="7.8915933"><ele>206.66666666666669</ele><time>2026-05-03T16:33:08.274Z</time></trkpt><trkpt lat="44.6920917" lon="7.89147"><ele>207.0</ele><time>2026-05-03T16:33:09.274Z</time></trkpt><trkpt lat="44.6922367" lon="7.8913417"><ele>207.0</ele><time>2026-05-03T16:33:10.274Z</time></trkpt><trkpt lat="44.692395" lon="7.8912133"><ele>207.0</ele><time>2026-05-03T16:33:11.274Z</time></trkpt><trkpt lat="44.6925583" lon="7.8910817"><ele>207.0</ele><time>2026-05-03T16:33:12.274Z</time></trkpt><trkpt lat="44.6927217" lon="7.89095"><ele>207.66666666666669</ele><time>2026-05-03T16:33:13.274Z</time></trkpt><trkpt lat="44.6928883" lon="7.89082"><ele>208.33333333333334</ele><time>2026-05-03T16:33:14.274Z</time></trkpt><trkpt lat="44.6930567" lon="7.8906817"><ele>209.0</ele><time>2026-05-03T16:33:15.275Z</time></trkpt><trkpt lat="44.693235" lon="7.8905283"><ele>209.0</ele><time>2026-05-03T16:33:16.275Z</time></trkpt><trkpt lat="44.693405" lon="7.89037"><ele>209.0</ele><time>2026-05-03T16:33:17.274Z</time></trkpt><trkpt lat="44.6935867" lon="7.8902167"><ele>209.0</ele><time>2026-05-03T16:33:18.274Z</time></trkpt><trkpt lat="44.6937717" lon="7.8900667"><ele>210.33333333333334</ele><time>2026-05-03T16:33:19.274Z</time></trkpt><trkpt lat="44.69396" lon="7.8899133"><ele>211.66666666666669</ele><time>2026-05-03T16:33:20.274Z</time></trkpt><trkpt lat="44.694145" lon="7.8897683"><ele>213.0</ele><time>2026-05-03T16:33:21.275Z</time></trkpt><trkpt lat="44.6943283" lon="7.8896217"><ele>212.66666666666669</ele><time>2026-05-03T16:33:22.274Z</time></trkpt><trkpt lat="44.694515" lon="7.889475"><ele>212.33333333333334</ele><time>2026-05-03T16:33:23.274Z</time></trkpt><trkpt lat="44.6946933" lon="7.8893217"><ele>212.0</ele><time>2026-05-03T16:33:24.274Z</time></trkpt><trkpt lat="44.694875" lon="7.889175"><ele>212.0</ele><time>2026-05-03T16:33:25.275Z</time></trkpt><trkpt lat="44.69505" lon="7.889025"><ele>212.0</ele><time>2026-05-03T16:33:26.274Z</time></trkpt><trkpt lat="44.6952167" lon="7.8888833"><ele>212.0</ele><time>2026-05-03T16:33:27.274Z</time></trkpt><trkpt lat="44.695375" lon="7.888745"><ele>213.33333333333334</ele><time>2026-05-03T16:33:28.274Z</time></trkpt><trkpt lat="44.6955283" lon="7.8886183"><ele>214.66666666666669</ele><time>2026-05-03T16:33:29.274Z</time></trkpt><trkpt lat="44.695675" lon="7.8884917"><ele>216.0</ele><time>2026-05-03T16:33:30.274Z</time></trkpt><trkpt lat="44.6958183" lon="7.8883667"><ele>216.0</ele><time>2026-05-03T16:33:31.274Z</time></trkpt><trkpt lat="44.6959567" lon="7.8882533"><ele>216.0</ele><time>2026-05-03T16:33:32.275Z</time></trkpt><trkpt lat="44.6960783" lon="7.888155"><ele>216.0</ele><time>2026-05-03T16:33:33.274Z</time></trkpt><trkpt lat="44.6961867" lon="7.8880617"><ele>216.0</ele><time>2026-05-03T16:33:34.274Z</time></trkpt><trkpt lat="44.696295" lon="7.887975"><ele>216.20000000000002</ele><time>2026-05-03T16:33:35.274Z</time></trkpt><trkpt lat="44.6963933" lon="7.8878883"><ele>216.40000000000003</ele><time>2026-05-03T16:33:36.274Z</time></trkpt><trkpt lat="44.69648" lon="7.8878133"><ele>216.6</ele><time>2026-05-03T16:33:37.274Z</time></trkpt><trkpt lat="44.696555" lon="7.8877533"><ele>216.8</ele><time>2026-05-03T16:33:38.274Z</time></trkpt><trkpt lat="44.69662" lon="7.8877033"><ele>217.0</ele><time>2026-05-03T16:33:39.274Z</time></trkpt><trkpt lat="44.6966883" lon="7.8876433"><ele>216.99999999999997</ele><time>2026-05-03T16:33:40.274Z</time></trkpt><trkpt lat="44.696745" lon="7.887585"><ele>217.0</ele><time>2026-05-03T16:33:41.275Z</time></trkpt><trkpt lat="44.696805" lon="7.8875283"><ele>217.0</ele><time>2026-05-03T16:33:42.274Z</time></trkpt><trkpt lat="44.6968617" lon="7.887475"><ele>217.0</ele><time>2026-05-03T16:33:43.274Z</time></trkpt><trkpt lat="44.696955" lon="7.8874067"><ele>216.99999999999997</ele><time>2026-05-03T16:33:45.274Z</time></trkpt><trkpt lat="44.697015" lon="7.88736"><ele>217.0</ele><time>2026-05-03T16:33:48.274Z</time></trkpt><trkpt lat="44.6970867" lon="7.8873033"><ele>217.39999999999998</ele><time>2026-05-03T16:33:51.274Z</time></trkpt><trkpt lat="44.697205" lon="7.88728"><ele>217.79999999999998</ele><time>2026-05-03T16:33:53.274Z</time></trkpt><trkpt lat="44.6972917" lon="7.8872733"><ele>218.2</ele><time>2026-05-03T16:33:54.274Z</time></trkpt><trkpt lat="44.69739" lon="7.8872467"><ele>218.6</ele><time>2026-05-03T16:33:55.274Z</time></trkpt><trkpt lat="44.6975067" lon="7.887205"><ele>219.0</ele><time>2026-05-03T16:33:56.274Z</time></trkpt><trkpt lat="44.6976317" lon="7.8871483"><ele>218.75</ele><time>2026-05-03T16:33:57.274Z</time></trkpt><trkpt lat="44.69776" lon="7.8871"><ele>218.5</ele><time>2026-05-03T16:33:58.274Z</time></trkpt><trkpt lat="44.6979" lon="7.887055"><ele>218.25</ele><time>2026-05-03T16:33:59.274Z</time></trkpt><trkpt lat="44.6980517" lon="7.8870183"><ele>218.0</ele><time>2026-05-03T16:34:00.274Z</time></trkpt><trkpt lat="44.6982083" lon="7.8869583"><ele>218.0</ele><time>2026-05-03T16:34:01.275Z</time></trkpt><trkpt lat="44.698365" lon="7.8868683"><ele>218.0</ele><time>2026-05-03T16:34:02.274Z</time></trkpt><trkpt lat="44.69851" lon="7.8867767"><ele>218.0</ele><time>2026-05-03T16:34:03.274Z</time></trkpt><trkpt lat="44.6986483" lon="7.8866767"><ele>218.66666666666669</ele><time>2026-05-03T16:34:04.274Z</time></trkpt><trkpt lat="44.6987917" lon="7.8865767"><ele>219.33333333333331</ele><time>2026-05-03T16:34:05.275Z</time></trkpt><trkpt lat="44.69894" lon="7.8864617"><ele>220.0</ele><time>2026-05-03T16:34:06.274Z</time></trkpt><trkpt lat="44.69909" lon="7.8863567"><ele>220.0</ele><time>2026-05-03T16:34:07.274Z</time></trkpt><trkpt lat="44.69924" lon="7.8862567"><ele>220.0</ele><time>2026-05-03T16:34:08.274Z</time></trkpt><trkpt lat="44.6994017" lon="7.8861567"><ele>220.0</ele><time>2026-05-03T16:34:09.275Z</time></trkpt><trkpt lat="44.69956" lon="7.88605"><ele>220.25</ele><time>2026-05-03T16:34:10.274Z</time></trkpt><trkpt lat="44.6997" lon="7.8859717"><ele>220.5</ele><time>2026-05-03T16:34:11.274Z</time></trkpt><trkpt lat="44.6998283" lon="7.8859117"><ele>220.75</ele><time>2026-05-03T16:34:12.274Z</time></trkpt><trkpt lat="44.6999617" lon="7.885845"><ele>221.0</ele><time>2026-05-03T16:34:13.274Z</time></trkpt><trkpt lat="44.7000867" lon="7.8858083"><ele>221.20000000000002</ele><time>2026-05-03T16:34:14.274Z</time></trkpt><trkpt lat="44.7001967" lon="7.885795"><ele>221.40000000000003</ele><time>2026-05-03T16:34:15.274Z</time></trkpt><trkpt lat="44.700285" lon="7.88579"><ele>221.6</ele><time>2026-05-03T16:34:16.274Z</time></trkpt><trkpt lat="44.700365" lon="7.885785"><ele>221.8</ele><time>2026-05-03T16:34:17.274Z</time></trkpt><trkpt lat="44.7004317" lon="7.8857567"><ele>222.0</ele><time>2026-05-03T16:34:18.274Z</time></trkpt><trkpt lat="44.70052" lon="7.88563"><ele>222.2</ele><time>2026-05-03T16:34:20.274Z</time></trkpt><trkpt lat="44.7005633" lon="7.8855317"><ele>222.39999999999998</ele><time>2026-05-03T16:34:21.274Z</time></trkpt><trkpt lat="44.7006183" lon="7.8854333"><ele>222.60000000000002</ele><time>2026-05-03T16:34:22.274Z</time></trkpt><trkpt lat="44.7006933" lon="7.8853383"><ele>222.8</ele><time>2026-05-03T16:34:23.274Z</time></trkpt><trkpt lat="44.7007817" lon="7.8852167"><ele>223.0</ele><time>2026-05-03T16:34:24.274Z</time></trkpt><trkpt lat="44.7008833" lon="7.8850867"><ele>223.0</ele><time>2026-05-03T16:34:25.274Z</time></trkpt><trkpt lat="44.7009967" lon="7.88495"><ele>223.0</ele><time>2026-05-03T16:34:26.274Z</time></trkpt><trkpt lat="44.7011117" lon="7.8848117"><ele>223.0</ele><time>2026-05-03T16:34:27.274Z</time></trkpt><trkpt lat="44.7012317" lon="7.8846583"><ele>223.0</ele><time>2026-05-03T16:34:28.274Z</time></trkpt><trkpt lat="44.70136" lon="7.8844983"><ele>223.0</ele><time>2026-05-03T16:34:29.274Z</time></trkpt><trkpt lat="44.7014783" lon="7.8843467"><ele>223.0</ele><time>2026-05-03T16:34:30.274Z</time></trkpt><trkpt lat="44.7016017" lon="7.8841917"><ele>223.33333333333331</ele><time>2026-05-03T16:34:31.275Z</time></trkpt><trkpt lat="44.701725" lon="7.88404"><ele>223.66666666666669</ele><time>2026-05-03T16:34:32.274Z</time></trkpt><trkpt lat="44.7018383" lon="7.8838933"><ele>224.0</ele><time>2026-05-03T16:34:33.274Z</time></trkpt><trkpt lat="44.7019517" lon="7.88375"><ele>224.0</ele><time>2026-05-03T16:34:34.275Z</time></trkpt><trkpt lat="44.702065" lon="7.88361"><ele>224.0</ele><time>2026-05-03T16:34:35.274Z</time></trkpt><trkpt lat="44.702185" lon="7.8834583"><ele>224.0</ele><time>2026-05-03T16:34:36.274Z</time></trkpt><trkpt lat="44.7023" lon="7.88331"><ele>224.66666666666669</ele><time>2026-05-03T16:34:37.274Z</time></trkpt><trkpt lat="44.70241" lon="7.8831717"><ele>225.33333333333331</ele><time>2026-05-03T16:34:38.274Z</time></trkpt><trkpt lat="44.7025283" lon="7.88303"><ele>226.0</ele><time>2026-05-03T16:34:39.274Z</time></trkpt><trkpt lat="44.7026433" lon="7.882895"><ele>225.66666666666666</ele><time>2026-05-03T16:34:40.275Z</time></trkpt><trkpt lat="44.7027533" lon="7.882755"><ele>225.33333333333331</ele><time>2026-05-03T16:34:41.274Z</time></trkpt><trkpt lat="44.7028683" lon="7.8826117"><ele>225.0</ele><time>2026-05-03T16:34:42.274Z</time></trkpt><trkpt lat="44.7029817" lon="7.88246"><ele>225.66666666666669</ele><time>2026-05-03T16:34:43.274Z</time></trkpt><trkpt lat="44.7030967" lon="7.8823067"><ele>226.33333333333334</ele><time>2026-05-03T16:34:44.274Z</time></trkpt><trkpt lat="44.7032217" lon="7.8821517"><ele>227.0</ele><time>2026-05-03T16:34:45.274Z</time></trkpt><trkpt lat="44.70334" lon="7.8820133"><ele>227.0</ele><time>2026-05-03T16:34:46.274Z</time></trkpt><trkpt lat="44.7034683" lon="7.8818667"><ele>227.0</ele><time>2026-05-03T16:34:47.274Z</time></trkpt><trkpt lat="44.7036" lon="7.8817333"><ele>227.0</ele><time>2026-05-03T16:34:48.274Z</time></trkpt><trkpt lat="44.7037417" lon="7.8816183"><ele>227.66666666666669</ele><time>2026-05-03T16:34:49.274Z</time></trkpt><trkpt lat="44.7038817" lon="7.8815017"><ele>228.33333333333331</ele><time>2026-05-03T16:34:50.274Z</time></trkpt><trkpt lat="44.7040333" lon="7.8813933"><ele>229.0</ele><time>2026-05-03T16:34:51.275Z</time></trkpt><trkpt lat="44.7041833" lon="7.8812933"><ele>229.0</ele><time>2026-05-03T16:34:52.275Z</time></trkpt><trkpt lat="44.70434" lon="7.8811833"><ele>229.0</ele><time>2026-05-03T16:34:53.274Z</time></trkpt><trkpt lat="44.7044933" lon="7.88106"><ele>229.0</ele><time>2026-05-03T16:34:54.275Z</time></trkpt><trkpt lat="44.7046567" lon="7.88092"><ele>230.0</ele><time>2026-05-03T16:34:55.274Z</time></trkpt><trkpt lat="44.7048167" lon="7.8807683"><ele>231.0</ele><time>2026-05-03T16:34:56.274Z</time></trkpt><trkpt lat="44.70497" lon="7.880615"><ele>232.0</ele><time>2026-05-03T16:34:57.274Z</time></trkpt><trkpt lat="44.7051267" lon="7.8804567"><ele>231.66666666666666</ele><time>2026-05-03T16:34:58.274Z</time></trkpt><trkpt lat="44.7052883" lon="7.8803067"><ele>231.33333333333331</ele><time>2026-05-03T16:34:59.274Z</time></trkpt><trkpt lat="44.7054567" lon="7.8801467"><ele>231.0</ele><time>2026-05-03T16:35:00.274Z</time></trkpt><trkpt lat="44.7056233" lon="7.87999"><ele>230.66666666666669</ele><time>2026-05-03T16:35:01.275Z</time></trkpt><trkpt lat="44.7057917" lon="7.87983"><ele>230.33333333333334</ele><time>2026-05-03T16:35:02.274Z</time></trkpt><trkpt lat="44.7059467" lon="7.8796783"><ele>230.0</ele><time>2026-05-03T16:35:03.274Z</time></trkpt><trkpt lat="44.706105" lon="7.8795317"><ele>231.33333333333334</ele><time>2026-05-03T16:35:04.274Z</time></trkpt><trkpt lat="44.7062433" lon="7.8794033"><ele>232.66666666666669</ele><time>2026-05-03T16:35:05.274Z</time></trkpt><trkpt lat="44.7063767" lon="7.8792967"><ele>234.0</ele><time>2026-05-03T16:35:06.274Z</time></trkpt><trkpt lat="44.70652" lon="7.8792183"><ele>234.25</ele><time>2026-05-03T16:35:07.274Z</time></trkpt><trkpt lat="44.7066517" lon="7.8791933"><ele>234.5</ele><time>2026-05-03T16:35:08.274Z</time></trkpt><trkpt lat="44.7067883" lon="7.8791983"><ele>234.75</ele><time>2026-05-03T16:35:09.274Z</time></trkpt><trkpt lat="44.7069067" lon="7.87925"><ele>235.0</ele><time>2026-05-03T16:35:10.274Z</time></trkpt><trkpt lat="44.7070367" lon="7.8793017"><ele>235.25</ele><time>2026-05-03T16:35:11.274Z</time></trkpt><trkpt lat="44.7071733" lon="7.8793467"><ele>235.5</ele><time>2026-05-03T16:35:12.274Z</time></trkpt><trkpt lat="44.70732" lon="7.8793667"><ele>235.75</ele><time>2026-05-03T16:35:13.274Z</time></trkpt><trkpt lat="44.707475" lon="7.8793683"><ele>236.0</ele><time>2026-05-03T16:35:14.275Z</time></trkpt><trkpt lat="44.7076367" lon="7.87933"><ele>236.66666666666669</ele><time>2026-05-03T16:35:15.274Z</time></trkpt><trkpt lat="44.7078083" lon="7.8792733"><ele>237.33333333333331</ele><time>2026-05-03T16:35:16.274Z</time></trkpt><trkpt lat="44.7079733" lon="7.8791933"><ele>238.0</ele><time>2026-05-03T16:35:17.274Z</time></trkpt><trkpt lat="44.7081383" lon="7.87911"><ele>239.33333333333331</ele><time>2026-05-03T16:35:18.274Z</time></trkpt><trkpt lat="44.70829" lon="7.879035"><ele>240.66666666666669</ele><time>2026-05-03T16:35:19.274Z</time></trkpt><trkpt lat="44.708445" lon="7.8789617"><ele>242.0</ele><time>2026-05-03T16:35:20.274Z</time></trkpt><trkpt lat="44.7085933" lon="7.8788917"><ele>242.0</ele><time>2026-05-03T16:35:21.274Z</time></trkpt><trkpt lat="44.7087233" lon="7.8787967"><ele>242.0</ele><time>2026-05-03T16:35:22.274Z</time></trkpt><trkpt lat="44.7088483" lon="7.8786683"><ele>242.0</ele><time>2026-05-03T16:35:23.274Z</time></trkpt><trkpt lat="44.7089633" lon="7.8785367"><ele>242.0</ele><time>2026-05-03T16:35:24.274Z</time></trkpt><trkpt lat="44.7090717" lon="7.8784217"><ele>244.0</ele><time>2026-05-03T16:35:25.274Z</time></trkpt><trkpt lat="44.709165" lon="7.87832"><ele>246.0</ele><time>2026-05-03T16:35:26.274Z</time></trkpt><trkpt lat="44.7092417" lon="7.87824"><ele>248.0</ele><time>2026-05-03T16:35:27.275Z</time></trkpt><trkpt lat="44.7093083" lon="7.878165"><ele>250.0</ele><time>2026-05-03T16:35:29.274Z</time></trkpt><trkpt lat="44.7093783" lon="7.8781033"><ele>252.0</ele><time>2026-05-03T16:35:33.274Z</time></trkpt><trkpt lat="44.7094817" lon="7.8780233"><ele>252.0</ele><time>2026-05-03T16:35:35.274Z</time></trkpt><trkpt lat="44.709555" lon="7.8779933"><ele>252.0</ele><time>2026-05-03T16:35:36.274Z</time></trkpt><trkpt lat="44.709645" lon="7.8779833"><ele>252.0</ele><time>2026-05-03T16:35:37.274Z</time></trkpt><trkpt lat="44.7097483" lon="7.8779833"><ele>252.0</ele><time>2026-05-03T16:35:38.274Z</time></trkpt><trkpt lat="44.7098567" lon="7.878005"><ele>252.0</ele><time>2026-05-03T16:35:39.274Z</time></trkpt><trkpt lat="44.709955" lon="7.878035"><ele>252.0</ele><time>2026-05-03T16:35:40.274Z</time></trkpt><trkpt lat="44.710055" lon="7.87806"><ele>252.0</ele><time>2026-05-03T16:35:41.274Z</time></trkpt><trkpt lat="44.710155" lon="7.8781067"><ele>252.0</ele><time>2026-05-03T16:35:42.274Z</time></trkpt><trkpt lat="44.7102617" lon="7.8781583"><ele>252.0</ele><time>2026-05-03T16:35:43.274Z</time></trkpt><trkpt lat="44.7103617" lon="7.8781983"><ele>252.0</ele><time>2026-05-03T16:35:44.274Z</time></trkpt><trkpt lat="44.7104733" lon="7.8782117"><ele>253.0</ele><time>2026-05-03T16:35:45.274Z</time></trkpt><trkpt lat="44.7105783" lon="7.8781883"><ele>254.0</ele><time>2026-05-03T16:35:46.274Z</time></trkpt><trkpt lat="44.7106867" lon="7.8781317"><ele>255.0</ele><time>2026-05-03T16:35:47.274Z</time></trkpt><trkpt lat="44.710795" lon="7.8780533"><ele>256.0</ele><time>2026-05-03T16:35:48.274Z</time></trkpt><trkpt lat="44.7109" lon="7.877975"><ele>256.0</ele><time>2026-05-03T16:35:49.274Z</time></trkpt><trkpt lat="44.7110117" lon="7.8778983"><ele>256.0</ele><time>2026-05-03T16:35:50.275Z</time></trkpt><trkpt lat="44.7111167" lon="7.87783"><ele>256.0</ele><time>2026-05-03T16:35:51.274Z</time></trkpt><trkpt lat="44.7112283" lon="7.8777867"><ele>256.0</ele><time>2026-05-03T16:35:52.274Z</time></trkpt><trkpt lat="44.7113417" lon="7.8777833"><ele>257.25</ele><time>2026-05-03T16:35:53.274Z</time></trkpt><trkpt lat="44.7114567" lon="7.87782"><ele>258.5</ele><time>2026-05-03T16:35:54.275Z</time></trkpt><trkpt lat="44.7115633" lon="7.8779"><ele>259.75</ele><time>2026-05-03T16:35:55.274Z</time></trkpt><trkpt lat="44.7116517" lon="7.8780017"><ele>261.0</ele><time>2026-05-03T16:35:56.275Z</time></trkpt><trkpt lat="44.711735" lon="7.878105"><ele>261.0</ele><time>2026-05-03T16:35:57.275Z</time></trkpt><trkpt lat="44.7118317" lon="7.878195"><ele>261.0</ele><time>2026-05-03T16:35:58.274Z</time></trkpt><trkpt lat="44.7119317" lon="7.878255"><ele>261.0</ele><time>2026-05-03T16:35:59.274Z</time></trkpt><trkpt lat="44.7120383" lon="7.8782867"><ele>261.0</ele><time>2026-05-03T16:36:00.274Z</time></trkpt><trkpt lat="44.712155" lon="7.8782883"><ele>262.6</ele><time>2026-05-03T16:36:01.274Z</time></trkpt><trkpt lat="44.7122667" lon="7.8782717"><ele>264.20000000000005</ele><time>2026-05-03T16:36:02.274Z</time></trkpt><trkpt lat="44.7123767" lon="7.8782533"><ele>265.79999999999995</ele><time>2026-05-03T16:36:03.274Z</time></trkpt><trkpt lat="44.712475" lon="7.8782333"><ele>267.4</ele><time>2026-05-03T16:36:04.274Z</time></trkpt><trkpt lat="44.7125817" lon="7.8782433"><ele>269.0</ele><time>2026-05-03T16:36:05.275Z</time></trkpt><trkpt lat="44.7126817" lon="7.8782883"><ele>270.0</ele><time>2026-05-03T16:36:06.275Z</time></trkpt><trkpt lat="44.7127867" lon="7.8783567"><ele>271.0</ele><time>2026-05-03T16:36:07.274Z</time></trkpt><trkpt lat="44.712865" lon="7.878475"><ele>272.0</ele><time>2026-05-03T16:36:08.275Z</time></trkpt><trkpt lat="44.712925" lon="7.8786083"><ele>273.0</ele><time>2026-05-03T16:36:09.274Z</time></trkpt><trkpt lat="44.7129517" lon="7.87877"><ele>273.0</ele><time>2026-05-03T16:36:10.274Z</time></trkpt><trkpt lat="44.7129833" lon="7.8789383"><ele>273.0</ele><time>2026-05-03T16:36:11.274Z</time></trkpt><trkpt lat="44.71303" lon="7.8790917"><ele>273.0</ele><time>2026-05-03T16:36:12.274Z</time></trkpt><trkpt lat="44.713105" lon="7.8792233"><ele>273.0</ele><time>2026-05-03T16:36:13.275Z</time></trkpt><trkpt lat="44.713195" lon="7.87933"><ele>274.5</ele><time>2026-05-03T16:36:14.275Z</time></trkpt><trkpt lat="44.7133083" lon="7.87939"><ele>276.0</ele><time>2026-05-03T16:36:15.274Z</time></trkpt><trkpt lat="44.71343" lon="7.879435"><ele>277.5</ele><time>2026-05-03T16:36:16.274Z</time></trkpt><trkpt lat="44.7135567" lon="7.879465"><ele>279.0</ele><time>2026-05-03T16:36:17.274Z</time></trkpt><trkpt lat="44.7136817" lon="7.8795033"><ele>279.0</ele><time>2026-05-03T16:36:18.274Z</time></trkpt><trkpt lat="44.7138" lon="7.8795817"><ele>279.0</ele><time>2026-05-03T16:36:19.274Z</time></trkpt><trkpt lat="44.7138933" lon="7.87969"><ele>279.0</ele><time>2026-05-03T16:36:20.274Z</time></trkpt><trkpt lat="44.7139683" lon="7.8798383"><ele>279.0</ele><time>2026-05-03T16:36:21.274Z</time></trkpt><trkpt lat="44.7140367" lon="7.8799983"><ele>277.25</ele><time>2026-05-03T16:36:22.274Z</time></trkpt><trkpt lat="44.7140983" lon="7.8801633"><ele>275.5</ele><time>2026-05-03T16:36:23.274Z</time></trkpt><trkpt lat="44.7141633" lon="7.8803383"><ele>273.75</ele><time>2026-05-03T16:36:24.274Z</time></trkpt><trkpt lat="44.7142267" lon="7.88052"><ele>272.0</ele><time>2026-05-03T16:36:25.274Z</time></trkpt><trkpt lat="44.71428" lon="7.8806983"><ele>272.0</ele><time>2026-05-03T16:36:26.274Z</time></trkpt><trkpt lat="44.7143217" lon="7.8808783"><ele>272.0</ele><time>2026-05-03T16:36:27.274Z</time></trkpt><trkpt lat="44.7143367" lon="7.88107"><ele>272.0</ele><time>2026-05-03T16:36:28.274Z</time></trkpt><trkpt lat="44.7143383" lon="7.881255"><ele>272.0</ele><time>2026-05-03T16:36:29.274Z</time></trkpt><trkpt lat="44.7143467" lon="7.8814433"><ele>271.25</ele><time>2026-05-03T16:36:30.274Z</time></trkpt><trkpt lat="44.7143633" lon="7.881635"><ele>270.5</ele><time>2026-05-03T16:36:31.275Z</time></trkpt><trkpt lat="44.71441" lon="7.8818117"><ele>269.75</ele><time>2026-05-03T16:36:32.274Z</time></trkpt><trkpt lat="44.7144933" lon="7.8819833"><ele>269.0</ele><time>2026-05-03T16:36:33.274Z</time></trkpt><trkpt lat="44.7145917" lon="7.8821567"><ele>272.33333333333337</ele><time>2026-05-03T16:36:34.274Z</time></trkpt><trkpt lat="44.714725" lon="7.8823433"><ele>275.6666666666667</ele><time>2026-05-03T16:36:35.275Z</time></trkpt><trkpt lat="44.714855" lon="7.8825267"><ele>279.0</ele><time>2026-05-03T16:36:36.274Z</time></trkpt><trkpt lat="44.7149817" lon="7.8827217"><ele>279.0</ele><time>2026-05-03T16:36:37.275Z</time></trkpt><trkpt lat="44.7151" lon="7.8829217"><ele>279.0</ele><time>2026-05-03T16:36:38.274Z</time></trkpt><trkpt lat="44.7152167" lon="7.8831167"><ele>279.0</ele><time>2026-05-03T16:36:39.275Z</time></trkpt><trkpt lat="44.7153283" lon="7.8832883"><ele>281.25</ele><time>2026-05-03T16:36:40.274Z</time></trkpt><trkpt lat="44.7154333" lon="7.883445"><ele>283.5</ele><time>2026-05-03T16:36:41.274Z</time></trkpt><trkpt lat="44.7155433" lon="7.8835867"><ele>285.75</ele><time>2026-05-03T16:36:42.275Z</time></trkpt><trkpt lat="44.7156417" lon="7.8837383"><ele>288.0</ele><time>2026-05-03T16:36:43.274Z</time></trkpt><trkpt lat="44.7157233" lon="7.8838983"><ele>288.0</ele><time>2026-05-03T16:36:44.275Z</time></trkpt><trkpt lat="44.71578" lon="7.8840783"><ele>288.0</ele><time>2026-05-03T16:36:45.274Z</time></trkpt><trkpt lat="44.715805" lon="7.8842817"><ele>288.0</ele><time>2026-05-03T16:36:46.274Z</time></trkpt><trkpt lat="44.7157917" lon="7.8844717"><ele>288.0</ele><time>2026-05-03T16:36:47.274Z</time></trkpt><trkpt lat="44.7157417" lon="7.88465"><ele>290.75</ele><time>2026-05-03T16:36:48.274Z</time></trkpt><trkpt lat="44.7156683" lon="7.884815"><ele>293.5</ele><time>2026-05-03T16:36:49.274Z</time></trkpt><trkpt lat="44.71559" lon="7.88496"><ele>296.25</ele><time>2026-05-03T16:36:50.274Z</time></trkpt><trkpt lat="44.71551" lon="7.8851"><ele>299.0</ele><time>2026-05-03T16:36:51.274Z</time></trkpt><trkpt lat="44.715425" lon="7.8852417"><ele>298.25</ele><time>2026-05-03T16:36:52.274Z</time></trkpt><trkpt lat="44.7153467" lon="7.8853967"><ele>297.5</ele><time>2026-05-03T16:36:53.274Z</time></trkpt><trkpt lat="44.7152567" lon="7.8855483"><ele>296.75</ele><time>2026-05-03T16:36:54.274Z</time></trkpt><trkpt lat="44.715155" lon="7.885675"><ele>296.0</ele><time>2026-05-03T16:36:55.274Z</time></trkpt><trkpt lat="44.7150467" lon="7.885785"><ele>296.0</ele><time>2026-05-03T16:36:56.274Z</time></trkpt><trkpt lat="44.7149283" lon="7.88589"><ele>296.0</ele><time>2026-05-03T16:36:57.274Z</time></trkpt><trkpt lat="44.714815" lon="7.88599"><ele>296.0</ele><time>2026-05-03T16:36:58.274Z</time></trkpt><trkpt lat="44.7147" lon="7.88608"><ele>296.0</ele><time>2026-05-03T16:36:59.274Z</time></trkpt><trkpt lat="44.714585" lon="7.8861667"><ele>296.5</ele><time>2026-05-03T16:37:00.274Z</time></trkpt><trkpt lat="44.7144667" lon="7.88626"><ele>297.0</ele><time>2026-05-03T16:37:01.274Z</time></trkpt><trkpt lat="44.7143533" lon="7.8863617"><ele>297.5</ele><time>2026-05-03T16:37:02.274Z</time></trkpt><trkpt lat="44.714235" lon="7.88648"><ele>298.0</ele><time>2026-05-03T16:37:03.274Z</time></trkpt><trkpt lat="44.7141383" lon="7.88664"><ele>299.75</ele><time>2026-05-03T16:37:04.274Z</time></trkpt><trkpt lat="44.7140533" lon="7.8868033"><ele>301.5</ele><time>2026-05-03T16:37:05.275Z</time></trkpt><trkpt lat="44.71397" lon="7.8869767"><ele>303.25</ele><time>2026-05-03T16:37:06.274Z</time></trkpt><trkpt lat="44.7138917" lon="7.887145"><ele>305.0</ele><time>2026-05-03T16:37:07.275Z</time></trkpt><trkpt lat="44.7138167" lon="7.8873017"><ele>305.0</ele><time>2026-05-03T16:37:08.274Z</time></trkpt><trkpt lat="44.71374" lon="7.887475"><ele>305.0</ele><time>2026-05-03T16:37:09.274Z</time></trkpt><trkpt lat="44.7136617" lon="7.88764"><ele>305.0</ele><time>2026-05-03T16:37:10.274Z</time></trkpt><trkpt lat="44.7135833" lon="7.8877967"><ele>305.0</ele><time>2026-05-03T16:37:11.274Z</time></trkpt><trkpt lat="44.713505" lon="7.887955"><ele>302.5</ele><time>2026-05-03T16:37:12.274Z</time></trkpt><trkpt lat="44.71343" lon="7.8881067"><ele>300.0</ele><time>2026-05-03T16:37:13.274Z</time></trkpt><trkpt lat="44.7133633" lon="7.8882667"><ele>297.5</ele><time>2026-05-03T16:37:14.275Z</time></trkpt><trkpt lat="44.7133117" lon="7.8884467"><ele>295.0</ele><time>2026-05-03T16:37:15.274Z</time></trkpt><trkpt lat="44.7132917" lon="7.88862"><ele>295.0</ele><time>2026-05-03T16:37:16.274Z</time></trkpt><trkpt lat="44.7133083" lon="7.88878"><ele>295.0</ele><time>2026-05-03T16:37:17.275Z</time></trkpt><trkpt lat="44.713355" lon="7.88893"><ele>295.0</ele><time>2026-05-03T16:37:18.274Z</time></trkpt><trkpt lat="44.7134367" lon="7.88906"><ele>295.0</ele><time>2026-05-03T16:37:19.274Z</time></trkpt><trkpt lat="44.7135267" lon="7.8891667"><ele>296.5</ele><time>2026-05-03T16:37:20.274Z</time></trkpt><trkpt lat="44.7136383" lon="7.889235"><ele>298.0</ele><time>2026-05-03T16:37:21.274Z</time></trkpt><trkpt lat="44.713755" lon="7.88929"><ele>299.5</ele><time>2026-05-03T16:37:22.274Z</time></trkpt><trkpt lat="44.7138767" lon="7.8893467"><ele>301.0</ele><time>2026-05-03T16:37:23.274Z</time></trkpt><trkpt lat="44.7139883" lon="7.88943"><ele>301.0</ele><time>2026-05-03T16:37:24.274Z</time></trkpt><trkpt lat="44.7140817" lon="7.8895433"><ele>301.0</ele><time>2026-05-03T16:37:25.274Z</time></trkpt><trkpt lat="44.7141517" lon="7.8896933"><ele>301.0</ele><time>2026-05-03T16:37:26.274Z</time></trkpt><trkpt lat="44.714195" lon="7.8898667"><ele>301.0</ele><time>2026-05-03T16:37:27.274Z</time></trkpt><trkpt lat="44.7142267" lon="7.8900517"><ele>300.0</ele><time>2026-05-03T16:37:28.274Z</time></trkpt><trkpt lat="44.7142433" lon="7.8902217"><ele>299.0</ele><time>2026-05-03T16:37:29.274Z</time></trkpt><trkpt lat="44.7142817" lon="7.89038"><ele>298.0</ele><time>2026-05-03T16:37:30.275Z</time></trkpt><trkpt lat="44.714315" lon="7.89054"><ele>297.0</ele><time>2026-05-03T16:37:31.274Z</time></trkpt><trkpt lat="44.7143567" lon="7.8906883"><ele>300.0</ele><time>2026-05-03T16:37:32.274Z</time></trkpt><trkpt lat="44.714405" lon="7.8908233"><ele>303.0</ele><time>2026-05-03T16:37:33.274Z</time></trkpt><trkpt lat="44.7144583" lon="7.890955"><ele>306.0</ele><time>2026-05-03T16:37:34.274Z</time></trkpt><trkpt lat="44.7145233" lon="7.8910817"><ele>309.0</ele><time>2026-05-03T16:37:35.274Z</time></trkpt><trkpt lat="44.7146" lon="7.8912117"><ele>312.0</ele><time>2026-05-03T16:37:36.274Z</time></trkpt><trkpt lat="44.7146817" lon="7.8913383"><ele>312.0</ele><time>2026-05-03T16:37:37.274Z</time></trkpt><trkpt lat="44.714795" lon="7.8914567"><ele>312.0</ele><time>2026-05-03T16:37:38.274Z</time></trkpt><trkpt lat="44.7149367" lon="7.89157"><ele>312.0</ele><time>2026-05-03T16:37:39.274Z</time></trkpt><trkpt lat="44.7150817" lon="7.891675"><ele>312.3333333333333</ele><time>2026-05-03T16:37:40.275Z</time></trkpt><trkpt lat="44.71525" lon="7.8917817"><ele>312.66666666666663</ele><time>2026-05-03T16:37:41.274Z</time></trkpt><trkpt lat="44.7154233" lon="7.8918833"><ele>313.0</ele><time>2026-05-03T16:37:42.274Z</time></trkpt><trkpt lat="44.715605" lon="7.8919817"><ele>313.0</ele><time>2026-05-03T16:37:43.274Z</time></trkpt><trkpt lat="44.7157817" lon="7.892075"><ele>313.0</ele><time>2026-05-03T16:37:44.274Z</time></trkpt><trkpt lat="44.71595" lon="7.8922117"><ele>313.0</ele><time>2026-05-03T16:37:45.274Z</time></trkpt><trkpt lat="44.7161083" lon="7.8923533"><ele>313.3333333333333</ele><time>2026-05-03T16:37:46.274Z</time></trkpt><trkpt lat="44.7162633" lon="7.89251"><ele>313.6666666666667</ele><time>2026-05-03T16:37:47.275Z</time></trkpt><trkpt lat="44.7164217" lon="7.8926617"><ele>314.0</ele><time>2026-05-03T16:37:48.274Z</time></trkpt><trkpt lat="44.7165667" lon="7.892815"><ele>314.0</ele><time>2026-05-03T16:37:49.274Z</time></trkpt><trkpt lat="44.7167083" lon="7.892965"><ele>314.0</ele><time>2026-05-03T16:37:50.274Z</time></trkpt><trkpt lat="44.7168467" lon="7.89311"><ele>314.0</ele><time>2026-05-03T16:37:51.274Z</time></trkpt><trkpt lat="44.7169817" lon="7.8932583"><ele>313.5</ele><time>2026-05-03T16:37:52.275Z</time></trkpt><trkpt lat="44.717095" lon="7.8933967"><ele>313.0</ele><time>2026-05-03T16:37:53.274Z</time></trkpt><trkpt lat="44.7171983" lon="7.8935417"><ele>312.5</ele><time>2026-05-03T16:37:54.274Z</time></trkpt><trkpt lat="44.7172817" lon="7.8936583"><ele>312.0</ele><time>2026-05-03T16:37:55.274Z</time></trkpt><trkpt lat="44.717365" lon="7.8937467"><ele>312.0</ele><time>2026-05-03T16:37:56.274Z</time></trkpt><trkpt lat="44.71744" lon="7.893785"><ele>312.0</ele><time>2026-05-03T16:37:57.274Z</time></trkpt><trkpt lat="44.7175167" lon="7.89379"><ele>312.0</ele><time>2026-05-03T16:37:58.274Z</time></trkpt><trkpt lat="44.7175867" lon="7.8937433"><ele>312.0</ele><time>2026-05-03T16:37:59.274Z</time></trkpt><trkpt lat="44.7176367" lon="7.893655"><ele>312.0</ele><time>2026-05-03T16:38:00.274Z</time></trkpt><trkpt lat="44.717655" lon="7.893545"><ele>312.0</ele><time>2026-05-03T16:38:01.274Z</time></trkpt><trkpt lat="44.7176167" lon="7.893425"><ele>305.0</ele><time>2026-05-03T16:38:02.274Z</time></trkpt><trkpt lat="44.7175283" lon="7.8932983"><ele>298.0</ele><time>2026-05-03T16:38:03.274Z</time></trkpt><trkpt lat="44.7174033" lon="7.8931583"><ele>291.0</ele><time>2026-05-03T16:38:04.274Z</time></trkpt><trkpt lat="44.71724" lon="7.8930183"><ele>291.0</ele><time>2026-05-03T16:38:05.274Z</time></trkpt><trkpt lat="44.71707" lon="7.8928683"><ele>291.0</ele><time>2026-05-03T16:38:06.275Z</time></trkpt><trkpt lat="44.716915" lon="7.8927283"><ele>291.0</ele><time>2026-05-03T16:38:07.274Z</time></trkpt><trkpt lat="44.71677" lon="7.8925767"><ele>290.0</ele><time>2026-05-03T16:38:08.275Z</time></trkpt><trkpt lat="44.716625" lon="7.8924483"><ele>289.0</ele><time>2026-05-03T16:38:09.274Z</time></trkpt><trkpt lat="44.7164983" lon="7.89232"><ele>288.0</ele><time>2026-05-03T16:38:10.274Z</time></trkpt><trkpt lat="44.7163783" lon="7.8921983"><ele>288.0</ele><time>2026-05-03T16:38:11.274Z</time></trkpt><trkpt lat="44.7162567" lon="7.8920783"><ele>288.0</ele><time>2026-05-03T16:38:12.274Z</time></trkpt><trkpt lat="44.7161583" lon="7.8919417"><ele>288.0</ele><time>2026-05-03T16:38:13.274Z</time></trkpt><trkpt lat="44.7160883" lon="7.8917933"><ele>288.0</ele><time>2026-05-03T16:38:14.274Z</time></trkpt><trkpt lat="44.7160483" lon="7.891645"><ele>287.4</ele><time>2026-05-03T16:38:15.274Z</time></trkpt><trkpt lat="44.716055" lon="7.8914983"><ele>286.8</ele><time>2026-05-03T16:38:16.275Z</time></trkpt><trkpt lat="44.7161017" lon="7.891365"><ele>286.2</ele><time>2026-05-03T16:38:17.274Z</time></trkpt><trkpt lat="44.7161883" lon="7.8912717"><ele>285.6</ele><time>2026-05-03T16:38:18.274Z</time></trkpt><trkpt lat="44.7162933" lon="7.8912183"><ele>285.0</ele><time>2026-05-03T16:38:19.274Z</time></trkpt><trkpt lat="44.7164067" lon="7.89121"><ele>285.0</ele><time>2026-05-03T16:38:20.274Z</time></trkpt><trkpt lat="44.716525" lon="7.8912783"><ele>285.0</ele><time>2026-05-03T16:38:21.274Z</time></trkpt><trkpt lat="44.716645" lon="7.8913833"><ele>285.0</ele><time>2026-05-03T16:38:22.274Z</time></trkpt><trkpt lat="44.7167717" lon="7.8914767"><ele>285.0</ele><time>2026-05-03T16:38:23.275Z</time></trkpt><trkpt lat="44.71691" lon="7.8915633"><ele>286.3333333333333</ele><time>2026-05-03T16:38:24.274Z</time></trkpt><trkpt lat="44.7170583" lon="7.8916617"><ele>287.66666666666663</ele><time>2026-05-03T16:38:25.275Z</time></trkpt><trkpt lat="44.71721" lon="7.89176"><ele>289.0</ele><time>2026-05-03T16:38:26.274Z</time></trkpt><trkpt lat="44.7173633" lon="7.8918817"><ele>288.0</ele><time>2026-05-03T16:38:27.274Z</time></trkpt><trkpt lat="44.7175267" lon="7.8920017"><ele>287.0</ele><time>2026-05-03T16:38:28.274Z</time></trkpt><trkpt lat="44.7176983" lon="7.8921367"><ele>286.0</ele><time>2026-05-03T16:38:29.274Z</time></trkpt><trkpt lat="44.71787" lon="7.8922883"><ele>286.0</ele><time>2026-05-03T16:38:30.275Z</time></trkpt><trkpt lat="44.7180333" lon="7.8924433"><ele>286.0</ele><time>2026-05-03T16:38:31.274Z</time></trkpt><trkpt lat="44.7182" lon="7.8925967"><ele>286.0</ele><time>2026-05-03T16:38:32.274Z</time></trkpt><trkpt lat="44.7183683" lon="7.892755"><ele>285.3333333333333</ele><time>2026-05-03T16:38:33.274Z</time></trkpt><trkpt lat="44.71853" lon="7.89293"><ele>284.6666666666667</ele><time>2026-05-03T16:38:34.274Z</time></trkpt><trkpt lat="44.718685" lon="7.8931133"><ele>284.0</ele><time>2026-05-03T16:38:35.274Z</time></trkpt><trkpt lat="44.71883" lon="7.8933233"><ele>282.33333333333337</ele><time>2026-05-03T16:38:36.274Z</time></trkpt><trkpt lat="44.7189717" lon="7.8935517"><ele>280.6666666666667</ele><time>2026-05-03T16:38:37.274Z</time></trkpt><trkpt lat="44.7191033" lon="7.8937883"><ele>279.0</ele><time>2026-05-03T16:38:38.274Z</time></trkpt><trkpt lat="44.7192383" lon="7.8940233"><ele>279.0</ele><time>2026-05-03T16:38:39.275Z</time></trkpt><trkpt lat="44.7193717" lon="7.8942483"><ele>279.0</ele><time>2026-05-03T16:38:40.274Z</time></trkpt><trkpt lat="44.7194967" lon="7.8944667"><ele>279.0</ele><time>2026-05-03T16:38:41.275Z</time></trkpt><trkpt lat="44.7196183" lon="7.8946867"><ele>279.0</ele><time>2026-05-03T16:38:42.274Z</time></trkpt><trkpt lat="44.719735" lon="7.8949133"><ele>279.0</ele><time>2026-05-03T16:38:43.275Z</time></trkpt><trkpt lat="44.71983" lon="7.8951583"><ele>279.0</ele><time>2026-05-03T16:38:44.274Z</time></trkpt><trkpt lat="44.7199217" lon="7.895415"><ele>275.0</ele><time>2026-05-03T16:38:45.274Z</time></trkpt><trkpt lat="44.7200117" lon="7.8956917"><ele>271.0</ele><time>2026-05-03T16:38:46.274Z</time></trkpt><trkpt lat="44.72011" lon="7.895965"><ele>267.0</ele><time>2026-05-03T16:38:47.274Z</time></trkpt><trkpt lat="44.720205" lon="7.8962517"><ele>264.6666666666667</ele><time>2026-05-03T16:38:48.274Z</time></trkpt><trkpt lat="44.7202933" lon="7.89654"><ele>262.33333333333337</ele><time>2026-05-03T16:38:49.274Z</time></trkpt><trkpt lat="44.72039" lon="7.8968267"><ele>260.0</ele><time>2026-05-03T16:38:50.274Z</time></trkpt><trkpt lat="44.7204817" lon="7.8971083"><ele>260.0</ele><time>2026-05-03T16:38:51.274Z</time></trkpt><trkpt lat="44.7205783" lon="7.8973933"><ele>260.0</ele><time>2026-05-03T16:38:52.274Z</time></trkpt><trkpt lat="44.72067" lon="7.8976783"><ele>260.0</ele><time>2026-05-03T16:38:53.275Z</time></trkpt><trkpt lat="44.720765" lon="7.8979583"><ele>259.6666666666667</ele><time>2026-05-03T16:38:54.274Z</time></trkpt><trkpt lat="44.72086" lon="7.8982333"><ele>259.3333333333333</ele><time>2026-05-03T16:38:55.274Z</time></trkpt><trkpt lat="44.7209533" lon="7.8985033"><ele>259.0</ele><time>2026-05-03T16:38:56.275Z</time></trkpt><trkpt lat="44.7210383" lon="7.89876"><ele>260.3333333333333</ele><time>2026-05-03T16:38:57.274Z</time></trkpt><trkpt lat="44.7211217" lon="7.8990117"><ele>261.6666666666667</ele><time>2026-05-03T16:38:58.274Z</time></trkpt><trkpt lat="44.72119" lon="7.899265"><ele>263.0</ele><time>2026-05-03T16:38:59.274Z</time></trkpt><trkpt lat="44.7212533" lon="7.8995117"><ele>263.0</ele><time>2026-05-03T16:39:00.274Z</time></trkpt><trkpt lat="44.7212917" lon="7.8997633"><ele>263.0</ele><time>2026-05-03T16:39:01.275Z</time></trkpt><trkpt lat="44.721305" lon="7.90002"><ele>263.0</ele><time>2026-05-03T16:39:02.274Z</time></trkpt><trkpt lat="44.72131" lon="7.90027"><ele>262.6666666666667</ele><time>2026-05-03T16:39:03.275Z</time></trkpt><trkpt lat="44.7213067" lon="7.900515"><ele>262.3333333333333</ele><time>2026-05-03T16:39:04.274Z</time></trkpt><trkpt lat="44.72132" lon="7.900735"><ele>262.0</ele><time>2026-05-03T16:39:05.274Z</time></trkpt><trkpt lat="44.7213567" lon="7.900965"><ele>261.0</ele><time>2026-05-03T16:39:06.274Z</time></trkpt><trkpt lat="44.7214133" lon="7.901185"><ele>260.0</ele><time>2026-05-03T16:39:07.274Z</time></trkpt><trkpt lat="44.7214867" lon="7.9013833"><ele>259.0</ele><time>2026-05-03T16:39:08.275Z</time></trkpt><trkpt lat="44.721585" lon="7.9015667"><ele>259.0</ele><time>2026-05-03T16:39:09.274Z</time></trkpt><trkpt lat="44.7216867" lon="7.901735"><ele>259.0</ele><time>2026-05-03T16:39:10.275Z</time></trkpt><trkpt lat="44.72181" lon="7.901895"><ele>259.0</ele><time>2026-05-03T16:39:11.275Z</time></trkpt><trkpt lat="44.7219433" lon="7.902045"><ele>258.3333333333333</ele><time>2026-05-03T16:39:12.274Z</time></trkpt><trkpt lat="44.7220717" lon="7.9022017"><ele>257.6666666666667</ele><time>2026-05-03T16:39:13.274Z</time></trkpt><trkpt lat="44.72221" lon="7.902335"><ele>257.0</ele><time>2026-05-03T16:39:14.274Z</time></trkpt><trkpt lat="44.7223467" lon="7.9024633"><ele>257.0</ele><time>2026-05-03T16:39:15.275Z</time></trkpt><trkpt lat="44.7224983" lon="7.9025683"><ele>257.0</ele><time>2026-05-03T16:39:16.275Z</time></trkpt><trkpt lat="44.722655" lon="7.9026583"><ele>257.0</ele><time>2026-05-03T16:39:17.274Z</time></trkpt><trkpt lat="44.7228283" lon="7.9027067"><ele>255.66666666666669</ele><time>2026-05-03T16:39:18.274Z</time></trkpt><trkpt lat="44.7230067" lon="7.9027183"><ele>254.33333333333331</ele><time>2026-05-03T16:39:19.274Z</time></trkpt><trkpt lat="44.723195" lon="7.9027"><ele>253.0</ele><time>2026-05-03T16:39:20.274Z</time></trkpt><trkpt lat="44.7234" lon="7.9026567"><ele>255.33333333333331</ele><time>2026-05-03T16:39:21.275Z</time></trkpt><trkpt lat="44.7236117" lon="7.9025917"><ele>257.6666666666667</ele><time>2026-05-03T16:39:22.275Z</time></trkpt><trkpt lat="44.72383" lon="7.90254"><ele>260.0</ele><time>2026-05-03T16:39:23.274Z</time></trkpt><trkpt lat="44.7240667" lon="7.9024817"><ele>260.0</ele><time>2026-05-03T16:39:24.274Z</time></trkpt><trkpt lat="44.724305" lon="7.9024317"><ele>260.0</ele><time>2026-05-03T16:39:25.274Z</time></trkpt><trkpt lat="44.72455" lon="7.9023817"><ele>260.0</ele><time>2026-05-03T16:39:26.274Z</time></trkpt><trkpt lat="44.724795" lon="7.9023167"><ele>260.0</ele><time>2026-05-03T16:39:27.275Z</time></trkpt><trkpt lat="44.7250367" lon="7.9022583"><ele>263.5</ele><time>2026-05-03T16:39:28.274Z</time></trkpt><trkpt lat="44.72527" lon="7.9021967"><ele>267.0</ele><time>2026-05-03T16:39:29.274Z</time></trkpt><trkpt lat="44.72551" lon="7.9021417"><ele>267.0</ele><time>2026-05-03T16:39:30.274Z</time></trkpt><trkpt lat="44.7257483" lon="7.9020833"><ele>267.0</ele><time>2026-05-03T16:39:31.274Z</time></trkpt><trkpt lat="44.7259883" lon="7.9020233"><ele>268.5</ele><time>2026-05-03T16:39:32.274Z</time></trkpt><trkpt lat="44.7262317" lon="7.90196"><ele>270.0</ele><time>2026-05-03T16:39:33.274Z</time></trkpt><trkpt lat="44.7264717" lon="7.9019067"><ele>270.0</ele><time>2026-05-03T16:39:34.274Z</time></trkpt><trkpt lat="44.7267117" lon="7.9018533"><ele>270.0</ele><time>2026-05-03T16:39:35.275Z</time></trkpt><trkpt lat="44.7269417" lon="7.9018117"><ele>271.0</ele><time>2026-05-03T16:39:36.274Z</time></trkpt><trkpt lat="44.7271517" lon="7.9017567"><ele>272.0</ele><time>2026-05-03T16:39:37.274Z</time></trkpt><trkpt lat="44.7273583" lon="7.9016767"><ele>273.0</ele><time>2026-05-03T16:39:38.274Z</time></trkpt><trkpt lat="44.72755" lon="7.901565"><ele>271.6666666666667</ele><time>2026-05-03T16:39:39.274Z</time></trkpt><trkpt lat="44.72774" lon="7.901435"><ele>270.33333333333337</ele><time>2026-05-03T16:39:40.274Z</time></trkpt><trkpt lat="44.727925" lon="7.9013017"><ele>269.0</ele><time>2026-05-03T16:39:41.274Z</time></trkpt><trkpt lat="44.7281133" lon="7.9012"><ele>269.0</ele><time>2026-05-03T16:39:42.274Z</time></trkpt><trkpt lat="44.7282933" lon="7.9011567"><ele>269.0</ele><time>2026-05-03T16:39:43.274Z</time></trkpt><trkpt lat="44.7284767" lon="7.9011567"><ele>269.0</ele><time>2026-05-03T16:39:44.274Z</time></trkpt><trkpt lat="44.7286517" lon="7.9012117"><ele>270.0</ele><time>2026-05-03T16:39:45.274Z</time></trkpt><trkpt lat="44.72882" lon="7.9012983"><ele>271.0</ele><time>2026-05-03T16:39:46.274Z</time></trkpt><trkpt lat="44.72896" lon="7.90142"><ele>272.0</ele><time>2026-05-03T16:39:47.274Z</time></trkpt><trkpt lat="44.7291233" lon="7.9015433"><ele>272.0</ele><time>2026-05-03T16:39:48.274Z</time></trkpt><trkpt lat="44.7293" lon="7.9016417"><ele>272.0</ele><time>2026-05-03T16:39:49.274Z</time></trkpt><trkpt lat="44.7295017" lon="7.9016967"><ele>272.0</ele><time>2026-05-03T16:39:50.275Z</time></trkpt><trkpt lat="44.7297017" lon="7.9017117"><ele>273.33333333333337</ele><time>2026-05-03T16:39:51.274Z</time></trkpt><trkpt lat="44.7298983" lon="7.90168"><ele>274.6666666666667</ele><time>2026-05-03T16:39:52.274Z</time></trkpt><trkpt lat="44.730105" lon="7.901625"><ele>276.0</ele><time>2026-05-03T16:39:53.274Z</time></trkpt><trkpt lat="44.7303067" lon="7.9015667"><ele>277.3333333333333</ele><time>2026-05-03T16:39:54.274Z</time></trkpt><trkpt lat="44.7305" lon="7.901525"><ele>278.66666666666663</ele><time>2026-05-03T16:39:55.274Z</time></trkpt><trkpt lat="44.73069" lon="7.9015033"><ele>280.0</ele><time>2026-05-03T16:39:56.274Z</time></trkpt><trkpt lat="44.73088" lon="7.901525"><ele>280.66666666666663</ele><time>2026-05-03T16:39:57.274Z</time></trkpt><trkpt lat="44.73107" lon="7.901575"><ele>281.3333333333333</ele><time>2026-05-03T16:39:58.274Z</time></trkpt><trkpt lat="44.7312517" lon="7.9016617"><ele>282.0</ele><time>2026-05-03T16:39:59.275Z</time></trkpt><trkpt lat="44.73143" lon="7.9017733"><ele>282.0</ele><time>2026-05-03T16:40:00.274Z</time></trkpt><trkpt lat="44.7316133" lon="7.9018583"><ele>282.0</ele><time>2026-05-03T16:40:01.274Z</time></trkpt><trkpt lat="44.7318017" lon="7.9019417"><ele>282.0</ele><time>2026-05-03T16:40:02.274Z</time></trkpt><trkpt lat="44.7320017" lon="7.901995"><ele>283.0</ele><time>2026-05-03T16:40:03.274Z</time></trkpt><trkpt lat="44.7321967" lon="7.9020067"><ele>284.0</ele><time>2026-05-03T16:40:04.274Z</time></trkpt><trkpt lat="44.7324" lon="7.901985"><ele>285.0</ele><time>2026-05-03T16:40:05.274Z</time></trkpt><trkpt lat="44.73261" lon="7.9019417"><ele>285.6666666666667</ele><time>2026-05-03T16:40:06.274Z</time></trkpt><trkpt lat="44.73283" lon="7.9019067"><ele>286.33333333333337</ele><time>2026-05-03T16:40:07.274Z</time></trkpt><trkpt lat="44.73305" lon="7.9018717"><ele>287.0</ele><time>2026-05-03T16:40:08.274Z</time></trkpt><trkpt lat="44.7332767" lon="7.9018367"><ele>287.0</ele><time>2026-05-03T16:40:09.274Z</time></trkpt><trkpt lat="44.7335" lon="7.901805"><ele>287.0</ele><time>2026-05-03T16:40:10.275Z</time></trkpt><trkpt lat="44.733715" lon="7.9017683"><ele>287.0</ele><time>2026-05-03T16:40:11.274Z</time></trkpt><trkpt lat="44.73393" lon="7.9017333"><ele>287.0</ele><time>2026-05-03T16:40:12.274Z</time></trkpt><trkpt lat="44.7341483" lon="7.9016967"><ele>287.0</ele><time>2026-05-03T16:40:13.274Z</time></trkpt><trkpt lat="44.734365" lon="7.9016667"><ele>287.0</ele><time>2026-05-03T16:40:14.274Z</time></trkpt><trkpt lat="44.734585" lon="7.9016267"><ele>287.0</ele><time>2026-05-03T16:40:15.274Z</time></trkpt><trkpt lat="44.734805" lon="7.9015867"><ele>287.0</ele><time>2026-05-03T16:40:16.274Z</time></trkpt><trkpt lat="44.7350167" lon="7.9015517"><ele>287.0</ele><time>2026-05-03T16:40:17.274Z</time></trkpt><trkpt lat="44.7352217" lon="7.9015217"><ele>288.0</ele><time>2026-05-03T16:40:18.275Z</time></trkpt><trkpt lat="44.7354117" lon="7.9014983"><ele>289.0</ele><time>2026-05-03T16:40:19.275Z</time></trkpt><trkpt lat="44.7355933" lon="7.9014967"><ele>290.0</ele><time>2026-05-03T16:40:20.274Z</time></trkpt><trkpt lat="44.7357667" lon="7.9015267"><ele>290.0</ele><time>2026-05-03T16:40:21.274Z</time></trkpt><trkpt lat="44.735935" lon="7.90158"><ele>290.0</ele><time>2026-05-03T16:40:22.274Z</time></trkpt><trkpt lat="44.736095" lon="7.90168"><ele>290.0</ele><time>2026-05-03T16:40:23.274Z</time></trkpt><trkpt lat="44.7362567" lon="7.9018217"><ele>290.6666666666667</ele><time>2026-05-03T16:40:24.275Z</time></trkpt><trkpt lat="44.7363983" lon="7.9020033"><ele>291.3333333333333</ele><time>2026-05-03T16:40:25.274Z</time></trkpt><trkpt lat="44.7365133" lon="7.9022167"><ele>292.0</ele><time>2026-05-03T16:40:26.275Z</time></trkpt><trkpt lat="44.7366217" lon="7.9024567"><ele>293.0</ele><time>2026-05-03T16:40:27.275Z</time></trkpt><trkpt lat="44.7367117" lon="7.90269"><ele>294.0</ele><time>2026-05-03T16:40:28.274Z</time></trkpt><trkpt lat="44.736795" lon="7.9029033"><ele>295.0</ele><time>2026-05-03T16:40:29.275Z</time></trkpt><trkpt lat="44.7368683" lon="7.903115"><ele>297.66666666666663</ele><time>2026-05-03T16:40:30.274Z</time></trkpt><trkpt lat="44.7369117" lon="7.903325"><ele>300.3333333333333</ele><time>2026-05-03T16:40:31.274Z</time></trkpt><trkpt lat="44.73692" lon="7.9035467"><ele>303.0</ele><time>2026-05-03T16:40:32.274Z</time></trkpt><trkpt lat="44.7368933" lon="7.903755"><ele>302.5</ele><time>2026-05-03T16:40:33.275Z</time></trkpt><trkpt lat="44.73686" lon="7.9039733"><ele>302.0</ele><time>2026-05-03T16:40:34.275Z</time></trkpt><trkpt lat="44.73687" lon="7.9041633"><ele>301.5</ele><time>2026-05-03T16:40:35.275Z</time></trkpt><trkpt lat="44.736915" lon="7.904345"><ele>301.0</ele><time>2026-05-03T16:40:36.274Z</time></trkpt><trkpt lat="44.7370083" lon="7.904515"><ele>301.0</ele><time>2026-05-03T16:40:37.274Z</time></trkpt><trkpt lat="44.7371267" lon="7.90466"><ele>301.0</ele><time>2026-05-03T16:40:38.274Z</time></trkpt><trkpt lat="44.737265" lon="7.9047883"><ele>301.0</ele><time>2026-05-03T16:40:39.274Z</time></trkpt><trkpt lat="44.7374317" lon="7.9049167"><ele>301.0</ele><time>2026-05-03T16:40:40.274Z</time></trkpt><trkpt lat="44.7375967" lon="7.905045"><ele>301.0</ele><time>2026-05-03T16:40:41.275Z</time></trkpt><trkpt lat="44.7377617" lon="7.9051783"><ele>301.0</ele><time>2026-05-03T16:40:42.274Z</time></trkpt><trkpt lat="44.737945" lon="7.90531"><ele>303.0</ele><time>2026-05-03T16:40:43.275Z</time></trkpt><trkpt lat="44.7381217" lon="7.9054533"><ele>305.0</ele><time>2026-05-03T16:40:44.274Z</time></trkpt><trkpt lat="44.7382967" lon="7.9055917"><ele>307.0</ele><time>2026-05-03T16:40:45.274Z</time></trkpt><trkpt lat="44.7384683" lon="7.9057133"><ele>310.0</ele><time>2026-05-03T16:40:46.274Z</time></trkpt><trkpt lat="44.7386233" lon="7.905835"><ele>313.0</ele><time>2026-05-03T16:40:47.275Z</time></trkpt><trkpt lat="44.7387683" lon="7.9059467"><ele>316.0</ele><time>2026-05-03T16:40:48.274Z</time></trkpt><trkpt lat="44.738895" lon="7.9060767"><ele>316.0</ele><time>2026-05-03T16:40:49.274Z</time></trkpt><trkpt lat="44.73898" lon="7.9062417"><ele>316.0</ele><time>2026-05-03T16:40:50.275Z</time></trkpt><trkpt lat="44.7390233" lon="7.9064333"><ele>316.0</ele><time>2026-05-03T16:40:51.274Z</time></trkpt><trkpt lat="44.7390183" lon="7.9066317"><ele>316.0</ele><time>2026-05-03T16:40:52.274Z</time></trkpt><trkpt lat="44.73899" lon="7.906815"><ele>317.5</ele><time>2026-05-03T16:40:53.274Z</time></trkpt><trkpt lat="44.738935" lon="7.90699"><ele>319.0</ele><time>2026-05-03T16:40:54.274Z</time></trkpt><trkpt lat="44.7388883" lon="7.9071483"><ele>320.5</ele><time>2026-05-03T16:40:55.274Z</time></trkpt><trkpt lat="44.7388617" lon="7.9073"><ele>322.0</ele><time>2026-05-03T16:40:56.274Z</time></trkpt><trkpt lat="44.738875" lon="7.9074617"><ele>321.0</ele><time>2026-05-03T16:40:57.274Z</time></trkpt><trkpt lat="44.7389233" lon="7.9076383"><ele>320.0</ele><time>2026-05-03T16:40:58.274Z</time></trkpt><trkpt lat="44.73898" lon="7.9078183"><ele>319.0</ele><time>2026-05-03T16:40:59.274Z</time></trkpt><trkpt lat="44.7390367" lon="7.9079783"><ele>318.0</ele><time>2026-05-03T16:41:00.275Z</time></trkpt><trkpt lat="44.7390983" lon="7.90814"><ele>318.0</ele><time>2026-05-03T16:41:01.274Z</time></trkpt><trkpt lat="44.7391767" lon="7.9082817"><ele>318.0</ele><time>2026-05-03T16:41:02.274Z</time></trkpt><trkpt lat="44.7392633" lon="7.9084083"><ele>318.0</ele><time>2026-05-03T16:41:03.274Z</time></trkpt><trkpt lat="44.73936" lon="7.90851"><ele>318.0</ele><time>2026-05-03T16:41:04.274Z</time></trkpt><trkpt lat="44.73945" lon="7.9086083"><ele>321.0</ele><time>2026-05-03T16:41:05.274Z</time></trkpt><trkpt lat="44.7395183" lon="7.90872"><ele>324.0</ele><time>2026-05-03T16:41:06.274Z</time></trkpt><trkpt lat="44.73957" lon="7.9088567"><ele>327.0</ele><time>2026-05-03T16:41:07.274Z</time></trkpt><trkpt lat="44.73959" lon="7.9090267"><ele>330.0</ele><time>2026-05-03T16:41:08.274Z</time></trkpt><trkpt lat="44.7396033" lon="7.9092117"><ele>329.5</ele><time>2026-05-03T16:41:09.274Z</time></trkpt><trkpt lat="44.739615" lon="7.9093833"><ele>329.0</ele><time>2026-05-03T16:41:10.274Z</time></trkpt><trkpt lat="44.7396483" lon="7.9095417"><ele>328.5</ele><time>2026-05-03T16:41:11.274Z</time></trkpt><trkpt lat="44.7396967" lon="7.9096883"><ele>328.0</ele><time>2026-05-03T16:41:12.274Z</time></trkpt><trkpt lat="44.73975" lon="7.9098217"><ele>328.0</ele><time>2026-05-03T16:41:13.274Z</time></trkpt><trkpt lat="44.7398017" lon="7.9099367"><ele>328.0</ele><time>2026-05-03T16:41:14.274Z</time></trkpt><trkpt lat="44.739855" lon="7.9100333"><ele>328.0</ele><time>2026-05-03T16:41:15.274Z</time></trkpt><trkpt lat="44.7398983" lon="7.9101117"><ele>328.0</ele><time>2026-05-03T16:41:16.274Z</time></trkpt><trkpt lat="44.73996" lon="7.9102217"><ele>328.0</ele><time>2026-05-03T16:41:18.275Z</time></trkpt><trkpt lat="44.7400117" lon="7.9102817"><ele>328.0</ele><time>2026-05-03T16:41:20.274Z</time></trkpt><trkpt lat="44.7400967" lon="7.91037"><ele>327.0</ele><time>2026-05-03T16:41:22.274Z</time></trkpt><trkpt lat="44.7401567" lon="7.9105417"><ele>326.0</ele><time>2026-05-03T16:41:24.274Z</time></trkpt><trkpt lat="44.74016" lon="7.91068"><ele>325.0</ele><time>2026-05-03T16:41:25.274Z</time></trkpt><trkpt lat="44.7401517" lon="7.910845"><ele>324.0</ele><time>2026-05-03T16:41:26.275Z</time></trkpt><trkpt lat="44.7401567" lon="7.9110217"><ele>322.25</ele><time>2026-05-03T16:41:27.274Z</time></trkpt><trkpt lat="44.7401717" lon="7.9112017"><ele>320.5</ele><time>2026-05-03T16:41:28.274Z</time></trkpt><trkpt lat="44.7401883" lon="7.91136"><ele>318.75</ele><time>2026-05-03T16:41:29.275Z</time></trkpt><trkpt lat="44.7401783" lon="7.91152"><ele>317.0</ele><time>2026-05-03T16:41:30.274Z</time></trkpt><trkpt lat="44.7401233" lon="7.91166"><ele>313.75</ele><time>2026-05-03T16:41:31.275Z</time></trkpt><trkpt lat="44.7400417" lon="7.9117883"><ele>310.5</ele><time>2026-05-03T16:41:32.274Z</time></trkpt><trkpt lat="44.7399383" lon="7.9119017"><ele>307.25</ele><time>2026-05-03T16:41:33.274Z</time></trkpt><trkpt lat="44.73982" lon="7.9120217"><ele>304.0</ele><time>2026-05-03T16:41:34.274Z</time></trkpt><trkpt lat="44.7396933" lon="7.9121333"><ele>304.0</ele><time>2026-05-03T16:41:35.274Z</time></trkpt><trkpt lat="44.7395733" lon="7.9122467"><ele>304.0</ele><time>2026-05-03T16:41:36.274Z</time></trkpt><trkpt lat="44.7394617" lon="7.9123583"><ele>304.0</ele><time>2026-05-03T16:41:37.274Z</time></trkpt><trkpt lat="44.73936" lon="7.9124617"><ele>304.0</ele><time>2026-05-03T16:41:38.274Z</time></trkpt><trkpt lat="44.7392567" lon="7.9125617"><ele>303.25</ele><time>2026-05-03T16:41:39.274Z</time></trkpt><trkpt lat="44.7391767" lon="7.912685"><ele>302.5</ele><time>2026-05-03T16:41:40.274Z</time></trkpt><trkpt lat="44.7391333" lon="7.912825"><ele>301.75</ele><time>2026-05-03T16:41:41.274Z</time></trkpt><trkpt lat="44.7391367" lon="7.9129867"><ele>301.0</ele><time>2026-05-03T16:41:42.275Z</time></trkpt><trkpt lat="44.7391817" lon="7.913155"><ele>301.0</ele><time>2026-05-03T16:41:43.275Z</time></trkpt><trkpt lat="44.7392617" lon="7.913305"><ele>301.0</ele><time>2026-05-03T16:41:44.274Z</time></trkpt><trkpt lat="44.7393583" lon="7.9134467"><ele>301.0</ele><time>2026-05-03T16:41:45.274Z</time></trkpt><trkpt lat="44.7394617" lon="7.9136"><ele>301.0</ele><time>2026-05-03T16:41:46.274Z</time></trkpt><trkpt lat="44.7395767" lon="7.9137433"><ele>301.0</ele><time>2026-05-03T16:41:47.274Z</time></trkpt><trkpt lat="44.7396833" lon="7.9138917"><ele>301.0</ele><time>2026-05-03T16:41:48.274Z</time></trkpt><trkpt lat="44.73979" lon="7.9140367"><ele>301.0</ele><time>2026-05-03T16:41:49.274Z</time></trkpt><trkpt lat="44.7398833" lon="7.9141833"><ele>301.0</ele><time>2026-05-03T16:41:50.274Z</time></trkpt><trkpt lat="44.7399483" lon="7.9143567"><ele>299.75</ele><time>2026-05-03T16:41:51.274Z</time></trkpt><trkpt lat="44.7400017" lon="7.9145283"><ele>298.5</ele><time>2026-05-03T16:41:52.274Z</time></trkpt><trkpt lat="44.7400333" lon="7.91471"><ele>297.25</ele><time>2026-05-03T16:41:53.274Z</time></trkpt><trkpt lat="44.7400417" lon="7.9148867"><ele>296.0</ele><time>2026-05-03T16:41:54.274Z</time></trkpt><trkpt lat="44.740035" lon="7.915065"><ele>295.0</ele><time>2026-05-03T16:41:55.274Z</time></trkpt><trkpt lat="44.740045" lon="7.9152217"><ele>294.0</ele><time>2026-05-03T16:41:56.274Z</time></trkpt><trkpt lat="44.7400867" lon="7.9153733"><ele>293.0</ele><time>2026-05-03T16:41:57.274Z</time></trkpt><trkpt lat="44.740165" lon="7.915505"><ele>292.0</ele><time>2026-05-03T16:41:58.275Z</time></trkpt><trkpt lat="44.7402583" lon="7.9156267"><ele>292.0</ele><time>2026-05-03T16:41:59.274Z</time></trkpt><trkpt lat="44.74037" lon="7.9157317"><ele>292.0</ele><time>2026-05-03T16:42:00.275Z</time></trkpt><trkpt lat="44.7404883" lon="7.91583"><ele>292.0</ele><time>2026-05-03T16:42:01.274Z</time></trkpt><trkpt lat="44.7406133" lon="7.9159333"><ele>292.0</ele><time>2026-05-03T16:42:02.274Z</time></trkpt><trkpt lat="44.7407417" lon="7.9160333"><ele>293.0</ele><time>2026-05-03T16:42:03.274Z</time></trkpt><trkpt lat="44.7408533" lon="7.9161383"><ele>294.0</ele><time>2026-05-03T16:42:04.274Z</time></trkpt><trkpt lat="44.7409717" lon="7.9162417"><ele>295.0</ele><time>2026-05-03T16:42:05.274Z</time></trkpt><trkpt lat="44.7410817" lon="7.916345"><ele>296.0</ele><time>2026-05-03T16:42:06.274Z</time></trkpt><trkpt lat="44.7411633" lon="7.9164867"><ele>292.75</ele><time>2026-05-03T16:42:07.274Z</time></trkpt><trkpt lat="44.7412317" lon="7.9166433"><ele>289.5</ele><time>2026-05-03T16:42:08.274Z</time></trkpt><trkpt lat="44.7412967" lon="7.916815"><ele>286.25</ele><time>2026-05-03T16:42:09.274Z</time></trkpt><trkpt lat="44.7413367" lon="7.9169967"><ele>283.0</ele><time>2026-05-03T16:42:10.274Z</time></trkpt><trkpt lat="44.7413617" lon="7.9172117"><ele>282.3333333333333</ele><time>2026-05-03T16:42:11.274Z</time></trkpt><trkpt lat="44.7413583" lon="7.9174383"><ele>281.6666666666667</ele><time>2026-05-03T16:42:12.274Z</time></trkpt><trkpt lat="44.7413617" lon="7.9176567"><ele>281.0</ele><time>2026-05-03T16:42:13.274Z</time></trkpt><trkpt lat="44.7413617" lon="7.917855"><ele>279.75</ele><time>2026-05-03T16:42:14.274Z</time></trkpt><trkpt lat="44.741365" lon="7.918035"><ele>278.5</ele><time>2026-05-03T16:42:15.274Z</time></trkpt><trkpt lat="44.7413667" lon="7.9182117"><ele>277.25</ele><time>2026-05-03T16:42:16.274Z</time></trkpt><trkpt lat="44.74137" lon="7.9183867"><ele>276.0</ele><time>2026-05-03T16:42:17.274Z</time></trkpt><trkpt lat="44.7413683" lon="7.9185683"><ele>276.25</ele><time>2026-05-03T16:42:18.274Z</time></trkpt><trkpt lat="44.7413433" lon="7.9187567"><ele>276.5</ele><time>2026-05-03T16:42:19.274Z</time></trkpt><trkpt lat="44.7413017" lon="7.918945"><ele>276.75</ele><time>2026-05-03T16:42:20.274Z</time></trkpt><trkpt lat="44.74125" lon="7.919135"><ele>277.0</ele><time>2026-05-03T16:42:21.274Z</time></trkpt><trkpt lat="44.7411683" lon="7.9193283"><ele>277.0</ele><time>2026-05-03T16:42:22.274Z</time></trkpt><trkpt lat="44.74107" lon="7.9195217"><ele>277.0</ele><time>2026-05-03T16:42:23.274Z</time></trkpt><trkpt lat="44.7409667" lon="7.9197283"><ele>277.0</ele><time>2026-05-03T16:42:24.275Z</time></trkpt><trkpt lat="44.7408583" lon="7.919945"><ele>277.66666666666663</ele><time>2026-05-03T16:42:25.274Z</time></trkpt><trkpt lat="44.7407717" lon="7.9201667"><ele>278.3333333333333</ele><time>2026-05-03T16:42:26.274Z</time></trkpt><trkpt lat="44.7406867" lon="7.92038"><ele>279.0</ele><time>2026-05-03T16:42:27.275Z</time></trkpt><trkpt lat="44.7405967" lon="7.920595"><ele>279.0</ele><time>2026-05-03T16:42:28.274Z</time></trkpt><trkpt lat="44.7405117" lon="7.9207883"><ele>279.0</ele><time>2026-05-03T16:42:29.274Z</time></trkpt><trkpt lat="44.74041" lon="7.9209783"><ele>279.0</ele><time>2026-05-03T16:42:30.274Z</time></trkpt><trkpt lat="44.7402917" lon="7.92115"><ele>275.3333333333333</ele><time>2026-05-03T16:42:31.274Z</time></trkpt><trkpt lat="44.7401633" lon="7.9212983"><ele>271.66666666666663</ele><time>2026-05-03T16:42:32.274Z</time></trkpt><trkpt lat="44.740035" lon="7.9214333"><ele>268.0</ele><time>2026-05-03T16:42:33.274Z</time></trkpt><trkpt lat="44.7399167" lon="7.9215733"><ele>269.25</ele><time>2026-05-03T16:42:34.274Z</time></trkpt><trkpt lat="44.73983" lon="7.9217333"><ele>270.5</ele><time>2026-05-03T16:42:35.274Z</time></trkpt><trkpt lat="44.7397683" lon="7.9219133"><ele>271.75</ele><time>2026-05-03T16:42:36.274Z</time></trkpt><trkpt lat="44.7397133" lon="7.9221017"><ele>273.0</ele><time>2026-05-03T16:42:37.274Z</time></trkpt><trkpt lat="44.73964" lon="7.9222783"><ele>273.0</ele><time>2026-05-03T16:42:38.274Z</time></trkpt><trkpt lat="44.7395417" lon="7.9224233"><ele>273.0</ele><time>2026-05-03T16:42:39.274Z</time></trkpt><trkpt lat="44.7394283" lon="7.922515"><ele>273.0</ele><time>2026-05-03T16:42:40.274Z</time></trkpt><trkpt lat="44.7393183" lon="7.922595"><ele>273.0</ele><time>2026-05-03T16:42:41.274Z</time></trkpt><trkpt lat="44.7392183" lon="7.92268"><ele>269.6</ele><time>2026-05-03T16:42:42.274Z</time></trkpt><trkpt lat="44.7391417" lon="7.9227833"><ele>266.20000000000005</ele><time>2026-05-03T16:42:43.274Z</time></trkpt><trkpt lat="44.7391033" lon="7.922925"><ele>262.8</ele><time>2026-05-03T16:42:44.274Z</time></trkpt><trkpt lat="44.7391" lon="7.9230783"><ele>259.40000000000003</ele><time>2026-05-03T16:42:45.274Z</time></trkpt><trkpt lat="44.7391317" lon="7.923245"><ele>256.0</ele><time>2026-05-03T16:42:46.274Z</time></trkpt><trkpt lat="44.7391683" lon="7.9234133"><ele>256.0</ele><time>2026-05-03T16:42:47.274Z</time></trkpt><trkpt lat="44.7391883" lon="7.9235933"><ele>256.0</ele><time>2026-05-03T16:42:48.275Z</time></trkpt><trkpt lat="44.73918" lon="7.9237817"><ele>256.0</ele><time>2026-05-03T16:42:49.274Z</time></trkpt><trkpt lat="44.7391367" lon="7.9239567"><ele>256.0</ele><time>2026-05-03T16:42:50.274Z</time></trkpt><trkpt lat="44.7390683" lon="7.924135"><ele>258.0</ele><time>2026-05-03T16:42:51.274Z</time></trkpt><trkpt lat="44.738965" lon="7.9242733"><ele>260.0</ele><time>2026-05-03T16:42:52.274Z</time></trkpt><trkpt lat="44.7388517" lon="7.924405"><ele>262.0</ele><time>2026-05-03T16:42:53.274Z</time></trkpt><trkpt lat="44.7387317" lon="7.9245467"><ele>264.0</ele><time>2026-05-03T16:42:54.274Z</time></trkpt><trkpt lat="44.7386133" lon="7.9247017"><ele>260.0</ele><time>2026-05-03T16:42:55.274Z</time></trkpt><trkpt lat="44.7384967" lon="7.9248733"><ele>256.0</ele><time>2026-05-03T16:42:56.274Z</time></trkpt><trkpt lat="44.738385" lon="7.9250383"><ele>252.0</ele><time>2026-05-03T16:42:57.274Z</time></trkpt><trkpt lat="44.73827" lon="7.9252133"><ele>252.0</ele><time>2026-05-03T16:42:58.274Z</time></trkpt><trkpt lat="44.73816" lon="7.9253883"><ele>252.0</ele><time>2026-05-03T16:42:59.274Z</time></trkpt><trkpt lat="44.73805" lon="7.9255533"><ele>252.0</ele><time>2026-05-03T16:43:00.274Z</time></trkpt><trkpt lat="44.7379417" lon="7.925715"><ele>252.0</ele><time>2026-05-03T16:43:01.274Z</time></trkpt><trkpt lat="44.73784" lon="7.9258767"><ele>252.0</ele><time>2026-05-03T16:43:02.275Z</time></trkpt><trkpt lat="44.73775" lon="7.9260267"><ele>252.0</ele><time>2026-05-03T16:43:03.274Z</time></trkpt><trkpt lat="44.737655" lon="7.9261883"><ele>252.0</ele><time>2026-05-03T16:43:04.274Z</time></trkpt><trkpt lat="44.7375767" lon="7.926365"><ele>248.0</ele><time>2026-05-03T16:43:05.274Z</time></trkpt><trkpt lat="44.7375167" lon="7.9265533"><ele>244.0</ele><time>2026-05-03T16:43:06.274Z</time></trkpt><trkpt lat="44.7374567" lon="7.9267683"><ele>240.0</ele><time>2026-05-03T16:43:07.274Z</time></trkpt><trkpt lat="44.73741" lon="7.9270083"><ele>239.33333333333331</ele><time>2026-05-03T16:43:08.274Z</time></trkpt><trkpt lat="44.737365" lon="7.927255"><ele>238.66666666666666</ele><time>2026-05-03T16:43:09.274Z</time></trkpt><trkpt lat="44.73735" lon="7.927495"><ele>238.0</ele><time>2026-05-03T16:43:10.274Z</time></trkpt><trkpt lat="44.7373483" lon="7.9277567"><ele>237.33333333333331</ele><time>2026-05-03T16:43:11.274Z</time></trkpt><trkpt lat="44.737385" lon="7.9280433"><ele>236.66666666666669</ele><time>2026-05-03T16:43:12.274Z</time></trkpt><trkpt lat="44.73743" lon="7.9283317"><ele>236.0</ele><time>2026-05-03T16:43:13.274Z</time></trkpt><trkpt lat="44.7374717" lon="7.9286283"><ele>235.66666666666669</ele><time>2026-05-03T16:43:14.274Z</time></trkpt><trkpt lat="44.7375183" lon="7.9289167"><ele>235.33333333333331</ele><time>2026-05-03T16:43:15.274Z</time></trkpt><trkpt lat="44.73756" lon="7.9292217"><ele>235.0</ele><time>2026-05-03T16:43:16.275Z</time></trkpt><trkpt lat="44.7376067" lon="7.9295333"><ele>234.66666666666666</ele><time>2026-05-03T16:43:17.275Z</time></trkpt><trkpt lat="44.7376583" lon="7.9298367"><ele>234.33333333333331</ele><time>2026-05-03T16:43:18.274Z</time></trkpt><trkpt lat="44.737705" lon="7.9301417"><ele>234.0</ele><time>2026-05-03T16:43:19.274Z</time></trkpt><trkpt lat="44.7377517" lon="7.9304217"><ele>236.0</ele><time>2026-05-03T16:43:20.275Z</time></trkpt><trkpt lat="44.737785" lon="7.9306917"><ele>238.0</ele><time>2026-05-03T16:43:21.274Z</time></trkpt><trkpt lat="44.7378" lon="7.9309583"><ele>240.0</ele><time>2026-05-03T16:43:22.274Z</time></trkpt><trkpt lat="44.737775" lon="7.9312183"><ele>240.0</ele><time>2026-05-03T16:43:23.274Z</time></trkpt><trkpt lat="44.7377317" lon="7.93147"><ele>240.0</ele><time>2026-05-03T16:43:24.274Z</time></trkpt><trkpt lat="44.7376633" lon="7.9317233"><ele>240.0</ele><time>2026-05-03T16:43:25.274Z</time></trkpt><trkpt lat="44.7375767" lon="7.93198"><ele>236.0</ele><time>2026-05-03T16:43:26.274Z</time></trkpt><trkpt lat="44.7374783" lon="7.9322467"><ele>232.0</ele><time>2026-05-03T16:43:27.274Z</time></trkpt><trkpt lat="44.7373817" lon="7.93253"><ele>228.0</ele><time>2026-05-03T16:43:28.274Z</time></trkpt><trkpt lat="44.7372867" lon="7.9327983"><ele>228.0</ele><time>2026-05-03T16:43:29.275Z</time></trkpt><trkpt lat="44.737185" lon="7.93309"><ele>228.0</ele><time>2026-05-03T16:43:30.274Z</time></trkpt><trkpt lat="44.737075" lon="7.9333883"><ele>227.0</ele><time>2026-05-03T16:43:31.274Z</time></trkpt><trkpt lat="44.7369767" lon="7.9336717"><ele>226.0</ele><time>2026-05-03T16:43:32.274Z</time></trkpt><trkpt lat="44.7368717" lon="7.933965"><ele>223.5</ele><time>2026-05-03T16:43:33.275Z</time></trkpt><trkpt lat="44.7367717" lon="7.9342433"><ele>221.0</ele><time>2026-05-03T16:43:34.274Z</time></trkpt><trkpt lat="44.73667" lon="7.9345433"><ele>221.0</ele><time>2026-05-03T16:43:35.275Z</time></trkpt><trkpt lat="44.73656" lon="7.9348383"><ele>221.0</ele><time>2026-05-03T16:43:36.274Z</time></trkpt><trkpt lat="44.7364533" lon="7.93513"><ele>222.0</ele><time>2026-05-03T16:43:37.275Z</time></trkpt><trkpt lat="44.73635" lon="7.9354167"><ele>223.0</ele><time>2026-05-03T16:43:38.274Z</time></trkpt><trkpt lat="44.7362433" lon="7.9357117"><ele>222.0</ele><time>2026-05-03T16:43:39.274Z</time></trkpt><trkpt lat="44.7361433" lon="7.9359967"><ele>221.0</ele><time>2026-05-03T16:43:40.274Z</time></trkpt><trkpt lat="44.7360433" lon="7.93628"><ele>221.0</ele><time>2026-05-03T16:43:41.274Z</time></trkpt><trkpt lat="44.7359283" lon="7.9365817"><ele>221.0</ele><time>2026-05-03T16:43:42.274Z</time></trkpt><trkpt lat="44.735825" lon="7.9368883"><ele>222.5</ele><time>2026-05-03T16:43:43.274Z</time></trkpt><trkpt lat="44.7357183" lon="7.9371817"><ele>224.0</ele><time>2026-05-03T16:43:44.274Z</time></trkpt><trkpt lat="44.7356133" lon="7.93748"><ele>226.0</ele><time>2026-05-03T16:43:45.275Z</time></trkpt><trkpt lat="44.7355017" lon="7.9377733"><ele>228.0</ele><time>2026-05-03T16:43:46.274Z</time></trkpt><trkpt lat="44.735395" lon="7.9380667"><ele>228.0</ele><time>2026-05-03T16:43:47.274Z</time></trkpt><trkpt lat="44.73529" lon="7.9383633"><ele>228.0</ele><time>2026-05-03T16:43:48.274Z</time></trkpt><trkpt lat="44.73519" lon="7.9386583"><ele>224.5</ele><time>2026-05-03T16:43:49.274Z</time></trkpt><trkpt lat="44.735085" lon="7.9389667"><ele>221.0</ele><time>2026-05-03T16:43:50.274Z</time></trkpt><trkpt lat="44.73498" lon="7.9392583"><ele>221.0</ele><time>2026-05-03T16:43:51.274Z</time></trkpt><trkpt lat="44.7348717" lon="7.9395517"><ele>221.0</ele><time>2026-05-03T16:43:52.274Z</time></trkpt><trkpt lat="44.7347683" lon="7.9398367"><ele>223.66666666666669</ele><time>2026-05-03T16:43:53.274Z</time></trkpt><trkpt lat="44.7346667" lon="7.940115"><ele>226.33333333333331</ele><time>2026-05-03T16:43:54.275Z</time></trkpt><trkpt lat="44.7345567" lon="7.9403867"><ele>229.0</ele><time>2026-05-03T16:43:55.274Z</time></trkpt><trkpt lat="44.7344617" lon="7.9406483"><ele>225.66666666666666</ele><time>2026-05-03T16:43:56.274Z</time></trkpt><trkpt lat="44.73438" lon="7.9408983"><ele>222.33333333333331</ele><time>2026-05-03T16:43:57.274Z</time></trkpt><trkpt lat="44.7343083" lon="7.941175"><ele>219.0</ele><time>2026-05-03T16:43:58.274Z</time></trkpt><trkpt lat="44.7342533" lon="7.9414517"><ele>219.33333333333331</ele><time>2026-05-03T16:43:59.274Z</time></trkpt><trkpt lat="44.7342133" lon="7.941735"><ele>219.66666666666666</ele><time>2026-05-03T16:44:00.274Z</time></trkpt><trkpt lat="44.7341883" lon="7.9420383"><ele>220.0</ele><time>2026-05-03T16:44:01.274Z</time></trkpt><trkpt lat="44.7341733" lon="7.9423383"><ele>220.0</ele><time>2026-05-03T16:44:02.274Z</time></trkpt><trkpt lat="44.7341717" lon="7.942625"><ele>220.0</ele><time>2026-05-03T16:44:03.274Z</time></trkpt><trkpt lat="44.7341733" lon="7.942925"><ele>220.0</ele><time>2026-05-03T16:44:04.275Z</time></trkpt><trkpt lat="44.7342033" lon="7.9432483"><ele>219.5</ele><time>2026-05-03T16:44:05.274Z</time></trkpt><trkpt lat="44.7342417" lon="7.9435683"><ele>219.0</ele><time>2026-05-03T16:44:06.274Z</time></trkpt><trkpt lat="44.7342767" lon="7.943885"><ele>219.0</ele><time>2026-05-03T16:44:07.274Z</time></trkpt><trkpt lat="44.73431" lon="7.9441983"><ele>219.0</ele><time>2026-05-03T16:44:08.274Z</time></trkpt><trkpt lat="44.7343433" lon="7.9445183"><ele>217.0</ele><time>2026-05-03T16:44:09.274Z</time></trkpt><trkpt lat="44.7343767" lon="7.9448333"><ele>215.0</ele><time>2026-05-03T16:44:10.275Z</time></trkpt><trkpt lat="44.734415" lon="7.94512"><ele>213.0</ele><time>2026-05-03T16:44:11.274Z</time></trkpt><trkpt lat="44.7344567" lon="7.945415"><ele>212.33333333333331</ele><time>2026-05-03T16:44:12.275Z</time></trkpt><trkpt lat="44.7344883" lon="7.94571"><ele>211.66666666666666</ele><time>2026-05-03T16:44:13.274Z</time></trkpt><trkpt lat="44.7345217" lon="7.946"><ele>211.0</ele><time>2026-05-03T16:44:14.274Z</time></trkpt><trkpt lat="44.7345633" lon="7.94629"><ele>211.0</ele><time>2026-05-03T16:44:15.274Z</time></trkpt><trkpt lat="44.73459" lon="7.94658"><ele>211.0</ele><time>2026-05-03T16:44:16.274Z</time></trkpt><trkpt lat="44.7346117" lon="7.9468567"><ele>211.0</ele><time>2026-05-03T16:44:17.275Z</time></trkpt><trkpt lat="44.7346417" lon="7.9471067"><ele>211.33333333333331</ele><time>2026-05-03T16:44:18.274Z</time></trkpt><trkpt lat="44.73467" lon="7.9473483"><ele>211.66666666666669</ele><time>2026-05-03T16:44:19.275Z</time></trkpt><trkpt lat="44.734695" lon="7.9475767"><ele>212.0</ele><time>2026-05-03T16:44:20.274Z</time></trkpt><trkpt lat="44.7347233" lon="7.9477983"><ele>212.25</ele><time>2026-05-03T16:44:21.274Z</time></trkpt><trkpt lat="44.7347467" lon="7.94801"><ele>212.5</ele><time>2026-05-03T16:44:22.274Z</time></trkpt><trkpt lat="44.7347683" lon="7.9482167"><ele>212.75</ele><time>2026-05-03T16:44:23.274Z</time></trkpt><trkpt lat="44.73478" lon="7.9484133"><ele>213.0</ele><time>2026-05-03T16:44:24.274Z</time></trkpt><trkpt lat="44.7347867" lon="7.9486033"><ele>213.0</ele><time>2026-05-03T16:44:25.274Z</time></trkpt><trkpt lat="44.7347817" lon="7.94877"><ele>213.0</ele><time>2026-05-03T16:44:26.274Z</time></trkpt><trkpt lat="44.7347617" lon="7.9489267"><ele>213.0</ele><time>2026-05-03T16:44:27.274Z</time></trkpt><trkpt lat="44.7347483" lon="7.94906"><ele>213.0</ele><time>2026-05-03T16:44:28.274Z</time></trkpt><trkpt lat="44.7347667" lon="7.9491767"><ele>213.0</ele><time>2026-05-03T16:44:29.274Z</time></trkpt><trkpt lat="44.7348033" lon="7.9492533"><ele>213.0</ele><time>2026-05-03T16:44:30.274Z</time></trkpt><trkpt lat="44.7349117" lon="7.94927"><ele>213.0</ele><time>2026-05-03T16:44:32.274Z</time></trkpt><trkpt lat="44.7349783" lon="7.9492017"><ele>213.0</ele><time>2026-05-03T16:44:33.274Z</time></trkpt><trkpt lat="44.7350217" lon="7.94908"><ele>213.0</ele><time>2026-05-03T16:44:34.274Z</time></trkpt><trkpt lat="44.7350417" lon="7.9489217"><ele>213.0</ele><time>2026-05-03T16:44:35.274Z</time></trkpt><trkpt lat="44.7350683" lon="7.9487633"><ele>213.0</ele><time>2026-05-03T16:44:36.274Z</time></trkpt><trkpt lat="44.735115" lon="7.94861"><ele>213.0</ele><time>2026-05-03T16:44:37.274Z</time></trkpt><trkpt lat="44.7351767" lon="7.948445"><ele>213.0</ele><time>2026-05-03T16:44:38.274Z</time></trkpt><trkpt lat="44.7352483" lon="7.9482617"><ele>213.0</ele><time>2026-05-03T16:44:39.274Z</time></trkpt><trkpt lat="44.735335" lon="7.9480767"><ele>213.33333333333331</ele><time>2026-05-03T16:44:40.274Z</time></trkpt><trkpt lat="44.7354167" lon="7.9478817"><ele>213.66666666666666</ele><time>2026-05-03T16:44:41.274Z</time></trkpt><trkpt lat="44.7355067" lon="7.9476733"><ele>214.0</ele><time>2026-05-03T16:44:42.274Z</time></trkpt><trkpt lat="44.7356017" lon="7.947465"><ele>214.0</ele><time>2026-05-03T16:44:43.274Z</time></trkpt><trkpt lat="44.7356917" lon="7.94725"><ele>214.0</ele><time>2026-05-03T16:44:44.274Z</time></trkpt><trkpt lat="44.7357883" lon="7.94702"><ele>214.0</ele><time>2026-05-03T16:44:45.274Z</time></trkpt><trkpt lat="44.7359" lon="7.94679"><ele>214.0</ele><time>2026-05-03T16:44:46.274Z</time></trkpt><trkpt lat="44.7360117" lon="7.9465567"><ele>214.0</ele><time>2026-05-03T16:44:47.274Z</time></trkpt><trkpt lat="44.7361417" lon="7.94633"><ele>214.0</ele><time>2026-05-03T16:44:48.274Z</time></trkpt><trkpt lat="44.736295" lon="7.946105"><ele>217.0</ele><time>2026-05-03T16:44:49.274Z</time></trkpt><trkpt lat="44.7364533" lon="7.9458883"><ele>220.0</ele><time>2026-05-03T16:44:50.274Z</time></trkpt><trkpt lat="44.7366133" lon="7.94569"><ele>223.0</ele><time>2026-05-03T16:44:51.274Z</time></trkpt><trkpt lat="44.73676" lon="7.9454933"><ele>223.33333333333331</ele><time>2026-05-03T16:44:52.275Z</time></trkpt><trkpt lat="44.736915" lon="7.9453067"><ele>223.66666666666669</ele><time>2026-05-03T16:44:53.274Z</time></trkpt><trkpt lat="44.7370717" lon="7.9451217"><ele>224.0</ele><time>2026-05-03T16:44:54.274Z</time></trkpt><trkpt lat="44.73723" lon="7.9449583"><ele>224.0</ele><time>2026-05-03T16:44:55.274Z</time></trkpt><trkpt lat="44.7374133" lon="7.9448033"><ele>224.0</ele><time>2026-05-03T16:44:56.274Z</time></trkpt><trkpt lat="44.7375967" lon="7.94465"><ele>224.0</ele><time>2026-05-03T16:44:57.275Z</time></trkpt><trkpt lat="44.7377767" lon="7.9444983"><ele>224.33333333333334</ele><time>2026-05-03T16:44:58.275Z</time></trkpt><trkpt lat="44.7379467" lon="7.9443517"><ele>224.66666666666669</ele><time>2026-05-03T16:44:59.274Z</time></trkpt><trkpt lat="44.73812" lon="7.9442233"><ele>225.0</ele><time>2026-05-03T16:45:00.275Z</time></trkpt><trkpt lat="44.7382917" lon="7.9440983"><ele>223.66666666666669</ele><time>2026-05-03T16:45:01.274Z</time></trkpt><trkpt lat="44.73848" lon="7.944005"><ele>222.33333333333334</ele><time>2026-05-03T16:45:02.274Z</time></trkpt><trkpt lat="44.73867" lon="7.94398"><ele>221.0</ele><time>2026-05-03T16:45:03.274Z</time></trkpt><trkpt lat="44.738865" lon="7.943975"><ele>221.0</ele><time>2026-05-03T16:45:04.274Z</time></trkpt><trkpt lat="44.73905" lon="7.9439767"><ele>221.0</ele><time>2026-05-03T16:45:05.274Z</time></trkpt><trkpt lat="44.7392383" lon="7.943965"><ele>221.0</ele><time>2026-05-03T16:45:06.274Z</time></trkpt><trkpt lat="44.7394283" lon="7.9439167"><ele>221.0</ele><time>2026-05-03T16:45:07.274Z</time></trkpt><trkpt lat="44.7396083" lon="7.9438183"><ele>221.0</ele><time>2026-05-03T16:45:08.274Z</time></trkpt><trkpt lat="44.7397883" lon="7.9437033"><ele>221.0</ele><time>2026-05-03T16:45:09.274Z</time></trkpt><trkpt lat="44.7399633" lon="7.9435717"><ele>221.0</ele><time>2026-05-03T16:45:10.274Z</time></trkpt><trkpt lat="44.7401383" lon="7.9434183"><ele>221.0</ele><time>2026-05-03T16:45:11.274Z</time></trkpt><trkpt lat="44.7403133" lon="7.943265"><ele>221.0</ele><time>2026-05-03T16:45:12.274Z</time></trkpt><trkpt lat="44.7404883" lon="7.9430983"><ele>221.66666666666669</ele><time>2026-05-03T16:45:13.275Z</time></trkpt><trkpt lat="44.740675" lon="7.9429417"><ele>222.33333333333331</ele><time>2026-05-03T16:45:14.274Z</time></trkpt><trkpt lat="44.740865" lon="7.9427933"><ele>223.0</ele><time>2026-05-03T16:45:15.274Z</time></trkpt><trkpt lat="44.7410583" lon="7.9426533"><ele>223.0</ele><time>2026-05-03T16:45:16.274Z</time></trkpt><trkpt lat="44.741265" lon="7.942525"><ele>223.0</ele><time>2026-05-03T16:45:17.274Z</time></trkpt><trkpt lat="44.7414667" lon="7.9423983"><ele>223.0</ele><time>2026-05-03T16:45:18.274Z</time></trkpt><trkpt lat="44.741675" lon="7.9422667"><ele>223.0</ele><time>2026-05-03T16:45:19.274Z</time></trkpt><trkpt lat="44.7418733" lon="7.9421567"><ele>223.0</ele><time>2026-05-03T16:45:20.275Z</time></trkpt><trkpt lat="44.7420717" lon="7.9420333"><ele>223.0</ele><time>2026-05-03T16:45:21.274Z</time></trkpt><trkpt lat="44.742275" lon="7.9419167"><ele>224.0</ele><time>2026-05-03T16:45:22.274Z</time></trkpt><trkpt lat="44.742475" lon="7.941795"><ele>225.0</ele><time>2026-05-03T16:45:23.274Z</time></trkpt><trkpt lat="44.7426817" lon="7.9416733"><ele>226.0</ele><time>2026-05-03T16:45:24.274Z</time></trkpt><trkpt lat="44.74288" lon="7.9415217"><ele>228.5</ele><time>2026-05-03T16:45:25.274Z</time></trkpt><trkpt lat="44.7430883" lon="7.941395"><ele>231.0</ele><time>2026-05-03T16:45:26.274Z</time></trkpt><trkpt lat="44.7433083" lon="7.94128"><ele>231.0</ele><time>2026-05-03T16:45:27.274Z</time></trkpt><trkpt lat="44.7435333" lon="7.9411783"><ele>231.0</ele><time>2026-05-03T16:45:28.274Z</time></trkpt><trkpt lat="44.7437567" lon="7.94108"><ele>236.0</ele><time>2026-05-03T16:45:29.274Z</time></trkpt><trkpt lat="44.743975" lon="7.9409983"><ele>241.0</ele><time>2026-05-03T16:45:30.275Z</time></trkpt><trkpt lat="44.7441967" lon="7.9409117"><ele>239.5</ele><time>2026-05-03T16:45:31.275Z</time></trkpt><trkpt lat="44.7444217" lon="7.94083"><ele>238.0</ele><time>2026-05-03T16:45:32.274Z</time></trkpt><trkpt lat="44.744635" lon="7.9407433"><ele>238.0</ele><time>2026-05-03T16:45:33.274Z</time></trkpt><trkpt lat="44.744845" lon="7.9406567"><ele>238.0</ele><time>2026-05-03T16:45:34.274Z</time></trkpt><trkpt lat="44.7450533" lon="7.9405483"><ele>238.0</ele><time>2026-05-03T16:45:35.274Z</time></trkpt><trkpt lat="44.74526" lon="7.9404067"><ele>241.0</ele><time>2026-05-03T16:45:36.275Z</time></trkpt><trkpt lat="44.7454617" lon="7.940255"><ele>244.0</ele><time>2026-05-03T16:45:37.274Z</time></trkpt><trkpt lat="44.7456633" lon="7.9400933"><ele>244.5</ele><time>2026-05-03T16:45:38.274Z</time></trkpt><trkpt lat="44.745865" lon="7.9399367"><ele>245.0</ele><time>2026-05-03T16:45:39.274Z</time></trkpt><trkpt lat="44.7460633" lon="7.9397917"><ele>245.0</ele><time>2026-05-03T16:45:40.274Z</time></trkpt><trkpt lat="44.7462517" lon="7.9396567"><ele>245.0</ele><time>2026-05-03T16:45:41.274Z</time></trkpt><trkpt lat="44.7464283" lon="7.939515"><ele>245.0</ele><time>2026-05-03T16:45:42.274Z</time></trkpt><trkpt lat="44.7465917" lon="7.9393883"><ele>245.0</ele><time>2026-05-03T16:45:43.274Z</time></trkpt><trkpt lat="44.7467483" lon="7.9392817"><ele>245.0</ele><time>2026-05-03T16:45:44.274Z</time></trkpt><trkpt lat="44.7469083" lon="7.9391733"><ele>245.0</ele><time>2026-05-03T16:45:45.275Z</time></trkpt><trkpt lat="44.7470767" lon="7.9390917"><ele>242.0</ele><time>2026-05-03T16:45:46.274Z</time></trkpt><trkpt lat="44.7472583" lon="7.93902"><ele>239.0</ele><time>2026-05-03T16:45:47.274Z</time></trkpt><trkpt lat="44.7474367" lon="7.9389617"><ele>236.0</ele><time>2026-05-03T16:45:48.274Z</time></trkpt><trkpt lat="44.7476083" lon="7.9389233"><ele>238.66666666666669</ele><time>2026-05-03T16:45:49.275Z</time></trkpt><trkpt lat="44.74778" lon="7.93888"><ele>241.33333333333331</ele><time>2026-05-03T16:45:50.274Z</time></trkpt><trkpt lat="44.747945" lon="7.9388417"><ele>244.0</ele><time>2026-05-03T16:45:51.275Z</time></trkpt><trkpt lat="44.7481067" lon="7.93879"><ele>244.0</ele><time>2026-05-03T16:45:52.274Z</time></trkpt><trkpt lat="44.74826" lon="7.9387517"><ele>244.0</ele><time>2026-05-03T16:45:53.274Z</time></trkpt><trkpt lat="44.7484233" lon="7.9387167"><ele>244.0</ele><time>2026-05-03T16:45:54.274Z</time></trkpt><trkpt lat="44.7485883" lon="7.9387"><ele>244.0</ele><time>2026-05-03T16:45:55.274Z</time></trkpt><trkpt lat="44.7487617" lon="7.9387167"><ele>244.0</ele><time>2026-05-03T16:45:56.275Z</time></trkpt><trkpt lat="44.748925" lon="7.9387717"><ele>244.0</ele><time>2026-05-03T16:45:57.274Z</time></trkpt><trkpt lat="44.74908" lon="7.9388717"><ele>244.0</ele><time>2026-05-03T16:45:58.274Z</time></trkpt><trkpt lat="44.7492317" lon="7.9389917"><ele>244.0</ele><time>2026-05-03T16:45:59.275Z</time></trkpt><trkpt lat="44.7493733" lon="7.9391183"><ele>244.0</ele><time>2026-05-03T16:46:00.274Z</time></trkpt><trkpt lat="44.7495167" lon="7.9392317"><ele>243.66666666666666</ele><time>2026-05-03T16:46:01.275Z</time></trkpt><trkpt lat="44.74967" lon="7.9393367"><ele>243.33333333333331</ele><time>2026-05-03T16:46:02.274Z</time></trkpt><trkpt lat="44.7498267" lon="7.9394133"><ele>243.0</ele><time>2026-05-03T16:46:03.274Z</time></trkpt><trkpt lat="44.7499783" lon="7.93948"><ele>243.0</ele><time>2026-05-03T16:46:04.274Z</time></trkpt><trkpt lat="44.7501417" lon="7.9395033"><ele>243.0</ele><time>2026-05-03T16:46:05.274Z</time></trkpt><trkpt lat="44.750315" lon="7.9394667"><ele>243.0</ele><time>2026-05-03T16:46:06.275Z</time></trkpt><trkpt lat="44.750475" lon="7.9394167"><ele>242.66666666666669</ele><time>2026-05-03T16:46:07.275Z</time></trkpt><trkpt lat="44.7506317" lon="7.9393267"><ele>242.33333333333334</ele><time>2026-05-03T16:46:08.274Z</time></trkpt><trkpt lat="44.7507867" lon="7.9392183"><ele>242.0</ele><time>2026-05-03T16:46:09.274Z</time></trkpt><trkpt lat="44.7509417" lon="7.9391083"><ele>243.33333333333334</ele><time>2026-05-03T16:46:10.274Z</time></trkpt><trkpt lat="44.7510883" lon="7.9389833"><ele>244.66666666666669</ele><time>2026-05-03T16:46:11.274Z</time></trkpt><trkpt lat="44.7512267" lon="7.9388333"><ele>246.0</ele><time>2026-05-03T16:46:12.274Z</time></trkpt><trkpt lat="44.7513467" lon="7.9386617"><ele>246.0</ele><time>2026-05-03T16:46:13.274Z</time></trkpt><trkpt lat="44.7514583" lon="7.938445"><ele>246.0</ele><time>2026-05-03T16:46:14.274Z</time></trkpt><trkpt lat="44.7515533" lon="7.9382133"><ele>246.0</ele><time>2026-05-03T16:46:15.274Z</time></trkpt><trkpt lat="44.751635" lon="7.9379617"><ele>245.33333333333331</ele><time>2026-05-03T16:46:16.274Z</time></trkpt><trkpt lat="44.7517067" lon="7.9377233"><ele>244.66666666666666</ele><time>2026-05-03T16:46:17.274Z</time></trkpt><trkpt lat="44.7517883" lon="7.9374867"><ele>244.0</ele><time>2026-05-03T16:46:18.274Z</time></trkpt><trkpt lat="44.7518667" lon="7.9372633"><ele>245.0</ele><time>2026-05-03T16:46:19.274Z</time></trkpt><trkpt lat="44.7519483" lon="7.9370433"><ele>246.0</ele><time>2026-05-03T16:46:20.274Z</time></trkpt><trkpt lat="44.7520233" lon="7.9368383"><ele>247.0</ele><time>2026-05-03T16:46:21.274Z</time></trkpt><trkpt lat="44.7521233" lon="7.9366683"><ele>247.33333333333331</ele><time>2026-05-03T16:46:22.274Z</time></trkpt><trkpt lat="44.75225" lon="7.936515"><ele>247.66666666666669</ele><time>2026-05-03T16:46:23.275Z</time></trkpt><trkpt lat="44.7524017" lon="7.93644"><ele>248.0</ele><time>2026-05-03T16:46:24.275Z</time></trkpt><trkpt lat="44.7525667" lon="7.9364217"><ele>249.66666666666669</ele><time>2026-05-03T16:46:25.274Z</time></trkpt><trkpt lat="44.7527367" lon="7.9364117"><ele>251.33333333333331</ele><time>2026-05-03T16:46:26.275Z</time></trkpt><trkpt lat="44.7529117" lon="7.936395"><ele>253.0</ele><time>2026-05-03T16:46:27.274Z</time></trkpt><trkpt lat="44.7530817" lon="7.9363633"><ele>253.0</ele><time>2026-05-03T16:46:28.274Z</time></trkpt><trkpt lat="44.75325" lon="7.936355"><ele>253.0</ele><time>2026-05-03T16:46:29.274Z</time></trkpt><trkpt lat="44.7534283" lon="7.9363667"><ele>253.0</ele><time>2026-05-03T16:46:30.274Z</time></trkpt><trkpt lat="44.7535967" lon="7.936395"><ele>252.66666666666666</ele><time>2026-05-03T16:46:31.274Z</time></trkpt><trkpt lat="44.7537733" lon="7.9364283"><ele>252.33333333333331</ele><time>2026-05-03T16:46:32.275Z</time></trkpt><trkpt lat="44.7539533" lon="7.9364667"><ele>252.0</ele><time>2026-05-03T16:46:33.274Z</time></trkpt><trkpt lat="44.75413" lon="7.936485"><ele>252.0</ele><time>2026-05-03T16:46:34.274Z</time></trkpt><trkpt lat="44.7543167" lon="7.9364933"><ele>252.0</ele><time>2026-05-03T16:46:35.274Z</time></trkpt><trkpt lat="44.7545017" lon="7.9364617"><ele>252.0</ele><time>2026-05-03T16:46:36.274Z</time></trkpt><trkpt lat="44.7546783" lon="7.9364033"><ele>252.0</ele><time>2026-05-03T16:46:37.274Z</time></trkpt><trkpt lat="44.75485" lon="7.9363383"><ele>252.0</ele><time>2026-05-03T16:46:38.274Z</time></trkpt><trkpt lat="44.7550317" lon="7.9362683"><ele>252.0</ele><time>2026-05-03T16:46:39.274Z</time></trkpt><trkpt lat="44.7552133" lon="7.9362117"><ele>254.33333333333331</ele><time>2026-05-03T16:46:40.274Z</time></trkpt><trkpt lat="44.7553917" lon="7.9361583"><ele>256.66666666666663</ele><time>2026-05-03T16:46:41.274Z</time></trkpt><trkpt lat="44.7555717" lon="7.9361267"><ele>259.0</ele><time>2026-05-03T16:46:42.274Z</time></trkpt><trkpt lat="44.7557533" lon="7.936105"><ele>259.0</ele><time>2026-05-03T16:46:43.274Z</time></trkpt><trkpt lat="44.7559383" lon="7.9361183"><ele>259.0</ele><time>2026-05-03T16:46:44.274Z</time></trkpt><trkpt lat="44.75611" lon="7.9361433"><ele>259.0</ele><time>2026-05-03T16:46:45.274Z</time></trkpt><trkpt lat="44.7562833" lon="7.9361817"><ele>259.66666666666663</ele><time>2026-05-03T16:46:46.274Z</time></trkpt><trkpt lat="44.756455" lon="7.93621"><ele>260.3333333333333</ele><time>2026-05-03T16:46:47.274Z</time></trkpt><trkpt lat="44.756605" lon="7.9362067"><ele>261.0</ele><time>2026-05-03T16:46:48.274Z</time></trkpt><trkpt lat="44.7567667" lon="7.9361967"><ele>260.6666666666667</ele><time>2026-05-03T16:46:49.274Z</time></trkpt><trkpt lat="44.75693" lon="7.936185"><ele>260.33333333333337</ele><time>2026-05-03T16:46:50.274Z</time></trkpt><trkpt lat="44.757075" lon="7.936205"><ele>260.0</ele><time>2026-05-03T16:46:51.274Z</time></trkpt><trkpt lat="44.7572233" lon="7.9362667"><ele>260.0</ele><time>2026-05-03T16:46:52.274Z</time></trkpt><trkpt lat="44.7573733" lon="7.936375"><ele>260.0</ele><time>2026-05-03T16:46:53.275Z</time></trkpt><trkpt lat="44.7574933" lon="7.9365433"><ele>260.0</ele><time>2026-05-03T16:46:54.275Z</time></trkpt><trkpt lat="44.7576017" lon="7.93674"><ele>261.6666666666667</ele><time>2026-05-03T16:46:55.275Z</time></trkpt><trkpt lat="44.7577083" lon="7.93695"><ele>263.3333333333333</ele><time>2026-05-03T16:46:56.274Z</time></trkpt><trkpt lat="44.7578333" lon="7.9371567"><ele>265.0</ele><time>2026-05-03T16:46:57.274Z</time></trkpt><trkpt lat="44.757955" lon="7.9373617"><ele>266.66666666666663</ele><time>2026-05-03T16:46:58.275Z</time></trkpt><trkpt lat="44.7580783" lon="7.9375683"><ele>268.3333333333333</ele><time>2026-05-03T16:46:59.274Z</time></trkpt><trkpt lat="44.7582033" lon="7.9377667"><ele>270.0</ele><time>2026-05-03T16:47:00.275Z</time></trkpt><trkpt lat="44.758325" lon="7.9379633"><ele>270.0</ele><time>2026-05-03T16:47:01.274Z</time></trkpt><trkpt lat="44.758435" lon="7.938135"><ele>270.0</ele><time>2026-05-03T16:47:02.274Z</time></trkpt><trkpt lat="44.75856" lon="7.9382833"><ele>270.0</ele><time>2026-05-03T16:47:03.274Z</time></trkpt><trkpt lat="44.7587083" lon="7.93837"><ele>273.3333333333333</ele><time>2026-05-03T16:47:04.274Z</time></trkpt><trkpt lat="44.7588683" lon="7.93843"><ele>276.66666666666663</ele><time>2026-05-03T16:47:05.274Z</time></trkpt><trkpt lat="44.7590333" lon="7.9384683"><ele>280.0</ele><time>2026-05-03T16:47:06.274Z</time></trkpt><trkpt lat="44.7592033" lon="7.938495"><ele>280.0</ele><time>2026-05-03T16:47:07.274Z</time></trkpt><trkpt lat="44.7593633" lon="7.9385383"><ele>280.0</ele><time>2026-05-03T16:47:08.274Z</time></trkpt><trkpt lat="44.7595267" lon="7.9385717"><ele>280.0</ele><time>2026-05-03T16:47:09.275Z</time></trkpt><trkpt lat="44.759685" lon="7.9385867"><ele>276.66666666666663</ele><time>2026-05-03T16:47:10.275Z</time></trkpt><trkpt lat="44.7598383" lon="7.9385633"><ele>273.3333333333333</ele><time>2026-05-03T16:47:11.274Z</time></trkpt><trkpt lat="44.7600017" lon="7.9384967"><ele>270.0</ele><time>2026-05-03T16:47:12.274Z</time></trkpt><trkpt lat="44.7601683" lon="7.9383933"><ele>268.0</ele><time>2026-05-03T16:47:13.274Z</time></trkpt><trkpt lat="44.76033" lon="7.9382883"><ele>266.0</ele><time>2026-05-03T16:47:14.274Z</time></trkpt><trkpt lat="44.7604967" lon="7.9381783"><ele>264.0</ele><time>2026-05-03T16:47:15.275Z</time></trkpt><trkpt lat="44.7606583" lon="7.9380667"><ele>264.0</ele><time>2026-05-03T16:47:16.274Z</time></trkpt><trkpt lat="44.76082" lon="7.9379367"><ele>264.0</ele><time>2026-05-03T16:47:17.274Z</time></trkpt><trkpt lat="44.760985" lon="7.937795"><ele>264.0</ele><time>2026-05-03T16:47:18.274Z</time></trkpt><trkpt lat="44.761135" lon="7.9376583"><ele>263.0</ele><time>2026-05-03T16:47:19.274Z</time></trkpt><trkpt lat="44.7612867" lon="7.93754"><ele>262.0</ele><time>2026-05-03T16:47:20.274Z</time></trkpt><trkpt lat="44.76142" lon="7.9374317"><ele>261.0</ele><time>2026-05-03T16:47:21.274Z</time></trkpt><trkpt lat="44.7615633" lon="7.9373567"><ele>261.0</ele><time>2026-05-03T16:47:22.274Z</time></trkpt><trkpt lat="44.7617083" lon="7.937305"><ele>261.0</ele><time>2026-05-03T16:47:23.274Z</time></trkpt><trkpt lat="44.7618433" lon="7.9372983"><ele>261.0</ele><time>2026-05-03T16:47:24.274Z</time></trkpt><trkpt lat="44.7619733" lon="7.9373017"><ele>261.0</ele><time>2026-05-03T16:47:25.274Z</time></trkpt><trkpt lat="44.7621" lon="7.9372767"><ele>260.3333333333333</ele><time>2026-05-03T16:47:26.274Z</time></trkpt><trkpt lat="44.76221" lon="7.9372467"><ele>259.6666666666667</ele><time>2026-05-03T16:47:27.274Z</time></trkpt><trkpt lat="44.7622983" lon="7.9372117"><ele>259.0</ele><time>2026-05-03T16:47:28.274Z</time></trkpt><trkpt lat="44.76238" lon="7.9371633"><ele>258.33333333333337</ele><time>2026-05-03T16:47:29.275Z</time></trkpt><trkpt lat="44.7624467" lon="7.93712"><ele>257.6666666666667</ele><time>2026-05-03T16:47:30.274Z</time></trkpt><trkpt lat="44.762515" lon="7.9370533"><ele>257.0</ele><time>2026-05-03T16:47:31.274Z</time></trkpt><trkpt lat="44.7625833" lon="7.9369667"><ele>257.0</ele><time>2026-05-03T16:47:32.274Z</time></trkpt><trkpt lat="44.76266" lon="7.9368683"><ele>257.0</ele><time>2026-05-03T16:47:33.274Z</time></trkpt><trkpt lat="44.7627517" lon="7.936775"><ele>257.0</ele><time>2026-05-03T16:47:34.274Z</time></trkpt><trkpt lat="44.7628567" lon="7.9367117"><ele>257.0</ele><time>2026-05-03T16:47:35.274Z</time></trkpt><trkpt lat="44.76297" lon="7.9366917"><ele>257.0</ele><time>2026-05-03T16:47:36.274Z</time></trkpt><trkpt lat="44.76309" lon="7.936725"><ele>256.75</ele><time>2026-05-03T16:47:37.274Z</time></trkpt><trkpt lat="44.76321" lon="7.93681"><ele>256.5</ele><time>2026-05-03T16:47:38.274Z</time></trkpt><trkpt lat="44.7633317" lon="7.93692"><ele>256.25</ele><time>2026-05-03T16:47:39.274Z</time></trkpt><trkpt lat="44.7634533" lon="7.9370333"><ele>256.0</ele><time>2026-05-03T16:47:40.274Z</time></trkpt><trkpt lat="44.76356" lon="7.9371533"><ele>256.0</ele><time>2026-05-03T16:47:41.274Z</time></trkpt><trkpt lat="44.7636417" lon="7.9373067"><ele>256.0</ele><time>2026-05-03T16:47:42.274Z</time></trkpt><trkpt lat="44.7636867" lon="7.9374933"><ele>256.0</ele><time>2026-05-03T16:47:43.274Z</time></trkpt><trkpt lat="44.763735" lon="7.9376833"><ele>256.0</ele><time>2026-05-03T16:47:44.274Z</time></trkpt><trkpt lat="44.763825" lon="7.937865"><ele>254.66666666666666</ele><time>2026-05-03T16:47:45.274Z</time></trkpt><trkpt lat="44.7639317" lon="7.93804"><ele>253.33333333333331</ele><time>2026-05-03T16:47:46.274Z</time></trkpt><trkpt lat="44.7640633" lon="7.9382083"><ele>252.0</ele><time>2026-05-03T16:47:47.274Z</time></trkpt><trkpt lat="44.7641883" lon="7.9383933"><ele>252.0</ele><time>2026-05-03T16:47:48.274Z</time></trkpt><trkpt lat="44.7643167" lon="7.93858"><ele>252.0</ele><time>2026-05-03T16:47:49.274Z</time></trkpt><trkpt lat="44.7644517" lon="7.9387667"><ele>252.0</ele><time>2026-05-03T16:47:50.275Z</time></trkpt><trkpt lat="44.7645883" lon="7.9389483"><ele>252.0</ele><time>2026-05-03T16:47:51.274Z</time></trkpt><trkpt lat="44.764725" lon="7.9391267"><ele>252.0</ele><time>2026-05-03T16:47:52.275Z</time></trkpt><trkpt lat="44.764865" lon="7.9393033"><ele>252.0</ele><time>2026-05-03T16:47:53.274Z</time></trkpt><trkpt lat="44.7650017" lon="7.9394767"><ele>251.66666666666669</ele><time>2026-05-03T16:47:54.274Z</time></trkpt><trkpt lat="44.765145" lon="7.9396417"><ele>251.33333333333334</ele><time>2026-05-03T16:47:55.274Z</time></trkpt><trkpt lat="44.765295" lon="7.93982"><ele>251.0</ele><time>2026-05-03T16:47:56.274Z</time></trkpt><trkpt lat="44.7654483" lon="7.9399933"><ele>248.66666666666669</ele><time>2026-05-03T16:47:57.274Z</time></trkpt><trkpt lat="44.765605" lon="7.940175"><ele>246.33333333333331</ele><time>2026-05-03T16:47:58.275Z</time></trkpt><trkpt lat="44.7657533" lon="7.9403517"><ele>244.0</ele><time>2026-05-03T16:47:59.274Z</time></trkpt><trkpt lat="44.7658983" lon="7.940525"><ele>244.0</ele><time>2026-05-03T16:48:00.275Z</time></trkpt><trkpt lat="44.7660267" lon="7.94069"><ele>244.0</ele><time>2026-05-03T16:48:01.274Z</time></trkpt><trkpt lat="44.7661667" lon="7.940835"><ele>244.0</ele><time>2026-05-03T16:48:02.274Z</time></trkpt><trkpt lat="44.7662917" lon="7.9409833"><ele>243.0</ele><time>2026-05-03T16:48:03.275Z</time></trkpt><trkpt lat="44.7664067" lon="7.94112"><ele>242.0</ele><time>2026-05-03T16:48:04.274Z</time></trkpt><trkpt lat="44.7664917" lon="7.941305"><ele>241.0</ele><time>2026-05-03T16:48:05.274Z</time></trkpt><trkpt lat="44.7665567" lon="7.9415"><ele>241.33333333333331</ele><time>2026-05-03T16:48:06.274Z</time></trkpt><trkpt lat="44.7665917" lon="7.941735"><ele>241.66666666666669</ele><time>2026-05-03T16:48:07.274Z</time></trkpt><trkpt lat="44.766595" lon="7.941995"><ele>242.0</ele><time>2026-05-03T16:48:08.274Z</time></trkpt><trkpt lat="44.7665867" lon="7.9422683"><ele>242.0</ele><time>2026-05-03T16:48:09.275Z</time></trkpt><trkpt lat="44.76659" lon="7.94254"><ele>242.0</ele><time>2026-05-03T16:48:10.274Z</time></trkpt><trkpt lat="44.76661" lon="7.9428183"><ele>242.0</ele><time>2026-05-03T16:48:11.274Z</time></trkpt><trkpt lat="44.7666483" lon="7.9430883"><ele>241.66666666666669</ele><time>2026-05-03T16:48:12.274Z</time></trkpt><trkpt lat="44.7667067" lon="7.9433683"><ele>241.33333333333331</ele><time>2026-05-03T16:48:13.274Z</time></trkpt><trkpt lat="44.766775" lon="7.943635"><ele>241.0</ele><time>2026-05-03T16:48:14.274Z</time></trkpt><trkpt lat="44.7668417" lon="7.9439017"><ele>242.0</ele><time>2026-05-03T16:48:15.274Z</time></trkpt><trkpt lat="44.7669067" lon="7.944145"><ele>243.0</ele><time>2026-05-03T16:48:16.275Z</time></trkpt><trkpt lat="44.7669783" lon="7.944395"><ele>244.0</ele><time>2026-05-03T16:48:17.274Z</time></trkpt><trkpt lat="44.76706" lon="7.9446467"><ele>244.0</ele><time>2026-05-03T16:48:18.275Z</time></trkpt><trkpt lat="44.7671517" lon="7.9449067"><ele>244.0</ele><time>2026-05-03T16:48:19.274Z</time></trkpt><trkpt lat="44.7672517" lon="7.9451517"><ele>244.0</ele><time>2026-05-03T16:48:20.274Z</time></trkpt><trkpt lat="44.767355" lon="7.9454033"><ele>241.66666666666666</ele><time>2026-05-03T16:48:21.274Z</time></trkpt><trkpt lat="44.7674617" lon="7.945635"><ele>239.33333333333331</ele><time>2026-05-03T16:48:22.274Z</time></trkpt><trkpt lat="44.7675583" lon="7.9458733"><ele>237.0</ele><time>2026-05-03T16:48:23.274Z</time></trkpt><trkpt lat="44.7676533" lon="7.946095"><ele>237.66666666666669</ele><time>2026-05-03T16:48:24.274Z</time></trkpt><trkpt lat="44.7677533" lon="7.9463083"><ele>238.33333333333334</ele><time>2026-05-03T16:48:25.274Z</time></trkpt><trkpt lat="44.7678467" lon="7.946515"><ele>239.0</ele><time>2026-05-03T16:48:26.274Z</time></trkpt><trkpt lat="44.7679433" lon="7.9466917"><ele>236.66666666666669</ele><time>2026-05-03T16:48:27.275Z</time></trkpt><trkpt lat="44.7680417" lon="7.94687"><ele>234.33333333333331</ele><time>2026-05-03T16:48:28.274Z</time></trkpt><trkpt lat="44.768155" lon="7.9470167"><ele>232.0</ele><time>2026-05-03T16:48:29.274Z</time></trkpt><trkpt lat="44.76828" lon="7.9471283"><ele>232.0</ele><time>2026-05-03T16:48:30.274Z</time></trkpt><trkpt lat="44.7684167" lon="7.9472267"><ele>232.0</ele><time>2026-05-03T16:48:31.274Z</time></trkpt><trkpt lat="44.7685683" lon="7.947295"><ele>232.0</ele><time>2026-05-03T16:48:32.274Z</time></trkpt><trkpt lat="44.76873" lon="7.9472983"><ele>232.0</ele><time>2026-05-03T16:48:33.274Z</time></trkpt><trkpt lat="44.768895" lon="7.947265"><ele>232.0</ele><time>2026-05-03T16:48:34.274Z</time></trkpt><trkpt lat="44.7690517" lon="7.9472117"><ele>232.0</ele><time>2026-05-03T16:48:35.274Z</time></trkpt><trkpt lat="44.7692017" lon="7.9471533"><ele>232.0</ele><time>2026-05-03T16:48:36.274Z</time></trkpt><trkpt lat="44.769345" lon="7.9471333"><ele>232.0</ele><time>2026-05-03T16:48:37.275Z</time></trkpt><trkpt lat="44.76949" lon="7.9471317"><ele>232.0</ele><time>2026-05-03T16:48:38.274Z</time></trkpt><trkpt lat="44.7696367" lon="7.9471617"><ele>232.0</ele><time>2026-05-03T16:48:39.274Z</time></trkpt><trkpt lat="44.769775" lon="7.947245"><ele>232.0</ele><time>2026-05-03T16:48:40.274Z</time></trkpt><trkpt lat="44.7699133" lon="7.9473483"><ele>232.0</ele><time>2026-05-03T16:48:41.274Z</time></trkpt><trkpt lat="44.77006" lon="7.94746"><ele>232.0</ele><time>2026-05-03T16:48:42.274Z</time></trkpt><trkpt lat="44.7702183" lon="7.9475617"><ele>230.66666666666666</ele><time>2026-05-03T16:48:43.274Z</time></trkpt><trkpt lat="44.7703933" lon="7.947645"><ele>229.33333333333331</ele><time>2026-05-03T16:48:44.275Z</time></trkpt><trkpt lat="44.770575" lon="7.94772"><ele>228.0</ele><time>2026-05-03T16:48:45.274Z</time></trkpt><trkpt lat="44.77077" lon="7.9478017"><ele>228.0</ele><time>2026-05-03T16:48:46.274Z</time></trkpt><trkpt lat="44.770975" lon="7.9478833"><ele>228.0</ele><time>2026-05-03T16:48:47.274Z</time></trkpt><trkpt lat="44.7711683" lon="7.9479683"><ele>228.0</ele><time>2026-05-03T16:48:48.274Z</time></trkpt><trkpt lat="44.7713583" lon="7.948055"><ele>227.66666666666669</ele><time>2026-05-03T16:48:49.274Z</time></trkpt><trkpt lat="44.7715383" lon="7.9481667"><ele>227.33333333333334</ele><time>2026-05-03T16:48:50.274Z</time></trkpt><trkpt lat="44.771715" lon="7.9483017"><ele>227.0</ele><time>2026-05-03T16:48:51.274Z</time></trkpt><trkpt lat="44.7718867" lon="7.9484533"><ele>227.0</ele><time>2026-05-03T16:48:52.274Z</time></trkpt><trkpt lat="44.7720433" lon="7.9486267"><ele>227.0</ele><time>2026-05-03T16:48:53.274Z</time></trkpt><trkpt lat="44.7722067" lon="7.94881"><ele>227.0</ele><time>2026-05-03T16:48:54.274Z</time></trkpt><trkpt lat="44.7723767" lon="7.948985"><ele>227.0</ele><time>2026-05-03T16:48:55.274Z</time></trkpt><trkpt lat="44.7725433" lon="7.9491667"><ele>227.0</ele><time>2026-05-03T16:48:56.274Z</time></trkpt><trkpt lat="44.7727183" lon="7.9493383"><ele>227.0</ele><time>2026-05-03T16:48:57.274Z</time></trkpt><trkpt lat="44.772885" lon="7.9495183"><ele>227.0</ele><time>2026-05-03T16:48:58.274Z</time></trkpt><trkpt lat="44.773055" lon="7.9496967"><ele>227.0</ele><time>2026-05-03T16:48:59.274Z</time></trkpt><trkpt lat="44.7732283" lon="7.949865"><ele>227.0</ele><time>2026-05-03T16:49:00.274Z</time></trkpt><trkpt lat="44.7733967" lon="7.9500317"><ele>226.33333333333334</ele><time>2026-05-03T16:49:01.274Z</time></trkpt><trkpt lat="44.7735533" lon="7.9501967"><ele>225.66666666666669</ele><time>2026-05-03T16:49:02.275Z</time></trkpt><trkpt lat="44.773715" lon="7.950355"><ele>225.0</ele><time>2026-05-03T16:49:03.274Z</time></trkpt><trkpt lat="44.77387" lon="7.9505267"><ele>225.0</ele><time>2026-05-03T16:49:04.274Z</time></trkpt><trkpt lat="44.77402" lon="7.95069"><ele>225.0</ele><time>2026-05-03T16:49:05.274Z</time></trkpt><trkpt lat="44.77416" lon="7.9508433"><ele>225.0</ele><time>2026-05-03T16:49:06.274Z</time></trkpt><trkpt lat="44.7743133" lon="7.9510017"><ele>224.66666666666669</ele><time>2026-05-03T16:49:07.274Z</time></trkpt><trkpt lat="44.77446" lon="7.9511567"><ele>224.33333333333334</ele><time>2026-05-03T16:49:08.274Z</time></trkpt><trkpt lat="44.7746033" lon="7.9513033"><ele>224.0</ele><time>2026-05-03T16:49:09.274Z</time></trkpt><trkpt lat="44.774745" lon="7.951445"><ele>224.0</ele><time>2026-05-03T16:49:10.274Z</time></trkpt><trkpt lat="44.7748683" lon="7.9515833"><ele>224.0</ele><time>2026-05-03T16:49:11.274Z</time></trkpt><trkpt lat="44.774995" lon="7.9517067"><ele>224.0</ele><time>2026-05-03T16:49:12.274Z</time></trkpt><trkpt lat="44.77512" lon="7.9518217"><ele>225.0</ele><time>2026-05-03T16:49:13.274Z</time></trkpt><trkpt lat="44.7752367" lon="7.9519417"><ele>226.0</ele><time>2026-05-03T16:49:14.274Z</time></trkpt><trkpt lat="44.7753383" lon="7.9520517"><ele>227.0</ele><time>2026-05-03T16:49:15.274Z</time></trkpt><trkpt lat="44.775435" lon="7.9521533"><ele>228.0</ele><time>2026-05-03T16:49:16.274Z</time></trkpt><trkpt lat="44.775525" lon="7.95225"><ele>228.0</ele><time>2026-05-03T16:49:17.274Z</time></trkpt><trkpt lat="44.7756067" lon="7.9523217"><ele>228.0</ele><time>2026-05-03T16:49:18.274Z</time></trkpt><trkpt lat="44.7756783" lon="7.952385"><ele>228.0</ele><time>2026-05-03T16:49:19.274Z</time></trkpt><trkpt lat="44.775745" lon="7.95243"><ele>228.0</ele><time>2026-05-03T16:49:20.274Z</time></trkpt><trkpt lat="44.7758383" lon="7.9523717"><ele>228.0</ele><time>2026-05-03T16:49:22.274Z</time></trkpt><trkpt lat="44.77587" lon="7.9522667"><ele>228.0</ele><time>2026-05-03T16:49:23.275Z</time></trkpt><trkpt lat="44.7758783" lon="7.9521267"><ele>228.0</ele><time>2026-05-03T16:49:24.274Z</time></trkpt><trkpt lat="44.7758867" lon="7.9519717"><ele>228.0</ele><time>2026-05-03T16:49:25.274Z</time></trkpt><trkpt lat="44.77589" lon="7.9517767"><ele>228.0</ele><time>2026-05-03T16:49:26.274Z</time></trkpt><trkpt lat="44.775895" lon="7.9515767"><ele>228.0</ele><time>2026-05-03T16:49:27.274Z</time></trkpt><trkpt lat="44.7759183" lon="7.9513583"><ele>228.0</ele><time>2026-05-03T16:49:28.274Z</time></trkpt><trkpt lat="44.77594" lon="7.9511283"><ele>228.0</ele><time>2026-05-03T16:49:29.274Z</time></trkpt><trkpt lat="44.77597" lon="7.9508767"><ele>228.0</ele><time>2026-05-03T16:49:30.274Z</time></trkpt><trkpt lat="44.77601" lon="7.9506217"><ele>236.0</ele><time>2026-05-03T16:49:31.274Z</time></trkpt><trkpt lat="44.7760417" lon="7.9503467"><ele>244.0</ele><time>2026-05-03T16:49:32.274Z</time></trkpt><trkpt lat="44.776075" lon="7.9500617"><ele>252.0</ele><time>2026-05-03T16:49:33.274Z</time></trkpt><trkpt lat="44.77611" lon="7.9497833"><ele>252.33333333333331</ele><time>2026-05-03T16:49:34.274Z</time></trkpt><trkpt lat="44.7761467" lon="7.949515"><ele>252.66666666666666</ele><time>2026-05-03T16:49:35.274Z</time></trkpt><trkpt lat="44.7761733" lon="7.94925"><ele>253.0</ele><time>2026-05-03T16:49:36.275Z</time></trkpt><trkpt lat="44.7762033" lon="7.948995"><ele>253.66666666666666</ele><time>2026-05-03T16:49:37.274Z</time></trkpt><trkpt lat="44.7762383" lon="7.9487417"><ele>254.33333333333331</ele><time>2026-05-03T16:49:38.274Z</time></trkpt><trkpt lat="44.7762733" lon="7.9484833"><ele>255.0</ele><time>2026-05-03T16:49:39.274Z</time></trkpt><trkpt lat="44.77631" lon="7.9482283"><ele>256.0</ele><time>2026-05-03T16:49:40.274Z</time></trkpt><trkpt lat="44.7763583" lon="7.947975"><ele>257.0</ele><time>2026-05-03T16:49:41.274Z</time></trkpt><trkpt lat="44.7764033" lon="7.9477567"><ele>258.0</ele><time>2026-05-03T16:49:42.274Z</time></trkpt><trkpt lat="44.7764583" lon="7.94756"><ele>256.5</ele><time>2026-05-03T16:49:43.275Z</time></trkpt><trkpt lat="44.7765267" lon="7.9473917"><ele>255.0</ele><time>2026-05-03T16:49:44.274Z</time></trkpt><trkpt lat="44.776615" lon="7.947225"><ele>253.5</ele><time>2026-05-03T16:49:45.274Z</time></trkpt><trkpt lat="44.7767183" lon="7.947075"><ele>252.0</ele><time>2026-05-03T16:49:46.274Z</time></trkpt><trkpt lat="44.77684" lon="7.94694"><ele>252.25</ele><time>2026-05-03T16:49:47.274Z</time></trkpt><trkpt lat="44.7769667" lon="7.9468267"><ele>252.5</ele><time>2026-05-03T16:49:48.274Z</time></trkpt><trkpt lat="44.7770933" lon="7.9467417"><ele>252.75</ele><time>2026-05-03T16:49:49.274Z</time></trkpt><trkpt lat="44.7771917" lon="7.946685"><ele>253.0</ele><time>2026-05-03T16:49:50.274Z</time></trkpt><trkpt lat="44.7772667" lon="7.9466533"><ele>253.0</ele><time>2026-05-03T16:49:51.274Z</time></trkpt><trkpt lat="44.7773317" lon="7.9466617"><ele>253.0</ele><time>2026-05-03T16:49:52.275Z</time></trkpt><trkpt lat="44.77744" lon="7.9467817"><ele>253.0</ele><time>2026-05-03T16:49:54.274Z</time></trkpt><trkpt lat="44.7775233" lon="7.946835"><ele>253.0</ele><time>2026-05-03T16:49:55.274Z</time></trkpt><trkpt lat="44.7776283" lon="7.9468717"><ele>253.0</ele><time>2026-05-03T16:49:56.274Z</time></trkpt><trkpt lat="44.77776" lon="7.9469083"><ele>251.0</ele><time>2026-05-03T16:49:57.274Z</time></trkpt><trkpt lat="44.7779" lon="7.94695"><ele>249.0</ele><time>2026-05-03T16:49:58.274Z</time></trkpt><trkpt lat="44.7780533" lon="7.946965"><ele>247.0</ele><time>2026-05-03T16:49:59.274Z</time></trkpt><trkpt lat="44.7782167" lon="7.9469333"><ele>247.0</ele><time>2026-05-03T16:50:00.274Z</time></trkpt><trkpt lat="44.77839" lon="7.9468517"><ele>247.0</ele><time>2026-05-03T16:50:01.274Z</time></trkpt><trkpt lat="44.7785717" lon="7.94675"><ele>247.0</ele><time>2026-05-03T16:50:02.274Z</time></trkpt><trkpt lat="44.7787617" lon="7.9466367"><ele>243.33333333333331</ele><time>2026-05-03T16:50:03.274Z</time></trkpt><trkpt lat="44.77895" lon="7.94654"><ele>239.66666666666669</ele><time>2026-05-03T16:50:04.274Z</time></trkpt><trkpt lat="44.7791283" lon="7.9464483"><ele>236.0</ele><time>2026-05-03T16:50:05.274Z</time></trkpt><trkpt lat="44.7793183" lon="7.9463667"><ele>236.0</ele><time>2026-05-03T16:50:06.274Z</time></trkpt><trkpt lat="44.779505" lon="7.9463417"><ele>236.0</ele><time>2026-05-03T16:50:07.274Z</time></trkpt><trkpt lat="44.77969" lon="7.946365"><ele>236.0</ele><time>2026-05-03T16:50:08.274Z</time></trkpt><trkpt lat="44.7798833" lon="7.9464233"><ele>236.0</ele><time>2026-05-03T16:50:09.275Z</time></trkpt><trkpt lat="44.7800717" lon="7.946485"><ele>236.0</ele><time>2026-05-03T16:50:10.275Z</time></trkpt><trkpt lat="44.7802517" lon="7.9465333"><ele>236.0</ele><time>2026-05-03T16:50:11.274Z</time></trkpt><trkpt lat="44.7804317" lon="7.9465183"><ele>238.0</ele><time>2026-05-03T16:50:12.274Z</time></trkpt><trkpt lat="44.7806" lon="7.946445"><ele>240.0</ele><time>2026-05-03T16:50:13.274Z</time></trkpt><trkpt lat="44.7807617" lon="7.9463383"><ele>242.0</ele><time>2026-05-03T16:50:14.274Z</time></trkpt><trkpt lat="44.7809083" lon="7.94622"><ele>244.39999999999998</ele><time>2026-05-03T16:50:15.274Z</time></trkpt><trkpt lat="44.7810267" lon="7.9461117"><ele>246.79999999999998</ele><time>2026-05-03T16:50:16.274Z</time></trkpt><trkpt lat="44.7811267" lon="7.94603"><ele>249.2</ele><time>2026-05-03T16:50:17.274Z</time></trkpt><trkpt lat="44.7812033" lon="7.94601"><ele>251.6</ele><time>2026-05-03T16:50:18.274Z</time></trkpt><trkpt lat="44.7812717" lon="7.9460333"><ele>254.0</ele><time>2026-05-03T16:50:19.274Z</time></trkpt><trkpt lat="44.7813367" lon="7.9461617"><ele>254.0</ele><time>2026-05-03T16:50:21.274Z</time></trkpt><trkpt lat="44.781305" lon="7.9462583"><ele>253.99999999999997</ele><time>2026-05-03T16:50:22.274Z</time></trkpt><trkpt lat="44.781245" lon="7.9463367"><ele>253.99999999999997</ele><time>2026-05-03T16:50:23.274Z</time></trkpt><trkpt lat="44.7811433" lon="7.9464317"><ele>254.0</ele><time>2026-05-03T16:50:24.274Z</time></trkpt><trkpt lat="44.7810283" lon="7.9465583"><ele>254.0</ele><time>2026-05-03T16:50:25.274Z</time></trkpt><trkpt lat="44.780935" lon="7.9466933"><ele>254.00000000000003</ele><time>2026-05-03T16:50:26.274Z</time></trkpt><trkpt lat="44.7808983" lon="7.946825"><ele>254.0</ele><time>2026-05-03T16:50:27.274Z</time></trkpt><trkpt lat="44.7809117" lon="7.9469333"><ele>254.0</ele><time>2026-05-03T16:50:28.274Z</time></trkpt><trkpt lat="44.7809633" lon="7.9469967"><ele>254.0</ele><time>2026-05-03T16:50:29.274Z</time></trkpt><trkpt lat="44.7810467" lon="7.947015"><ele>254.00000000000003</ele><time>2026-05-03T16:50:30.274Z</time></trkpt><trkpt lat="44.7811533" lon="7.946985"><ele>254.0</ele><time>2026-05-03T16:50:31.274Z</time></trkpt><trkpt lat="44.7812733" lon="7.9469683"><ele>256.5</ele><time>2026-05-03T16:50:32.274Z</time></trkpt><trkpt lat="44.7814017" lon="7.9469533"><ele>259.0</ele><time>2026-05-03T16:50:33.275Z</time></trkpt><trkpt lat="44.78153" lon="7.9469317"><ele>261.5</ele><time>2026-05-03T16:50:34.274Z</time></trkpt><trkpt lat="44.7816433" lon="7.946895"><ele>264.0</ele><time>2026-05-03T16:50:35.274Z</time></trkpt><trkpt lat="44.7817333" lon="7.9468283"><ele>264.0</ele><time>2026-05-03T16:50:36.274Z</time></trkpt><trkpt lat="44.78179" lon="7.9467233"><ele>264.0</ele><time>2026-05-03T16:50:37.274Z</time></trkpt><trkpt lat="44.781805" lon="7.9465917"><ele>264.0</ele><time>2026-05-03T16:50:38.274Z</time></trkpt><trkpt lat="44.7817867" lon="7.94646"><ele>264.0</ele><time>2026-05-03T16:50:39.274Z</time></trkpt><trkpt lat="44.7817717" lon="7.946345"><ele>264.0</ele><time>2026-05-03T16:50:40.274Z</time></trkpt><trkpt lat="44.7818283" lon="7.9462033"><ele>267.8</ele><time>2026-05-03T16:50:42.274Z</time></trkpt><trkpt lat="44.7819367" lon="7.94623"><ele>271.59999999999997</ele><time>2026-05-03T16:50:44.274Z</time></trkpt><trkpt lat="44.781965" lon="7.946325"><ele>275.4</ele><time>2026-05-03T16:50:45.274Z</time></trkpt><trkpt lat="44.7819733" lon="7.9464683"><ele>279.2</ele><time>2026-05-03T16:50:46.274Z</time></trkpt><trkpt lat="44.7819683" lon="7.9466567"><ele>283.0</ele><time>2026-05-03T16:50:47.274Z</time></trkpt><trkpt lat="44.781935" lon="7.946855"><ele>283.5</ele><time>2026-05-03T16:50:48.274Z</time></trkpt><trkpt lat="44.78189" lon="7.94702"><ele>284.0</ele><time>2026-05-03T16:50:49.274Z</time></trkpt><trkpt lat="44.781815" lon="7.9471617"><ele>284.5</ele><time>2026-05-03T16:50:50.275Z</time></trkpt><trkpt lat="44.78173" lon="7.9472533"><ele>285.0</ele><time>2026-05-03T16:50:51.274Z</time></trkpt><trkpt lat="44.7816467" lon="7.9473517"><ele>280.8</ele><time>2026-05-03T16:50:52.274Z</time></trkpt><trkpt lat="44.7815683" lon="7.9474317"><ele>276.6</ele><time>2026-05-03T16:50:53.275Z</time></trkpt><trkpt lat="44.7814967" lon="7.9475333"><ele>272.4</ele><time>2026-05-03T16:50:54.274Z</time></trkpt><trkpt lat="44.7814467" lon="7.94765"><ele>268.2</ele><time>2026-05-03T16:50:55.274Z</time></trkpt><trkpt lat="44.78144" lon="7.94776"><ele>264.0</ele><time>2026-05-03T16:50:56.274Z</time></trkpt><trkpt lat="44.7814767" lon="7.947855"><ele>263.2</ele><time>2026-05-03T16:50:57.274Z</time></trkpt><trkpt lat="44.781535" lon="7.9479117"><ele>262.4</ele><time>2026-05-03T16:50:58.274Z</time></trkpt><trkpt lat="44.7816133" lon="7.9479017"><ele>261.6</ele><time>2026-05-03T16:50:59.274Z</time></trkpt><trkpt lat="44.7817" lon="7.9478333"><ele>260.8</ele><time>2026-05-03T16:51:00.274Z</time></trkpt><trkpt lat="44.7817783" lon="7.9477083"><ele>260.0</ele><time>2026-05-03T16:51:01.274Z</time></trkpt><trkpt lat="44.7818583" lon="7.94754"><ele>266.25</ele><time>2026-05-03T16:51:02.274Z</time></trkpt><trkpt lat="44.7819533" lon="7.9473633"><ele>272.5</ele><time>2026-05-03T16:51:03.274Z</time></trkpt><trkpt lat="44.7820467" lon="7.9472083"><ele>278.75</ele><time>2026-05-03T16:51:04.274Z</time></trkpt><trkpt lat="44.7821383" lon="7.9470617"><ele>285.0</ele><time>2026-05-03T16:51:05.274Z</time></trkpt><trkpt lat="44.782225" lon="7.94692"><ele>285.0</ele><time>2026-05-03T16:51:06.274Z</time></trkpt><trkpt lat="44.7823083" lon="7.9467683"><ele>285.0</ele><time>2026-05-03T16:51:07.274Z</time></trkpt><trkpt lat="44.78237" lon="7.9465967"><ele>285.0</ele><time>2026-05-03T16:51:08.274Z</time></trkpt><trkpt lat="44.782425" lon="7.94641"><ele>285.0</ele><time>2026-05-03T16:51:09.274Z</time></trkpt><trkpt lat="44.7824683" lon="7.9462183"><ele>284.5</ele><time>2026-05-03T16:51:10.274Z</time></trkpt><trkpt lat="44.7825" lon="7.946045"><ele>284.0</ele><time>2026-05-03T16:51:11.274Z</time></trkpt><trkpt lat="44.78251" lon="7.945885"><ele>283.5</ele><time>2026-05-03T16:51:12.275Z</time></trkpt><trkpt lat="44.7824867" lon="7.9457333"><ele>283.0</ele><time>2026-05-03T16:51:13.274Z</time></trkpt><trkpt lat="44.7824217" lon="7.945595"><ele>282.6</ele><time>2026-05-03T16:51:14.274Z</time></trkpt><trkpt lat="44.7823467" lon="7.94547"><ele>282.20000000000005</ele><time>2026-05-03T16:51:15.274Z</time></trkpt><trkpt lat="44.782285" lon="7.945365"><ele>281.8</ele><time>2026-05-03T16:51:16.275Z</time></trkpt><trkpt lat="44.7822567" lon="7.9452833"><ele>281.40000000000003</ele><time>2026-05-03T16:51:17.274Z</time></trkpt><trkpt lat="44.78229" lon="7.9451483"><ele>281.0</ele><time>2026-05-03T16:51:19.274Z</time></trkpt><trkpt lat="44.7824133" lon="7.9451467"><ele>281.0</ele><time>2026-05-03T16:51:21.274Z</time></trkpt><trkpt lat="44.78249" lon="7.9452333"><ele>281.0</ele><time>2026-05-03T16:51:22.275Z</time></trkpt><trkpt lat="44.7825683" lon="7.9453617"><ele>281.0</ele><time>2026-05-03T16:51:23.274Z</time></trkpt><trkpt lat="44.7826483" lon="7.94549"><ele>281.0</ele><time>2026-05-03T16:51:24.274Z</time></trkpt><trkpt lat="44.782715" lon="7.94562"><ele>284.0</ele><time>2026-05-03T16:51:25.274Z</time></trkpt><trkpt lat="44.7827617" lon="7.9457517"><ele>287.0</ele><time>2026-05-03T16:51:26.274Z</time></trkpt><trkpt lat="44.782785" lon="7.945895"><ele>290.0</ele><time>2026-05-03T16:51:27.274Z</time></trkpt><trkpt lat="44.7827817" lon="7.946045"><ele>293.0</ele><time>2026-05-03T16:51:28.274Z</time></trkpt><trkpt lat="44.7827617" lon="7.9461883"><ele>296.0</ele><time>2026-05-03T16:51:29.274Z</time></trkpt><trkpt lat="44.78274" lon="7.9463083"><ele>298.0</ele><time>2026-05-03T16:51:30.274Z</time></trkpt><trkpt lat="44.7827283" lon="7.9464083"><ele>300.0</ele><time>2026-05-03T16:51:31.274Z</time></trkpt><trkpt lat="44.7827467" lon="7.9464967"><ele>302.0</ele><time>2026-05-03T16:51:32.274Z</time></trkpt><trkpt lat="44.7828583" lon="7.9465417"><ele>304.0</ele><time>2026-05-03T16:51:34.274Z</time></trkpt><trkpt lat="44.7829483" lon="7.94649"><ele>306.0</ele><time>2026-05-03T16:51:35.274Z</time></trkpt><trkpt lat="44.78305" lon="7.9463867"><ele>306.0</ele><time>2026-05-03T16:51:36.274Z</time></trkpt><trkpt lat="44.7831533" lon="7.9462633"><ele>306.0</ele><time>2026-05-03T16:51:37.275Z</time></trkpt><trkpt lat="44.78326" lon="7.94616"><ele>306.0</ele><time>2026-05-03T16:51:38.274Z</time></trkpt><trkpt lat="44.783375" lon="7.9460767"><ele>306.0</ele><time>2026-05-03T16:51:39.274Z</time></trkpt><trkpt lat="44.7835" lon="7.9460067"><ele>307.0</ele><time>2026-05-03T16:51:40.274Z</time></trkpt><trkpt lat="44.7836267" lon="7.9459333"><ele>308.0</ele><time>2026-05-03T16:51:41.274Z</time></trkpt><trkpt lat="44.7837583" lon="7.9458733"><ele>309.0</ele><time>2026-05-03T16:51:42.274Z</time></trkpt><trkpt lat="44.7838833" lon="7.94582"><ele>310.0</ele><time>2026-05-03T16:51:43.274Z</time></trkpt><trkpt lat="44.7840167" lon="7.9457467"><ele>310.0</ele><time>2026-05-03T16:51:44.274Z</time></trkpt><trkpt lat="44.784165" lon="7.9456733"><ele>310.0</ele><time>2026-05-03T16:51:45.274Z</time></trkpt><trkpt lat="44.7843183" lon="7.9455967"><ele>310.0</ele><time>2026-05-03T16:51:46.274Z</time></trkpt><trkpt lat="44.7844733" lon="7.9455133"><ele>313.0</ele><time>2026-05-03T16:51:47.274Z</time></trkpt><trkpt lat="44.7846283" lon="7.9454283"><ele>316.0</ele><time>2026-05-03T16:51:48.274Z</time></trkpt><trkpt lat="44.7847767" lon="7.945365"><ele>319.0</ele><time>2026-05-03T16:51:49.274Z</time></trkpt><trkpt lat="44.7849017" lon="7.9452867"><ele>319.0</ele><time>2026-05-03T16:51:50.274Z</time></trkpt><trkpt lat="44.785005" lon="7.9451783"><ele>319.0</ele><time>2026-05-03T16:51:51.274Z</time></trkpt><trkpt lat="44.785095" lon="7.9450783"><ele>319.0</ele><time>2026-05-03T16:51:52.274Z</time></trkpt><trkpt lat="44.7851767" lon="7.9449783"><ele>319.0</ele><time>2026-05-03T16:51:53.274Z</time></trkpt><trkpt lat="44.78524" lon="7.94489"><ele>319.0</ele><time>2026-05-03T16:51:54.274Z</time></trkpt><trkpt lat="44.7853267" lon="7.94478"><ele>317.0</ele><time>2026-05-03T16:51:56.274Z</time></trkpt><trkpt lat="44.78537" lon="7.94471"><ele>315.0</ele><time>2026-05-03T16:51:57.274Z</time></trkpt><trkpt lat="44.7854283" lon="7.9446367"><ele>313.0</ele><time>2026-05-03T16:51:58.274Z</time></trkpt><trkpt lat="44.7855033" lon="7.9445417"><ele>311.0</ele><time>2026-05-03T16:51:59.274Z</time></trkpt><trkpt lat="44.7855783" lon="7.94445"><ele>309.0</ele><time>2026-05-03T16:52:00.274Z</time></trkpt><trkpt lat="44.7856667" lon="7.9443367"><ele>309.0</ele><time>2026-05-03T16:52:01.274Z</time></trkpt><trkpt lat="44.7857583" lon="7.9442233"><ele>309.0</ele><time>2026-05-03T16:52:02.274Z</time></trkpt><trkpt lat="44.7858533" lon="7.9441067"><ele>309.0</ele><time>2026-05-03T16:52:03.274Z</time></trkpt><trkpt lat="44.7859567" lon="7.943985"><ele>309.0</ele><time>2026-05-03T16:52:04.275Z</time></trkpt><trkpt lat="44.7860583" lon="7.9438567"><ele>305.25</ele><time>2026-05-03T16:52:05.274Z</time></trkpt><trkpt lat="44.7861733" lon="7.9437467"><ele>301.5</ele><time>2026-05-03T16:52:06.274Z</time></trkpt><trkpt lat="44.7862917" lon="7.9436383"><ele>297.75</ele><time>2026-05-03T16:52:07.274Z</time></trkpt><trkpt lat="44.786395" lon="7.9435483"><ele>294.0</ele><time>2026-05-03T16:52:08.274Z</time></trkpt><trkpt lat="44.7865" lon="7.9434367"><ele>295.25</ele><time>2026-05-03T16:52:09.274Z</time></trkpt><trkpt lat="44.7865967" lon="7.9433233"><ele>296.5</ele><time>2026-05-03T16:52:10.274Z</time></trkpt><trkpt lat="44.7866933" lon="7.9432033"><ele>297.75</ele><time>2026-05-03T16:52:11.274Z</time></trkpt><trkpt lat="44.7867883" lon="7.943105"><ele>299.0</ele><time>2026-05-03T16:52:12.274Z</time></trkpt><trkpt lat="44.786875" lon="7.9429983"><ele>299.0</ele><time>2026-05-03T16:52:13.274Z</time></trkpt><trkpt lat="44.7869583" lon="7.9428967"><ele>299.0</ele><time>2026-05-03T16:52:14.274Z</time></trkpt><trkpt lat="44.7870383" lon="7.9428083"><ele>299.0</ele><time>2026-05-03T16:52:15.274Z</time></trkpt><trkpt lat="44.7871283" lon="7.94273"><ele>299.0</ele><time>2026-05-03T16:52:16.274Z</time></trkpt><trkpt lat="44.7872167" lon="7.9426367"><ele>299.0</ele><time>2026-05-03T16:52:17.274Z</time></trkpt><trkpt lat="44.7873017" lon="7.9425783"><ele>301.0</ele><time>2026-05-03T16:52:18.274Z</time></trkpt><trkpt lat="44.7873717" lon="7.9425467"><ele>303.0</ele><time>2026-05-03T16:52:19.274Z</time></trkpt><trkpt lat="44.7874367" lon="7.9425133"><ele>305.0</ele><time>2026-05-03T16:52:20.274Z</time></trkpt><trkpt lat="44.7875083" lon="7.9424767"><ele>307.0</ele><time>2026-05-03T16:52:21.274Z</time></trkpt><trkpt lat="44.7875767" lon="7.942435"><ele>309.0</ele><time>2026-05-03T16:52:22.274Z</time></trkpt><trkpt lat="44.78764" lon="7.94238"><ele>311.0</ele><time>2026-05-03T16:52:23.274Z</time></trkpt><trkpt lat="44.7877017" lon="7.9423433"><ele>313.0</ele><time>2026-05-03T16:52:24.274Z</time></trkpt><trkpt lat="44.78776" lon="7.9422967"><ele>313.0</ele><time>2026-05-03T16:52:25.274Z</time></trkpt><trkpt lat="44.7878267" lon="7.9422533"><ele>313.0</ele><time>2026-05-03T16:52:26.275Z</time></trkpt><trkpt lat="44.7879" lon="7.942205"><ele>313.0</ele><time>2026-05-03T16:52:27.274Z</time></trkpt><trkpt lat="44.7879733" lon="7.9421517"><ele>313.0</ele><time>2026-05-03T16:52:28.274Z</time></trkpt><trkpt lat="44.7880417" lon="7.9420983"><ele>313.0</ele><time>2026-05-03T16:52:29.274Z</time></trkpt><trkpt lat="44.7881133" lon="7.9420417"><ele>313.0</ele><time>2026-05-03T16:52:30.275Z</time></trkpt><trkpt lat="44.7881833" lon="7.9419917"><ele>313.0</ele><time>2026-05-03T16:52:31.274Z</time></trkpt><trkpt lat="44.788245" lon="7.9419317"><ele>313.0</ele><time>2026-05-03T16:52:32.275Z</time></trkpt><trkpt lat="44.7883117" lon="7.941875"><ele>313.0</ele><time>2026-05-03T16:52:33.274Z</time></trkpt><trkpt lat="44.78837" lon="7.9418017"><ele>313.0</ele><time>2026-05-03T16:52:34.275Z</time></trkpt><trkpt lat="44.7884133" lon="7.94172"><ele>313.0</ele><time>2026-05-03T16:52:35.274Z</time></trkpt><trkpt lat="44.7884567" lon="7.9416117"><ele>313.0</ele><time>2026-05-03T16:52:36.274Z</time></trkpt><trkpt lat="44.788495" lon="7.9414617"><ele>319.75</ele><time>2026-05-03T16:52:37.274Z</time></trkpt><trkpt lat="44.7885317" lon="7.941295"><ele>326.5</ele><time>2026-05-03T16:52:38.274Z</time></trkpt><trkpt lat="44.788575" lon="7.9411217"><ele>333.25</ele><time>2026-05-03T16:52:39.275Z</time></trkpt><trkpt lat="44.788625" lon="7.9409333"><ele>340.0</ele><time>2026-05-03T16:52:40.274Z</time></trkpt><trkpt lat="44.78868" lon="7.940735"><ele>343.75</ele><time>2026-05-03T16:52:41.274Z</time></trkpt><trkpt lat="44.7887383" lon="7.9405617"><ele>347.5</ele><time>2026-05-03T16:52:42.274Z</time></trkpt><trkpt lat="44.7887883" lon="7.9403867"><ele>351.25</ele><time>2026-05-03T16:52:43.274Z</time></trkpt><trkpt lat="44.7888233" lon="7.9402417"><ele>355.0</ele><time>2026-05-03T16:52:44.274Z</time></trkpt><trkpt lat="44.78885" lon="7.9401117"><ele>353.8333333333333</ele><time>2026-05-03T16:52:45.274Z</time></trkpt><trkpt lat="44.7888817" lon="7.9400033"><ele>352.66666666666663</ele><time>2026-05-03T16:52:46.274Z</time></trkpt><trkpt lat="44.78892" lon="7.93991"><ele>351.5</ele><time>2026-05-03T16:52:47.274Z</time></trkpt><trkpt lat="44.78895" lon="7.9398083"><ele>350.3333333333333</ele><time>2026-05-03T16:52:48.275Z</time></trkpt><trkpt lat="44.78898" lon="7.9397067"><ele>349.1666666666667</ele><time>2026-05-03T16:52:49.274Z</time></trkpt><trkpt lat="44.78902" lon="7.9396067"><ele>348.0</ele><time>2026-05-03T16:52:50.274Z</time></trkpt><trkpt lat="44.78908" lon="7.9395233"><ele>348.0</ele><time>2026-05-03T16:52:51.274Z</time></trkpt><trkpt lat="44.7891867" lon="7.9394933"><ele>348.0</ele><time>2026-05-03T16:52:52.274Z</time></trkpt><trkpt lat="44.789315" lon="7.93947"><ele>348.0</ele><time>2026-05-03T16:52:53.274Z</time></trkpt><trkpt lat="44.78945" lon="7.9394283"><ele>348.0</ele><time>2026-05-03T16:52:54.274Z</time></trkpt><trkpt lat="44.7895733" lon="7.939345"><ele>346.0</ele><time>2026-05-03T16:52:55.274Z</time></trkpt><trkpt lat="44.7896933" lon="7.9392333"><ele>344.0</ele><time>2026-05-03T16:52:56.274Z</time></trkpt><trkpt lat="44.7898083" lon="7.939105"><ele>342.0</ele><time>2026-05-03T16:52:57.274Z</time></trkpt><trkpt lat="44.7899283" lon="7.9389717"><ele>340.0</ele><time>2026-05-03T16:52:58.274Z</time></trkpt><trkpt lat="44.7900367" lon="7.93884"><ele>340.0</ele><time>2026-05-03T16:52:59.274Z</time></trkpt><trkpt lat="44.7901217" lon="7.9386933"><ele>340.0</ele><time>2026-05-03T16:53:00.274Z</time></trkpt><trkpt lat="44.79019" lon="7.9385217"><ele>340.0</ele><time>2026-05-03T16:53:01.274Z</time></trkpt><trkpt lat="44.79024" lon="7.938345"><ele>340.0</ele><time>2026-05-03T16:53:02.274Z</time></trkpt><trkpt lat="44.7902967" lon="7.9381483"><ele>341.3333333333333</ele><time>2026-05-03T16:53:03.274Z</time></trkpt><trkpt lat="44.7903833" lon="7.9379717"><ele>342.6666666666667</ele><time>2026-05-03T16:53:04.275Z</time></trkpt><trkpt lat="44.7904933" lon="7.9378083"><ele>344.0</ele><time>2026-05-03T16:53:05.274Z</time></trkpt><trkpt lat="44.7906117" lon="7.93766"><ele>347.6666666666667</ele><time>2026-05-03T16:53:06.275Z</time></trkpt><trkpt lat="44.7907333" lon="7.9375117"><ele>351.3333333333333</ele><time>2026-05-03T16:53:07.274Z</time></trkpt><trkpt lat="44.7908467" lon="7.93737"><ele>355.0</ele><time>2026-05-03T16:53:08.274Z</time></trkpt><trkpt lat="44.7909483" lon="7.937205"><ele>357.75</ele><time>2026-05-03T16:53:09.274Z</time></trkpt><trkpt lat="44.7910183" lon="7.9370233"><ele>360.5</ele><time>2026-05-03T16:53:10.274Z</time></trkpt><trkpt lat="44.7910667" lon="7.93683"><ele>363.25</ele><time>2026-05-03T16:53:11.274Z</time></trkpt><trkpt lat="44.7911167" lon="7.93663"><ele>366.0</ele><time>2026-05-03T16:53:12.274Z</time></trkpt><trkpt lat="44.791165" lon="7.93643"><ele>366.0</ele><time>2026-05-03T16:53:13.274Z</time></trkpt><trkpt lat="44.7912317" lon="7.9362133"><ele>366.0</ele><time>2026-05-03T16:53:14.274Z</time></trkpt><trkpt lat="44.79129" lon="7.9359767"><ele>366.0</ele><time>2026-05-03T16:53:15.274Z</time></trkpt><trkpt lat="44.7913517" lon="7.93574"><ele>366.0</ele><time>2026-05-03T16:53:16.274Z</time></trkpt><trkpt lat="44.7914283" lon="7.935505"><ele>366.0</ele><time>2026-05-03T16:53:17.274Z</time></trkpt><trkpt lat="44.7915067" lon="7.935265"><ele>366.0</ele><time>2026-05-03T16:53:18.274Z</time></trkpt><trkpt lat="44.7915883" lon="7.9350167"><ele>364.0</ele><time>2026-05-03T16:53:19.274Z</time></trkpt><trkpt lat="44.7916617" lon="7.934755"><ele>362.0</ele><time>2026-05-03T16:53:20.274Z</time></trkpt><trkpt lat="44.79175" lon="7.934505"><ele>360.0</ele><time>2026-05-03T16:53:21.274Z</time></trkpt><trkpt lat="44.7918267" lon="7.9342483"><ele>361.3333333333333</ele><time>2026-05-03T16:53:22.274Z</time></trkpt><trkpt lat="44.7919017" lon="7.9339883"><ele>362.66666666666663</ele><time>2026-05-03T16:53:23.274Z</time></trkpt><trkpt lat="44.7919717" lon="7.933735"><ele>364.0</ele><time>2026-05-03T16:53:24.274Z</time></trkpt><trkpt lat="44.792055" lon="7.9334883"><ele>362.3333333333333</ele><time>2026-05-03T16:53:25.274Z</time></trkpt><trkpt lat="44.7921467" lon="7.9332317"><ele>360.6666666666667</ele><time>2026-05-03T16:53:26.274Z</time></trkpt><trkpt lat="44.7922517" lon="7.93297"><ele>359.0</ele><time>2026-05-03T16:53:27.274Z</time></trkpt><trkpt lat="44.792355" lon="7.9327133"><ele>357.0</ele><time>2026-05-03T16:53:28.274Z</time></trkpt><trkpt lat="44.7924483" lon="7.9324633"><ele>355.0</ele><time>2026-05-03T16:53:29.274Z</time></trkpt><trkpt lat="44.79255" lon="7.932215"><ele>353.0</ele><time>2026-05-03T16:53:30.274Z</time></trkpt><trkpt lat="44.7926433" lon="7.93198"><ele>353.0</ele><time>2026-05-03T16:53:31.274Z</time></trkpt><trkpt lat="44.792735" lon="7.9317383"><ele>353.0</ele><time>2026-05-03T16:53:32.274Z</time></trkpt><trkpt lat="44.7928167" lon="7.93152"><ele>353.0</ele><time>2026-05-03T16:53:33.274Z</time></trkpt><trkpt lat="44.7928967" lon="7.9313217"><ele>353.0</ele><time>2026-05-03T16:53:34.274Z</time></trkpt><trkpt lat="44.79296" lon="7.931145"><ele>353.0</ele><time>2026-05-03T16:53:35.274Z</time></trkpt><trkpt lat="44.7930267" lon="7.9310183"><ele>353.0</ele><time>2026-05-03T16:53:36.274Z</time></trkpt><trkpt lat="44.7930967" lon="7.930915"><ele>353.0</ele><time>2026-05-03T16:53:37.274Z</time></trkpt><trkpt lat="44.793165" lon="7.9308633"><ele>353.0</ele><time>2026-05-03T16:53:38.274Z</time></trkpt><trkpt lat="44.7932483" lon="7.9308733"><ele>353.0</ele><time>2026-05-03T16:53:39.274Z</time></trkpt><trkpt lat="44.79333" lon="7.9309233"><ele>353.0</ele><time>2026-05-03T16:53:40.274Z</time></trkpt><trkpt lat="44.793415" lon="7.9310233"><ele>353.0</ele><time>2026-05-03T16:53:41.274Z</time></trkpt><trkpt lat="44.7934933" lon="7.9311667"><ele>353.0</ele><time>2026-05-03T16:53:42.274Z</time></trkpt><trkpt lat="44.79359" lon="7.9313317"><ele>354.25</ele><time>2026-05-03T16:53:43.274Z</time></trkpt><trkpt lat="44.7936867" lon="7.9314967"><ele>355.5</ele><time>2026-05-03T16:53:44.274Z</time></trkpt><trkpt lat="44.7937933" lon="7.931655"><ele>356.75</ele><time>2026-05-03T16:53:45.274Z</time></trkpt><trkpt lat="44.7938833" lon="7.93179"><ele>358.0</ele><time>2026-05-03T16:53:46.274Z</time></trkpt><trkpt lat="44.7939683" lon="7.93192"><ele>359.4</ele><time>2026-05-03T16:53:47.274Z</time></trkpt><trkpt lat="44.79407" lon="7.9320267"><ele>360.79999999999995</ele><time>2026-05-03T16:53:48.274Z</time></trkpt><trkpt lat="44.7941717" lon="7.9320933"><ele>362.2</ele><time>2026-05-03T16:53:49.274Z</time></trkpt><trkpt lat="44.7942667" lon="7.93211"><ele>363.6</ele><time>2026-05-03T16:53:50.274Z</time></trkpt><trkpt lat="44.794365" lon="7.932055"><ele>365.0</ele><time>2026-05-03T16:53:51.274Z</time></trkpt><trkpt lat="44.79447" lon="7.9319483"><ele>368.0</ele><time>2026-05-03T16:53:52.274Z</time></trkpt><trkpt lat="44.7945633" lon="7.93182"><ele>371.0</ele><time>2026-05-03T16:53:53.274Z</time></trkpt><trkpt lat="44.7946383" lon="7.9316833"><ele>374.0</ele><time>2026-05-03T16:53:54.274Z</time></trkpt><trkpt lat="44.7946933" lon="7.931535"><ele>377.0</ele><time>2026-05-03T16:53:55.275Z</time></trkpt><trkpt lat="44.7947033" lon="7.93139"><ele>377.0</ele><time>2026-05-03T16:53:56.274Z</time></trkpt><trkpt lat="44.79467" lon="7.931245"><ele>377.0</ele><time>2026-05-03T16:53:57.274Z</time></trkpt><trkpt lat="44.79462" lon="7.9310767"><ele>377.0</ele><time>2026-05-03T16:53:58.274Z</time></trkpt><trkpt lat="44.7945817" lon="7.9308967"><ele>377.0</ele><time>2026-05-03T16:53:59.274Z</time></trkpt><trkpt lat="44.79459" lon="7.9307183"><ele>376.5</ele><time>2026-05-03T16:54:00.274Z</time></trkpt><trkpt lat="44.7946367" lon="7.9305233"><ele>376.0</ele><time>2026-05-03T16:54:01.274Z</time></trkpt><trkpt lat="44.79469" lon="7.9303267"><ele>375.5</ele><time>2026-05-03T16:54:02.274Z</time></trkpt><trkpt lat="44.794735" lon="7.93019"><ele>375.0</ele><time>2026-05-03T16:54:03.275Z</time></trkpt><trkpt lat="44.794805" lon="7.9300517"><ele>375.0</ele><time>2026-05-03T16:54:04.274Z</time></trkpt><trkpt lat="44.7949" lon="7.9299717"><ele>375.0</ele><time>2026-05-03T16:54:05.274Z</time></trkpt><trkpt lat="44.7950167" lon="7.9299533"><ele>375.0</ele><time>2026-05-03T16:54:06.274Z</time></trkpt><trkpt lat="44.7951383" lon="7.9299933"><ele>375.0</ele><time>2026-05-03T16:54:07.274Z</time></trkpt><trkpt lat="44.7952667" lon="7.93007"><ele>378.5</ele><time>2026-05-03T16:54:08.274Z</time></trkpt><trkpt lat="44.795395" lon="7.930145"><ele>382.0</ele><time>2026-05-03T16:54:09.274Z</time></trkpt><trkpt lat="44.7955317" lon="7.9302167"><ele>385.5</ele><time>2026-05-03T16:54:10.274Z</time></trkpt><trkpt lat="44.79567" lon="7.93028"><ele>389.0</ele><time>2026-05-03T16:54:11.275Z</time></trkpt><trkpt lat="44.795805" lon="7.9303483"><ele>389.0</ele><time>2026-05-03T16:54:12.274Z</time></trkpt><trkpt lat="44.7959517" lon="7.9303967"><ele>389.0</ele><time>2026-05-03T16:54:13.274Z</time></trkpt><trkpt lat="44.796085" lon="7.9304533"><ele>389.0</ele><time>2026-05-03T16:54:14.274Z</time></trkpt><trkpt lat="44.7962233" lon="7.93049"><ele>389.0</ele><time>2026-05-03T16:54:15.275Z</time></trkpt><trkpt lat="44.7963517" lon="7.9305067"><ele>388.75</ele><time>2026-05-03T16:54:16.274Z</time></trkpt><trkpt lat="44.7964767" lon="7.930495"><ele>388.5</ele><time>2026-05-03T16:54:17.274Z</time></trkpt><trkpt lat="44.79661" lon="7.9304467"><ele>388.25</ele><time>2026-05-03T16:54:18.274Z</time></trkpt><trkpt lat="44.79674" lon="7.9303817"><ele>388.0</ele><time>2026-05-03T16:54:19.274Z</time></trkpt><trkpt lat="44.796875" lon="7.9303183"><ele>385.25</ele><time>2026-05-03T16:54:20.274Z</time></trkpt><trkpt lat="44.797" lon="7.9302617"><ele>382.5</ele><time>2026-05-03T16:54:21.274Z</time></trkpt><trkpt lat="44.7971233" lon="7.9301933"><ele>379.75</ele><time>2026-05-03T16:54:22.274Z</time></trkpt><trkpt lat="44.79723" lon="7.9301017"><ele>377.0</ele><time>2026-05-03T16:54:23.275Z</time></trkpt><trkpt lat="44.7973033" lon="7.9299667"><ele>377.0</ele><time>2026-05-03T16:54:24.274Z</time></trkpt><trkpt lat="44.7973683" lon="7.9298083"><ele>377.0</ele><time>2026-05-03T16:54:25.274Z</time></trkpt><trkpt lat="44.797435" lon="7.9296433"><ele>377.0</ele><time>2026-05-03T16:54:26.274Z</time></trkpt><trkpt lat="44.7975267" lon="7.929495"><ele>377.0</ele><time>2026-05-03T16:54:27.274Z</time></trkpt><trkpt lat="44.79764" lon="7.9293717"><ele>378.6666666666667</ele><time>2026-05-03T16:54:28.275Z</time></trkpt><trkpt lat="44.7977783" lon="7.9292783"><ele>380.3333333333333</ele><time>2026-05-03T16:54:29.274Z</time></trkpt><trkpt lat="44.7979333" lon="7.9292033"><ele>382.0</ele><time>2026-05-03T16:54:30.274Z</time></trkpt><trkpt lat="44.7980783" lon="7.9291217"><ele>382.0</ele><time>2026-05-03T16:54:31.274Z</time></trkpt><trkpt lat="44.7982233" lon="7.9290333"><ele>382.0</ele><time>2026-05-03T16:54:32.274Z</time></trkpt><trkpt lat="44.79836" lon="7.9289167"><ele>382.0</ele><time>2026-05-03T16:54:33.274Z</time></trkpt><trkpt lat="44.7984883" lon="7.9288"><ele>381.3333333333333</ele><time>2026-05-03T16:54:34.274Z</time></trkpt><trkpt lat="44.7986233" lon="7.9286633"><ele>380.6666666666667</ele><time>2026-05-03T16:54:35.274Z</time></trkpt><trkpt lat="44.7987467" lon="7.9285517"><ele>380.0</ele><time>2026-05-03T16:54:36.274Z</time></trkpt><trkpt lat="44.798885" lon="7.9284483"><ele>382.33333333333337</ele><time>2026-05-03T16:54:37.274Z</time></trkpt><trkpt lat="44.7990083" lon="7.9283317"><ele>384.6666666666667</ele><time>2026-05-03T16:54:38.274Z</time></trkpt><trkpt lat="44.7991367" lon="7.9281933"><ele>387.0</ele><time>2026-05-03T16:54:39.274Z</time></trkpt><trkpt lat="44.7992483" lon="7.92804"><ele>386.66666666666663</ele><time>2026-05-03T16:54:40.275Z</time></trkpt><trkpt lat="44.7993483" lon="7.927865"><ele>386.3333333333333</ele><time>2026-05-03T16:54:41.274Z</time></trkpt><trkpt lat="44.7994667" lon="7.9276917"><ele>386.0</ele><time>2026-05-03T16:54:42.274Z</time></trkpt><trkpt lat="44.79959" lon="7.9275117"><ele>386.0</ele><time>2026-05-03T16:54:43.275Z</time></trkpt><trkpt lat="44.7997133" lon="7.9273267"><ele>386.0</ele><time>2026-05-03T16:54:44.274Z</time></trkpt><trkpt lat="44.7998283" lon="7.9271233"><ele>386.0</ele><time>2026-05-03T16:54:45.274Z</time></trkpt><trkpt lat="44.799925" lon="7.9269283"><ele>386.0</ele><time>2026-05-03T16:54:46.274Z</time></trkpt><trkpt lat="44.8000167" lon="7.9267283"><ele>386.0</ele><time>2026-05-03T16:54:47.274Z</time></trkpt><trkpt lat="44.8001067" lon="7.9265333"><ele>386.0</ele><time>2026-05-03T16:54:48.274Z</time></trkpt><trkpt lat="44.8002133" lon="7.9263617"><ele>386.0</ele><time>2026-05-03T16:54:49.274Z</time></trkpt><trkpt lat="44.800325" lon="7.92621"><ele>386.0</ele><time>2026-05-03T16:54:50.274Z</time></trkpt><trkpt lat="44.800425" lon="7.926095"><ele>386.0</ele><time>2026-05-03T16:54:51.274Z</time></trkpt><trkpt lat="44.80052" lon="7.9260133"><ele>386.0</ele><time>2026-05-03T16:54:52.274Z</time></trkpt><trkpt lat="44.80062" lon="7.9259817"><ele>386.0</ele><time>2026-05-03T16:54:53.274Z</time></trkpt><trkpt lat="44.80072" lon="7.9259967"><ele>386.0</ele><time>2026-05-03T16:54:54.274Z</time></trkpt><trkpt lat="44.8008267" lon="7.9260517"><ele>386.0</ele><time>2026-05-03T16:54:55.274Z</time></trkpt><trkpt lat="44.8009317" lon="7.9261383"><ele>386.0</ele><time>2026-05-03T16:54:56.274Z</time></trkpt><trkpt lat="44.80104" lon="7.92623"><ele>385.75</ele><time>2026-05-03T16:54:57.274Z</time></trkpt><trkpt lat="44.801135" lon="7.9263233"><ele>385.5</ele><time>2026-05-03T16:54:58.274Z</time></trkpt><trkpt lat="44.8012417" lon="7.9263967"><ele>385.25</ele><time>2026-05-03T16:54:59.275Z</time></trkpt><trkpt lat="44.8013617" lon="7.9264417"><ele>385.0</ele><time>2026-05-03T16:55:00.274Z</time></trkpt><trkpt lat="44.8014883" lon="7.9264567"><ele>385.0</ele><time>2026-05-03T16:55:01.274Z</time></trkpt><trkpt lat="44.8016283" lon="7.9264683"><ele>385.0</ele><time>2026-05-03T16:55:02.274Z</time></trkpt><trkpt lat="44.801795" lon="7.9264667"><ele>385.0</ele><time>2026-05-03T16:55:03.274Z</time></trkpt><trkpt lat="44.801955" lon="7.9264767"><ele>384.33333333333337</ele><time>2026-05-03T16:55:04.274Z</time></trkpt><trkpt lat="44.8021133" lon="7.92652"><ele>383.6666666666667</ele><time>2026-05-03T16:55:05.274Z</time></trkpt><trkpt lat="44.8022783" lon="7.9265717"><ele>383.0</ele><time>2026-05-03T16:55:06.274Z</time></trkpt><trkpt lat="44.8024483" lon="7.9266483"><ele>383.0</ele><time>2026-05-03T16:55:07.274Z</time></trkpt><trkpt lat="44.8026167" lon="7.92672"><ele>383.0</ele><time>2026-05-03T16:55:08.274Z</time></trkpt><trkpt lat="44.8027817" lon="7.926785"><ele>383.0</ele><time>2026-05-03T16:55:09.274Z</time></trkpt><trkpt lat="44.802945" lon="7.9268333"><ele>381.33333333333337</ele><time>2026-05-03T16:55:10.274Z</time></trkpt><trkpt lat="44.80311" lon="7.9268867"><ele>379.6666666666667</ele><time>2026-05-03T16:55:11.274Z</time></trkpt><trkpt lat="44.8032717" lon="7.92693"><ele>378.0</ele><time>2026-05-03T16:55:12.274Z</time></trkpt><trkpt lat="44.8034133" lon="7.926975"><ele>377.4</ele><time>2026-05-03T16:55:13.275Z</time></trkpt><trkpt lat="44.80354" lon="7.9270167"><ele>376.79999999999995</ele><time>2026-05-03T16:55:14.274Z</time></trkpt><trkpt lat="44.8036367" lon="7.9270733"><ele>376.2</ele><time>2026-05-03T16:55:15.274Z</time></trkpt><trkpt lat="44.803705" lon="7.9271583"><ele>375.6</ele><time>2026-05-03T16:55:16.274Z</time></trkpt><trkpt lat="44.8037633" lon="7.9272517"><ele>375.0</ele><time>2026-05-03T16:55:17.274Z</time></trkpt><trkpt lat="44.8038083" lon="7.927395"><ele>375.0</ele><time>2026-05-03T16:55:18.274Z</time></trkpt><trkpt lat="44.8038533" lon="7.927555"><ele>375.0</ele><time>2026-05-03T16:55:19.274Z</time></trkpt><trkpt lat="44.803895" lon="7.9277283"><ele>375.0</ele><time>2026-05-03T16:55:20.274Z</time></trkpt><trkpt lat="44.8039433" lon="7.9279083"><ele>375.0</ele><time>2026-05-03T16:55:21.275Z</time></trkpt><trkpt lat="44.8039933" lon="7.9280983"><ele>372.3333333333333</ele><time>2026-05-03T16:55:22.275Z</time></trkpt><trkpt lat="44.8040433" lon="7.9283083"><ele>369.66666666666663</ele><time>2026-05-03T16:55:23.274Z</time></trkpt><trkpt lat="44.8041083" lon="7.9285383"><ele>367.0</ele><time>2026-05-03T16:55:24.274Z</time></trkpt><trkpt lat="44.8041683" lon="7.9287917"><ele>365.3333333333333</ele><time>2026-05-03T16:55:25.274Z</time></trkpt><trkpt lat="44.8042483" lon="7.9290333"><ele>363.6666666666667</ele><time>2026-05-03T16:55:26.274Z</time></trkpt><trkpt lat="44.8043283" lon="7.9292767"><ele>362.0</ele><time>2026-05-03T16:55:27.274Z</time></trkpt><trkpt lat="44.8044117" lon="7.9295133"><ele>360.33333333333337</ele><time>2026-05-03T16:55:28.275Z</time></trkpt><trkpt lat="44.8044967" lon="7.929755"><ele>358.6666666666667</ele><time>2026-05-03T16:55:29.274Z</time></trkpt><trkpt lat="44.8045817" lon="7.9299967"><ele>357.0</ele><time>2026-05-03T16:55:30.274Z</time></trkpt><trkpt lat="44.8046633" lon="7.93024"><ele>357.0</ele><time>2026-05-03T16:55:31.274Z</time></trkpt><trkpt lat="44.80474" lon="7.9304683"><ele>357.0</ele><time>2026-05-03T16:55:32.275Z</time></trkpt><trkpt lat="44.8048" lon="7.9307033"><ele>357.0</ele><time>2026-05-03T16:55:33.274Z</time></trkpt><trkpt lat="44.8048683" lon="7.9309233"><ele>356.0</ele><time>2026-05-03T16:55:34.274Z</time></trkpt><trkpt lat="44.8049467" lon="7.931135"><ele>355.0</ele><time>2026-05-03T16:55:35.274Z</time></trkpt><trkpt lat="44.8050317" lon="7.931315"><ele>354.0</ele><time>2026-05-03T16:55:36.275Z</time></trkpt><trkpt lat="44.8051233" lon="7.93146"><ele>353.75</ele><time>2026-05-03T16:55:37.275Z</time></trkpt><trkpt lat="44.8052267" lon="7.9315667"><ele>353.5</ele><time>2026-05-03T16:55:38.274Z</time></trkpt><trkpt lat="44.80535" lon="7.9316333"><ele>353.25</ele><time>2026-05-03T16:55:39.274Z</time></trkpt><trkpt lat="44.8054867" lon="7.9316683"><ele>353.0</ele><time>2026-05-03T16:55:40.274Z</time></trkpt><trkpt lat="44.8056217" lon="7.9316833"><ele>353.0</ele><time>2026-05-03T16:55:41.274Z</time></trkpt><trkpt lat="44.805775" lon="7.9317017"><ele>353.0</ele><time>2026-05-03T16:55:42.274Z</time></trkpt><trkpt lat="44.805925" lon="7.9317267"><ele>353.0</ele><time>2026-05-03T16:55:43.274Z</time></trkpt><trkpt lat="44.8060533" lon="7.9317633"><ele>353.0</ele><time>2026-05-03T16:55:44.274Z</time></trkpt><trkpt lat="44.8061483" lon="7.9318317"><ele>351.0</ele><time>2026-05-03T16:55:45.274Z</time></trkpt><trkpt lat="44.8062133" lon="7.9319317"><ele>349.0</ele><time>2026-05-03T16:55:46.274Z</time></trkpt><trkpt lat="44.8062383" lon="7.932055"><ele>347.0</ele><time>2026-05-03T16:55:47.274Z</time></trkpt><trkpt lat="44.806235" lon="7.93218"><ele>345.0</ele><time>2026-05-03T16:55:48.274Z</time></trkpt><trkpt lat="44.8061933" lon="7.9323267"><ele>343.0</ele><time>2026-05-03T16:55:49.274Z</time></trkpt><trkpt lat="44.806125" lon="7.9324683"><ele>344.0</ele><time>2026-05-03T16:55:50.274Z</time></trkpt><trkpt lat="44.806035" lon="7.9326283"><ele>345.0</ele><time>2026-05-03T16:55:51.274Z</time></trkpt><trkpt lat="44.8059567" lon="7.932795"><ele>346.0</ele><time>2026-05-03T16:55:52.274Z</time></trkpt><trkpt lat="44.8059117" lon="7.9329783"><ele>347.0</ele><time>2026-05-03T16:55:53.274Z</time></trkpt><trkpt lat="44.80589" lon="7.933185"><ele>347.0</ele><time>2026-05-03T16:55:54.275Z</time></trkpt><trkpt lat="44.8058917" lon="7.9334017"><ele>347.0</ele><time>2026-05-03T16:55:55.275Z</time></trkpt><trkpt lat="44.805905" lon="7.9336067"><ele>347.0</ele><time>2026-05-03T16:55:56.274Z</time></trkpt><trkpt lat="44.8059267" lon="7.9338033"><ele>347.0</ele><time>2026-05-03T16:55:57.274Z</time></trkpt><trkpt lat="44.80598" lon="7.934"><ele>343.33333333333337</ele><time>2026-05-03T16:55:58.274Z</time></trkpt><trkpt lat="44.8060767" lon="7.9341817"><ele>339.6666666666667</ele><time>2026-05-03T16:55:59.274Z</time></trkpt><trkpt lat="44.80621" lon="7.9343483"><ele>336.0</ele><time>2026-05-03T16:56:00.275Z</time></trkpt><trkpt lat="44.8063417" lon="7.9345183"><ele>335.0</ele><time>2026-05-03T16:56:01.274Z</time></trkpt><trkpt lat="44.8064617" lon="7.9347017"><ele>334.0</ele><time>2026-05-03T16:56:02.274Z</time></trkpt><trkpt lat="44.8065633" lon="7.93489"><ele>333.0</ele><time>2026-05-03T16:56:03.274Z</time></trkpt><trkpt lat="44.8066583" lon="7.9351"><ele>332.0</ele><time>2026-05-03T16:56:04.274Z</time></trkpt><trkpt lat="44.8067317" lon="7.9353"><ele>331.0</ele><time>2026-05-03T16:56:05.274Z</time></trkpt><trkpt lat="44.8067717" lon="7.9355"><ele>330.0</ele><time>2026-05-03T16:56:06.274Z</time></trkpt><trkpt lat="44.806775" lon="7.9356733"><ele>329.0</ele><time>2026-05-03T16:56:07.274Z</time></trkpt><trkpt lat="44.8067417" lon="7.935845"><ele>329.0</ele><time>2026-05-03T16:56:08.274Z</time></trkpt><trkpt lat="44.8066817" lon="7.9360117"><ele>329.0</ele><time>2026-05-03T16:56:09.274Z</time></trkpt><trkpt lat="44.8066067" lon="7.9361767"><ele>329.0</ele><time>2026-05-03T16:56:10.274Z</time></trkpt><trkpt lat="44.80654" lon="7.9363533"><ele>329.0</ele><time>2026-05-03T16:56:11.275Z</time></trkpt><trkpt lat="44.8064917" lon="7.9365467"><ele>327.33333333333337</ele><time>2026-05-03T16:56:12.274Z</time></trkpt><trkpt lat="44.8064567" lon="7.9367767"><ele>325.6666666666667</ele><time>2026-05-03T16:56:13.274Z</time></trkpt><trkpt lat="44.806415" lon="7.9370167"><ele>324.0</ele><time>2026-05-03T16:56:14.274Z</time></trkpt><trkpt lat="44.8063733" lon="7.9372667"><ele>324.0</ele><time>2026-05-03T16:56:15.275Z</time></trkpt><trkpt lat="44.8063217" lon="7.9375317"><ele>324.0</ele><time>2026-05-03T16:56:16.274Z</time></trkpt><trkpt lat="44.8062667" lon="7.9378067"><ele>324.0</ele><time>2026-05-03T16:56:17.274Z</time></trkpt><trkpt lat="44.8062217" lon="7.9380917"><ele>322.3333333333333</ele><time>2026-05-03T16:56:18.274Z</time></trkpt><trkpt lat="44.806175" lon="7.9383683"><ele>320.66666666666663</ele><time>2026-05-03T16:56:19.275Z</time></trkpt><trkpt lat="44.8061183" lon="7.9386533"><ele>319.0</ele><time>2026-05-03T16:56:20.274Z</time></trkpt><trkpt lat="44.8060567" lon="7.9389467"><ele>318.3333333333333</ele><time>2026-05-03T16:56:21.275Z</time></trkpt><trkpt lat="44.805995" lon="7.9392433"><ele>317.6666666666667</ele><time>2026-05-03T16:56:22.274Z</time></trkpt><trkpt lat="44.8059433" lon="7.9395117"><ele>317.0</ele><time>2026-05-03T16:56:23.275Z</time></trkpt><trkpt lat="44.8058983" lon="7.9397783"><ele>317.0</ele><time>2026-05-03T16:56:24.274Z</time></trkpt><trkpt lat="44.8058667" lon="7.9400217"><ele>317.0</ele><time>2026-05-03T16:56:25.274Z</time></trkpt><trkpt lat="44.8058533" lon="7.940275"><ele>317.0</ele><time>2026-05-03T16:56:26.275Z</time></trkpt><trkpt lat="44.8058583" lon="7.9405167"><ele>316.6666666666667</ele><time>2026-05-03T16:56:27.275Z</time></trkpt><trkpt lat="44.8058933" lon="7.94076"><ele>316.3333333333333</ele><time>2026-05-03T16:56:28.274Z</time></trkpt><trkpt lat="44.8059567" lon="7.9409967"><ele>316.0</ele><time>2026-05-03T16:56:29.274Z</time></trkpt><trkpt lat="44.8060417" lon="7.9412333"><ele>315.66666666666663</ele><time>2026-05-03T16:56:30.275Z</time></trkpt><trkpt lat="44.8061567" lon="7.94145"><ele>315.3333333333333</ele><time>2026-05-03T16:56:31.274Z</time></trkpt><trkpt lat="44.8062933" lon="7.94166"><ele>315.0</ele><time>2026-05-03T16:56:32.274Z</time></trkpt><trkpt lat="44.80644" lon="7.9418583"><ele>314.6666666666667</ele><time>2026-05-03T16:56:33.274Z</time></trkpt><trkpt lat="44.8065917" lon="7.9420633"><ele>314.33333333333337</ele><time>2026-05-03T16:56:34.274Z</time></trkpt><trkpt lat="44.8067467" lon="7.9422717"><ele>314.0</ele><time>2026-05-03T16:56:35.274Z</time></trkpt><trkpt lat="44.8069033" lon="7.9424867"><ele>314.6666666666667</ele><time>2026-05-03T16:56:36.274Z</time></trkpt><trkpt lat="44.8070583" lon="7.9427067"><ele>315.3333333333333</ele><time>2026-05-03T16:56:37.274Z</time></trkpt><trkpt lat="44.8072183" lon="7.9429283"><ele>316.0</ele><time>2026-05-03T16:56:38.275Z</time></trkpt><trkpt lat="44.8073817" lon="7.9431483"><ele>316.0</ele><time>2026-05-03T16:56:39.274Z</time></trkpt><trkpt lat="44.8075417" lon="7.94337"><ele>316.0</ele><time>2026-05-03T16:56:40.274Z</time></trkpt><trkpt lat="44.8076983" lon="7.9435983"><ele>314.0</ele><time>2026-05-03T16:56:41.274Z</time></trkpt><trkpt lat="44.8078317" lon="7.943845"><ele>312.0</ele><time>2026-05-03T16:56:42.274Z</time></trkpt><trkpt lat="44.8079717" lon="7.9441017"><ele>313.0</ele><time>2026-05-03T16:56:43.275Z</time></trkpt><trkpt lat="44.8080967" lon="7.94437"><ele>314.0</ele><time>2026-05-03T16:56:44.275Z</time></trkpt><trkpt lat="44.8082333" lon="7.9446283"><ele>314.0</ele><time>2026-05-03T16:56:45.274Z</time></trkpt><trkpt lat="44.8083833" lon="7.944885"><ele>314.0</ele><time>2026-05-03T16:56:46.274Z</time></trkpt><trkpt lat="44.808535" lon="7.9451333"><ele>312.0</ele><time>2026-05-03T16:56:47.274Z</time></trkpt><trkpt lat="44.8087" lon="7.94537"><ele>310.0</ele><time>2026-05-03T16:56:48.274Z</time></trkpt><trkpt lat="44.8088667" lon="7.945595"><ele>310.0</ele><time>2026-05-03T16:56:49.275Z</time></trkpt><trkpt lat="44.8090333" lon="7.9458267"><ele>310.0</ele><time>2026-05-03T16:56:50.274Z</time></trkpt><trkpt lat="44.8091933" lon="7.9460483"><ele>310.0</ele><time>2026-05-03T16:56:51.275Z</time></trkpt><trkpt lat="44.8093533" lon="7.9462567"><ele>310.0</ele><time>2026-05-03T16:56:52.274Z</time></trkpt><trkpt lat="44.8095133" lon="7.9464717"><ele>310.0</ele><time>2026-05-03T16:56:53.274Z</time></trkpt><trkpt lat="44.8096667" lon="7.9466783"><ele>311.5</ele><time>2026-05-03T16:56:54.274Z</time></trkpt><trkpt lat="44.8098367" lon="7.9468867"><ele>313.0</ele><time>2026-05-03T16:56:55.274Z</time></trkpt><trkpt lat="44.8100217" lon="7.9470717"><ele>311.0</ele><time>2026-05-03T16:56:56.274Z</time></trkpt><trkpt lat="44.8102167" lon="7.94724"><ele>309.0</ele><time>2026-05-03T16:56:57.274Z</time></trkpt><trkpt lat="44.81041" lon="7.9474033"><ele>311.0</ele><time>2026-05-03T16:56:58.274Z</time></trkpt><trkpt lat="44.8105983" lon="7.9475617"><ele>313.0</ele><time>2026-05-03T16:56:59.275Z</time></trkpt><trkpt lat="44.8107767" lon="7.9477133"><ele>315.0</ele><time>2026-05-03T16:57:00.274Z</time></trkpt><trkpt lat="44.8109517" lon="7.9478583"><ele>313.3333333333333</ele><time>2026-05-03T16:57:01.274Z</time></trkpt><trkpt lat="44.8111133" lon="7.947995"><ele>311.66666666666663</ele><time>2026-05-03T16:57:02.274Z</time></trkpt><trkpt lat="44.8112483" lon="7.9481517"><ele>310.0</ele><time>2026-05-03T16:57:03.274Z</time></trkpt><trkpt lat="44.8113683" lon="7.9483133"><ele>310.66666666666663</ele><time>2026-05-03T16:57:04.274Z</time></trkpt><trkpt lat="44.8114683" lon="7.9484817"><ele>311.3333333333333</ele><time>2026-05-03T16:57:05.274Z</time></trkpt><trkpt lat="44.8115633" lon="7.9486667"><ele>312.0</ele><time>2026-05-03T16:57:06.274Z</time></trkpt><trkpt lat="44.8116433" lon="7.9488567"><ele>312.0</ele><time>2026-05-03T16:57:07.274Z</time></trkpt><trkpt lat="44.811725" lon="7.9490467"><ele>312.0</ele><time>2026-05-03T16:57:08.274Z</time></trkpt><trkpt lat="44.8118083" lon="7.9492333"><ele>312.0</ele><time>2026-05-03T16:57:09.274Z</time></trkpt><trkpt lat="44.811885" lon="7.9494283"><ele>311.0</ele><time>2026-05-03T16:57:10.275Z</time></trkpt><trkpt lat="44.81196" lon="7.9496133"><ele>310.0</ele><time>2026-05-03T16:57:11.274Z</time></trkpt><trkpt lat="44.812035" lon="7.9497833"><ele>309.0</ele><time>2026-05-03T16:57:12.274Z</time></trkpt><trkpt lat="44.8121017" lon="7.9499467"><ele>308.0</ele><time>2026-05-03T16:57:13.274Z</time></trkpt><trkpt lat="44.8121667" lon="7.950095"><ele>308.0</ele><time>2026-05-03T16:57:14.274Z</time></trkpt><trkpt lat="44.8122267" lon="7.95023"><ele>308.0</ele><time>2026-05-03T16:57:15.275Z</time></trkpt><trkpt lat="44.812275" lon="7.9503483"><ele>308.0</ele><time>2026-05-03T16:57:16.275Z</time></trkpt><trkpt lat="44.8123217" lon="7.9504517"><ele>308.0</ele><time>2026-05-03T16:57:17.275Z</time></trkpt><trkpt lat="44.8123717" lon="7.95053"><ele>308.0</ele><time>2026-05-03T16:57:18.274Z</time></trkpt><trkpt lat="44.8124233" lon="7.9505817"><ele>308.0</ele><time>2026-05-03T16:57:19.275Z</time></trkpt><trkpt lat="44.81253" lon="7.9505333"><ele>308.0</ele><time>2026-05-03T16:57:21.274Z</time></trkpt><trkpt lat="44.8125817" lon="7.95044"><ele>308.0</ele><time>2026-05-03T16:57:22.274Z</time></trkpt><trkpt lat="44.8126533" lon="7.950325"><ele>308.0</ele><time>2026-05-03T16:57:23.274Z</time></trkpt><trkpt lat="44.8127433" lon="7.9502183"><ele>308.0</ele><time>2026-05-03T16:57:24.274Z</time></trkpt><trkpt lat="44.8128383" lon="7.9501183"><ele>308.0</ele><time>2026-05-03T16:57:25.274Z</time></trkpt><trkpt lat="44.8129483" lon="7.950015"><ele>307.5</ele><time>2026-05-03T16:57:26.275Z</time></trkpt><trkpt lat="44.8130633" lon="7.9499083"><ele>307.0</ele><time>2026-05-03T16:57:27.275Z</time></trkpt><trkpt lat="44.8131783" lon="7.949805"><ele>306.5</ele><time>2026-05-03T16:57:28.274Z</time></trkpt><trkpt lat="44.813315" lon="7.9496917"><ele>306.0</ele><time>2026-05-03T16:57:29.274Z</time></trkpt><trkpt lat="44.81345" lon="7.9495783"><ele>304.6666666666667</ele><time>2026-05-03T16:57:30.274Z</time></trkpt><trkpt lat="44.8136033" lon="7.9494533"><ele>303.33333333333337</ele><time>2026-05-03T16:57:31.274Z</time></trkpt><trkpt lat="44.8137583" lon="7.9493317"><ele>302.0</ele><time>2026-05-03T16:57:32.274Z</time></trkpt><trkpt lat="44.8139167" lon="7.9492167"><ele>302.0</ele><time>2026-05-03T16:57:33.274Z</time></trkpt><trkpt lat="44.8140783" lon="7.9491"><ele>302.0</ele><time>2026-05-03T16:57:34.274Z</time></trkpt><trkpt lat="44.81424" lon="7.948975"><ele>302.0</ele><time>2026-05-03T16:57:35.274Z</time></trkpt><trkpt lat="44.8144067" lon="7.9488417"><ele>302.0</ele><time>2026-05-03T16:57:36.274Z</time></trkpt><trkpt lat="44.81458" lon="7.948715"><ele>302.0</ele><time>2026-05-03T16:57:37.274Z</time></trkpt><trkpt lat="44.8147483" lon="7.9485783"><ele>302.0</ele><time>2026-05-03T16:57:38.274Z</time></trkpt><trkpt lat="44.8149133" lon="7.9484567"><ele>301.6666666666667</ele><time>2026-05-03T16:57:39.274Z</time></trkpt><trkpt lat="44.8150833" lon="7.948325"><ele>301.3333333333333</ele><time>2026-05-03T16:57:40.274Z</time></trkpt><trkpt lat="44.8152517" lon="7.948195"><ele>301.0</ele><time>2026-05-03T16:57:41.274Z</time></trkpt><trkpt lat="44.8154167" lon="7.948065"><ele>300.66666666666663</ele><time>2026-05-03T16:57:42.274Z</time></trkpt><trkpt lat="44.8155767" lon="7.94794"><ele>300.3333333333333</ele><time>2026-05-03T16:57:43.275Z</time></trkpt><trkpt lat="44.8157367" lon="7.9478033"><ele>300.0</ele><time>2026-05-03T16:57:44.274Z</time></trkpt><trkpt lat="44.8158967" lon="7.9476717"><ele>300.0</ele><time>2026-05-03T16:57:45.274Z</time></trkpt><trkpt lat="44.816055" lon="7.94755"><ele>300.0</ele><time>2026-05-03T16:57:46.274Z</time></trkpt><trkpt lat="44.81621" lon="7.9474517"><ele>300.0</ele><time>2026-05-03T16:57:47.274Z</time></trkpt><trkpt lat="44.816355" lon="7.9473867"><ele>299.8</ele><time>2026-05-03T16:57:48.274Z</time></trkpt><trkpt lat="44.8164883" lon="7.9473683"><ele>299.6</ele><time>2026-05-03T16:57:49.274Z</time></trkpt><trkpt lat="44.8166033" lon="7.9473667"><ele>299.4</ele><time>2026-05-03T16:57:50.274Z</time></trkpt><trkpt lat="44.8166917" lon="7.9473733"><ele>299.2</ele><time>2026-05-03T16:57:51.274Z</time></trkpt><trkpt lat="44.816775" lon="7.9473983"><ele>299.0</ele><time>2026-05-03T16:57:52.274Z</time></trkpt><trkpt lat="44.81686" lon="7.9474383"><ele>299.0</ele><time>2026-05-03T16:57:53.274Z</time></trkpt><trkpt lat="44.8169567" lon="7.9474817"><ele>299.0</ele><time>2026-05-03T16:57:54.274Z</time></trkpt><trkpt lat="44.817065" lon="7.9475283"><ele>299.0</ele><time>2026-05-03T16:57:55.274Z</time></trkpt><trkpt lat="44.8171917" lon="7.947575"><ele>299.0</ele><time>2026-05-03T16:57:56.274Z</time></trkpt><trkpt lat="44.8173367" lon="7.947625"><ele>298.33333333333337</ele><time>2026-05-03T16:57:57.275Z</time></trkpt><trkpt lat="44.817485" lon="7.9476933"><ele>297.6666666666667</ele><time>2026-05-03T16:57:58.274Z</time></trkpt><trkpt lat="44.8176433" lon="7.9477667"><ele>297.0</ele><time>2026-05-03T16:57:59.274Z</time></trkpt><trkpt lat="44.8178033" lon="7.94785"><ele>297.0</ele><time>2026-05-03T16:58:00.274Z</time></trkpt><trkpt lat="44.81798" lon="7.947935"><ele>297.0</ele><time>2026-05-03T16:58:01.274Z</time></trkpt><trkpt lat="44.8181533" lon="7.9480183"><ele>297.0</ele><time>2026-05-03T16:58:02.275Z</time></trkpt><trkpt lat="44.8183283" lon="7.9480917"><ele>297.0</ele><time>2026-05-03T16:58:03.274Z</time></trkpt><trkpt lat="44.8185017" lon="7.9481533"><ele>297.0</ele><time>2026-05-03T16:58:04.274Z</time></trkpt><trkpt lat="44.8186733" lon="7.9482133"><ele>297.0</ele><time>2026-05-03T16:58:05.274Z</time></trkpt><trkpt lat="44.818845" lon="7.9482567"><ele>297.0</ele><time>2026-05-03T16:58:06.275Z</time></trkpt><trkpt lat="44.8190183" lon="7.9482883"><ele>297.0</ele><time>2026-05-03T16:58:07.274Z</time></trkpt><trkpt lat="44.8191933" lon="7.9483067"><ele>297.0</ele><time>2026-05-03T16:58:08.274Z</time></trkpt><trkpt lat="44.819365" lon="7.948315"><ele>296.3333333333333</ele><time>2026-05-03T16:58:09.275Z</time></trkpt><trkpt lat="44.819535" lon="7.9483183"><ele>295.66666666666663</ele><time>2026-05-03T16:58:10.274Z</time></trkpt><trkpt lat="44.8196983" lon="7.9483117"><ele>295.0</ele><time>2026-05-03T16:58:11.275Z</time></trkpt><trkpt lat="44.8198583" lon="7.948295"><ele>295.0</ele><time>2026-05-03T16:58:12.274Z</time></trkpt><trkpt lat="44.8200167" lon="7.9482617"><ele>295.0</ele><time>2026-05-03T16:58:13.274Z</time></trkpt><trkpt lat="44.8201733" lon="7.9482133"><ele>295.0</ele><time>2026-05-03T16:58:14.274Z</time></trkpt><trkpt lat="44.82032" lon="7.948155"><ele>296.0</ele><time>2026-05-03T16:58:15.274Z</time></trkpt><trkpt lat="44.8204617" lon="7.9481017"><ele>297.0</ele><time>2026-05-03T16:58:16.274Z</time></trkpt><trkpt lat="44.8205967" lon="7.9480533"><ele>298.0</ele><time>2026-05-03T16:58:17.275Z</time></trkpt><trkpt lat="44.8207117" lon="7.9479983"><ele>299.0</ele><time>2026-05-03T16:58:18.274Z</time></trkpt><trkpt lat="44.8208183" lon="7.9479683"><ele>299.0</ele><time>2026-05-03T16:58:19.275Z</time></trkpt><trkpt lat="44.8209117" lon="7.947935"><ele>299.0</ele><time>2026-05-03T16:58:20.274Z</time></trkpt><trkpt lat="44.8210033" lon="7.947925"><ele>299.0</ele><time>2026-05-03T16:58:21.274Z</time></trkpt><trkpt lat="44.8210833" lon="7.94794"><ele>299.0</ele><time>2026-05-03T16:58:22.274Z</time></trkpt><trkpt lat="44.8211533" lon="7.9479783"><ele>299.0</ele><time>2026-05-03T16:58:23.274Z</time></trkpt><trkpt lat="44.821215" lon="7.9480083"><ele>299.0</ele><time>2026-05-03T16:58:24.274Z</time></trkpt><trkpt lat="44.8212767" lon="7.9480317"><ele>298.57142857142856</ele><time>2026-05-03T16:58:25.274Z</time></trkpt><trkpt lat="44.82134" lon="7.9480217"><ele>298.14285714285717</ele><time>2026-05-03T16:58:26.274Z</time></trkpt><trkpt lat="44.8214033" lon="7.9479983"><ele>297.7142857142857</ele><time>2026-05-03T16:58:27.274Z</time></trkpt><trkpt lat="44.8214667" lon="7.94794"><ele>297.2857142857143</ele><time>2026-05-03T16:58:28.275Z</time></trkpt><trkpt lat="44.8215083" lon="7.94785"><ele>296.85714285714283</ele><time>2026-05-03T16:58:29.274Z</time></trkpt><trkpt lat="44.8215417" lon="7.9477417"><ele>296.42857142857144</ele><time>2026-05-03T16:58:30.274Z</time></trkpt><trkpt lat="44.8215633" lon="7.9476267"><ele>296.0</ele><time>2026-05-03T16:58:31.274Z</time></trkpt><trkpt lat="44.821595" lon="7.947515"><ele>295.75</ele><time>2026-05-03T16:58:32.274Z</time></trkpt><trkpt lat="44.8216583" lon="7.9473967"><ele>295.5</ele><time>2026-05-03T16:58:33.275Z</time></trkpt><trkpt lat="44.8217483" lon="7.9472717"><ele>295.25</ele><time>2026-05-03T16:58:34.274Z</time></trkpt><trkpt lat="44.821855" lon="7.94713"><ele>295.0</ele><time>2026-05-03T16:58:35.274Z</time></trkpt><trkpt lat="44.8219867" lon="7.9469733"><ele>295.3333333333333</ele><time>2026-05-03T16:58:36.274Z</time></trkpt><trkpt lat="44.8221167" lon="7.9467983"><ele>295.6666666666667</ele><time>2026-05-03T16:58:37.274Z</time></trkpt><trkpt lat="44.8222583" lon="7.9466283"><ele>296.0</ele><time>2026-05-03T16:58:38.274Z</time></trkpt><trkpt lat="44.8224067" lon="7.9464317"><ele>296.0</ele><time>2026-05-03T16:58:39.274Z</time></trkpt><trkpt lat="44.82254" lon="7.9462183"><ele>296.0</ele><time>2026-05-03T16:58:40.274Z</time></trkpt><trkpt lat="44.8226733" lon="7.94599"><ele>296.0</ele><time>2026-05-03T16:58:41.274Z</time></trkpt><trkpt lat="44.8227933" lon="7.94575"><ele>296.33333333333337</ele><time>2026-05-03T16:58:42.274Z</time></trkpt><trkpt lat="44.8229083" lon="7.945515"><ele>296.6666666666667</ele><time>2026-05-03T16:58:43.274Z</time></trkpt><trkpt lat="44.82302" lon="7.9453"><ele>297.0</ele><time>2026-05-03T16:58:44.274Z</time></trkpt><trkpt lat="44.82313" lon="7.9450833"><ele>296.3333333333333</ele><time>2026-05-03T16:58:45.274Z</time></trkpt><trkpt lat="44.8232383" lon="7.944875"><ele>295.66666666666663</ele><time>2026-05-03T16:58:46.274Z</time></trkpt><trkpt lat="44.8233467" lon="7.944685"><ele>295.0</ele><time>2026-05-03T16:58:47.274Z</time></trkpt><trkpt lat="44.82344" lon="7.94449"><ele>295.25</ele><time>2026-05-03T16:58:48.274Z</time></trkpt><trkpt lat="44.8235267" lon="7.9443033"><ele>295.5</ele><time>2026-05-03T16:58:49.274Z</time></trkpt><trkpt lat="44.82361" lon="7.9441333"><ele>295.75</ele><time>2026-05-03T16:58:50.274Z</time></trkpt><trkpt lat="44.8236867" lon="7.94398"><ele>296.0</ele><time>2026-05-03T16:58:51.274Z</time></trkpt><trkpt lat="44.8237583" lon="7.9438433"><ele>296.2</ele><time>2026-05-03T16:58:52.274Z</time></trkpt><trkpt lat="44.8238333" lon="7.9437317"><ele>296.40000000000003</ele><time>2026-05-03T16:58:53.274Z</time></trkpt><trkpt lat="44.82392" lon="7.943645"><ele>296.6</ele><time>2026-05-03T16:58:54.274Z</time></trkpt><trkpt lat="44.824005" lon="7.94356"><ele>296.8</ele><time>2026-05-03T16:58:55.275Z</time></trkpt><trkpt lat="44.8240733" lon="7.9434467"><ele>297.0</ele><time>2026-05-03T16:58:56.274Z</time></trkpt><trkpt lat="44.8241067" lon="7.9432967"><ele>296.25</ele><time>2026-05-03T16:58:57.274Z</time></trkpt><trkpt lat="44.824135" lon="7.9431233"><ele>295.5</ele><time>2026-05-03T16:58:58.275Z</time></trkpt><trkpt lat="44.82418" lon="7.9429317"><ele>294.75</ele><time>2026-05-03T16:58:59.274Z</time></trkpt><trkpt lat="44.82424" lon="7.9427233"><ele>294.0</ele><time>2026-05-03T16:59:00.275Z</time></trkpt><trkpt lat="44.8243233" lon="7.9424983"><ele>293.6666666666667</ele><time>2026-05-03T16:59:01.274Z</time></trkpt><trkpt lat="44.8244183" lon="7.94227"><ele>293.33333333333337</ele><time>2026-05-03T16:59:02.275Z</time></trkpt><trkpt lat="44.8245133" lon="7.942025"><ele>293.0</ele><time>2026-05-03T16:59:03.274Z</time></trkpt><trkpt lat="44.8246083" lon="7.941775"><ele>292.6666666666667</ele><time>2026-05-03T16:59:04.274Z</time></trkpt><trkpt lat="44.8247033" lon="7.9415217"><ele>292.3333333333333</ele><time>2026-05-03T16:59:05.274Z</time></trkpt><trkpt lat="44.824805" lon="7.94126"><ele>292.0</ele><time>2026-05-03T16:59:06.274Z</time></trkpt><trkpt lat="44.8249083" lon="7.9409983"><ele>292.5</ele><time>2026-05-03T16:59:07.274Z</time></trkpt><trkpt lat="44.82502" lon="7.9407283"><ele>293.0</ele><time>2026-05-03T16:59:08.274Z</time></trkpt><trkpt lat="44.8251383" lon="7.9404483"><ele>293.0</ele><time>2026-05-03T16:59:09.275Z</time></trkpt><trkpt lat="44.825245" lon="7.9401783"><ele>293.0</ele><time>2026-05-03T16:59:10.274Z</time></trkpt><trkpt lat="44.82535" lon="7.93991"><ele>293.0</ele><time>2026-05-03T16:59:11.274Z</time></trkpt><trkpt lat="44.825455" lon="7.9396433"><ele>292.5</ele><time>2026-05-03T16:59:12.275Z</time></trkpt><trkpt lat="44.82557" lon="7.93937"><ele>292.0</ele><time>2026-05-03T16:59:13.274Z</time></trkpt><trkpt lat="44.8256833" lon="7.9390933"><ele>292.0</ele><time>2026-05-03T16:59:14.274Z</time></trkpt><trkpt lat="44.825795" lon="7.9388217"><ele>292.0</ele><time>2026-05-03T16:59:15.274Z</time></trkpt><trkpt lat="44.8259033" lon="7.9385467"><ele>292.0</ele><time>2026-05-03T16:59:16.274Z</time></trkpt><trkpt lat="44.8260167" lon="7.9382733"><ele>292.0</ele><time>2026-05-03T16:59:17.274Z</time></trkpt><trkpt lat="44.82613" lon="7.9379967"><ele>292.0</ele><time>2026-05-03T16:59:18.274Z</time></trkpt><trkpt lat="44.82624" lon="7.9377217"><ele>291.0</ele><time>2026-05-03T16:59:19.274Z</time></trkpt><trkpt lat="44.8263483" lon="7.9374467"><ele>290.0</ele><time>2026-05-03T16:59:20.274Z</time></trkpt><trkpt lat="44.826465" lon="7.93717"><ele>290.0</ele><time>2026-05-03T16:59:21.274Z</time></trkpt><trkpt lat="44.82658" lon="7.9368917"><ele>290.0</ele><time>2026-05-03T16:59:22.274Z</time></trkpt><trkpt lat="44.826695" lon="7.9366067"><ele>290.5</ele><time>2026-05-03T16:59:23.274Z</time></trkpt><trkpt lat="44.8268117" lon="7.936325"><ele>291.0</ele><time>2026-05-03T16:59:24.274Z</time></trkpt><trkpt lat="44.8269283" lon="7.936035"><ele>291.5</ele><time>2026-05-03T16:59:25.274Z</time></trkpt><trkpt lat="44.82704" lon="7.93575"><ele>292.0</ele><time>2026-05-03T16:59:26.274Z</time></trkpt><trkpt lat="44.827155" lon="7.9354583"><ele>292.0</ele><time>2026-05-03T16:59:27.274Z</time></trkpt><trkpt lat="44.82727" lon="7.9351667"><ele>292.0</ele><time>2026-05-03T16:59:28.274Z</time></trkpt><trkpt lat="44.827385" lon="7.934875"><ele>291.0</ele><time>2026-05-03T16:59:29.274Z</time></trkpt><trkpt lat="44.8275" lon="7.93458"><ele>290.0</ele><time>2026-05-03T16:59:30.274Z</time></trkpt><trkpt lat="44.827615" lon="7.93429"><ele>290.0</ele><time>2026-05-03T16:59:31.274Z</time></trkpt><trkpt lat="44.8277383" lon="7.934"><ele>290.0</ele><time>2026-05-03T16:59:32.274Z</time></trkpt><trkpt lat="44.827855" lon="7.9337117"><ele>290.0</ele><time>2026-05-03T16:59:33.274Z</time></trkpt><trkpt lat="44.827975" lon="7.9334233"><ele>290.0</ele><time>2026-05-03T16:59:34.274Z</time></trkpt><trkpt lat="44.8280933" lon="7.9331267"><ele>290.0</ele><time>2026-05-03T16:59:35.274Z</time></trkpt><trkpt lat="44.8282083" lon="7.93284"><ele>290.0</ele><time>2026-05-03T16:59:36.274Z</time></trkpt><trkpt lat="44.8283283" lon="7.9325483"><ele>290.0</ele><time>2026-05-03T16:59:37.274Z</time></trkpt><trkpt lat="44.82844" lon="7.932265"><ele>290.0</ele><time>2026-05-03T16:59:38.274Z</time></trkpt><trkpt lat="44.8285517" lon="7.9319783"><ele>290.33333333333337</ele><time>2026-05-03T16:59:39.274Z</time></trkpt><trkpt lat="44.828665" lon="7.9317"><ele>290.6666666666667</ele><time>2026-05-03T16:59:40.274Z</time></trkpt><trkpt lat="44.8287733" lon="7.93143"><ele>291.0</ele><time>2026-05-03T16:59:41.274Z</time></trkpt><trkpt lat="44.8288817" lon="7.9311567"><ele>291.0</ele><time>2026-05-03T16:59:42.274Z</time></trkpt><trkpt lat="44.8289933" lon="7.9308933"><ele>291.0</ele><time>2026-05-03T16:59:43.275Z</time></trkpt><trkpt lat="44.8291117" lon="7.930625"><ele>291.0</ele><time>2026-05-03T16:59:44.274Z</time></trkpt><trkpt lat="44.8292333" lon="7.93036"><ele>290.5</ele><time>2026-05-03T16:59:45.274Z</time></trkpt><trkpt lat="44.8293633" lon="7.930095"><ele>290.0</ele><time>2026-05-03T16:59:46.274Z</time></trkpt><trkpt lat="44.8294933" lon="7.929825"><ele>290.0</ele><time>2026-05-03T16:59:47.274Z</time></trkpt><trkpt lat="44.829625" lon="7.9295567"><ele>290.0</ele><time>2026-05-03T16:59:48.274Z</time></trkpt><trkpt lat="44.8297567" lon="7.929285"><ele>289.0</ele><time>2026-05-03T16:59:49.274Z</time></trkpt><trkpt lat="44.8298883" lon="7.9290083"><ele>288.0</ele><time>2026-05-03T16:59:50.274Z</time></trkpt><trkpt lat="44.8300217" lon="7.92873"><ele>288.0</ele><time>2026-05-03T16:59:51.274Z</time></trkpt><trkpt lat="44.8301567" lon="7.928455"><ele>288.0</ele><time>2026-05-03T16:59:52.274Z</time></trkpt><trkpt lat="44.8302867" lon="7.928185"><ele>288.0</ele><time>2026-05-03T16:59:53.274Z</time></trkpt><trkpt lat="44.83042" lon="7.92791"><ele>288.0</ele><time>2026-05-03T16:59:54.275Z</time></trkpt><trkpt lat="44.830555" lon="7.927625"><ele>288.0</ele><time>2026-05-03T16:59:55.274Z</time></trkpt><trkpt lat="44.83069" lon="7.92736"><ele>288.0</ele><time>2026-05-03T16:59:56.274Z</time></trkpt><trkpt lat="44.83083" lon="7.9271083"><ele>287.6666666666667</ele><time>2026-05-03T16:59:57.274Z</time></trkpt><trkpt lat="44.8309767" lon="7.9268767"><ele>287.33333333333337</ele><time>2026-05-03T16:59:58.274Z</time></trkpt><trkpt lat="44.8311367" lon="7.9266483"><ele>287.0</ele><time>2026-05-03T16:59:59.274Z</time></trkpt><trkpt lat="44.8313117" lon="7.926445"><ele>287.0</ele><time>2026-05-03T17:00:00.275Z</time></trkpt><trkpt lat="44.8315067" lon="7.9262567"><ele>287.0</ele><time>2026-05-03T17:00:01.274Z</time></trkpt><trkpt lat="44.831715" lon="7.926085"><ele>287.5</ele><time>2026-05-03T17:00:02.274Z</time></trkpt><trkpt lat="44.83193" lon="7.9259183"><ele>288.0</ele><time>2026-05-03T17:00:03.274Z</time></trkpt><trkpt lat="44.8321417" lon="7.9257467"><ele>288.0</ele><time>2026-05-03T17:00:04.274Z</time></trkpt><trkpt lat="44.832355" lon="7.925585"><ele>288.0</ele><time>2026-05-03T17:00:05.275Z</time></trkpt><trkpt lat="44.8325617" lon="7.925425"><ele>289.5</ele><time>2026-05-03T17:00:06.274Z</time></trkpt><trkpt lat="44.83277" lon="7.9252633"><ele>291.0</ele><time>2026-05-03T17:00:07.274Z</time></trkpt><trkpt lat="44.832985" lon="7.9250967"><ele>288.5</ele><time>2026-05-03T17:00:08.274Z</time></trkpt><trkpt lat="44.8332017" lon="7.924925"><ele>286.0</ele><time>2026-05-03T17:00:09.274Z</time></trkpt><trkpt lat="44.8334083" lon="7.92476"><ele>288.5</ele><time>2026-05-03T17:00:10.274Z</time></trkpt><trkpt lat="44.8336167" lon="7.9246"><ele>291.0</ele><time>2026-05-03T17:00:11.274Z</time></trkpt><trkpt lat="44.8338233" lon="7.9244467"><ele>291.0</ele><time>2026-05-03T17:00:12.275Z</time></trkpt><trkpt lat="44.8340333" lon="7.9242833"><ele>291.0</ele><time>2026-05-03T17:00:13.274Z</time></trkpt><trkpt lat="44.8342367" lon="7.924125"><ele>288.5</ele><time>2026-05-03T17:00:14.274Z</time></trkpt><trkpt lat="44.8344417" lon="7.9239567"><ele>286.0</ele><time>2026-05-03T17:00:15.274Z</time></trkpt><trkpt lat="44.83465" lon="7.923795"><ele>286.0</ele><time>2026-05-03T17:00:16.274Z</time></trkpt><trkpt lat="44.8348567" lon="7.923635"><ele>286.0</ele><time>2026-05-03T17:00:17.274Z</time></trkpt><trkpt lat="44.8350583" lon="7.9234683"><ele>285.0</ele><time>2026-05-03T17:00:18.274Z</time></trkpt><trkpt lat="44.8352433" lon="7.9232767"><ele>284.0</ele><time>2026-05-03T17:00:19.274Z</time></trkpt><trkpt lat="44.8354183" lon="7.923055"><ele>284.0</ele><time>2026-05-03T17:00:20.274Z</time></trkpt><trkpt lat="44.8355817" lon="7.922815"><ele>284.0</ele><time>2026-05-03T17:00:21.275Z</time></trkpt><trkpt lat="44.8357267" lon="7.9225583"><ele>283.5</ele><time>2026-05-03T17:00:22.274Z</time></trkpt><trkpt lat="44.8358533" lon="7.9222717"><ele>283.0</ele><time>2026-05-03T17:00:23.274Z</time></trkpt><trkpt lat="44.835965" lon="7.9219683"><ele>285.0</ele><time>2026-05-03T17:00:24.274Z</time></trkpt><trkpt lat="44.8360517" lon="7.921655"><ele>287.0</ele><time>2026-05-03T17:00:25.274Z</time></trkpt><trkpt lat="44.8361117" lon="7.921325"><ele>287.0</ele><time>2026-05-03T17:00:26.274Z</time></trkpt><trkpt lat="44.83615" lon="7.9209767"><ele>287.0</ele><time>2026-05-03T17:00:27.274Z</time></trkpt><trkpt lat="44.83618" lon="7.920625"><ele>287.0</ele><time>2026-05-03T17:00:28.274Z</time></trkpt><trkpt lat="44.8362067" lon="7.9202717"><ele>287.0</ele><time>2026-05-03T17:00:29.274Z</time></trkpt><trkpt lat="44.83623" lon="7.91992"><ele>287.0</ele><time>2026-05-03T17:00:30.274Z</time></trkpt><trkpt lat="44.8362533" lon="7.919565"><ele>287.0</ele><time>2026-05-03T17:00:31.274Z</time></trkpt><trkpt lat="44.8362683" lon="7.9192183"><ele>287.0</ele><time>2026-05-03T17:00:32.274Z</time></trkpt><trkpt lat="44.8362883" lon="7.91887"><ele>287.0</ele><time>2026-05-03T17:00:33.274Z</time></trkpt><trkpt lat="44.8363117" lon="7.9185383"><ele>286.33333333333337</ele><time>2026-05-03T17:00:34.275Z</time></trkpt><trkpt lat="44.836335" lon="7.918225"><ele>285.6666666666667</ele><time>2026-05-03T17:00:35.274Z</time></trkpt><trkpt lat="44.836355" lon="7.9179217"><ele>285.0</ele><time>2026-05-03T17:00:36.275Z</time></trkpt><trkpt lat="44.8363767" lon="7.9176367"><ele>284.3333333333333</ele><time>2026-05-03T17:00:37.274Z</time></trkpt><trkpt lat="44.8364183" lon="7.917365"><ele>283.66666666666663</ele><time>2026-05-03T17:00:38.274Z</time></trkpt><trkpt lat="44.8364817" lon="7.9171017"><ele>283.0</ele><time>2026-05-03T17:00:39.274Z</time></trkpt><trkpt lat="44.8365867" lon="7.9168467"><ele>284.0</ele><time>2026-05-03T17:00:40.274Z</time></trkpt><trkpt lat="44.8367183" lon="7.9165917"><ele>285.0</ele><time>2026-05-03T17:00:41.274Z</time></trkpt><trkpt lat="44.8368683" lon="7.91635"><ele>285.0</ele><time>2026-05-03T17:00:42.274Z</time></trkpt><trkpt lat="44.837035" lon="7.91612"><ele>285.0</ele><time>2026-05-03T17:00:43.275Z</time></trkpt><trkpt lat="44.8372167" lon="7.9158983"><ele>285.0</ele><time>2026-05-03T17:00:44.274Z</time></trkpt><trkpt lat="44.837425" lon="7.9156917"><ele>285.0</ele><time>2026-05-03T17:00:45.274Z</time></trkpt><trkpt lat="44.83765" lon="7.9154867"><ele>285.0</ele><time>2026-05-03T17:00:46.274Z</time></trkpt><trkpt lat="44.83788" lon="7.915285"><ele>285.0</ele><time>2026-05-03T17:00:47.274Z</time></trkpt><trkpt lat="44.8381033" lon="7.9150883"><ele>283.0</ele><time>2026-05-03T17:00:48.274Z</time></trkpt><trkpt lat="44.83833" lon="7.9148883"><ele>281.0</ele><time>2026-05-03T17:00:49.274Z</time></trkpt><trkpt lat="44.8385583" lon="7.9146867"><ele>281.0</ele><time>2026-05-03T17:00:50.274Z</time></trkpt><trkpt lat="44.83879" lon="7.91448"><ele>281.0</ele><time>2026-05-03T17:00:51.274Z</time></trkpt><trkpt lat="44.8390167" lon="7.9142733"><ele>278.0</ele><time>2026-05-03T17:00:52.274Z</time></trkpt><trkpt lat="44.8392483" lon="7.9140667"><ele>275.0</ele><time>2026-05-03T17:00:53.274Z</time></trkpt><trkpt lat="44.8394733" lon="7.91387"><ele>275.0</ele><time>2026-05-03T17:00:54.274Z</time></trkpt><trkpt lat="44.8397067" lon="7.9136717"><ele>275.0</ele><time>2026-05-03T17:00:55.275Z</time></trkpt><trkpt lat="44.8399333" lon="7.9134733"><ele>274.0</ele><time>2026-05-03T17:00:56.274Z</time></trkpt><trkpt lat="44.8401633" lon="7.9132667"><ele>273.0</ele><time>2026-05-03T17:00:57.274Z</time></trkpt><trkpt lat="44.8403917" lon="7.91307"><ele>273.0</ele><time>2026-05-03T17:00:58.275Z</time></trkpt><trkpt lat="44.8406233" lon="7.91287"><ele>273.0</ele><time>2026-05-03T17:00:59.274Z</time></trkpt><trkpt lat="44.8408533" lon="7.9126717"><ele>273.0</ele><time>2026-05-03T17:01:00.274Z</time></trkpt><trkpt lat="44.84108" lon="7.9124717"><ele>273.0</ele><time>2026-05-03T17:01:01.274Z</time></trkpt><trkpt lat="44.8413067" lon="7.9122683"><ele>273.0</ele><time>2026-05-03T17:01:02.274Z</time></trkpt><trkpt lat="44.841525" lon="7.91207"><ele>273.0</ele><time>2026-05-03T17:01:03.274Z</time></trkpt><trkpt lat="44.841745" lon="7.9118667"><ele>274.5</ele><time>2026-05-03T17:01:04.274Z</time></trkpt><trkpt lat="44.84197" lon="7.9116617"><ele>276.0</ele><time>2026-05-03T17:01:05.274Z</time></trkpt><trkpt lat="44.84218" lon="7.9114683"><ele>276.0</ele><time>2026-05-03T17:01:06.274Z</time></trkpt><trkpt lat="44.8423933" lon="7.91128"><ele>276.0</ele><time>2026-05-03T17:01:07.274Z</time></trkpt><trkpt lat="44.8426067" lon="7.9111033"><ele>276.5</ele><time>2026-05-03T17:01:08.274Z</time></trkpt><trkpt lat="44.8428083" lon="7.91093"><ele>277.0</ele><time>2026-05-03T17:01:09.274Z</time></trkpt><trkpt lat="44.84302" lon="7.91077"><ele>277.0</ele><time>2026-05-03T17:01:10.274Z</time></trkpt><trkpt lat="44.8432467" lon="7.9106333"><ele>277.0</ele><time>2026-05-03T17:01:11.274Z</time></trkpt><trkpt lat="44.8434867" lon="7.9105267"><ele>278.5</ele><time>2026-05-03T17:01:12.274Z</time></trkpt><trkpt lat="44.84373" lon="7.9104317"><ele>280.0</ele><time>2026-05-03T17:01:13.274Z</time></trkpt><trkpt lat="44.8439733" lon="7.9103283"><ele>280.0</ele><time>2026-05-03T17:01:14.274Z</time></trkpt><trkpt lat="44.844215" lon="7.9102217"><ele>280.0</ele><time>2026-05-03T17:01:15.274Z</time></trkpt><trkpt lat="44.844455" lon="7.910115"><ele>279.0</ele><time>2026-05-03T17:01:16.274Z</time></trkpt><trkpt lat="44.8446967" lon="7.91001"><ele>278.0</ele><time>2026-05-03T17:01:17.274Z</time></trkpt><trkpt lat="44.8449417" lon="7.9099067"><ele>278.5</ele><time>2026-05-03T17:01:18.274Z</time></trkpt><trkpt lat="44.8451867" lon="7.909795"><ele>279.0</ele><time>2026-05-03T17:01:19.274Z</time></trkpt><trkpt lat="44.84543" lon="7.9096867"><ele>279.0</ele><time>2026-05-03T17:01:20.274Z</time></trkpt><trkpt lat="44.845655" lon="7.90959"><ele>279.0</ele><time>2026-05-03T17:01:21.274Z</time></trkpt><trkpt lat="44.845905" lon="7.9094683"><ele>279.5</ele><time>2026-05-03T17:01:22.274Z</time></trkpt><trkpt lat="44.8461533" lon="7.9093617"><ele>280.0</ele><time>2026-05-03T17:01:23.274Z</time></trkpt><trkpt lat="44.8463967" lon="7.9092517"><ele>278.0</ele><time>2026-05-03T17:01:24.275Z</time></trkpt><trkpt lat="44.8466317" lon="7.9091467"><ele>276.0</ele><time>2026-05-03T17:01:25.275Z</time></trkpt><trkpt lat="44.8468683" lon="7.9090417"><ele>275.0</ele><time>2026-05-03T17:01:26.274Z</time></trkpt><trkpt lat="44.8471" lon="7.90895"><ele>274.0</ele><time>2026-05-03T17:01:27.274Z</time></trkpt><trkpt lat="44.847335" lon="7.9088617"><ele>274.0</ele><time>2026-05-03T17:01:28.274Z</time></trkpt><trkpt lat="44.8475717" lon="7.9087817"><ele>274.0</ele><time>2026-05-03T17:01:29.274Z</time></trkpt><trkpt lat="44.8478117" lon="7.9087317"><ele>274.0</ele><time>2026-05-03T17:01:30.274Z</time></trkpt><trkpt lat="44.8480517" lon="7.9086917"><ele>274.0</ele><time>2026-05-03T17:01:31.274Z</time></trkpt><trkpt lat="44.8483033" lon="7.9086683"><ele>274.0</ele><time>2026-05-03T17:01:32.274Z</time></trkpt><trkpt lat="44.8485533" lon="7.9086667"><ele>274.0</ele><time>2026-05-03T17:01:33.274Z</time></trkpt><trkpt lat="44.8488" lon="7.9086683"><ele>274.0</ele><time>2026-05-03T17:01:34.274Z</time></trkpt><trkpt lat="44.84905" lon="7.9086683"><ele>274.0</ele><time>2026-05-03T17:01:35.274Z</time></trkpt><trkpt lat="44.8492983" lon="7.9086717"><ele>273.0</ele><time>2026-05-03T17:01:36.274Z</time></trkpt><trkpt lat="44.8495417" lon="7.9086717"><ele>272.0</ele><time>2026-05-03T17:01:37.274Z</time></trkpt><trkpt lat="44.8497817" lon="7.9086717"><ele>272.0</ele><time>2026-05-03T17:01:38.274Z</time></trkpt><trkpt lat="44.8500217" lon="7.9086717"><ele>272.0</ele><time>2026-05-03T17:01:39.274Z</time></trkpt><trkpt lat="44.8502583" lon="7.908675"><ele>274.0</ele><time>2026-05-03T17:01:40.274Z</time></trkpt><trkpt lat="44.8504867" lon="7.9086783"><ele>276.0</ele><time>2026-05-03T17:01:41.274Z</time></trkpt><trkpt lat="44.85071" lon="7.9086817"><ele>276.0</ele><time>2026-05-03T17:01:42.274Z</time></trkpt><trkpt lat="44.8509267" lon="7.9086833"><ele>276.0</ele><time>2026-05-03T17:01:43.274Z</time></trkpt><trkpt lat="44.8511433" lon="7.9086783"><ele>276.0</ele><time>2026-05-03T17:01:44.274Z</time></trkpt><trkpt lat="44.8513617" lon="7.9086617"><ele>276.0</ele><time>2026-05-03T17:01:45.274Z</time></trkpt><trkpt lat="44.8515833" lon="7.9086417"><ele>276.0</ele><time>2026-05-03T17:01:46.274Z</time></trkpt><trkpt lat="44.85181" lon="7.908605"><ele>276.0</ele><time>2026-05-03T17:01:47.275Z</time></trkpt><trkpt lat="44.85204" lon="7.908565"><ele>276.0</ele><time>2026-05-03T17:01:48.275Z</time></trkpt><trkpt lat="44.85227" lon="7.9085217"><ele>276.0</ele><time>2026-05-03T17:01:49.274Z</time></trkpt><trkpt lat="44.8524883" lon="7.9084767"><ele>276.0</ele><time>2026-05-03T17:01:50.274Z</time></trkpt><trkpt lat="44.8527233" lon="7.90842"><ele>277.5</ele><time>2026-05-03T17:01:51.275Z</time></trkpt><trkpt lat="44.8529517" lon="7.90834"><ele>279.0</ele><time>2026-05-03T17:01:52.275Z</time></trkpt><trkpt lat="44.8531767" lon="7.9082417"><ele>279.0</ele><time>2026-05-03T17:01:53.274Z</time></trkpt><trkpt lat="44.8533867" lon="7.9081067"><ele>279.0</ele><time>2026-05-03T17:01:54.274Z</time></trkpt><trkpt lat="44.8535933" lon="7.907965"><ele>280.5</ele><time>2026-05-03T17:01:55.275Z</time></trkpt><trkpt lat="44.8537983" lon="7.9078267"><ele>282.0</ele><time>2026-05-03T17:01:56.274Z</time></trkpt><trkpt lat="44.854" lon="7.9076933"><ele>280.3333333333333</ele><time>2026-05-03T17:01:57.274Z</time></trkpt><trkpt lat="44.8542017" lon="7.90756"><ele>278.66666666666663</ele><time>2026-05-03T17:01:58.274Z</time></trkpt><trkpt lat="44.8544" lon="7.907435"><ele>277.0</ele><time>2026-05-03T17:01:59.274Z</time></trkpt><trkpt lat="44.85459" lon="7.907315"><ele>277.0</ele><time>2026-05-03T17:02:00.274Z</time></trkpt><trkpt lat="44.8547733" lon="7.9072017"><ele>277.0</ele><time>2026-05-03T17:02:01.274Z</time></trkpt><trkpt lat="44.8549467" lon="7.9070833"><ele>277.0</ele><time>2026-05-03T17:02:02.274Z</time></trkpt><trkpt lat="44.8551083" lon="7.9069633"><ele>278.0</ele><time>2026-05-03T17:02:03.274Z</time></trkpt><trkpt lat="44.8552683" lon="7.906835"><ele>279.0</ele><time>2026-05-03T17:02:04.274Z</time></trkpt><trkpt lat="44.8554333" lon="7.9066983"><ele>280.0</ele><time>2026-05-03T17:02:05.274Z</time></trkpt><trkpt lat="44.8555967" lon="7.9065633"><ele>280.0</ele><time>2026-05-03T17:02:06.274Z</time></trkpt><trkpt lat="44.8557617" lon="7.906425"><ele>280.0</ele><time>2026-05-03T17:02:07.274Z</time></trkpt><trkpt lat="44.8559333" lon="7.90628"><ele>280.0</ele><time>2026-05-03T17:02:08.274Z</time></trkpt><trkpt lat="44.8561" lon="7.9061233"><ele>279.3333333333333</ele><time>2026-05-03T17:02:09.274Z</time></trkpt><trkpt lat="44.8562733" lon="7.9059717"><ele>278.6666666666667</ele><time>2026-05-03T17:02:10.275Z</time></trkpt><trkpt lat="44.8564433" lon="7.9058267"><ele>278.0</ele><time>2026-05-03T17:02:11.274Z</time></trkpt><trkpt lat="44.856615" lon="7.905685"><ele>278.0</ele><time>2026-05-03T17:02:12.274Z</time></trkpt><trkpt lat="44.856775" lon="7.905545"><ele>278.0</ele><time>2026-05-03T17:02:13.275Z</time></trkpt><trkpt lat="44.8569267" lon="7.9054167"><ele>278.0</ele><time>2026-05-03T17:02:14.274Z</time></trkpt><trkpt lat="44.8570717" lon="7.9052633"><ele>277.6666666666667</ele><time>2026-05-03T17:02:15.274Z</time></trkpt><trkpt lat="44.8572083" lon="7.905095"><ele>277.3333333333333</ele><time>2026-05-03T17:02:16.274Z</time></trkpt><trkpt lat="44.857335" lon="7.9048933"><ele>277.0</ele><time>2026-05-03T17:02:17.275Z</time></trkpt><trkpt lat="44.857445" lon="7.9046767"><ele>277.0</ele><time>2026-05-03T17:02:18.274Z</time></trkpt><trkpt lat="44.85755" lon="7.9044417"><ele>277.0</ele><time>2026-05-03T17:02:19.274Z</time></trkpt><trkpt lat="44.8576533" lon="7.9042033"><ele>277.0</ele><time>2026-05-03T17:02:20.274Z</time></trkpt><trkpt lat="44.8577583" lon="7.9039583"><ele>277.66666666666663</ele><time>2026-05-03T17:02:21.274Z</time></trkpt><trkpt lat="44.8578433" lon="7.9037217"><ele>278.3333333333333</ele><time>2026-05-03T17:02:22.275Z</time></trkpt><trkpt lat="44.85792" lon="7.903495"><ele>279.0</ele><time>2026-05-03T17:02:23.275Z</time></trkpt><trkpt lat="44.8580033" lon="7.9032833"><ele>279.0</ele><time>2026-05-03T17:02:24.274Z</time></trkpt><trkpt lat="44.858075" lon="7.9030733"><ele>279.0</ele><time>2026-05-03T17:02:25.274Z</time></trkpt><trkpt lat="44.858155" lon="7.9028633"><ele>279.0</ele><time>2026-05-03T17:02:26.274Z</time></trkpt><trkpt lat="44.858235" lon="7.9026417"><ele>277.0</ele><time>2026-05-03T17:02:27.274Z</time></trkpt><trkpt lat="44.8583133" lon="7.9024233"><ele>275.0</ele><time>2026-05-03T17:02:28.274Z</time></trkpt><trkpt lat="44.858395" lon="7.9021967"><ele>273.0</ele><time>2026-05-03T17:02:29.274Z</time></trkpt><trkpt lat="44.85848" lon="7.9019767"><ele>275.0</ele><time>2026-05-03T17:02:30.275Z</time></trkpt><trkpt lat="44.8585583" lon="7.9017733"><ele>277.0</ele><time>2026-05-03T17:02:31.274Z</time></trkpt><trkpt lat="44.8586367" lon="7.90157"><ele>279.0</ele><time>2026-05-03T17:02:32.274Z</time></trkpt><trkpt lat="44.858715" lon="7.9013683"><ele>279.0</ele><time>2026-05-03T17:02:33.274Z</time></trkpt><trkpt lat="44.8587883" lon="7.9011783"><ele>279.0</ele><time>2026-05-03T17:02:34.274Z</time></trkpt><trkpt lat="44.8588533" lon="7.900995"><ele>279.0</ele><time>2026-05-03T17:02:35.275Z</time></trkpt><trkpt lat="44.858925" lon="7.9008283"><ele>279.0</ele><time>2026-05-03T17:02:36.274Z</time></trkpt><trkpt lat="44.859" lon="7.900685"><ele>277.5</ele><time>2026-05-03T17:02:37.274Z</time></trkpt><trkpt lat="44.8590717" lon="7.9005317"><ele>276.0</ele><time>2026-05-03T17:02:38.274Z</time></trkpt><trkpt lat="44.85915" lon="7.9003867"><ele>274.5</ele><time>2026-05-03T17:02:39.274Z</time></trkpt><trkpt lat="44.8592317" lon="7.9002633"><ele>273.0</ele><time>2026-05-03T17:02:40.274Z</time></trkpt><trkpt lat="44.8593083" lon="7.9001167"><ele>273.4</ele><time>2026-05-03T17:02:41.274Z</time></trkpt><trkpt lat="44.8593867" lon="7.89997"><ele>273.8</ele><time>2026-05-03T17:02:42.274Z</time></trkpt><trkpt lat="44.8594583" lon="7.8998317"><ele>274.2</ele><time>2026-05-03T17:02:43.275Z</time></trkpt><trkpt lat="44.8595217" lon="7.899725"><ele>274.6</ele><time>2026-05-03T17:02:44.274Z</time></trkpt><trkpt lat="44.859585" lon="7.8996183"><ele>275.0</ele><time>2026-05-03T17:02:45.275Z</time></trkpt><trkpt lat="44.85965" lon="7.89951"><ele>275.0</ele><time>2026-05-03T17:02:46.274Z</time></trkpt><trkpt lat="44.8597167" lon="7.8993933"><ele>275.0</ele><time>2026-05-03T17:02:47.274Z</time></trkpt><trkpt lat="44.8597833" lon="7.8992833"><ele>275.0</ele><time>2026-05-03T17:02:48.274Z</time></trkpt><trkpt lat="44.859845" lon="7.8991717"><ele>275.0</ele><time>2026-05-03T17:02:49.274Z</time></trkpt><trkpt lat="44.8598917" lon="7.8990683"><ele>275.0</ele><time>2026-05-03T17:02:50.274Z</time></trkpt><trkpt lat="44.8599433" lon="7.8989933"><ele>275.4</ele><time>2026-05-03T17:02:51.274Z</time></trkpt><trkpt lat="44.86" lon="7.898925"><ele>275.8</ele><time>2026-05-03T17:02:52.274Z</time></trkpt><trkpt lat="44.8600683" lon="7.898855"><ele>276.2</ele><time>2026-05-03T17:02:53.274Z</time></trkpt><trkpt lat="44.860145" lon="7.8987733"><ele>276.6</ele><time>2026-05-03T17:02:54.274Z</time></trkpt><trkpt lat="44.8602283" lon="7.8986783"><ele>277.0</ele><time>2026-05-03T17:02:55.274Z</time></trkpt><trkpt lat="44.8603167" lon="7.8985783"><ele>277.0</ele><time>2026-05-03T17:02:56.274Z</time></trkpt><trkpt lat="44.86041" lon="7.8984733"><ele>277.0</ele><time>2026-05-03T17:02:57.274Z</time></trkpt><trkpt lat="44.860505" lon="7.898365"><ele>277.0</ele><time>2026-05-03T17:02:58.274Z</time></trkpt><trkpt lat="44.8606033" lon="7.89825"><ele>277.0</ele><time>2026-05-03T17:02:59.274Z</time></trkpt><trkpt lat="44.8607" lon="7.89814"><ele>276.5</ele><time>2026-05-03T17:03:00.274Z</time></trkpt><trkpt lat="44.8607917" lon="7.898045"><ele>276.0</ele><time>2026-05-03T17:03:01.274Z</time></trkpt><trkpt lat="44.8608883" lon="7.8979433"><ele>275.5</ele><time>2026-05-03T17:03:02.274Z</time></trkpt><trkpt lat="44.8609833" lon="7.8978417"><ele>275.0</ele><time>2026-05-03T17:03:03.274Z</time></trkpt><trkpt lat="44.861065" lon="7.8977333"><ele>275.0</ele><time>2026-05-03T17:03:04.275Z</time></trkpt><trkpt lat="44.8611617" lon="7.897635"><ele>275.0</ele><time>2026-05-03T17:03:05.274Z</time></trkpt><trkpt lat="44.8612617" lon="7.8975367"><ele>275.0</ele><time>2026-05-03T17:03:06.274Z</time></trkpt><trkpt lat="44.86136" lon="7.89744"><ele>275.0</ele><time>2026-05-03T17:03:07.274Z</time></trkpt><trkpt lat="44.8614617" lon="7.89735"><ele>274.25</ele><time>2026-05-03T17:03:08.274Z</time></trkpt><trkpt lat="44.8615633" lon="7.8972567"><ele>273.5</ele><time>2026-05-03T17:03:09.274Z</time></trkpt><trkpt lat="44.8616717" lon="7.897165"><ele>272.75</ele><time>2026-05-03T17:03:10.274Z</time></trkpt><trkpt lat="44.8617833" lon="7.89708"><ele>272.0</ele><time>2026-05-03T17:03:11.274Z</time></trkpt><trkpt lat="44.8618817" lon="7.8970033"><ele>272.0</ele><time>2026-05-03T17:03:12.274Z</time></trkpt><trkpt lat="44.8619717" lon="7.8969217"><ele>272.0</ele><time>2026-05-03T17:03:13.274Z</time></trkpt><trkpt lat="44.86206" lon="7.8968533"><ele>272.0</ele><time>2026-05-03T17:03:14.274Z</time></trkpt><trkpt lat="44.8621367" lon="7.89678"><ele>272.0</ele><time>2026-05-03T17:03:15.275Z</time></trkpt><trkpt lat="44.8622167" lon="7.8967333"><ele>272.0</ele><time>2026-05-03T17:03:16.274Z</time></trkpt><trkpt lat="44.8622833" lon="7.8967033"><ele>271.6666666666667</ele><time>2026-05-03T17:03:17.275Z</time></trkpt><trkpt lat="44.862345" lon="7.8966817"><ele>271.33333333333337</ele><time>2026-05-03T17:03:18.274Z</time></trkpt><trkpt lat="44.8624667" lon="7.896675"><ele>271.0</ele><time>2026-05-03T17:03:20.274Z</time></trkpt><trkpt lat="44.862535" lon="7.8966933"><ele>270.6666666666667</ele><time>2026-05-03T17:03:21.274Z</time></trkpt><trkpt lat="44.8626033" lon="7.89672"><ele>270.3333333333333</ele><time>2026-05-03T17:03:22.274Z</time></trkpt><trkpt lat="44.862675" lon="7.89676"><ele>270.0</ele><time>2026-05-03T17:03:23.274Z</time></trkpt><trkpt lat="44.862735" lon="7.8968033"><ele>270.7142857142857</ele><time>2026-05-03T17:03:24.275Z</time></trkpt><trkpt lat="44.862785" lon="7.896865"><ele>271.4285714285714</ele><time>2026-05-03T17:03:25.274Z</time></trkpt><trkpt lat="44.8628167" lon="7.896945"><ele>272.1428571428571</ele><time>2026-05-03T17:03:26.275Z</time></trkpt><trkpt lat="44.8628333" lon="7.89704"><ele>272.85714285714283</ele><time>2026-05-03T17:03:27.274Z</time></trkpt><trkpt lat="44.862845" lon="7.8971433"><ele>273.57142857142856</ele><time>2026-05-03T17:03:28.274Z</time></trkpt><trkpt lat="44.8628467" lon="7.8972367"><ele>274.2857142857143</ele><time>2026-05-03T17:03:29.274Z</time></trkpt><trkpt lat="44.86284" lon="7.8973317"><ele>275.0</ele><time>2026-05-03T17:03:31.274Z</time></trkpt><trkpt lat="44.8628433" lon="7.8974617"><ele>275.0</ele><time>2026-05-03T17:03:35.275Z</time></trkpt><trkpt lat="44.8628417" lon="7.89757"><ele>275.0</ele><time>2026-05-03T17:03:37.274Z</time></trkpt><trkpt lat="44.8628283" lon="7.8977117"><ele>275.0</ele><time>2026-05-03T17:03:39.274Z</time></trkpt><trkpt lat="44.8628217" lon="7.89789"><ele>275.0</ele><time>2026-05-03T17:03:41.274Z</time></trkpt><trkpt lat="44.8628133" lon="7.89798"><ele>275.0</ele><time>2026-05-03T17:03:42.274Z</time></trkpt><trkpt lat="44.8627967" lon="7.8981433"><ele>277.4</ele><time>2026-05-03T17:03:44.274Z</time></trkpt><trkpt lat="44.86277" lon="7.89829"><ele>279.8</ele><time>2026-05-03T17:03:46.274Z</time></trkpt><trkpt lat="44.8627167" lon="7.898405"><ele>282.2</ele><time>2026-05-03T17:03:48.274Z</time></trkpt><trkpt lat="44.86266" lon="7.8984783"><ele>284.6</ele><time>2026-05-03T17:03:49.275Z</time></trkpt><trkpt lat="44.862575" lon="7.8985517"><ele>287.0</ele><time>2026-05-03T17:03:50.274Z</time></trkpt><trkpt lat="44.8624517" lon="7.8986267"><ele>288.5</ele><time>2026-05-03T17:03:51.275Z</time></trkpt><trkpt lat="44.8623183" lon="7.898705"><ele>290.0</ele><time>2026-05-03T17:03:52.274Z</time></trkpt><trkpt lat="44.8621833" lon="7.89876"><ele>291.5</ele><time>2026-05-03T17:03:53.274Z</time></trkpt><trkpt lat="44.86206" lon="7.8988217"><ele>293.0</ele><time>2026-05-03T17:03:54.274Z</time></trkpt><trkpt lat="44.8619533" lon="7.8988833"><ele>293.0</ele><time>2026-05-03T17:03:55.274Z</time></trkpt><trkpt lat="44.8618483" lon="7.89896"><ele>293.0</ele><time>2026-05-03T17:03:56.274Z</time></trkpt><trkpt lat="44.8617517" lon="7.8990433"><ele>293.0</ele><time>2026-05-03T17:03:57.274Z</time></trkpt><trkpt lat="44.86167" lon="7.8991483"><ele>293.0</ele><time>2026-05-03T17:03:58.274Z</time></trkpt><trkpt lat="44.8615933" lon="7.8992733"><ele>294.8</ele><time>2026-05-03T17:03:59.274Z</time></trkpt><trkpt lat="44.8615183" lon="7.8993967"><ele>296.6</ele><time>2026-05-03T17:04:00.274Z</time></trkpt><trkpt lat="44.8614383" lon="7.89951"><ele>298.4</ele><time>2026-05-03T17:04:01.275Z</time></trkpt><trkpt lat="44.8613667" lon="7.8996233"><ele>300.2</ele><time>2026-05-03T17:04:02.274Z</time></trkpt><trkpt lat="44.86129" lon="7.8997333"><ele>302.0</ele><time>2026-05-03T17:04:03.275Z</time></trkpt><trkpt lat="44.86122" lon="7.8998483"><ele>302.0</ele><time>2026-05-03T17:04:04.274Z</time></trkpt><trkpt lat="44.8611517" lon="7.8999583"><ele>302.0</ele><time>2026-05-03T17:04:05.274Z</time></trkpt><trkpt lat="44.8610933" lon="7.900075"><ele>302.0</ele><time>2026-05-03T17:04:06.274Z</time></trkpt><trkpt lat="44.86102" lon="7.9001933"><ele>302.0</ele><time>2026-05-03T17:04:07.274Z</time></trkpt><trkpt lat="44.8609483" lon="7.9003083"><ele>302.0</ele><time>2026-05-03T17:04:08.274Z</time></trkpt><trkpt lat="44.8608767" lon="7.9004183"><ele>302.4</ele><time>2026-05-03T17:04:09.274Z</time></trkpt><trkpt lat="44.8608083" lon="7.9005267"><ele>302.79999999999995</ele><time>2026-05-03T17:04:10.274Z</time></trkpt><trkpt lat="44.86074" lon="7.900635"><ele>303.2</ele><time>2026-05-03T17:04:11.274Z</time></trkpt><trkpt lat="44.8606717" lon="7.90073"><ele>303.59999999999997</ele><time>2026-05-03T17:04:12.275Z</time></trkpt><trkpt lat="44.8606" lon="7.90082"><ele>304.0</ele><time>2026-05-03T17:04:13.275Z</time></trkpt><trkpt lat="44.8605267" lon="7.9008983"><ele>304.59999999999997</ele><time>2026-05-03T17:04:14.274Z</time></trkpt><trkpt lat="44.8604567" lon="7.9009583"><ele>305.2</ele><time>2026-05-03T17:04:15.274Z</time></trkpt><trkpt lat="44.86039" lon="7.9010083"><ele>305.79999999999995</ele><time>2026-05-03T17:04:16.275Z</time></trkpt><trkpt lat="44.8603267" lon="7.9010667"><ele>306.4</ele><time>2026-05-03T17:04:17.274Z</time></trkpt><trkpt lat="44.86025" lon="7.90119"><ele>307.0</ele><time>2026-05-03T17:04:19.275Z</time></trkpt><trkpt lat="44.8602183" lon="7.90134"><ele>307.0</ele><time>2026-05-03T17:04:21.274Z</time></trkpt><trkpt lat="44.860185" lon="7.9015133"><ele>307.0</ele><time>2026-05-03T17:04:23.274Z</time></trkpt><trkpt lat="44.860175" lon="7.901605"><ele>307.0</ele><time>2026-05-03T17:04:24.274Z</time></trkpt><trkpt lat="44.86016" lon="7.9017017"><ele>307.0</ele><time>2026-05-03T17:04:25.275Z</time></trkpt><trkpt lat="44.8601417" lon="7.9018033"><ele>307.0</ele><time>2026-05-03T17:04:26.274Z</time></trkpt><trkpt lat="44.86012" lon="7.90192"><ele>307.0</ele><time>2026-05-03T17:04:27.274Z</time></trkpt><trkpt lat="44.8600983" lon="7.9020417"><ele>306.6</ele><time>2026-05-03T17:04:28.274Z</time></trkpt><trkpt lat="44.8600767" lon="7.9021667"><ele>306.2</ele><time>2026-05-03T17:04:29.274Z</time></trkpt><trkpt lat="44.8600617" lon="7.9022983"><ele>305.8</ele><time>2026-05-03T17:04:30.274Z</time></trkpt><trkpt lat="44.860035" lon="7.9024317"><ele>305.4</ele><time>2026-05-03T17:04:31.274Z</time></trkpt><trkpt lat="44.860005" lon="7.90257"><ele>305.0</ele><time>2026-05-03T17:04:32.274Z</time></trkpt><trkpt lat="44.8599683" lon="7.902705"><ele>305.0</ele><time>2026-05-03T17:04:33.274Z</time></trkpt><trkpt lat="44.859935" lon="7.9028517"><ele>305.0</ele><time>2026-05-03T17:04:34.274Z</time></trkpt><trkpt lat="44.8599083" lon="7.9029917"><ele>305.0</ele><time>2026-05-03T17:04:35.274Z</time></trkpt><trkpt lat="44.85989" lon="7.9031283"><ele>305.0</ele><time>2026-05-03T17:04:36.274Z</time></trkpt><trkpt lat="44.8598683" lon="7.9032767"><ele>305.0</ele><time>2026-05-03T17:04:37.275Z</time></trkpt><trkpt lat="44.859845" lon="7.9034267"><ele>305.6</ele><time>2026-05-03T17:04:38.274Z</time></trkpt><trkpt lat="44.85982" lon="7.9035717"><ele>306.2</ele><time>2026-05-03T17:04:39.274Z</time></trkpt><trkpt lat="44.8598" lon="7.9037167"><ele>306.8</ele><time>2026-05-03T17:04:40.274Z</time></trkpt><trkpt lat="44.85978" lon="7.9038667"><ele>307.4</ele><time>2026-05-03T17:04:41.274Z</time></trkpt><trkpt lat="44.8597567" lon="7.9040267"><ele>308.0</ele><time>2026-05-03T17:04:42.274Z</time></trkpt><trkpt lat="44.85973" lon="7.9041917"><ele>307.5</ele><time>2026-05-03T17:04:43.275Z</time></trkpt><trkpt lat="44.8597017" lon="7.904355"><ele>307.0</ele><time>2026-05-03T17:04:44.274Z</time></trkpt><trkpt lat="44.8596667" lon="7.9045217"><ele>306.5</ele><time>2026-05-03T17:04:45.275Z</time></trkpt><trkpt lat="44.8596267" lon="7.90468"><ele>306.0</ele><time>2026-05-03T17:04:46.274Z</time></trkpt><trkpt lat="44.859605" lon="7.9048267"><ele>306.0</ele><time>2026-05-03T17:04:47.275Z</time></trkpt><trkpt lat="44.859575" lon="7.9049867"><ele>306.0</ele><time>2026-05-03T17:04:48.274Z</time></trkpt><trkpt lat="44.85955" lon="7.9051433"><ele>306.0</ele><time>2026-05-03T17:04:49.274Z</time></trkpt><trkpt lat="44.8595317" lon="7.905285"><ele>306.0</ele><time>2026-05-03T17:04:50.274Z</time></trkpt><trkpt lat="44.859505" lon="7.9054483"><ele>305.5</ele><time>2026-05-03T17:04:51.274Z</time></trkpt><trkpt lat="44.8595083" lon="7.90562"><ele>305.0</ele><time>2026-05-03T17:04:52.274Z</time></trkpt><trkpt lat="44.859555" lon="7.9057883"><ele>304.5</ele><time>2026-05-03T17:04:53.275Z</time></trkpt><trkpt lat="44.8596117" lon="7.9059567"><ele>304.0</ele><time>2026-05-03T17:04:54.274Z</time></trkpt><trkpt lat="44.8596783" lon="7.9061183"><ele>305.5</ele><time>2026-05-03T17:04:55.274Z</time></trkpt><trkpt lat="44.859755" lon="7.9062733"><ele>307.0</ele><time>2026-05-03T17:04:56.274Z</time></trkpt><trkpt lat="44.8598317" lon="7.906435"><ele>308.5</ele><time>2026-05-03T17:04:57.274Z</time></trkpt><trkpt lat="44.8599083" lon="7.90659"><ele>310.0</ele><time>2026-05-03T17:04:58.274Z</time></trkpt><trkpt lat="44.8599783" lon="7.90676"><ele>310.0</ele><time>2026-05-03T17:04:59.274Z</time></trkpt><trkpt lat="44.8600433" lon="7.9069217"><ele>310.0</ele><time>2026-05-03T17:05:00.274Z</time></trkpt><trkpt lat="44.860095" lon="7.9071033"><ele>310.0</ele><time>2026-05-03T17:05:01.274Z</time></trkpt><trkpt lat="44.8601417" lon="7.9072883"><ele>310.0</ele><time>2026-05-03T17:05:02.275Z</time></trkpt><trkpt lat="44.86015" lon="7.9074817"><ele>309.5</ele><time>2026-05-03T17:05:03.275Z</time></trkpt><trkpt lat="44.8601267" lon="7.9076667"><ele>309.0</ele><time>2026-05-03T17:05:04.274Z</time></trkpt><trkpt lat="44.8600833" lon="7.907825"><ele>308.5</ele><time>2026-05-03T17:05:05.274Z</time></trkpt><trkpt lat="44.8600083" lon="7.907965"><ele>308.0</ele><time>2026-05-03T17:05:06.274Z</time></trkpt><trkpt lat="44.8599033" lon="7.9080883"><ele>308.33333333333337</ele><time>2026-05-03T17:05:07.274Z</time></trkpt><trkpt lat="44.859785" lon="7.908225"><ele>308.6666666666667</ele><time>2026-05-03T17:05:08.274Z</time></trkpt><trkpt lat="44.85966" lon="7.908375"><ele>309.0</ele><time>2026-05-03T17:05:09.274Z</time></trkpt><trkpt lat="44.85953" lon="7.9085267"><ele>309.0</ele><time>2026-05-03T17:05:10.274Z</time></trkpt><trkpt lat="44.8593967" lon="7.9086917"><ele>309.0</ele><time>2026-05-03T17:05:11.274Z</time></trkpt><trkpt lat="44.8592483" lon="7.908865"><ele>309.0</ele><time>2026-05-03T17:05:12.274Z</time></trkpt><trkpt lat="44.8590967" lon="7.9090433"><ele>309.3333333333333</ele><time>2026-05-03T17:05:13.274Z</time></trkpt><trkpt lat="44.8589583" lon="7.9092133"><ele>309.66666666666663</ele><time>2026-05-03T17:05:14.274Z</time></trkpt><trkpt lat="44.85881" lon="7.9093833"><ele>310.0</ele><time>2026-05-03T17:05:15.274Z</time></trkpt><trkpt lat="44.8586683" lon="7.9095517"><ele>309.3333333333333</ele><time>2026-05-03T17:05:16.274Z</time></trkpt><trkpt lat="44.8585183" lon="7.909715"><ele>308.6666666666667</ele><time>2026-05-03T17:05:17.274Z</time></trkpt><trkpt lat="44.85838" lon="7.9098783"><ele>308.0</ele><time>2026-05-03T17:05:18.274Z</time></trkpt><trkpt lat="44.8582467" lon="7.9100333"><ele>309.0</ele><time>2026-05-03T17:05:19.274Z</time></trkpt><trkpt lat="44.85813" lon="7.9101817"><ele>310.0</ele><time>2026-05-03T17:05:20.275Z</time></trkpt><trkpt lat="44.858045" lon="7.9103433"><ele>311.0</ele><time>2026-05-03T17:05:21.274Z</time></trkpt><trkpt lat="44.8579967" lon="7.9105133"><ele>312.0</ele><time>2026-05-03T17:05:22.274Z</time></trkpt><trkpt lat="44.857975" lon="7.910715"><ele>312.6666666666667</ele><time>2026-05-03T17:05:23.274Z</time></trkpt><trkpt lat="44.8579683" lon="7.91094"><ele>313.33333333333337</ele><time>2026-05-03T17:05:24.274Z</time></trkpt><trkpt lat="44.8579517" lon="7.9111783"><ele>314.0</ele><time>2026-05-03T17:05:25.274Z</time></trkpt><trkpt lat="44.8579283" lon="7.911425"><ele>314.0</ele><time>2026-05-03T17:05:26.274Z</time></trkpt><trkpt lat="44.8579" lon="7.91168"><ele>314.0</ele><time>2026-05-03T17:05:27.274Z</time></trkpt><trkpt lat="44.857875" lon="7.9119467"><ele>314.0</ele><time>2026-05-03T17:05:28.274Z</time></trkpt><trkpt lat="44.857855" lon="7.9122133"><ele>314.6666666666667</ele><time>2026-05-03T17:05:29.274Z</time></trkpt><trkpt lat="44.857825" lon="7.9124867"><ele>315.3333333333333</ele><time>2026-05-03T17:05:30.274Z</time></trkpt><trkpt lat="44.8578067" lon="7.9127633"><ele>316.0</ele><time>2026-05-03T17:05:31.274Z</time></trkpt><trkpt lat="44.8577767" lon="7.91304"><ele>316.0</ele><time>2026-05-03T17:05:32.274Z</time></trkpt><trkpt lat="44.85775" lon="7.9133283"><ele>316.0</ele><time>2026-05-03T17:05:33.274Z</time></trkpt><trkpt lat="44.857725" lon="7.91362"><ele>316.0</ele><time>2026-05-03T17:05:34.274Z</time></trkpt><trkpt lat="44.8577083" lon="7.91391"><ele>316.0</ele><time>2026-05-03T17:05:35.274Z</time></trkpt><trkpt lat="44.8576867" lon="7.91419"><ele>316.0</ele><time>2026-05-03T17:05:36.274Z</time></trkpt><trkpt lat="44.8576683" lon="7.9144517"><ele>316.0</ele><time>2026-05-03T17:05:37.274Z</time></trkpt><trkpt lat="44.8576567" lon="7.9146967"><ele>316.75</ele><time>2026-05-03T17:05:38.275Z</time></trkpt><trkpt lat="44.8576383" lon="7.914925"><ele>317.5</ele><time>2026-05-03T17:05:39.274Z</time></trkpt><trkpt lat="44.857605" lon="7.9151283"><ele>318.25</ele><time>2026-05-03T17:05:40.274Z</time></trkpt><trkpt lat="44.8575517" lon="7.9152883"><ele>319.0</ele><time>2026-05-03T17:05:41.274Z</time></trkpt><trkpt lat="44.8574583" lon="7.91543"><ele>319.0</ele><time>2026-05-03T17:05:42.274Z</time></trkpt><trkpt lat="44.8573367" lon="7.9155517"><ele>319.0</ele><time>2026-05-03T17:05:43.275Z</time></trkpt><trkpt lat="44.85718" lon="7.9156883"><ele>319.0</ele><time>2026-05-03T17:05:44.274Z</time></trkpt><trkpt lat="44.8570217" lon="7.9158417"><ele>318.3333333333333</ele><time>2026-05-03T17:05:45.274Z</time></trkpt><trkpt lat="44.8568683" lon="7.916005"><ele>317.6666666666667</ele><time>2026-05-03T17:05:46.274Z</time></trkpt><trkpt lat="44.856725" lon="7.91619"><ele>317.0</ele><time>2026-05-03T17:05:47.274Z</time></trkpt><trkpt lat="44.8565833" lon="7.9163633"><ele>317.0</ele><time>2026-05-03T17:05:48.274Z</time></trkpt><trkpt lat="44.8564417" lon="7.91654"><ele>317.0</ele><time>2026-05-03T17:05:49.274Z</time></trkpt><trkpt lat="44.8563033" lon="7.9167133"><ele>317.0</ele><time>2026-05-03T17:05:50.275Z</time></trkpt><trkpt lat="44.8561683" lon="7.9169"><ele>317.0</ele><time>2026-05-03T17:05:51.274Z</time></trkpt><trkpt lat="44.8560433" lon="7.9170883"><ele>317.0</ele><time>2026-05-03T17:05:52.274Z</time></trkpt><trkpt lat="44.8559333" lon="7.91731"><ele>317.0</ele><time>2026-05-03T17:05:53.274Z</time></trkpt><trkpt lat="44.855835" lon="7.9175383"><ele>319.0</ele><time>2026-05-03T17:05:54.274Z</time></trkpt><trkpt lat="44.8557483" lon="7.9177833"><ele>321.0</ele><time>2026-05-03T17:05:55.274Z</time></trkpt><trkpt lat="44.8556683" lon="7.9180267"><ele>323.0</ele><time>2026-05-03T17:05:56.274Z</time></trkpt><trkpt lat="44.8556017" lon="7.9182717"><ele>322.33333333333337</ele><time>2026-05-03T17:05:57.274Z</time></trkpt><trkpt lat="44.8555567" lon="7.9185233"><ele>321.6666666666667</ele><time>2026-05-03T17:05:58.274Z</time></trkpt><trkpt lat="44.8555333" lon="7.918785"><ele>321.0</ele><time>2026-05-03T17:05:59.274Z</time></trkpt><trkpt lat="44.8555367" lon="7.91906"><ele>322.3333333333333</ele><time>2026-05-03T17:06:00.274Z</time></trkpt><trkpt lat="44.8555667" lon="7.9193483"><ele>323.66666666666663</ele><time>2026-05-03T17:06:01.274Z</time></trkpt><trkpt lat="44.8556117" lon="7.91964"><ele>325.0</ele><time>2026-05-03T17:06:02.274Z</time></trkpt><trkpt lat="44.8556617" lon="7.9199383"><ele>325.66666666666663</ele><time>2026-05-03T17:06:03.274Z</time></trkpt><trkpt lat="44.8557167" lon="7.9202367"><ele>326.3333333333333</ele><time>2026-05-03T17:06:04.274Z</time></trkpt><trkpt lat="44.8557633" lon="7.9205417"><ele>327.0</ele><time>2026-05-03T17:06:05.274Z</time></trkpt><trkpt lat="44.855815" lon="7.92084"><ele>327.0</ele><time>2026-05-03T17:06:06.274Z</time></trkpt><trkpt lat="44.8558633" lon="7.9211383"><ele>327.0</ele><time>2026-05-03T17:06:07.274Z</time></trkpt><trkpt lat="44.85591" lon="7.9214317"><ele>327.0</ele><time>2026-05-03T17:06:08.274Z</time></trkpt><trkpt lat="44.8559617" lon="7.9217167"><ele>326.0</ele><time>2026-05-03T17:06:09.274Z</time></trkpt><trkpt lat="44.8560117" lon="7.9219883"><ele>325.0</ele><time>2026-05-03T17:06:10.275Z</time></trkpt><trkpt lat="44.8560533" lon="7.9222467"><ele>324.0</ele><time>2026-05-03T17:06:11.274Z</time></trkpt><trkpt lat="44.8560817" lon="7.9224817"><ele>324.0</ele><time>2026-05-03T17:06:12.274Z</time></trkpt><trkpt lat="44.8560817" lon="7.9226883"><ele>324.0</ele><time>2026-05-03T17:06:13.275Z</time></trkpt><trkpt lat="44.8560483" lon="7.9228833"><ele>324.0</ele><time>2026-05-03T17:06:14.274Z</time></trkpt><trkpt lat="44.8559833" lon="7.9230633"><ele>324.0</ele><time>2026-05-03T17:06:15.274Z</time></trkpt><trkpt lat="44.855885" lon="7.923235"><ele>324.6666666666667</ele><time>2026-05-03T17:06:16.274Z</time></trkpt><trkpt lat="44.8557783" lon="7.9234333"><ele>325.33333333333337</ele><time>2026-05-03T17:06:17.275Z</time></trkpt><trkpt lat="44.8556617" lon="7.92362"><ele>326.0</ele><time>2026-05-03T17:06:18.274Z</time></trkpt><trkpt lat="44.8555417" lon="7.92382"><ele>326.0</ele><time>2026-05-03T17:06:19.274Z</time></trkpt><trkpt lat="44.8554283" lon="7.9240117"><ele>326.0</ele><time>2026-05-03T17:06:20.274Z</time></trkpt><trkpt lat="44.8553183" lon="7.9242133"><ele>326.0</ele><time>2026-05-03T17:06:21.274Z</time></trkpt><trkpt lat="44.85522" lon="7.9244183"><ele>326.33333333333337</ele><time>2026-05-03T17:06:22.274Z</time></trkpt><trkpt lat="44.8551267" lon="7.92462"><ele>326.6666666666667</ele><time>2026-05-03T17:06:23.275Z</time></trkpt><trkpt lat="44.8550133" lon="7.9248133"><ele>327.0</ele><time>2026-05-03T17:06:24.274Z</time></trkpt><trkpt lat="44.8548867" lon="7.9249733"><ele>326.0</ele><time>2026-05-03T17:06:25.275Z</time></trkpt><trkpt lat="44.8547417" lon="7.9251167"><ele>325.0</ele><time>2026-05-03T17:06:26.274Z</time></trkpt><trkpt lat="44.8545667" lon="7.9252583"><ele>324.0</ele><time>2026-05-03T17:06:27.275Z</time></trkpt><trkpt lat="44.8544" lon="7.92541"><ele>324.0</ele><time>2026-05-03T17:06:28.274Z</time></trkpt><trkpt lat="44.8542533" lon="7.9256033"><ele>324.0</ele><time>2026-05-03T17:06:29.274Z</time></trkpt><trkpt lat="44.854125" lon="7.9258117"><ele>324.0</ele><time>2026-05-03T17:06:30.274Z</time></trkpt><trkpt lat="44.85401" lon="7.9260417"><ele>324.3333333333333</ele><time>2026-05-03T17:06:31.274Z</time></trkpt><trkpt lat="44.85393" lon="7.9262717"><ele>324.66666666666663</ele><time>2026-05-03T17:06:32.274Z</time></trkpt><trkpt lat="44.8538833" lon="7.9265183"><ele>325.0</ele><time>2026-05-03T17:06:33.274Z</time></trkpt><trkpt lat="44.8538533" lon="7.9267583"><ele>325.3333333333333</ele><time>2026-05-03T17:06:34.274Z</time></trkpt><trkpt lat="44.8538083" lon="7.92698"><ele>325.6666666666667</ele><time>2026-05-03T17:06:35.274Z</time></trkpt><trkpt lat="44.853735" lon="7.9271483"><ele>326.0</ele><time>2026-05-03T17:06:36.275Z</time></trkpt><trkpt lat="44.8536217" lon="7.9273"><ele>326.0</ele><time>2026-05-03T17:06:37.274Z</time></trkpt><trkpt lat="44.8534933" lon="7.9274367"><ele>326.0</ele><time>2026-05-03T17:06:38.274Z</time></trkpt><trkpt lat="44.853385" lon="7.9275783"><ele>326.0</ele><time>2026-05-03T17:06:39.274Z</time></trkpt><trkpt lat="44.8533017" lon="7.9277517"><ele>327.0</ele><time>2026-05-03T17:06:40.274Z</time></trkpt><trkpt lat="44.8532583" lon="7.9279567"><ele>328.0</ele><time>2026-05-03T17:06:41.275Z</time></trkpt><trkpt lat="44.8532433" lon="7.9282033"><ele>329.0</ele><time>2026-05-03T17:06:42.275Z</time></trkpt><trkpt lat="44.8532333" lon="7.92846"><ele>330.0</ele><time>2026-05-03T17:06:43.275Z</time></trkpt><trkpt lat="44.8532217" lon="7.928695"><ele>331.0</ele><time>2026-05-03T17:06:44.274Z</time></trkpt><trkpt lat="44.8532133" lon="7.9289117"><ele>332.0</ele><time>2026-05-03T17:06:45.274Z</time></trkpt><trkpt lat="44.853215" lon="7.9291183"><ele>331.75</ele><time>2026-05-03T17:06:46.274Z</time></trkpt><trkpt lat="44.8532333" lon="7.9293083"><ele>331.5</ele><time>2026-05-03T17:06:47.274Z</time></trkpt><trkpt lat="44.8532933" lon="7.92948"><ele>331.25</ele><time>2026-05-03T17:06:48.274Z</time></trkpt><trkpt lat="44.85339" lon="7.9296217"><ele>331.0</ele><time>2026-05-03T17:06:49.274Z</time></trkpt><trkpt lat="44.853515" lon="7.92974"><ele>331.0</ele><time>2026-05-03T17:06:50.274Z</time></trkpt><trkpt lat="44.8536617" lon="7.929855"><ele>331.0</ele><time>2026-05-03T17:06:51.274Z</time></trkpt><trkpt lat="44.8538133" lon="7.9299833"><ele>331.0</ele><time>2026-05-03T17:06:52.274Z</time></trkpt><trkpt lat="44.853965" lon="7.930125"><ele>330.3333333333333</ele><time>2026-05-03T17:06:53.274Z</time></trkpt><trkpt lat="44.8541283" lon="7.9302567"><ele>329.6666666666667</ele><time>2026-05-03T17:06:54.274Z</time></trkpt><trkpt lat="44.8542967" lon="7.9303917"><ele>329.0</ele><time>2026-05-03T17:06:55.274Z</time></trkpt><trkpt lat="44.8544717" lon="7.9305383"><ele>329.0</ele><time>2026-05-03T17:06:56.274Z</time></trkpt><trkpt lat="44.8546417" lon="7.930685"><ele>329.0</ele><time>2026-05-03T17:06:57.274Z</time></trkpt><trkpt lat="44.8548183" lon="7.93083"><ele>329.0</ele><time>2026-05-03T17:06:58.274Z</time></trkpt><trkpt lat="44.854995" lon="7.9309817"><ele>329.33333333333337</ele><time>2026-05-03T17:06:59.274Z</time></trkpt><trkpt lat="44.85517" lon="7.9311267"><ele>329.6666666666667</ele><time>2026-05-03T17:07:00.274Z</time></trkpt><trkpt lat="44.8553417" lon="7.9312817"><ele>330.0</ele><time>2026-05-03T17:07:01.274Z</time></trkpt><trkpt lat="44.85551" lon="7.9314283"><ele>330.0</ele><time>2026-05-03T17:07:02.274Z</time></trkpt><trkpt lat="44.855675" lon="7.9315667"><ele>330.0</ele><time>2026-05-03T17:07:03.274Z</time></trkpt><trkpt lat="44.855835" lon="7.931705"><ele>330.0</ele><time>2026-05-03T17:07:04.274Z</time></trkpt><trkpt lat="44.8559917" lon="7.9318433"><ele>327.6666666666667</ele><time>2026-05-03T17:07:05.274Z</time></trkpt><trkpt lat="44.8561517" lon="7.9319733"><ele>325.33333333333337</ele><time>2026-05-03T17:07:06.274Z</time></trkpt><trkpt lat="44.8563333" lon="7.93208"><ele>323.0</ele><time>2026-05-03T17:07:07.274Z</time></trkpt><trkpt lat="44.856525" lon="7.93214"><ele>323.0</ele><time>2026-05-03T17:07:08.274Z</time></trkpt><trkpt lat="44.856725" lon="7.9322083"><ele>323.0</ele><time>2026-05-03T17:07:09.274Z</time></trkpt><trkpt lat="44.8569217" lon="7.9322767"><ele>323.0</ele><time>2026-05-03T17:07:10.274Z</time></trkpt><trkpt lat="44.8571167" lon="7.932355"><ele>322.6666666666667</ele><time>2026-05-03T17:07:11.274Z</time></trkpt><trkpt lat="44.857305" lon="7.9324433"><ele>322.3333333333333</ele><time>2026-05-03T17:07:12.274Z</time></trkpt><trkpt lat="44.857485" lon="7.93251"><ele>322.0</ele><time>2026-05-03T17:07:13.274Z</time></trkpt><trkpt lat="44.857665" lon="7.9325717"><ele>322.0</ele><time>2026-05-03T17:07:14.274Z</time></trkpt><trkpt lat="44.85784" lon="7.93264"><ele>322.0</ele><time>2026-05-03T17:07:15.274Z</time></trkpt><trkpt lat="44.858005" lon="7.9327017"><ele>322.0</ele><time>2026-05-03T17:07:16.274Z</time></trkpt><trkpt lat="44.858155" lon="7.9327783"><ele>322.0</ele><time>2026-05-03T17:07:17.274Z</time></trkpt><trkpt lat="44.8583017" lon="7.9328783"><ele>322.0</ele><time>2026-05-03T17:07:18.274Z</time></trkpt><trkpt lat="44.8584283" lon="7.933025"><ele>322.0</ele><time>2026-05-03T17:07:19.274Z</time></trkpt><trkpt lat="44.8585467" lon="7.9331717"><ele>322.0</ele><time>2026-05-03T17:07:20.274Z</time></trkpt><trkpt lat="44.858685" lon="7.9332833"><ele>322.0</ele><time>2026-05-03T17:07:21.274Z</time></trkpt><trkpt lat="44.858845" lon="7.9333567"><ele>322.0</ele><time>2026-05-03T17:07:22.274Z</time></trkpt><trkpt lat="44.8590083" lon="7.9334067"><ele>321.66666666666663</ele><time>2026-05-03T17:07:23.274Z</time></trkpt><trkpt lat="44.8591833" lon="7.9334617"><ele>321.3333333333333</ele><time>2026-05-03T17:07:24.274Z</time></trkpt><trkpt lat="44.85936" lon="7.93353"><ele>321.0</ele><time>2026-05-03T17:07:25.274Z</time></trkpt><trkpt lat="44.85953" lon="7.9335967"><ele>319.6666666666667</ele><time>2026-05-03T17:07:26.274Z</time></trkpt><trkpt lat="44.8596967" lon="7.933645"><ele>318.33333333333337</ele><time>2026-05-03T17:07:27.274Z</time></trkpt><trkpt lat="44.8598567" lon="7.9336867"><ele>317.0</ele><time>2026-05-03T17:07:28.274Z</time></trkpt><trkpt lat="44.860005" lon="7.9337367"><ele>315.75</ele><time>2026-05-03T17:07:29.274Z</time></trkpt><trkpt lat="44.8601217" lon="7.9338267"><ele>314.5</ele><time>2026-05-03T17:07:30.274Z</time></trkpt><trkpt lat="44.8602033" lon="7.9339583"><ele>313.25</ele><time>2026-05-03T17:07:31.274Z</time></trkpt><trkpt lat="44.8602517" lon="7.9341117"><ele>312.0</ele><time>2026-05-03T17:07:32.274Z</time></trkpt><trkpt lat="44.8602917" lon="7.934255"><ele>310.4</ele><time>2026-05-03T17:07:33.274Z</time></trkpt><trkpt lat="44.86034" lon="7.9343717"><ele>308.79999999999995</ele><time>2026-05-03T17:07:34.274Z</time></trkpt><trkpt lat="44.8604083" lon="7.9344517"><ele>307.2</ele><time>2026-05-03T17:07:35.274Z</time></trkpt><trkpt lat="44.8604933" lon="7.93448"><ele>305.59999999999997</ele><time>2026-05-03T17:07:36.274Z</time></trkpt><trkpt lat="44.860575" lon="7.934455"><ele>304.0</ele><time>2026-05-03T17:07:37.274Z</time></trkpt><trkpt lat="44.8606583" lon="7.93438"><ele>304.0</ele><time>2026-05-03T17:07:38.274Z</time></trkpt><trkpt lat="44.8607367" lon="7.9342533"><ele>304.0</ele><time>2026-05-03T17:07:39.274Z</time></trkpt><trkpt lat="44.8608117" lon="7.9341417"><ele>304.0</ele><time>2026-05-03T17:07:40.275Z</time></trkpt><trkpt lat="44.8609083" lon="7.9340633"><ele>304.0</ele><time>2026-05-03T17:07:41.274Z</time></trkpt><trkpt lat="44.8610183" lon="7.9340367"><ele>303.75</ele><time>2026-05-03T17:07:42.274Z</time></trkpt><trkpt lat="44.8611183" lon="7.9340667"><ele>303.5</ele><time>2026-05-03T17:07:43.274Z</time></trkpt><trkpt lat="44.8612167" lon="7.9341533"><ele>303.25</ele><time>2026-05-03T17:07:44.274Z</time></trkpt><trkpt lat="44.8613067" lon="7.93427"><ele>303.0</ele><time>2026-05-03T17:07:45.274Z</time></trkpt><trkpt lat="44.861395" lon="7.9344067"><ele>303.0</ele><time>2026-05-03T17:07:46.274Z</time></trkpt><trkpt lat="44.8614717" lon="7.934565"><ele>303.0</ele><time>2026-05-03T17:07:47.274Z</time></trkpt><trkpt lat="44.8615333" lon="7.9347633"><ele>303.0</ele><time>2026-05-03T17:07:48.274Z</time></trkpt><trkpt lat="44.8615817" lon="7.9349733"><ele>303.0</ele><time>2026-05-03T17:07:49.274Z</time></trkpt><trkpt lat="44.8616467" lon="7.9351833"><ele>302.3333333333333</ele><time>2026-05-03T17:07:50.274Z</time></trkpt><trkpt lat="44.8617367" lon="7.9354"><ele>301.66666666666663</ele><time>2026-05-03T17:07:51.274Z</time></trkpt><trkpt lat="44.8618433" lon="7.9356217"><ele>301.0</ele><time>2026-05-03T17:07:52.274Z</time></trkpt><trkpt lat="44.8619483" lon="7.93586"><ele>298.66666666666663</ele><time>2026-05-03T17:07:53.274Z</time></trkpt><trkpt lat="44.86206" lon="7.9361183"><ele>296.3333333333333</ele><time>2026-05-03T17:07:54.274Z</time></trkpt><trkpt lat="44.8621617" lon="7.93639"><ele>294.0</ele><time>2026-05-03T17:07:55.274Z</time></trkpt><trkpt lat="44.8622567" lon="7.936665"><ele>295.3333333333333</ele><time>2026-05-03T17:07:56.274Z</time></trkpt><trkpt lat="44.8623533" lon="7.93694"><ele>296.66666666666663</ele><time>2026-05-03T17:07:57.274Z</time></trkpt><trkpt lat="44.86245" lon="7.9372167"><ele>298.0</ele><time>2026-05-03T17:07:58.274Z</time></trkpt><trkpt lat="44.862545" lon="7.9374967"><ele>302.3333333333333</ele><time>2026-05-03T17:07:59.274Z</time></trkpt><trkpt lat="44.8626383" lon="7.93777"><ele>306.6666666666667</ele><time>2026-05-03T17:08:00.274Z</time></trkpt><trkpt lat="44.8627283" lon="7.9380333"><ele>311.0</ele><time>2026-05-03T17:08:01.274Z</time></trkpt><trkpt lat="44.8628067" lon="7.938275"><ele>308.33333333333337</ele><time>2026-05-03T17:08:02.274Z</time></trkpt><trkpt lat="44.8628717" lon="7.938515"><ele>305.6666666666667</ele><time>2026-05-03T17:08:03.275Z</time></trkpt><trkpt lat="44.8629333" lon="7.9387333"><ele>303.0</ele><time>2026-05-03T17:08:04.274Z</time></trkpt><trkpt lat="44.8629967" lon="7.938925"><ele>303.0</ele><time>2026-05-03T17:08:05.274Z</time></trkpt><trkpt lat="44.8630733" lon="7.9390983"><ele>303.0</ele><time>2026-05-03T17:08:06.274Z</time></trkpt><trkpt lat="44.8631717" lon="7.9392417"><ele>303.0</ele><time>2026-05-03T17:08:07.274Z</time></trkpt><trkpt lat="44.8632983" lon="7.93934"><ele>303.0</ele><time>2026-05-03T17:08:08.274Z</time></trkpt><trkpt lat="44.8634533" lon="7.9394017"><ele>302.0</ele><time>2026-05-03T17:08:09.274Z</time></trkpt><trkpt lat="44.8636167" lon="7.939435"><ele>301.0</ele><time>2026-05-03T17:08:10.274Z</time></trkpt><trkpt lat="44.8637967" lon="7.9394617"><ele>300.0</ele><time>2026-05-03T17:08:11.274Z</time></trkpt><trkpt lat="44.863975" lon="7.939485"><ele>300.0</ele><time>2026-05-03T17:08:12.274Z</time></trkpt><trkpt lat="44.8641517" lon="7.9395"><ele>300.0</ele><time>2026-05-03T17:08:13.274Z</time></trkpt><trkpt lat="44.86432" lon="7.9395"><ele>300.0</ele><time>2026-05-03T17:08:14.274Z</time></trkpt><trkpt lat="44.864485" lon="7.9394867"><ele>299.5</ele><time>2026-05-03T17:08:15.274Z</time></trkpt><trkpt lat="44.8646367" lon="7.9394883"><ele>299.0</ele><time>2026-05-03T17:08:16.274Z</time></trkpt><trkpt lat="44.8647667" lon="7.93951"><ele>298.5</ele><time>2026-05-03T17:08:17.274Z</time></trkpt><trkpt lat="44.8648817" lon="7.9395717"><ele>298.0</ele><time>2026-05-03T17:08:18.274Z</time></trkpt><trkpt lat="44.864975" lon="7.939695"><ele>298.0</ele><time>2026-05-03T17:08:19.274Z</time></trkpt><trkpt lat="44.8650517" lon="7.939855"><ele>298.0</ele><time>2026-05-03T17:08:20.274Z</time></trkpt><trkpt lat="44.8651067" lon="7.9400467"><ele>298.0</ele><time>2026-05-03T17:08:21.274Z</time></trkpt><trkpt lat="44.8651667" lon="7.94024"><ele>298.0</ele><time>2026-05-03T17:08:22.275Z</time></trkpt><trkpt lat="44.8652233" lon="7.9404267"><ele>300.25</ele><time>2026-05-03T17:08:23.274Z</time></trkpt><trkpt lat="44.865285" lon="7.9406117"><ele>302.5</ele><time>2026-05-03T17:08:24.274Z</time></trkpt><trkpt lat="44.8653733" lon="7.9407817"><ele>304.75</ele><time>2026-05-03T17:08:25.275Z</time></trkpt><trkpt lat="44.8654783" lon="7.9409317"><ele>307.0</ele><time>2026-05-03T17:08:26.274Z</time></trkpt><trkpt lat="44.865595" lon="7.9410783"><ele>307.0</ele><time>2026-05-03T17:08:27.274Z</time></trkpt><trkpt lat="44.8657217" lon="7.94123"><ele>307.0</ele><time>2026-05-03T17:08:28.274Z</time></trkpt><trkpt lat="44.8658367" lon="7.9413883"><ele>307.0</ele><time>2026-05-03T17:08:29.274Z</time></trkpt><trkpt lat="44.8659433" lon="7.9415467"><ele>308.75</ele><time>2026-05-03T17:08:30.274Z</time></trkpt><trkpt lat="44.8660367" lon="7.9417183"><ele>310.5</ele><time>2026-05-03T17:08:31.274Z</time></trkpt><trkpt lat="44.8661167" lon="7.9418867"><ele>312.25</ele><time>2026-05-03T17:08:32.274Z</time></trkpt><trkpt lat="44.86616" lon="7.9420583"><ele>314.0</ele><time>2026-05-03T17:08:33.274Z</time></trkpt><trkpt lat="44.8661933" lon="7.94223"><ele>314.0</ele><time>2026-05-03T17:08:34.275Z</time></trkpt><trkpt lat="44.86621" lon="7.9424183"><ele>314.0</ele><time>2026-05-03T17:08:35.274Z</time></trkpt><trkpt lat="44.8662233" lon="7.942615"><ele>314.0</ele><time>2026-05-03T17:08:36.274Z</time></trkpt><trkpt lat="44.8662467" lon="7.9428217"><ele>314.0</ele><time>2026-05-03T17:08:37.274Z</time></trkpt><trkpt lat="44.8662817" lon="7.943005"><ele>315.0</ele><time>2026-05-03T17:08:38.275Z</time></trkpt><trkpt lat="44.866325" lon="7.9431733"><ele>316.0</ele><time>2026-05-03T17:08:39.274Z</time></trkpt><trkpt lat="44.8663617" lon="7.943335"><ele>317.0</ele><time>2026-05-03T17:08:40.275Z</time></trkpt><trkpt lat="44.8664167" lon="7.9434933"><ele>318.0</ele><time>2026-05-03T17:08:41.274Z</time></trkpt><trkpt lat="44.8664633" lon="7.943635"><ele>318.2</ele><time>2026-05-03T17:08:42.274Z</time></trkpt><trkpt lat="44.8665083" lon="7.9437633"><ele>318.4</ele><time>2026-05-03T17:08:43.274Z</time></trkpt><trkpt lat="44.86655" lon="7.9438933"><ele>318.59999999999997</ele><time>2026-05-03T17:08:44.274Z</time></trkpt><trkpt lat="44.866585" lon="7.9440233"><ele>318.8</ele><time>2026-05-03T17:08:45.275Z</time></trkpt><trkpt lat="44.86662" lon="7.9441583"><ele>319.0</ele><time>2026-05-03T17:08:46.274Z</time></trkpt><trkpt lat="44.8666517" lon="7.9442867"><ele>319.16666666666663</ele><time>2026-05-03T17:08:47.274Z</time></trkpt><trkpt lat="44.866685" lon="7.944395"><ele>319.3333333333333</ele><time>2026-05-03T17:08:48.274Z</time></trkpt><trkpt lat="44.8667183" lon="7.9445017"><ele>319.5</ele><time>2026-05-03T17:08:49.274Z</time></trkpt><trkpt lat="44.8667417" lon="7.94459"><ele>319.6666666666667</ele><time>2026-05-03T17:08:50.274Z</time></trkpt><trkpt lat="44.8667767" lon="7.9447383"><ele>319.83333333333337</ele><time>2026-05-03T17:08:52.274Z</time></trkpt><trkpt lat="44.8668333" lon="7.9448017"><ele>320.0</ele><time>2026-05-03T17:08:54.274Z</time></trkpt><trkpt lat="44.8669383" lon="7.9447867"><ele>319.2</ele><time>2026-05-03T17:08:56.274Z</time></trkpt><trkpt lat="44.8670133" lon="7.944775"><ele>318.4</ele><time>2026-05-03T17:08:57.274Z</time></trkpt><trkpt lat="44.8670967" lon="7.9447633"><ele>317.6</ele><time>2026-05-03T17:08:58.275Z</time></trkpt><trkpt lat="44.8671983" lon="7.9447433"><ele>316.8</ele><time>2026-05-03T17:08:59.274Z</time></trkpt><trkpt lat="44.8673133" lon="7.944735"><ele>316.0</ele><time>2026-05-03T17:09:00.274Z</time></trkpt><trkpt lat="44.86743" lon="7.944735"><ele>316.0</ele><time>2026-05-03T17:09:01.275Z</time></trkpt><trkpt lat="44.8675633" lon="7.9447333"><ele>316.0</ele><time>2026-05-03T17:09:02.274Z</time></trkpt><trkpt lat="44.8676967" lon="7.944715"><ele>316.0</ele><time>2026-05-03T17:09:03.274Z</time></trkpt><trkpt lat="44.867825" lon="7.9446967"><ele>316.0</ele><time>2026-05-03T17:09:04.274Z</time></trkpt><trkpt lat="44.8679433" lon="7.9446867"><ele>315.5</ele><time>2026-05-03T17:09:05.274Z</time></trkpt><trkpt lat="44.8680483" lon="7.944665"><ele>315.0</ele><time>2026-05-03T17:09:06.274Z</time></trkpt><trkpt lat="44.8681633" lon="7.94465"><ele>314.5</ele><time>2026-05-03T17:09:07.274Z</time></trkpt><trkpt lat="44.8682867" lon="7.94462"><ele>314.0</ele><time>2026-05-03T17:09:08.275Z</time></trkpt><trkpt lat="44.86842" lon="7.9445817"><ele>312.75</ele><time>2026-05-03T17:09:09.274Z</time></trkpt><trkpt lat="44.8685567" lon="7.94453"><ele>311.5</ele><time>2026-05-03T17:09:10.275Z</time></trkpt><trkpt lat="44.8686733" lon="7.94446"><ele>310.25</ele><time>2026-05-03T17:09:11.275Z</time></trkpt><trkpt lat="44.868795" lon="7.9444067"><ele>309.0</ele><time>2026-05-03T17:09:12.274Z</time></trkpt><trkpt lat="44.8689067" lon="7.9443433"><ele>309.0</ele><time>2026-05-03T17:09:13.274Z</time></trkpt><trkpt lat="44.8690183" lon="7.944265"><ele>309.0</ele><time>2026-05-03T17:09:14.274Z</time></trkpt><trkpt lat="44.8691183" lon="7.94417"><ele>309.0</ele><time>2026-05-03T17:09:15.274Z</time></trkpt><trkpt lat="44.8692133" lon="7.9440583"><ele>309.0</ele><time>2026-05-03T17:09:16.274Z</time></trkpt><trkpt lat="44.869295" lon="7.9439517"><ele>309.2</ele><time>2026-05-03T17:09:17.274Z</time></trkpt><trkpt lat="44.8693733" lon="7.9438667"><ele>309.4</ele><time>2026-05-03T17:09:18.274Z</time></trkpt><trkpt lat="44.8694583" lon="7.9438117"><ele>309.6</ele><time>2026-05-03T17:09:19.274Z</time></trkpt><trkpt lat="44.869545" lon="7.9437833"><ele>309.8</ele><time>2026-05-03T17:09:20.274Z</time></trkpt><trkpt lat="44.8696317" lon="7.943775"><ele>310.0</ele><time>2026-05-03T17:09:21.274Z</time></trkpt><trkpt lat="44.86972" lon="7.9438033"><ele>310.0</ele><time>2026-05-03T17:09:22.274Z</time></trkpt><trkpt lat="44.8698033" lon="7.9438733"><ele>310.0</ele><time>2026-05-03T17:09:23.274Z</time></trkpt><trkpt lat="44.869885" lon="7.9439733"><ele>310.0</ele><time>2026-05-03T17:09:24.274Z</time></trkpt><trkpt lat="44.8699617" lon="7.9441017"><ele>310.0</ele><time>2026-05-03T17:09:25.274Z</time></trkpt><trkpt lat="44.8700267" lon="7.9442433"><ele>310.0</ele><time>2026-05-03T17:09:26.274Z</time></trkpt><trkpt lat="44.870085" lon="7.9443967"><ele>309.8</ele><time>2026-05-03T17:09:27.274Z</time></trkpt><trkpt lat="44.870125" lon="7.9445517"><ele>309.6</ele><time>2026-05-03T17:09:28.275Z</time></trkpt><trkpt lat="44.870175" lon="7.9446833"><ele>309.4</ele><time>2026-05-03T17:09:29.274Z</time></trkpt><trkpt lat="44.8702467" lon="7.944795"><ele>309.2</ele><time>2026-05-03T17:09:30.274Z</time></trkpt><trkpt lat="44.870335" lon="7.9448917"><ele>309.0</ele><time>2026-05-03T17:09:31.274Z</time></trkpt><trkpt lat="44.87044" lon="7.9449667"><ele>309.25</ele><time>2026-05-03T17:09:32.274Z</time></trkpt><trkpt lat="44.8705533" lon="7.9450483"><ele>309.5</ele><time>2026-05-03T17:09:33.274Z</time></trkpt><trkpt lat="44.8706783" lon="7.9451333"><ele>309.75</ele><time>2026-05-03T17:09:34.274Z</time></trkpt><trkpt lat="44.8708083" lon="7.9452033"><ele>310.0</ele><time>2026-05-03T17:09:35.275Z</time></trkpt><trkpt lat="44.8709383" lon="7.9452617"><ele>309.0</ele><time>2026-05-03T17:09:36.274Z</time></trkpt><trkpt lat="44.8710633" lon="7.9453033"><ele>308.0</ele><time>2026-05-03T17:09:37.274Z</time></trkpt><trkpt lat="44.87119" lon="7.9453167"><ele>307.0</ele><time>2026-05-03T17:09:38.274Z</time></trkpt><trkpt lat="44.8713183" lon="7.9452967"><ele>306.0</ele><time>2026-05-03T17:09:39.274Z</time></trkpt><trkpt lat="44.87144" lon="7.9452617"><ele>306.0</ele><time>2026-05-03T17:09:40.274Z</time></trkpt><trkpt lat="44.8715717" lon="7.9452"><ele>306.0</ele><time>2026-05-03T17:09:41.274Z</time></trkpt><trkpt lat="44.87169" lon="7.9451333"><ele>306.0</ele><time>2026-05-03T17:09:42.274Z</time></trkpt><trkpt lat="44.871805" lon="7.945075"><ele>306.0</ele><time>2026-05-03T17:09:43.274Z</time></trkpt><trkpt lat="44.87191" lon="7.9450283"><ele>305.75</ele><time>2026-05-03T17:09:44.274Z</time></trkpt><trkpt lat="44.87202" lon="7.9449667"><ele>305.5</ele><time>2026-05-03T17:09:45.274Z</time></trkpt><trkpt lat="44.8721383" lon="7.9449067"><ele>305.25</ele><time>2026-05-03T17:09:46.275Z</time></trkpt><trkpt lat="44.872265" lon="7.9448483"><ele>305.0</ele><time>2026-05-03T17:09:47.274Z</time></trkpt><trkpt lat="44.872395" lon="7.9447817"><ele>305.0</ele><time>2026-05-03T17:09:48.274Z</time></trkpt><trkpt lat="44.87253" lon="7.9447133"><ele>305.0</ele><time>2026-05-03T17:09:49.275Z</time></trkpt><trkpt lat="44.8726767" lon="7.94466"><ele>305.0</ele><time>2026-05-03T17:09:50.274Z</time></trkpt><trkpt lat="44.8728317" lon="7.9446367"><ele>305.25</ele><time>2026-05-03T17:09:51.274Z</time></trkpt><trkpt lat="44.87299" lon="7.9446417"><ele>305.5</ele><time>2026-05-03T17:09:52.274Z</time></trkpt><trkpt lat="44.8731367" lon="7.9446617"><ele>305.75</ele><time>2026-05-03T17:09:53.274Z</time></trkpt><trkpt lat="44.8732717" lon="7.9446883"><ele>306.0</ele><time>2026-05-03T17:09:54.275Z</time></trkpt><trkpt lat="44.8734" lon="7.94472"><ele>305.75</ele><time>2026-05-03T17:09:55.274Z</time></trkpt><trkpt lat="44.8735217" lon="7.9447617"><ele>305.5</ele><time>2026-05-03T17:09:56.274Z</time></trkpt><trkpt lat="44.8736483" lon="7.944805"><ele>305.25</ele><time>2026-05-03T17:09:57.274Z</time></trkpt><trkpt lat="44.873775" lon="7.944855"><ele>305.0</ele><time>2026-05-03T17:09:58.274Z</time></trkpt><trkpt lat="44.87391" lon="7.9449083"><ele>305.0</ele><time>2026-05-03T17:09:59.274Z</time></trkpt><trkpt lat="44.87405" lon="7.944955"><ele>305.0</ele><time>2026-05-03T17:10:00.274Z</time></trkpt><trkpt lat="44.8741933" lon="7.9449883"><ele>305.0</ele><time>2026-05-03T17:10:01.274Z</time></trkpt><trkpt lat="44.8743533" lon="7.9450217"><ele>305.0</ele><time>2026-05-03T17:10:02.274Z</time></trkpt><trkpt lat="44.874515" lon="7.9450433"><ele>305.0</ele><time>2026-05-03T17:10:03.274Z</time></trkpt><trkpt lat="44.8746833" lon="7.9450583"><ele>305.0</ele><time>2026-05-03T17:10:04.274Z</time></trkpt><trkpt lat="44.87485" lon="7.9450667"><ele>305.0</ele><time>2026-05-03T17:10:05.274Z</time></trkpt><trkpt lat="44.8750117" lon="7.9450683"><ele>305.0</ele><time>2026-05-03T17:10:06.274Z</time></trkpt><trkpt lat="44.8751733" lon="7.9450567"><ele>305.0</ele><time>2026-05-03T17:10:07.274Z</time></trkpt><trkpt lat="44.8753433" lon="7.945025"><ele>304.0</ele><time>2026-05-03T17:10:08.275Z</time></trkpt><trkpt lat="44.8755067" lon="7.944965"><ele>303.0</ele><time>2026-05-03T17:10:09.274Z</time></trkpt><trkpt lat="44.8756767" lon="7.94487"><ele>302.0</ele><time>2026-05-03T17:10:10.274Z</time></trkpt><trkpt lat="44.8758467" lon="7.9447717"><ele>301.6666666666667</ele><time>2026-05-03T17:10:11.275Z</time></trkpt><trkpt lat="44.87601" lon="7.9446883"><ele>301.3333333333333</ele><time>2026-05-03T17:10:12.274Z</time></trkpt><trkpt lat="44.87619" lon="7.9446217"><ele>301.0</ele><time>2026-05-03T17:10:13.274Z</time></trkpt><trkpt lat="44.87637" lon="7.9445683"><ele>301.0</ele><time>2026-05-03T17:10:14.274Z</time></trkpt><trkpt lat="44.8765567" lon="7.9445183"><ele>301.0</ele><time>2026-05-03T17:10:15.275Z</time></trkpt><trkpt lat="44.8767467" lon="7.944475"><ele>301.0</ele><time>2026-05-03T17:10:16.275Z</time></trkpt><trkpt lat="44.8769433" lon="7.9444233"><ele>300.66666666666663</ele><time>2026-05-03T17:10:17.274Z</time></trkpt><trkpt lat="44.8771433" lon="7.9443767"><ele>300.3333333333333</ele><time>2026-05-03T17:10:18.274Z</time></trkpt><trkpt lat="44.8773433" lon="7.944335"><ele>300.0</ele><time>2026-05-03T17:10:19.274Z</time></trkpt><trkpt lat="44.8775417" lon="7.9442983"><ele>299.3333333333333</ele><time>2026-05-03T17:10:20.274Z</time></trkpt><trkpt lat="44.877745" lon="7.9442617"><ele>298.66666666666663</ele><time>2026-05-03T17:10:21.274Z</time></trkpt><trkpt lat="44.8779467" lon="7.9442333"><ele>298.0</ele><time>2026-05-03T17:10:22.274Z</time></trkpt><trkpt lat="44.8781433" lon="7.944205"><ele>298.0</ele><time>2026-05-03T17:10:23.274Z</time></trkpt><trkpt lat="44.8783417" lon="7.9441617"><ele>298.0</ele><time>2026-05-03T17:10:24.274Z</time></trkpt><trkpt lat="44.87854" lon="7.94411"><ele>298.0</ele><time>2026-05-03T17:10:25.274Z</time></trkpt><trkpt lat="44.8787317" lon="7.944045"><ele>296.66666666666663</ele><time>2026-05-03T17:10:26.274Z</time></trkpt><trkpt lat="44.8789233" lon="7.9439833"><ele>295.3333333333333</ele><time>2026-05-03T17:10:27.274Z</time></trkpt><trkpt lat="44.8791" lon="7.94394"><ele>294.0</ele><time>2026-05-03T17:10:28.274Z</time></trkpt><trkpt lat="44.879275" lon="7.943935"><ele>294.0</ele><time>2026-05-03T17:10:29.274Z</time></trkpt><trkpt lat="44.8794467" lon="7.9439717"><ele>294.0</ele><time>2026-05-03T17:10:30.274Z</time></trkpt><trkpt lat="44.8796267" lon="7.9440267"><ele>294.0</ele><time>2026-05-03T17:10:31.274Z</time></trkpt><trkpt lat="44.8798017" lon="7.9440967"><ele>294.0</ele><time>2026-05-03T17:10:32.275Z</time></trkpt><trkpt lat="44.8799783" lon="7.9441633"><ele>294.0</ele><time>2026-05-03T17:10:33.274Z</time></trkpt><trkpt lat="44.8801583" lon="7.94424"><ele>294.0</ele><time>2026-05-03T17:10:34.274Z</time></trkpt><trkpt lat="44.8803267" lon="7.9443433"><ele>293.6666666666667</ele><time>2026-05-03T17:10:35.274Z</time></trkpt><trkpt lat="44.8804817" lon="7.9444967"><ele>293.33333333333337</ele><time>2026-05-03T17:10:36.274Z</time></trkpt><trkpt lat="44.8806267" lon="7.94468"><ele>293.0</ele><time>2026-05-03T17:10:37.274Z</time></trkpt><trkpt lat="44.880765" lon="7.9448683"><ele>292.33333333333337</ele><time>2026-05-03T17:10:38.275Z</time></trkpt><trkpt lat="44.88089" lon="7.9450517"><ele>291.6666666666667</ele><time>2026-05-03T17:10:39.274Z</time></trkpt><trkpt lat="44.8810117" lon="7.9452283"><ele>291.0</ele><time>2026-05-03T17:10:40.274Z</time></trkpt><trkpt lat="44.8811467" lon="7.9453767"><ele>291.0</ele><time>2026-05-03T17:10:41.275Z</time></trkpt><trkpt lat="44.8813067" lon="7.9454967"><ele>291.0</ele><time>2026-05-03T17:10:42.274Z</time></trkpt><trkpt lat="44.8814833" lon="7.945585"><ele>291.0</ele><time>2026-05-03T17:10:43.274Z</time></trkpt><trkpt lat="44.88166" lon="7.9456667"><ele>290.6666666666667</ele><time>2026-05-03T17:10:44.274Z</time></trkpt><trkpt lat="44.8818267" lon="7.94576"><ele>290.33333333333337</ele><time>2026-05-03T17:10:45.275Z</time></trkpt><trkpt lat="44.8819933" lon="7.9458483"><ele>290.0</ele><time>2026-05-03T17:10:46.274Z</time></trkpt><trkpt lat="44.8821583" lon="7.94595"><ele>289.0</ele><time>2026-05-03T17:10:47.275Z</time></trkpt><trkpt lat="44.8823217" lon="7.9460483"><ele>288.0</ele><time>2026-05-03T17:10:48.274Z</time></trkpt><trkpt lat="44.8824917" lon="7.9461333"><ele>287.0</ele><time>2026-05-03T17:10:49.274Z</time></trkpt><trkpt lat="44.882655" lon="7.94622"><ele>287.0</ele><time>2026-05-03T17:10:50.274Z</time></trkpt><trkpt lat="44.8828117" lon="7.946315"><ele>287.0</ele><time>2026-05-03T17:10:51.275Z</time></trkpt><trkpt lat="44.8829617" lon="7.94643"><ele>287.0</ele><time>2026-05-03T17:10:52.274Z</time></trkpt><trkpt lat="44.883085" lon="7.9465867"><ele>286.0</ele><time>2026-05-03T17:10:53.274Z</time></trkpt><trkpt lat="44.8831733" lon="7.946765"><ele>285.0</ele><time>2026-05-03T17:10:54.275Z</time></trkpt><trkpt lat="44.8832417" lon="7.9469667"><ele>284.0</ele><time>2026-05-03T17:10:55.274Z</time></trkpt><trkpt lat="44.8832817" lon="7.9471917"><ele>284.0</ele><time>2026-05-03T17:10:56.274Z</time></trkpt><trkpt lat="44.8833133" lon="7.9474233"><ele>284.0</ele><time>2026-05-03T17:10:57.274Z</time></trkpt><trkpt lat="44.883335" lon="7.947665"><ele>284.0</ele><time>2026-05-03T17:10:58.274Z</time></trkpt><trkpt lat="44.8833433" lon="7.9479033"><ele>283.33333333333337</ele><time>2026-05-03T17:10:59.274Z</time></trkpt><trkpt lat="44.8833483" lon="7.9481433"><ele>282.6666666666667</ele><time>2026-05-03T17:11:00.274Z</time></trkpt><trkpt lat="44.883355" lon="7.9483833"><ele>282.0</ele><time>2026-05-03T17:11:01.274Z</time></trkpt><trkpt lat="44.8833733" lon="7.9486067"><ele>280.75</ele><time>2026-05-03T17:11:02.274Z</time></trkpt><trkpt lat="44.8834083" lon="7.9487967"><ele>279.5</ele><time>2026-05-03T17:11:03.274Z</time></trkpt><trkpt lat="44.88347" lon="7.948945"><ele>278.25</ele><time>2026-05-03T17:11:04.274Z</time></trkpt><trkpt lat="44.8835533" lon="7.9490367"><ele>277.0</ele><time>2026-05-03T17:11:05.274Z</time></trkpt><trkpt lat="44.8836417" lon="7.949075"><ele>276.25</ele><time>2026-05-03T17:11:06.274Z</time></trkpt><trkpt lat="44.8837483" lon="7.949055"><ele>275.5</ele><time>2026-05-03T17:11:07.274Z</time></trkpt><trkpt lat="44.8838667" lon="7.9489717"><ele>274.75</ele><time>2026-05-03T17:11:08.274Z</time></trkpt><trkpt lat="44.88399" lon="7.94887"><ele>274.0</ele><time>2026-05-03T17:11:09.274Z</time></trkpt><trkpt lat="44.8841167" lon="7.9487533"><ele>274.0</ele><time>2026-05-03T17:11:10.274Z</time></trkpt><trkpt lat="44.8842433" lon="7.9486233"><ele>274.0</ele><time>2026-05-03T17:11:11.274Z</time></trkpt><trkpt lat="44.8843733" lon="7.9484917"><ele>274.0</ele><time>2026-05-03T17:11:12.275Z</time></trkpt><trkpt lat="44.8844967" lon="7.948375"><ele>274.3333333333333</ele><time>2026-05-03T17:11:13.275Z</time></trkpt><trkpt lat="44.8846433" lon="7.9482817"><ele>274.6666666666667</ele><time>2026-05-03T17:11:14.274Z</time></trkpt><trkpt lat="44.8848017" lon="7.948215"><ele>275.0</ele><time>2026-05-03T17:11:15.274Z</time></trkpt><trkpt lat="44.88496" lon="7.9481717"><ele>274.0</ele><time>2026-05-03T17:11:16.274Z</time></trkpt><trkpt lat="44.885125" lon="7.94813"><ele>273.0</ele><time>2026-05-03T17:11:17.274Z</time></trkpt><trkpt lat="44.8852933" lon="7.94809"><ele>272.0</ele><time>2026-05-03T17:11:18.275Z</time></trkpt><trkpt lat="44.8854567" lon="7.94808"><ele>272.0</ele><time>2026-05-03T17:11:19.274Z</time></trkpt><trkpt lat="44.8856117" lon="7.94809"><ele>272.0</ele><time>2026-05-03T17:11:20.274Z</time></trkpt><trkpt lat="44.8857483" lon="7.9481417"><ele>272.0</ele><time>2026-05-03T17:11:21.274Z</time></trkpt><trkpt lat="44.8858767" lon="7.9482367"><ele>272.0</ele><time>2026-05-03T17:11:22.274Z</time></trkpt><trkpt lat="44.8860033" lon="7.9483633"><ele>273.0</ele><time>2026-05-03T17:11:23.275Z</time></trkpt><trkpt lat="44.8861383" lon="7.9485083"><ele>274.0</ele><time>2026-05-03T17:11:24.275Z</time></trkpt><trkpt lat="44.886285" lon="7.9486683"><ele>275.0</ele><time>2026-05-03T17:11:25.275Z</time></trkpt><trkpt lat="44.88643" lon="7.9488317"><ele>275.0</ele><time>2026-05-03T17:11:26.274Z</time></trkpt><trkpt lat="44.8865717" lon="7.9489833"><ele>275.0</ele><time>2026-05-03T17:11:27.274Z</time></trkpt><trkpt lat="44.88671" lon="7.9491317"><ele>275.0</ele><time>2026-05-03T17:11:28.274Z</time></trkpt><trkpt lat="44.8868483" lon="7.9492717"><ele>277.6666666666667</ele><time>2026-05-03T17:11:29.275Z</time></trkpt><trkpt lat="44.88698" lon="7.94941"><ele>280.3333333333333</ele><time>2026-05-03T17:11:30.274Z</time></trkpt><trkpt lat="44.8871033" lon="7.9495383"><ele>283.0</ele><time>2026-05-03T17:11:31.275Z</time></trkpt><trkpt lat="44.8872133" lon="7.949645"><ele>283.0</ele><time>2026-05-03T17:11:32.274Z</time></trkpt><trkpt lat="44.8873033" lon="7.9497533"><ele>283.0</ele><time>2026-05-03T17:11:33.274Z</time></trkpt><trkpt lat="44.8874033" lon="7.9498217"><ele>283.0</ele><time>2026-05-03T17:11:34.274Z</time></trkpt><trkpt lat="44.8875167" lon="7.949845"><ele>283.0</ele><time>2026-05-03T17:11:35.274Z</time></trkpt><trkpt lat="44.8876333" lon="7.9498167"><ele>283.5</ele><time>2026-05-03T17:11:36.274Z</time></trkpt><trkpt lat="44.8877517" lon="7.9497367"><ele>284.0</ele><time>2026-05-03T17:11:37.274Z</time></trkpt><trkpt lat="44.88787" lon="7.9496417"><ele>284.5</ele><time>2026-05-03T17:11:38.274Z</time></trkpt><trkpt lat="44.88799" lon="7.949535"><ele>285.0</ele><time>2026-05-03T17:11:39.274Z</time></trkpt><trkpt lat="44.88811" lon="7.949425"><ele>285.0</ele><time>2026-05-03T17:11:40.274Z</time></trkpt><trkpt lat="44.8882183" lon="7.949305"><ele>285.0</ele><time>2026-05-03T17:11:41.274Z</time></trkpt><trkpt lat="44.8883217" lon="7.9491633"><ele>285.0</ele><time>2026-05-03T17:11:42.274Z</time></trkpt><trkpt lat="44.8884217" lon="7.949025"><ele>285.0</ele><time>2026-05-03T17:11:43.275Z</time></trkpt><trkpt lat="44.8885167" lon="7.9488617"><ele>284.75</ele><time>2026-05-03T17:11:44.274Z</time></trkpt><trkpt lat="44.8886033" lon="7.94869"><ele>284.5</ele><time>2026-05-03T17:11:45.274Z</time></trkpt><trkpt lat="44.88869" lon="7.9485233"><ele>284.25</ele><time>2026-05-03T17:11:46.274Z</time></trkpt><trkpt lat="44.8887783" lon="7.94835"><ele>284.0</ele><time>2026-05-03T17:11:47.274Z</time></trkpt><trkpt lat="44.8888767" lon="7.94819"><ele>283.6666666666667</ele><time>2026-05-03T17:11:48.274Z</time></trkpt><trkpt lat="44.8889983" lon="7.9480567"><ele>283.3333333333333</ele><time>2026-05-03T17:11:49.274Z</time></trkpt><trkpt lat="44.8891333" lon="7.947955"><ele>283.0</ele><time>2026-05-03T17:11:50.274Z</time></trkpt><trkpt lat="44.8892817" lon="7.9479017"><ele>282.0</ele><time>2026-05-03T17:11:51.275Z</time></trkpt><trkpt lat="44.889435" lon="7.9479033"><ele>281.0</ele><time>2026-05-03T17:11:52.275Z</time></trkpt><trkpt lat="44.8895867" lon="7.9479567"><ele>280.0</ele><time>2026-05-03T17:11:53.275Z</time></trkpt><trkpt lat="44.88973" lon="7.948065"><ele>280.0</ele><time>2026-05-03T17:11:54.275Z</time></trkpt><trkpt lat="44.88985" lon="7.948215"><ele>280.0</ele><time>2026-05-03T17:11:55.276Z</time></trkpt><trkpt lat="44.88996" lon="7.9483967"><ele>280.0</ele><time>2026-05-03T17:11:56.275Z</time></trkpt><trkpt lat="44.8900583" lon="7.9486067"><ele>280.66666666666663</ele><time>2026-05-03T17:11:57.275Z</time></trkpt><trkpt lat="44.8901367" lon="7.94883"><ele>281.3333333333333</ele><time>2026-05-03T17:11:58.275Z</time></trkpt><trkpt lat="44.89021" lon="7.949065"><ele>282.0</ele><time>2026-05-03T17:11:59.275Z</time></trkpt><trkpt lat="44.8902817" lon="7.9493033"><ele>282.0</ele><time>2026-05-03T17:12:00.275Z</time></trkpt><trkpt lat="44.890365" lon="7.9495317"><ele>282.0</ele><time>2026-05-03T17:12:01.275Z</time></trkpt><trkpt lat="44.8904567" lon="7.9497433"><ele>282.0</ele><time>2026-05-03T17:12:02.275Z</time></trkpt><trkpt lat="44.8905717" lon="7.94994"><ele>282.0</ele><time>2026-05-03T17:12:03.276Z</time></trkpt><trkpt lat="44.890705" lon="7.950125"><ele>282.0</ele><time>2026-05-03T17:12:04.275Z</time></trkpt><trkpt lat="44.8908417" lon="7.9503117"><ele>282.0</ele><time>2026-05-03T17:12:05.275Z</time></trkpt><trkpt lat="44.8909917" lon="7.9504917"><ele>281.6666666666667</ele><time>2026-05-03T17:12:06.275Z</time></trkpt><trkpt lat="44.89115" lon="7.9506733"><ele>281.33333333333337</ele><time>2026-05-03T17:12:07.275Z</time></trkpt><trkpt lat="44.8913083" lon="7.9508483"><ele>281.0</ele><time>2026-05-03T17:12:08.275Z</time></trkpt><trkpt lat="44.891465" lon="7.95102"><ele>280.33333333333337</ele><time>2026-05-03T17:12:09.275Z</time></trkpt><trkpt lat="44.8916233" lon="7.9511983"><ele>279.6666666666667</ele><time>2026-05-03T17:12:10.275Z</time></trkpt><trkpt lat="44.8917883" lon="7.95137"><ele>279.0</ele><time>2026-05-03T17:12:11.275Z</time></trkpt><trkpt lat="44.8919617" lon="7.9515517"><ele>277.0</ele><time>2026-05-03T17:12:12.276Z</time></trkpt><trkpt lat="44.892135" lon="7.9517283"><ele>275.0</ele><time>2026-05-03T17:12:13.275Z</time></trkpt><trkpt lat="44.8923083" lon="7.9518983"><ele>273.0</ele><time>2026-05-03T17:12:14.275Z</time></trkpt><trkpt lat="44.89248" lon="7.9520683"><ele>273.0</ele><time>2026-05-03T17:12:15.275Z</time></trkpt><trkpt lat="44.8926467" lon="7.95223"><ele>273.0</ele><time>2026-05-03T17:12:16.275Z</time></trkpt><trkpt lat="44.8928033" lon="7.9524"><ele>273.0</ele><time>2026-05-03T17:12:17.275Z</time></trkpt><trkpt lat="44.89295" lon="7.9525617"><ele>272.6666666666667</ele><time>2026-05-03T17:12:18.276Z</time></trkpt><trkpt lat="44.893085" lon="7.9527433"><ele>272.33333333333337</ele><time>2026-05-03T17:12:19.275Z</time></trkpt><trkpt lat="44.8932083" lon="7.95294"><ele>272.0</ele><time>2026-05-03T17:12:20.276Z</time></trkpt><trkpt lat="44.893315" lon="7.95317"><ele>272.0</ele><time>2026-05-03T17:12:21.276Z</time></trkpt><trkpt lat="44.8934167" lon="7.953415"><ele>272.0</ele><time>2026-05-03T17:12:22.275Z</time></trkpt><trkpt lat="44.893525" lon="7.95366"><ele>272.0</ele><time>2026-05-03T17:12:23.275Z</time></trkpt><trkpt lat="44.8936383" lon="7.9539033"><ele>272.6666666666667</ele><time>2026-05-03T17:12:24.275Z</time></trkpt><trkpt lat="44.8937483" lon="7.95415"><ele>273.3333333333333</ele><time>2026-05-03T17:12:25.275Z</time></trkpt><trkpt lat="44.8938633" lon="7.9544083"><ele>274.0</ele><time>2026-05-03T17:12:26.275Z</time></trkpt><trkpt lat="44.8939767" lon="7.9546633"><ele>274.66666666666663</ele><time>2026-05-03T17:12:27.275Z</time></trkpt><trkpt lat="44.8940917" lon="7.9549117"><ele>275.3333333333333</ele><time>2026-05-03T17:12:28.275Z</time></trkpt><trkpt lat="44.89421" lon="7.9551533"><ele>276.0</ele><time>2026-05-03T17:12:29.275Z</time></trkpt><trkpt lat="44.8943333" lon="7.9554"><ele>276.3333333333333</ele><time>2026-05-03T17:12:30.275Z</time></trkpt><trkpt lat="44.8944567" lon="7.9556417"><ele>276.66666666666663</ele><time>2026-05-03T17:12:31.275Z</time></trkpt><trkpt lat="44.89458" lon="7.9558783"><ele>277.0</ele><time>2026-05-03T17:12:32.275Z</time></trkpt><trkpt lat="44.8946933" lon="7.956105"><ele>277.0</ele><time>2026-05-03T17:12:33.275Z</time></trkpt><trkpt lat="44.894785" lon="7.9563267"><ele>277.0</ele><time>2026-05-03T17:12:34.275Z</time></trkpt><trkpt lat="44.8948733" lon="7.9565317"><ele>277.0</ele><time>2026-05-03T17:12:35.275Z</time></trkpt><trkpt lat="44.8949533" lon="7.956725"><ele>277.25</ele><time>2026-05-03T17:12:36.275Z</time></trkpt><trkpt lat="44.8950333" lon="7.9569033"><ele>277.5</ele><time>2026-05-03T17:12:37.275Z</time></trkpt><trkpt lat="44.8951117" lon="7.9570667"><ele>277.75</ele><time>2026-05-03T17:12:38.275Z</time></trkpt><trkpt lat="44.8952" lon="7.9572267"><ele>278.0</ele><time>2026-05-03T17:12:39.275Z</time></trkpt><trkpt lat="44.8952967" lon="7.9573867"><ele>278.0</ele><time>2026-05-03T17:12:40.275Z</time></trkpt><trkpt lat="44.8953967" lon="7.95755"><ele>278.0</ele><time>2026-05-03T17:12:41.275Z</time></trkpt><trkpt lat="44.8954967" lon="7.9576983"><ele>278.0</ele><time>2026-05-03T17:12:42.275Z</time></trkpt><trkpt lat="44.8955933" lon="7.9578283"><ele>278.0</ele><time>2026-05-03T17:12:43.276Z</time></trkpt><trkpt lat="44.895705" lon="7.9579367"><ele>278.0</ele><time>2026-05-03T17:12:44.276Z</time></trkpt><trkpt lat="44.8958133" lon="7.95804"><ele>278.0</ele><time>2026-05-03T17:12:45.275Z</time></trkpt><trkpt lat="44.89591" lon="7.9581567"><ele>278.0</ele><time>2026-05-03T17:12:46.275Z</time></trkpt><trkpt lat="44.896" lon="7.958285"><ele>278.0</ele><time>2026-05-03T17:12:47.275Z</time></trkpt><trkpt lat="44.8960917" lon="7.9584367"><ele>277.5</ele><time>2026-05-03T17:12:48.275Z</time></trkpt><trkpt lat="44.8961767" lon="7.9586033"><ele>277.0</ele><time>2026-05-03T17:12:49.275Z</time></trkpt><trkpt lat="44.89626" lon="7.9587633"><ele>276.5</ele><time>2026-05-03T17:12:50.275Z</time></trkpt><trkpt lat="44.8963517" lon="7.9589217"><ele>276.0</ele><time>2026-05-03T17:12:51.275Z</time></trkpt><trkpt lat="44.8964417" lon="7.9590817"><ele>274.25</ele><time>2026-05-03T17:12:52.275Z</time></trkpt><trkpt lat="44.89652" lon="7.9592533"><ele>272.5</ele><time>2026-05-03T17:12:53.275Z</time></trkpt><trkpt lat="44.8965933" lon="7.9594167"><ele>270.75</ele><time>2026-05-03T17:12:54.275Z</time></trkpt><trkpt lat="44.89666" lon="7.9595717"><ele>269.0</ele><time>2026-05-03T17:12:55.275Z</time></trkpt><trkpt lat="44.8967217" lon="7.95971"><ele>269.8</ele><time>2026-05-03T17:12:56.275Z</time></trkpt><trkpt lat="44.8967733" lon="7.9598217"><ele>270.59999999999997</ele><time>2026-05-03T17:12:57.275Z</time></trkpt><trkpt lat="44.8968117" lon="7.9599067"><ele>271.4</ele><time>2026-05-03T17:12:58.275Z</time></trkpt><trkpt lat="44.8968617" lon="7.96001"><ele>272.2</ele><time>2026-05-03T17:13:00.275Z</time></trkpt><trkpt lat="44.896915" lon="7.96013"><ele>273.0</ele><time>2026-05-03T17:13:03.275Z</time></trkpt><trkpt lat="44.8969517" lon="7.96031"><ele>273.0</ele><time>2026-05-03T17:13:05.275Z</time></trkpt><trkpt lat="44.8969617" lon="7.960435"><ele>273.0</ele><time>2026-05-03T17:13:06.275Z</time></trkpt><trkpt lat="44.89698" lon="7.96058"><ele>273.0</ele><time>2026-05-03T17:13:07.275Z</time></trkpt><trkpt lat="44.8969933" lon="7.9607383"><ele>273.0</ele><time>2026-05-03T17:13:08.275Z</time></trkpt><trkpt lat="44.8970083" lon="7.9608867"><ele>273.0</ele><time>2026-05-03T17:13:09.275Z</time></trkpt><trkpt lat="44.8970283" lon="7.961045"><ele>273.0</ele><time>2026-05-03T17:13:10.276Z</time></trkpt><trkpt lat="44.897045" lon="7.9611867"><ele>273.0</ele><time>2026-05-03T17:13:11.275Z</time></trkpt><trkpt lat="44.89706" lon="7.96132"><ele>273.0</ele><time>2026-05-03T17:13:12.276Z</time></trkpt><trkpt lat="44.89707" lon="7.9614517"><ele>273.0</ele><time>2026-05-03T17:13:13.275Z</time></trkpt><trkpt lat="44.8970833" lon="7.96158"><ele>273.0</ele><time>2026-05-03T17:13:14.275Z</time></trkpt><trkpt lat="44.8970983" lon="7.96172"><ele>273.0</ele><time>2026-05-03T17:13:15.275Z</time></trkpt><trkpt lat="44.8971117" lon="7.96186"><ele>273.0</ele><time>2026-05-03T17:13:16.275Z</time></trkpt><trkpt lat="44.8971283" lon="7.9620183"><ele>273.0</ele><time>2026-05-03T17:13:17.276Z</time></trkpt><trkpt lat="44.8971333" lon="7.96217"><ele>273.0</ele><time>2026-05-03T17:13:18.275Z</time></trkpt><trkpt lat="44.8971367" lon="7.96232"><ele>273.0</ele><time>2026-05-03T17:13:19.276Z</time></trkpt><trkpt lat="44.897145" lon="7.9624633"><ele>274.0</ele><time>2026-05-03T17:13:20.275Z</time></trkpt><trkpt lat="44.897155" lon="7.96262"><ele>275.0</ele><time>2026-05-03T17:13:21.275Z</time></trkpt><trkpt lat="44.897165" lon="7.9627717"><ele>276.0</ele><time>2026-05-03T17:13:22.275Z</time></trkpt><trkpt lat="44.8971717" lon="7.9628883"><ele>277.0</ele><time>2026-05-03T17:13:23.276Z</time></trkpt><trkpt lat="44.8971767" lon="7.9629933"><ele>278.0</ele><time>2026-05-03T17:13:24.275Z</time></trkpt><trkpt lat="44.8972017" lon="7.9631183"><ele>278.0</ele><time>2026-05-03T17:13:26.276Z</time></trkpt><trkpt lat="44.8972933" lon="7.9631683"><ele>278.0</ele><time>2026-05-03T17:13:29.275Z</time></trkpt><trkpt lat="44.8973633" lon="7.963165"><ele>278.0</ele><time>2026-05-03T17:13:30.276Z</time></trkpt><trkpt lat="44.8974583" lon="7.9631467"><ele>278.0</ele><time>2026-05-03T17:13:31.275Z</time></trkpt><trkpt lat="44.8975583" lon="7.9631483"><ele>278.0</ele><time>2026-05-03T17:13:32.275Z</time></trkpt><trkpt lat="44.8976383" lon="7.9631683"><ele>278.0</ele><time>2026-05-03T17:13:33.276Z</time></trkpt><trkpt lat="44.8977017" lon="7.9632033"><ele>278.0</ele><time>2026-05-03T17:13:34.275Z</time></trkpt><trkpt lat="44.8977617" lon="7.96331"><ele>278.0</ele><time>2026-05-03T17:13:36.275Z</time></trkpt><trkpt lat="44.8977417" lon="7.96341"><ele>278.0</ele><time>2026-05-03T17:13:38.275Z</time></trkpt><trkpt lat="44.8976867" lon="7.96347"><ele>278.0</ele><time>2026-05-03T17:13:39.275Z</time></trkpt><trkpt lat="44.8976233" lon="7.9635467"><ele>278.0</ele><time>2026-05-03T17:13:40.275Z</time></trkpt><trkpt lat="44.8975617" lon="7.9636383"><ele>278.0</ele><time>2026-05-03T17:13:41.275Z</time></trkpt><trkpt lat="44.8974983" lon="7.9637317"><ele>278.42857142857144</ele><time>2026-05-03T17:13:42.275Z</time></trkpt><trkpt lat="44.8974383" lon="7.963815"><ele>278.8571428571429</ele><time>2026-05-03T17:13:43.275Z</time></trkpt><trkpt lat="44.8973817" lon="7.9639"><ele>279.28571428571433</ele><time>2026-05-03T17:13:44.275Z</time></trkpt><trkpt lat="44.897325" lon="7.9639683"><ele>279.7142857142857</ele><time>2026-05-03T17:13:45.275Z</time></trkpt><trkpt lat="44.8972733" lon="7.96403"><ele>280.14285714285717</ele><time>2026-05-03T17:13:46.275Z</time></trkpt><trkpt lat="44.89722" lon="7.964085"><ele>280.5714285714286</ele><time>2026-05-03T17:13:47.276Z</time></trkpt><trkpt lat="44.8971733" lon="7.9641483"><ele>281.0</ele><time>2026-05-03T17:13:48.275Z</time></trkpt><trkpt lat="44.89714" lon="7.9642283"><ele>281.1666666666667</ele><time>2026-05-03T17:13:49.275Z</time></trkpt><trkpt lat="44.89712" lon="7.964325"><ele>281.33333333333337</ele><time>2026-05-03T17:13:50.276Z</time></trkpt><trkpt lat="44.8971167" lon="7.964445"><ele>281.5</ele><time>2026-05-03T17:13:51.275Z</time></trkpt><trkpt lat="44.8971083" lon="7.9645583"><ele>281.6666666666667</ele><time>2026-05-03T17:13:52.275Z</time></trkpt><trkpt lat="44.8971167" lon="7.96467"><ele>281.8333333333333</ele><time>2026-05-03T17:13:53.275Z</time></trkpt><trkpt lat="44.8971033" lon="7.9647767"><ele>282.0</ele><time>2026-05-03T17:13:54.275Z</time></trkpt><trkpt lat="44.8971317" lon="7.9649217"><ele>281.8</ele><time>2026-05-03T17:13:56.275Z</time></trkpt><trkpt lat="44.897175" lon="7.9650667"><ele>281.6</ele><time>2026-05-03T17:13:58.275Z</time></trkpt><trkpt lat="44.8972017" lon="7.9651633"><ele>281.40000000000003</ele><time>2026-05-03T17:13:59.275Z</time></trkpt><trkpt lat="44.8972267" lon="7.965275"><ele>281.2</ele><time>2026-05-03T17:14:00.275Z</time></trkpt><trkpt lat="44.8972583" lon="7.9654"><ele>281.0</ele><time>2026-05-03T17:14:01.276Z</time></trkpt><trkpt lat="44.89729" lon="7.9655217"><ele>281.0</ele><time>2026-05-03T17:14:02.275Z</time></trkpt><trkpt lat="44.8973167" lon="7.9656417"><ele>281.0</ele><time>2026-05-03T17:14:03.276Z</time></trkpt><trkpt lat="44.8973333" lon="7.9657483"><ele>281.0</ele><time>2026-05-03T17:14:04.275Z</time></trkpt><trkpt lat="44.897345" lon="7.9658367"><ele>281.0</ele><time>2026-05-03T17:14:05.276Z</time></trkpt><trkpt lat="44.8973567" lon="7.966015"><ele>281.0</ele><time>2026-05-03T17:14:07.275Z</time></trkpt><trkpt lat="44.8973517" lon="7.96612"><ele>281.0</ele><time>2026-05-03T17:14:08.276Z</time></trkpt><trkpt lat="44.8973483" lon="7.96623"><ele>281.0</ele><time>2026-05-03T17:14:09.275Z</time></trkpt><trkpt lat="44.897355" lon="7.9663433"><ele>281.0</ele><time>2026-05-03T17:14:10.275Z</time></trkpt><trkpt lat="44.8973683" lon="7.9664717"><ele>281.0</ele><time>2026-05-03T17:14:11.276Z</time></trkpt><trkpt lat="44.8973867" lon="7.96659"><ele>281.0</ele><time>2026-05-03T17:14:12.275Z</time></trkpt><trkpt lat="44.8973967" lon="7.96669"><ele>281.0</ele><time>2026-05-03T17:14:13.275Z</time></trkpt><trkpt lat="44.8974317" lon="7.966795"><ele>281.0</ele><time>2026-05-03T17:14:15.275Z</time></trkpt><trkpt lat="44.8975183" lon="7.966825"><ele>281.0</ele><time>2026-05-03T17:14:17.275Z</time></trkpt><trkpt lat="44.897585" lon="7.9668267"><ele>281.0</ele><time>2026-05-03T17:14:18.275Z</time></trkpt><trkpt lat="44.897665" lon="7.9668233"><ele>281.0</ele><time>2026-05-03T17:14:19.275Z</time></trkpt><trkpt lat="44.897755" lon="7.96682"><ele>281.0</ele><time>2026-05-03T17:14:20.276Z</time></trkpt><trkpt lat="44.8978517" lon="7.9668283"><ele>281.0</ele><time>2026-05-03T17:14:21.275Z</time></trkpt><trkpt lat="44.897945" lon="7.9668633"><ele>281.0</ele><time>2026-05-03T17:14:22.275Z</time></trkpt><trkpt lat="44.8980383" lon="7.9669017"><ele>280.33333333333337</ele><time>2026-05-03T17:14:23.275Z</time></trkpt><trkpt lat="44.8981233" lon="7.96694"><ele>279.6666666666667</ele><time>2026-05-03T17:14:24.275Z</time></trkpt><trkpt lat="44.8981983" lon="7.9669667"><ele>279.0</ele><time>2026-05-03T17:14:25.275Z</time></trkpt><trkpt lat="44.89829" lon="7.9670167"><ele>278.3333333333333</ele><time>2026-05-03T17:14:27.275Z</time></trkpt><trkpt lat="44.8983483" lon="7.9669667"><ele>277.66666666666663</ele><time>2026-05-03T17:14:31.275Z</time></trkpt><trkpt lat="44.898385" lon="7.966825"><ele>277.0</ele><time>2026-05-03T17:14:33.275Z</time></trkpt><trkpt lat="44.8984183" lon="7.96672"><ele>276.8</ele><time>2026-05-03T17:14:34.275Z</time></trkpt><trkpt lat="44.8984583" lon="7.9665967"><ele>276.6</ele><time>2026-05-03T17:14:35.275Z</time></trkpt><trkpt lat="44.89849" lon="7.966465"><ele>276.40000000000003</ele><time>2026-05-03T17:14:36.275Z</time></trkpt><trkpt lat="44.898525" lon="7.9663383"><ele>276.2</ele><time>2026-05-03T17:14:37.275Z</time></trkpt><trkpt lat="44.8985667" lon="7.966215"><ele>276.0</ele><time>2026-05-03T17:14:38.275Z</time></trkpt><trkpt lat="44.898615" lon="7.9661017"><ele>276.0</ele><time>2026-05-03T17:14:39.275Z</time></trkpt><trkpt lat="44.8986683" lon="7.9659917"><ele>276.0</ele><time>2026-05-03T17:14:40.275Z</time></trkpt><trkpt lat="44.898725" lon="7.9658783"><ele>276.0</ele><time>2026-05-03T17:14:41.275Z</time></trkpt><trkpt lat="44.89878" lon="7.9657717"><ele>276.0</ele><time>2026-05-03T17:14:42.275Z</time></trkpt><trkpt lat="44.89884" lon="7.9656717"><ele>276.0</ele><time>2026-05-03T17:14:43.276Z</time></trkpt><trkpt lat="44.8988983" lon="7.9655783"><ele>276.6</ele><time>2026-05-03T17:14:44.275Z</time></trkpt><trkpt lat="44.8989617" lon="7.9654633"><ele>277.20000000000005</ele><time>2026-05-03T17:14:45.275Z</time></trkpt><trkpt lat="44.8990333" lon="7.965335"><ele>277.79999999999995</ele><time>2026-05-03T17:14:46.275Z</time></trkpt><trkpt lat="44.8990967" lon="7.9651983"><ele>278.4</ele><time>2026-05-03T17:14:47.275Z</time></trkpt><trkpt lat="44.899165" lon="7.965085"><ele>279.0</ele><time>2026-05-03T17:14:48.275Z</time></trkpt><trkpt lat="44.8992333" lon="7.9649783"><ele>279.0</ele><time>2026-05-03T17:14:49.275Z</time></trkpt><trkpt lat="44.899305" lon="7.9648733"><ele>279.0</ele><time>2026-05-03T17:14:50.275Z</time></trkpt><trkpt lat="44.899375" lon="7.9647783"><ele>279.0</ele><time>2026-05-03T17:14:51.275Z</time></trkpt><trkpt lat="44.899445" lon="7.9646917"><ele>279.0</ele><time>2026-05-03T17:14:52.276Z</time></trkpt><trkpt lat="44.8995167" lon="7.96462"><ele>279.0</ele><time>2026-05-03T17:14:53.275Z</time></trkpt><trkpt lat="44.8995867" lon="7.9645783"><ele>279.0</ele><time>2026-05-03T17:14:54.275Z</time></trkpt><trkpt lat="44.8996583" lon="7.9645717"><ele>279.0</ele><time>2026-05-03T17:14:55.275Z</time></trkpt><trkpt lat="44.8997317" lon="7.964585"><ele>279.0</ele><time>2026-05-03T17:14:56.275Z</time></trkpt><trkpt lat="44.8998117" lon="7.9646233"><ele>279.0</ele><time>2026-05-03T17:14:57.276Z</time></trkpt><trkpt lat="44.899905" lon="7.9646867"><ele>279.0</ele><time>2026-05-03T17:14:58.275Z</time></trkpt><trkpt lat="44.9000033" lon="7.9647617"><ele>279.0</ele><time>2026-05-03T17:14:59.275Z</time></trkpt><trkpt lat="44.900105" lon="7.9648433"><ele>278.75</ele><time>2026-05-03T17:15:00.275Z</time></trkpt><trkpt lat="44.9002217" lon="7.9649217"><ele>278.5</ele><time>2026-05-03T17:15:01.276Z</time></trkpt><trkpt lat="44.9003267" lon="7.965025"><ele>278.25</ele><time>2026-05-03T17:15:02.275Z</time></trkpt><trkpt lat="44.9004467" lon="7.9651233"><ele>278.0</ele><time>2026-05-03T17:15:03.275Z</time></trkpt><trkpt lat="44.9005667" lon="7.9652217"><ele>277.75</ele><time>2026-05-03T17:15:04.275Z</time></trkpt><trkpt lat="44.9006917" lon="7.96533"><ele>277.5</ele><time>2026-05-03T17:15:05.276Z</time></trkpt><trkpt lat="44.9008117" lon="7.96544"><ele>277.25</ele><time>2026-05-03T17:15:06.275Z</time></trkpt><trkpt lat="44.9009367" lon="7.96555"><ele>277.0</ele><time>2026-05-03T17:15:07.275Z</time></trkpt><trkpt lat="44.9010633" lon="7.96566"><ele>277.0</ele><time>2026-05-03T17:15:08.275Z</time></trkpt><trkpt lat="44.9011883" lon="7.9657683"><ele>277.0</ele><time>2026-05-03T17:15:09.275Z</time></trkpt><trkpt lat="44.9013133" lon="7.9658767"><ele>277.0</ele><time>2026-05-03T17:15:10.275Z</time></trkpt><trkpt lat="44.9014433" lon="7.96598"><ele>277.0</ele><time>2026-05-03T17:15:11.275Z</time></trkpt><trkpt lat="44.9015733" lon="7.96609"><ele>277.0</ele><time>2026-05-03T17:15:12.275Z</time></trkpt><trkpt lat="44.9017" lon="7.9661983"><ele>277.0</ele><time>2026-05-03T17:15:13.275Z</time></trkpt><trkpt lat="44.901815" lon="7.9663167"><ele>277.0</ele><time>2026-05-03T17:15:14.275Z</time></trkpt><trkpt lat="44.9019333" lon="7.96643"><ele>277.0</ele><time>2026-05-03T17:15:15.275Z</time></trkpt><trkpt lat="44.9020583" lon="7.9665433"><ele>277.0</ele><time>2026-05-03T17:15:16.275Z</time></trkpt><trkpt lat="44.90218" lon="7.9666567"><ele>277.0</ele><time>2026-05-03T17:15:17.275Z</time></trkpt><trkpt lat="44.9022983" lon="7.966775"><ele>277.0</ele><time>2026-05-03T17:15:18.275Z</time></trkpt><trkpt lat="44.9024117" lon="7.9668917"><ele>277.0</ele><time>2026-05-03T17:15:19.275Z</time></trkpt><trkpt lat="44.90252" lon="7.9669967"><ele>277.0</ele><time>2026-05-03T17:15:20.275Z</time></trkpt><trkpt lat="44.9026233" lon="7.967105"><ele>277.0</ele><time>2026-05-03T17:15:21.275Z</time></trkpt><trkpt lat="44.90272" lon="7.9671983"><ele>277.0</ele><time>2026-05-03T17:15:22.275Z</time></trkpt><trkpt lat="44.90281" lon="7.9672733"><ele>277.0</ele><time>2026-05-03T17:15:23.275Z</time></trkpt><trkpt lat="44.9028917" lon="7.96734"><ele>277.0</ele><time>2026-05-03T17:15:24.275Z</time></trkpt><trkpt lat="44.90296" lon="7.967395"><ele>277.0</ele><time>2026-05-03T17:15:25.275Z</time></trkpt><trkpt lat="44.9030067" lon="7.96748"><ele>277.0</ele><time>2026-05-03T17:15:27.276Z</time></trkpt><trkpt lat="44.90298" lon="7.96757"><ele>277.0</ele><time>2026-05-03T17:15:29.275Z</time></trkpt><trkpt lat="44.9029317" lon="7.9676517"><ele>277.0</ele><time>2026-05-03T17:15:30.275Z</time></trkpt><trkpt lat="44.902895" lon="7.9677683"><ele>277.0</ele><time>2026-05-03T17:15:31.276Z</time></trkpt><trkpt lat="44.902895" lon="7.967915"><ele>277.0</ele><time>2026-05-03T17:15:32.275Z</time></trkpt><trkpt lat="44.9029283" lon="7.968055"><ele>276.5</ele><time>2026-05-03T17:15:33.275Z</time></trkpt><trkpt lat="44.9030067" lon="7.9681983"><ele>276.0</ele><time>2026-05-03T17:15:34.275Z</time></trkpt><trkpt lat="44.90311" lon="7.9683217"><ele>275.5</ele><time>2026-05-03T17:15:35.275Z</time></trkpt><trkpt lat="44.90321" lon="7.968455"><ele>275.0</ele><time>2026-05-03T17:15:36.275Z</time></trkpt><trkpt lat="44.9033033" lon="7.9686017"><ele>274.75</ele><time>2026-05-03T17:15:37.275Z</time></trkpt><trkpt lat="44.90336" lon="7.9687767"><ele>274.5</ele><time>2026-05-03T17:15:38.275Z</time></trkpt><trkpt lat="44.9034" lon="7.9689567"><ele>274.25</ele><time>2026-05-03T17:15:39.275Z</time></trkpt><trkpt lat="44.9034233" lon="7.9691483"><ele>274.0</ele><time>2026-05-03T17:15:40.275Z</time></trkpt><trkpt lat="44.9034283" lon="7.969345"><ele>274.0</ele><time>2026-05-03T17:15:41.276Z</time></trkpt><trkpt lat="44.90342" lon="7.9695067"><ele>274.0</ele><time>2026-05-03T17:15:42.275Z</time></trkpt><trkpt lat="44.903415" lon="7.9696417"><ele>274.0</ele><time>2026-05-03T17:15:43.275Z</time></trkpt><trkpt lat="44.9034033" lon="7.9697383"><ele>274.0</ele><time>2026-05-03T17:15:44.275Z</time></trkpt><trkpt lat="44.90338" lon="7.9698283"><ele>274.0</ele><time>2026-05-03T17:15:45.275Z</time></trkpt><trkpt lat="44.9033317" lon="7.96994"><ele>274.0</ele><time>2026-05-03T17:15:46.275Z</time></trkpt><trkpt lat="44.9032883" lon="7.9700783"><ele>271.75</ele><time>2026-05-03T17:15:47.275Z</time></trkpt><trkpt lat="44.9032267" lon="7.970235"><ele>269.5</ele><time>2026-05-03T17:15:48.275Z</time></trkpt><trkpt lat="44.9031567" lon="7.9703933"><ele>267.25</ele><time>2026-05-03T17:15:49.275Z</time></trkpt><trkpt lat="44.90308" lon="7.9705683"><ele>265.0</ele><time>2026-05-03T17:15:50.275Z</time></trkpt><trkpt lat="44.902995" lon="7.97075"><ele>266.0</ele><time>2026-05-03T17:15:51.275Z</time></trkpt><trkpt lat="44.9029133" lon="7.9709533"><ele>267.0</ele><time>2026-05-03T17:15:52.275Z</time></trkpt><trkpt lat="44.902825" lon="7.9711533"><ele>268.0</ele><time>2026-05-03T17:15:53.275Z</time></trkpt><trkpt lat="44.9027333" lon="7.9713683"><ele>268.0</ele><time>2026-05-03T17:15:54.276Z</time></trkpt><trkpt lat="44.9026367" lon="7.9715783"><ele>268.0</ele><time>2026-05-03T17:15:55.275Z</time></trkpt><trkpt lat="44.9025467" lon="7.9718117"><ele>268.0</ele><time>2026-05-03T17:15:56.275Z</time></trkpt><trkpt lat="44.9024767" lon="7.9720483"><ele>262.0</ele><time>2026-05-03T17:15:57.275Z</time></trkpt><trkpt lat="44.9024383" lon="7.9722967"><ele>256.0</ele><time>2026-05-03T17:15:58.275Z</time></trkpt><trkpt lat="44.9024367" lon="7.972565"><ele>250.0</ele><time>2026-05-03T17:15:59.276Z</time></trkpt><trkpt lat="44.90248" lon="7.97282"><ele>251.33333333333331</ele><time>2026-05-03T17:16:00.275Z</time></trkpt><trkpt lat="44.9025717" lon="7.9730317"><ele>252.66666666666669</ele><time>2026-05-03T17:16:01.275Z</time></trkpt><trkpt lat="44.9026833" lon="7.9732167"><ele>254.0</ele><time>2026-05-03T17:16:02.275Z</time></trkpt><trkpt lat="44.9028083" lon="7.9733733"><ele>251.33333333333334</ele><time>2026-05-03T17:16:03.276Z</time></trkpt><trkpt lat="44.9029233" lon="7.97355"><ele>248.66666666666669</ele><time>2026-05-03T17:16:04.275Z</time></trkpt><trkpt lat="44.9030167" lon="7.97374"><ele>246.0</ele><time>2026-05-03T17:16:05.275Z</time></trkpt><trkpt lat="44.90307" lon="7.9739617"><ele>245.0</ele><time>2026-05-03T17:16:06.275Z</time></trkpt><trkpt lat="44.9030767" lon="7.9742033"><ele>244.0</ele><time>2026-05-03T17:16:07.275Z</time></trkpt><trkpt lat="44.9030483" lon="7.974455"><ele>243.0</ele><time>2026-05-03T17:16:08.275Z</time></trkpt><trkpt lat="44.902985" lon="7.974685"><ele>243.0</ele><time>2026-05-03T17:16:09.275Z</time></trkpt><trkpt lat="44.902895" lon="7.9749083"><ele>243.0</ele><time>2026-05-03T17:16:10.275Z</time></trkpt><trkpt lat="44.90278" lon="7.9751"><ele>243.0</ele><time>2026-05-03T17:16:11.275Z</time></trkpt><trkpt lat="44.9026383" lon="7.9752717"><ele>242.0</ele><time>2026-05-03T17:16:12.275Z</time></trkpt><trkpt lat="44.9024883" lon="7.9754517"><ele>241.0</ele><time>2026-05-03T17:16:13.275Z</time></trkpt><trkpt lat="44.9023483" lon="7.9756483"><ele>240.0</ele><time>2026-05-03T17:16:14.275Z</time></trkpt><trkpt lat="44.9022133" lon="7.9758633"><ele>240.0</ele><time>2026-05-03T17:16:15.275Z</time></trkpt><trkpt lat="44.9020883" lon="7.9761017"><ele>240.0</ele><time>2026-05-03T17:16:16.275Z</time></trkpt><trkpt lat="44.901985" lon="7.9763433"><ele>240.0</ele><time>2026-05-03T17:16:17.275Z</time></trkpt><trkpt lat="44.9018767" lon="7.9766017"><ele>240.0</ele><time>2026-05-03T17:16:18.275Z</time></trkpt><trkpt lat="44.9017633" lon="7.97686"><ele>240.0</ele><time>2026-05-03T17:16:19.275Z</time></trkpt><trkpt lat="44.9016317" lon="7.9771"><ele>240.0</ele><time>2026-05-03T17:16:20.275Z</time></trkpt><trkpt lat="44.90149" lon="7.9773317"><ele>238.0</ele><time>2026-05-03T17:16:21.275Z</time></trkpt><trkpt lat="44.9013433" lon="7.9775567"><ele>236.0</ele><time>2026-05-03T17:16:22.275Z</time></trkpt><trkpt lat="44.9012" lon="7.9777767"><ele>234.0</ele><time>2026-05-03T17:16:23.275Z</time></trkpt><trkpt lat="44.9010617" lon="7.9780033"><ele>234.0</ele><time>2026-05-03T17:16:24.275Z</time></trkpt><trkpt lat="44.9009283" lon="7.9782367"><ele>234.0</ele><time>2026-05-03T17:16:25.275Z</time></trkpt><trkpt lat="44.9007967" lon="7.9784883"><ele>234.0</ele><time>2026-05-03T17:16:26.275Z</time></trkpt><trkpt lat="44.9006667" lon="7.9787533"><ele>227.0</ele><time>2026-05-03T17:16:27.275Z</time></trkpt><trkpt lat="44.9005467" lon="7.9790317"><ele>220.0</ele><time>2026-05-03T17:16:28.276Z</time></trkpt><trkpt lat="44.9004267" lon="7.97932"><ele>220.0</ele><time>2026-05-03T17:16:29.275Z</time></trkpt><trkpt lat="44.900305" lon="7.979625"><ele>220.0</ele><time>2026-05-03T17:16:30.275Z</time></trkpt><trkpt lat="44.900185" lon="7.9799217"><ele>210.0</ele><time>2026-05-03T17:16:31.275Z</time></trkpt><trkpt lat="44.9000683" lon="7.98022"><ele>200.0</ele><time>2026-05-03T17:16:32.275Z</time></trkpt><trkpt lat="44.89995" lon="7.9805233"><ele>200.0</ele><time>2026-05-03T17:16:33.275Z</time></trkpt><trkpt lat="44.89983" lon="7.980825"><ele>200.0</ele><time>2026-05-03T17:16:34.275Z</time></trkpt><trkpt lat="44.899705" lon="7.9811283"><ele>199.0</ele><time>2026-05-03T17:16:35.275Z</time></trkpt><trkpt lat="44.8995767" lon="7.9814333"><ele>198.0</ele><time>2026-05-03T17:16:36.275Z</time></trkpt><trkpt lat="44.8994533" lon="7.9817417"><ele>196.0</ele><time>2026-05-03T17:16:37.275Z</time></trkpt><trkpt lat="44.899335" lon="7.9820417"><ele>194.0</ele><time>2026-05-03T17:16:38.275Z</time></trkpt><trkpt lat="44.89922" lon="7.9823317"><ele>193.5</ele><time>2026-05-03T17:16:39.276Z</time></trkpt><trkpt lat="44.8991" lon="7.9826233"><ele>193.0</ele><time>2026-05-03T17:16:40.276Z</time></trkpt><trkpt lat="44.8989833" lon="7.982905"><ele>193.0</ele><time>2026-05-03T17:16:41.276Z</time></trkpt><trkpt lat="44.8988667" lon="7.9831767"><ele>193.0</ele><time>2026-05-03T17:16:42.275Z</time></trkpt><trkpt lat="44.8987517" lon="7.9834417"><ele>193.0</ele><time>2026-05-03T17:16:43.275Z</time></trkpt><trkpt lat="44.8986267" lon="7.983665"><ele>193.66666666666666</ele><time>2026-05-03T17:16:44.275Z</time></trkpt><trkpt lat="44.8984633" lon="7.98385"><ele>194.33333333333331</ele><time>2026-05-03T17:16:45.275Z</time></trkpt><trkpt lat="44.898285" lon="7.9839567"><ele>195.0</ele><time>2026-05-03T17:16:46.275Z</time></trkpt><trkpt lat="44.898085" lon="7.98402"><ele>197.33333333333331</ele><time>2026-05-03T17:16:47.275Z</time></trkpt><trkpt lat="44.89787" lon="7.9840267"><ele>199.66666666666666</ele><time>2026-05-03T17:16:48.275Z</time></trkpt><trkpt lat="44.8976383" lon="7.9839833"><ele>202.0</ele><time>2026-05-03T17:16:49.276Z</time></trkpt><trkpt lat="44.8974167" lon="7.98391"><ele>203.0</ele><time>2026-05-03T17:16:50.275Z</time></trkpt><trkpt lat="44.8972017" lon="7.9838333"><ele>204.0</ele><time>2026-05-03T17:16:51.275Z</time></trkpt><trkpt lat="44.8969833" lon="7.9837733"><ele>205.0</ele><time>2026-05-03T17:16:52.275Z</time></trkpt><trkpt lat="44.8967617" lon="7.9837117"><ele>202.5</ele><time>2026-05-03T17:16:53.275Z</time></trkpt><trkpt lat="44.8965317" lon="7.9836733"><ele>200.0</ele><time>2026-05-03T17:16:54.276Z</time></trkpt><trkpt lat="44.8963" lon="7.983645"><ele>200.0</ele><time>2026-05-03T17:16:55.275Z</time></trkpt><trkpt lat="44.8960633" lon="7.9836317"><ele>200.0</ele><time>2026-05-03T17:16:56.275Z</time></trkpt><trkpt lat="44.8958383" lon="7.983605"><ele>199.0</ele><time>2026-05-03T17:16:57.276Z</time></trkpt><trkpt lat="44.895605" lon="7.9835833"><ele>198.0</ele><time>2026-05-03T17:16:58.275Z</time></trkpt><trkpt lat="44.89538" lon="7.9835583"><ele>198.0</ele><time>2026-05-03T17:16:59.275Z</time></trkpt><trkpt lat="44.895155" lon="7.9835367"><ele>198.0</ele><time>2026-05-03T17:17:00.275Z</time></trkpt><trkpt lat="44.8949267" lon="7.983515"><ele>197.0</ele><time>2026-05-03T17:17:01.276Z</time></trkpt><trkpt lat="44.8947033" lon="7.9834917"><ele>196.0</ele><time>2026-05-03T17:17:02.275Z</time></trkpt><trkpt lat="44.894475" lon="7.9834717"><ele>196.5</ele><time>2026-05-03T17:17:03.275Z</time></trkpt><trkpt lat="44.8942483" lon="7.9834633"><ele>197.0</ele><time>2026-05-03T17:17:04.276Z</time></trkpt><trkpt lat="44.894025" lon="7.9834617"><ele>197.0</ele><time>2026-05-03T17:17:05.275Z</time></trkpt><trkpt lat="44.893795" lon="7.9834817"><ele>197.0</ele><time>2026-05-03T17:17:06.275Z</time></trkpt><trkpt lat="44.89357" lon="7.983525"><ele>197.0</ele><time>2026-05-03T17:17:07.275Z</time></trkpt><trkpt lat="44.893345" lon="7.9835817"><ele>197.0</ele><time>2026-05-03T17:17:08.276Z</time></trkpt><trkpt lat="44.893125" lon="7.9836533"><ele>197.0</ele><time>2026-05-03T17:17:09.275Z</time></trkpt><trkpt lat="44.8929067" lon="7.9837483"><ele>197.0</ele><time>2026-05-03T17:17:10.276Z</time></trkpt><trkpt lat="44.89269" lon="7.9838583"><ele>198.5</ele><time>2026-05-03T17:17:11.275Z</time></trkpt><trkpt lat="44.892485" lon="7.98399"><ele>200.0</ele><time>2026-05-03T17:17:12.275Z</time></trkpt><trkpt lat="44.892275" lon="7.9841333"><ele>200.0</ele><time>2026-05-03T17:17:13.275Z</time></trkpt><trkpt lat="44.89206" lon="7.9842817"><ele>200.0</ele><time>2026-05-03T17:17:14.275Z</time></trkpt><trkpt lat="44.8918367" lon="7.9844517"><ele>199.5</ele><time>2026-05-03T17:17:15.276Z</time></trkpt><trkpt lat="44.8915967" lon="7.9846233"><ele>199.0</ele><time>2026-05-03T17:17:16.275Z</time></trkpt><trkpt lat="44.8913583" lon="7.9847917"><ele>199.0</ele><time>2026-05-03T17:17:17.275Z</time></trkpt><trkpt lat="44.89112" lon="7.9849483"><ele>199.0</ele><time>2026-05-03T17:17:18.276Z</time></trkpt><trkpt lat="44.8908867" lon="7.9851117"><ele>201.5</ele><time>2026-05-03T17:17:19.275Z</time></trkpt><trkpt lat="44.8906733" lon="7.9852717"><ele>204.0</ele><time>2026-05-03T17:17:20.275Z</time></trkpt><trkpt lat="44.8904783" lon="7.9854167"><ele>204.0</ele><time>2026-05-03T17:17:21.275Z</time></trkpt><trkpt lat="44.8902883" lon="7.9855617"><ele>204.0</ele><time>2026-05-03T17:17:22.276Z</time></trkpt><trkpt lat="44.8901033" lon="7.9857"><ele>204.0</ele><time>2026-05-03T17:17:23.275Z</time></trkpt><trkpt lat="44.8899283" lon="7.98583"><ele>205.0</ele><time>2026-05-03T17:17:24.275Z</time></trkpt><trkpt lat="44.889755" lon="7.9859517"><ele>206.0</ele><time>2026-05-03T17:17:25.275Z</time></trkpt><trkpt lat="44.889585" lon="7.9860667"><ele>207.0</ele><time>2026-05-03T17:17:26.275Z</time></trkpt><trkpt lat="44.8894167" lon="7.986185"><ele>205.33333333333331</ele><time>2026-05-03T17:17:27.275Z</time></trkpt><trkpt lat="44.8892583" lon="7.9863117"><ele>203.66666666666666</ele><time>2026-05-03T17:17:28.275Z</time></trkpt><trkpt lat="44.88911" lon="7.9864233"><ele>202.0</ele><time>2026-05-03T17:17:29.275Z</time></trkpt><trkpt lat="44.8889517" lon="7.98654"><ele>202.0</ele><time>2026-05-03T17:17:30.275Z</time></trkpt><trkpt lat="44.888785" lon="7.986665"><ele>202.0</ele><time>2026-05-03T17:17:31.275Z</time></trkpt><trkpt lat="44.8886233" lon="7.9867917"><ele>202.0</ele><time>2026-05-03T17:17:32.275Z</time></trkpt><trkpt lat="44.8884533" lon="7.986915"><ele>203.0</ele><time>2026-05-03T17:17:33.275Z</time></trkpt><trkpt lat="44.8882783" lon="7.98704"><ele>204.0</ele><time>2026-05-03T17:17:34.275Z</time></trkpt><trkpt lat="44.8881033" lon="7.9871717"><ele>205.0</ele><time>2026-05-03T17:17:35.275Z</time></trkpt><trkpt lat="44.8879217" lon="7.9872983"><ele>205.0</ele><time>2026-05-03T17:17:36.275Z</time></trkpt><trkpt lat="44.88774" lon="7.9874317"><ele>205.0</ele><time>2026-05-03T17:17:37.275Z</time></trkpt><trkpt lat="44.8875633" lon="7.9875683"><ele>205.0</ele><time>2026-05-03T17:17:38.276Z</time></trkpt><trkpt lat="44.88738" lon="7.9877017"><ele>205.33333333333331</ele><time>2026-05-03T17:17:39.276Z</time></trkpt><trkpt lat="44.8872" lon="7.98783"><ele>205.66666666666669</ele><time>2026-05-03T17:17:40.276Z</time></trkpt><trkpt lat="44.88702" lon="7.987955"><ele>206.0</ele><time>2026-05-03T17:17:41.275Z</time></trkpt><trkpt lat="44.8868283" lon="7.9880917"><ele>205.66666666666669</ele><time>2026-05-03T17:17:42.276Z</time></trkpt><trkpt lat="44.8866433" lon="7.9882383"><ele>205.33333333333331</ele><time>2026-05-03T17:17:43.275Z</time></trkpt><trkpt lat="44.8864483" lon="7.9883767"><ele>205.0</ele><time>2026-05-03T17:17:44.275Z</time></trkpt><trkpt lat="44.8862517" lon="7.9885117"><ele>205.0</ele><time>2026-05-03T17:17:45.275Z</time></trkpt><trkpt lat="44.8860733" lon="7.9886467"><ele>205.0</ele><time>2026-05-03T17:17:46.275Z</time></trkpt><trkpt lat="44.8858733" lon="7.9887933"><ele>205.0</ele><time>2026-05-03T17:17:47.275Z</time></trkpt><trkpt lat="44.8856767" lon="7.988935"><ele>205.33333333333331</ele><time>2026-05-03T17:17:48.275Z</time></trkpt><trkpt lat="44.88549" lon="7.9890683"><ele>205.66666666666669</ele><time>2026-05-03T17:17:49.275Z</time></trkpt><trkpt lat="44.885305" lon="7.989205"><ele>206.0</ele><time>2026-05-03T17:17:50.276Z</time></trkpt><trkpt lat="44.8851233" lon="7.9893383"><ele>207.0</ele><time>2026-05-03T17:17:51.275Z</time></trkpt><trkpt lat="44.8849533" lon="7.989465"><ele>208.0</ele><time>2026-05-03T17:17:52.275Z</time></trkpt><trkpt lat="44.8847817" lon="7.989595"><ele>209.0</ele><time>2026-05-03T17:17:53.275Z</time></trkpt><trkpt lat="44.8846117" lon="7.9897183"><ele>209.0</ele><time>2026-05-03T17:17:54.276Z</time></trkpt><trkpt lat="44.8844433" lon="7.9898417"><ele>209.0</ele><time>2026-05-03T17:17:55.275Z</time></trkpt><trkpt lat="44.884275" lon="7.98997"><ele>209.0</ele><time>2026-05-03T17:17:56.275Z</time></trkpt><trkpt lat="44.884105" lon="7.990095"><ele>211.0</ele><time>2026-05-03T17:17:57.275Z</time></trkpt><trkpt lat="44.8839417" lon="7.9902133"><ele>213.0</ele><time>2026-05-03T17:17:58.275Z</time></trkpt><trkpt lat="44.8837733" lon="7.9903367"><ele>215.0</ele><time>2026-05-03T17:17:59.275Z</time></trkpt><trkpt lat="44.8836117" lon="7.990465"><ele>215.0</ele><time>2026-05-03T17:18:00.275Z</time></trkpt><trkpt lat="44.88345" lon="7.9905967"><ele>215.0</ele><time>2026-05-03T17:18:01.275Z</time></trkpt><trkpt lat="44.8832767" lon="7.9907217"><ele>215.0</ele><time>2026-05-03T17:18:02.275Z</time></trkpt><trkpt lat="44.8831017" lon="7.9908433"><ele>215.0</ele><time>2026-05-03T17:18:03.275Z</time></trkpt><trkpt lat="44.8829217" lon="7.9909733"><ele>215.0</ele><time>2026-05-03T17:18:04.275Z</time></trkpt><trkpt lat="44.8827517" lon="7.9910983"><ele>215.0</ele><time>2026-05-03T17:18:05.276Z</time></trkpt><trkpt lat="44.8825867" lon="7.9912117"><ele>215.0</ele><time>2026-05-03T17:18:06.275Z</time></trkpt><trkpt lat="44.882435" lon="7.9913183"><ele>215.0</ele><time>2026-05-03T17:18:07.275Z</time></trkpt><trkpt lat="44.8822883" lon="7.9914233"><ele>215.0</ele><time>2026-05-03T17:18:08.275Z</time></trkpt><trkpt lat="44.8821567" lon="7.99152"><ele>215.0</ele><time>2026-05-03T17:18:09.275Z</time></trkpt><trkpt lat="44.88203" lon="7.9916117"><ele>215.0</ele><time>2026-05-03T17:18:10.276Z</time></trkpt><trkpt lat="44.8819033" lon="7.9917033"><ele>215.0</ele><time>2026-05-03T17:18:11.275Z</time></trkpt><trkpt lat="44.88178" lon="7.99179"><ele>215.0</ele><time>2026-05-03T17:18:12.276Z</time></trkpt><trkpt lat="44.88168" lon="7.9918633"><ele>215.4</ele><time>2026-05-03T17:18:13.275Z</time></trkpt><trkpt lat="44.8815767" lon="7.991935"><ele>215.8</ele><time>2026-05-03T17:18:14.275Z</time></trkpt><trkpt lat="44.881485" lon="7.9919917"><ele>216.2</ele><time>2026-05-03T17:18:15.275Z</time></trkpt><trkpt lat="44.881425" lon="7.9920617"><ele>216.6</ele><time>2026-05-03T17:18:16.275Z</time></trkpt><trkpt lat="44.881405" lon="7.9922267"><ele>217.0</ele><time>2026-05-03T17:18:18.275Z</time></trkpt><trkpt lat="44.88144" lon="7.9923233"><ele>217.0</ele><time>2026-05-03T17:18:19.275Z</time></trkpt><trkpt lat="44.8815033" lon="7.9924167"><ele>217.0</ele><time>2026-05-03T17:18:20.275Z</time></trkpt><trkpt lat="44.8815967" lon="7.9924933"><ele>217.0</ele><time>2026-05-03T17:18:21.275Z</time></trkpt><trkpt lat="44.881705" lon="7.99255"><ele>217.0</ele><time>2026-05-03T17:18:22.275Z</time></trkpt><trkpt lat="44.8818133" lon="7.9925683"><ele>217.0</ele><time>2026-05-03T17:18:23.275Z</time></trkpt><trkpt lat="44.881915" lon="7.9925383"><ele>219.25</ele><time>2026-05-03T17:18:24.276Z</time></trkpt><trkpt lat="44.8820217" lon="7.9924883"><ele>221.5</ele><time>2026-05-03T17:18:25.275Z</time></trkpt><trkpt lat="44.882135" lon="7.9924383"><ele>223.75</ele><time>2026-05-03T17:18:26.275Z</time></trkpt><trkpt lat="44.8822617" lon="7.9923817"><ele>226.0</ele><time>2026-05-03T17:18:27.275Z</time></trkpt><trkpt lat="44.882385" lon="7.9923217"><ele>226.0</ele><time>2026-05-03T17:18:28.275Z</time></trkpt><trkpt lat="44.8825083" lon="7.9922717"><ele>226.0</ele><time>2026-05-03T17:18:29.275Z</time></trkpt><trkpt lat="44.882625" lon="7.99222"><ele>226.0</ele><time>2026-05-03T17:18:30.275Z</time></trkpt><trkpt lat="44.88275" lon="7.9921733"><ele>226.0</ele><time>2026-05-03T17:18:31.275Z</time></trkpt><trkpt lat="44.8828683" lon="7.9921083"><ele>228.60000000000002</ele><time>2026-05-03T17:18:32.276Z</time></trkpt><trkpt lat="44.8829717" lon="7.99203"><ele>231.20000000000002</ele><time>2026-05-03T17:18:33.275Z</time></trkpt><trkpt lat="44.88307" lon="7.991955"><ele>233.79999999999998</ele><time>2026-05-03T17:18:34.275Z</time></trkpt><trkpt lat="44.8831567" lon="7.9918967"><ele>236.39999999999998</ele><time>2026-05-03T17:18:35.275Z</time></trkpt><trkpt lat="44.8832333" lon="7.9918567"><ele>239.0</ele><time>2026-05-03T17:18:36.275Z</time></trkpt><trkpt lat="44.8833033" lon="7.99183"><ele>239.00000000000003</ele><time>2026-05-03T17:18:37.275Z</time></trkpt><trkpt lat="44.88337" lon="7.991805"><ele>239.0</ele><time>2026-05-03T17:18:38.275Z</time></trkpt><trkpt lat="44.8834367" lon="7.9917967"><ele>239.0</ele><time>2026-05-03T17:18:39.275Z</time></trkpt><trkpt lat="44.8835117" lon="7.99179"><ele>239.0</ele><time>2026-05-03T17:18:40.275Z</time></trkpt><trkpt lat="44.8836" lon="7.9917867"><ele>239.00000000000003</ele><time>2026-05-03T17:18:41.275Z</time></trkpt><trkpt lat="44.8836883" lon="7.99179"><ele>239.0</ele><time>2026-05-03T17:18:42.275Z</time></trkpt><trkpt lat="44.8837883" lon="7.9918083"><ele>240.0</ele><time>2026-05-03T17:18:43.275Z</time></trkpt><trkpt lat="44.8838833" lon="7.9918367"><ele>240.99999999999997</ele><time>2026-05-03T17:18:44.275Z</time></trkpt><trkpt lat="44.883985" lon="7.99187"><ele>241.99999999999997</ele><time>2026-05-03T17:18:45.275Z</time></trkpt><trkpt lat="44.8840833" lon="7.9919067"><ele>243.0</ele><time>2026-05-03T17:18:46.275Z</time></trkpt><trkpt lat="44.8841883" lon="7.9919367"><ele>244.0</ele><time>2026-05-03T17:18:47.275Z</time></trkpt><trkpt lat="44.8842967" lon="7.991965"><ele>244.0</ele><time>2026-05-03T17:18:48.276Z</time></trkpt><trkpt lat="44.8844133" lon="7.992"><ele>244.0</ele><time>2026-05-03T17:18:49.275Z</time></trkpt><trkpt lat="44.8845367" lon="7.9920283"><ele>244.0</ele><time>2026-05-03T17:18:50.275Z</time></trkpt><trkpt lat="44.884665" lon="7.9920533"><ele>244.0</ele><time>2026-05-03T17:18:51.275Z</time></trkpt><trkpt lat="44.8847983" lon="7.99206"><ele>244.0</ele><time>2026-05-03T17:18:52.275Z</time></trkpt><trkpt lat="44.8849383" lon="7.9920283"><ele>244.0</ele><time>2026-05-03T17:18:53.275Z</time></trkpt><trkpt lat="44.8850867" lon="7.9919867"><ele>244.0</ele><time>2026-05-03T17:18:54.275Z</time></trkpt><trkpt lat="44.885235" lon="7.9919517"><ele>244.0</ele><time>2026-05-03T17:18:55.276Z</time></trkpt><trkpt lat="44.885375" lon="7.9919083"><ele>244.0</ele><time>2026-05-03T17:18:56.275Z</time></trkpt><trkpt lat="44.885515" lon="7.99186"><ele>244.0</ele><time>2026-05-03T17:18:57.275Z</time></trkpt><trkpt lat="44.8856533" lon="7.99182"><ele>244.0</ele><time>2026-05-03T17:18:58.276Z</time></trkpt><trkpt lat="44.88579" lon="7.9917617"><ele>244.0</ele><time>2026-05-03T17:18:59.275Z</time></trkpt><trkpt lat="44.88591" lon="7.9916917"><ele>244.2</ele><time>2026-05-03T17:19:00.275Z</time></trkpt><trkpt lat="44.8860267" lon="7.991605"><ele>244.39999999999998</ele><time>2026-05-03T17:19:01.275Z</time></trkpt><trkpt lat="44.8861017" lon="7.9914817"><ele>244.6</ele><time>2026-05-03T17:19:02.275Z</time></trkpt><trkpt lat="44.8861617" lon="7.991375"><ele>244.8</ele><time>2026-05-03T17:19:03.275Z</time></trkpt><trkpt lat="44.8862283" lon="7.99131"><ele>245.0</ele><time>2026-05-03T17:19:04.275Z</time></trkpt><trkpt lat="44.8862933" lon="7.9913033"><ele>245.0</ele><time>2026-05-03T17:19:05.275Z</time></trkpt><trkpt lat="44.8863617" lon="7.9913467"><ele>245.0</ele><time>2026-05-03T17:19:06.275Z</time></trkpt><trkpt lat="44.8864083" lon="7.99142"><ele>245.0</ele><time>2026-05-03T17:19:07.275Z</time></trkpt><trkpt lat="44.88641" lon="7.99152"><ele>245.0</ele><time>2026-05-03T17:19:08.275Z</time></trkpt><trkpt lat="44.886365" lon="7.9916017"><ele>245.0</ele><time>2026-05-03T17:19:09.275Z</time></trkpt><trkpt lat="44.88629" lon="7.991675"><ele>245.0</ele><time>2026-05-03T17:19:10.275Z</time></trkpt><trkpt lat="44.8862383" lon="7.99174"><ele>245.0</ele><time>2026-05-03T17:19:11.275Z</time></trkpt><trkpt lat="44.8862567" lon="7.991835"><ele>245.0</ele><time>2026-05-03T17:19:13.275Z</time></trkpt><trkpt lat="44.8863633" lon="7.9917883"><ele>245.0</ele><time>2026-05-03T17:19:15.275Z</time></trkpt><trkpt lat="44.886445" lon="7.9917367"><ele>245.0</ele><time>2026-05-03T17:19:16.276Z</time></trkpt><trkpt lat="44.8865383" lon="7.9916883"><ele>245.0</ele><time>2026-05-03T17:19:17.275Z</time></trkpt><trkpt lat="44.8866417" lon="7.9916583"><ele>245.0</ele><time>2026-05-03T17:19:18.275Z</time></trkpt><trkpt lat="44.8867533" lon="7.9916367"><ele>246.0</ele><time>2026-05-03T17:19:19.275Z</time></trkpt><trkpt lat="44.8868817" lon="7.9916133"><ele>247.0</ele><time>2026-05-03T17:19:20.275Z</time></trkpt><trkpt lat="44.8870117" lon="7.9915867"><ele>248.0</ele><time>2026-05-03T17:19:21.275Z</time></trkpt><trkpt lat="44.8871433" lon="7.9915683"><ele>249.0</ele><time>2026-05-03T17:19:22.275Z</time></trkpt><trkpt lat="44.88728" lon="7.991535"><ele>249.0</ele><time>2026-05-03T17:19:23.276Z</time></trkpt><trkpt lat="44.8874217" lon="7.991495"><ele>249.0</ele><time>2026-05-03T17:19:24.275Z</time></trkpt><trkpt lat="44.8875517" lon="7.9914533"><ele>249.0</ele><time>2026-05-03T17:19:25.275Z</time></trkpt><trkpt lat="44.88769" lon="7.9914033"><ele>249.0</ele><time>2026-05-03T17:19:26.275Z</time></trkpt><trkpt lat="44.88784" lon="7.991345"><ele>249.66666666666669</ele><time>2026-05-03T17:19:27.275Z</time></trkpt><trkpt lat="44.8879967" lon="7.99129"><ele>250.33333333333334</ele><time>2026-05-03T17:19:28.275Z</time></trkpt><trkpt lat="44.8881667" lon="7.9912267"><ele>251.0</ele><time>2026-05-03T17:19:29.275Z</time></trkpt><trkpt lat="44.8883467" lon="7.9911717"><ele>251.33333333333334</ele><time>2026-05-03T17:19:30.276Z</time></trkpt><trkpt lat="44.8885317" lon="7.9911283"><ele>251.66666666666669</ele><time>2026-05-03T17:19:31.275Z</time></trkpt><trkpt lat="44.8887217" lon="7.9911133"><ele>252.0</ele><time>2026-05-03T17:19:32.275Z</time></trkpt><trkpt lat="44.8889067" lon="7.991125"><ele>252.0</ele><time>2026-05-03T17:19:33.276Z</time></trkpt><trkpt lat="44.8890883" lon="7.9911283"><ele>252.0</ele><time>2026-05-03T17:19:34.276Z</time></trkpt><trkpt lat="44.8892633" lon="7.9911433"><ele>252.0</ele><time>2026-05-03T17:19:35.275Z</time></trkpt><trkpt lat="44.889425" lon="7.9911583"><ele>254.5</ele><time>2026-05-03T17:19:36.275Z</time></trkpt><trkpt lat="44.889565" lon="7.991175"><ele>257.0</ele><time>2026-05-03T17:19:37.275Z</time></trkpt><trkpt lat="44.8896867" lon="7.9911883"><ele>259.5</ele><time>2026-05-03T17:19:38.275Z</time></trkpt><trkpt lat="44.8897983" lon="7.9912067"><ele>262.0</ele><time>2026-05-03T17:19:39.275Z</time></trkpt><trkpt lat="44.8898867" lon="7.99121"><ele>262.0</ele><time>2026-05-03T17:19:40.275Z</time></trkpt><trkpt lat="44.8899617" lon="7.9912317"><ele>262.0</ele><time>2026-05-03T17:19:41.275Z</time></trkpt><trkpt lat="44.8900833" lon="7.9913467"><ele>262.0</ele><time>2026-05-03T17:19:43.275Z</time></trkpt><trkpt lat="44.890155" lon="7.9914567"><ele>262.0</ele><time>2026-05-03T17:19:44.276Z</time></trkpt><trkpt lat="44.8902383" lon="7.9916017"><ele>261.25</ele><time>2026-05-03T17:19:45.275Z</time></trkpt><trkpt lat="44.890325" lon="7.9917517"><ele>260.5</ele><time>2026-05-03T17:19:46.275Z</time></trkpt><trkpt lat="44.8904117" lon="7.9919083"><ele>259.75</ele><time>2026-05-03T17:19:47.275Z</time></trkpt><trkpt lat="44.8904917" lon="7.992055"><ele>259.0</ele><time>2026-05-03T17:19:48.275Z</time></trkpt><trkpt lat="44.8905783" lon="7.9921817"><ele>259.0</ele><time>2026-05-03T17:19:49.275Z</time></trkpt><trkpt lat="44.8906833" lon="7.9922833"><ele>259.0</ele><time>2026-05-03T17:19:50.275Z</time></trkpt><trkpt lat="44.8908033" lon="7.9923633"><ele>259.0</ele><time>2026-05-03T17:19:51.275Z</time></trkpt><trkpt lat="44.8909483" lon="7.9924433"><ele>259.0</ele><time>2026-05-03T17:19:52.275Z</time></trkpt><trkpt lat="44.8911117" lon="7.9925267"><ele>259.3333333333333</ele><time>2026-05-03T17:19:53.276Z</time></trkpt><trkpt lat="44.89128" lon="7.9926217"><ele>259.6666666666667</ele><time>2026-05-03T17:19:54.275Z</time></trkpt><trkpt lat="44.8914533" lon="7.9927133"><ele>260.0</ele><time>2026-05-03T17:19:55.275Z</time></trkpt><trkpt lat="44.8916133" lon="7.9928083"><ele>257.6666666666667</ele><time>2026-05-03T17:19:56.275Z</time></trkpt><trkpt lat="44.89177" lon="7.9929133"><ele>255.33333333333331</ele><time>2026-05-03T17:19:57.275Z</time></trkpt><trkpt lat="44.8919217" lon="7.9930183"><ele>253.0</ele><time>2026-05-03T17:19:58.275Z</time></trkpt><trkpt lat="44.8920633" lon="7.99314"><ele>253.0</ele><time>2026-05-03T17:19:59.276Z</time></trkpt><trkpt lat="44.8921783" lon="7.993295"><ele>253.0</ele><time>2026-05-03T17:20:00.275Z</time></trkpt><trkpt lat="44.8922817" lon="7.9934783"><ele>253.0</ele><time>2026-05-03T17:20:01.276Z</time></trkpt><trkpt lat="44.892385" lon="7.993685"><ele>253.66666666666666</ele><time>2026-05-03T17:20:02.275Z</time></trkpt><trkpt lat="44.8924683" lon="7.9939117"><ele>254.33333333333331</ele><time>2026-05-03T17:20:03.275Z</time></trkpt><trkpt lat="44.8925333" lon="7.9941433"><ele>255.0</ele><time>2026-05-03T17:20:04.275Z</time></trkpt><trkpt lat="44.8925833" lon="7.9943783"><ele>254.33333333333331</ele><time>2026-05-03T17:20:05.275Z</time></trkpt><trkpt lat="44.8926183" lon="7.9946067"><ele>253.66666666666666</ele><time>2026-05-03T17:20:06.276Z</time></trkpt><trkpt lat="44.8926567" lon="7.994825"><ele>253.0</ele><time>2026-05-03T17:20:07.275Z</time></trkpt><trkpt lat="44.8926933" lon="7.99502"><ele>253.0</ele><time>2026-05-03T17:20:08.275Z</time></trkpt><trkpt lat="44.8927667" lon="7.9952017"><ele>253.0</ele><time>2026-05-03T17:20:09.276Z</time></trkpt><trkpt lat="44.8928667" lon="7.9953767"><ele>253.0</ele><time>2026-05-03T17:20:10.275Z</time></trkpt><trkpt lat="44.8929683" lon="7.9955567"><ele>253.0</ele><time>2026-05-03T17:20:11.275Z</time></trkpt><trkpt lat="44.893075" lon="7.99573"><ele>253.0</ele><time>2026-05-03T17:20:12.275Z</time></trkpt><trkpt lat="44.8931917" lon="7.9958983"><ele>253.0</ele><time>2026-05-03T17:20:13.275Z</time></trkpt><trkpt lat="44.8933083" lon="7.9960633"><ele>252.66666666666666</ele><time>2026-05-03T17:20:14.275Z</time></trkpt><trkpt lat="44.893465" lon="7.9961933"><ele>252.33333333333331</ele><time>2026-05-03T17:20:15.275Z</time></trkpt><trkpt lat="44.8936367" lon="7.9963117"><ele>252.0</ele><time>2026-05-03T17:20:16.275Z</time></trkpt><trkpt lat="44.893805" lon="7.9964267"><ele>252.0</ele><time>2026-05-03T17:20:17.275Z</time></trkpt><trkpt lat="44.893965" lon="7.9965383"><ele>252.0</ele><time>2026-05-03T17:20:18.276Z</time></trkpt><trkpt lat="44.8941067" lon="7.996655"><ele>252.0</ele><time>2026-05-03T17:20:19.275Z</time></trkpt><trkpt lat="44.89424" lon="7.9967983"><ele>251.33333333333331</ele><time>2026-05-03T17:20:20.275Z</time></trkpt><trkpt lat="44.894365" lon="7.9969683"><ele>250.66666666666666</ele><time>2026-05-03T17:20:21.275Z</time></trkpt><trkpt lat="44.8944867" lon="7.9971733"><ele>250.0</ele><time>2026-05-03T17:20:22.275Z</time></trkpt><trkpt lat="44.8946067" lon="7.9973867"><ele>251.33333333333331</ele><time>2026-05-03T17:20:23.275Z</time></trkpt><trkpt lat="44.8947167" lon="7.9976017"><ele>252.66666666666669</ele><time>2026-05-03T17:20:24.275Z</time></trkpt><trkpt lat="44.8948467" lon="7.9977817"><ele>254.0</ele><time>2026-05-03T17:20:25.275Z</time></trkpt><trkpt lat="44.894985" lon="7.9979283"><ele>254.0</ele><time>2026-05-03T17:20:26.275Z</time></trkpt><trkpt lat="44.8951267" lon="7.9980683"><ele>254.0</ele><time>2026-05-03T17:20:27.276Z</time></trkpt><trkpt lat="44.89525" lon="7.998225"><ele>254.0</ele><time>2026-05-03T17:20:28.275Z</time></trkpt><trkpt lat="44.8953517" lon="7.9983967"><ele>254.0</ele><time>2026-05-03T17:20:29.275Z</time></trkpt><trkpt lat="44.8954533" lon="7.9985817"><ele>254.0</ele><time>2026-05-03T17:20:30.276Z</time></trkpt><trkpt lat="44.8955283" lon="7.9987983"><ele>254.0</ele><time>2026-05-03T17:20:31.275Z</time></trkpt><trkpt lat="44.895595" lon="7.9990333"><ele>253.0</ele><time>2026-05-03T17:20:32.275Z</time></trkpt><trkpt lat="44.8956383" lon="7.9992983"><ele>252.0</ele><time>2026-05-03T17:20:33.276Z</time></trkpt><trkpt lat="44.895685" lon="7.9995667"><ele>251.0</ele><time>2026-05-03T17:20:34.275Z</time></trkpt><trkpt lat="44.895725" lon="7.999845"><ele>251.0</ele><time>2026-05-03T17:20:35.275Z</time></trkpt><trkpt lat="44.8957667" lon="8.0001083"><ele>251.0</ele><time>2026-05-03T17:20:36.275Z</time></trkpt><trkpt lat="44.8958133" lon="8.0003617"><ele>251.0</ele><time>2026-05-03T17:20:37.276Z</time></trkpt><trkpt lat="44.89584" lon="8.0006167"><ele>250.0</ele><time>2026-05-03T17:20:38.275Z</time></trkpt><trkpt lat="44.8958533" lon="8.00086"><ele>249.0</ele><time>2026-05-03T17:20:39.275Z</time></trkpt><trkpt lat="44.8958617" lon="8.0011033"><ele>248.0</ele><time>2026-05-03T17:20:40.275Z</time></trkpt><trkpt lat="44.89586" lon="8.0013417"><ele>248.0</ele><time>2026-05-03T17:20:41.275Z</time></trkpt><trkpt lat="44.8958667" lon="8.0015833"><ele>248.0</ele><time>2026-05-03T17:20:42.275Z</time></trkpt><trkpt lat="44.895865" lon="8.0018167"><ele>248.0</ele><time>2026-05-03T17:20:43.275Z</time></trkpt><trkpt lat="44.8958817" lon="8.002055"><ele>246.33333333333334</ele><time>2026-05-03T17:20:44.275Z</time></trkpt><trkpt lat="44.8959133" lon="8.0022983"><ele>244.66666666666669</ele><time>2026-05-03T17:20:45.275Z</time></trkpt><trkpt lat="44.8959683" lon="8.0025283"><ele>243.0</ele><time>2026-05-03T17:20:46.276Z</time></trkpt><trkpt lat="44.8960483" lon="8.00275"><ele>240.66666666666669</ele><time>2026-05-03T17:20:47.275Z</time></trkpt><trkpt lat="44.8961433" lon="8.00296"><ele>238.33333333333334</ele><time>2026-05-03T17:20:48.275Z</time></trkpt><trkpt lat="44.8962367" lon="8.003155"><ele>236.0</ele><time>2026-05-03T17:20:49.275Z</time></trkpt><trkpt lat="44.8963267" lon="8.0033483"><ele>235.0</ele><time>2026-05-03T17:20:50.276Z</time></trkpt><trkpt lat="44.8964167" lon="8.0035267"><ele>234.0</ele><time>2026-05-03T17:20:51.275Z</time></trkpt><trkpt lat="44.8965" lon="8.0037017"><ele>233.0</ele><time>2026-05-03T17:20:52.275Z</time></trkpt><trkpt lat="44.896555" lon="8.0038767"><ele>232.0</ele><time>2026-05-03T17:20:53.275Z</time></trkpt><trkpt lat="44.8965767" lon="8.004055"><ele>230.25</ele><time>2026-05-03T17:20:54.275Z</time></trkpt><trkpt lat="44.8966083" lon="8.0042383"><ele>228.5</ele><time>2026-05-03T17:20:55.275Z</time></trkpt><trkpt lat="44.8966283" lon="8.0044133"><ele>226.75</ele><time>2026-05-03T17:20:56.275Z</time></trkpt><trkpt lat="44.8966367" lon="8.0045833"><ele>225.0</ele><time>2026-05-03T17:20:57.275Z</time></trkpt><trkpt lat="44.8966267" lon="8.00475"><ele>225.0</ele><time>2026-05-03T17:20:58.275Z</time></trkpt><trkpt lat="44.8965883" lon="8.0049133"><ele>225.0</ele><time>2026-05-03T17:20:59.275Z</time></trkpt><trkpt lat="44.896535" lon="8.0051"><ele>225.0</ele><time>2026-05-03T17:21:00.275Z</time></trkpt><trkpt lat="44.8964683" lon="8.0053"><ele>225.0</ele><time>2026-05-03T17:21:01.276Z</time></trkpt><trkpt lat="44.8964083" lon="8.0054917"><ele>223.5</ele><time>2026-05-03T17:21:02.275Z</time></trkpt><trkpt lat="44.8963483" lon="8.0056833"><ele>222.0</ele><time>2026-05-03T17:21:03.275Z</time></trkpt><trkpt lat="44.896295" lon="8.0058767"><ele>220.5</ele><time>2026-05-03T17:21:04.275Z</time></trkpt><trkpt lat="44.8962467" lon="8.0060733"><ele>219.0</ele><time>2026-05-03T17:21:05.275Z</time></trkpt><trkpt lat="44.89622" lon="8.006275"><ele>215.66666666666669</ele><time>2026-05-03T17:21:06.276Z</time></trkpt><trkpt lat="44.89621" lon="8.0064917"><ele>212.33333333333334</ele><time>2026-05-03T17:21:07.275Z</time></trkpt><trkpt lat="44.8962083" lon="8.0067167"><ele>209.0</ele><time>2026-05-03T17:21:08.275Z</time></trkpt><trkpt lat="44.896215" lon="8.0069583"><ele>205.66666666666669</ele><time>2026-05-03T17:21:09.275Z</time></trkpt><trkpt lat="44.8962417" lon="8.0072"><ele>202.33333333333331</ele><time>2026-05-03T17:21:10.275Z</time></trkpt><trkpt lat="44.8962817" lon="8.007435"><ele>199.0</ele><time>2026-05-03T17:21:11.275Z</time></trkpt><trkpt lat="44.8963283" lon="8.0076733"><ele>196.33333333333331</ele><time>2026-05-03T17:21:12.275Z</time></trkpt><trkpt lat="44.89638" lon="8.0079067"><ele>193.66666666666666</ele><time>2026-05-03T17:21:13.275Z</time></trkpt><trkpt lat="44.89644" lon="8.0081183"><ele>191.0</ele><time>2026-05-03T17:21:14.275Z</time></trkpt><trkpt lat="44.8965" lon="8.0083167"><ele>190.0</ele><time>2026-05-03T17:21:15.275Z</time></trkpt><trkpt lat="44.8965283" lon="8.008505"><ele>189.0</ele><time>2026-05-03T17:21:16.275Z</time></trkpt><trkpt lat="44.8965267" lon="8.008685"><ele>188.0</ele><time>2026-05-03T17:21:17.275Z</time></trkpt><trkpt lat="44.896485" lon="8.00887"><ele>187.0</ele><time>2026-05-03T17:21:18.275Z</time></trkpt><trkpt lat="44.8964317" lon="8.0090667"><ele>185.5</ele><time>2026-05-03T17:21:19.275Z</time></trkpt><trkpt lat="44.8963717" lon="8.009255"><ele>184.0</ele><time>2026-05-03T17:21:20.275Z</time></trkpt><trkpt lat="44.89631" lon="8.009455"><ele>182.5</ele><time>2026-05-03T17:21:21.276Z</time></trkpt><trkpt lat="44.89625" lon="8.0096367"><ele>181.0</ele><time>2026-05-03T17:21:22.275Z</time></trkpt><trkpt lat="44.8961917" lon="8.00979"><ele>181.0</ele><time>2026-05-03T17:21:23.275Z</time></trkpt><trkpt lat="44.8961317" lon="8.0099333"><ele>181.0</ele><time>2026-05-03T17:21:24.275Z</time></trkpt><trkpt lat="44.8960833" lon="8.01007"><ele>181.0</ele><time>2026-05-03T17:21:25.275Z</time></trkpt><trkpt lat="44.8960467" lon="8.01019"><ele>181.0</ele><time>2026-05-03T17:21:26.275Z</time></trkpt><trkpt lat="44.8960117" lon="8.01028"><ele>181.0</ele><time>2026-05-03T17:21:27.275Z</time></trkpt><trkpt lat="44.8960017" lon="8.0104083"><ele>180.25</ele><time>2026-05-03T17:21:30.275Z</time></trkpt><trkpt lat="44.8960733" lon="8.01056"><ele>179.5</ele><time>2026-05-03T17:21:32.275Z</time></trkpt><trkpt lat="44.8961483" lon="8.010645"><ele>178.75</ele><time>2026-05-03T17:21:33.275Z</time></trkpt><trkpt lat="44.8962417" lon="8.0107483"><ele>178.0</ele><time>2026-05-03T17:21:34.275Z</time></trkpt><trkpt lat="44.8963483" lon="8.0108717"><ele>178.0</ele><time>2026-05-03T17:21:35.275Z</time></trkpt><trkpt lat="44.896455" lon="8.0110183"><ele>178.0</ele><time>2026-05-03T17:21:36.275Z</time></trkpt><trkpt lat="44.8965683" lon="8.0111733"><ele>178.0</ele><time>2026-05-03T17:21:37.275Z</time></trkpt><trkpt lat="44.8966967" lon="8.0113367"><ele>178.66666666666669</ele><time>2026-05-03T17:21:38.275Z</time></trkpt><trkpt lat="44.8968317" lon="8.011515"><ele>179.33333333333334</ele><time>2026-05-03T17:21:39.275Z</time></trkpt><trkpt lat="44.896965" lon="8.011715"><ele>180.0</ele><time>2026-05-03T17:21:40.276Z</time></trkpt><trkpt lat="44.8971083" lon="8.0119233"><ele>180.0</ele><time>2026-05-03T17:21:41.276Z</time></trkpt><trkpt lat="44.8972617" lon="8.0121383"><ele>180.0</ele><time>2026-05-03T17:21:42.276Z</time></trkpt><trkpt lat="44.8974217" lon="8.0123617"><ele>180.0</ele><time>2026-05-03T17:21:43.275Z</time></trkpt><trkpt lat="44.8975933" lon="8.0125883"><ele>180.0</ele><time>2026-05-03T17:21:44.275Z</time></trkpt><trkpt lat="44.8977617" lon="8.01282"><ele>180.0</ele><time>2026-05-03T17:21:45.275Z</time></trkpt><trkpt lat="44.8979233" lon="8.0130533"><ele>180.0</ele><time>2026-05-03T17:21:46.275Z</time></trkpt><trkpt lat="44.8980867" lon="8.01328"><ele>180.0</ele><time>2026-05-03T17:21:47.275Z</time></trkpt><trkpt lat="44.8982467" lon="8.013505"><ele>180.0</ele><time>2026-05-03T17:21:48.275Z</time></trkpt><trkpt lat="44.8984033" lon="8.013735"><ele>180.0</ele><time>2026-05-03T17:21:49.275Z</time></trkpt><trkpt lat="44.898565" lon="8.0139633"><ele>179.66666666666666</ele><time>2026-05-03T17:21:50.275Z</time></trkpt><trkpt lat="44.89872" lon="8.014185"><ele>179.33333333333331</ele><time>2026-05-03T17:21:51.275Z</time></trkpt><trkpt lat="44.8988783" lon="8.0144067"><ele>179.0</ele><time>2026-05-03T17:21:52.275Z</time></trkpt><trkpt lat="44.89904" lon="8.014625"><ele>179.0</ele><time>2026-05-03T17:21:53.275Z</time></trkpt><trkpt lat="44.8991967" lon="8.0148467"><ele>179.0</ele><time>2026-05-03T17:21:54.276Z</time></trkpt><trkpt lat="44.8993533" lon="8.0150733"><ele>179.0</ele><time>2026-05-03T17:21:55.275Z</time></trkpt><trkpt lat="44.89951" lon="8.0153017"><ele>179.0</ele><time>2026-05-03T17:21:56.275Z</time></trkpt><trkpt lat="44.899675" lon="8.0155233"><ele>179.0</ele><time>2026-05-03T17:21:57.276Z</time></trkpt><trkpt lat="44.899835" lon="8.0157467"><ele>179.5</ele><time>2026-05-03T17:21:58.275Z</time></trkpt><trkpt lat="44.9" lon="8.0159667"><ele>180.0</ele><time>2026-05-03T17:21:59.275Z</time></trkpt><trkpt lat="44.900155" lon="8.0161967"><ele>180.0</ele><time>2026-05-03T17:22:00.275Z</time></trkpt><trkpt lat="44.9003117" lon="8.016415"><ele>180.0</ele><time>2026-05-03T17:22:01.276Z</time></trkpt><trkpt lat="44.9004667" lon="8.0166267"><ele>180.0</ele><time>2026-05-03T17:22:02.275Z</time></trkpt><trkpt lat="44.9006217" lon="8.0168317"><ele>180.0</ele><time>2026-05-03T17:22:03.275Z</time></trkpt><trkpt lat="44.9007717" lon="8.01704"><ele>180.0</ele><time>2026-05-03T17:22:04.275Z</time></trkpt><trkpt lat="44.9009167" lon="8.0172517"><ele>180.0</ele><time>2026-05-03T17:22:05.275Z</time></trkpt><trkpt lat="44.9010667" lon="8.0174517"><ele>179.0</ele><time>2026-05-03T17:22:06.275Z</time></trkpt><trkpt lat="44.9012117" lon="8.0176533"><ele>178.0</ele><time>2026-05-03T17:22:07.275Z</time></trkpt><trkpt lat="44.9013567" lon="8.0178633"><ele>177.0</ele><time>2026-05-03T17:22:08.275Z</time></trkpt><trkpt lat="44.9015067" lon="8.0180717"><ele>177.0</ele><time>2026-05-03T17:22:09.275Z</time></trkpt><trkpt lat="44.9016567" lon="8.018285"><ele>177.0</ele><time>2026-05-03T17:22:10.275Z</time></trkpt><trkpt lat="44.9018133" lon="8.0184933"><ele>177.0</ele><time>2026-05-03T17:22:11.275Z</time></trkpt><trkpt lat="44.9019683" lon="8.0187033"><ele>177.33333333333334</ele><time>2026-05-03T17:22:12.275Z</time></trkpt><trkpt lat="44.9021217" lon="8.0189133"><ele>177.66666666666669</ele><time>2026-05-03T17:22:13.276Z</time></trkpt><trkpt lat="44.9022767" lon="8.01912"><ele>178.0</ele><time>2026-05-03T17:22:14.275Z</time></trkpt><trkpt lat="44.9024267" lon="8.0193267"><ele>177.33333333333334</ele><time>2026-05-03T17:22:15.275Z</time></trkpt><trkpt lat="44.9025783" lon="8.01953"><ele>176.66666666666666</ele><time>2026-05-03T17:22:16.275Z</time></trkpt><trkpt lat="44.9027317" lon="8.0197267"><ele>176.0</ele><time>2026-05-03T17:22:17.275Z</time></trkpt><trkpt lat="44.90288" lon="8.0199383"><ele>176.33333333333331</ele><time>2026-05-03T17:22:18.275Z</time></trkpt><trkpt lat="44.9030283" lon="8.0201483"><ele>176.66666666666666</ele><time>2026-05-03T17:22:19.275Z</time></trkpt><trkpt lat="44.9031817" lon="8.0203633"><ele>177.0</ele><time>2026-05-03T17:22:20.275Z</time></trkpt><trkpt lat="44.9033317" lon="8.0205833"><ele>178.0</ele><time>2026-05-03T17:22:21.275Z</time></trkpt><trkpt lat="44.9035067" lon="8.0207917"><ele>179.0</ele><time>2026-05-03T17:22:22.275Z</time></trkpt><trkpt lat="44.90368" lon="8.0209833"><ele>180.0</ele><time>2026-05-03T17:22:23.275Z</time></trkpt><trkpt lat="44.9038617" lon="8.021175"><ele>176.0</ele><time>2026-05-03T17:22:24.276Z</time></trkpt><trkpt lat="44.904045" lon="8.02138"><ele>172.0</ele><time>2026-05-03T17:22:25.275Z</time></trkpt><trkpt lat="44.904225" lon="8.02158"><ele>170.5</ele><time>2026-05-03T17:22:26.275Z</time></trkpt><trkpt lat="44.904405" lon="8.02178"><ele>169.0</ele><time>2026-05-03T17:22:27.275Z</time></trkpt><trkpt lat="44.9045833" lon="8.0219867"><ele>169.0</ele><time>2026-05-03T17:22:28.275Z</time></trkpt><trkpt lat="44.9047583" lon="8.0221983"><ele>169.0</ele><time>2026-05-03T17:22:29.275Z</time></trkpt><trkpt lat="44.904925" lon="8.0224167"><ele>172.66666666666669</ele><time>2026-05-03T17:22:30.276Z</time></trkpt><trkpt lat="44.90508" lon="8.0226433"><ele>176.33333333333334</ele><time>2026-05-03T17:22:31.275Z</time></trkpt><trkpt lat="44.905225" lon="8.0228767"><ele>180.0</ele><time>2026-05-03T17:22:32.276Z</time></trkpt><trkpt lat="44.9053717" lon="8.0231"><ele>178.33333333333334</ele><time>2026-05-03T17:22:33.275Z</time></trkpt><trkpt lat="44.9055133" lon="8.023335"><ele>176.66666666666669</ele><time>2026-05-03T17:22:34.275Z</time></trkpt><trkpt lat="44.9056517" lon="8.0235717"><ele>175.0</ele><time>2026-05-03T17:22:35.275Z</time></trkpt><trkpt lat="44.9057833" lon="8.0238083"><ele>175.66666666666669</ele><time>2026-05-03T17:22:36.276Z</time></trkpt><trkpt lat="44.905915" lon="8.0240317"><ele>176.33333333333334</ele><time>2026-05-03T17:22:37.275Z</time></trkpt><trkpt lat="44.9060467" lon="8.024245"><ele>177.0</ele><time>2026-05-03T17:22:38.275Z</time></trkpt><trkpt lat="44.906175" lon="8.0244533"><ele>177.0</ele><time>2026-05-03T17:22:39.275Z</time></trkpt><trkpt lat="44.9063017" lon="8.0246617"><ele>177.0</ele><time>2026-05-03T17:22:40.276Z</time></trkpt><trkpt lat="44.9064283" lon="8.0248717"><ele>177.0</ele><time>2026-05-03T17:22:41.275Z</time></trkpt><trkpt lat="44.9065483" lon="8.02509"><ele>175.66666666666666</ele><time>2026-05-03T17:22:42.275Z</time></trkpt><trkpt lat="44.906665" lon="8.0253167"><ele>174.33333333333331</ele><time>2026-05-03T17:22:43.275Z</time></trkpt><trkpt lat="44.906795" lon="8.02554"><ele>173.0</ele><time>2026-05-03T17:22:44.275Z</time></trkpt><trkpt lat="44.90694" lon="8.0257617"><ele>172.33333333333331</ele><time>2026-05-03T17:22:45.275Z</time></trkpt><trkpt lat="44.9070867" lon="8.0259867"><ele>171.66666666666666</ele><time>2026-05-03T17:22:46.275Z</time></trkpt><trkpt lat="44.90723" lon="8.02623"><ele>171.0</ele><time>2026-05-03T17:22:47.275Z</time></trkpt><trkpt lat="44.907375" lon="8.0264733"><ele>170.5</ele><time>2026-05-03T17:22:48.275Z</time></trkpt><trkpt lat="44.9075233" lon="8.0267183"><ele>170.0</ele><time>2026-05-03T17:22:49.275Z</time></trkpt><trkpt lat="44.9076683" lon="8.0269683"><ele>170.0</ele><time>2026-05-03T17:22:50.275Z</time></trkpt><trkpt lat="44.9078117" lon="8.027215"><ele>170.0</ele><time>2026-05-03T17:22:51.275Z</time></trkpt><trkpt lat="44.90796" lon="8.0274583"><ele>169.0</ele><time>2026-05-03T17:22:52.275Z</time></trkpt><trkpt lat="44.9081017" lon="8.0277"><ele>168.0</ele><time>2026-05-03T17:22:53.275Z</time></trkpt><trkpt lat="44.908255" lon="8.0279383"><ele>168.0</ele><time>2026-05-03T17:22:54.276Z</time></trkpt><trkpt lat="44.908405" lon="8.0281783"><ele>168.0</ele><time>2026-05-03T17:22:55.275Z</time></trkpt><trkpt lat="44.90855" lon="8.0284133"><ele>168.0</ele><time>2026-05-03T17:22:56.276Z</time></trkpt><trkpt lat="44.9086833" lon="8.0286567"><ele>167.33333333333334</ele><time>2026-05-03T17:22:57.275Z</time></trkpt><trkpt lat="44.9088317" lon="8.0288917"><ele>166.66666666666669</ele><time>2026-05-03T17:22:58.275Z</time></trkpt><trkpt lat="44.9089733" lon="8.0291317"><ele>166.0</ele><time>2026-05-03T17:22:59.275Z</time></trkpt><trkpt lat="44.9091067" lon="8.02937"><ele>166.0</ele><time>2026-05-03T17:23:00.275Z</time></trkpt><trkpt lat="44.9092367" lon="8.0295967"><ele>166.0</ele><time>2026-05-03T17:23:01.275Z</time></trkpt><trkpt lat="44.90937" lon="8.029815"><ele>166.0</ele><time>2026-05-03T17:23:02.275Z</time></trkpt><trkpt lat="44.9095067" lon="8.03003"><ele>167.0</ele><time>2026-05-03T17:23:03.275Z</time></trkpt><trkpt lat="44.909635" lon="8.03024"><ele>168.0</ele><time>2026-05-03T17:23:04.275Z</time></trkpt><trkpt lat="44.9097617" lon="8.0304467"><ele>169.0</ele><time>2026-05-03T17:23:05.275Z</time></trkpt><trkpt lat="44.909875" lon="8.0306533"><ele>168.33333333333334</ele><time>2026-05-03T17:23:06.275Z</time></trkpt><trkpt lat="44.9099883" lon="8.03086"><ele>167.66666666666666</ele><time>2026-05-03T17:23:07.275Z</time></trkpt><trkpt lat="44.910105" lon="8.0310517"><ele>167.0</ele><time>2026-05-03T17:23:08.275Z</time></trkpt><trkpt lat="44.9102167" lon="8.03123"><ele>167.0</ele><time>2026-05-03T17:23:09.275Z</time></trkpt><trkpt lat="44.910325" lon="8.0314"><ele>167.0</ele><time>2026-05-03T17:23:10.275Z</time></trkpt><trkpt lat="44.9104217" lon="8.0315617"><ele>167.0</ele><time>2026-05-03T17:23:11.275Z</time></trkpt><trkpt lat="44.91051" lon="8.031715"><ele>167.0</ele><time>2026-05-03T17:23:12.275Z</time></trkpt><trkpt lat="44.9105883" lon="8.0318533"><ele>167.0</ele><time>2026-05-03T17:23:13.275Z</time></trkpt><trkpt lat="44.910665" lon="8.031985"><ele>167.0</ele><time>2026-05-03T17:23:14.275Z</time></trkpt><trkpt lat="44.9107317" lon="8.0321233"><ele>167.0</ele><time>2026-05-03T17:23:15.275Z</time></trkpt><trkpt lat="44.9108183" lon="8.032265"><ele>167.33333333333331</ele><time>2026-05-03T17:23:16.275Z</time></trkpt><trkpt lat="44.9109117" lon="8.0324017"><ele>167.66666666666666</ele><time>2026-05-03T17:23:17.275Z</time></trkpt><trkpt lat="44.9110183" lon="8.0325667"><ele>168.0</ele><time>2026-05-03T17:23:18.275Z</time></trkpt><trkpt lat="44.9111333" lon="8.0327617"><ele>168.0</ele><time>2026-05-03T17:23:19.275Z</time></trkpt><trkpt lat="44.9112467" lon="8.0329667"><ele>168.0</ele><time>2026-05-03T17:23:20.276Z</time></trkpt><trkpt lat="44.9113617" lon="8.0331633"><ele>168.0</ele><time>2026-05-03T17:23:21.276Z</time></trkpt><trkpt lat="44.91148" lon="8.03336"><ele>167.33333333333334</ele><time>2026-05-03T17:23:22.276Z</time></trkpt><trkpt lat="44.9116" lon="8.0335533"><ele>166.66666666666669</ele><time>2026-05-03T17:23:23.276Z</time></trkpt><trkpt lat="44.911715" lon="8.033755"><ele>166.0</ele><time>2026-05-03T17:23:24.275Z</time></trkpt><trkpt lat="44.9118367" lon="8.0339433"><ele>167.33333333333334</ele><time>2026-05-03T17:23:25.275Z</time></trkpt><trkpt lat="44.9119483" lon="8.0341383"><ele>168.66666666666666</ele><time>2026-05-03T17:23:26.275Z</time></trkpt><trkpt lat="44.912065" lon="8.0343267"><ele>170.0</ele><time>2026-05-03T17:23:27.275Z</time></trkpt><trkpt lat="44.912165" lon="8.0345033"><ele>170.0</ele><time>2026-05-03T17:23:28.275Z</time></trkpt><trkpt lat="44.9122583" lon="8.034675"><ele>170.0</ele><time>2026-05-03T17:23:29.275Z</time></trkpt><trkpt lat="44.9123483" lon="8.03483"><ele>170.0</ele><time>2026-05-03T17:23:30.275Z</time></trkpt><trkpt lat="44.9124467" lon="8.0349433"><ele>170.0</ele><time>2026-05-03T17:23:31.275Z</time></trkpt><trkpt lat="44.912555" lon="8.035035"><ele>170.8</ele><time>2026-05-03T17:23:32.275Z</time></trkpt><trkpt lat="44.9126567" lon="8.0351117"><ele>171.6</ele><time>2026-05-03T17:23:33.275Z</time></trkpt><trkpt lat="44.9127667" lon="8.03517"><ele>172.39999999999998</ele><time>2026-05-03T17:23:34.275Z</time></trkpt><trkpt lat="44.91287" lon="8.03524"><ele>173.2</ele><time>2026-05-03T17:23:35.275Z</time></trkpt><trkpt lat="44.9129517" lon="8.0353033"><ele>174.0</ele><time>2026-05-03T17:23:36.275Z</time></trkpt><trkpt lat="44.9130267" lon="8.0353383"><ele>174.0</ele><time>2026-05-03T17:23:37.275Z</time></trkpt><trkpt lat="44.9130983" lon="8.0353933"><ele>174.0</ele><time>2026-05-03T17:23:38.275Z</time></trkpt><trkpt lat="44.9131617" lon="8.0354667"><ele>174.0</ele><time>2026-05-03T17:23:39.275Z</time></trkpt><trkpt lat="44.9132217" lon="8.0355717"><ele>174.0</ele><time>2026-05-03T17:23:40.275Z</time></trkpt><trkpt lat="44.9132633" lon="8.0357"><ele>174.0</ele><time>2026-05-03T17:23:41.275Z</time></trkpt><trkpt lat="44.9133117" lon="8.03583"><ele>173.0</ele><time>2026-05-03T17:23:42.275Z</time></trkpt><trkpt lat="44.9133783" lon="8.03596"><ele>172.0</ele><time>2026-05-03T17:23:43.275Z</time></trkpt><trkpt lat="44.913455" lon="8.0360683"><ele>171.0</ele><time>2026-05-03T17:23:44.275Z</time></trkpt><trkpt lat="44.913535" lon="8.0361667"><ele>170.0</ele><time>2026-05-03T17:23:45.275Z</time></trkpt><trkpt lat="44.9136233" lon="8.0362533"><ele>169.0</ele><time>2026-05-03T17:23:46.275Z</time></trkpt><trkpt lat="44.9137167" lon="8.0362917"><ele>167.79999999999998</ele><time>2026-05-03T17:23:47.275Z</time></trkpt><trkpt lat="44.9138167" lon="8.0362767"><ele>166.6</ele><time>2026-05-03T17:23:48.275Z</time></trkpt><trkpt lat="44.91391" lon="8.036215"><ele>165.4</ele><time>2026-05-03T17:23:49.275Z</time></trkpt><trkpt lat="44.9139783" lon="8.036105"><ele>164.2</ele><time>2026-05-03T17:23:50.275Z</time></trkpt><trkpt lat="44.9140267" lon="8.03596"><ele>163.0</ele><time>2026-05-03T17:23:51.275Z</time></trkpt><trkpt lat="44.9140517" lon="8.03581"><ele>162.83333333333334</ele><time>2026-05-03T17:23:52.275Z</time></trkpt><trkpt lat="44.91408" lon="8.03567"><ele>162.66666666666669</ele><time>2026-05-03T17:23:53.275Z</time></trkpt><trkpt lat="44.9141283" lon="8.0355667"><ele>162.5</ele><time>2026-05-03T17:23:54.275Z</time></trkpt><trkpt lat="44.9141983" lon="8.035495"><ele>162.33333333333334</ele><time>2026-05-03T17:23:55.275Z</time></trkpt><trkpt lat="44.91427" lon="8.0354583"><ele>162.16666666666666</ele><time>2026-05-03T17:23:56.275Z</time></trkpt><trkpt lat="44.9143317" lon="8.0354817"><ele>162.0</ele><time>2026-05-03T17:23:57.275Z</time></trkpt><trkpt lat="44.914385" lon="8.0355333"><ele>162.0</ele><time>2026-05-03T17:23:58.275Z</time></trkpt><trkpt lat="44.9144167" lon="8.0356633"><ele>162.0</ele><time>2026-05-03T17:24:00.275Z</time></trkpt><trkpt lat="44.914385" lon="8.0357483"><ele>162.0</ele><time>2026-05-03T17:24:01.275Z</time></trkpt><trkpt lat="44.9143467" lon="8.035865"><ele>162.0</ele><time>2026-05-03T17:24:02.275Z</time></trkpt><trkpt lat="44.914265" lon="8.036005"><ele>162.0</ele><time>2026-05-03T17:24:03.276Z</time></trkpt><trkpt lat="44.9141583" lon="8.036165"><ele>162.33333333333334</ele><time>2026-05-03T17:24:04.275Z</time></trkpt><trkpt lat="44.9140367" lon="8.03634"><ele>162.66666666666669</ele><time>2026-05-03T17:24:05.275Z</time></trkpt><trkpt lat="44.9139333" lon="8.0364917"><ele>163.0</ele><time>2026-05-03T17:24:06.275Z</time></trkpt><trkpt lat="44.9138383" lon="8.0366317"><ele>162.75</ele><time>2026-05-03T17:24:07.275Z</time></trkpt><trkpt lat="44.913745" lon="8.0367783"><ele>162.5</ele><time>2026-05-03T17:24:08.275Z</time></trkpt><trkpt lat="44.9136567" lon="8.0369183"><ele>162.25</ele><time>2026-05-03T17:24:09.276Z</time></trkpt><trkpt lat="44.9135667" lon="8.0370383"><ele>162.0</ele><time>2026-05-03T17:24:10.276Z</time></trkpt><trkpt lat="44.9134933" lon="8.03714"><ele>162.0</ele><time>2026-05-03T17:24:11.275Z</time></trkpt><trkpt lat="44.9134283" lon="8.0372433"><ele>162.0</ele><time>2026-05-03T17:24:12.276Z</time></trkpt><trkpt lat="44.9133817" lon="8.0373383"><ele>162.0</ele><time>2026-05-03T17:24:13.275Z</time></trkpt><trkpt lat="44.9133617" lon="8.037425"><ele>162.0</ele><time>2026-05-03T17:24:14.275Z</time></trkpt><trkpt lat="44.913395" lon="8.037555"><ele>162.0</ele><time>2026-05-03T17:24:16.276Z</time></trkpt><trkpt lat="44.9134783" lon="8.03763"><ele>162.0</ele><time>2026-05-03T17:24:18.275Z</time></trkpt><trkpt lat="44.9135833" lon="8.0376383"><ele>161.66666666666666</ele><time>2026-05-03T17:24:20.275Z</time></trkpt><trkpt lat="44.91365" lon="8.03772"><ele>161.33333333333334</ele><time>2026-05-03T17:24:22.276Z</time></trkpt><trkpt lat="44.9136217" lon="8.03783"><ele>161.0</ele><time>2026-05-03T17:24:24.275Z</time></trkpt><trkpt lat="44.9135967" lon="8.037925"><ele>160.66666666666669</ele><time>2026-05-03T17:24:26.275Z</time></trkpt><trkpt lat="44.9135817" lon="8.0380133"><ele>160.33333333333334</ele><time>2026-05-03T17:31:20.275Z</time></trkpt><trkpt lat="44.91352" lon="8.037975"><ele>160.0</ele><time>2026-05-03T17:31:23.275Z</time></trkpt><trkpt lat="44.9134933" lon="8.0378467"><ele>160.0</ele><time>2026-05-03T17:31:26.276Z</time></trkpt><trkpt lat="44.9135183" lon="8.03773"><ele>160.0</ele><time>2026-05-03T17:31:28.275Z</time></trkpt><trkpt lat="44.913515" lon="8.037585"><ele>160.0</ele><time>2026-05-03T17:31:30.275Z</time></trkpt><trkpt lat="44.9134933" lon="8.0374833"><ele>160.0</ele><time>2026-05-03T17:31:32.276Z</time></trkpt><trkpt lat="44.9134617" lon="8.03739"><ele>160.0</ele><time>2026-05-03T17:31:35.275Z</time></trkpt><trkpt lat="44.9134767" lon="8.0372483"><ele>160.0</ele><time>2026-05-03T17:31:37.276Z</time></trkpt><trkpt lat="44.91352" lon="8.0371567"><ele>160.5</ele><time>2026-05-03T17:31:38.275Z</time></trkpt><trkpt lat="44.913585" lon="8.0370483"><ele>161.0</ele><time>2026-05-03T17:31:39.275Z</time></trkpt><trkpt lat="44.9136733" lon="8.0369233"><ele>161.5</ele><time>2026-05-03T17:31:40.275Z</time></trkpt><trkpt lat="44.9137667" lon="8.0367817"><ele>162.0</ele><time>2026-05-03T17:31:41.275Z</time></trkpt><trkpt lat="44.913865" lon="8.0366583"><ele>162.25</ele><time>2026-05-03T17:31:42.275Z</time></trkpt><trkpt lat="44.9139583" lon="8.0365317"><ele>162.5</ele><time>2026-05-03T17:31:43.275Z</time></trkpt><trkpt lat="44.9140367" lon="8.036395"><ele>162.75</ele><time>2026-05-03T17:31:44.275Z</time></trkpt><trkpt lat="44.9141217" lon="8.0362717"><ele>163.0</ele><time>2026-05-03T17:31:45.276Z</time></trkpt><trkpt lat="44.9142117" lon="8.03614"><ele>162.75</ele><time>2026-05-03T17:31:46.275Z</time></trkpt><trkpt lat="44.9143" lon="8.0359917"><ele>162.5</ele><time>2026-05-03T17:31:47.275Z</time></trkpt><trkpt lat="44.914385" lon="8.035835"><ele>162.25</ele><time>2026-05-03T17:31:48.275Z</time></trkpt><trkpt lat="44.9144833" lon="8.035695"><ele>162.0</ele><time>2026-05-03T17:31:49.275Z</time></trkpt><trkpt lat="44.9145783" lon="8.035535"><ele>162.0</ele><time>2026-05-03T17:31:50.276Z</time></trkpt><trkpt lat="44.9146633" lon="8.0353683"><ele>162.0</ele><time>2026-05-03T17:31:51.275Z</time></trkpt><trkpt lat="44.914745" lon="8.03521"><ele>162.0</ele><time>2026-05-03T17:31:52.275Z</time></trkpt><trkpt lat="44.914835" lon="8.035055"><ele>162.0</ele><time>2026-05-03T17:31:53.275Z</time></trkpt><trkpt lat="44.914925" lon="8.0348983"><ele>162.25</ele><time>2026-05-03T17:31:54.276Z</time></trkpt><trkpt lat="44.9150067" lon="8.0347317"><ele>162.5</ele><time>2026-05-03T17:31:55.275Z</time></trkpt><trkpt lat="44.9150817" lon="8.03456"><ele>162.75</ele><time>2026-05-03T17:31:56.275Z</time></trkpt><trkpt lat="44.9151483" lon="8.03439"><ele>163.0</ele><time>2026-05-03T17:31:57.275Z</time></trkpt><trkpt lat="44.9152217" lon="8.03424"><ele>163.0</ele><time>2026-05-03T17:31:58.275Z</time></trkpt><trkpt lat="44.9152983" lon="8.034085"><ele>163.0</ele><time>2026-05-03T17:31:59.275Z</time></trkpt><trkpt lat="44.915375" lon="8.0339333"><ele>163.0</ele><time>2026-05-03T17:32:00.275Z</time></trkpt><trkpt lat="44.915445" lon="8.0337917"><ele>163.0</ele><time>2026-05-03T17:32:01.275Z</time></trkpt><trkpt lat="44.91551" lon="8.03365"><ele>163.0</ele><time>2026-05-03T17:32:02.276Z</time></trkpt><trkpt lat="44.91557" lon="8.0335183"><ele>163.0</ele><time>2026-05-03T17:32:03.275Z</time></trkpt><trkpt lat="44.9156367" lon="8.0333933"><ele>163.0</ele><time>2026-05-03T17:32:04.275Z</time></trkpt><trkpt lat="44.9157017" lon="8.0332633"><ele>163.0</ele><time>2026-05-03T17:32:05.275Z</time></trkpt><trkpt lat="44.9157583" lon="8.0331467"><ele>163.0</ele><time>2026-05-03T17:32:06.275Z</time></trkpt><trkpt lat="44.915815" lon="8.0330383"><ele>163.0</ele><time>2026-05-03T17:32:07.275Z</time></trkpt><trkpt lat="44.91587" lon="8.032935"><ele>163.0</ele><time>2026-05-03T17:32:08.275Z</time></trkpt><trkpt lat="44.9159283" lon="8.0328367"><ele>163.0</ele><time>2026-05-03T17:32:09.275Z</time></trkpt><trkpt lat="44.9159883" lon="8.0327567"><ele>163.0</ele><time>2026-05-03T17:32:10.275Z</time></trkpt><trkpt lat="44.9160517" lon="8.0326917"><ele>163.0</ele><time>2026-05-03T17:32:11.275Z</time></trkpt><trkpt lat="44.9161333" lon="8.0326317"><ele>163.0</ele><time>2026-05-03T17:32:12.275Z</time></trkpt><trkpt lat="44.916225" lon="8.0325883"><ele>163.0</ele><time>2026-05-03T17:32:13.275Z</time></trkpt><trkpt lat="44.916325" lon="8.03257"><ele>163.0</ele><time>2026-05-03T17:32:14.275Z</time></trkpt><trkpt lat="44.916415" lon="8.0325883"><ele>163.0</ele><time>2026-05-03T17:32:15.275Z</time></trkpt><trkpt lat="44.9164967" lon="8.0326533"><ele>163.0</ele><time>2026-05-03T17:32:16.275Z</time></trkpt><trkpt lat="44.9165583" lon="8.0327567"><ele>163.0</ele><time>2026-05-03T17:32:17.275Z</time></trkpt><trkpt lat="44.916585" lon="8.0328967"><ele>163.0</ele><time>2026-05-03T17:32:18.275Z</time></trkpt><trkpt lat="44.9165667" lon="8.0330317"><ele>163.0</ele><time>2026-05-03T17:32:19.275Z</time></trkpt><trkpt lat="44.9164967" lon="8.033155"><ele>163.0</ele><time>2026-05-03T17:32:20.275Z</time></trkpt><trkpt lat="44.9163967" lon="8.0332467"><ele>163.0</ele><time>2026-05-03T17:32:21.275Z</time></trkpt><trkpt lat="44.9162783" lon="8.0333317"><ele>163.0</ele><time>2026-05-03T17:32:22.275Z</time></trkpt><trkpt lat="44.9161633" lon="8.0334167"><ele>163.0</ele><time>2026-05-03T17:32:23.275Z</time></trkpt><trkpt lat="44.916055" lon="8.0335167"><ele>163.0</ele><time>2026-05-03T17:32:24.275Z</time></trkpt><trkpt lat="44.9159583" lon="8.0336517"><ele>163.0</ele><time>2026-05-03T17:32:25.275Z</time></trkpt><trkpt lat="44.9158683" lon="8.03381"><ele>163.0</ele><time>2026-05-03T17:32:26.275Z</time></trkpt><trkpt lat="44.9157917" lon="8.0339767"><ele>163.0</ele><time>2026-05-03T17:32:27.275Z</time></trkpt><trkpt lat="44.9157183" lon="8.0341417"><ele>163.0</ele><time>2026-05-03T17:32:28.275Z</time></trkpt><trkpt lat="44.915645" lon="8.0343033"><ele>163.0</ele><time>2026-05-03T17:32:29.275Z</time></trkpt><trkpt lat="44.9155867" lon="8.0344567"><ele>162.5</ele><time>2026-05-03T17:32:30.276Z</time></trkpt><trkpt lat="44.9155417" lon="8.0346117"><ele>162.0</ele><time>2026-05-03T17:32:31.276Z</time></trkpt><trkpt lat="44.91553" lon="8.0347667"><ele>161.5</ele><time>2026-05-03T17:32:32.275Z</time></trkpt><trkpt lat="44.9155533" lon="8.0349317"><ele>161.0</ele><time>2026-05-03T17:32:33.275Z</time></trkpt><trkpt lat="44.9156183" lon="8.0350767"><ele>161.0</ele><time>2026-05-03T17:32:34.276Z</time></trkpt><trkpt lat="44.9157117" lon="8.03521"><ele>161.0</ele><time>2026-05-03T17:32:35.275Z</time></trkpt><trkpt lat="44.91583" lon="8.0353267"><ele>161.0</ele><time>2026-05-03T17:32:36.275Z</time></trkpt><trkpt lat="44.9159517" lon="8.0354417"><ele>161.0</ele><time>2026-05-03T17:32:37.275Z</time></trkpt><trkpt lat="44.9160917" lon="8.03555"><ele>160.33333333333331</ele><time>2026-05-03T17:32:38.275Z</time></trkpt><trkpt lat="44.91624" lon="8.03566"><ele>159.66666666666666</ele><time>2026-05-03T17:32:39.275Z</time></trkpt><trkpt lat="44.9164033" lon="8.0357433"><ele>159.0</ele><time>2026-05-03T17:32:40.275Z</time></trkpt><trkpt lat="44.916585" lon="8.0358117"><ele>159.0</ele><time>2026-05-03T17:32:41.276Z</time></trkpt><trkpt lat="44.9167717" lon="8.0358867"><ele>159.0</ele><time>2026-05-03T17:32:42.275Z</time></trkpt><trkpt lat="44.916965" lon="8.0359583"><ele>159.0</ele><time>2026-05-03T17:32:43.276Z</time></trkpt><trkpt lat="44.9171633" lon="8.0360183"><ele>159.0</ele><time>2026-05-03T17:32:44.276Z</time></trkpt><trkpt lat="44.9173683" lon="8.0360883"><ele>159.0</ele><time>2026-05-03T17:32:45.275Z</time></trkpt><trkpt lat="44.9175717" lon="8.0361583"><ele>159.0</ele><time>2026-05-03T17:32:46.275Z</time></trkpt><trkpt lat="44.917785" lon="8.0362217"><ele>157.5</ele><time>2026-05-03T17:32:47.275Z</time></trkpt><trkpt lat="44.918005" lon="8.03629"><ele>156.0</ele><time>2026-05-03T17:32:48.275Z</time></trkpt><trkpt lat="44.9182283" lon="8.0363633"><ele>156.0</ele><time>2026-05-03T17:32:49.276Z</time></trkpt><trkpt lat="44.91846" lon="8.03643"><ele>156.0</ele><time>2026-05-03T17:32:50.275Z</time></trkpt><trkpt lat="44.9186883" lon="8.0364983"><ele>156.0</ele><time>2026-05-03T17:32:51.276Z</time></trkpt><trkpt lat="44.9189233" lon="8.0365567"><ele>156.0</ele><time>2026-05-03T17:32:52.275Z</time></trkpt><trkpt lat="44.9191533" lon="8.03662"><ele>155.66666666666666</ele><time>2026-05-03T17:32:53.276Z</time></trkpt><trkpt lat="44.9193717" lon="8.036675"><ele>155.33333333333331</ele><time>2026-05-03T17:32:54.275Z</time></trkpt><trkpt lat="44.9195883" lon="8.0367317"><ele>155.0</ele><time>2026-05-03T17:32:55.275Z</time></trkpt><trkpt lat="44.91981" lon="8.0367867"><ele>155.0</ele><time>2026-05-03T17:32:56.275Z</time></trkpt><trkpt lat="44.9200233" lon="8.03684"><ele>155.0</ele><time>2026-05-03T17:32:57.275Z</time></trkpt><trkpt lat="44.9202233" lon="8.03689"><ele>155.0</ele><time>2026-05-03T17:32:58.275Z</time></trkpt><trkpt lat="44.9204183" lon="8.03694"><ele>155.66666666666666</ele><time>2026-05-03T17:32:59.275Z</time></trkpt><trkpt lat="44.9205967" lon="8.0369833"><ele>156.33333333333334</ele><time>2026-05-03T17:33:00.275Z</time></trkpt><trkpt lat="44.92077" lon="8.0370183"><ele>157.0</ele><time>2026-05-03T17:33:01.275Z</time></trkpt><trkpt lat="44.9209433" lon="8.0370133"><ele>158.33333333333334</ele><time>2026-05-03T17:33:02.275Z</time></trkpt><trkpt lat="44.9211083" lon="8.036955"><ele>159.66666666666666</ele><time>2026-05-03T17:33:03.275Z</time></trkpt><trkpt lat="44.9212717" lon="8.0368383"><ele>161.0</ele><time>2026-05-03T17:33:04.275Z</time></trkpt><trkpt lat="44.9214233" lon="8.0366717"><ele>160.33333333333331</ele><time>2026-05-03T17:33:05.275Z</time></trkpt><trkpt lat="44.9215683" lon="8.0364867"><ele>159.66666666666666</ele><time>2026-05-03T17:33:06.275Z</time></trkpt><trkpt lat="44.92172" lon="8.0362833"><ele>159.0</ele><time>2026-05-03T17:33:07.275Z</time></trkpt><trkpt lat="44.9218667" lon="8.0360817"><ele>160.66666666666666</ele><time>2026-05-03T17:33:08.276Z</time></trkpt><trkpt lat="44.9220183" lon="8.0358833"><ele>162.33333333333331</ele><time>2026-05-03T17:33:09.276Z</time></trkpt><trkpt lat="44.922175" lon="8.035675"><ele>164.0</ele><time>2026-05-03T17:33:10.275Z</time></trkpt><trkpt lat="44.9223333" lon="8.0354633"><ele>164.0</ele><time>2026-05-03T17:33:11.275Z</time></trkpt><trkpt lat="44.9224983" lon="8.03525"><ele>164.0</ele><time>2026-05-03T17:33:12.275Z</time></trkpt><trkpt lat="44.92266" lon="8.03504"><ele>164.0</ele><time>2026-05-03T17:33:13.275Z</time></trkpt><trkpt lat="44.92282" lon="8.034825"><ele>162.66666666666666</ele><time>2026-05-03T17:33:14.276Z</time></trkpt><trkpt lat="44.9229817" lon="8.0346183"><ele>161.33333333333334</ele><time>2026-05-03T17:33:15.275Z</time></trkpt><trkpt lat="44.923135" lon="8.0344083"><ele>160.0</ele><time>2026-05-03T17:33:16.275Z</time></trkpt><trkpt lat="44.9232933" lon="8.0341983"><ele>160.66666666666669</ele><time>2026-05-03T17:33:17.275Z</time></trkpt><trkpt lat="44.9234533" lon="8.0339833"><ele>161.33333333333334</ele><time>2026-05-03T17:33:18.275Z</time></trkpt><trkpt lat="44.9236183" lon="8.0337883"><ele>162.0</ele><time>2026-05-03T17:33:19.275Z</time></trkpt><trkpt lat="44.9238017" lon="8.0336217"><ele>162.0</ele><time>2026-05-03T17:33:20.276Z</time></trkpt><trkpt lat="44.9240033" lon="8.0334817"><ele>162.0</ele><time>2026-05-03T17:33:21.275Z</time></trkpt><trkpt lat="44.9242183" lon="8.0333617"><ele>162.5</ele><time>2026-05-03T17:33:22.275Z</time></trkpt><trkpt lat="44.9244433" lon="8.0332483"><ele>163.0</ele><time>2026-05-03T17:33:23.275Z</time></trkpt><trkpt lat="44.9246733" lon="8.033135"><ele>163.0</ele><time>2026-05-03T17:33:24.275Z</time></trkpt><trkpt lat="44.9249067" lon="8.0330217"><ele>163.0</ele><time>2026-05-03T17:33:25.275Z</time></trkpt><trkpt lat="44.9251367" lon="8.0329067"><ele>165.5</ele><time>2026-05-03T17:33:26.275Z</time></trkpt><trkpt lat="44.9253633" lon="8.0327967"><ele>168.0</ele><time>2026-05-03T17:33:27.275Z</time></trkpt><trkpt lat="44.925595" lon="8.0326783"><ele>168.0</ele><time>2026-05-03T17:33:28.276Z</time></trkpt><trkpt lat="44.9258233" lon="8.0325667"><ele>168.0</ele><time>2026-05-03T17:33:29.275Z</time></trkpt><trkpt lat="44.9260467" lon="8.0324483"><ele>165.5</ele><time>2026-05-03T17:33:30.275Z</time></trkpt><trkpt lat="44.92627" lon="8.0323367"><ele>163.0</ele><time>2026-05-03T17:33:31.275Z</time></trkpt><trkpt lat="44.9264883" lon="8.032195"><ele>163.0</ele><time>2026-05-03T17:33:32.276Z</time></trkpt><trkpt lat="44.9266917" lon="8.0320333"><ele>163.0</ele><time>2026-05-03T17:33:33.275Z</time></trkpt><trkpt lat="44.9268917" lon="8.0318483"><ele>164.0</ele><time>2026-05-03T17:33:34.275Z</time></trkpt><trkpt lat="44.9270883" lon="8.0316517"><ele>165.0</ele><time>2026-05-03T17:33:35.275Z</time></trkpt><trkpt lat="44.9272867" lon="8.0314417"><ele>163.5</ele><time>2026-05-03T17:33:36.275Z</time></trkpt><trkpt lat="44.9274867" lon="8.031245"><ele>162.0</ele><time>2026-05-03T17:33:37.275Z</time></trkpt><trkpt lat="44.9276917" lon="8.03104"><ele>162.0</ele><time>2026-05-03T17:33:38.275Z</time></trkpt><trkpt lat="44.92789" lon="8.030835"><ele>162.0</ele><time>2026-05-03T17:33:39.275Z</time></trkpt><trkpt lat="44.9280933" lon="8.0306233"><ele>161.0</ele><time>2026-05-03T17:33:40.275Z</time></trkpt><trkpt lat="44.9282917" lon="8.03041"><ele>160.0</ele><time>2026-05-03T17:33:41.275Z</time></trkpt><trkpt lat="44.9284817" lon="8.030195"><ele>159.5</ele><time>2026-05-03T17:33:42.275Z</time></trkpt><trkpt lat="44.92867" lon="8.0299767"><ele>159.0</ele><time>2026-05-03T17:33:43.275Z</time></trkpt><trkpt lat="44.92886" lon="8.0297467"><ele>158.5</ele><time>2026-05-03T17:33:44.275Z</time></trkpt><trkpt lat="44.929045" lon="8.02953"><ele>158.0</ele><time>2026-05-03T17:33:45.276Z</time></trkpt><trkpt lat="44.9292333" lon="8.0293017"><ele>159.0</ele><time>2026-05-03T17:33:46.276Z</time></trkpt><trkpt lat="44.9294167" lon="8.02908"><ele>160.0</ele><time>2026-05-03T17:33:47.275Z</time></trkpt><trkpt lat="44.9296067" lon="8.0288617"><ele>160.0</ele><time>2026-05-03T17:33:48.275Z</time></trkpt><trkpt lat="44.9297967" lon="8.0286383"><ele>160.0</ele><time>2026-05-03T17:33:49.275Z</time></trkpt><trkpt lat="44.9299883" lon="8.0284217"><ele>161.5</ele><time>2026-05-03T17:33:50.275Z</time></trkpt><trkpt lat="44.930185" lon="8.02821"><ele>163.0</ele><time>2026-05-03T17:33:51.275Z</time></trkpt><trkpt lat="44.930385" lon="8.0280217"><ele>163.0</ele><time>2026-05-03T17:33:52.275Z</time></trkpt><trkpt lat="44.930595" lon="8.0278417"><ele>163.0</ele><time>2026-05-03T17:33:53.275Z</time></trkpt><trkpt lat="44.9308117" lon="8.02769"><ele>163.5</ele><time>2026-05-03T17:33:54.275Z</time></trkpt><trkpt lat="44.9310333" lon="8.027545"><ele>164.0</ele><time>2026-05-03T17:33:55.275Z</time></trkpt><trkpt lat="44.931265" lon="8.0273883"><ele>164.0</ele><time>2026-05-03T17:33:56.275Z</time></trkpt><trkpt lat="44.9314967" lon="8.0272167"><ele>164.0</ele><time>2026-05-03T17:33:57.276Z</time></trkpt><trkpt lat="44.931725" lon="8.027055"><ele>165.5</ele><time>2026-05-03T17:33:58.275Z</time></trkpt><trkpt lat="44.931965" lon="8.0268917"><ele>167.0</ele><time>2026-05-03T17:33:59.276Z</time></trkpt><trkpt lat="44.93221" lon="8.0267167"><ele>167.5</ele><time>2026-05-03T17:34:00.275Z</time></trkpt><trkpt lat="44.9324467" lon="8.0265433"><ele>168.0</ele><time>2026-05-03T17:34:01.275Z</time></trkpt><trkpt lat="44.9326867" lon="8.0263817"><ele>168.0</ele><time>2026-05-03T17:34:02.275Z</time></trkpt><trkpt lat="44.9329133" lon="8.0262283"><ele>168.0</ele><time>2026-05-03T17:34:03.275Z</time></trkpt><trkpt lat="44.9331517" lon="8.0260583"><ele>169.5</ele><time>2026-05-03T17:34:04.275Z</time></trkpt><trkpt lat="44.9333917" lon="8.0258967"><ele>171.0</ele><time>2026-05-03T17:34:05.275Z</time></trkpt><trkpt lat="44.9336233" lon="8.0257317"><ele>171.0</ele><time>2026-05-03T17:34:06.275Z</time></trkpt><trkpt lat="44.93386" lon="8.025565"><ele>171.0</ele><time>2026-05-03T17:34:07.276Z</time></trkpt><trkpt lat="44.93409" lon="8.025395"><ele>171.0</ele><time>2026-05-03T17:34:08.275Z</time></trkpt><trkpt lat="44.93432" lon="8.0252283"><ele>171.0</ele><time>2026-05-03T17:34:09.275Z</time></trkpt><trkpt lat="44.9345533" lon="8.025065"><ele>170.0</ele><time>2026-05-03T17:34:10.275Z</time></trkpt><trkpt lat="44.9347933" lon="8.024895"><ele>169.0</ele><time>2026-05-03T17:34:11.275Z</time></trkpt><trkpt lat="44.9350283" lon="8.0247333"><ele>168.5</ele><time>2026-05-03T17:34:12.275Z</time></trkpt><trkpt lat="44.9352617" lon="8.0245817"><ele>168.0</ele><time>2026-05-03T17:34:13.275Z</time></trkpt><trkpt lat="44.9354967" lon="8.02443"><ele>168.0</ele><time>2026-05-03T17:34:14.275Z</time></trkpt><trkpt lat="44.9357367" lon="8.0242833"><ele>168.0</ele><time>2026-05-03T17:34:15.276Z</time></trkpt><trkpt lat="44.935985" lon="8.0241483"><ele>168.0</ele><time>2026-05-03T17:34:16.275Z</time></trkpt><trkpt lat="44.9362267" lon="8.0240233"><ele>168.0</ele><time>2026-05-03T17:34:17.275Z</time></trkpt><trkpt lat="44.936475" lon="8.0238967"><ele>167.0</ele><time>2026-05-03T17:34:18.275Z</time></trkpt><trkpt lat="44.93672" lon="8.0237833"><ele>166.0</ele><time>2026-05-03T17:34:19.275Z</time></trkpt><trkpt lat="44.936945" lon="8.0236683"><ele>166.0</ele><time>2026-05-03T17:34:20.276Z</time></trkpt><trkpt lat="44.937175" lon="8.0235483"><ele>166.0</ele><time>2026-05-03T17:34:21.275Z</time></trkpt><trkpt lat="44.9373983" lon="8.02344"><ele>166.66666666666669</ele><time>2026-05-03T17:34:22.275Z</time></trkpt><trkpt lat="44.9376033" lon="8.0233367"><ele>167.33333333333334</ele><time>2026-05-03T17:34:23.275Z</time></trkpt><trkpt lat="44.9377983" lon="8.023235"><ele>168.0</ele><time>2026-05-03T17:34:24.275Z</time></trkpt><trkpt lat="44.937985" lon="8.0231417"><ele>168.0</ele><time>2026-05-03T17:34:25.275Z</time></trkpt><trkpt lat="44.9381567" lon="8.0230567"><ele>168.0</ele><time>2026-05-03T17:34:26.275Z</time></trkpt><trkpt lat="44.9383233" lon="8.0229733"><ele>168.0</ele><time>2026-05-03T17:34:27.275Z</time></trkpt><trkpt lat="44.9384667" lon="8.0229017"><ele>168.60000000000002</ele><time>2026-05-03T17:34:28.275Z</time></trkpt><trkpt lat="44.9385917" lon="8.0228333"><ele>169.20000000000002</ele><time>2026-05-03T17:34:29.275Z</time></trkpt><trkpt lat="44.9387067" lon="8.02278"><ele>169.8</ele><time>2026-05-03T17:34:30.275Z</time></trkpt><trkpt lat="44.938795" lon="8.0227383"><ele>170.4</ele><time>2026-05-03T17:34:31.276Z</time></trkpt><trkpt lat="44.9388733" lon="8.0227217"><ele>171.0</ele><time>2026-05-03T17:34:32.275Z</time></trkpt><trkpt lat="44.9389833" lon="8.02279"><ele>171.0</ele><time>2026-05-03T17:34:34.276Z</time></trkpt><trkpt lat="44.9390467" lon="8.0228633"><ele>171.0</ele><time>2026-05-03T17:34:35.275Z</time></trkpt><trkpt lat="44.9391067" lon="8.02295"><ele>171.0</ele><time>2026-05-03T17:34:36.275Z</time></trkpt><trkpt lat="44.9391783" lon="8.0230383"><ele>171.0</ele><time>2026-05-03T17:34:37.276Z</time></trkpt><trkpt lat="44.939265" lon="8.0231367"><ele>171.0</ele><time>2026-05-03T17:34:38.276Z</time></trkpt><trkpt lat="44.9393517" lon="8.0232417"><ele>173.25</ele><time>2026-05-03T17:34:39.275Z</time></trkpt><trkpt lat="44.93944" lon="8.0233533"><ele>175.5</ele><time>2026-05-03T17:34:40.275Z</time></trkpt><trkpt lat="44.93953" lon="8.0234683"><ele>177.75</ele><time>2026-05-03T17:34:41.275Z</time></trkpt><trkpt lat="44.9396267" lon="8.0235767"><ele>180.0</ele><time>2026-05-03T17:34:42.275Z</time></trkpt><trkpt lat="44.93972" lon="8.023685"><ele>180.0</ele><time>2026-05-03T17:34:43.275Z</time></trkpt><trkpt lat="44.939815" lon="8.0238017"><ele>180.0</ele><time>2026-05-03T17:34:44.275Z</time></trkpt><trkpt lat="44.9399117" lon="8.0239283"><ele>180.0</ele><time>2026-05-03T17:34:45.275Z</time></trkpt><trkpt lat="44.94" lon="8.024065"><ele>180.0</ele><time>2026-05-03T17:34:46.276Z</time></trkpt><trkpt lat="44.9400717" lon="8.0242117"><ele>182.25</ele><time>2026-05-03T17:34:47.276Z</time></trkpt><trkpt lat="44.940135" lon="8.0243583"><ele>184.5</ele><time>2026-05-03T17:34:48.275Z</time></trkpt><trkpt lat="44.940205" lon="8.0244767"><ele>186.75</ele><time>2026-05-03T17:34:49.275Z</time></trkpt><trkpt lat="44.9402867" lon="8.024575"><ele>189.0</ele><time>2026-05-03T17:34:50.276Z</time></trkpt><trkpt lat="44.940395" lon="8.0246467"><ele>189.0</ele><time>2026-05-03T17:34:51.275Z</time></trkpt><trkpt lat="44.9405133" lon="8.0246867"><ele>189.0</ele><time>2026-05-03T17:34:52.275Z</time></trkpt><trkpt lat="44.94064" lon="8.02473"><ele>189.0</ele><time>2026-05-03T17:34:53.275Z</time></trkpt><trkpt lat="44.940755" lon="8.0248033"><ele>189.0</ele><time>2026-05-03T17:34:54.275Z</time></trkpt><trkpt lat="44.9408683" lon="8.02489"><ele>190.25</ele><time>2026-05-03T17:34:55.276Z</time></trkpt><trkpt lat="44.940975" lon="8.0249967"><ele>191.5</ele><time>2026-05-03T17:34:56.275Z</time></trkpt><trkpt lat="44.9410817" lon="8.0251117"><ele>192.75</ele><time>2026-05-03T17:34:57.275Z</time></trkpt><trkpt lat="44.9411833" lon="8.025235"><ele>194.0</ele><time>2026-05-03T17:34:58.275Z</time></trkpt><trkpt lat="44.9412683" lon="8.0253683"><ele>194.0</ele><time>2026-05-03T17:34:59.276Z</time></trkpt><trkpt lat="44.94134" lon="8.0255117"><ele>194.0</ele><time>2026-05-03T17:35:00.275Z</time></trkpt><trkpt lat="44.9414017" lon="8.02567"><ele>194.0</ele><time>2026-05-03T17:35:01.275Z</time></trkpt><trkpt lat="44.94145" lon="8.0258417"><ele>194.0</ele><time>2026-05-03T17:35:02.275Z</time></trkpt><trkpt lat="44.941495" lon="8.026025"><ele>196.0</ele><time>2026-05-03T17:35:03.275Z</time></trkpt><trkpt lat="44.9415333" lon="8.0262117"><ele>198.0</ele><time>2026-05-03T17:35:04.275Z</time></trkpt><trkpt lat="44.94157" lon="8.0263933"><ele>200.0</ele><time>2026-05-03T17:35:05.275Z</time></trkpt><trkpt lat="44.9416083" lon="8.0265733"><ele>202.0</ele><time>2026-05-03T17:35:06.275Z</time></trkpt><trkpt lat="44.9416533" lon="8.0267333"><ele>203.0</ele><time>2026-05-03T17:35:07.276Z</time></trkpt><trkpt lat="44.9417083" lon="8.0268633"><ele>204.0</ele><time>2026-05-03T17:35:08.275Z</time></trkpt><trkpt lat="44.941795" lon="8.0269733"><ele>205.0</ele><time>2026-05-03T17:35:09.275Z</time></trkpt><trkpt lat="44.9419083" lon="8.0270433"><ele>206.0</ele><time>2026-05-03T17:35:10.275Z</time></trkpt><trkpt lat="44.9420317" lon="8.0270883"><ele>207.75</ele><time>2026-05-03T17:35:11.275Z</time></trkpt><trkpt lat="44.9421617" lon="8.0271317"><ele>209.5</ele><time>2026-05-03T17:35:12.275Z</time></trkpt><trkpt lat="44.94229" lon="8.02718"><ele>211.25</ele><time>2026-05-03T17:35:13.275Z</time></trkpt><trkpt lat="44.9424183" lon="8.0272483"><ele>213.0</ele><time>2026-05-03T17:35:14.275Z</time></trkpt><trkpt lat="44.9425417" lon="8.0273233"><ele>212.5</ele><time>2026-05-03T17:35:15.275Z</time></trkpt><trkpt lat="44.9426617" lon="8.0274067"><ele>212.0</ele><time>2026-05-03T17:35:16.275Z</time></trkpt><trkpt lat="44.94278" lon="8.02748"><ele>211.5</ele><time>2026-05-03T17:35:17.275Z</time></trkpt><trkpt lat="44.9429067" lon="8.0275567"><ele>211.0</ele><time>2026-05-03T17:35:18.275Z</time></trkpt><trkpt lat="44.9430367" lon="8.0276217"><ele>213.5</ele><time>2026-05-03T17:35:19.275Z</time></trkpt><trkpt lat="44.94317" lon="8.0276733"><ele>216.0</ele><time>2026-05-03T17:35:20.275Z</time></trkpt><trkpt lat="44.9433" lon="8.0277167"><ele>218.5</ele><time>2026-05-03T17:35:21.275Z</time></trkpt><trkpt lat="44.94344" lon="8.0277517"><ele>221.0</ele><time>2026-05-03T17:35:22.276Z</time></trkpt><trkpt lat="44.94358" lon="8.0277817"><ele>223.33333333333334</ele><time>2026-05-03T17:35:23.275Z</time></trkpt><trkpt lat="44.9437267" lon="8.0278117"><ele>225.66666666666669</ele><time>2026-05-03T17:35:24.276Z</time></trkpt><trkpt lat="44.9438817" lon="8.0278417"><ele>228.0</ele><time>2026-05-03T17:35:25.276Z</time></trkpt><trkpt lat="44.94404" lon="8.027865"><ele>228.0</ele><time>2026-05-03T17:35:26.276Z</time></trkpt><trkpt lat="44.9442067" lon="8.0278883"><ele>228.0</ele><time>2026-05-03T17:35:27.276Z</time></trkpt><trkpt lat="44.9443717" lon="8.0279083"><ele>228.0</ele><time>2026-05-03T17:35:28.275Z</time></trkpt><trkpt lat="44.9445333" lon="8.0279233"><ele>229.33333333333331</ele><time>2026-05-03T17:35:29.275Z</time></trkpt><trkpt lat="44.94469" lon="8.027945"><ele>230.66666666666666</ele><time>2026-05-03T17:35:30.275Z</time></trkpt><trkpt lat="44.9448383" lon="8.0279783"><ele>232.0</ele><time>2026-05-03T17:35:31.276Z</time></trkpt><trkpt lat="44.9449867" lon="8.02801"><ele>233.0</ele><time>2026-05-03T17:35:32.275Z</time></trkpt><trkpt lat="44.9451267" lon="8.0280483"><ele>234.0</ele><time>2026-05-03T17:35:33.275Z</time></trkpt><trkpt lat="44.9452533" lon="8.02809"><ele>235.0</ele><time>2026-05-03T17:35:34.275Z</time></trkpt><trkpt lat="44.9453683" lon="8.0281333"><ele>236.0</ele><time>2026-05-03T17:35:35.275Z</time></trkpt><trkpt lat="44.94549" lon="8.0281533"><ele>236.0</ele><time>2026-05-03T17:35:36.275Z</time></trkpt><trkpt lat="44.9456117" lon="8.0281633"><ele>236.0</ele><time>2026-05-03T17:35:37.275Z</time></trkpt><trkpt lat="44.9457267" lon="8.0281567"><ele>236.0</ele><time>2026-05-03T17:35:38.275Z</time></trkpt><trkpt lat="44.9458417" lon="8.02814"><ele>236.0</ele><time>2026-05-03T17:35:39.276Z</time></trkpt><trkpt lat="44.9459517" lon="8.0281233"><ele>235.4</ele><time>2026-05-03T17:35:40.275Z</time></trkpt><trkpt lat="44.94607" lon="8.0281083"><ele>234.8</ele><time>2026-05-03T17:35:41.275Z</time></trkpt><trkpt lat="44.946175" lon="8.0281167"><ele>234.20000000000002</ele><time>2026-05-03T17:35:42.275Z</time></trkpt><trkpt lat="44.9462617" lon="8.0281733"><ele>233.60000000000002</ele><time>2026-05-03T17:35:43.276Z</time></trkpt><trkpt lat="44.9463383" lon="8.028245"><ele>233.0</ele><time>2026-05-03T17:35:44.276Z</time></trkpt><trkpt lat="44.9463983" lon="8.0283217"><ele>233.0</ele><time>2026-05-03T17:35:45.275Z</time></trkpt><trkpt lat="44.946445" lon="8.0283833"><ele>233.0</ele><time>2026-05-03T17:35:46.275Z</time></trkpt><trkpt lat="44.94654" lon="8.0284317"><ele>233.0</ele><time>2026-05-03T17:35:48.275Z</time></trkpt><trkpt lat="44.946605" lon="8.0283933"><ele>233.0</ele><time>2026-05-03T17:35:49.275Z</time></trkpt><trkpt lat="44.9466883" lon="8.0283067"><ele>233.0</ele><time>2026-05-03T17:35:50.275Z</time></trkpt><trkpt lat="44.9468" lon="8.028215"><ele>234.33333333333334</ele><time>2026-05-03T17:35:51.275Z</time></trkpt><trkpt lat="44.9469267" lon="8.0281217"><ele>235.66666666666669</ele><time>2026-05-03T17:35:52.275Z</time></trkpt><trkpt lat="44.947065" lon="8.0280317"><ele>237.0</ele><time>2026-05-03T17:35:53.275Z</time></trkpt><trkpt lat="44.9472167" lon="8.0279417"><ele>237.0</ele><time>2026-05-03T17:35:54.275Z</time></trkpt><trkpt lat="44.94737" lon="8.0278433"><ele>237.0</ele><time>2026-05-03T17:35:55.275Z</time></trkpt><trkpt lat="44.9475267" lon="8.0277433"><ele>237.0</ele><time>2026-05-03T17:35:56.275Z</time></trkpt><trkpt lat="44.9476783" lon="8.0276417"><ele>239.66666666666669</ele><time>2026-05-03T17:35:57.276Z</time></trkpt><trkpt lat="44.94782" lon="8.0275383"><ele>242.33333333333334</ele><time>2026-05-03T17:35:58.275Z</time></trkpt><trkpt lat="44.9479533" lon="8.0274433"><ele>245.0</ele><time>2026-05-03T17:35:59.275Z</time></trkpt><trkpt lat="44.9480817" lon="8.0273583"><ele>245.0</ele><time>2026-05-03T17:36:00.275Z</time></trkpt><trkpt lat="44.9482" lon="8.027285"><ele>245.0</ele><time>2026-05-03T17:36:01.275Z</time></trkpt><trkpt lat="44.948325" lon="8.0272133"><ele>245.0</ele><time>2026-05-03T17:36:02.275Z</time></trkpt><trkpt lat="44.9484417" lon="8.0271767"><ele>245.0</ele><time>2026-05-03T17:36:03.276Z</time></trkpt><trkpt lat="44.9485533" lon="8.027175"><ele>246.25</ele><time>2026-05-03T17:36:04.275Z</time></trkpt><trkpt lat="44.948675" lon="8.0272017"><ele>247.5</ele><time>2026-05-03T17:36:05.275Z</time></trkpt><trkpt lat="44.94879" lon="8.027265"><ele>248.75</ele><time>2026-05-03T17:36:06.275Z</time></trkpt><trkpt lat="44.9488933" lon="8.0273317"><ele>250.0</ele><time>2026-05-03T17:36:07.275Z</time></trkpt><trkpt lat="44.9489983" lon="8.0273967"><ele>250.0</ele><time>2026-05-03T17:36:08.275Z</time></trkpt><trkpt lat="44.9490967" lon="8.0274483"><ele>250.0</ele><time>2026-05-03T17:36:09.275Z</time></trkpt><trkpt lat="44.9491983" lon="8.0274733"><ele>250.0</ele><time>2026-05-03T17:36:10.275Z</time></trkpt><trkpt lat="44.94931" lon="8.0274783"><ele>250.0</ele><time>2026-05-03T17:36:11.276Z</time></trkpt><trkpt lat="44.949415" lon="8.0274767"><ele>250.0</ele><time>2026-05-03T17:36:12.275Z</time></trkpt><trkpt lat="44.9495183" lon="8.0274633"><ele>248.0</ele><time>2026-05-03T17:36:13.275Z</time></trkpt><trkpt lat="44.9496167" lon="8.0274483"><ele>246.0</ele><time>2026-05-03T17:36:14.276Z</time></trkpt><trkpt lat="44.9497117" lon="8.0274333"><ele>244.0</ele><time>2026-05-03T17:36:15.275Z</time></trkpt><trkpt lat="44.9498017" lon="8.0274167"><ele>242.0</ele><time>2026-05-03T17:36:16.275Z</time></trkpt><trkpt lat="44.9498917" lon="8.027405"><ele>240.0</ele><time>2026-05-03T17:36:17.275Z</time></trkpt><trkpt lat="44.9499783" lon="8.0273917"><ele>240.66666666666666</ele><time>2026-05-03T17:36:18.275Z</time></trkpt><trkpt lat="44.9500533" lon="8.0273867"><ele>241.33333333333331</ele><time>2026-05-03T17:36:19.275Z</time></trkpt><trkpt lat="44.9501583" lon="8.0273633"><ele>242.0</ele><time>2026-05-03T17:36:21.275Z</time></trkpt><trkpt lat="44.95021" lon="8.02728"><ele>242.66666666666666</ele><time>2026-05-03T17:36:23.275Z</time></trkpt><trkpt lat="44.9502017" lon="8.0271533"><ele>243.33333333333331</ele><time>2026-05-03T17:36:25.275Z</time></trkpt><trkpt lat="44.9501883" lon="8.0270283"><ele>244.0</ele><time>2026-05-03T17:36:27.275Z</time></trkpt><trkpt lat="44.95018" lon="8.0269167"><ele>244.0</ele><time>2026-05-03T17:36:29.275Z</time></trkpt><trkpt lat="44.9501783" lon="8.0268117"><ele>244.0</ele><time>2026-05-03T17:36:32.275Z</time></trkpt><trkpt lat="44.9501233" lon="8.0267633"><ele>244.0</ele><time>2026-05-03T17:37:07.275Z</time></trkpt><trkpt lat="44.9501233" lon="8.0267633"><ele>244.0</ele><time>2026-05-03T17:37:07.275Z</time></trkpt><trkpt lat="44.9501233" lon="8.0267633"><ele>244.0</ele><time>2026-05-03T17:37:07.275Z</time></trkpt><trkpt lat="44.9501233" lon="8.0267633"><ele>244.0</ele><time>2026-05-03T17:37:07.275Z</time></trkpt><trkpt lat="44.9501233" lon="8.0267633"><ele>244.0</ele><time>2026-05-03T17:37:07.275Z</time></trkpt></trkseg></trk></gpx>